<?xml version="1.0" encoding="UTF-8"?>
<gpx version="1.1" creator="https://www.youtrack.es" xsi:schemaLocation="http://www.topografix.com/GPX/1/1 http://www.topografix.com/GPX/1/1/gpx.xsd http://www.garmin.com/xmlschemas/GpxExtensions/v3 http://www.garmin.com/xmlschemas/GpxExtensionsv3.xsd http://www.garmin.com/xmlschemas/TrackPointExtension/v1 http://www.garmin.com/xmlschemas/TrackPointExtensionv1.xsd" xmlns:gpxtpx="http://www.garmin.com/xmlschemas/TrackPointExtension/v1" xmlns:gpxx="http://www.garmin.com/xmlschemas/GpxExtensions/v3" xmlns:xsi="http://www.w3.org/2001/XMLSchema-instance">
  <metadata>
    <author>
      <name>Carlos Paxtón</name>
      <email id="muchoquillo" domain="gmail.com"/>
    </author>
    <link href="https://www.youtrack.es">
      <text>YouTrack.es</text>
    </link>
    <time>2026-05-09T01:17:30Z</time>
  </metadata>
  <trk>
    <src>https://www.youtrack.es</src>
    <link href="https://www.youtrack.es/ruta/39966-los-marchantes">
      <text>YouTrack.es</text>
    </link>
    <trkseg>
      <trkpt lat="36.4758320" lon="-6.1939660">
        <ele>9.8</ele>
        <time>2023-01-28T07:23:20Z</time>
      </trkpt>
      <trkpt lat="36.4758320" lon="-6.1939660">
        <ele>9.8</ele>
        <time>2023-01-28T07:23:21Z</time>
      </trkpt>
      <trkpt lat="36.4758320" lon="-6.1939660">
        <ele>9.8</ele>
        <time>2023-01-28T07:23:22Z</time>
      </trkpt>
      <trkpt lat="36.4758320" lon="-6.1939660">
        <ele>9.8</ele>
        <time>2023-01-28T07:23:23Z</time>
      </trkpt>
      <trkpt lat="36.4758320" lon="-6.1939660">
        <ele>9.8</ele>
        <time>2023-01-28T07:23:24Z</time>
      </trkpt>
      <trkpt lat="36.4758320" lon="-6.1939660">
        <ele>9.8</ele>
        <time>2023-01-28T07:23:29Z</time>
      </trkpt>
      <trkpt lat="36.4758320" lon="-6.1939660">
        <ele>9.8</ele>
        <time>2023-01-28T07:23:30Z</time>
      </trkpt>
      <trkpt lat="36.4758320" lon="-6.1939660">
        <ele>9.8</ele>
        <time>2023-01-28T07:23:31Z</time>
      </trkpt>
      <trkpt lat="36.4758320" lon="-6.1939660">
        <ele>9.8</ele>
        <time>2023-01-28T07:23:32Z</time>
      </trkpt>
      <trkpt lat="36.4758320" lon="-6.1939660">
        <ele>9.8</ele>
        <time>2023-01-28T07:23:33Z</time>
      </trkpt>
      <trkpt lat="36.4758320" lon="-6.1939660">
        <ele>9.8</ele>
        <time>2023-01-28T07:23:34Z</time>
      </trkpt>
      <trkpt lat="36.4758320" lon="-6.1939660">
        <ele>9.8</ele>
        <time>2023-01-28T07:23:35Z</time>
      </trkpt>
      <trkpt lat="36.4758320" lon="-6.1939660">
        <ele>9.8</ele>
        <time>2023-01-28T07:23:36Z</time>
      </trkpt>
      <trkpt lat="36.4758320" lon="-6.1939660">
        <ele>9.8</ele>
        <time>2023-01-28T07:23:37Z</time>
      </trkpt>
      <trkpt lat="36.4758320" lon="-6.1939660">
        <ele>9.8</ele>
        <time>2023-01-28T07:23:38Z</time>
      </trkpt>
      <trkpt lat="36.4758320" lon="-6.1939660">
        <ele>9.8</ele>
        <time>2023-01-28T07:23:39Z</time>
      </trkpt>
      <trkpt lat="36.4758320" lon="-6.1939660">
        <ele>9.8</ele>
        <time>2023-01-28T07:23:40Z</time>
      </trkpt>
      <trkpt lat="36.4758320" lon="-6.1939660">
        <ele>9.8</ele>
        <time>2023-01-28T07:26:09Z</time>
      </trkpt>
      <trkpt lat="36.4758270" lon="-6.1939460">
        <ele>9.8</ele>
        <time>2023-01-28T07:26:10Z</time>
      </trkpt>
      <trkpt lat="36.4758080" lon="-6.1939430">
        <ele>10.0</ele>
        <time>2023-01-28T07:26:11Z</time>
      </trkpt>
      <trkpt lat="36.4757970" lon="-6.1939220">
        <ele>10.0</ele>
        <time>2023-01-28T07:26:12Z</time>
      </trkpt>
      <trkpt lat="36.4758080" lon="-6.1939010">
        <ele>10.0</ele>
        <time>2023-01-28T07:26:13Z</time>
      </trkpt>
      <trkpt lat="36.4758330" lon="-6.1938720">
        <ele>10.0</ele>
        <time>2023-01-28T07:26:14Z</time>
      </trkpt>
      <trkpt lat="36.4758070" lon="-6.1938420">
        <ele>10.0</ele>
        <time>2023-01-28T07:26:15Z</time>
      </trkpt>
      <trkpt lat="36.4758190" lon="-6.1938250">
        <ele>10.0</ele>
        <time>2023-01-28T07:26:16Z</time>
      </trkpt>
      <trkpt lat="36.4758240" lon="-6.1937900">
        <ele>10.0</ele>
        <time>2023-01-28T07:26:17Z</time>
      </trkpt>
      <trkpt lat="36.4758120" lon="-6.1937690">
        <ele>9.8</ele>
        <time>2023-01-28T07:26:18Z</time>
      </trkpt>
      <trkpt lat="36.4758260" lon="-6.1937670">
        <ele>9.8</ele>
        <time>2023-01-28T07:26:19Z</time>
      </trkpt>
      <trkpt lat="36.4758330" lon="-6.1937310">
        <ele>9.8</ele>
        <time>2023-01-28T07:26:20Z</time>
      </trkpt>
      <trkpt lat="36.4758160" lon="-6.1937120">
        <ele>9.8</ele>
        <time>2023-01-28T07:26:21Z</time>
      </trkpt>
      <trkpt lat="36.4758170" lon="-6.1937030">
        <ele>9.8</ele>
        <time>2023-01-28T07:26:22Z</time>
      </trkpt>
      <trkpt lat="36.4758310" lon="-6.1936780">
        <ele>10.0</ele>
        <time>2023-01-28T07:26:23Z</time>
      </trkpt>
      <trkpt lat="36.4758320" lon="-6.1936350">
        <ele>10.0</ele>
        <time>2023-01-28T07:26:24Z</time>
      </trkpt>
      <trkpt lat="36.4758450" lon="-6.1936000">
        <ele>9.8</ele>
        <time>2023-01-28T07:26:25Z</time>
      </trkpt>
      <trkpt lat="36.4758470" lon="-6.1935870">
        <ele>10.0</ele>
        <time>2023-01-28T07:26:26Z</time>
      </trkpt>
      <trkpt lat="36.4758360" lon="-6.1935460">
        <ele>10.0</ele>
        <time>2023-01-28T07:26:27Z</time>
      </trkpt>
      <trkpt lat="36.4758640" lon="-6.1935140">
        <ele>10.0</ele>
        <time>2023-01-28T07:26:28Z</time>
      </trkpt>
      <trkpt lat="36.4758640" lon="-6.1934740">
        <ele>10.2</ele>
        <time>2023-01-28T07:26:29Z</time>
      </trkpt>
      <trkpt lat="36.4758710" lon="-6.1934480">
        <ele>10.0</ele>
        <time>2023-01-28T07:26:30Z</time>
      </trkpt>
      <trkpt lat="36.4758820" lon="-6.1934110">
        <ele>10.0</ele>
        <time>2023-01-28T07:26:31Z</time>
      </trkpt>
      <trkpt lat="36.4758840" lon="-6.1933840">
        <ele>10.0</ele>
        <time>2023-01-28T07:26:32Z</time>
      </trkpt>
      <trkpt lat="36.4759070" lon="-6.1933630">
        <ele>10.0</ele>
        <time>2023-01-28T07:26:33Z</time>
      </trkpt>
      <trkpt lat="36.4759160" lon="-6.1933390">
        <ele>10.0</ele>
        <time>2023-01-28T07:26:34Z</time>
      </trkpt>
      <trkpt lat="36.4759240" lon="-6.1933150">
        <ele>10.0</ele>
        <time>2023-01-28T07:26:35Z</time>
      </trkpt>
      <trkpt lat="36.4759550" lon="-6.1932810">
        <ele>10.2</ele>
        <time>2023-01-28T07:26:36Z</time>
      </trkpt>
      <trkpt lat="36.4759690" lon="-6.1932610">
        <ele>10.4</ele>
        <time>2023-01-28T07:26:37Z</time>
      </trkpt>
      <trkpt lat="36.4759750" lon="-6.1932190">
        <ele>10.2</ele>
        <time>2023-01-28T07:26:38Z</time>
      </trkpt>
      <trkpt lat="36.4759880" lon="-6.1932020">
        <ele>10.0</ele>
        <time>2023-01-28T07:26:39Z</time>
      </trkpt>
      <trkpt lat="36.4759950" lon="-6.1931600">
        <ele>10.2</ele>
        <time>2023-01-28T07:26:40Z</time>
      </trkpt>
      <trkpt lat="36.4760130" lon="-6.1931290">
        <ele>10.4</ele>
        <time>2023-01-28T07:26:41Z</time>
      </trkpt>
      <trkpt lat="36.4760060" lon="-6.1931030">
        <ele>10.4</ele>
        <time>2023-01-28T07:26:42Z</time>
      </trkpt>
      <trkpt lat="36.4759920" lon="-6.1930850">
        <ele>10.4</ele>
        <time>2023-01-28T07:26:43Z</time>
      </trkpt>
      <trkpt lat="36.4759920" lon="-6.1930540">
        <ele>10.4</ele>
        <time>2023-01-28T07:26:44Z</time>
      </trkpt>
      <trkpt lat="36.4760050" lon="-6.1930090">
        <ele>10.4</ele>
        <time>2023-01-28T07:26:45Z</time>
      </trkpt>
      <trkpt lat="36.4759810" lon="-6.1929950">
        <ele>10.4</ele>
        <time>2023-01-28T07:26:46Z</time>
      </trkpt>
      <trkpt lat="36.4759860" lon="-6.1929420">
        <ele>10.2</ele>
        <time>2023-01-28T07:26:47Z</time>
      </trkpt>
      <trkpt lat="36.4759990" lon="-6.1929130">
        <ele>10.4</ele>
        <time>2023-01-28T07:26:48Z</time>
      </trkpt>
      <trkpt lat="36.4760190" lon="-6.1928740">
        <ele>10.4</ele>
        <time>2023-01-28T07:26:49Z</time>
      </trkpt>
      <trkpt lat="36.4760360" lon="-6.1928360">
        <ele>10.2</ele>
        <time>2023-01-28T07:26:50Z</time>
      </trkpt>
      <trkpt lat="36.4760440" lon="-6.1927920">
        <ele>10.2</ele>
        <time>2023-01-28T07:26:51Z</time>
      </trkpt>
      <trkpt lat="36.4760820" lon="-6.1927580">
        <ele>10.2</ele>
        <time>2023-01-28T07:26:52Z</time>
      </trkpt>
      <trkpt lat="36.4760640" lon="-6.1927140">
        <ele>10.2</ele>
        <time>2023-01-28T07:26:53Z</time>
      </trkpt>
      <trkpt lat="36.4760470" lon="-6.1926900">
        <ele>10.2</ele>
        <time>2023-01-28T07:26:54Z</time>
      </trkpt>
      <trkpt lat="36.4760310" lon="-6.1926630">
        <ele>10.2</ele>
        <time>2023-01-28T07:26:55Z</time>
      </trkpt>
      <trkpt lat="36.4760140" lon="-6.1926590">
        <ele>10.4</ele>
        <time>2023-01-28T07:26:56Z</time>
      </trkpt>
      <trkpt lat="36.4760510" lon="-6.1926390">
        <ele>10.2</ele>
        <time>2023-01-28T07:26:57Z</time>
      </trkpt>
      <trkpt lat="36.4760210" lon="-6.1926020">
        <ele>10.4</ele>
        <time>2023-01-28T07:26:58Z</time>
      </trkpt>
      <trkpt lat="36.4760230" lon="-6.1925620">
        <ele>10.4</ele>
        <time>2023-01-28T07:26:59Z</time>
      </trkpt>
      <trkpt lat="36.4760370" lon="-6.1925400">
        <ele>10.2</ele>
        <time>2023-01-28T07:27:00Z</time>
      </trkpt>
      <trkpt lat="36.4760270" lon="-6.1924860">
        <ele>10.0</ele>
        <time>2023-01-28T07:27:01Z</time>
      </trkpt>
      <trkpt lat="36.4760840" lon="-6.1924360">
        <ele>10.2</ele>
        <time>2023-01-28T07:27:02Z</time>
      </trkpt>
      <trkpt lat="36.4760860" lon="-6.1924000">
        <ele>10.0</ele>
        <time>2023-01-28T07:27:03Z</time>
      </trkpt>
      <trkpt lat="36.4761240" lon="-6.1923660">
        <ele>10.0</ele>
        <time>2023-01-28T07:27:04Z</time>
      </trkpt>
      <trkpt lat="36.4761200" lon="-6.1923480">
        <ele>10.0</ele>
        <time>2023-01-28T07:27:05Z</time>
      </trkpt>
      <trkpt lat="36.4761080" lon="-6.1923280">
        <ele>9.8</ele>
        <time>2023-01-28T07:27:06Z</time>
      </trkpt>
      <trkpt lat="36.4761000" lon="-6.1923140">
        <ele>9.6</ele>
        <time>2023-01-28T07:27:07Z</time>
      </trkpt>
      <trkpt lat="36.4761050" lon="-6.1922650">
        <ele>9.6</ele>
        <time>2023-01-28T07:27:08Z</time>
      </trkpt>
      <trkpt lat="36.4761030" lon="-6.1922320">
        <ele>9.6</ele>
        <time>2023-01-28T07:27:09Z</time>
      </trkpt>
      <trkpt lat="36.4760820" lon="-6.1921880">
        <ele>9.2</ele>
        <time>2023-01-28T07:27:10Z</time>
      </trkpt>
      <trkpt lat="36.4760920" lon="-6.1921340">
        <ele>9.2</ele>
        <time>2023-01-28T07:27:11Z</time>
      </trkpt>
      <trkpt lat="36.4761110" lon="-6.1920720">
        <ele>8.8</ele>
        <time>2023-01-28T07:27:12Z</time>
      </trkpt>
      <trkpt lat="36.4761140" lon="-6.1920070">
        <ele>8.2</ele>
        <time>2023-01-28T07:27:13Z</time>
      </trkpt>
      <trkpt lat="36.4760890" lon="-6.1919300">
        <ele>7.8</ele>
        <time>2023-01-28T07:27:14Z</time>
      </trkpt>
      <trkpt lat="36.4761100" lon="-6.1918550">
        <ele>7.6</ele>
        <time>2023-01-28T07:27:15Z</time>
      </trkpt>
      <trkpt lat="36.4761090" lon="-6.1918000">
        <ele>7.4</ele>
        <time>2023-01-28T07:27:16Z</time>
      </trkpt>
      <trkpt lat="36.4761110" lon="-6.1917510">
        <ele>7.2</ele>
        <time>2023-01-28T07:27:17Z</time>
      </trkpt>
      <trkpt lat="36.4761340" lon="-6.1916950">
        <ele>6.8</ele>
        <time>2023-01-28T07:27:18Z</time>
      </trkpt>
      <trkpt lat="36.4761110" lon="-6.1916360">
        <ele>6.6</ele>
        <time>2023-01-28T07:27:19Z</time>
      </trkpt>
      <trkpt lat="36.4761200" lon="-6.1915650">
        <ele>6.2</ele>
        <time>2023-01-28T07:27:20Z</time>
      </trkpt>
      <trkpt lat="36.4761350" lon="-6.1915080">
        <ele>5.8</ele>
        <time>2023-01-28T07:27:21Z</time>
      </trkpt>
      <trkpt lat="36.4761110" lon="-6.1914370">
        <ele>5.6</ele>
        <time>2023-01-28T07:27:22Z</time>
      </trkpt>
      <trkpt lat="36.4761460" lon="-6.1913810">
        <ele>5.6</ele>
        <time>2023-01-28T07:27:23Z</time>
      </trkpt>
      <trkpt lat="36.4761470" lon="-6.1913100">
        <ele>5.6</ele>
        <time>2023-01-28T07:27:24Z</time>
      </trkpt>
      <trkpt lat="36.4761320" lon="-6.1912500">
        <ele>5.4</ele>
        <time>2023-01-28T07:27:25Z</time>
      </trkpt>
      <trkpt lat="36.4761490" lon="-6.1911910">
        <ele>5.2</ele>
        <time>2023-01-28T07:27:26Z</time>
      </trkpt>
      <trkpt lat="36.4761510" lon="-6.1911410">
        <ele>5.0</ele>
        <time>2023-01-28T07:27:27Z</time>
      </trkpt>
      <trkpt lat="36.4761620" lon="-6.1910960">
        <ele>4.8</ele>
        <time>2023-01-28T07:27:28Z</time>
      </trkpt>
      <trkpt lat="36.4761860" lon="-6.1910830">
        <ele>4.8</ele>
        <time>2023-01-28T07:27:29Z</time>
      </trkpt>
      <trkpt lat="36.4762120" lon="-6.1910490">
        <ele>4.8</ele>
        <time>2023-01-28T07:27:30Z</time>
      </trkpt>
      <trkpt lat="36.4762370" lon="-6.1910260">
        <ele>4.8</ele>
        <time>2023-01-28T07:27:31Z</time>
      </trkpt>
      <trkpt lat="36.4762740" lon="-6.1909970">
        <ele>5.0</ele>
        <time>2023-01-28T07:27:32Z</time>
      </trkpt>
      <trkpt lat="36.4762830" lon="-6.1909680">
        <ele>5.0</ele>
        <time>2023-01-28T07:27:33Z</time>
      </trkpt>
      <trkpt lat="36.4762850" lon="-6.1909250">
        <ele>5.0</ele>
        <time>2023-01-28T07:27:34Z</time>
      </trkpt>
      <trkpt lat="36.4763040" lon="-6.1908730">
        <ele>5.0</ele>
        <time>2023-01-28T07:27:35Z</time>
      </trkpt>
      <trkpt lat="36.4763350" lon="-6.1908350">
        <ele>5.0</ele>
        <time>2023-01-28T07:27:36Z</time>
      </trkpt>
      <trkpt lat="36.4763280" lon="-6.1907940">
        <ele>4.8</ele>
        <time>2023-01-28T07:27:37Z</time>
      </trkpt>
      <trkpt lat="36.4763310" lon="-6.1907420">
        <ele>4.8</ele>
        <time>2023-01-28T07:27:38Z</time>
      </trkpt>
      <trkpt lat="36.4763160" lon="-6.1906990">
        <ele>4.8</ele>
        <time>2023-01-28T07:27:39Z</time>
      </trkpt>
      <trkpt lat="36.4763300" lon="-6.1906630">
        <ele>4.8</ele>
        <time>2023-01-28T07:27:40Z</time>
      </trkpt>
      <trkpt lat="36.4763350" lon="-6.1906220">
        <ele>4.8</ele>
        <time>2023-01-28T07:27:41Z</time>
      </trkpt>
      <trkpt lat="36.4763340" lon="-6.1905620">
        <ele>4.8</ele>
        <time>2023-01-28T07:27:42Z</time>
      </trkpt>
      <trkpt lat="36.4763380" lon="-6.1905240">
        <ele>4.8</ele>
        <time>2023-01-28T07:27:43Z</time>
      </trkpt>
      <trkpt lat="36.4763450" lon="-6.1904920">
        <ele>4.8</ele>
        <time>2023-01-28T07:27:44Z</time>
      </trkpt>
      <trkpt lat="36.4763560" lon="-6.1904440">
        <ele>4.8</ele>
        <time>2023-01-28T07:27:45Z</time>
      </trkpt>
      <trkpt lat="36.4763840" lon="-6.1903580">
        <ele>5.0</ele>
        <time>2023-01-28T07:27:46Z</time>
      </trkpt>
      <trkpt lat="36.4763840" lon="-6.1903130">
        <ele>4.8</ele>
        <time>2023-01-28T07:27:47Z</time>
      </trkpt>
      <trkpt lat="36.4764010" lon="-6.1902780">
        <ele>4.8</ele>
        <time>2023-01-28T07:27:48Z</time>
      </trkpt>
      <trkpt lat="36.4764070" lon="-6.1902300">
        <ele>4.8</ele>
        <time>2023-01-28T07:27:49Z</time>
      </trkpt>
      <trkpt lat="36.4764400" lon="-6.1901910">
        <ele>4.8</ele>
        <time>2023-01-28T07:27:50Z</time>
      </trkpt>
      <trkpt lat="36.4764300" lon="-6.1901660">
        <ele>4.8</ele>
        <time>2023-01-28T07:27:51Z</time>
      </trkpt>
      <trkpt lat="36.4764140" lon="-6.1901460">
        <ele>4.8</ele>
        <time>2023-01-28T07:27:52Z</time>
      </trkpt>
      <trkpt lat="36.4764020" lon="-6.1901200">
        <ele>4.8</ele>
        <time>2023-01-28T07:27:53Z</time>
      </trkpt>
      <trkpt lat="36.4764190" lon="-6.1900860">
        <ele>4.6</ele>
        <time>2023-01-28T07:27:54Z</time>
      </trkpt>
      <trkpt lat="36.4764280" lon="-6.1900410">
        <ele>4.4</ele>
        <time>2023-01-28T07:27:55Z</time>
      </trkpt>
      <trkpt lat="36.4764310" lon="-6.1899970">
        <ele>4.2</ele>
        <time>2023-01-28T07:27:56Z</time>
      </trkpt>
      <trkpt lat="36.4764520" lon="-6.1899370">
        <ele>3.8</ele>
        <time>2023-01-28T07:27:57Z</time>
      </trkpt>
      <trkpt lat="36.4764530" lon="-6.1898990">
        <ele>3.6</ele>
        <time>2023-01-28T07:27:58Z</time>
      </trkpt>
      <trkpt lat="36.4764500" lon="-6.1898630">
        <ele>3.2</ele>
        <time>2023-01-28T07:27:59Z</time>
      </trkpt>
      <trkpt lat="36.4764650" lon="-6.1898030">
        <ele>3.0</ele>
        <time>2023-01-28T07:28:00Z</time>
      </trkpt>
      <trkpt lat="36.4764910" lon="-6.1897250">
        <ele>2.6</ele>
        <time>2023-01-28T07:28:01Z</time>
      </trkpt>
      <trkpt lat="36.4764880" lon="-6.1896670">
        <ele>2.4</ele>
        <time>2023-01-28T07:28:02Z</time>
      </trkpt>
      <trkpt lat="36.4765030" lon="-6.1896200">
        <ele>2.2</ele>
        <time>2023-01-28T07:28:03Z</time>
      </trkpt>
      <trkpt lat="36.4765400" lon="-6.1895830">
        <ele>2.0</ele>
        <time>2023-01-28T07:28:04Z</time>
      </trkpt>
      <trkpt lat="36.4765730" lon="-6.1895430">
        <ele>1.8</ele>
        <time>2023-01-28T07:28:05Z</time>
      </trkpt>
      <trkpt lat="36.4765830" lon="-6.1895070">
        <ele>1.6</ele>
        <time>2023-01-28T07:28:06Z</time>
      </trkpt>
      <trkpt lat="36.4766020" lon="-6.1894790">
        <ele>1.6</ele>
        <time>2023-01-28T07:28:07Z</time>
      </trkpt>
      <trkpt lat="36.4765970" lon="-6.1894650">
        <ele>1.6</ele>
        <time>2023-01-28T07:28:08Z</time>
      </trkpt>
      <trkpt lat="36.4766000" lon="-6.1894370">
        <ele>1.6</ele>
        <time>2023-01-28T07:28:09Z</time>
      </trkpt>
      <trkpt lat="36.4766000" lon="-6.1894370">
        <ele>1.6</ele>
        <time>2023-01-28T07:28:10Z</time>
      </trkpt>
      <trkpt lat="36.4766000" lon="-6.1894370">
        <ele>1.6</ele>
        <time>2023-01-28T07:28:11Z</time>
      </trkpt>
      <trkpt lat="36.4766000" lon="-6.1894370">
        <ele>1.6</ele>
        <time>2023-01-28T07:28:12Z</time>
      </trkpt>
      <trkpt lat="36.4766000" lon="-6.1894370">
        <ele>1.8</ele>
        <time>2023-01-28T07:28:13Z</time>
      </trkpt>
      <trkpt lat="36.4766000" lon="-6.1894370">
        <ele>1.8</ele>
        <time>2023-01-28T07:28:14Z</time>
      </trkpt>
      <trkpt lat="36.4766000" lon="-6.1894370">
        <ele>2.0</ele>
        <time>2023-01-28T07:28:15Z</time>
      </trkpt>
      <trkpt lat="36.4767300" lon="-6.1893670">
        <ele>2.2</ele>
        <time>2023-01-28T07:28:16Z</time>
      </trkpt>
      <trkpt lat="36.4767640" lon="-6.1893450">
        <ele>2.4</ele>
        <time>2023-01-28T07:28:17Z</time>
      </trkpt>
      <trkpt lat="36.4767990" lon="-6.1893220">
        <ele>2.4</ele>
        <time>2023-01-28T07:28:18Z</time>
      </trkpt>
      <trkpt lat="36.4768200" lon="-6.1892910">
        <ele>2.4</ele>
        <time>2023-01-28T07:28:19Z</time>
      </trkpt>
      <trkpt lat="36.4768330" lon="-6.1892590">
        <ele>2.4</ele>
        <time>2023-01-28T07:28:20Z</time>
      </trkpt>
      <trkpt lat="36.4768480" lon="-6.1892260">
        <ele>2.4</ele>
        <time>2023-01-28T07:28:21Z</time>
      </trkpt>
      <trkpt lat="36.4768630" lon="-6.1891890">
        <ele>2.4</ele>
        <time>2023-01-28T07:28:22Z</time>
      </trkpt>
      <trkpt lat="36.4768710" lon="-6.1891480">
        <ele>2.6</ele>
        <time>2023-01-28T07:28:23Z</time>
      </trkpt>
      <trkpt lat="36.4768740" lon="-6.1891060">
        <ele>2.6</ele>
        <time>2023-01-28T07:28:24Z</time>
      </trkpt>
      <trkpt lat="36.4768770" lon="-6.1890650">
        <ele>2.6</ele>
        <time>2023-01-28T07:28:25Z</time>
      </trkpt>
      <trkpt lat="36.4768780" lon="-6.1890240">
        <ele>2.6</ele>
        <time>2023-01-28T07:28:26Z</time>
      </trkpt>
      <trkpt lat="36.4768830" lon="-6.1889830">
        <ele>2.8</ele>
        <time>2023-01-28T07:28:27Z</time>
      </trkpt>
      <trkpt lat="36.4768910" lon="-6.1889430">
        <ele>2.8</ele>
        <time>2023-01-28T07:28:28Z</time>
      </trkpt>
      <trkpt lat="36.4768980" lon="-6.1889060">
        <ele>2.8</ele>
        <time>2023-01-28T07:28:29Z</time>
      </trkpt>
      <trkpt lat="36.4769080" lon="-6.1888670">
        <ele>2.8</ele>
        <time>2023-01-28T07:28:30Z</time>
      </trkpt>
      <trkpt lat="36.4769180" lon="-6.1888290">
        <ele>3.0</ele>
        <time>2023-01-28T07:28:31Z</time>
      </trkpt>
      <trkpt lat="36.4769250" lon="-6.1887910">
        <ele>3.0</ele>
        <time>2023-01-28T07:28:32Z</time>
      </trkpt>
      <trkpt lat="36.4769340" lon="-6.1887530">
        <ele>3.0</ele>
        <time>2023-01-28T07:28:33Z</time>
      </trkpt>
      <trkpt lat="36.4769420" lon="-6.1887140">
        <ele>3.2</ele>
        <time>2023-01-28T07:28:34Z</time>
      </trkpt>
      <trkpt lat="36.4769520" lon="-6.1886740">
        <ele>3.2</ele>
        <time>2023-01-28T07:28:35Z</time>
      </trkpt>
      <trkpt lat="36.4769610" lon="-6.1886350">
        <ele>3.4</ele>
        <time>2023-01-28T07:28:36Z</time>
      </trkpt>
      <trkpt lat="36.4769710" lon="-6.1885940">
        <ele>3.4</ele>
        <time>2023-01-28T07:28:37Z</time>
      </trkpt>
      <trkpt lat="36.4769820" lon="-6.1885540">
        <ele>3.6</ele>
        <time>2023-01-28T07:28:38Z</time>
      </trkpt>
      <trkpt lat="36.4769930" lon="-6.1885140">
        <ele>3.6</ele>
        <time>2023-01-28T07:28:39Z</time>
      </trkpt>
      <trkpt lat="36.4770040" lon="-6.1884740">
        <ele>3.8</ele>
        <time>2023-01-28T07:28:40Z</time>
      </trkpt>
      <trkpt lat="36.4770140" lon="-6.1884340">
        <ele>4.0</ele>
        <time>2023-01-28T07:28:41Z</time>
      </trkpt>
      <trkpt lat="36.4770250" lon="-6.1883940">
        <ele>4.2</ele>
        <time>2023-01-28T07:28:42Z</time>
      </trkpt>
      <trkpt lat="36.4770360" lon="-6.1883550">
        <ele>4.2</ele>
        <time>2023-01-28T07:28:43Z</time>
      </trkpt>
      <trkpt lat="36.4770470" lon="-6.1883170">
        <ele>4.4</ele>
        <time>2023-01-28T07:28:44Z</time>
      </trkpt>
      <trkpt lat="36.4770570" lon="-6.1882780">
        <ele>4.6</ele>
        <time>2023-01-28T07:28:45Z</time>
      </trkpt>
      <trkpt lat="36.4770660" lon="-6.1882400">
        <ele>4.8</ele>
        <time>2023-01-28T07:28:46Z</time>
      </trkpt>
      <trkpt lat="36.4770750" lon="-6.1882020">
        <ele>5.0</ele>
        <time>2023-01-28T07:28:47Z</time>
      </trkpt>
      <trkpt lat="36.4770850" lon="-6.1881650">
        <ele>5.2</ele>
        <time>2023-01-28T07:28:48Z</time>
      </trkpt>
      <trkpt lat="36.4770960" lon="-6.1881280">
        <ele>5.2</ele>
        <time>2023-01-28T07:28:49Z</time>
      </trkpt>
      <trkpt lat="36.4771080" lon="-6.1880890">
        <ele>5.4</ele>
        <time>2023-01-28T07:28:50Z</time>
      </trkpt>
      <trkpt lat="36.4771200" lon="-6.1880490">
        <ele>5.4</ele>
        <time>2023-01-28T07:28:51Z</time>
      </trkpt>
      <trkpt lat="36.4771320" lon="-6.1880100">
        <ele>5.4</ele>
        <time>2023-01-28T07:28:52Z</time>
      </trkpt>
      <trkpt lat="36.4771450" lon="-6.1879740">
        <ele>5.4</ele>
        <time>2023-01-28T07:28:53Z</time>
      </trkpt>
      <trkpt lat="36.4771580" lon="-6.1879370">
        <ele>5.6</ele>
        <time>2023-01-28T07:28:54Z</time>
      </trkpt>
      <trkpt lat="36.4771770" lon="-6.1879010">
        <ele>5.6</ele>
        <time>2023-01-28T07:28:55Z</time>
      </trkpt>
      <trkpt lat="36.4771900" lon="-6.1878530">
        <ele>5.6</ele>
        <time>2023-01-28T07:28:56Z</time>
      </trkpt>
      <trkpt lat="36.4771920" lon="-6.1878190">
        <ele>5.8</ele>
        <time>2023-01-28T07:28:57Z</time>
      </trkpt>
      <trkpt lat="36.4772150" lon="-6.1877780">
        <ele>5.8</ele>
        <time>2023-01-28T07:28:58Z</time>
      </trkpt>
      <trkpt lat="36.4772200" lon="-6.1877370">
        <ele>5.6</ele>
        <time>2023-01-28T07:28:59Z</time>
      </trkpt>
      <trkpt lat="36.4772420" lon="-6.1876960">
        <ele>5.6</ele>
        <time>2023-01-28T07:29:00Z</time>
      </trkpt>
      <trkpt lat="36.4772470" lon="-6.1876510">
        <ele>5.4</ele>
        <time>2023-01-28T07:29:01Z</time>
      </trkpt>
      <trkpt lat="36.4772460" lon="-6.1876170">
        <ele>5.4</ele>
        <time>2023-01-28T07:29:02Z</time>
      </trkpt>
      <trkpt lat="36.4772590" lon="-6.1875640">
        <ele>5.4</ele>
        <time>2023-01-28T07:29:03Z</time>
      </trkpt>
      <trkpt lat="36.4772750" lon="-6.1875160">
        <ele>5.4</ele>
        <time>2023-01-28T07:29:04Z</time>
      </trkpt>
      <trkpt lat="36.4772880" lon="-6.1874720">
        <ele>5.8</ele>
        <time>2023-01-28T07:29:05Z</time>
      </trkpt>
      <trkpt lat="36.4772950" lon="-6.1874290">
        <ele>5.6</ele>
        <time>2023-01-28T07:29:06Z</time>
      </trkpt>
      <trkpt lat="36.4773130" lon="-6.1873780">
        <ele>5.6</ele>
        <time>2023-01-28T07:29:07Z</time>
      </trkpt>
      <trkpt lat="36.4773200" lon="-6.1873340">
        <ele>5.8</ele>
        <time>2023-01-28T07:29:08Z</time>
      </trkpt>
      <trkpt lat="36.4773590" lon="-6.1872930">
        <ele>6.0</ele>
        <time>2023-01-28T07:29:09Z</time>
      </trkpt>
      <trkpt lat="36.4773950" lon="-6.1872490">
        <ele>5.8</ele>
        <time>2023-01-28T07:29:10Z</time>
      </trkpt>
      <trkpt lat="36.4774210" lon="-6.1872040">
        <ele>5.8</ele>
        <time>2023-01-28T07:29:11Z</time>
      </trkpt>
      <trkpt lat="36.4774400" lon="-6.1871700">
        <ele>6.0</ele>
        <time>2023-01-28T07:29:12Z</time>
      </trkpt>
      <trkpt lat="36.4774380" lon="-6.1871440">
        <ele>5.8</ele>
        <time>2023-01-28T07:29:13Z</time>
      </trkpt>
      <trkpt lat="36.4774710" lon="-6.1870990">
        <ele>5.6</ele>
        <time>2023-01-28T07:29:14Z</time>
      </trkpt>
      <trkpt lat="36.4774760" lon="-6.1870630">
        <ele>5.6</ele>
        <time>2023-01-28T07:29:15Z</time>
      </trkpt>
      <trkpt lat="36.4774890" lon="-6.1870270">
        <ele>5.6</ele>
        <time>2023-01-28T07:29:16Z</time>
      </trkpt>
      <trkpt lat="36.4775190" lon="-6.1869830">
        <ele>5.4</ele>
        <time>2023-01-28T07:29:17Z</time>
      </trkpt>
      <trkpt lat="36.4775220" lon="-6.1869420">
        <ele>5.4</ele>
        <time>2023-01-28T07:29:18Z</time>
      </trkpt>
      <trkpt lat="36.4775230" lon="-6.1869100">
        <ele>5.2</ele>
        <time>2023-01-28T07:29:19Z</time>
      </trkpt>
      <trkpt lat="36.4775380" lon="-6.1868750">
        <ele>5.2</ele>
        <time>2023-01-28T07:29:20Z</time>
      </trkpt>
      <trkpt lat="36.4775520" lon="-6.1868340">
        <ele>5.4</ele>
        <time>2023-01-28T07:29:21Z</time>
      </trkpt>
      <trkpt lat="36.4775940" lon="-6.1867870">
        <ele>5.4</ele>
        <time>2023-01-28T07:29:22Z</time>
      </trkpt>
      <trkpt lat="36.4776160" lon="-6.1867460">
        <ele>5.4</ele>
        <time>2023-01-28T07:29:23Z</time>
      </trkpt>
      <trkpt lat="36.4776190" lon="-6.1867110">
        <ele>5.4</ele>
        <time>2023-01-28T07:29:24Z</time>
      </trkpt>
      <trkpt lat="36.4776380" lon="-6.1866690">
        <ele>5.4</ele>
        <time>2023-01-28T07:29:25Z</time>
      </trkpt>
      <trkpt lat="36.4776620" lon="-6.1866280">
        <ele>5.4</ele>
        <time>2023-01-28T07:29:26Z</time>
      </trkpt>
      <trkpt lat="36.4776690" lon="-6.1865900">
        <ele>5.4</ele>
        <time>2023-01-28T07:29:27Z</time>
      </trkpt>
      <trkpt lat="36.4776810" lon="-6.1865470">
        <ele>5.4</ele>
        <time>2023-01-28T07:29:28Z</time>
      </trkpt>
      <trkpt lat="36.4777190" lon="-6.1865130">
        <ele>5.4</ele>
        <time>2023-01-28T07:29:29Z</time>
      </trkpt>
      <trkpt lat="36.4777410" lon="-6.1864970">
        <ele>5.4</ele>
        <time>2023-01-28T07:29:30Z</time>
      </trkpt>
      <trkpt lat="36.4777750" lon="-6.1864400">
        <ele>5.4</ele>
        <time>2023-01-28T07:29:31Z</time>
      </trkpt>
      <trkpt lat="36.4778140" lon="-6.1864090">
        <ele>5.2</ele>
        <time>2023-01-28T07:29:32Z</time>
      </trkpt>
      <trkpt lat="36.4778300" lon="-6.1863820">
        <ele>5.2</ele>
        <time>2023-01-28T07:29:33Z</time>
      </trkpt>
      <trkpt lat="36.4778750" lon="-6.1863380">
        <ele>4.8</ele>
        <time>2023-01-28T07:29:34Z</time>
      </trkpt>
      <trkpt lat="36.4778960" lon="-6.1862970">
        <ele>4.4</ele>
        <time>2023-01-28T07:29:35Z</time>
      </trkpt>
      <trkpt lat="36.4779160" lon="-6.1862510">
        <ele>3.8</ele>
        <time>2023-01-28T07:29:36Z</time>
      </trkpt>
      <trkpt lat="36.4779460" lon="-6.1861820">
        <ele>3.6</ele>
        <time>2023-01-28T07:29:37Z</time>
      </trkpt>
      <trkpt lat="36.4779720" lon="-6.1861260">
        <ele>3.2</ele>
        <time>2023-01-28T07:29:38Z</time>
      </trkpt>
      <trkpt lat="36.4779850" lon="-6.1860790">
        <ele>3.0</ele>
        <time>2023-01-28T07:29:39Z</time>
      </trkpt>
      <trkpt lat="36.4780110" lon="-6.1860200">
        <ele>3.2</ele>
        <time>2023-01-28T07:29:40Z</time>
      </trkpt>
      <trkpt lat="36.4780430" lon="-6.1859600">
        <ele>3.4</ele>
        <time>2023-01-28T07:29:41Z</time>
      </trkpt>
      <trkpt lat="36.4780840" lon="-6.1859020">
        <ele>3.6</ele>
        <time>2023-01-28T07:29:42Z</time>
      </trkpt>
      <trkpt lat="36.4781010" lon="-6.1858550">
        <ele>3.4</ele>
        <time>2023-01-28T07:29:43Z</time>
      </trkpt>
      <trkpt lat="36.4781280" lon="-6.1857860">
        <ele>3.4</ele>
        <time>2023-01-28T07:29:44Z</time>
      </trkpt>
      <trkpt lat="36.4781530" lon="-6.1857470">
        <ele>3.4</ele>
        <time>2023-01-28T07:29:45Z</time>
      </trkpt>
      <trkpt lat="36.4781870" lon="-6.1856850">
        <ele>3.4</ele>
        <time>2023-01-28T07:29:46Z</time>
      </trkpt>
      <trkpt lat="36.4782210" lon="-6.1856430">
        <ele>3.4</ele>
        <time>2023-01-28T07:29:47Z</time>
      </trkpt>
      <trkpt lat="36.4782140" lon="-6.1856140">
        <ele>3.2</ele>
        <time>2023-01-28T07:29:48Z</time>
      </trkpt>
      <trkpt lat="36.4782060" lon="-6.1855760">
        <ele>3.0</ele>
        <time>2023-01-28T07:29:49Z</time>
      </trkpt>
      <trkpt lat="36.4782180" lon="-6.1855340">
        <ele>2.8</ele>
        <time>2023-01-28T07:29:50Z</time>
      </trkpt>
      <trkpt lat="36.4782410" lon="-6.1854710">
        <ele>3.0</ele>
        <time>2023-01-28T07:29:51Z</time>
      </trkpt>
      <trkpt lat="36.4782630" lon="-6.1854300">
        <ele>3.0</ele>
        <time>2023-01-28T07:29:52Z</time>
      </trkpt>
      <trkpt lat="36.4782830" lon="-6.1853850">
        <ele>3.0</ele>
        <time>2023-01-28T07:29:53Z</time>
      </trkpt>
      <trkpt lat="36.4782980" lon="-6.1853270">
        <ele>3.2</ele>
        <time>2023-01-28T07:29:54Z</time>
      </trkpt>
      <trkpt lat="36.4783080" lon="-6.1852840">
        <ele>3.2</ele>
        <time>2023-01-28T07:29:55Z</time>
      </trkpt>
      <trkpt lat="36.4783340" lon="-6.1852440">
        <ele>3.0</ele>
        <time>2023-01-28T07:29:56Z</time>
      </trkpt>
      <trkpt lat="36.4783380" lon="-6.1852040">
        <ele>3.2</ele>
        <time>2023-01-28T07:29:57Z</time>
      </trkpt>
      <trkpt lat="36.4783570" lon="-6.1851630">
        <ele>3.2</ele>
        <time>2023-01-28T07:29:58Z</time>
      </trkpt>
      <trkpt lat="36.4783720" lon="-6.1851210">
        <ele>3.2</ele>
        <time>2023-01-28T07:29:59Z</time>
      </trkpt>
      <trkpt lat="36.4783900" lon="-6.1850730">
        <ele>3.2</ele>
        <time>2023-01-28T07:30:00Z</time>
      </trkpt>
      <trkpt lat="36.4784170" lon="-6.1850320">
        <ele>3.2</ele>
        <time>2023-01-28T07:30:01Z</time>
      </trkpt>
      <trkpt lat="36.4784400" lon="-6.1849870">
        <ele>3.2</ele>
        <time>2023-01-28T07:30:02Z</time>
      </trkpt>
      <trkpt lat="36.4784610" lon="-6.1849480">
        <ele>3.2</ele>
        <time>2023-01-28T07:30:03Z</time>
      </trkpt>
      <trkpt lat="36.4784820" lon="-6.1849050">
        <ele>3.2</ele>
        <time>2023-01-28T07:30:04Z</time>
      </trkpt>
      <trkpt lat="36.4785030" lon="-6.1848590">
        <ele>3.4</ele>
        <time>2023-01-28T07:30:05Z</time>
      </trkpt>
      <trkpt lat="36.4785220" lon="-6.1848150">
        <ele>3.6</ele>
        <time>2023-01-28T07:30:06Z</time>
      </trkpt>
      <trkpt lat="36.4785410" lon="-6.1847700">
        <ele>4.2</ele>
        <time>2023-01-28T07:30:07Z</time>
      </trkpt>
      <trkpt lat="36.4785580" lon="-6.1847270">
        <ele>4.2</ele>
        <time>2023-01-28T07:30:08Z</time>
      </trkpt>
      <trkpt lat="36.4785770" lon="-6.1846840">
        <ele>4.6</ele>
        <time>2023-01-28T07:30:09Z</time>
      </trkpt>
      <trkpt lat="36.4785950" lon="-6.1846390">
        <ele>4.4</ele>
        <time>2023-01-28T07:30:10Z</time>
      </trkpt>
      <trkpt lat="36.4786120" lon="-6.1845950">
        <ele>4.6</ele>
        <time>2023-01-28T07:30:11Z</time>
      </trkpt>
      <trkpt lat="36.4786280" lon="-6.1845510">
        <ele>4.6</ele>
        <time>2023-01-28T07:30:12Z</time>
      </trkpt>
      <trkpt lat="36.4786440" lon="-6.1845080">
        <ele>4.8</ele>
        <time>2023-01-28T07:30:13Z</time>
      </trkpt>
      <trkpt lat="36.4786580" lon="-6.1844670">
        <ele>5.0</ele>
        <time>2023-01-28T07:30:14Z</time>
      </trkpt>
      <trkpt lat="36.4786740" lon="-6.1844310">
        <ele>5.4</ele>
        <time>2023-01-28T07:30:15Z</time>
      </trkpt>
      <trkpt lat="36.4786880" lon="-6.1843940">
        <ele>5.8</ele>
        <time>2023-01-28T07:30:16Z</time>
      </trkpt>
      <trkpt lat="36.4787020" lon="-6.1843580">
        <ele>6.0</ele>
        <time>2023-01-28T07:30:17Z</time>
      </trkpt>
      <trkpt lat="36.4787160" lon="-6.1843240">
        <ele>6.4</ele>
        <time>2023-01-28T07:30:18Z</time>
      </trkpt>
      <trkpt lat="36.4787290" lon="-6.1842910">
        <ele>6.6</ele>
        <time>2023-01-28T07:30:19Z</time>
      </trkpt>
      <trkpt lat="36.4787420" lon="-6.1842590">
        <ele>6.8</ele>
        <time>2023-01-28T07:30:20Z</time>
      </trkpt>
      <trkpt lat="36.4787560" lon="-6.1842280">
        <ele>6.8</ele>
        <time>2023-01-28T07:30:21Z</time>
      </trkpt>
      <trkpt lat="36.4787660" lon="-6.1841980">
        <ele>7.0</ele>
        <time>2023-01-28T07:30:22Z</time>
      </trkpt>
      <trkpt lat="36.4787780" lon="-6.1841680">
        <ele>7.0</ele>
        <time>2023-01-28T07:30:23Z</time>
      </trkpt>
      <trkpt lat="36.4787920" lon="-6.1841360">
        <ele>7.2</ele>
        <time>2023-01-28T07:30:24Z</time>
      </trkpt>
      <trkpt lat="36.4788050" lon="-6.1841050">
        <ele>7.4</ele>
        <time>2023-01-28T07:30:25Z</time>
      </trkpt>
      <trkpt lat="36.4788190" lon="-6.1840720">
        <ele>7.6</ele>
        <time>2023-01-28T07:30:26Z</time>
      </trkpt>
      <trkpt lat="36.4788310" lon="-6.1840380">
        <ele>7.8</ele>
        <time>2023-01-28T07:30:27Z</time>
      </trkpt>
      <trkpt lat="36.4788450" lon="-6.1840030">
        <ele>8.0</ele>
        <time>2023-01-28T07:30:28Z</time>
      </trkpt>
      <trkpt lat="36.4788610" lon="-6.1839670">
        <ele>8.0</ele>
        <time>2023-01-28T07:30:29Z</time>
      </trkpt>
      <trkpt lat="36.4788760" lon="-6.1839330">
        <ele>7.8</ele>
        <time>2023-01-28T07:30:30Z</time>
      </trkpt>
      <trkpt lat="36.4788910" lon="-6.1838990">
        <ele>7.8</ele>
        <time>2023-01-28T07:30:31Z</time>
      </trkpt>
      <trkpt lat="36.4789080" lon="-6.1838640">
        <ele>8.0</ele>
        <time>2023-01-28T07:30:32Z</time>
      </trkpt>
      <trkpt lat="36.4789250" lon="-6.1838300">
        <ele>8.0</ele>
        <time>2023-01-28T07:30:33Z</time>
      </trkpt>
      <trkpt lat="36.4789410" lon="-6.1837930">
        <ele>7.8</ele>
        <time>2023-01-28T07:30:34Z</time>
      </trkpt>
      <trkpt lat="36.4789570" lon="-6.1837580">
        <ele>7.6</ele>
        <time>2023-01-28T07:30:35Z</time>
      </trkpt>
      <trkpt lat="36.4789740" lon="-6.1837210">
        <ele>7.6</ele>
        <time>2023-01-28T07:30:36Z</time>
      </trkpt>
      <trkpt lat="36.4789910" lon="-6.1836850">
        <ele>7.6</ele>
        <time>2023-01-28T07:30:37Z</time>
      </trkpt>
      <trkpt lat="36.4790080" lon="-6.1836490">
        <ele>7.6</ele>
        <time>2023-01-28T07:30:38Z</time>
      </trkpt>
      <trkpt lat="36.4790250" lon="-6.1836120">
        <ele>7.6</ele>
        <time>2023-01-28T07:30:39Z</time>
      </trkpt>
      <trkpt lat="36.4790440" lon="-6.1835730">
        <ele>7.2</ele>
        <time>2023-01-28T07:30:40Z</time>
      </trkpt>
      <trkpt lat="36.4790630" lon="-6.1835320">
        <ele>7.0</ele>
        <time>2023-01-28T07:30:41Z</time>
      </trkpt>
      <trkpt lat="36.4790840" lon="-6.1834880">
        <ele>6.6</ele>
        <time>2023-01-28T07:30:42Z</time>
      </trkpt>
      <trkpt lat="36.4791050" lon="-6.1834410">
        <ele>6.2</ele>
        <time>2023-01-28T07:30:43Z</time>
      </trkpt>
      <trkpt lat="36.4791270" lon="-6.1833920">
        <ele>6.2</ele>
        <time>2023-01-28T07:30:44Z</time>
      </trkpt>
      <trkpt lat="36.4791490" lon="-6.1833420">
        <ele>6.0</ele>
        <time>2023-01-28T07:30:45Z</time>
      </trkpt>
      <trkpt lat="36.4791720" lon="-6.1832910">
        <ele>6.0</ele>
        <time>2023-01-28T07:30:46Z</time>
      </trkpt>
      <trkpt lat="36.4791930" lon="-6.1832440">
        <ele>5.6</ele>
        <time>2023-01-28T07:30:47Z</time>
      </trkpt>
      <trkpt lat="36.4792140" lon="-6.1831970">
        <ele>5.6</ele>
        <time>2023-01-28T07:30:48Z</time>
      </trkpt>
      <trkpt lat="36.4792360" lon="-6.1831510">
        <ele>5.4</ele>
        <time>2023-01-28T07:30:49Z</time>
      </trkpt>
      <trkpt lat="36.4792570" lon="-6.1831090">
        <ele>5.4</ele>
        <time>2023-01-28T07:30:50Z</time>
      </trkpt>
      <trkpt lat="36.4792770" lon="-6.1830620">
        <ele>5.6</ele>
        <time>2023-01-28T07:30:51Z</time>
      </trkpt>
      <trkpt lat="36.4792960" lon="-6.1830180">
        <ele>5.6</ele>
        <time>2023-01-28T07:30:52Z</time>
      </trkpt>
      <trkpt lat="36.4793140" lon="-6.1829750">
        <ele>5.4</ele>
        <time>2023-01-28T07:30:53Z</time>
      </trkpt>
      <trkpt lat="36.4793320" lon="-6.1829340">
        <ele>5.6</ele>
        <time>2023-01-28T07:30:54Z</time>
      </trkpt>
      <trkpt lat="36.4793480" lon="-6.1828910">
        <ele>5.6</ele>
        <time>2023-01-28T07:30:55Z</time>
      </trkpt>
      <trkpt lat="36.4793650" lon="-6.1828460">
        <ele>5.6</ele>
        <time>2023-01-28T07:30:56Z</time>
      </trkpt>
      <trkpt lat="36.4793810" lon="-6.1828040">
        <ele>5.4</ele>
        <time>2023-01-28T07:30:57Z</time>
      </trkpt>
      <trkpt lat="36.4794000" lon="-6.1827660">
        <ele>5.6</ele>
        <time>2023-01-28T07:30:58Z</time>
      </trkpt>
      <trkpt lat="36.4794180" lon="-6.1827270">
        <ele>5.6</ele>
        <time>2023-01-28T07:30:59Z</time>
      </trkpt>
      <trkpt lat="36.4794370" lon="-6.1826850">
        <ele>5.6</ele>
        <time>2023-01-28T07:31:00Z</time>
      </trkpt>
      <trkpt lat="36.4794550" lon="-6.1826420">
        <ele>6.0</ele>
        <time>2023-01-28T07:31:01Z</time>
      </trkpt>
      <trkpt lat="36.4794740" lon="-6.1825980">
        <ele>6.0</ele>
        <time>2023-01-28T07:31:02Z</time>
      </trkpt>
      <trkpt lat="36.4794950" lon="-6.1825550">
        <ele>5.8</ele>
        <time>2023-01-28T07:31:03Z</time>
      </trkpt>
      <trkpt lat="36.4795140" lon="-6.1825120">
        <ele>5.6</ele>
        <time>2023-01-28T07:31:04Z</time>
      </trkpt>
      <trkpt lat="36.4795320" lon="-6.1824670">
        <ele>5.6</ele>
        <time>2023-01-28T07:31:05Z</time>
      </trkpt>
      <trkpt lat="36.4795520" lon="-6.1824220">
        <ele>5.6</ele>
        <time>2023-01-28T07:31:06Z</time>
      </trkpt>
      <trkpt lat="36.4795730" lon="-6.1823790">
        <ele>5.6</ele>
        <time>2023-01-28T07:31:07Z</time>
      </trkpt>
      <trkpt lat="36.4795930" lon="-6.1823360">
        <ele>5.6</ele>
        <time>2023-01-28T07:31:08Z</time>
      </trkpt>
      <trkpt lat="36.4796110" lon="-6.1822910">
        <ele>5.6</ele>
        <time>2023-01-28T07:31:09Z</time>
      </trkpt>
      <trkpt lat="36.4796300" lon="-6.1822490">
        <ele>5.6</ele>
        <time>2023-01-28T07:31:10Z</time>
      </trkpt>
      <trkpt lat="36.4796480" lon="-6.1822060">
        <ele>5.6</ele>
        <time>2023-01-28T07:31:11Z</time>
      </trkpt>
      <trkpt lat="36.4796660" lon="-6.1821640">
        <ele>5.6</ele>
        <time>2023-01-28T07:31:12Z</time>
      </trkpt>
      <trkpt lat="36.4796850" lon="-6.1821220">
        <ele>5.6</ele>
        <time>2023-01-28T07:31:13Z</time>
      </trkpt>
      <trkpt lat="36.4797030" lon="-6.1820810">
        <ele>5.6</ele>
        <time>2023-01-28T07:31:14Z</time>
      </trkpt>
      <trkpt lat="36.4797210" lon="-6.1820380">
        <ele>5.6</ele>
        <time>2023-01-28T07:31:15Z</time>
      </trkpt>
      <trkpt lat="36.4797370" lon="-6.1819960">
        <ele>5.8</ele>
        <time>2023-01-28T07:31:16Z</time>
      </trkpt>
      <trkpt lat="36.4797540" lon="-6.1819540">
        <ele>5.6</ele>
        <time>2023-01-28T07:31:17Z</time>
      </trkpt>
      <trkpt lat="36.4797720" lon="-6.1819120">
        <ele>5.6</ele>
        <time>2023-01-28T07:31:18Z</time>
      </trkpt>
      <trkpt lat="36.4797910" lon="-6.1818700">
        <ele>5.4</ele>
        <time>2023-01-28T07:31:19Z</time>
      </trkpt>
      <trkpt lat="36.4798090" lon="-6.1818280">
        <ele>5.4</ele>
        <time>2023-01-28T07:31:20Z</time>
      </trkpt>
      <trkpt lat="36.4798280" lon="-6.1817840">
        <ele>5.4</ele>
        <time>2023-01-28T07:31:21Z</time>
      </trkpt>
      <trkpt lat="36.4798500" lon="-6.1817400">
        <ele>5.4</ele>
        <time>2023-01-28T07:31:22Z</time>
      </trkpt>
      <trkpt lat="36.4798710" lon="-6.1816980">
        <ele>5.4</ele>
        <time>2023-01-28T07:31:23Z</time>
      </trkpt>
      <trkpt lat="36.4798920" lon="-6.1816570">
        <ele>5.4</ele>
        <time>2023-01-28T07:31:24Z</time>
      </trkpt>
      <trkpt lat="36.4799140" lon="-6.1816180">
        <ele>5.4</ele>
        <time>2023-01-28T07:31:25Z</time>
      </trkpt>
      <trkpt lat="36.4799340" lon="-6.1815750">
        <ele>5.6</ele>
        <time>2023-01-28T07:31:26Z</time>
      </trkpt>
      <trkpt lat="36.4799550" lon="-6.1815340">
        <ele>5.6</ele>
        <time>2023-01-28T07:31:27Z</time>
      </trkpt>
      <trkpt lat="36.4799770" lon="-6.1814940">
        <ele>5.6</ele>
        <time>2023-01-28T07:31:28Z</time>
      </trkpt>
      <trkpt lat="36.4799970" lon="-6.1814520">
        <ele>5.6</ele>
        <time>2023-01-28T07:31:29Z</time>
      </trkpt>
      <trkpt lat="36.4800150" lon="-6.1814080">
        <ele>5.6</ele>
        <time>2023-01-28T07:31:30Z</time>
      </trkpt>
      <trkpt lat="36.4800320" lon="-6.1813650">
        <ele>5.6</ele>
        <time>2023-01-28T07:31:31Z</time>
      </trkpt>
      <trkpt lat="36.4800490" lon="-6.1813210">
        <ele>5.6</ele>
        <time>2023-01-28T07:31:32Z</time>
      </trkpt>
      <trkpt lat="36.4800670" lon="-6.1812840">
        <ele>5.6</ele>
        <time>2023-01-28T07:31:33Z</time>
      </trkpt>
      <trkpt lat="36.4800840" lon="-6.1812410">
        <ele>5.6</ele>
        <time>2023-01-28T07:31:34Z</time>
      </trkpt>
      <trkpt lat="36.4800980" lon="-6.1811960">
        <ele>5.4</ele>
        <time>2023-01-28T07:31:35Z</time>
      </trkpt>
      <trkpt lat="36.4801220" lon="-6.1811520">
        <ele>5.6</ele>
        <time>2023-01-28T07:31:36Z</time>
      </trkpt>
      <trkpt lat="36.4801320" lon="-6.1811020">
        <ele>5.6</ele>
        <time>2023-01-28T07:31:37Z</time>
      </trkpt>
      <trkpt lat="36.4801450" lon="-6.1810610">
        <ele>5.6</ele>
        <time>2023-01-28T07:31:38Z</time>
      </trkpt>
      <trkpt lat="36.4801660" lon="-6.1810150">
        <ele>5.6</ele>
        <time>2023-01-28T07:31:39Z</time>
      </trkpt>
      <trkpt lat="36.4801850" lon="-6.1809820">
        <ele>5.6</ele>
        <time>2023-01-28T07:31:40Z</time>
      </trkpt>
      <trkpt lat="36.4801910" lon="-6.1809450">
        <ele>5.6</ele>
        <time>2023-01-28T07:31:41Z</time>
      </trkpt>
      <trkpt lat="36.4802060" lon="-6.1809120">
        <ele>5.6</ele>
        <time>2023-01-28T07:31:42Z</time>
      </trkpt>
      <trkpt lat="36.4802310" lon="-6.1808690">
        <ele>5.6</ele>
        <time>2023-01-28T07:31:43Z</time>
      </trkpt>
      <trkpt lat="36.4802600" lon="-6.1808190">
        <ele>5.6</ele>
        <time>2023-01-28T07:31:44Z</time>
      </trkpt>
      <trkpt lat="36.4802800" lon="-6.1807770">
        <ele>5.6</ele>
        <time>2023-01-28T07:31:45Z</time>
      </trkpt>
      <trkpt lat="36.4802950" lon="-6.1807250">
        <ele>5.6</ele>
        <time>2023-01-28T07:31:46Z</time>
      </trkpt>
      <trkpt lat="36.4803190" lon="-6.1806810">
        <ele>5.6</ele>
        <time>2023-01-28T07:31:47Z</time>
      </trkpt>
      <trkpt lat="36.4803530" lon="-6.1806620">
        <ele>5.6</ele>
        <time>2023-01-28T07:31:48Z</time>
      </trkpt>
      <trkpt lat="36.4803670" lon="-6.1806220">
        <ele>5.6</ele>
        <time>2023-01-28T07:31:49Z</time>
      </trkpt>
      <trkpt lat="36.4803940" lon="-6.1805790">
        <ele>5.8</ele>
        <time>2023-01-28T07:31:50Z</time>
      </trkpt>
      <trkpt lat="36.4804100" lon="-6.1805400">
        <ele>5.8</ele>
        <time>2023-01-28T07:31:51Z</time>
      </trkpt>
      <trkpt lat="36.4804350" lon="-6.1804760">
        <ele>5.8</ele>
        <time>2023-01-28T07:31:52Z</time>
      </trkpt>
      <trkpt lat="36.4804660" lon="-6.1804400">
        <ele>5.8</ele>
        <time>2023-01-28T07:31:53Z</time>
      </trkpt>
      <trkpt lat="36.4804840" lon="-6.1804050">
        <ele>5.6</ele>
        <time>2023-01-28T07:31:54Z</time>
      </trkpt>
      <trkpt lat="36.4805140" lon="-6.1803790">
        <ele>5.8</ele>
        <time>2023-01-28T07:31:55Z</time>
      </trkpt>
      <trkpt lat="36.4805260" lon="-6.1803220">
        <ele>5.8</ele>
        <time>2023-01-28T07:31:56Z</time>
      </trkpt>
      <trkpt lat="36.4805510" lon="-6.1802850">
        <ele>5.8</ele>
        <time>2023-01-28T07:31:57Z</time>
      </trkpt>
      <trkpt lat="36.4805670" lon="-6.1802560">
        <ele>5.8</ele>
        <time>2023-01-28T07:31:58Z</time>
      </trkpt>
      <trkpt lat="36.4805910" lon="-6.1802130">
        <ele>5.6</ele>
        <time>2023-01-28T07:31:59Z</time>
      </trkpt>
      <trkpt lat="36.4806220" lon="-6.1801620">
        <ele>5.6</ele>
        <time>2023-01-28T07:32:00Z</time>
      </trkpt>
      <trkpt lat="36.4806400" lon="-6.1801130">
        <ele>5.6</ele>
        <time>2023-01-28T07:32:01Z</time>
      </trkpt>
      <trkpt lat="36.4806590" lon="-6.1800690">
        <ele>5.6</ele>
        <time>2023-01-28T07:32:02Z</time>
      </trkpt>
      <trkpt lat="36.4806860" lon="-6.1800200">
        <ele>5.6</ele>
        <time>2023-01-28T07:32:03Z</time>
      </trkpt>
      <trkpt lat="36.4806940" lon="-6.1799820">
        <ele>5.6</ele>
        <time>2023-01-28T07:32:04Z</time>
      </trkpt>
      <trkpt lat="36.4806990" lon="-6.1799340">
        <ele>5.6</ele>
        <time>2023-01-28T07:32:05Z</time>
      </trkpt>
      <trkpt lat="36.4807040" lon="-6.1799160">
        <ele>5.6</ele>
        <time>2023-01-28T07:32:06Z</time>
      </trkpt>
      <trkpt lat="36.4807120" lon="-6.1798710">
        <ele>5.8</ele>
        <time>2023-01-28T07:32:07Z</time>
      </trkpt>
      <trkpt lat="36.4807470" lon="-6.1798150">
        <ele>6.0</ele>
        <time>2023-01-28T07:32:08Z</time>
      </trkpt>
      <trkpt lat="36.4807870" lon="-6.1797780">
        <ele>6.0</ele>
        <time>2023-01-28T07:32:09Z</time>
      </trkpt>
      <trkpt lat="36.4807890" lon="-6.1797290">
        <ele>6.0</ele>
        <time>2023-01-28T07:32:10Z</time>
      </trkpt>
      <trkpt lat="36.4808100" lon="-6.1796960">
        <ele>6.2</ele>
        <time>2023-01-28T07:32:11Z</time>
      </trkpt>
      <trkpt lat="36.4808340" lon="-6.1796540">
        <ele>5.8</ele>
        <time>2023-01-28T07:32:12Z</time>
      </trkpt>
      <trkpt lat="36.4808410" lon="-6.1796250">
        <ele>5.8</ele>
        <time>2023-01-28T07:32:13Z</time>
      </trkpt>
      <trkpt lat="36.4808620" lon="-6.1795850">
        <ele>6.2</ele>
        <time>2023-01-28T07:32:14Z</time>
      </trkpt>
      <trkpt lat="36.4808830" lon="-6.1795540">
        <ele>6.4</ele>
        <time>2023-01-28T07:32:15Z</time>
      </trkpt>
      <trkpt lat="36.4809000" lon="-6.1795120">
        <ele>6.2</ele>
        <time>2023-01-28T07:32:16Z</time>
      </trkpt>
      <trkpt lat="36.4809020" lon="-6.1794640">
        <ele>6.2</ele>
        <time>2023-01-28T07:32:17Z</time>
      </trkpt>
      <trkpt lat="36.4809170" lon="-6.1794270">
        <ele>6.4</ele>
        <time>2023-01-28T07:32:18Z</time>
      </trkpt>
      <trkpt lat="36.4809220" lon="-6.1793940">
        <ele>6.4</ele>
        <time>2023-01-28T07:32:19Z</time>
      </trkpt>
      <trkpt lat="36.4809320" lon="-6.1793510">
        <ele>6.8</ele>
        <time>2023-01-28T07:32:20Z</time>
      </trkpt>
      <trkpt lat="36.4809360" lon="-6.1793270">
        <ele>6.6</ele>
        <time>2023-01-28T07:32:21Z</time>
      </trkpt>
      <trkpt lat="36.4809670" lon="-6.1793040">
        <ele>6.2</ele>
        <time>2023-01-28T07:32:22Z</time>
      </trkpt>
      <trkpt lat="36.4809740" lon="-6.1792580">
        <ele>6.0</ele>
        <time>2023-01-28T07:32:23Z</time>
      </trkpt>
      <trkpt lat="36.4809890" lon="-6.1792260">
        <ele>6.0</ele>
        <time>2023-01-28T07:32:24Z</time>
      </trkpt>
      <trkpt lat="36.4810020" lon="-6.1792050">
        <ele>6.0</ele>
        <time>2023-01-28T07:32:25Z</time>
      </trkpt>
      <trkpt lat="36.4810200" lon="-6.1791790">
        <ele>6.0</ele>
        <time>2023-01-28T07:32:26Z</time>
      </trkpt>
      <trkpt lat="36.4810370" lon="-6.1791260">
        <ele>6.2</ele>
        <time>2023-01-28T07:32:27Z</time>
      </trkpt>
      <trkpt lat="36.4810520" lon="-6.1790840">
        <ele>6.2</ele>
        <time>2023-01-28T07:32:28Z</time>
      </trkpt>
      <trkpt lat="36.4810660" lon="-6.1790460">
        <ele>6.2</ele>
        <time>2023-01-28T07:32:29Z</time>
      </trkpt>
      <trkpt lat="36.4810720" lon="-6.1790070">
        <ele>6.2</ele>
        <time>2023-01-28T07:32:30Z</time>
      </trkpt>
      <trkpt lat="36.4810830" lon="-6.1789600">
        <ele>6.0</ele>
        <time>2023-01-28T07:32:31Z</time>
      </trkpt>
      <trkpt lat="36.4810940" lon="-6.1789090">
        <ele>5.6</ele>
        <time>2023-01-28T07:32:32Z</time>
      </trkpt>
      <trkpt lat="36.4811080" lon="-6.1788520">
        <ele>5.6</ele>
        <time>2023-01-28T07:32:33Z</time>
      </trkpt>
      <trkpt lat="36.4811290" lon="-6.1788200">
        <ele>6.0</ele>
        <time>2023-01-28T07:32:34Z</time>
      </trkpt>
      <trkpt lat="36.4811650" lon="-6.1787760">
        <ele>5.8</ele>
        <time>2023-01-28T07:32:35Z</time>
      </trkpt>
      <trkpt lat="36.4811860" lon="-6.1787310">
        <ele>5.6</ele>
        <time>2023-01-28T07:32:36Z</time>
      </trkpt>
      <trkpt lat="36.4812110" lon="-6.1786810">
        <ele>5.4</ele>
        <time>2023-01-28T07:32:37Z</time>
      </trkpt>
      <trkpt lat="36.4812500" lon="-6.1786440">
        <ele>5.2</ele>
        <time>2023-01-28T07:32:38Z</time>
      </trkpt>
      <trkpt lat="36.4812770" lon="-6.1785980">
        <ele>5.2</ele>
        <time>2023-01-28T07:32:39Z</time>
      </trkpt>
      <trkpt lat="36.4812990" lon="-6.1785610">
        <ele>5.2</ele>
        <time>2023-01-28T07:32:40Z</time>
      </trkpt>
      <trkpt lat="36.4813120" lon="-6.1785200">
        <ele>5.0</ele>
        <time>2023-01-28T07:32:41Z</time>
      </trkpt>
      <trkpt lat="36.4813360" lon="-6.1784730">
        <ele>5.0</ele>
        <time>2023-01-28T07:32:42Z</time>
      </trkpt>
      <trkpt lat="36.4813500" lon="-6.1784320">
        <ele>5.2</ele>
        <time>2023-01-28T07:32:43Z</time>
      </trkpt>
      <trkpt lat="36.4813530" lon="-6.1783890">
        <ele>5.2</ele>
        <time>2023-01-28T07:32:44Z</time>
      </trkpt>
      <trkpt lat="36.4813740" lon="-6.1783540">
        <ele>5.2</ele>
        <time>2023-01-28T07:32:45Z</time>
      </trkpt>
      <trkpt lat="36.4813910" lon="-6.1783150">
        <ele>5.2</ele>
        <time>2023-01-28T07:32:46Z</time>
      </trkpt>
      <trkpt lat="36.4814020" lon="-6.1782620">
        <ele>5.2</ele>
        <time>2023-01-28T07:32:47Z</time>
      </trkpt>
      <trkpt lat="36.4814170" lon="-6.1782290">
        <ele>5.2</ele>
        <time>2023-01-28T07:32:48Z</time>
      </trkpt>
      <trkpt lat="36.4814350" lon="-6.1781820">
        <ele>5.2</ele>
        <time>2023-01-28T07:32:49Z</time>
      </trkpt>
      <trkpt lat="36.4814600" lon="-6.1781420">
        <ele>5.2</ele>
        <time>2023-01-28T07:32:50Z</time>
      </trkpt>
      <trkpt lat="36.4814850" lon="-6.1780910">
        <ele>5.0</ele>
        <time>2023-01-28T07:32:51Z</time>
      </trkpt>
      <trkpt lat="36.4814980" lon="-6.1780450">
        <ele>5.0</ele>
        <time>2023-01-28T07:32:52Z</time>
      </trkpt>
      <trkpt lat="36.4815290" lon="-6.1779920">
        <ele>5.0</ele>
        <time>2023-01-28T07:32:53Z</time>
      </trkpt>
      <trkpt lat="36.4815530" lon="-6.1779510">
        <ele>5.0</ele>
        <time>2023-01-28T07:32:54Z</time>
      </trkpt>
      <trkpt lat="36.4815580" lon="-6.1779100">
        <ele>5.2</ele>
        <time>2023-01-28T07:32:55Z</time>
      </trkpt>
      <trkpt lat="36.4815680" lon="-6.1778640">
        <ele>5.0</ele>
        <time>2023-01-28T07:32:56Z</time>
      </trkpt>
      <trkpt lat="36.4815920" lon="-6.1778200">
        <ele>5.0</ele>
        <time>2023-01-28T07:32:57Z</time>
      </trkpt>
      <trkpt lat="36.4816100" lon="-6.1777860">
        <ele>5.0</ele>
        <time>2023-01-28T07:32:58Z</time>
      </trkpt>
      <trkpt lat="36.4816450" lon="-6.1777580">
        <ele>4.8</ele>
        <time>2023-01-28T07:32:59Z</time>
      </trkpt>
      <trkpt lat="36.4816570" lon="-6.1777230">
        <ele>4.8</ele>
        <time>2023-01-28T07:33:00Z</time>
      </trkpt>
      <trkpt lat="36.4816790" lon="-6.1776750">
        <ele>4.8</ele>
        <time>2023-01-28T07:33:01Z</time>
      </trkpt>
      <trkpt lat="36.4817070" lon="-6.1776280">
        <ele>5.0</ele>
        <time>2023-01-28T07:33:02Z</time>
      </trkpt>
      <trkpt lat="36.4817210" lon="-6.1776070">
        <ele>4.8</ele>
        <time>2023-01-28T07:33:03Z</time>
      </trkpt>
      <trkpt lat="36.4817510" lon="-6.1775520">
        <ele>4.8</ele>
        <time>2023-01-28T07:33:04Z</time>
      </trkpt>
      <trkpt lat="36.4817650" lon="-6.1775170">
        <ele>4.8</ele>
        <time>2023-01-28T07:33:05Z</time>
      </trkpt>
      <trkpt lat="36.4817890" lon="-6.1774740">
        <ele>4.8</ele>
        <time>2023-01-28T07:33:06Z</time>
      </trkpt>
      <trkpt lat="36.4818110" lon="-6.1774300">
        <ele>4.8</ele>
        <time>2023-01-28T07:33:07Z</time>
      </trkpt>
      <trkpt lat="36.4818160" lon="-6.1773790">
        <ele>4.6</ele>
        <time>2023-01-28T07:33:08Z</time>
      </trkpt>
      <trkpt lat="36.4818470" lon="-6.1773230">
        <ele>4.6</ele>
        <time>2023-01-28T07:33:09Z</time>
      </trkpt>
      <trkpt lat="36.4818690" lon="-6.1772760">
        <ele>4.4</ele>
        <time>2023-01-28T07:33:10Z</time>
      </trkpt>
      <trkpt lat="36.4819000" lon="-6.1772340">
        <ele>4.4</ele>
        <time>2023-01-28T07:33:11Z</time>
      </trkpt>
      <trkpt lat="36.4819200" lon="-6.1771860">
        <ele>4.4</ele>
        <time>2023-01-28T07:33:12Z</time>
      </trkpt>
      <trkpt lat="36.4819360" lon="-6.1771390">
        <ele>4.4</ele>
        <time>2023-01-28T07:33:13Z</time>
      </trkpt>
      <trkpt lat="36.4819650" lon="-6.1770960">
        <ele>4.2</ele>
        <time>2023-01-28T07:33:14Z</time>
      </trkpt>
      <trkpt lat="36.4819880" lon="-6.1770550">
        <ele>4.4</ele>
        <time>2023-01-28T07:33:15Z</time>
      </trkpt>
      <trkpt lat="36.4820080" lon="-6.1770140">
        <ele>4.4</ele>
        <time>2023-01-28T07:33:16Z</time>
      </trkpt>
      <trkpt lat="36.4820430" lon="-6.1769810">
        <ele>4.4</ele>
        <time>2023-01-28T07:33:17Z</time>
      </trkpt>
      <trkpt lat="36.4820540" lon="-6.1769350">
        <ele>4.4</ele>
        <time>2023-01-28T07:33:18Z</time>
      </trkpt>
      <trkpt lat="36.4820830" lon="-6.1768810">
        <ele>4.4</ele>
        <time>2023-01-28T07:33:19Z</time>
      </trkpt>
      <trkpt lat="36.4820990" lon="-6.1768310">
        <ele>4.4</ele>
        <time>2023-01-28T07:33:20Z</time>
      </trkpt>
      <trkpt lat="36.4821290" lon="-6.1767870">
        <ele>4.2</ele>
        <time>2023-01-28T07:33:21Z</time>
      </trkpt>
      <trkpt lat="36.4821640" lon="-6.1767320">
        <ele>4.2</ele>
        <time>2023-01-28T07:33:22Z</time>
      </trkpt>
      <trkpt lat="36.4821870" lon="-6.1766890">
        <ele>4.2</ele>
        <time>2023-01-28T07:33:23Z</time>
      </trkpt>
      <trkpt lat="36.4822020" lon="-6.1766650">
        <ele>4.2</ele>
        <time>2023-01-28T07:33:24Z</time>
      </trkpt>
      <trkpt lat="36.4822320" lon="-6.1766310">
        <ele>4.2</ele>
        <time>2023-01-28T07:33:25Z</time>
      </trkpt>
      <trkpt lat="36.4822360" lon="-6.1765820">
        <ele>4.2</ele>
        <time>2023-01-28T07:33:26Z</time>
      </trkpt>
      <trkpt lat="36.4822440" lon="-6.1765120">
        <ele>4.0</ele>
        <time>2023-01-28T07:33:27Z</time>
      </trkpt>
      <trkpt lat="36.4822560" lon="-6.1764670">
        <ele>4.0</ele>
        <time>2023-01-28T07:33:28Z</time>
      </trkpt>
      <trkpt lat="36.4822680" lon="-6.1764290">
        <ele>4.0</ele>
        <time>2023-01-28T07:33:29Z</time>
      </trkpt>
      <trkpt lat="36.4822920" lon="-6.1763750">
        <ele>4.0</ele>
        <time>2023-01-28T07:33:30Z</time>
      </trkpt>
      <trkpt lat="36.4823150" lon="-6.1763380">
        <ele>3.8</ele>
        <time>2023-01-28T07:33:31Z</time>
      </trkpt>
      <trkpt lat="36.4823370" lon="-6.1762870">
        <ele>3.8</ele>
        <time>2023-01-28T07:33:32Z</time>
      </trkpt>
      <trkpt lat="36.4823520" lon="-6.1762410">
        <ele>3.4</ele>
        <time>2023-01-28T07:33:33Z</time>
      </trkpt>
      <trkpt lat="36.4823980" lon="-6.1762010">
        <ele>3.4</ele>
        <time>2023-01-28T07:33:34Z</time>
      </trkpt>
      <trkpt lat="36.4824270" lon="-6.1761380">
        <ele>3.0</ele>
        <time>2023-01-28T07:33:35Z</time>
      </trkpt>
      <trkpt lat="36.4824570" lon="-6.1760910">
        <ele>2.6</ele>
        <time>2023-01-28T07:33:36Z</time>
      </trkpt>
      <trkpt lat="36.4824980" lon="-6.1760350">
        <ele>2.0</ele>
        <time>2023-01-28T07:33:37Z</time>
      </trkpt>
      <trkpt lat="36.4825280" lon="-6.1759840">
        <ele>2.0</ele>
        <time>2023-01-28T07:33:38Z</time>
      </trkpt>
      <trkpt lat="36.4825370" lon="-6.1759270">
        <ele>2.0</ele>
        <time>2023-01-28T07:33:39Z</time>
      </trkpt>
      <trkpt lat="36.4825730" lon="-6.1758730">
        <ele>1.8</ele>
        <time>2023-01-28T07:33:40Z</time>
      </trkpt>
      <trkpt lat="36.4825970" lon="-6.1758100">
        <ele>1.8</ele>
        <time>2023-01-28T07:33:41Z</time>
      </trkpt>
      <trkpt lat="36.4826230" lon="-6.1757480">
        <ele>2.0</ele>
        <time>2023-01-28T07:33:42Z</time>
      </trkpt>
      <trkpt lat="36.4826590" lon="-6.1756980">
        <ele>2.2</ele>
        <time>2023-01-28T07:33:43Z</time>
      </trkpt>
      <trkpt lat="36.4826730" lon="-6.1756510">
        <ele>2.4</ele>
        <time>2023-01-28T07:33:44Z</time>
      </trkpt>
      <trkpt lat="36.4826900" lon="-6.1755990">
        <ele>2.8</ele>
        <time>2023-01-28T07:33:45Z</time>
      </trkpt>
      <trkpt lat="36.4827080" lon="-6.1755540">
        <ele>3.2</ele>
        <time>2023-01-28T07:33:46Z</time>
      </trkpt>
      <trkpt lat="36.4827250" lon="-6.1755140">
        <ele>3.4</ele>
        <time>2023-01-28T07:33:47Z</time>
      </trkpt>
      <trkpt lat="36.4827420" lon="-6.1754830">
        <ele>3.6</ele>
        <time>2023-01-28T07:33:48Z</time>
      </trkpt>
      <trkpt lat="36.4827620" lon="-6.1754530">
        <ele>3.8</ele>
        <time>2023-01-28T07:33:49Z</time>
      </trkpt>
      <trkpt lat="36.4827720" lon="-6.1754100">
        <ele>4.0</ele>
        <time>2023-01-28T07:33:50Z</time>
      </trkpt>
      <trkpt lat="36.4827610" lon="-6.1753570">
        <ele>4.2</ele>
        <time>2023-01-28T07:33:51Z</time>
      </trkpt>
      <trkpt lat="36.4827800" lon="-6.1753180">
        <ele>4.2</ele>
        <time>2023-01-28T07:33:52Z</time>
      </trkpt>
      <trkpt lat="36.4827900" lon="-6.1752710">
        <ele>4.2</ele>
        <time>2023-01-28T07:33:53Z</time>
      </trkpt>
      <trkpt lat="36.4828220" lon="-6.1752590">
        <ele>4.2</ele>
        <time>2023-01-28T07:33:54Z</time>
      </trkpt>
      <trkpt lat="36.4828470" lon="-6.1752010">
        <ele>4.2</ele>
        <time>2023-01-28T07:33:55Z</time>
      </trkpt>
      <trkpt lat="36.4828640" lon="-6.1751730">
        <ele>4.2</ele>
        <time>2023-01-28T07:33:56Z</time>
      </trkpt>
      <trkpt lat="36.4828830" lon="-6.1751470">
        <ele>4.4</ele>
        <time>2023-01-28T07:33:57Z</time>
      </trkpt>
      <trkpt lat="36.4828890" lon="-6.1751170">
        <ele>4.4</ele>
        <time>2023-01-28T07:33:58Z</time>
      </trkpt>
      <trkpt lat="36.4829280" lon="-6.1750830">
        <ele>4.4</ele>
        <time>2023-01-28T07:33:59Z</time>
      </trkpt>
      <trkpt lat="36.4829340" lon="-6.1750310">
        <ele>4.4</ele>
        <time>2023-01-28T07:34:00Z</time>
      </trkpt>
      <trkpt lat="36.4829600" lon="-6.1749990">
        <ele>4.4</ele>
        <time>2023-01-28T07:34:01Z</time>
      </trkpt>
      <trkpt lat="36.4829840" lon="-6.1749590">
        <ele>4.4</ele>
        <time>2023-01-28T07:34:02Z</time>
      </trkpt>
      <trkpt lat="36.4829870" lon="-6.1749150">
        <ele>4.4</ele>
        <time>2023-01-28T07:34:03Z</time>
      </trkpt>
      <trkpt lat="36.4829940" lon="-6.1748670">
        <ele>4.2</ele>
        <time>2023-01-28T07:34:04Z</time>
      </trkpt>
      <trkpt lat="36.4829950" lon="-6.1748280">
        <ele>4.4</ele>
        <time>2023-01-28T07:34:05Z</time>
      </trkpt>
      <trkpt lat="36.4830140" lon="-6.1747770">
        <ele>4.4</ele>
        <time>2023-01-28T07:34:06Z</time>
      </trkpt>
      <trkpt lat="36.4830330" lon="-6.1747210">
        <ele>4.2</ele>
        <time>2023-01-28T07:34:07Z</time>
      </trkpt>
      <trkpt lat="36.4830480" lon="-6.1746830">
        <ele>4.2</ele>
        <time>2023-01-28T07:34:08Z</time>
      </trkpt>
      <trkpt lat="36.4830770" lon="-6.1746330">
        <ele>4.2</ele>
        <time>2023-01-28T07:34:09Z</time>
      </trkpt>
      <trkpt lat="36.4831050" lon="-6.1746120">
        <ele>4.2</ele>
        <time>2023-01-28T07:34:10Z</time>
      </trkpt>
      <trkpt lat="36.4831320" lon="-6.1745690">
        <ele>4.2</ele>
        <time>2023-01-28T07:34:11Z</time>
      </trkpt>
      <trkpt lat="36.4831690" lon="-6.1745270">
        <ele>4.2</ele>
        <time>2023-01-28T07:34:12Z</time>
      </trkpt>
      <trkpt lat="36.4831940" lon="-6.1744800">
        <ele>4.2</ele>
        <time>2023-01-28T07:34:13Z</time>
      </trkpt>
      <trkpt lat="36.4832120" lon="-6.1744350">
        <ele>4.2</ele>
        <time>2023-01-28T07:34:14Z</time>
      </trkpt>
      <trkpt lat="36.4832460" lon="-6.1743820">
        <ele>4.2</ele>
        <time>2023-01-28T07:34:15Z</time>
      </trkpt>
      <trkpt lat="36.4832560" lon="-6.1743530">
        <ele>4.2</ele>
        <time>2023-01-28T07:34:16Z</time>
      </trkpt>
      <trkpt lat="36.4832770" lon="-6.1743100">
        <ele>4.2</ele>
        <time>2023-01-28T07:34:17Z</time>
      </trkpt>
      <trkpt lat="36.4832990" lon="-6.1742860">
        <ele>4.2</ele>
        <time>2023-01-28T07:34:18Z</time>
      </trkpt>
      <trkpt lat="36.4833220" lon="-6.1742400">
        <ele>4.4</ele>
        <time>2023-01-28T07:34:19Z</time>
      </trkpt>
      <trkpt lat="36.4833320" lon="-6.1742010">
        <ele>4.2</ele>
        <time>2023-01-28T07:34:20Z</time>
      </trkpt>
      <trkpt lat="36.4833510" lon="-6.1741610">
        <ele>4.2</ele>
        <time>2023-01-28T07:34:21Z</time>
      </trkpt>
      <trkpt lat="36.4833710" lon="-6.1741250">
        <ele>4.2</ele>
        <time>2023-01-28T07:34:22Z</time>
      </trkpt>
      <trkpt lat="36.4833830" lon="-6.1740720">
        <ele>4.2</ele>
        <time>2023-01-28T07:34:23Z</time>
      </trkpt>
      <trkpt lat="36.4834050" lon="-6.1740190">
        <ele>4.2</ele>
        <time>2023-01-28T07:34:24Z</time>
      </trkpt>
      <trkpt lat="36.4834380" lon="-6.1739920">
        <ele>4.2</ele>
        <time>2023-01-28T07:34:25Z</time>
      </trkpt>
      <trkpt lat="36.4834630" lon="-6.1739670">
        <ele>4.2</ele>
        <time>2023-01-28T07:34:26Z</time>
      </trkpt>
      <trkpt lat="36.4834840" lon="-6.1739150">
        <ele>4.2</ele>
        <time>2023-01-28T07:34:27Z</time>
      </trkpt>
      <trkpt lat="36.4835000" lon="-6.1738670">
        <ele>4.2</ele>
        <time>2023-01-28T07:34:28Z</time>
      </trkpt>
      <trkpt lat="36.4835140" lon="-6.1738240">
        <ele>4.2</ele>
        <time>2023-01-28T07:34:29Z</time>
      </trkpt>
      <trkpt lat="36.4835290" lon="-6.1737760">
        <ele>4.2</ele>
        <time>2023-01-28T07:34:30Z</time>
      </trkpt>
      <trkpt lat="36.4835380" lon="-6.1737180">
        <ele>4.4</ele>
        <time>2023-01-28T07:34:31Z</time>
      </trkpt>
      <trkpt lat="36.4835560" lon="-6.1736750">
        <ele>4.2</ele>
        <time>2023-01-28T07:34:32Z</time>
      </trkpt>
      <trkpt lat="36.4835660" lon="-6.1736300">
        <ele>4.4</ele>
        <time>2023-01-28T07:34:33Z</time>
      </trkpt>
      <trkpt lat="36.4835840" lon="-6.1735940">
        <ele>4.4</ele>
        <time>2023-01-28T07:34:34Z</time>
      </trkpt>
      <trkpt lat="36.4836030" lon="-6.1735570">
        <ele>4.2</ele>
        <time>2023-01-28T07:34:35Z</time>
      </trkpt>
      <trkpt lat="36.4836220" lon="-6.1735140">
        <ele>4.2</ele>
        <time>2023-01-28T07:34:36Z</time>
      </trkpt>
      <trkpt lat="36.4836370" lon="-6.1734870">
        <ele>4.0</ele>
        <time>2023-01-28T07:34:37Z</time>
      </trkpt>
      <trkpt lat="36.4836530" lon="-6.1734360">
        <ele>3.8</ele>
        <time>2023-01-28T07:34:38Z</time>
      </trkpt>
      <trkpt lat="36.4836740" lon="-6.1733840">
        <ele>4.0</ele>
        <time>2023-01-28T07:34:39Z</time>
      </trkpt>
      <trkpt lat="36.4836980" lon="-6.1733440">
        <ele>3.8</ele>
        <time>2023-01-28T07:34:40Z</time>
      </trkpt>
      <trkpt lat="36.4837300" lon="-6.1733090">
        <ele>3.8</ele>
        <time>2023-01-28T07:34:41Z</time>
      </trkpt>
      <trkpt lat="36.4837500" lon="-6.1732820">
        <ele>3.8</ele>
        <time>2023-01-28T07:34:42Z</time>
      </trkpt>
      <trkpt lat="36.4837700" lon="-6.1732360">
        <ele>3.8</ele>
        <time>2023-01-28T07:34:43Z</time>
      </trkpt>
      <trkpt lat="36.4838030" lon="-6.1731950">
        <ele>3.6</ele>
        <time>2023-01-28T07:34:44Z</time>
      </trkpt>
      <trkpt lat="36.4838360" lon="-6.1731570">
        <ele>3.8</ele>
        <time>2023-01-28T07:34:45Z</time>
      </trkpt>
      <trkpt lat="36.4838420" lon="-6.1731130">
        <ele>3.8</ele>
        <time>2023-01-28T07:34:46Z</time>
      </trkpt>
      <trkpt lat="36.4838730" lon="-6.1730760">
        <ele>3.6</ele>
        <time>2023-01-28T07:34:47Z</time>
      </trkpt>
      <trkpt lat="36.4839100" lon="-6.1730160">
        <ele>3.6</ele>
        <time>2023-01-28T07:34:48Z</time>
      </trkpt>
      <trkpt lat="36.4839240" lon="-6.1729770">
        <ele>3.6</ele>
        <time>2023-01-28T07:34:49Z</time>
      </trkpt>
      <trkpt lat="36.4839440" lon="-6.1729380">
        <ele>3.6</ele>
        <time>2023-01-28T07:34:50Z</time>
      </trkpt>
      <trkpt lat="36.4839620" lon="-6.1728800">
        <ele>3.6</ele>
        <time>2023-01-28T07:34:51Z</time>
      </trkpt>
      <trkpt lat="36.4839820" lon="-6.1728470">
        <ele>3.6</ele>
        <time>2023-01-28T07:34:52Z</time>
      </trkpt>
      <trkpt lat="36.4839950" lon="-6.1728000">
        <ele>3.4</ele>
        <time>2023-01-28T07:34:53Z</time>
      </trkpt>
      <trkpt lat="36.4840180" lon="-6.1727690">
        <ele>3.4</ele>
        <time>2023-01-28T07:34:54Z</time>
      </trkpt>
      <trkpt lat="36.4840460" lon="-6.1727300">
        <ele>3.4</ele>
        <time>2023-01-28T07:34:55Z</time>
      </trkpt>
      <trkpt lat="36.4840650" lon="-6.1726780">
        <ele>3.4</ele>
        <time>2023-01-28T07:34:56Z</time>
      </trkpt>
      <trkpt lat="36.4840910" lon="-6.1726420">
        <ele>3.4</ele>
        <time>2023-01-28T07:34:57Z</time>
      </trkpt>
      <trkpt lat="36.4841010" lon="-6.1725960">
        <ele>3.4</ele>
        <time>2023-01-28T07:34:58Z</time>
      </trkpt>
      <trkpt lat="36.4841240" lon="-6.1725510">
        <ele>3.6</ele>
        <time>2023-01-28T07:34:59Z</time>
      </trkpt>
      <trkpt lat="36.4841380" lon="-6.1725110">
        <ele>3.4</ele>
        <time>2023-01-28T07:35:00Z</time>
      </trkpt>
      <trkpt lat="36.4841630" lon="-6.1724500">
        <ele>3.4</ele>
        <time>2023-01-28T07:35:01Z</time>
      </trkpt>
      <trkpt lat="36.4841830" lon="-6.1724060">
        <ele>3.4</ele>
        <time>2023-01-28T07:35:02Z</time>
      </trkpt>
      <trkpt lat="36.4841990" lon="-6.1723570">
        <ele>3.4</ele>
        <time>2023-01-28T07:35:03Z</time>
      </trkpt>
      <trkpt lat="36.4842090" lon="-6.1723120">
        <ele>3.4</ele>
        <time>2023-01-28T07:35:04Z</time>
      </trkpt>
      <trkpt lat="36.4842330" lon="-6.1722870">
        <ele>3.4</ele>
        <time>2023-01-28T07:35:05Z</time>
      </trkpt>
      <trkpt lat="36.4842590" lon="-6.1722430">
        <ele>3.4</ele>
        <time>2023-01-28T07:35:06Z</time>
      </trkpt>
      <trkpt lat="36.4842830" lon="-6.1721890">
        <ele>3.4</ele>
        <time>2023-01-28T07:35:07Z</time>
      </trkpt>
      <trkpt lat="36.4842910" lon="-6.1721360">
        <ele>3.4</ele>
        <time>2023-01-28T07:35:08Z</time>
      </trkpt>
      <trkpt lat="36.4843060" lon="-6.1720900">
        <ele>3.4</ele>
        <time>2023-01-28T07:35:09Z</time>
      </trkpt>
      <trkpt lat="36.4843150" lon="-6.1720510">
        <ele>3.4</ele>
        <time>2023-01-28T07:35:10Z</time>
      </trkpt>
      <trkpt lat="36.4843100" lon="-6.1720190">
        <ele>3.6</ele>
        <time>2023-01-28T07:35:11Z</time>
      </trkpt>
      <trkpt lat="36.4843390" lon="-6.1719570">
        <ele>3.4</ele>
        <time>2023-01-28T07:35:12Z</time>
      </trkpt>
      <trkpt lat="36.4843720" lon="-6.1719200">
        <ele>3.4</ele>
        <time>2023-01-28T07:35:13Z</time>
      </trkpt>
      <trkpt lat="36.4843870" lon="-6.1718850">
        <ele>3.4</ele>
        <time>2023-01-28T07:35:14Z</time>
      </trkpt>
      <trkpt lat="36.4844250" lon="-6.1718340">
        <ele>3.4</ele>
        <time>2023-01-28T07:35:15Z</time>
      </trkpt>
      <trkpt lat="36.4844230" lon="-6.1717950">
        <ele>3.6</ele>
        <time>2023-01-28T07:35:16Z</time>
      </trkpt>
      <trkpt lat="36.4844450" lon="-6.1717690">
        <ele>3.4</ele>
        <time>2023-01-28T07:35:17Z</time>
      </trkpt>
      <trkpt lat="36.4844610" lon="-6.1717400">
        <ele>3.2</ele>
        <time>2023-01-28T07:35:18Z</time>
      </trkpt>
      <trkpt lat="36.4844830" lon="-6.1716980">
        <ele>3.2</ele>
        <time>2023-01-28T07:35:19Z</time>
      </trkpt>
      <trkpt lat="36.4845040" lon="-6.1716680">
        <ele>3.2</ele>
        <time>2023-01-28T07:35:20Z</time>
      </trkpt>
      <trkpt lat="36.4845240" lon="-6.1716170">
        <ele>3.2</ele>
        <time>2023-01-28T07:35:21Z</time>
      </trkpt>
      <trkpt lat="36.4845360" lon="-6.1715670">
        <ele>3.2</ele>
        <time>2023-01-28T07:35:22Z</time>
      </trkpt>
      <trkpt lat="36.4845440" lon="-6.1715070">
        <ele>3.0</ele>
        <time>2023-01-28T07:35:23Z</time>
      </trkpt>
      <trkpt lat="36.4845490" lon="-6.1714500">
        <ele>3.0</ele>
        <time>2023-01-28T07:35:24Z</time>
      </trkpt>
      <trkpt lat="36.4845600" lon="-6.1714080">
        <ele>3.2</ele>
        <time>2023-01-28T07:35:25Z</time>
      </trkpt>
      <trkpt lat="36.4845770" lon="-6.1713650">
        <ele>3.0</ele>
        <time>2023-01-28T07:35:26Z</time>
      </trkpt>
      <trkpt lat="36.4845980" lon="-6.1713240">
        <ele>3.2</ele>
        <time>2023-01-28T07:35:27Z</time>
      </trkpt>
      <trkpt lat="36.4846310" lon="-6.1712910">
        <ele>3.4</ele>
        <time>2023-01-28T07:35:28Z</time>
      </trkpt>
      <trkpt lat="36.4846670" lon="-6.1712490">
        <ele>3.4</ele>
        <time>2023-01-28T07:35:29Z</time>
      </trkpt>
      <trkpt lat="36.4847310" lon="-6.1712000">
        <ele>3.4</ele>
        <time>2023-01-28T07:35:30Z</time>
      </trkpt>
      <trkpt lat="36.4847310" lon="-6.1712000">
        <ele>3.4</ele>
        <time>2023-01-28T07:35:31Z</time>
      </trkpt>
      <trkpt lat="36.4847640" lon="-6.1710970">
        <ele>3.2</ele>
        <time>2023-01-28T07:35:32Z</time>
      </trkpt>
      <trkpt lat="36.4847640" lon="-6.1710970">
        <ele>3.2</ele>
        <time>2023-01-28T07:35:33Z</time>
      </trkpt>
      <trkpt lat="36.4848000" lon="-6.1710340">
        <ele>3.0</ele>
        <time>2023-01-28T07:35:34Z</time>
      </trkpt>
      <trkpt lat="36.4847950" lon="-6.1709930">
        <ele>3.0</ele>
        <time>2023-01-28T07:35:35Z</time>
      </trkpt>
      <trkpt lat="36.4848180" lon="-6.1709470">
        <ele>3.0</ele>
        <time>2023-01-28T07:35:36Z</time>
      </trkpt>
      <trkpt lat="36.4848300" lon="-6.1708880">
        <ele>3.2</ele>
        <time>2023-01-28T07:35:37Z</time>
      </trkpt>
      <trkpt lat="36.4848350" lon="-6.1708360">
        <ele>3.4</ele>
        <time>2023-01-28T07:35:38Z</time>
      </trkpt>
      <trkpt lat="36.4848670" lon="-6.1707940">
        <ele>3.2</ele>
        <time>2023-01-28T07:35:39Z</time>
      </trkpt>
      <trkpt lat="36.4848950" lon="-6.1707490">
        <ele>3.2</ele>
        <time>2023-01-28T07:35:40Z</time>
      </trkpt>
      <trkpt lat="36.4849060" lon="-6.1707110">
        <ele>3.2</ele>
        <time>2023-01-28T07:35:41Z</time>
      </trkpt>
      <trkpt lat="36.4849330" lon="-6.1706520">
        <ele>3.2</ele>
        <time>2023-01-28T07:35:42Z</time>
      </trkpt>
      <trkpt lat="36.4849650" lon="-6.1706050">
        <ele>3.4</ele>
        <time>2023-01-28T07:35:43Z</time>
      </trkpt>
      <trkpt lat="36.4849980" lon="-6.1705590">
        <ele>3.2</ele>
        <time>2023-01-28T07:35:44Z</time>
      </trkpt>
      <trkpt lat="36.4850070" lon="-6.1705240">
        <ele>3.2</ele>
        <time>2023-01-28T07:35:45Z</time>
      </trkpt>
      <trkpt lat="36.4850190" lon="-6.1704780">
        <ele>3.2</ele>
        <time>2023-01-28T07:35:46Z</time>
      </trkpt>
      <trkpt lat="36.4850300" lon="-6.1704300">
        <ele>3.2</ele>
        <time>2023-01-28T07:35:47Z</time>
      </trkpt>
      <trkpt lat="36.4850480" lon="-6.1703260">
        <ele>3.2</ele>
        <time>2023-01-28T07:35:48Z</time>
      </trkpt>
      <trkpt lat="36.4850480" lon="-6.1703260">
        <ele>3.2</ele>
        <time>2023-01-28T07:35:49Z</time>
      </trkpt>
      <trkpt lat="36.4850830" lon="-6.1702310">
        <ele>3.0</ele>
        <time>2023-01-28T07:35:50Z</time>
      </trkpt>
      <trkpt lat="36.4850830" lon="-6.1702310">
        <ele>3.0</ele>
        <time>2023-01-28T07:35:51Z</time>
      </trkpt>
      <trkpt lat="36.4850880" lon="-6.1701960">
        <ele>3.2</ele>
        <time>2023-01-28T07:35:52Z</time>
      </trkpt>
      <trkpt lat="36.4850950" lon="-6.1701640">
        <ele>3.2</ele>
        <time>2023-01-28T07:35:53Z</time>
      </trkpt>
      <trkpt lat="36.4851090" lon="-6.1701200">
        <ele>3.0</ele>
        <time>2023-01-28T07:35:54Z</time>
      </trkpt>
      <trkpt lat="36.4851230" lon="-6.1700590">
        <ele>3.0</ele>
        <time>2023-01-28T07:35:55Z</time>
      </trkpt>
      <trkpt lat="36.4851420" lon="-6.1700280">
        <ele>3.0</ele>
        <time>2023-01-28T07:35:56Z</time>
      </trkpt>
      <trkpt lat="36.4851640" lon="-6.1699860">
        <ele>3.0</ele>
        <time>2023-01-28T07:35:57Z</time>
      </trkpt>
      <trkpt lat="36.4851870" lon="-6.1699470">
        <ele>3.2</ele>
        <time>2023-01-28T07:35:58Z</time>
      </trkpt>
      <trkpt lat="36.4851970" lon="-6.1699190">
        <ele>3.2</ele>
        <time>2023-01-28T07:35:59Z</time>
      </trkpt>
      <trkpt lat="36.4852070" lon="-6.1698830">
        <ele>3.2</ele>
        <time>2023-01-28T07:36:00Z</time>
      </trkpt>
      <trkpt lat="36.4852320" lon="-6.1698550">
        <ele>3.0</ele>
        <time>2023-01-28T07:36:01Z</time>
      </trkpt>
      <trkpt lat="36.4852560" lon="-6.1698000">
        <ele>3.0</ele>
        <time>2023-01-28T07:36:02Z</time>
      </trkpt>
      <trkpt lat="36.4852730" lon="-6.1697560">
        <ele>3.2</ele>
        <time>2023-01-28T07:36:03Z</time>
      </trkpt>
      <trkpt lat="36.4852960" lon="-6.1697290">
        <ele>3.0</ele>
        <time>2023-01-28T07:36:04Z</time>
      </trkpt>
      <trkpt lat="36.4853280" lon="-6.1696920">
        <ele>3.2</ele>
        <time>2023-01-28T07:36:05Z</time>
      </trkpt>
      <trkpt lat="36.4853620" lon="-6.1696460">
        <ele>3.0</ele>
        <time>2023-01-28T07:36:06Z</time>
      </trkpt>
      <trkpt lat="36.4853920" lon="-6.1695960">
        <ele>3.0</ele>
        <time>2023-01-28T07:36:07Z</time>
      </trkpt>
      <trkpt lat="36.4853970" lon="-6.1695640">
        <ele>3.0</ele>
        <time>2023-01-28T07:36:08Z</time>
      </trkpt>
      <trkpt lat="36.4854160" lon="-6.1695190">
        <ele>3.2</ele>
        <time>2023-01-28T07:36:09Z</time>
      </trkpt>
      <trkpt lat="36.4854450" lon="-6.1694690">
        <ele>3.0</ele>
        <time>2023-01-28T07:36:10Z</time>
      </trkpt>
      <trkpt lat="36.4854500" lon="-6.1694320">
        <ele>3.0</ele>
        <time>2023-01-28T07:36:11Z</time>
      </trkpt>
      <trkpt lat="36.4854730" lon="-6.1693930">
        <ele>3.0</ele>
        <time>2023-01-28T07:36:12Z</time>
      </trkpt>
      <trkpt lat="36.4854900" lon="-6.1693380">
        <ele>3.0</ele>
        <time>2023-01-28T07:36:13Z</time>
      </trkpt>
      <trkpt lat="36.4855180" lon="-6.1692830">
        <ele>3.0</ele>
        <time>2023-01-28T07:36:14Z</time>
      </trkpt>
      <trkpt lat="36.4855360" lon="-6.1692510">
        <ele>3.0</ele>
        <time>2023-01-28T07:36:15Z</time>
      </trkpt>
      <trkpt lat="36.4855970" lon="-6.1691760">
        <ele>3.0</ele>
        <time>2023-01-28T07:36:16Z</time>
      </trkpt>
      <trkpt lat="36.4855970" lon="-6.1691760">
        <ele>3.0</ele>
        <time>2023-01-28T07:36:17Z</time>
      </trkpt>
      <trkpt lat="36.4856270" lon="-6.1691320">
        <ele>3.0</ele>
        <time>2023-01-28T07:36:18Z</time>
      </trkpt>
      <trkpt lat="36.4856540" lon="-6.1690840">
        <ele>3.0</ele>
        <time>2023-01-28T07:36:19Z</time>
      </trkpt>
      <trkpt lat="36.4856680" lon="-6.1690430">
        <ele>3.0</ele>
        <time>2023-01-28T07:36:20Z</time>
      </trkpt>
      <trkpt lat="36.4856890" lon="-6.1689980">
        <ele>3.0</ele>
        <time>2023-01-28T07:36:21Z</time>
      </trkpt>
      <trkpt lat="36.4856980" lon="-6.1689670">
        <ele>3.0</ele>
        <time>2023-01-28T07:36:22Z</time>
      </trkpt>
      <trkpt lat="36.4857210" lon="-6.1689150">
        <ele>3.0</ele>
        <time>2023-01-28T07:36:23Z</time>
      </trkpt>
      <trkpt lat="36.4857670" lon="-6.1688220">
        <ele>3.0</ele>
        <time>2023-01-28T07:36:24Z</time>
      </trkpt>
      <trkpt lat="36.4857670" lon="-6.1688220">
        <ele>2.8</ele>
        <time>2023-01-28T07:36:25Z</time>
      </trkpt>
      <trkpt lat="36.4858070" lon="-6.1687990">
        <ele>3.2</ele>
        <time>2023-01-28T07:36:26Z</time>
      </trkpt>
      <trkpt lat="36.4858310" lon="-6.1687670">
        <ele>3.0</ele>
        <time>2023-01-28T07:36:27Z</time>
      </trkpt>
      <trkpt lat="36.4858290" lon="-6.1687260">
        <ele>3.0</ele>
        <time>2023-01-28T07:36:28Z</time>
      </trkpt>
      <trkpt lat="36.4858560" lon="-6.1686700">
        <ele>3.0</ele>
        <time>2023-01-28T07:36:29Z</time>
      </trkpt>
      <trkpt lat="36.4858900" lon="-6.1686260">
        <ele>3.0</ele>
        <time>2023-01-28T07:36:30Z</time>
      </trkpt>
      <trkpt lat="36.4858980" lon="-6.1685760">
        <ele>3.0</ele>
        <time>2023-01-28T07:36:31Z</time>
      </trkpt>
      <trkpt lat="36.4859260" lon="-6.1685470">
        <ele>3.0</ele>
        <time>2023-01-28T07:36:32Z</time>
      </trkpt>
      <trkpt lat="36.4859390" lon="-6.1685160">
        <ele>3.0</ele>
        <time>2023-01-28T07:36:33Z</time>
      </trkpt>
      <trkpt lat="36.4859630" lon="-6.1684270">
        <ele>3.0</ele>
        <time>2023-01-28T07:36:34Z</time>
      </trkpt>
      <trkpt lat="36.4859630" lon="-6.1684270">
        <ele>3.0</ele>
        <time>2023-01-28T07:36:35Z</time>
      </trkpt>
      <trkpt lat="36.4859910" lon="-6.1683760">
        <ele>3.0</ele>
        <time>2023-01-28T07:36:36Z</time>
      </trkpt>
      <trkpt lat="36.4860320" lon="-6.1683370">
        <ele>3.0</ele>
        <time>2023-01-28T07:36:37Z</time>
      </trkpt>
      <trkpt lat="36.4860410" lon="-6.1683060">
        <ele>3.0</ele>
        <time>2023-01-28T07:36:38Z</time>
      </trkpt>
      <trkpt lat="36.4860620" lon="-6.1682890">
        <ele>3.0</ele>
        <time>2023-01-28T07:36:39Z</time>
      </trkpt>
      <trkpt lat="36.4860910" lon="-6.1682110">
        <ele>3.0</ele>
        <time>2023-01-28T07:36:40Z</time>
      </trkpt>
      <trkpt lat="36.4860910" lon="-6.1682110">
        <ele>3.0</ele>
        <time>2023-01-28T07:36:41Z</time>
      </trkpt>
      <trkpt lat="36.4861010" lon="-6.1681680">
        <ele>2.8</ele>
        <time>2023-01-28T07:36:42Z</time>
      </trkpt>
      <trkpt lat="36.4861180" lon="-6.1681230">
        <ele>3.2</ele>
        <time>2023-01-28T07:36:43Z</time>
      </trkpt>
      <trkpt lat="36.4861320" lon="-6.1680230">
        <ele>3.4</ele>
        <time>2023-01-28T07:36:44Z</time>
      </trkpt>
      <trkpt lat="36.4861320" lon="-6.1680230">
        <ele>3.4</ele>
        <time>2023-01-28T07:36:45Z</time>
      </trkpt>
      <trkpt lat="36.4861600" lon="-6.1679290">
        <ele>3.2</ele>
        <time>2023-01-28T07:36:46Z</time>
      </trkpt>
      <trkpt lat="36.4861600" lon="-6.1679290">
        <ele>3.4</ele>
        <time>2023-01-28T07:36:47Z</time>
      </trkpt>
      <trkpt lat="36.4861790" lon="-6.1679010">
        <ele>3.2</ele>
        <time>2023-01-28T07:36:48Z</time>
      </trkpt>
      <trkpt lat="36.4861940" lon="-6.1678720">
        <ele>3.2</ele>
        <time>2023-01-28T07:36:49Z</time>
      </trkpt>
      <trkpt lat="36.4862230" lon="-6.1678240">
        <ele>3.2</ele>
        <time>2023-01-28T07:36:50Z</time>
      </trkpt>
      <trkpt lat="36.4862420" lon="-6.1677800">
        <ele>3.4</ele>
        <time>2023-01-28T07:36:51Z</time>
      </trkpt>
      <trkpt lat="36.4862480" lon="-6.1677390">
        <ele>3.4</ele>
        <time>2023-01-28T07:36:52Z</time>
      </trkpt>
      <trkpt lat="36.4862650" lon="-6.1676990">
        <ele>3.4</ele>
        <time>2023-01-28T07:36:53Z</time>
      </trkpt>
      <trkpt lat="36.4862760" lon="-6.1676490">
        <ele>3.2</ele>
        <time>2023-01-28T07:36:54Z</time>
      </trkpt>
      <trkpt lat="36.4862930" lon="-6.1675940">
        <ele>3.4</ele>
        <time>2023-01-28T07:36:55Z</time>
      </trkpt>
      <trkpt lat="36.4863420" lon="-6.1675300">
        <ele>3.4</ele>
        <time>2023-01-28T07:36:56Z</time>
      </trkpt>
      <trkpt lat="36.4863420" lon="-6.1675300">
        <ele>3.2</ele>
        <time>2023-01-28T07:36:57Z</time>
      </trkpt>
      <trkpt lat="36.4863600" lon="-6.1674850">
        <ele>3.2</ele>
        <time>2023-01-28T07:36:58Z</time>
      </trkpt>
      <trkpt lat="36.4863950" lon="-6.1674480">
        <ele>3.4</ele>
        <time>2023-01-28T07:36:59Z</time>
      </trkpt>
      <trkpt lat="36.4864170" lon="-6.1673750">
        <ele>3.2</ele>
        <time>2023-01-28T07:37:00Z</time>
      </trkpt>
      <trkpt lat="36.4864170" lon="-6.1673750">
        <ele>3.2</ele>
        <time>2023-01-28T07:37:01Z</time>
      </trkpt>
      <trkpt lat="36.4864450" lon="-6.1673390">
        <ele>3.2</ele>
        <time>2023-01-28T07:37:02Z</time>
      </trkpt>
      <trkpt lat="36.4864680" lon="-6.1673040">
        <ele>3.2</ele>
        <time>2023-01-28T07:37:03Z</time>
      </trkpt>
      <trkpt lat="36.4864780" lon="-6.1672450">
        <ele>3.4</ele>
        <time>2023-01-28T07:37:04Z</time>
      </trkpt>
      <trkpt lat="36.4865240" lon="-6.1671750">
        <ele>3.2</ele>
        <time>2023-01-28T07:37:05Z</time>
      </trkpt>
      <trkpt lat="36.4865440" lon="-6.1671310">
        <ele>3.2</ele>
        <time>2023-01-28T07:37:06Z</time>
      </trkpt>
      <trkpt lat="36.4865510" lon="-6.1670820">
        <ele>3.2</ele>
        <time>2023-01-28T07:37:07Z</time>
      </trkpt>
      <trkpt lat="36.4865590" lon="-6.1670470">
        <ele>3.2</ele>
        <time>2023-01-28T07:37:08Z</time>
      </trkpt>
      <trkpt lat="36.4865590" lon="-6.1670470">
        <ele>3.2</ele>
        <time>2023-01-28T07:37:09Z</time>
      </trkpt>
      <trkpt lat="36.4866250" lon="-6.1669770">
        <ele>3.4</ele>
        <time>2023-01-28T07:37:10Z</time>
      </trkpt>
      <trkpt lat="36.4866250" lon="-6.1669770">
        <ele>3.2</ele>
        <time>2023-01-28T07:37:11Z</time>
      </trkpt>
      <trkpt lat="36.4866640" lon="-6.1668850">
        <ele>3.0</ele>
        <time>2023-01-28T07:37:12Z</time>
      </trkpt>
      <trkpt lat="36.4866640" lon="-6.1668850">
        <ele>3.2</ele>
        <time>2023-01-28T07:37:13Z</time>
      </trkpt>
      <trkpt lat="36.4867200" lon="-6.1668030">
        <ele>3.2</ele>
        <time>2023-01-28T07:37:14Z</time>
      </trkpt>
      <trkpt lat="36.4867200" lon="-6.1668030">
        <ele>3.2</ele>
        <time>2023-01-28T07:37:15Z</time>
      </trkpt>
      <trkpt lat="36.4867530" lon="-6.1667270">
        <ele>3.2</ele>
        <time>2023-01-28T07:37:16Z</time>
      </trkpt>
      <trkpt lat="36.4867730" lon="-6.1667020">
        <ele>3.2</ele>
        <time>2023-01-28T07:37:17Z</time>
      </trkpt>
      <trkpt lat="36.4868030" lon="-6.1666780">
        <ele>3.0</ele>
        <time>2023-01-28T07:37:18Z</time>
      </trkpt>
      <trkpt lat="36.4868030" lon="-6.1666780">
        <ele>3.0</ele>
        <time>2023-01-28T07:37:19Z</time>
      </trkpt>
      <trkpt lat="36.4868600" lon="-6.1665920">
        <ele>3.0</ele>
        <time>2023-01-28T07:37:20Z</time>
      </trkpt>
      <trkpt lat="36.4868600" lon="-6.1665920">
        <ele>3.0</ele>
        <time>2023-01-28T07:37:21Z</time>
      </trkpt>
      <trkpt lat="36.4868830" lon="-6.1665610">
        <ele>3.0</ele>
        <time>2023-01-28T07:37:22Z</time>
      </trkpt>
      <trkpt lat="36.4868570" lon="-6.1665380">
        <ele>3.0</ele>
        <time>2023-01-28T07:37:23Z</time>
      </trkpt>
      <trkpt lat="36.4868700" lon="-6.1664540">
        <ele>3.0</ele>
        <time>2023-01-28T07:37:24Z</time>
      </trkpt>
      <trkpt lat="36.4868940" lon="-6.1664270">
        <ele>3.0</ele>
        <time>2023-01-28T07:37:25Z</time>
      </trkpt>
      <trkpt lat="36.4869170" lon="-6.1663810">
        <ele>3.2</ele>
        <time>2023-01-28T07:37:26Z</time>
      </trkpt>
      <trkpt lat="36.4869170" lon="-6.1663810">
        <ele>3.6</ele>
        <time>2023-01-28T07:37:27Z</time>
      </trkpt>
      <trkpt lat="36.4869560" lon="-6.1662990">
        <ele>3.4</ele>
        <time>2023-01-28T07:37:28Z</time>
      </trkpt>
      <trkpt lat="36.4869590" lon="-6.1662530">
        <ele>3.8</ele>
        <time>2023-01-28T07:37:29Z</time>
      </trkpt>
      <trkpt lat="36.4869790" lon="-6.1662240">
        <ele>4.0</ele>
        <time>2023-01-28T07:37:30Z</time>
      </trkpt>
      <trkpt lat="36.4869980" lon="-6.1661950">
        <ele>4.0</ele>
        <time>2023-01-28T07:37:31Z</time>
      </trkpt>
      <trkpt lat="36.4870090" lon="-6.1661660">
        <ele>4.2</ele>
        <time>2023-01-28T07:37:32Z</time>
      </trkpt>
      <trkpt lat="36.4870090" lon="-6.1661660">
        <ele>4.4</ele>
        <time>2023-01-28T07:37:33Z</time>
      </trkpt>
      <trkpt lat="36.4870160" lon="-6.1661010">
        <ele>4.4</ele>
        <time>2023-01-28T07:37:34Z</time>
      </trkpt>
      <trkpt lat="36.4870320" lon="-6.1660630">
        <ele>4.4</ele>
        <time>2023-01-28T07:37:35Z</time>
      </trkpt>
      <trkpt lat="36.4870570" lon="-6.1660200">
        <ele>4.4</ele>
        <time>2023-01-28T07:37:36Z</time>
      </trkpt>
      <trkpt lat="36.4870800" lon="-6.1659770">
        <ele>4.6</ele>
        <time>2023-01-28T07:37:37Z</time>
      </trkpt>
      <trkpt lat="36.4871080" lon="-6.1659270">
        <ele>4.4</ele>
        <time>2023-01-28T07:37:38Z</time>
      </trkpt>
      <trkpt lat="36.4871290" lon="-6.1658860">
        <ele>4.6</ele>
        <time>2023-01-28T07:37:39Z</time>
      </trkpt>
      <trkpt lat="36.4871290" lon="-6.1658860">
        <ele>4.6</ele>
        <time>2023-01-28T07:37:40Z</time>
      </trkpt>
      <trkpt lat="36.4871630" lon="-6.1657980">
        <ele>4.4</ele>
        <time>2023-01-28T07:37:41Z</time>
      </trkpt>
      <trkpt lat="36.4871740" lon="-6.1657550">
        <ele>4.4</ele>
        <time>2023-01-28T07:37:42Z</time>
      </trkpt>
      <trkpt lat="36.4871920" lon="-6.1657260">
        <ele>4.4</ele>
        <time>2023-01-28T07:37:43Z</time>
      </trkpt>
      <trkpt lat="36.4871920" lon="-6.1657260">
        <ele>4.6</ele>
        <time>2023-01-28T07:37:44Z</time>
      </trkpt>
      <trkpt lat="36.4872520" lon="-6.1656300">
        <ele>4.8</ele>
        <time>2023-01-28T07:37:45Z</time>
      </trkpt>
      <trkpt lat="36.4872520" lon="-6.1656300">
        <ele>4.8</ele>
        <time>2023-01-28T07:37:46Z</time>
      </trkpt>
      <trkpt lat="36.4872820" lon="-6.1655800">
        <ele>5.0</ele>
        <time>2023-01-28T07:37:47Z</time>
      </trkpt>
      <trkpt lat="36.4872820" lon="-6.1655800">
        <ele>5.2</ele>
        <time>2023-01-28T07:37:48Z</time>
      </trkpt>
      <trkpt lat="36.4873290" lon="-6.1655070">
        <ele>5.0</ele>
        <time>2023-01-28T07:37:49Z</time>
      </trkpt>
      <trkpt lat="36.4873290" lon="-6.1655070">
        <ele>5.4</ele>
        <time>2023-01-28T07:37:50Z</time>
      </trkpt>
      <trkpt lat="36.4873490" lon="-6.1654270">
        <ele>5.2</ele>
        <time>2023-01-28T07:37:51Z</time>
      </trkpt>
      <trkpt lat="36.4873680" lon="-6.1653820">
        <ele>5.0</ele>
        <time>2023-01-28T07:37:52Z</time>
      </trkpt>
      <trkpt lat="36.4873790" lon="-6.1653540">
        <ele>5.0</ele>
        <time>2023-01-28T07:37:53Z</time>
      </trkpt>
      <trkpt lat="36.4873790" lon="-6.1653540">
        <ele>5.0</ele>
        <time>2023-01-28T07:37:54Z</time>
      </trkpt>
      <trkpt lat="36.4874110" lon="-6.1652710">
        <ele>4.8</ele>
        <time>2023-01-28T07:37:55Z</time>
      </trkpt>
      <trkpt lat="36.4874330" lon="-6.1652360">
        <ele>5.2</ele>
        <time>2023-01-28T07:37:56Z</time>
      </trkpt>
      <trkpt lat="36.4874550" lon="-6.1651960">
        <ele>5.2</ele>
        <time>2023-01-28T07:37:57Z</time>
      </trkpt>
      <trkpt lat="36.4874650" lon="-6.1651550">
        <ele>5.2</ele>
        <time>2023-01-28T07:37:58Z</time>
      </trkpt>
      <trkpt lat="36.4874830" lon="-6.1651100">
        <ele>5.0</ele>
        <time>2023-01-28T07:37:59Z</time>
      </trkpt>
      <trkpt lat="36.4875100" lon="-6.1650980">
        <ele>4.8</ele>
        <time>2023-01-28T07:38:00Z</time>
      </trkpt>
      <trkpt lat="36.4875260" lon="-6.1650510">
        <ele>4.8</ele>
        <time>2023-01-28T07:38:01Z</time>
      </trkpt>
      <trkpt lat="36.4875350" lon="-6.1649970">
        <ele>4.6</ele>
        <time>2023-01-28T07:38:02Z</time>
      </trkpt>
      <trkpt lat="36.4875540" lon="-6.1649570">
        <ele>4.4</ele>
        <time>2023-01-28T07:38:03Z</time>
      </trkpt>
      <trkpt lat="36.4875760" lon="-6.1649000">
        <ele>4.4</ele>
        <time>2023-01-28T07:38:04Z</time>
      </trkpt>
      <trkpt lat="36.4876050" lon="-6.1648590">
        <ele>4.2</ele>
        <time>2023-01-28T07:38:05Z</time>
      </trkpt>
      <trkpt lat="36.4876150" lon="-6.1648240">
        <ele>4.4</ele>
        <time>2023-01-28T07:38:06Z</time>
      </trkpt>
      <trkpt lat="36.4876430" lon="-6.1647740">
        <ele>4.4</ele>
        <time>2023-01-28T07:38:07Z</time>
      </trkpt>
      <trkpt lat="36.4876650" lon="-6.1647260">
        <ele>4.4</ele>
        <time>2023-01-28T07:38:08Z</time>
      </trkpt>
      <trkpt lat="36.4876900" lon="-6.1646900">
        <ele>4.2</ele>
        <time>2023-01-28T07:38:09Z</time>
      </trkpt>
      <trkpt lat="36.4876970" lon="-6.1646610">
        <ele>4.4</ele>
        <time>2023-01-28T07:38:10Z</time>
      </trkpt>
      <trkpt lat="36.4877270" lon="-6.1646100">
        <ele>4.4</ele>
        <time>2023-01-28T07:38:11Z</time>
      </trkpt>
      <trkpt lat="36.4877570" lon="-6.1645760">
        <ele>4.2</ele>
        <time>2023-01-28T07:38:12Z</time>
      </trkpt>
      <trkpt lat="36.4877750" lon="-6.1645430">
        <ele>4.2</ele>
        <time>2023-01-28T07:38:13Z</time>
      </trkpt>
      <trkpt lat="36.4877870" lon="-6.1645080">
        <ele>4.4</ele>
        <time>2023-01-28T07:38:14Z</time>
      </trkpt>
      <trkpt lat="36.4878030" lon="-6.1644510">
        <ele>4.4</ele>
        <time>2023-01-28T07:38:15Z</time>
      </trkpt>
      <trkpt lat="36.4878200" lon="-6.1644080">
        <ele>4.4</ele>
        <time>2023-01-28T07:38:16Z</time>
      </trkpt>
      <trkpt lat="36.4878250" lon="-6.1643520">
        <ele>4.2</ele>
        <time>2023-01-28T07:38:17Z</time>
      </trkpt>
      <trkpt lat="36.4878390" lon="-6.1642920">
        <ele>4.2</ele>
        <time>2023-01-28T07:38:18Z</time>
      </trkpt>
      <trkpt lat="36.4878650" lon="-6.1642530">
        <ele>4.4</ele>
        <time>2023-01-28T07:38:19Z</time>
      </trkpt>
      <trkpt lat="36.4878890" lon="-6.1641910">
        <ele>4.2</ele>
        <time>2023-01-28T07:38:20Z</time>
      </trkpt>
      <trkpt lat="36.4879070" lon="-6.1641450">
        <ele>4.2</ele>
        <time>2023-01-28T07:38:21Z</time>
      </trkpt>
      <trkpt lat="36.4879370" lon="-6.1641010">
        <ele>4.2</ele>
        <time>2023-01-28T07:38:22Z</time>
      </trkpt>
      <trkpt lat="36.4879540" lon="-6.1640650">
        <ele>4.2</ele>
        <time>2023-01-28T07:38:23Z</time>
      </trkpt>
      <trkpt lat="36.4879870" lon="-6.1640220">
        <ele>4.2</ele>
        <time>2023-01-28T07:38:24Z</time>
      </trkpt>
      <trkpt lat="36.4880120" lon="-6.1639840">
        <ele>4.2</ele>
        <time>2023-01-28T07:38:25Z</time>
      </trkpt>
      <trkpt lat="36.4880340" lon="-6.1639460">
        <ele>4.2</ele>
        <time>2023-01-28T07:38:26Z</time>
      </trkpt>
      <trkpt lat="36.4880540" lon="-6.1639040">
        <ele>4.4</ele>
        <time>2023-01-28T07:38:27Z</time>
      </trkpt>
      <trkpt lat="36.4880680" lon="-6.1638640">
        <ele>4.2</ele>
        <time>2023-01-28T07:38:28Z</time>
      </trkpt>
      <trkpt lat="36.4880900" lon="-6.1638200">
        <ele>4.4</ele>
        <time>2023-01-28T07:38:29Z</time>
      </trkpt>
      <trkpt lat="36.4880970" lon="-6.1637740">
        <ele>4.4</ele>
        <time>2023-01-28T07:38:30Z</time>
      </trkpt>
      <trkpt lat="36.4881170" lon="-6.1637310">
        <ele>4.0</ele>
        <time>2023-01-28T07:38:31Z</time>
      </trkpt>
      <trkpt lat="36.4881280" lon="-6.1636970">
        <ele>4.4</ele>
        <time>2023-01-28T07:38:32Z</time>
      </trkpt>
      <trkpt lat="36.4881470" lon="-6.1636590">
        <ele>4.4</ele>
        <time>2023-01-28T07:38:33Z</time>
      </trkpt>
      <trkpt lat="36.4881580" lon="-6.1636160">
        <ele>4.2</ele>
        <time>2023-01-28T07:38:34Z</time>
      </trkpt>
      <trkpt lat="36.4881770" lon="-6.1635760">
        <ele>4.2</ele>
        <time>2023-01-28T07:38:35Z</time>
      </trkpt>
      <trkpt lat="36.4881900" lon="-6.1635350">
        <ele>4.2</ele>
        <time>2023-01-28T07:38:36Z</time>
      </trkpt>
      <trkpt lat="36.4881930" lon="-6.1635020">
        <ele>4.2</ele>
        <time>2023-01-28T07:38:37Z</time>
      </trkpt>
      <trkpt lat="36.4882200" lon="-6.1634490">
        <ele>4.2</ele>
        <time>2023-01-28T07:38:38Z</time>
      </trkpt>
      <trkpt lat="36.4882510" lon="-6.1634090">
        <ele>4.2</ele>
        <time>2023-01-28T07:38:39Z</time>
      </trkpt>
      <trkpt lat="36.4882650" lon="-6.1633850">
        <ele>4.2</ele>
        <time>2023-01-28T07:38:40Z</time>
      </trkpt>
      <trkpt lat="36.4882700" lon="-6.1633390">
        <ele>4.2</ele>
        <time>2023-01-28T07:38:41Z</time>
      </trkpt>
      <trkpt lat="36.4882920" lon="-6.1632990">
        <ele>4.2</ele>
        <time>2023-01-28T07:38:42Z</time>
      </trkpt>
      <trkpt lat="36.4883320" lon="-6.1632500">
        <ele>4.2</ele>
        <time>2023-01-28T07:38:43Z</time>
      </trkpt>
      <trkpt lat="36.4883520" lon="-6.1632200">
        <ele>4.0</ele>
        <time>2023-01-28T07:38:44Z</time>
      </trkpt>
      <trkpt lat="36.4883970" lon="-6.1631620">
        <ele>4.0</ele>
        <time>2023-01-28T07:38:45Z</time>
      </trkpt>
      <trkpt lat="36.4884020" lon="-6.1631140">
        <ele>4.0</ele>
        <time>2023-01-28T07:38:46Z</time>
      </trkpt>
      <trkpt lat="36.4884170" lon="-6.1630700">
        <ele>4.2</ele>
        <time>2023-01-28T07:38:47Z</time>
      </trkpt>
      <trkpt lat="36.4884290" lon="-6.1630280">
        <ele>4.2</ele>
        <time>2023-01-28T07:38:48Z</time>
      </trkpt>
      <trkpt lat="36.4884510" lon="-6.1629760">
        <ele>4.4</ele>
        <time>2023-01-28T07:38:49Z</time>
      </trkpt>
      <trkpt lat="36.4884740" lon="-6.1629320">
        <ele>4.6</ele>
        <time>2023-01-28T07:38:50Z</time>
      </trkpt>
      <trkpt lat="36.4885000" lon="-6.1628890">
        <ele>4.6</ele>
        <time>2023-01-28T07:38:51Z</time>
      </trkpt>
      <trkpt lat="36.4885170" lon="-6.1628400">
        <ele>4.8</ele>
        <time>2023-01-28T07:38:52Z</time>
      </trkpt>
      <trkpt lat="36.4885420" lon="-6.1628160">
        <ele>5.0</ele>
        <time>2023-01-28T07:38:53Z</time>
      </trkpt>
      <trkpt lat="36.4885630" lon="-6.1627720">
        <ele>5.0</ele>
        <time>2023-01-28T07:38:54Z</time>
      </trkpt>
      <trkpt lat="36.4885580" lon="-6.1627150">
        <ele>5.0</ele>
        <time>2023-01-28T07:38:55Z</time>
      </trkpt>
      <trkpt lat="36.4885730" lon="-6.1626660">
        <ele>5.0</ele>
        <time>2023-01-28T07:38:56Z</time>
      </trkpt>
      <trkpt lat="36.4886000" lon="-6.1626320">
        <ele>5.2</ele>
        <time>2023-01-28T07:38:57Z</time>
      </trkpt>
      <trkpt lat="36.4886220" lon="-6.1625930">
        <ele>5.2</ele>
        <time>2023-01-28T07:38:58Z</time>
      </trkpt>
      <trkpt lat="36.4886530" lon="-6.1625630">
        <ele>5.2</ele>
        <time>2023-01-28T07:38:59Z</time>
      </trkpt>
      <trkpt lat="36.4886740" lon="-6.1625280">
        <ele>5.0</ele>
        <time>2023-01-28T07:39:00Z</time>
      </trkpt>
      <trkpt lat="36.4887120" lon="-6.1624970">
        <ele>5.0</ele>
        <time>2023-01-28T07:39:01Z</time>
      </trkpt>
      <trkpt lat="36.4887460" lon="-6.1624610">
        <ele>5.0</ele>
        <time>2023-01-28T07:39:02Z</time>
      </trkpt>
      <trkpt lat="36.4887650" lon="-6.1624100">
        <ele>5.0</ele>
        <time>2023-01-28T07:39:03Z</time>
      </trkpt>
      <trkpt lat="36.4887830" lon="-6.1623720">
        <ele>4.8</ele>
        <time>2023-01-28T07:39:04Z</time>
      </trkpt>
      <trkpt lat="36.4888060" lon="-6.1623240">
        <ele>4.8</ele>
        <time>2023-01-28T07:39:05Z</time>
      </trkpt>
      <trkpt lat="36.4888090" lon="-6.1622710">
        <ele>4.6</ele>
        <time>2023-01-28T07:39:06Z</time>
      </trkpt>
      <trkpt lat="36.4888150" lon="-6.1622180">
        <ele>4.6</ele>
        <time>2023-01-28T07:39:07Z</time>
      </trkpt>
      <trkpt lat="36.4888310" lon="-6.1621800">
        <ele>4.4</ele>
        <time>2023-01-28T07:39:08Z</time>
      </trkpt>
      <trkpt lat="36.4888350" lon="-6.1621410">
        <ele>4.4</ele>
        <time>2023-01-28T07:39:09Z</time>
      </trkpt>
      <trkpt lat="36.4888570" lon="-6.1620900">
        <ele>4.4</ele>
        <time>2023-01-28T07:39:10Z</time>
      </trkpt>
      <trkpt lat="36.4888780" lon="-6.1620500">
        <ele>4.4</ele>
        <time>2023-01-28T07:39:11Z</time>
      </trkpt>
      <trkpt lat="36.4889040" lon="-6.1619870">
        <ele>4.6</ele>
        <time>2023-01-28T07:39:12Z</time>
      </trkpt>
      <trkpt lat="36.4889280" lon="-6.1619510">
        <ele>4.6</ele>
        <time>2023-01-28T07:39:13Z</time>
      </trkpt>
      <trkpt lat="36.4889420" lon="-6.1619080">
        <ele>4.6</ele>
        <time>2023-01-28T07:39:14Z</time>
      </trkpt>
      <trkpt lat="36.4889640" lon="-6.1618720">
        <ele>4.4</ele>
        <time>2023-01-28T07:39:15Z</time>
      </trkpt>
      <trkpt lat="36.4889820" lon="-6.1618340">
        <ele>4.2</ele>
        <time>2023-01-28T07:39:16Z</time>
      </trkpt>
      <trkpt lat="36.4890010" lon="-6.1617880">
        <ele>4.2</ele>
        <time>2023-01-28T07:39:17Z</time>
      </trkpt>
      <trkpt lat="36.4890060" lon="-6.1617520">
        <ele>4.4</ele>
        <time>2023-01-28T07:39:18Z</time>
      </trkpt>
      <trkpt lat="36.4890310" lon="-6.1617090">
        <ele>4.2</ele>
        <time>2023-01-28T07:39:19Z</time>
      </trkpt>
      <trkpt lat="36.4890580" lon="-6.1616820">
        <ele>4.4</ele>
        <time>2023-01-28T07:39:20Z</time>
      </trkpt>
      <trkpt lat="36.4890730" lon="-6.1616200">
        <ele>4.4</ele>
        <time>2023-01-28T07:39:21Z</time>
      </trkpt>
      <trkpt lat="36.4890860" lon="-6.1615680">
        <ele>4.4</ele>
        <time>2023-01-28T07:39:22Z</time>
      </trkpt>
      <trkpt lat="36.4890930" lon="-6.1615120">
        <ele>4.4</ele>
        <time>2023-01-28T07:39:23Z</time>
      </trkpt>
      <trkpt lat="36.4891180" lon="-6.1614660">
        <ele>4.2</ele>
        <time>2023-01-28T07:39:24Z</time>
      </trkpt>
      <trkpt lat="36.4891300" lon="-6.1614220">
        <ele>4.2</ele>
        <time>2023-01-28T07:39:25Z</time>
      </trkpt>
      <trkpt lat="36.4891630" lon="-6.1613710">
        <ele>4.2</ele>
        <time>2023-01-28T07:39:26Z</time>
      </trkpt>
      <trkpt lat="36.4891930" lon="-6.1613310">
        <ele>4.2</ele>
        <time>2023-01-28T07:39:27Z</time>
      </trkpt>
      <trkpt lat="36.4892320" lon="-6.1612860">
        <ele>4.2</ele>
        <time>2023-01-28T07:39:28Z</time>
      </trkpt>
      <trkpt lat="36.4892560" lon="-6.1612510">
        <ele>4.2</ele>
        <time>2023-01-28T07:39:29Z</time>
      </trkpt>
      <trkpt lat="36.4892680" lon="-6.1612140">
        <ele>4.2</ele>
        <time>2023-01-28T07:39:30Z</time>
      </trkpt>
      <trkpt lat="36.4892980" lon="-6.1611790">
        <ele>4.4</ele>
        <time>2023-01-28T07:39:31Z</time>
      </trkpt>
      <trkpt lat="36.4893290" lon="-6.1611430">
        <ele>4.0</ele>
        <time>2023-01-28T07:39:32Z</time>
      </trkpt>
      <trkpt lat="36.4893640" lon="-6.1611070">
        <ele>3.8</ele>
        <time>2023-01-28T07:39:33Z</time>
      </trkpt>
      <trkpt lat="36.4894000" lon="-6.1610440">
        <ele>3.2</ele>
        <time>2023-01-28T07:39:34Z</time>
      </trkpt>
      <trkpt lat="36.4894260" lon="-6.1610040">
        <ele>3.0</ele>
        <time>2023-01-28T07:39:35Z</time>
      </trkpt>
      <trkpt lat="36.4894350" lon="-6.1609570">
        <ele>3.0</ele>
        <time>2023-01-28T07:39:36Z</time>
      </trkpt>
      <trkpt lat="36.4894660" lon="-6.1609100">
        <ele>3.0</ele>
        <time>2023-01-28T07:39:37Z</time>
      </trkpt>
      <trkpt lat="36.4894860" lon="-6.1608570">
        <ele>3.0</ele>
        <time>2023-01-28T07:39:38Z</time>
      </trkpt>
      <trkpt lat="36.4894950" lon="-6.1608240">
        <ele>3.0</ele>
        <time>2023-01-28T07:39:39Z</time>
      </trkpt>
      <trkpt lat="36.4895100" lon="-6.1607810">
        <ele>2.8</ele>
        <time>2023-01-28T07:39:40Z</time>
      </trkpt>
      <trkpt lat="36.4895610" lon="-6.1607410">
        <ele>2.8</ele>
        <time>2023-01-28T07:39:41Z</time>
      </trkpt>
      <trkpt lat="36.4895840" lon="-6.1606960">
        <ele>2.8</ele>
        <time>2023-01-28T07:39:42Z</time>
      </trkpt>
      <trkpt lat="36.4895870" lon="-6.1606440">
        <ele>2.8</ele>
        <time>2023-01-28T07:39:43Z</time>
      </trkpt>
      <trkpt lat="36.4895920" lon="-6.1605810">
        <ele>2.8</ele>
        <time>2023-01-28T07:39:44Z</time>
      </trkpt>
      <trkpt lat="36.4896430" lon="-6.1605380">
        <ele>2.8</ele>
        <time>2023-01-28T07:39:45Z</time>
      </trkpt>
      <trkpt lat="36.4896650" lon="-6.1604910">
        <ele>2.6</ele>
        <time>2023-01-28T07:39:46Z</time>
      </trkpt>
      <trkpt lat="36.4896790" lon="-6.1604560">
        <ele>2.6</ele>
        <time>2023-01-28T07:39:47Z</time>
      </trkpt>
      <trkpt lat="36.4896990" lon="-6.1604000">
        <ele>2.6</ele>
        <time>2023-01-28T07:39:48Z</time>
      </trkpt>
      <trkpt lat="36.4897290" lon="-6.1603860">
        <ele>2.6</ele>
        <time>2023-01-28T07:39:49Z</time>
      </trkpt>
      <trkpt lat="36.4897560" lon="-6.1603460">
        <ele>2.6</ele>
        <time>2023-01-28T07:39:50Z</time>
      </trkpt>
      <trkpt lat="36.4897800" lon="-6.1603020">
        <ele>2.6</ele>
        <time>2023-01-28T07:39:51Z</time>
      </trkpt>
      <trkpt lat="36.4898140" lon="-6.1602700">
        <ele>2.6</ele>
        <time>2023-01-28T07:39:52Z</time>
      </trkpt>
      <trkpt lat="36.4898370" lon="-6.1602200">
        <ele>2.6</ele>
        <time>2023-01-28T07:39:53Z</time>
      </trkpt>
      <trkpt lat="36.4898460" lon="-6.1601680">
        <ele>2.8</ele>
        <time>2023-01-28T07:39:54Z</time>
      </trkpt>
      <trkpt lat="36.4898730" lon="-6.1601190">
        <ele>2.8</ele>
        <time>2023-01-28T07:39:55Z</time>
      </trkpt>
      <trkpt lat="36.4898960" lon="-6.1600780">
        <ele>2.8</ele>
        <time>2023-01-28T07:39:56Z</time>
      </trkpt>
      <trkpt lat="36.4899140" lon="-6.1600210">
        <ele>2.6</ele>
        <time>2023-01-28T07:39:57Z</time>
      </trkpt>
      <trkpt lat="36.4899500" lon="-6.1599970">
        <ele>2.6</ele>
        <time>2023-01-28T07:39:58Z</time>
      </trkpt>
      <trkpt lat="36.4899800" lon="-6.1599470">
        <ele>2.6</ele>
        <time>2023-01-28T07:39:59Z</time>
      </trkpt>
      <trkpt lat="36.4900020" lon="-6.1598890">
        <ele>2.6</ele>
        <time>2023-01-28T07:40:00Z</time>
      </trkpt>
      <trkpt lat="36.4900280" lon="-6.1598320">
        <ele>2.6</ele>
        <time>2023-01-28T07:40:01Z</time>
      </trkpt>
      <trkpt lat="36.4900450" lon="-6.1597950">
        <ele>2.6</ele>
        <time>2023-01-28T07:40:02Z</time>
      </trkpt>
      <trkpt lat="36.4900690" lon="-6.1597670">
        <ele>2.4</ele>
        <time>2023-01-28T07:40:03Z</time>
      </trkpt>
      <trkpt lat="36.4900830" lon="-6.1597140">
        <ele>2.4</ele>
        <time>2023-01-28T07:40:04Z</time>
      </trkpt>
      <trkpt lat="36.4900970" lon="-6.1596740">
        <ele>2.4</ele>
        <time>2023-01-28T07:40:05Z</time>
      </trkpt>
      <trkpt lat="36.4901110" lon="-6.1596220">
        <ele>2.2</ele>
        <time>2023-01-28T07:40:06Z</time>
      </trkpt>
      <trkpt lat="36.4901180" lon="-6.1595670">
        <ele>2.2</ele>
        <time>2023-01-28T07:40:07Z</time>
      </trkpt>
      <trkpt lat="36.4901310" lon="-6.1595190">
        <ele>2.0</ele>
        <time>2023-01-28T07:40:08Z</time>
      </trkpt>
      <trkpt lat="36.4901490" lon="-6.1594740">
        <ele>2.0</ele>
        <time>2023-01-28T07:40:09Z</time>
      </trkpt>
      <trkpt lat="36.4901800" lon="-6.1594260">
        <ele>2.0</ele>
        <time>2023-01-28T07:40:10Z</time>
      </trkpt>
      <trkpt lat="36.4902020" lon="-6.1593910">
        <ele>1.8</ele>
        <time>2023-01-28T07:40:11Z</time>
      </trkpt>
      <trkpt lat="36.4902190" lon="-6.1593330">
        <ele>1.8</ele>
        <time>2023-01-28T07:40:12Z</time>
      </trkpt>
      <trkpt lat="36.4902550" lon="-6.1592830">
        <ele>1.8</ele>
        <time>2023-01-28T07:40:13Z</time>
      </trkpt>
      <trkpt lat="36.4902740" lon="-6.1592310">
        <ele>1.8</ele>
        <time>2023-01-28T07:40:14Z</time>
      </trkpt>
      <trkpt lat="36.4902920" lon="-6.1591840">
        <ele>2.0</ele>
        <time>2023-01-28T07:40:15Z</time>
      </trkpt>
      <trkpt lat="36.4903140" lon="-6.1591250">
        <ele>2.0</ele>
        <time>2023-01-28T07:40:16Z</time>
      </trkpt>
      <trkpt lat="36.4903470" lon="-6.1590850">
        <ele>2.2</ele>
        <time>2023-01-28T07:40:17Z</time>
      </trkpt>
      <trkpt lat="36.4903580" lon="-6.1590250">
        <ele>2.2</ele>
        <time>2023-01-28T07:40:18Z</time>
      </trkpt>
      <trkpt lat="36.4903870" lon="-6.1589660">
        <ele>2.4</ele>
        <time>2023-01-28T07:40:19Z</time>
      </trkpt>
      <trkpt lat="36.4904250" lon="-6.1589310">
        <ele>2.6</ele>
        <time>2023-01-28T07:40:20Z</time>
      </trkpt>
      <trkpt lat="36.4904340" lon="-6.1589030">
        <ele>2.6</ele>
        <time>2023-01-28T07:40:21Z</time>
      </trkpt>
      <trkpt lat="36.4904490" lon="-6.1588390">
        <ele>2.4</ele>
        <time>2023-01-28T07:40:22Z</time>
      </trkpt>
      <trkpt lat="36.4904820" lon="-6.1588040">
        <ele>2.4</ele>
        <time>2023-01-28T07:40:23Z</time>
      </trkpt>
      <trkpt lat="36.4905020" lon="-6.1587710">
        <ele>2.4</ele>
        <time>2023-01-28T07:40:24Z</time>
      </trkpt>
      <trkpt lat="36.4905130" lon="-6.1587220">
        <ele>2.4</ele>
        <time>2023-01-28T07:40:25Z</time>
      </trkpt>
      <trkpt lat="36.4905250" lon="-6.1586830">
        <ele>2.4</ele>
        <time>2023-01-28T07:40:26Z</time>
      </trkpt>
      <trkpt lat="36.4905380" lon="-6.1586400">
        <ele>2.4</ele>
        <time>2023-01-28T07:40:27Z</time>
      </trkpt>
      <trkpt lat="36.4905450" lon="-6.1585910">
        <ele>2.2</ele>
        <time>2023-01-28T07:40:28Z</time>
      </trkpt>
      <trkpt lat="36.4905630" lon="-6.1585500">
        <ele>2.2</ele>
        <time>2023-01-28T07:40:29Z</time>
      </trkpt>
      <trkpt lat="36.4905850" lon="-6.1585010">
        <ele>2.0</ele>
        <time>2023-01-28T07:40:30Z</time>
      </trkpt>
      <trkpt lat="36.4906000" lon="-6.1584570">
        <ele>2.0</ele>
        <time>2023-01-28T07:40:31Z</time>
      </trkpt>
      <trkpt lat="36.4906250" lon="-6.1584240">
        <ele>2.0</ele>
        <time>2023-01-28T07:40:32Z</time>
      </trkpt>
      <trkpt lat="36.4906480" lon="-6.1583740">
        <ele>2.0</ele>
        <time>2023-01-28T07:40:33Z</time>
      </trkpt>
      <trkpt lat="36.4906840" lon="-6.1583110">
        <ele>1.8</ele>
        <time>2023-01-28T07:40:34Z</time>
      </trkpt>
      <trkpt lat="36.4907050" lon="-6.1582720">
        <ele>1.8</ele>
        <time>2023-01-28T07:40:35Z</time>
      </trkpt>
      <trkpt lat="36.4907240" lon="-6.1582400">
        <ele>1.8</ele>
        <time>2023-01-28T07:40:36Z</time>
      </trkpt>
      <trkpt lat="36.4907570" lon="-6.1582030">
        <ele>2.0</ele>
        <time>2023-01-28T07:40:37Z</time>
      </trkpt>
      <trkpt lat="36.4907600" lon="-6.1581390">
        <ele>1.8</ele>
        <time>2023-01-28T07:40:38Z</time>
      </trkpt>
      <trkpt lat="36.4907860" lon="-6.1580860">
        <ele>1.8</ele>
        <time>2023-01-28T07:40:39Z</time>
      </trkpt>
      <trkpt lat="36.4908040" lon="-6.1580530">
        <ele>2.0</ele>
        <time>2023-01-28T07:40:40Z</time>
      </trkpt>
      <trkpt lat="36.4908110" lon="-6.1580000">
        <ele>2.0</ele>
        <time>2023-01-28T07:40:41Z</time>
      </trkpt>
      <trkpt lat="36.4908250" lon="-6.1579450">
        <ele>2.2</ele>
        <time>2023-01-28T07:40:42Z</time>
      </trkpt>
      <trkpt lat="36.4908360" lon="-6.1579090">
        <ele>2.0</ele>
        <time>2023-01-28T07:40:43Z</time>
      </trkpt>
      <trkpt lat="36.4908520" lon="-6.1578560">
        <ele>2.0</ele>
        <time>2023-01-28T07:40:44Z</time>
      </trkpt>
      <trkpt lat="36.4908700" lon="-6.1578040">
        <ele>2.0</ele>
        <time>2023-01-28T07:40:45Z</time>
      </trkpt>
      <trkpt lat="36.4908800" lon="-6.1577750">
        <ele>2.0</ele>
        <time>2023-01-28T07:40:46Z</time>
      </trkpt>
      <trkpt lat="36.4909250" lon="-6.1577410">
        <ele>2.0</ele>
        <time>2023-01-28T07:40:47Z</time>
      </trkpt>
      <trkpt lat="36.4909510" lon="-6.1577060">
        <ele>2.0</ele>
        <time>2023-01-28T07:40:48Z</time>
      </trkpt>
      <trkpt lat="36.4909680" lon="-6.1576850">
        <ele>2.0</ele>
        <time>2023-01-28T07:40:49Z</time>
      </trkpt>
      <trkpt lat="36.4909990" lon="-6.1576650">
        <ele>2.4</ele>
        <time>2023-01-28T07:40:50Z</time>
      </trkpt>
      <trkpt lat="36.4910310" lon="-6.1576100">
        <ele>2.2</ele>
        <time>2023-01-28T07:40:51Z</time>
      </trkpt>
      <trkpt lat="36.4910460" lon="-6.1575620">
        <ele>2.2</ele>
        <time>2023-01-28T07:40:52Z</time>
      </trkpt>
      <trkpt lat="36.4910540" lon="-6.1574990">
        <ele>2.2</ele>
        <time>2023-01-28T07:40:53Z</time>
      </trkpt>
      <trkpt lat="36.4910810" lon="-6.1574390">
        <ele>2.2</ele>
        <time>2023-01-28T07:40:54Z</time>
      </trkpt>
      <trkpt lat="36.4911080" lon="-6.1573980">
        <ele>2.4</ele>
        <time>2023-01-28T07:40:55Z</time>
      </trkpt>
      <trkpt lat="36.4911320" lon="-6.1573460">
        <ele>2.2</ele>
        <time>2023-01-28T07:40:56Z</time>
      </trkpt>
      <trkpt lat="36.4911600" lon="-6.1573060">
        <ele>2.2</ele>
        <time>2023-01-28T07:40:57Z</time>
      </trkpt>
      <trkpt lat="36.4911840" lon="-6.1572590">
        <ele>2.2</ele>
        <time>2023-01-28T07:40:58Z</time>
      </trkpt>
      <trkpt lat="36.4912070" lon="-6.1572080">
        <ele>2.2</ele>
        <time>2023-01-28T07:40:59Z</time>
      </trkpt>
      <trkpt lat="36.4912280" lon="-6.1571750">
        <ele>2.0</ele>
        <time>2023-01-28T07:41:00Z</time>
      </trkpt>
      <trkpt lat="36.4912380" lon="-6.1571150">
        <ele>2.2</ele>
        <time>2023-01-28T07:41:01Z</time>
      </trkpt>
      <trkpt lat="36.4912590" lon="-6.1570780">
        <ele>2.2</ele>
        <time>2023-01-28T07:41:02Z</time>
      </trkpt>
      <trkpt lat="36.4912710" lon="-6.1570320">
        <ele>2.0</ele>
        <time>2023-01-28T07:41:03Z</time>
      </trkpt>
      <trkpt lat="36.4913000" lon="-6.1569810">
        <ele>2.0</ele>
        <time>2023-01-28T07:41:04Z</time>
      </trkpt>
      <trkpt lat="36.4913450" lon="-6.1569480">
        <ele>2.2</ele>
        <time>2023-01-28T07:41:05Z</time>
      </trkpt>
      <trkpt lat="36.4913750" lon="-6.1569210">
        <ele>2.2</ele>
        <time>2023-01-28T07:41:06Z</time>
      </trkpt>
      <trkpt lat="36.4914140" lon="-6.1568670">
        <ele>2.0</ele>
        <time>2023-01-28T07:41:07Z</time>
      </trkpt>
      <trkpt lat="36.4914360" lon="-6.1568340">
        <ele>2.0</ele>
        <time>2023-01-28T07:41:08Z</time>
      </trkpt>
      <trkpt lat="36.4914570" lon="-6.1567940">
        <ele>1.8</ele>
        <time>2023-01-28T07:41:09Z</time>
      </trkpt>
      <trkpt lat="36.4914700" lon="-6.1567520">
        <ele>1.8</ele>
        <time>2023-01-28T07:41:10Z</time>
      </trkpt>
      <trkpt lat="36.4914750" lon="-6.1566970">
        <ele>2.0</ele>
        <time>2023-01-28T07:41:11Z</time>
      </trkpt>
      <trkpt lat="36.4914930" lon="-6.1566580">
        <ele>2.0</ele>
        <time>2023-01-28T07:41:12Z</time>
      </trkpt>
      <trkpt lat="36.4914970" lon="-6.1566030">
        <ele>2.0</ele>
        <time>2023-01-28T07:41:13Z</time>
      </trkpt>
      <trkpt lat="36.4915080" lon="-6.1565610">
        <ele>2.0</ele>
        <time>2023-01-28T07:41:14Z</time>
      </trkpt>
      <trkpt lat="36.4915430" lon="-6.1565170">
        <ele>2.0</ele>
        <time>2023-01-28T07:41:15Z</time>
      </trkpt>
      <trkpt lat="36.4915680" lon="-6.1564520">
        <ele>2.0</ele>
        <time>2023-01-28T07:41:16Z</time>
      </trkpt>
      <trkpt lat="36.4915830" lon="-6.1564060">
        <ele>2.0</ele>
        <time>2023-01-28T07:41:17Z</time>
      </trkpt>
      <trkpt lat="36.4916130" lon="-6.1563670">
        <ele>2.0</ele>
        <time>2023-01-28T07:41:18Z</time>
      </trkpt>
      <trkpt lat="36.4916280" lon="-6.1563260">
        <ele>2.0</ele>
        <time>2023-01-28T07:41:19Z</time>
      </trkpt>
      <trkpt lat="36.4916430" lon="-6.1562780">
        <ele>2.0</ele>
        <time>2023-01-28T07:41:20Z</time>
      </trkpt>
      <trkpt lat="36.4916440" lon="-6.1562370">
        <ele>2.0</ele>
        <time>2023-01-28T07:41:21Z</time>
      </trkpt>
      <trkpt lat="36.4916550" lon="-6.1561900">
        <ele>2.0</ele>
        <time>2023-01-28T07:41:22Z</time>
      </trkpt>
      <trkpt lat="36.4916730" lon="-6.1561380">
        <ele>2.0</ele>
        <time>2023-01-28T07:41:23Z</time>
      </trkpt>
      <trkpt lat="36.4916980" lon="-6.1560860">
        <ele>2.2</ele>
        <time>2023-01-28T07:41:24Z</time>
      </trkpt>
      <trkpt lat="36.4917170" lon="-6.1560440">
        <ele>2.4</ele>
        <time>2023-01-28T07:41:25Z</time>
      </trkpt>
      <trkpt lat="36.4917330" lon="-6.1559820">
        <ele>2.2</ele>
        <time>2023-01-28T07:41:26Z</time>
      </trkpt>
      <trkpt lat="36.4917550" lon="-6.1559520">
        <ele>2.2</ele>
        <time>2023-01-28T07:41:27Z</time>
      </trkpt>
      <trkpt lat="36.4917900" lon="-6.1559080">
        <ele>2.2</ele>
        <time>2023-01-28T07:41:28Z</time>
      </trkpt>
      <trkpt lat="36.4918030" lon="-6.1558700">
        <ele>2.0</ele>
        <time>2023-01-28T07:41:29Z</time>
      </trkpt>
      <trkpt lat="36.4918220" lon="-6.1558030">
        <ele>2.0</ele>
        <time>2023-01-28T07:41:30Z</time>
      </trkpt>
      <trkpt lat="36.4918300" lon="-6.1557600">
        <ele>2.0</ele>
        <time>2023-01-28T07:41:31Z</time>
      </trkpt>
      <trkpt lat="36.4918600" lon="-6.1557190">
        <ele>2.0</ele>
        <time>2023-01-28T07:41:32Z</time>
      </trkpt>
      <trkpt lat="36.4918750" lon="-6.1556840">
        <ele>2.0</ele>
        <time>2023-01-28T07:41:33Z</time>
      </trkpt>
      <trkpt lat="36.4918990" lon="-6.1556460">
        <ele>2.0</ele>
        <time>2023-01-28T07:41:34Z</time>
      </trkpt>
      <trkpt lat="36.4919030" lon="-6.1555900">
        <ele>2.2</ele>
        <time>2023-01-28T07:41:35Z</time>
      </trkpt>
      <trkpt lat="36.4919330" lon="-6.1555520">
        <ele>2.2</ele>
        <time>2023-01-28T07:41:36Z</time>
      </trkpt>
      <trkpt lat="36.4919510" lon="-6.1555160">
        <ele>2.2</ele>
        <time>2023-01-28T07:41:37Z</time>
      </trkpt>
      <trkpt lat="36.4919670" lon="-6.1554700">
        <ele>2.2</ele>
        <time>2023-01-28T07:41:38Z</time>
      </trkpt>
      <trkpt lat="36.4919940" lon="-6.1554250">
        <ele>2.2</ele>
        <time>2023-01-28T07:41:39Z</time>
      </trkpt>
      <trkpt lat="36.4920120" lon="-6.1553740">
        <ele>2.2</ele>
        <time>2023-01-28T07:41:40Z</time>
      </trkpt>
      <trkpt lat="36.4920280" lon="-6.1553280">
        <ele>2.2</ele>
        <time>2023-01-28T07:41:41Z</time>
      </trkpt>
      <trkpt lat="36.4920570" lon="-6.1552960">
        <ele>2.2</ele>
        <time>2023-01-28T07:41:42Z</time>
      </trkpt>
      <trkpt lat="36.4920900" lon="-6.1552530">
        <ele>2.2</ele>
        <time>2023-01-28T07:41:43Z</time>
      </trkpt>
      <trkpt lat="36.4921270" lon="-6.1551930">
        <ele>2.4</ele>
        <time>2023-01-28T07:41:44Z</time>
      </trkpt>
      <trkpt lat="36.4921490" lon="-6.1551510">
        <ele>2.4</ele>
        <time>2023-01-28T07:41:45Z</time>
      </trkpt>
      <trkpt lat="36.4921760" lon="-6.1551120">
        <ele>2.4</ele>
        <time>2023-01-28T07:41:46Z</time>
      </trkpt>
      <trkpt lat="36.4922010" lon="-6.1550630">
        <ele>2.4</ele>
        <time>2023-01-28T07:41:47Z</time>
      </trkpt>
      <trkpt lat="36.4922260" lon="-6.1550380">
        <ele>2.2</ele>
        <time>2023-01-28T07:41:48Z</time>
      </trkpt>
      <trkpt lat="36.4922360" lon="-6.1549910">
        <ele>2.2</ele>
        <time>2023-01-28T07:41:49Z</time>
      </trkpt>
      <trkpt lat="36.4922690" lon="-6.1549650">
        <ele>2.2</ele>
        <time>2023-01-28T07:41:50Z</time>
      </trkpt>
      <trkpt lat="36.4922920" lon="-6.1549090">
        <ele>2.0</ele>
        <time>2023-01-28T07:41:51Z</time>
      </trkpt>
      <trkpt lat="36.4923230" lon="-6.1548330">
        <ele>2.0</ele>
        <time>2023-01-28T07:41:52Z</time>
      </trkpt>
      <trkpt lat="36.4923370" lon="-6.1548010">
        <ele>2.0</ele>
        <time>2023-01-28T07:41:53Z</time>
      </trkpt>
      <trkpt lat="36.4923690" lon="-6.1547540">
        <ele>2.2</ele>
        <time>2023-01-28T07:41:54Z</time>
      </trkpt>
      <trkpt lat="36.4923890" lon="-6.1546980">
        <ele>2.4</ele>
        <time>2023-01-28T07:41:55Z</time>
      </trkpt>
      <trkpt lat="36.4924080" lon="-6.1546420">
        <ele>2.2</ele>
        <time>2023-01-28T07:41:56Z</time>
      </trkpt>
      <trkpt lat="36.4924330" lon="-6.1545990">
        <ele>2.0</ele>
        <time>2023-01-28T07:41:57Z</time>
      </trkpt>
      <trkpt lat="36.4924630" lon="-6.1545570">
        <ele>2.0</ele>
        <time>2023-01-28T07:41:58Z</time>
      </trkpt>
      <trkpt lat="36.4924890" lon="-6.1545070">
        <ele>2.0</ele>
        <time>2023-01-28T07:41:59Z</time>
      </trkpt>
      <trkpt lat="36.4925150" lon="-6.1544580">
        <ele>2.2</ele>
        <time>2023-01-28T07:42:00Z</time>
      </trkpt>
      <trkpt lat="36.4925280" lon="-6.1544030">
        <ele>2.2</ele>
        <time>2023-01-28T07:42:01Z</time>
      </trkpt>
      <trkpt lat="36.4925510" lon="-6.1543580">
        <ele>2.2</ele>
        <time>2023-01-28T07:42:02Z</time>
      </trkpt>
      <trkpt lat="36.4925770" lon="-6.1543140">
        <ele>2.0</ele>
        <time>2023-01-28T07:42:03Z</time>
      </trkpt>
      <trkpt lat="36.4925920" lon="-6.1542930">
        <ele>2.0</ele>
        <time>2023-01-28T07:42:04Z</time>
      </trkpt>
      <trkpt lat="36.4926050" lon="-6.1542550">
        <ele>2.2</ele>
        <time>2023-01-28T07:42:05Z</time>
      </trkpt>
      <trkpt lat="36.4926160" lon="-6.1541870">
        <ele>2.2</ele>
        <time>2023-01-28T07:42:06Z</time>
      </trkpt>
      <trkpt lat="36.4926380" lon="-6.1541440">
        <ele>2.4</ele>
        <time>2023-01-28T07:42:07Z</time>
      </trkpt>
      <trkpt lat="36.4926570" lon="-6.1541030">
        <ele>2.2</ele>
        <time>2023-01-28T07:42:08Z</time>
      </trkpt>
      <trkpt lat="36.4926790" lon="-6.1540440">
        <ele>2.0</ele>
        <time>2023-01-28T07:42:09Z</time>
      </trkpt>
      <trkpt lat="36.4926900" lon="-6.1539860">
        <ele>2.2</ele>
        <time>2023-01-28T07:42:10Z</time>
      </trkpt>
      <trkpt lat="36.4926980" lon="-6.1539260">
        <ele>2.2</ele>
        <time>2023-01-28T07:42:11Z</time>
      </trkpt>
      <trkpt lat="36.4927000" lon="-6.1538640">
        <ele>2.0</ele>
        <time>2023-01-28T07:42:12Z</time>
      </trkpt>
      <trkpt lat="36.4927190" lon="-6.1538210">
        <ele>2.0</ele>
        <time>2023-01-28T07:42:13Z</time>
      </trkpt>
      <trkpt lat="36.4927440" lon="-6.1537690">
        <ele>2.0</ele>
        <time>2023-01-28T07:42:14Z</time>
      </trkpt>
      <trkpt lat="36.4927760" lon="-6.1537310">
        <ele>2.0</ele>
        <time>2023-01-28T07:42:15Z</time>
      </trkpt>
      <trkpt lat="36.4927990" lon="-6.1536740">
        <ele>2.0</ele>
        <time>2023-01-28T07:42:16Z</time>
      </trkpt>
      <trkpt lat="36.4928210" lon="-6.1536300">
        <ele>2.0</ele>
        <time>2023-01-28T07:42:17Z</time>
      </trkpt>
      <trkpt lat="36.4928530" lon="-6.1535770">
        <ele>2.0</ele>
        <time>2023-01-28T07:42:18Z</time>
      </trkpt>
      <trkpt lat="36.4928700" lon="-6.1535440">
        <ele>2.0</ele>
        <time>2023-01-28T07:42:19Z</time>
      </trkpt>
      <trkpt lat="36.4928990" lon="-6.1534930">
        <ele>2.2</ele>
        <time>2023-01-28T07:42:20Z</time>
      </trkpt>
      <trkpt lat="36.4929120" lon="-6.1534390">
        <ele>2.2</ele>
        <time>2023-01-28T07:42:21Z</time>
      </trkpt>
      <trkpt lat="36.4929290" lon="-6.1533980">
        <ele>2.2</ele>
        <time>2023-01-28T07:42:22Z</time>
      </trkpt>
      <trkpt lat="36.4929640" lon="-6.1533480">
        <ele>2.2</ele>
        <time>2023-01-28T07:42:23Z</time>
      </trkpt>
      <trkpt lat="36.4930000" lon="-6.1533120">
        <ele>2.4</ele>
        <time>2023-01-28T07:42:24Z</time>
      </trkpt>
      <trkpt lat="36.4930140" lon="-6.1532530">
        <ele>2.2</ele>
        <time>2023-01-28T07:42:25Z</time>
      </trkpt>
      <trkpt lat="36.4930390" lon="-6.1532050">
        <ele>2.0</ele>
        <time>2023-01-28T07:42:26Z</time>
      </trkpt>
      <trkpt lat="36.4930750" lon="-6.1531690">
        <ele>2.0</ele>
        <time>2023-01-28T07:42:27Z</time>
      </trkpt>
      <trkpt lat="36.4931070" lon="-6.1531210">
        <ele>2.2</ele>
        <time>2023-01-28T07:42:28Z</time>
      </trkpt>
      <trkpt lat="36.4931390" lon="-6.1530760">
        <ele>2.0</ele>
        <time>2023-01-28T07:42:29Z</time>
      </trkpt>
      <trkpt lat="36.4931540" lon="-6.1530330">
        <ele>2.0</ele>
        <time>2023-01-28T07:42:30Z</time>
      </trkpt>
      <trkpt lat="36.4931660" lon="-6.1529960">
        <ele>2.2</ele>
        <time>2023-01-28T07:42:31Z</time>
      </trkpt>
      <trkpt lat="36.4931860" lon="-6.1529230">
        <ele>2.2</ele>
        <time>2023-01-28T07:42:32Z</time>
      </trkpt>
      <trkpt lat="36.4932120" lon="-6.1528650">
        <ele>2.0</ele>
        <time>2023-01-28T07:42:33Z</time>
      </trkpt>
      <trkpt lat="36.4932310" lon="-6.1528240">
        <ele>2.0</ele>
        <time>2023-01-28T07:42:34Z</time>
      </trkpt>
      <trkpt lat="36.4932350" lon="-6.1527890">
        <ele>2.2</ele>
        <time>2023-01-28T07:42:35Z</time>
      </trkpt>
      <trkpt lat="36.4932350" lon="-6.1527460">
        <ele>2.2</ele>
        <time>2023-01-28T07:42:36Z</time>
      </trkpt>
      <trkpt lat="36.4932650" lon="-6.1527050">
        <ele>2.2</ele>
        <time>2023-01-28T07:42:37Z</time>
      </trkpt>
      <trkpt lat="36.4933110" lon="-6.1526630">
        <ele>2.0</ele>
        <time>2023-01-28T07:42:38Z</time>
      </trkpt>
      <trkpt lat="36.4933060" lon="-6.1526300">
        <ele>2.0</ele>
        <time>2023-01-28T07:42:39Z</time>
      </trkpt>
      <trkpt lat="36.4933340" lon="-6.1525880">
        <ele>2.0</ele>
        <time>2023-01-28T07:42:40Z</time>
      </trkpt>
      <trkpt lat="36.4933420" lon="-6.1525450">
        <ele>2.0</ele>
        <time>2023-01-28T07:42:41Z</time>
      </trkpt>
      <trkpt lat="36.4933370" lon="-6.1524820">
        <ele>2.0</ele>
        <time>2023-01-28T07:42:42Z</time>
      </trkpt>
      <trkpt lat="36.4933640" lon="-6.1524350">
        <ele>2.0</ele>
        <time>2023-01-28T07:42:43Z</time>
      </trkpt>
      <trkpt lat="36.4933730" lon="-6.1523990">
        <ele>2.2</ele>
        <time>2023-01-28T07:42:44Z</time>
      </trkpt>
      <trkpt lat="36.4933930" lon="-6.1523670">
        <ele>2.2</ele>
        <time>2023-01-28T07:42:45Z</time>
      </trkpt>
      <trkpt lat="36.4934280" lon="-6.1523170">
        <ele>2.2</ele>
        <time>2023-01-28T07:42:46Z</time>
      </trkpt>
      <trkpt lat="36.4934720" lon="-6.1522710">
        <ele>2.0</ele>
        <time>2023-01-28T07:42:47Z</time>
      </trkpt>
      <trkpt lat="36.4934910" lon="-6.1522370">
        <ele>2.0</ele>
        <time>2023-01-28T07:42:48Z</time>
      </trkpt>
      <trkpt lat="36.4935150" lon="-6.1521950">
        <ele>2.0</ele>
        <time>2023-01-28T07:42:49Z</time>
      </trkpt>
      <trkpt lat="36.4935310" lon="-6.1521440">
        <ele>2.0</ele>
        <time>2023-01-28T07:42:50Z</time>
      </trkpt>
      <trkpt lat="36.4935450" lon="-6.1521130">
        <ele>2.0</ele>
        <time>2023-01-28T07:42:51Z</time>
      </trkpt>
      <trkpt lat="36.4935770" lon="-6.1520670">
        <ele>2.0</ele>
        <time>2023-01-28T07:42:52Z</time>
      </trkpt>
      <trkpt lat="36.4935890" lon="-6.1520220">
        <ele>2.0</ele>
        <time>2023-01-28T07:42:53Z</time>
      </trkpt>
      <trkpt lat="36.4936040" lon="-6.1519480">
        <ele>2.0</ele>
        <time>2023-01-28T07:42:54Z</time>
      </trkpt>
      <trkpt lat="36.4936440" lon="-6.1519000">
        <ele>2.0</ele>
        <time>2023-01-28T07:42:55Z</time>
      </trkpt>
      <trkpt lat="36.4936550" lon="-6.1518450">
        <ele>2.0</ele>
        <time>2023-01-28T07:42:56Z</time>
      </trkpt>
      <trkpt lat="36.4936840" lon="-6.1518200">
        <ele>2.2</ele>
        <time>2023-01-28T07:42:57Z</time>
      </trkpt>
      <trkpt lat="36.4937100" lon="-6.1517750">
        <ele>2.0</ele>
        <time>2023-01-28T07:42:58Z</time>
      </trkpt>
      <trkpt lat="36.4937220" lon="-6.1517240">
        <ele>2.0</ele>
        <time>2023-01-28T07:42:59Z</time>
      </trkpt>
      <trkpt lat="36.4937410" lon="-6.1516740">
        <ele>2.0</ele>
        <time>2023-01-28T07:43:00Z</time>
      </trkpt>
      <trkpt lat="36.4937660" lon="-6.1516400">
        <ele>2.0</ele>
        <time>2023-01-28T07:43:01Z</time>
      </trkpt>
      <trkpt lat="36.4937780" lon="-6.1515960">
        <ele>2.0</ele>
        <time>2023-01-28T07:43:02Z</time>
      </trkpt>
      <trkpt lat="36.4938030" lon="-6.1515510">
        <ele>2.2</ele>
        <time>2023-01-28T07:43:03Z</time>
      </trkpt>
      <trkpt lat="36.4938170" lon="-6.1515130">
        <ele>2.2</ele>
        <time>2023-01-28T07:43:04Z</time>
      </trkpt>
      <trkpt lat="36.4938460" lon="-6.1514920">
        <ele>2.0</ele>
        <time>2023-01-28T07:43:05Z</time>
      </trkpt>
      <trkpt lat="36.4938690" lon="-6.1514330">
        <ele>2.0</ele>
        <time>2023-01-28T07:43:06Z</time>
      </trkpt>
      <trkpt lat="36.4939030" lon="-6.1513880">
        <ele>2.0</ele>
        <time>2023-01-28T07:43:07Z</time>
      </trkpt>
      <trkpt lat="36.4939070" lon="-6.1513450">
        <ele>2.0</ele>
        <time>2023-01-28T07:43:08Z</time>
      </trkpt>
      <trkpt lat="36.4939250" lon="-6.1513010">
        <ele>2.0</ele>
        <time>2023-01-28T07:43:09Z</time>
      </trkpt>
      <trkpt lat="36.4939350" lon="-6.1512540">
        <ele>2.0</ele>
        <time>2023-01-28T07:43:10Z</time>
      </trkpt>
      <trkpt lat="36.4939600" lon="-6.1512170">
        <ele>2.2</ele>
        <time>2023-01-28T07:43:11Z</time>
      </trkpt>
      <trkpt lat="36.4939840" lon="-6.1511690">
        <ele>2.2</ele>
        <time>2023-01-28T07:43:12Z</time>
      </trkpt>
      <trkpt lat="36.4940170" lon="-6.1511230">
        <ele>2.0</ele>
        <time>2023-01-28T07:43:13Z</time>
      </trkpt>
      <trkpt lat="36.4940180" lon="-6.1510840">
        <ele>2.0</ele>
        <time>2023-01-28T07:43:14Z</time>
      </trkpt>
      <trkpt lat="36.4940300" lon="-6.1510420">
        <ele>2.0</ele>
        <time>2023-01-28T07:43:15Z</time>
      </trkpt>
      <trkpt lat="36.4940550" lon="-6.1509970">
        <ele>2.0</ele>
        <time>2023-01-28T07:43:16Z</time>
      </trkpt>
      <trkpt lat="36.4940760" lon="-6.1509620">
        <ele>2.2</ele>
        <time>2023-01-28T07:43:17Z</time>
      </trkpt>
      <trkpt lat="36.4940970" lon="-6.1509140">
        <ele>2.2</ele>
        <time>2023-01-28T07:43:18Z</time>
      </trkpt>
      <trkpt lat="36.4941210" lon="-6.1508800">
        <ele>2.2</ele>
        <time>2023-01-28T07:43:19Z</time>
      </trkpt>
      <trkpt lat="36.4941350" lon="-6.1508320">
        <ele>2.2</ele>
        <time>2023-01-28T07:43:20Z</time>
      </trkpt>
      <trkpt lat="36.4941580" lon="-6.1508000">
        <ele>2.2</ele>
        <time>2023-01-28T07:43:21Z</time>
      </trkpt>
      <trkpt lat="36.4941840" lon="-6.1507510">
        <ele>2.2</ele>
        <time>2023-01-28T07:43:22Z</time>
      </trkpt>
      <trkpt lat="36.4941940" lon="-6.1507060">
        <ele>2.2</ele>
        <time>2023-01-28T07:43:23Z</time>
      </trkpt>
      <trkpt lat="36.4942120" lon="-6.1506470">
        <ele>2.4</ele>
        <time>2023-01-28T07:43:24Z</time>
      </trkpt>
      <trkpt lat="36.4942430" lon="-6.1506030">
        <ele>2.4</ele>
        <time>2023-01-28T07:43:25Z</time>
      </trkpt>
      <trkpt lat="36.4942650" lon="-6.1505470">
        <ele>2.4</ele>
        <time>2023-01-28T07:43:26Z</time>
      </trkpt>
      <trkpt lat="36.4942860" lon="-6.1505080">
        <ele>2.4</ele>
        <time>2023-01-28T07:43:27Z</time>
      </trkpt>
      <trkpt lat="36.4942950" lon="-6.1504720">
        <ele>2.4</ele>
        <time>2023-01-28T07:43:28Z</time>
      </trkpt>
      <trkpt lat="36.4943130" lon="-6.1504160">
        <ele>2.4</ele>
        <time>2023-01-28T07:43:29Z</time>
      </trkpt>
      <trkpt lat="36.4943430" lon="-6.1503640">
        <ele>2.4</ele>
        <time>2023-01-28T07:43:30Z</time>
      </trkpt>
      <trkpt lat="36.4943890" lon="-6.1503190">
        <ele>2.4</ele>
        <time>2023-01-28T07:43:31Z</time>
      </trkpt>
      <trkpt lat="36.4944110" lon="-6.1502570">
        <ele>2.2</ele>
        <time>2023-01-28T07:43:32Z</time>
      </trkpt>
      <trkpt lat="36.4944490" lon="-6.1502160">
        <ele>2.4</ele>
        <time>2023-01-28T07:43:33Z</time>
      </trkpt>
      <trkpt lat="36.4944420" lon="-6.1501510">
        <ele>2.4</ele>
        <time>2023-01-28T07:43:34Z</time>
      </trkpt>
      <trkpt lat="36.4944710" lon="-6.1501130">
        <ele>2.8</ele>
        <time>2023-01-28T07:43:35Z</time>
      </trkpt>
      <trkpt lat="36.4944830" lon="-6.1500760">
        <ele>2.8</ele>
        <time>2023-01-28T07:43:36Z</time>
      </trkpt>
      <trkpt lat="36.4944990" lon="-6.1500250">
        <ele>2.6</ele>
        <time>2023-01-28T07:43:37Z</time>
      </trkpt>
      <trkpt lat="36.4945150" lon="-6.1499760">
        <ele>2.6</ele>
        <time>2023-01-28T07:43:38Z</time>
      </trkpt>
      <trkpt lat="36.4945410" lon="-6.1499210">
        <ele>2.8</ele>
        <time>2023-01-28T07:43:39Z</time>
      </trkpt>
      <trkpt lat="36.4945540" lon="-6.1498530">
        <ele>3.0</ele>
        <time>2023-01-28T07:43:40Z</time>
      </trkpt>
      <trkpt lat="36.4945860" lon="-6.1498270">
        <ele>2.8</ele>
        <time>2023-01-28T07:43:41Z</time>
      </trkpt>
      <trkpt lat="36.4946040" lon="-6.1497900">
        <ele>2.6</ele>
        <time>2023-01-28T07:43:42Z</time>
      </trkpt>
      <trkpt lat="36.4946310" lon="-6.1497570">
        <ele>2.8</ele>
        <time>2023-01-28T07:43:43Z</time>
      </trkpt>
      <trkpt lat="36.4946580" lon="-6.1497000">
        <ele>2.8</ele>
        <time>2023-01-28T07:43:44Z</time>
      </trkpt>
      <trkpt lat="36.4946800" lon="-6.1496540">
        <ele>2.6</ele>
        <time>2023-01-28T07:43:45Z</time>
      </trkpt>
      <trkpt lat="36.4947030" lon="-6.1496240">
        <ele>2.6</ele>
        <time>2023-01-28T07:43:46Z</time>
      </trkpt>
      <trkpt lat="36.4947260" lon="-6.1495750">
        <ele>2.6</ele>
        <time>2023-01-28T07:43:47Z</time>
      </trkpt>
      <trkpt lat="36.4947580" lon="-6.1495200">
        <ele>2.4</ele>
        <time>2023-01-28T07:43:48Z</time>
      </trkpt>
      <trkpt lat="36.4947890" lon="-6.1494740">
        <ele>2.4</ele>
        <time>2023-01-28T07:43:49Z</time>
      </trkpt>
      <trkpt lat="36.4948190" lon="-6.1494240">
        <ele>2.4</ele>
        <time>2023-01-28T07:43:50Z</time>
      </trkpt>
      <trkpt lat="36.4948490" lon="-6.1493800">
        <ele>2.4</ele>
        <time>2023-01-28T07:43:51Z</time>
      </trkpt>
      <trkpt lat="36.4948820" lon="-6.1493570">
        <ele>2.4</ele>
        <time>2023-01-28T07:43:52Z</time>
      </trkpt>
      <trkpt lat="36.4949230" lon="-6.1493360">
        <ele>2.2</ele>
        <time>2023-01-28T07:43:53Z</time>
      </trkpt>
      <trkpt lat="36.4949500" lon="-6.1493000">
        <ele>2.2</ele>
        <time>2023-01-28T07:43:54Z</time>
      </trkpt>
      <trkpt lat="36.4949760" lon="-6.1492580">
        <ele>2.0</ele>
        <time>2023-01-28T07:43:55Z</time>
      </trkpt>
      <trkpt lat="36.4950030" lon="-6.1492130">
        <ele>2.0</ele>
        <time>2023-01-28T07:43:56Z</time>
      </trkpt>
      <trkpt lat="36.4950250" lon="-6.1491630">
        <ele>1.8</ele>
        <time>2023-01-28T07:43:57Z</time>
      </trkpt>
      <trkpt lat="36.4950510" lon="-6.1491160">
        <ele>1.6</ele>
        <time>2023-01-28T07:43:58Z</time>
      </trkpt>
      <trkpt lat="36.4950920" lon="-6.1490880">
        <ele>1.6</ele>
        <time>2023-01-28T07:43:59Z</time>
      </trkpt>
      <trkpt lat="36.4951060" lon="-6.1490430">
        <ele>1.6</ele>
        <time>2023-01-28T07:44:00Z</time>
      </trkpt>
      <trkpt lat="36.4951300" lon="-6.1490050">
        <ele>1.6</ele>
        <time>2023-01-28T07:44:01Z</time>
      </trkpt>
      <trkpt lat="36.4951300" lon="-6.1490050">
        <ele>1.6</ele>
        <time>2023-01-28T07:44:02Z</time>
      </trkpt>
      <trkpt lat="36.4951960" lon="-6.1489020">
        <ele>1.6</ele>
        <time>2023-01-28T07:44:03Z</time>
      </trkpt>
      <trkpt lat="36.4952280" lon="-6.1488690">
        <ele>1.6</ele>
        <time>2023-01-28T07:44:04Z</time>
      </trkpt>
      <trkpt lat="36.4952610" lon="-6.1488280">
        <ele>1.8</ele>
        <time>2023-01-28T07:44:05Z</time>
      </trkpt>
      <trkpt lat="36.4952780" lon="-6.1487840">
        <ele>1.8</ele>
        <time>2023-01-28T07:44:06Z</time>
      </trkpt>
      <trkpt lat="36.4953080" lon="-6.1487540">
        <ele>1.8</ele>
        <time>2023-01-28T07:44:07Z</time>
      </trkpt>
      <trkpt lat="36.4953410" lon="-6.1487210">
        <ele>1.8</ele>
        <time>2023-01-28T07:44:08Z</time>
      </trkpt>
      <trkpt lat="36.4953660" lon="-6.1486640">
        <ele>1.8</ele>
        <time>2023-01-28T07:44:09Z</time>
      </trkpt>
      <trkpt lat="36.4953850" lon="-6.1486310">
        <ele>1.8</ele>
        <time>2023-01-28T07:44:10Z</time>
      </trkpt>
      <trkpt lat="36.4954160" lon="-6.1485870">
        <ele>2.0</ele>
        <time>2023-01-28T07:44:11Z</time>
      </trkpt>
      <trkpt lat="36.4954490" lon="-6.1485420">
        <ele>2.0</ele>
        <time>2023-01-28T07:44:12Z</time>
      </trkpt>
      <trkpt lat="36.4954810" lon="-6.1485050">
        <ele>2.0</ele>
        <time>2023-01-28T07:44:13Z</time>
      </trkpt>
      <trkpt lat="36.4955070" lon="-6.1484710">
        <ele>2.2</ele>
        <time>2023-01-28T07:44:14Z</time>
      </trkpt>
      <trkpt lat="36.4955300" lon="-6.1484230">
        <ele>2.2</ele>
        <time>2023-01-28T07:44:15Z</time>
      </trkpt>
      <trkpt lat="36.4955660" lon="-6.1483750">
        <ele>2.2</ele>
        <time>2023-01-28T07:44:16Z</time>
      </trkpt>
      <trkpt lat="36.4955850" lon="-6.1483530">
        <ele>2.2</ele>
        <time>2023-01-28T07:44:17Z</time>
      </trkpt>
      <trkpt lat="36.4956020" lon="-6.1483140">
        <ele>2.4</ele>
        <time>2023-01-28T07:44:18Z</time>
      </trkpt>
      <trkpt lat="36.4956330" lon="-6.1482770">
        <ele>2.4</ele>
        <time>2023-01-28T07:44:19Z</time>
      </trkpt>
      <trkpt lat="36.4956560" lon="-6.1482610">
        <ele>2.6</ele>
        <time>2023-01-28T07:44:20Z</time>
      </trkpt>
      <trkpt lat="36.4956940" lon="-6.1482490">
        <ele>2.6</ele>
        <time>2023-01-28T07:44:21Z</time>
      </trkpt>
      <trkpt lat="36.4957260" lon="-6.1482190">
        <ele>2.6</ele>
        <time>2023-01-28T07:44:22Z</time>
      </trkpt>
      <trkpt lat="36.4957530" lon="-6.1481910">
        <ele>2.4</ele>
        <time>2023-01-28T07:44:23Z</time>
      </trkpt>
      <trkpt lat="36.4957740" lon="-6.1481400">
        <ele>2.4</ele>
        <time>2023-01-28T07:44:24Z</time>
      </trkpt>
      <trkpt lat="36.4958070" lon="-6.1480930">
        <ele>2.4</ele>
        <time>2023-01-28T07:44:25Z</time>
      </trkpt>
      <trkpt lat="36.4958360" lon="-6.1480610">
        <ele>2.4</ele>
        <time>2023-01-28T07:44:26Z</time>
      </trkpt>
      <trkpt lat="36.4958660" lon="-6.1480320">
        <ele>2.2</ele>
        <time>2023-01-28T07:44:27Z</time>
      </trkpt>
      <trkpt lat="36.4959020" lon="-6.1479870">
        <ele>2.2</ele>
        <time>2023-01-28T07:44:28Z</time>
      </trkpt>
      <trkpt lat="36.4959180" lon="-6.1479390">
        <ele>2.0</ele>
        <time>2023-01-28T07:44:29Z</time>
      </trkpt>
      <trkpt lat="36.4959410" lon="-6.1479010">
        <ele>2.2</ele>
        <time>2023-01-28T07:44:30Z</time>
      </trkpt>
      <trkpt lat="36.4959860" lon="-6.1478730">
        <ele>2.2</ele>
        <time>2023-01-28T07:44:31Z</time>
      </trkpt>
      <trkpt lat="36.4960230" lon="-6.1478360">
        <ele>2.2</ele>
        <time>2023-01-28T07:44:32Z</time>
      </trkpt>
      <trkpt lat="36.4960580" lon="-6.1478040">
        <ele>2.2</ele>
        <time>2023-01-28T07:44:33Z</time>
      </trkpt>
      <trkpt lat="36.4960900" lon="-6.1477570">
        <ele>2.4</ele>
        <time>2023-01-28T07:44:34Z</time>
      </trkpt>
      <trkpt lat="36.4961080" lon="-6.1477230">
        <ele>2.2</ele>
        <time>2023-01-28T07:44:35Z</time>
      </trkpt>
      <trkpt lat="36.4961340" lon="-6.1477000">
        <ele>2.2</ele>
        <time>2023-01-28T07:44:36Z</time>
      </trkpt>
      <trkpt lat="36.4961710" lon="-6.1476710">
        <ele>2.4</ele>
        <time>2023-01-28T07:44:37Z</time>
      </trkpt>
      <trkpt lat="36.4962110" lon="-6.1476550">
        <ele>2.4</ele>
        <time>2023-01-28T07:44:38Z</time>
      </trkpt>
      <trkpt lat="36.4962390" lon="-6.1476160">
        <ele>2.4</ele>
        <time>2023-01-28T07:44:39Z</time>
      </trkpt>
      <trkpt lat="36.4962540" lon="-6.1475770">
        <ele>2.4</ele>
        <time>2023-01-28T07:44:40Z</time>
      </trkpt>
      <trkpt lat="36.4962890" lon="-6.1475580">
        <ele>2.4</ele>
        <time>2023-01-28T07:44:41Z</time>
      </trkpt>
      <trkpt lat="36.4963210" lon="-6.1475150">
        <ele>2.2</ele>
        <time>2023-01-28T07:44:42Z</time>
      </trkpt>
      <trkpt lat="36.4963540" lon="-6.1474860">
        <ele>2.4</ele>
        <time>2023-01-28T07:44:43Z</time>
      </trkpt>
      <trkpt lat="36.4963920" lon="-6.1474480">
        <ele>2.4</ele>
        <time>2023-01-28T07:44:44Z</time>
      </trkpt>
      <trkpt lat="36.4964200" lon="-6.1474040">
        <ele>2.4</ele>
        <time>2023-01-28T07:44:45Z</time>
      </trkpt>
      <trkpt lat="36.4964500" lon="-6.1473680">
        <ele>2.2</ele>
        <time>2023-01-28T07:44:46Z</time>
      </trkpt>
      <trkpt lat="36.4964900" lon="-6.1473360">
        <ele>2.2</ele>
        <time>2023-01-28T07:44:47Z</time>
      </trkpt>
      <trkpt lat="36.4965110" lon="-6.1473070">
        <ele>2.4</ele>
        <time>2023-01-28T07:44:48Z</time>
      </trkpt>
      <trkpt lat="36.4965450" lon="-6.1472820">
        <ele>2.4</ele>
        <time>2023-01-28T07:44:49Z</time>
      </trkpt>
      <trkpt lat="36.4965680" lon="-6.1472540">
        <ele>2.4</ele>
        <time>2023-01-28T07:44:50Z</time>
      </trkpt>
      <trkpt lat="36.4966030" lon="-6.1472130">
        <ele>2.4</ele>
        <time>2023-01-28T07:44:51Z</time>
      </trkpt>
      <trkpt lat="36.4966330" lon="-6.1471850">
        <ele>2.4</ele>
        <time>2023-01-28T07:44:52Z</time>
      </trkpt>
      <trkpt lat="36.4966650" lon="-6.1471420">
        <ele>2.4</ele>
        <time>2023-01-28T07:44:53Z</time>
      </trkpt>
      <trkpt lat="36.4967050" lon="-6.1470990">
        <ele>2.4</ele>
        <time>2023-01-28T07:44:54Z</time>
      </trkpt>
      <trkpt lat="36.4967480" lon="-6.1470790">
        <ele>2.6</ele>
        <time>2023-01-28T07:44:55Z</time>
      </trkpt>
      <trkpt lat="36.4967880" lon="-6.1470570">
        <ele>2.6</ele>
        <time>2023-01-28T07:44:56Z</time>
      </trkpt>
      <trkpt lat="36.4968170" lon="-6.1470250">
        <ele>2.6</ele>
        <time>2023-01-28T07:44:57Z</time>
      </trkpt>
      <trkpt lat="36.4968630" lon="-6.1469930">
        <ele>2.6</ele>
        <time>2023-01-28T07:44:58Z</time>
      </trkpt>
      <trkpt lat="36.4968990" lon="-6.1469600">
        <ele>2.4</ele>
        <time>2023-01-28T07:44:59Z</time>
      </trkpt>
      <trkpt lat="36.4969440" lon="-6.1469320">
        <ele>2.4</ele>
        <time>2023-01-28T07:45:00Z</time>
      </trkpt>
      <trkpt lat="36.4969880" lon="-6.1469030">
        <ele>2.4</ele>
        <time>2023-01-28T07:45:01Z</time>
      </trkpt>
      <trkpt lat="36.4970220" lon="-6.1468710">
        <ele>2.4</ele>
        <time>2023-01-28T07:45:02Z</time>
      </trkpt>
      <trkpt lat="36.4970470" lon="-6.1468570">
        <ele>2.4</ele>
        <time>2023-01-28T07:45:03Z</time>
      </trkpt>
      <trkpt lat="36.4970890" lon="-6.1468400">
        <ele>2.4</ele>
        <time>2023-01-28T07:45:04Z</time>
      </trkpt>
      <trkpt lat="36.4971320" lon="-6.1468190">
        <ele>2.4</ele>
        <time>2023-01-28T07:45:05Z</time>
      </trkpt>
      <trkpt lat="36.4971620" lon="-6.1467980">
        <ele>2.4</ele>
        <time>2023-01-28T07:45:06Z</time>
      </trkpt>
      <trkpt lat="36.4971950" lon="-6.1467600">
        <ele>2.4</ele>
        <time>2023-01-28T07:45:07Z</time>
      </trkpt>
      <trkpt lat="36.4972300" lon="-6.1467460">
        <ele>2.4</ele>
        <time>2023-01-28T07:45:08Z</time>
      </trkpt>
      <trkpt lat="36.4972570" lon="-6.1467270">
        <ele>2.2</ele>
        <time>2023-01-28T07:45:09Z</time>
      </trkpt>
      <trkpt lat="36.4972940" lon="-6.1466920">
        <ele>2.2</ele>
        <time>2023-01-28T07:45:10Z</time>
      </trkpt>
      <trkpt lat="36.4973310" lon="-6.1466520">
        <ele>2.2</ele>
        <time>2023-01-28T07:45:11Z</time>
      </trkpt>
      <trkpt lat="36.4973640" lon="-6.1466200">
        <ele>2.2</ele>
        <time>2023-01-28T07:45:12Z</time>
      </trkpt>
      <trkpt lat="36.4974120" lon="-6.1465970">
        <ele>2.2</ele>
        <time>2023-01-28T07:45:13Z</time>
      </trkpt>
      <trkpt lat="36.4974470" lon="-6.1465620">
        <ele>2.2</ele>
        <time>2023-01-28T07:45:14Z</time>
      </trkpt>
      <trkpt lat="36.4974850" lon="-6.1465390">
        <ele>2.0</ele>
        <time>2023-01-28T07:45:15Z</time>
      </trkpt>
      <trkpt lat="36.4974850" lon="-6.1465390">
        <ele>2.0</ele>
        <time>2023-01-28T07:45:16Z</time>
      </trkpt>
      <trkpt lat="36.4975360" lon="-6.1464930">
        <ele>2.2</ele>
        <time>2023-01-28T07:45:17Z</time>
      </trkpt>
      <trkpt lat="36.4975700" lon="-6.1464720">
        <ele>2.2</ele>
        <time>2023-01-28T07:45:18Z</time>
      </trkpt>
      <trkpt lat="36.4976210" lon="-6.1464470">
        <ele>2.2</ele>
        <time>2023-01-28T07:45:19Z</time>
      </trkpt>
      <trkpt lat="36.4976530" lon="-6.1464240">
        <ele>2.2</ele>
        <time>2023-01-28T07:45:20Z</time>
      </trkpt>
      <trkpt lat="36.4976940" lon="-6.1464080">
        <ele>2.2</ele>
        <time>2023-01-28T07:45:21Z</time>
      </trkpt>
      <trkpt lat="36.4977170" lon="-6.1463690">
        <ele>2.0</ele>
        <time>2023-01-28T07:45:22Z</time>
      </trkpt>
      <trkpt lat="36.4977580" lon="-6.1463400">
        <ele>2.0</ele>
        <time>2023-01-28T07:45:23Z</time>
      </trkpt>
      <trkpt lat="36.4977920" lon="-6.1463210">
        <ele>2.0</ele>
        <time>2023-01-28T07:45:24Z</time>
      </trkpt>
      <trkpt lat="36.4978370" lon="-6.1463150">
        <ele>2.0</ele>
        <time>2023-01-28T07:45:25Z</time>
      </trkpt>
      <trkpt lat="36.4978650" lon="-6.1462970">
        <ele>2.0</ele>
        <time>2023-01-28T07:45:26Z</time>
      </trkpt>
      <trkpt lat="36.4978980" lon="-6.1462660">
        <ele>2.0</ele>
        <time>2023-01-28T07:45:27Z</time>
      </trkpt>
      <trkpt lat="36.4979410" lon="-6.1462430">
        <ele>2.0</ele>
        <time>2023-01-28T07:45:28Z</time>
      </trkpt>
      <trkpt lat="36.4979710" lon="-6.1462290">
        <ele>2.2</ele>
        <time>2023-01-28T07:45:29Z</time>
      </trkpt>
      <trkpt lat="36.4979930" lon="-6.1462170">
        <ele>2.2</ele>
        <time>2023-01-28T07:45:30Z</time>
      </trkpt>
      <trkpt lat="36.4980180" lon="-6.1462010">
        <ele>2.2</ele>
        <time>2023-01-28T07:45:31Z</time>
      </trkpt>
      <trkpt lat="36.4980540" lon="-6.1461680">
        <ele>2.2</ele>
        <time>2023-01-28T07:45:32Z</time>
      </trkpt>
      <trkpt lat="36.4980740" lon="-6.1461560">
        <ele>2.2</ele>
        <time>2023-01-28T07:45:33Z</time>
      </trkpt>
      <trkpt lat="36.4981250" lon="-6.1461310">
        <ele>2.2</ele>
        <time>2023-01-28T07:45:34Z</time>
      </trkpt>
      <trkpt lat="36.4981550" lon="-6.1461180">
        <ele>2.2</ele>
        <time>2023-01-28T07:45:35Z</time>
      </trkpt>
      <trkpt lat="36.4981950" lon="-6.1460930">
        <ele>2.2</ele>
        <time>2023-01-28T07:45:36Z</time>
      </trkpt>
      <trkpt lat="36.4982270" lon="-6.1460640">
        <ele>2.2</ele>
        <time>2023-01-28T07:45:37Z</time>
      </trkpt>
      <trkpt lat="36.4982580" lon="-6.1460450">
        <ele>2.0</ele>
        <time>2023-01-28T07:45:38Z</time>
      </trkpt>
      <trkpt lat="36.4983050" lon="-6.1460330">
        <ele>2.0</ele>
        <time>2023-01-28T07:45:39Z</time>
      </trkpt>
      <trkpt lat="36.4983410" lon="-6.1460350">
        <ele>2.0</ele>
        <time>2023-01-28T07:45:40Z</time>
      </trkpt>
      <trkpt lat="36.4983770" lon="-6.1460390">
        <ele>2.0</ele>
        <time>2023-01-28T07:45:41Z</time>
      </trkpt>
      <trkpt lat="36.4984090" lon="-6.1460610">
        <ele>2.0</ele>
        <time>2023-01-28T07:45:42Z</time>
      </trkpt>
      <trkpt lat="36.4984460" lon="-6.1460810">
        <ele>1.8</ele>
        <time>2023-01-28T07:45:43Z</time>
      </trkpt>
      <trkpt lat="36.4984780" lon="-6.1461170">
        <ele>2.0</ele>
        <time>2023-01-28T07:45:44Z</time>
      </trkpt>
      <trkpt lat="36.4985020" lon="-6.1461370">
        <ele>1.8</ele>
        <time>2023-01-28T07:45:45Z</time>
      </trkpt>
      <trkpt lat="36.4985330" lon="-6.1461880">
        <ele>1.8</ele>
        <time>2023-01-28T07:45:46Z</time>
      </trkpt>
      <trkpt lat="36.4985640" lon="-6.1462140">
        <ele>1.8</ele>
        <time>2023-01-28T07:45:47Z</time>
      </trkpt>
      <trkpt lat="36.4985640" lon="-6.1462610">
        <ele>1.8</ele>
        <time>2023-01-28T07:45:48Z</time>
      </trkpt>
      <trkpt lat="36.4985790" lon="-6.1463050">
        <ele>1.8</ele>
        <time>2023-01-28T07:45:49Z</time>
      </trkpt>
      <trkpt lat="36.4986000" lon="-6.1463350">
        <ele>1.8</ele>
        <time>2023-01-28T07:45:50Z</time>
      </trkpt>
      <trkpt lat="36.4986440" lon="-6.1463830">
        <ele>1.6</ele>
        <time>2023-01-28T07:45:51Z</time>
      </trkpt>
      <trkpt lat="36.4986920" lon="-6.1464160">
        <ele>1.6</ele>
        <time>2023-01-28T07:45:52Z</time>
      </trkpt>
      <trkpt lat="36.4987280" lon="-6.1464270">
        <ele>1.8</ele>
        <time>2023-01-28T07:45:53Z</time>
      </trkpt>
      <trkpt lat="36.4987680" lon="-6.1464200">
        <ele>1.8</ele>
        <time>2023-01-28T07:45:54Z</time>
      </trkpt>
      <trkpt lat="36.4988020" lon="-6.1464240">
        <ele>1.8</ele>
        <time>2023-01-28T07:45:55Z</time>
      </trkpt>
      <trkpt lat="36.4988250" lon="-6.1464040">
        <ele>1.8</ele>
        <time>2023-01-28T07:45:56Z</time>
      </trkpt>
      <trkpt lat="36.4988540" lon="-6.1464180">
        <ele>1.8</ele>
        <time>2023-01-28T07:45:57Z</time>
      </trkpt>
      <trkpt lat="36.4988880" lon="-6.1464290">
        <ele>1.8</ele>
        <time>2023-01-28T07:45:58Z</time>
      </trkpt>
      <trkpt lat="36.4989150" lon="-6.1464510">
        <ele>1.8</ele>
        <time>2023-01-28T07:45:59Z</time>
      </trkpt>
      <trkpt lat="36.4989580" lon="-6.1464630">
        <ele>1.8</ele>
        <time>2023-01-28T07:46:00Z</time>
      </trkpt>
      <trkpt lat="36.4989760" lon="-6.1464800">
        <ele>1.8</ele>
        <time>2023-01-28T07:46:01Z</time>
      </trkpt>
      <trkpt lat="36.4990130" lon="-6.1464680">
        <ele>1.8</ele>
        <time>2023-01-28T07:46:02Z</time>
      </trkpt>
      <trkpt lat="36.4990540" lon="-6.1464740">
        <ele>1.8</ele>
        <time>2023-01-28T07:46:03Z</time>
      </trkpt>
      <trkpt lat="36.4991110" lon="-6.1464930">
        <ele>1.8</ele>
        <time>2023-01-28T07:46:04Z</time>
      </trkpt>
      <trkpt lat="36.4991390" lon="-6.1465020">
        <ele>1.8</ele>
        <time>2023-01-28T07:46:05Z</time>
      </trkpt>
      <trkpt lat="36.4991660" lon="-6.1465010">
        <ele>1.8</ele>
        <time>2023-01-28T07:46:06Z</time>
      </trkpt>
      <trkpt lat="36.4992100" lon="-6.1465240">
        <ele>1.8</ele>
        <time>2023-01-28T07:46:07Z</time>
      </trkpt>
      <trkpt lat="36.4992430" lon="-6.1465250">
        <ele>1.8</ele>
        <time>2023-01-28T07:46:08Z</time>
      </trkpt>
      <trkpt lat="36.4992840" lon="-6.1465380">
        <ele>2.0</ele>
        <time>2023-01-28T07:46:09Z</time>
      </trkpt>
      <trkpt lat="36.4993330" lon="-6.1465560">
        <ele>1.8</ele>
        <time>2023-01-28T07:46:10Z</time>
      </trkpt>
      <trkpt lat="36.4993690" lon="-6.1465700">
        <ele>2.0</ele>
        <time>2023-01-28T07:46:11Z</time>
      </trkpt>
      <trkpt lat="36.4993910" lon="-6.1465700">
        <ele>2.0</ele>
        <time>2023-01-28T07:46:12Z</time>
      </trkpt>
      <trkpt lat="36.4994200" lon="-6.1465750">
        <ele>2.0</ele>
        <time>2023-01-28T07:46:13Z</time>
      </trkpt>
      <trkpt lat="36.4994600" lon="-6.1466380">
        <ele>2.0</ele>
        <time>2023-01-28T07:46:14Z</time>
      </trkpt>
      <trkpt lat="36.4994820" lon="-6.1466440">
        <ele>1.8</ele>
        <time>2023-01-28T07:46:15Z</time>
      </trkpt>
      <trkpt lat="36.4994980" lon="-6.1466690">
        <ele>1.8</ele>
        <time>2023-01-28T07:46:16Z</time>
      </trkpt>
      <trkpt lat="36.4995160" lon="-6.1467020">
        <ele>1.8</ele>
        <time>2023-01-28T07:46:17Z</time>
      </trkpt>
      <trkpt lat="36.4995380" lon="-6.1467570">
        <ele>1.6</ele>
        <time>2023-01-28T07:46:18Z</time>
      </trkpt>
      <trkpt lat="36.4995390" lon="-6.1468090">
        <ele>1.4</ele>
        <time>2023-01-28T07:46:19Z</time>
      </trkpt>
      <trkpt lat="36.4995370" lon="-6.1468640">
        <ele>1.2</ele>
        <time>2023-01-28T07:46:20Z</time>
      </trkpt>
      <trkpt lat="36.4995200" lon="-6.1469300">
        <ele>1.2</ele>
        <time>2023-01-28T07:46:21Z</time>
      </trkpt>
      <trkpt lat="36.4994930" lon="-6.1469780">
        <ele>1.0</ele>
        <time>2023-01-28T07:46:22Z</time>
      </trkpt>
      <trkpt lat="36.4994660" lon="-6.1470050">
        <ele>1.0</ele>
        <time>2023-01-28T07:46:23Z</time>
      </trkpt>
      <trkpt lat="36.4994400" lon="-6.1470610">
        <ele>1.2</ele>
        <time>2023-01-28T07:46:24Z</time>
      </trkpt>
      <trkpt lat="36.4994250" lon="-6.1470990">
        <ele>1.2</ele>
        <time>2023-01-28T07:46:25Z</time>
      </trkpt>
      <trkpt lat="36.4993920" lon="-6.1471320">
        <ele>1.2</ele>
        <time>2023-01-28T07:46:26Z</time>
      </trkpt>
      <trkpt lat="36.4993590" lon="-6.1471620">
        <ele>1.2</ele>
        <time>2023-01-28T07:46:27Z</time>
      </trkpt>
      <trkpt lat="36.4993220" lon="-6.1471570">
        <ele>1.4</ele>
        <time>2023-01-28T07:46:28Z</time>
      </trkpt>
      <trkpt lat="36.4992950" lon="-6.1471810">
        <ele>1.4</ele>
        <time>2023-01-28T07:46:29Z</time>
      </trkpt>
      <trkpt lat="36.4992830" lon="-6.1472040">
        <ele>1.4</ele>
        <time>2023-01-28T07:46:30Z</time>
      </trkpt>
      <trkpt lat="36.4992570" lon="-6.1472440">
        <ele>1.6</ele>
        <time>2023-01-28T07:46:31Z</time>
      </trkpt>
      <trkpt lat="36.4992180" lon="-6.1472610">
        <ele>1.6</ele>
        <time>2023-01-28T07:46:32Z</time>
      </trkpt>
      <trkpt lat="36.4991960" lon="-6.1472670">
        <ele>1.6</ele>
        <time>2023-01-28T07:46:33Z</time>
      </trkpt>
      <trkpt lat="36.4991700" lon="-6.1472830">
        <ele>1.6</ele>
        <time>2023-01-28T07:46:34Z</time>
      </trkpt>
      <trkpt lat="36.4991130" lon="-6.1472960">
        <ele>1.6</ele>
        <time>2023-01-28T07:46:35Z</time>
      </trkpt>
      <trkpt lat="36.4990920" lon="-6.1472920">
        <ele>1.4</ele>
        <time>2023-01-28T07:46:36Z</time>
      </trkpt>
      <trkpt lat="36.4990490" lon="-6.1472840">
        <ele>1.4</ele>
        <time>2023-01-28T07:46:37Z</time>
      </trkpt>
      <trkpt lat="36.4990100" lon="-6.1472740">
        <ele>1.4</ele>
        <time>2023-01-28T07:46:38Z</time>
      </trkpt>
      <trkpt lat="36.4989640" lon="-6.1472540">
        <ele>1.4</ele>
        <time>2023-01-28T07:46:39Z</time>
      </trkpt>
      <trkpt lat="36.4989200" lon="-6.1472490">
        <ele>1.4</ele>
        <time>2023-01-28T07:46:40Z</time>
      </trkpt>
      <trkpt lat="36.4988950" lon="-6.1472110">
        <ele>1.4</ele>
        <time>2023-01-28T07:46:41Z</time>
      </trkpt>
      <trkpt lat="36.4988500" lon="-6.1471680">
        <ele>1.4</ele>
        <time>2023-01-28T07:46:42Z</time>
      </trkpt>
      <trkpt lat="36.4988280" lon="-6.1471340">
        <ele>1.4</ele>
        <time>2023-01-28T07:46:43Z</time>
      </trkpt>
      <trkpt lat="36.4987930" lon="-6.1470970">
        <ele>1.4</ele>
        <time>2023-01-28T07:46:44Z</time>
      </trkpt>
      <trkpt lat="36.4987670" lon="-6.1470680">
        <ele>1.4</ele>
        <time>2023-01-28T07:46:45Z</time>
      </trkpt>
      <trkpt lat="36.4987430" lon="-6.1470390">
        <ele>1.6</ele>
        <time>2023-01-28T07:46:46Z</time>
      </trkpt>
      <trkpt lat="36.4987160" lon="-6.1470000">
        <ele>1.8</ele>
        <time>2023-01-28T07:46:47Z</time>
      </trkpt>
      <trkpt lat="36.4986950" lon="-6.1469570">
        <ele>1.8</ele>
        <time>2023-01-28T07:46:48Z</time>
      </trkpt>
      <trkpt lat="36.4986740" lon="-6.1469080">
        <ele>2.0</ele>
        <time>2023-01-28T07:46:49Z</time>
      </trkpt>
      <trkpt lat="36.4986530" lon="-6.1468890">
        <ele>2.2</ele>
        <time>2023-01-28T07:46:50Z</time>
      </trkpt>
      <trkpt lat="36.4986320" lon="-6.1468710">
        <ele>2.4</ele>
        <time>2023-01-28T07:46:51Z</time>
      </trkpt>
      <trkpt lat="36.4985990" lon="-6.1468240">
        <ele>2.8</ele>
        <time>2023-01-28T07:46:52Z</time>
      </trkpt>
      <trkpt lat="36.4985780" lon="-6.1467960">
        <ele>3.0</ele>
        <time>2023-01-28T07:46:53Z</time>
      </trkpt>
      <trkpt lat="36.4985570" lon="-6.1467670">
        <ele>3.2</ele>
        <time>2023-01-28T07:46:54Z</time>
      </trkpt>
      <trkpt lat="36.4985420" lon="-6.1467700">
        <ele>3.6</ele>
        <time>2023-01-28T07:46:55Z</time>
      </trkpt>
      <trkpt lat="36.4985250" lon="-6.1467570">
        <ele>3.8</ele>
        <time>2023-01-28T07:46:56Z</time>
      </trkpt>
      <trkpt lat="36.4985310" lon="-6.1467430">
        <ele>4.0</ele>
        <time>2023-01-28T07:46:57Z</time>
      </trkpt>
      <trkpt lat="36.4985000" lon="-6.1467140">
        <ele>4.4</ele>
        <time>2023-01-28T07:46:58Z</time>
      </trkpt>
      <trkpt lat="36.4984970" lon="-6.1467030">
        <ele>4.6</ele>
        <time>2023-01-28T07:46:59Z</time>
      </trkpt>
      <trkpt lat="36.4985030" lon="-6.1467100">
        <ele>4.8</ele>
        <time>2023-01-28T07:47:00Z</time>
      </trkpt>
      <trkpt lat="36.4984850" lon="-6.1466880">
        <ele>5.0</ele>
        <time>2023-01-28T07:47:01Z</time>
      </trkpt>
      <trkpt lat="36.4984870" lon="-6.1466560">
        <ele>5.4</ele>
        <time>2023-01-28T07:47:02Z</time>
      </trkpt>
      <trkpt lat="36.4984870" lon="-6.1466560">
        <ele>5.6</ele>
        <time>2023-01-28T07:47:03Z</time>
      </trkpt>
      <trkpt lat="36.4984710" lon="-6.1466250">
        <ele>5.8</ele>
        <time>2023-01-28T07:47:04Z</time>
      </trkpt>
      <trkpt lat="36.4984600" lon="-6.1466010">
        <ele>6.2</ele>
        <time>2023-01-28T07:47:05Z</time>
      </trkpt>
      <trkpt lat="36.4984600" lon="-6.1466010">
        <ele>6.2</ele>
        <time>2023-01-28T07:47:06Z</time>
      </trkpt>
      <trkpt lat="36.4984380" lon="-6.1465920">
        <ele>6.6</ele>
        <time>2023-01-28T07:47:07Z</time>
      </trkpt>
      <trkpt lat="36.4984310" lon="-6.1465710">
        <ele>6.8</ele>
        <time>2023-01-28T07:47:08Z</time>
      </trkpt>
      <trkpt lat="36.4984250" lon="-6.1465550">
        <ele>7.0</ele>
        <time>2023-01-28T07:47:09Z</time>
      </trkpt>
      <trkpt lat="36.4984070" lon="-6.1465440">
        <ele>7.2</ele>
        <time>2023-01-28T07:47:10Z</time>
      </trkpt>
      <trkpt lat="36.4984070" lon="-6.1465440">
        <ele>7.4</ele>
        <time>2023-01-28T07:47:11Z</time>
      </trkpt>
      <trkpt lat="36.4984000" lon="-6.1465120">
        <ele>7.8</ele>
        <time>2023-01-28T07:47:12Z</time>
      </trkpt>
      <trkpt lat="36.4983750" lon="-6.1464880">
        <ele>8.0</ele>
        <time>2023-01-28T07:47:13Z</time>
      </trkpt>
      <trkpt lat="36.4983750" lon="-6.1464880">
        <ele>8.2</ele>
        <time>2023-01-28T07:47:14Z</time>
      </trkpt>
      <trkpt lat="36.4983820" lon="-6.1464370">
        <ele>8.4</ele>
        <time>2023-01-28T07:47:15Z</time>
      </trkpt>
      <trkpt lat="36.4983710" lon="-6.1464290">
        <ele>8.6</ele>
        <time>2023-01-28T07:47:16Z</time>
      </trkpt>
      <trkpt lat="36.4983520" lon="-6.1464090">
        <ele>8.8</ele>
        <time>2023-01-28T07:47:17Z</time>
      </trkpt>
      <trkpt lat="36.4983390" lon="-6.1464030">
        <ele>9.0</ele>
        <time>2023-01-28T07:47:18Z</time>
      </trkpt>
      <trkpt lat="36.4983180" lon="-6.1463940">
        <ele>9.2</ele>
        <time>2023-01-28T07:47:19Z</time>
      </trkpt>
      <trkpt lat="36.4983180" lon="-6.1463940">
        <ele>9.4</ele>
        <time>2023-01-28T07:47:20Z</time>
      </trkpt>
      <trkpt lat="36.4982790" lon="-6.1463460">
        <ele>9.6</ele>
        <time>2023-01-28T07:47:21Z</time>
      </trkpt>
      <trkpt lat="36.4982500" lon="-6.1463180">
        <ele>9.8</ele>
        <time>2023-01-28T07:47:22Z</time>
      </trkpt>
      <trkpt lat="36.4982330" lon="-6.1463000">
        <ele>10.0</ele>
        <time>2023-01-28T07:47:23Z</time>
      </trkpt>
      <trkpt lat="36.4982330" lon="-6.1463000">
        <ele>10.2</ele>
        <time>2023-01-28T07:47:24Z</time>
      </trkpt>
      <trkpt lat="36.4982300" lon="-6.1462680">
        <ele>10.4</ele>
        <time>2023-01-28T07:47:25Z</time>
      </trkpt>
      <trkpt lat="36.4982100" lon="-6.1462370">
        <ele>10.6</ele>
        <time>2023-01-28T07:47:26Z</time>
      </trkpt>
      <trkpt lat="36.4982100" lon="-6.1462370">
        <ele>11.0</ele>
        <time>2023-01-28T07:47:27Z</time>
      </trkpt>
      <trkpt lat="36.4981960" lon="-6.1462300">
        <ele>11.2</ele>
        <time>2023-01-28T07:47:28Z</time>
      </trkpt>
      <trkpt lat="36.4981870" lon="-6.1462320">
        <ele>11.4</ele>
        <time>2023-01-28T07:47:29Z</time>
      </trkpt>
      <trkpt lat="36.4981870" lon="-6.1462320">
        <ele>11.4</ele>
        <time>2023-01-28T07:47:30Z</time>
      </trkpt>
      <trkpt lat="36.4981660" lon="-6.1461990">
        <ele>11.4</ele>
        <time>2023-01-28T07:47:31Z</time>
      </trkpt>
      <trkpt lat="36.4981610" lon="-6.1461970">
        <ele>11.6</ele>
        <time>2023-01-28T07:47:32Z</time>
      </trkpt>
      <trkpt lat="36.4981640" lon="-6.1461980">
        <ele>11.6</ele>
        <time>2023-01-28T07:47:33Z</time>
      </trkpt>
      <trkpt lat="36.4981540" lon="-6.1461780">
        <ele>11.4</ele>
        <time>2023-01-28T07:47:34Z</time>
      </trkpt>
      <trkpt lat="36.4981370" lon="-6.1461770">
        <ele>11.4</ele>
        <time>2023-01-28T07:47:35Z</time>
      </trkpt>
      <trkpt lat="36.4981370" lon="-6.1461770">
        <ele>11.6</ele>
        <time>2023-01-28T07:47:36Z</time>
      </trkpt>
      <trkpt lat="36.4981080" lon="-6.1461470">
        <ele>11.6</ele>
        <time>2023-01-28T07:47:37Z</time>
      </trkpt>
      <trkpt lat="36.4981010" lon="-6.1461410">
        <ele>11.6</ele>
        <time>2023-01-28T07:47:38Z</time>
      </trkpt>
      <trkpt lat="36.4981010" lon="-6.1461280">
        <ele>11.6</ele>
        <time>2023-01-28T07:47:39Z</time>
      </trkpt>
      <trkpt lat="36.4980980" lon="-6.1461130">
        <ele>11.6</ele>
        <time>2023-01-28T07:47:40Z</time>
      </trkpt>
      <trkpt lat="36.4980980" lon="-6.1461130">
        <ele>11.6</ele>
        <time>2023-01-28T07:47:41Z</time>
      </trkpt>
      <trkpt lat="36.4980950" lon="-6.1461010">
        <ele>11.6</ele>
        <time>2023-01-28T07:47:42Z</time>
      </trkpt>
      <trkpt lat="36.4980840" lon="-6.1460860">
        <ele>11.6</ele>
        <time>2023-01-28T07:47:43Z</time>
      </trkpt>
      <trkpt lat="36.4980770" lon="-6.1460770">
        <ele>11.6</ele>
        <time>2023-01-28T07:47:44Z</time>
      </trkpt>
      <trkpt lat="36.4980700" lon="-6.1460680">
        <ele>11.6</ele>
        <time>2023-01-28T07:47:45Z</time>
      </trkpt>
      <trkpt lat="36.4980640" lon="-6.1460580">
        <ele>11.6</ele>
        <time>2023-01-28T07:47:46Z</time>
      </trkpt>
      <trkpt lat="36.4980570" lon="-6.1460490">
        <ele>11.6</ele>
        <time>2023-01-28T07:47:47Z</time>
      </trkpt>
      <trkpt lat="36.4980500" lon="-6.1460400">
        <ele>11.8</ele>
        <time>2023-01-28T07:47:48Z</time>
      </trkpt>
      <trkpt lat="36.4980430" lon="-6.1460310">
        <ele>11.8</ele>
        <time>2023-01-28T07:47:49Z</time>
      </trkpt>
      <trkpt lat="36.4980370" lon="-6.1460220">
        <ele>11.8</ele>
        <time>2023-01-28T07:47:50Z</time>
      </trkpt>
      <trkpt lat="36.4980300" lon="-6.1460120">
        <ele>11.6</ele>
        <time>2023-01-28T07:47:51Z</time>
      </trkpt>
      <trkpt lat="36.4980230" lon="-6.1460030">
        <ele>11.6</ele>
        <time>2023-01-28T07:47:52Z</time>
      </trkpt>
      <trkpt lat="36.4980160" lon="-6.1459940">
        <ele>11.6</ele>
        <time>2023-01-28T07:47:53Z</time>
      </trkpt>
      <trkpt lat="36.4980100" lon="-6.1459850">
        <ele>11.6</ele>
        <time>2023-01-28T07:47:54Z</time>
      </trkpt>
      <trkpt lat="36.4980030" lon="-6.1459760">
        <ele>11.6</ele>
        <time>2023-01-28T07:47:55Z</time>
      </trkpt>
      <trkpt lat="36.4979960" lon="-6.1459660">
        <ele>11.6</ele>
        <time>2023-01-28T07:47:56Z</time>
      </trkpt>
      <trkpt lat="36.4979890" lon="-6.1459570">
        <ele>11.6</ele>
        <time>2023-01-28T07:47:57Z</time>
      </trkpt>
      <trkpt lat="36.4979830" lon="-6.1459480">
        <ele>11.4</ele>
        <time>2023-01-28T07:50:56Z</time>
      </trkpt>
      <trkpt lat="36.4979760" lon="-6.1459390">
        <ele>11.2</ele>
        <time>2023-01-28T07:50:57Z</time>
      </trkpt>
      <trkpt lat="36.4979690" lon="-6.1459300">
        <ele>11.4</ele>
        <time>2023-01-28T07:50:58Z</time>
      </trkpt>
      <trkpt lat="36.4979620" lon="-6.1459200">
        <ele>11.2</ele>
        <time>2023-01-28T07:50:59Z</time>
      </trkpt>
      <trkpt lat="36.4979560" lon="-6.1459110">
        <ele>11.0</ele>
        <time>2023-01-28T07:51:00Z</time>
      </trkpt>
      <trkpt lat="36.4979490" lon="-6.1459020">
        <ele>10.6</ele>
        <time>2023-01-28T07:51:01Z</time>
      </trkpt>
      <trkpt lat="36.4979290" lon="-6.1458410">
        <ele>10.4</ele>
        <time>2023-01-28T07:51:02Z</time>
      </trkpt>
      <trkpt lat="36.4978840" lon="-6.1458000">
        <ele>9.8</ele>
        <time>2023-01-28T07:51:03Z</time>
      </trkpt>
      <trkpt lat="36.4978500" lon="-6.1457480">
        <ele>8.8</ele>
        <time>2023-01-28T07:51:04Z</time>
      </trkpt>
      <trkpt lat="36.4977980" lon="-6.1456630">
        <ele>8.2</ele>
        <time>2023-01-28T07:51:05Z</time>
      </trkpt>
      <trkpt lat="36.4977470" lon="-6.1456050">
        <ele>7.0</ele>
        <time>2023-01-28T07:51:06Z</time>
      </trkpt>
      <trkpt lat="36.4976920" lon="-6.1455060">
        <ele>6.0</ele>
        <time>2023-01-28T07:51:07Z</time>
      </trkpt>
      <trkpt lat="36.4976370" lon="-6.1454400">
        <ele>4.4</ele>
        <time>2023-01-28T07:51:08Z</time>
      </trkpt>
      <trkpt lat="36.4975770" lon="-6.1453600">
        <ele>3.6</ele>
        <time>2023-01-28T07:51:09Z</time>
      </trkpt>
      <trkpt lat="36.4974970" lon="-6.1452510">
        <ele>2.8</ele>
        <time>2023-01-28T07:51:10Z</time>
      </trkpt>
      <trkpt lat="36.4974310" lon="-6.1451610">
        <ele>2.6</ele>
        <time>2023-01-28T07:51:11Z</time>
      </trkpt>
      <trkpt lat="36.4973680" lon="-6.1450850">
        <ele>2.4</ele>
        <time>2023-01-28T07:51:12Z</time>
      </trkpt>
      <trkpt lat="36.4973000" lon="-6.1449950">
        <ele>2.0</ele>
        <time>2023-01-28T07:51:13Z</time>
      </trkpt>
      <trkpt lat="36.4972250" lon="-6.1449070">
        <ele>1.8</ele>
        <time>2023-01-28T07:51:14Z</time>
      </trkpt>
      <trkpt lat="36.4971520" lon="-6.1448470">
        <ele>2.0</ele>
        <time>2023-01-28T07:51:15Z</time>
      </trkpt>
      <trkpt lat="36.4970830" lon="-6.1448130">
        <ele>2.2</ele>
        <time>2023-01-28T07:51:16Z</time>
      </trkpt>
      <trkpt lat="36.4970200" lon="-6.1448010">
        <ele>2.6</ele>
        <time>2023-01-28T07:51:17Z</time>
      </trkpt>
      <trkpt lat="36.4969680" lon="-6.1448120">
        <ele>3.0</ele>
        <time>2023-01-28T07:51:18Z</time>
      </trkpt>
      <trkpt lat="36.4969150" lon="-6.1448100">
        <ele>3.4</ele>
        <time>2023-01-28T07:51:19Z</time>
      </trkpt>
      <trkpt lat="36.4968490" lon="-6.1448220">
        <ele>3.8</ele>
        <time>2023-01-28T07:51:20Z</time>
      </trkpt>
      <trkpt lat="36.4967940" lon="-6.1448510">
        <ele>4.0</ele>
        <time>2023-01-28T07:51:21Z</time>
      </trkpt>
      <trkpt lat="36.4967390" lon="-6.1448650">
        <ele>4.6</ele>
        <time>2023-01-28T07:51:22Z</time>
      </trkpt>
      <trkpt lat="36.4966930" lon="-6.1448970">
        <ele>4.8</ele>
        <time>2023-01-28T07:51:23Z</time>
      </trkpt>
      <trkpt lat="36.4966360" lon="-6.1449230">
        <ele>5.0</ele>
        <time>2023-01-28T07:51:24Z</time>
      </trkpt>
      <trkpt lat="36.4965830" lon="-6.1449200">
        <ele>5.4</ele>
        <time>2023-01-28T07:51:25Z</time>
      </trkpt>
      <trkpt lat="36.4965360" lon="-6.1449400">
        <ele>5.6</ele>
        <time>2023-01-28T07:51:26Z</time>
      </trkpt>
      <trkpt lat="36.4964970" lon="-6.1449340">
        <ele>6.0</ele>
        <time>2023-01-28T07:51:27Z</time>
      </trkpt>
      <trkpt lat="36.4964500" lon="-6.1449270">
        <ele>6.4</ele>
        <time>2023-01-28T07:51:28Z</time>
      </trkpt>
      <trkpt lat="36.4964080" lon="-6.1449120">
        <ele>6.6</ele>
        <time>2023-01-28T07:51:29Z</time>
      </trkpt>
      <trkpt lat="36.4963750" lon="-6.1448950">
        <ele>6.8</ele>
        <time>2023-01-28T07:51:30Z</time>
      </trkpt>
      <trkpt lat="36.4963330" lon="-6.1448880">
        <ele>7.0</ele>
        <time>2023-01-28T07:51:31Z</time>
      </trkpt>
      <trkpt lat="36.4963030" lon="-6.1448900">
        <ele>7.2</ele>
        <time>2023-01-28T07:51:32Z</time>
      </trkpt>
      <trkpt lat="36.4962690" lon="-6.1448880">
        <ele>7.2</ele>
        <time>2023-01-28T07:51:33Z</time>
      </trkpt>
      <trkpt lat="36.4962400" lon="-6.1448880">
        <ele>7.4</ele>
        <time>2023-01-28T07:51:34Z</time>
      </trkpt>
      <trkpt lat="36.4962080" lon="-6.1448760">
        <ele>7.4</ele>
        <time>2023-01-28T07:51:35Z</time>
      </trkpt>
      <trkpt lat="36.4961750" lon="-6.1448770">
        <ele>7.4</ele>
        <time>2023-01-28T07:51:36Z</time>
      </trkpt>
      <trkpt lat="36.4961480" lon="-6.1449000">
        <ele>7.4</ele>
        <time>2023-01-28T07:51:37Z</time>
      </trkpt>
      <trkpt lat="36.4961030" lon="-6.1448740">
        <ele>7.6</ele>
        <time>2023-01-28T07:51:38Z</time>
      </trkpt>
      <trkpt lat="36.4960620" lon="-6.1448620">
        <ele>7.4</ele>
        <time>2023-01-28T07:51:39Z</time>
      </trkpt>
      <trkpt lat="36.4960510" lon="-6.1448510">
        <ele>7.4</ele>
        <time>2023-01-28T07:51:40Z</time>
      </trkpt>
      <trkpt lat="36.4960380" lon="-6.1448420">
        <ele>7.4</ele>
        <time>2023-01-28T07:51:41Z</time>
      </trkpt>
      <trkpt lat="36.4960040" lon="-6.1448020">
        <ele>7.4</ele>
        <time>2023-01-28T07:51:42Z</time>
      </trkpt>
      <trkpt lat="36.4959890" lon="-6.1447500">
        <ele>7.4</ele>
        <time>2023-01-28T07:51:43Z</time>
      </trkpt>
      <trkpt lat="36.4959750" lon="-6.1447020">
        <ele>7.4</ele>
        <time>2023-01-28T07:51:44Z</time>
      </trkpt>
      <trkpt lat="36.4959890" lon="-6.1446800">
        <ele>7.4</ele>
        <time>2023-01-28T07:51:45Z</time>
      </trkpt>
      <trkpt lat="36.4959960" lon="-6.1446570">
        <ele>7.4</ele>
        <time>2023-01-28T07:51:46Z</time>
      </trkpt>
      <trkpt lat="36.4960150" lon="-6.1446120">
        <ele>7.6</ele>
        <time>2023-01-28T07:51:47Z</time>
      </trkpt>
      <trkpt lat="36.4960530" lon="-6.1446000">
        <ele>7.8</ele>
        <time>2023-01-28T07:51:48Z</time>
      </trkpt>
      <trkpt lat="36.4960580" lon="-6.1445400">
        <ele>7.8</ele>
        <time>2023-01-28T07:51:49Z</time>
      </trkpt>
      <trkpt lat="36.4960900" lon="-6.1445200">
        <ele>7.8</ele>
        <time>2023-01-28T07:51:50Z</time>
      </trkpt>
      <trkpt lat="36.4961080" lon="-6.1444900">
        <ele>7.6</ele>
        <time>2023-01-28T07:51:51Z</time>
      </trkpt>
      <trkpt lat="36.4961370" lon="-6.1444470">
        <ele>7.6</ele>
        <time>2023-01-28T07:51:52Z</time>
      </trkpt>
      <trkpt lat="36.4961550" lon="-6.1444150">
        <ele>7.6</ele>
        <time>2023-01-28T07:51:53Z</time>
      </trkpt>
      <trkpt lat="36.4961500" lon="-6.1443490">
        <ele>7.8</ele>
        <time>2023-01-28T07:51:54Z</time>
      </trkpt>
      <trkpt lat="36.4961710" lon="-6.1442790">
        <ele>8.2</ele>
        <time>2023-01-28T07:51:55Z</time>
      </trkpt>
      <trkpt lat="36.4961770" lon="-6.1442630">
        <ele>8.2</ele>
        <time>2023-01-28T07:51:56Z</time>
      </trkpt>
      <trkpt lat="36.4961850" lon="-6.1442280">
        <ele>8.6</ele>
        <time>2023-01-28T07:51:57Z</time>
      </trkpt>
      <trkpt lat="36.4962040" lon="-6.1441900">
        <ele>8.8</ele>
        <time>2023-01-28T07:51:58Z</time>
      </trkpt>
      <trkpt lat="36.4962160" lon="-6.1441680">
        <ele>8.8</ele>
        <time>2023-01-28T07:51:59Z</time>
      </trkpt>
      <trkpt lat="36.4962240" lon="-6.1441310">
        <ele>9.2</ele>
        <time>2023-01-28T07:52:00Z</time>
      </trkpt>
      <trkpt lat="36.4962260" lon="-6.1441000">
        <ele>9.4</ele>
        <time>2023-01-28T07:52:01Z</time>
      </trkpt>
      <trkpt lat="36.4962180" lon="-6.1440570">
        <ele>9.4</ele>
        <time>2023-01-28T07:52:02Z</time>
      </trkpt>
      <trkpt lat="36.4962160" lon="-6.1440070">
        <ele>9.4</ele>
        <time>2023-01-28T07:52:03Z</time>
      </trkpt>
      <trkpt lat="36.4962200" lon="-6.1439810">
        <ele>9.4</ele>
        <time>2023-01-28T07:52:04Z</time>
      </trkpt>
      <trkpt lat="36.4962150" lon="-6.1439470">
        <ele>9.2</ele>
        <time>2023-01-28T07:52:05Z</time>
      </trkpt>
      <trkpt lat="36.4962200" lon="-6.1438700">
        <ele>9.2</ele>
        <time>2023-01-28T07:52:06Z</time>
      </trkpt>
      <trkpt lat="36.4962160" lon="-6.1438440">
        <ele>9.2</ele>
        <time>2023-01-28T07:52:07Z</time>
      </trkpt>
      <trkpt lat="36.4962280" lon="-6.1437930">
        <ele>9.2</ele>
        <time>2023-01-28T07:52:08Z</time>
      </trkpt>
      <trkpt lat="36.4962290" lon="-6.1437540">
        <ele>9.2</ele>
        <time>2023-01-28T07:52:09Z</time>
      </trkpt>
      <trkpt lat="36.4962320" lon="-6.1437150">
        <ele>9.2</ele>
        <time>2023-01-28T07:52:10Z</time>
      </trkpt>
      <trkpt lat="36.4962320" lon="-6.1436680">
        <ele>9.0</ele>
        <time>2023-01-28T07:52:11Z</time>
      </trkpt>
      <trkpt lat="36.4962390" lon="-6.1436270">
        <ele>9.2</ele>
        <time>2023-01-28T07:52:12Z</time>
      </trkpt>
      <trkpt lat="36.4962510" lon="-6.1435840">
        <ele>9.2</ele>
        <time>2023-01-28T07:52:13Z</time>
      </trkpt>
      <trkpt lat="36.4962240" lon="-6.1435250">
        <ele>9.0</ele>
        <time>2023-01-28T07:52:14Z</time>
      </trkpt>
      <trkpt lat="36.4962180" lon="-6.1434780">
        <ele>9.0</ele>
        <time>2023-01-28T07:52:15Z</time>
      </trkpt>
      <trkpt lat="36.4962150" lon="-6.1434370">
        <ele>8.8</ele>
        <time>2023-01-28T07:52:16Z</time>
      </trkpt>
      <trkpt lat="36.4961960" lon="-6.1433900">
        <ele>8.2</ele>
        <time>2023-01-28T07:52:17Z</time>
      </trkpt>
      <trkpt lat="36.4961630" lon="-6.1433370">
        <ele>7.8</ele>
        <time>2023-01-28T07:52:18Z</time>
      </trkpt>
      <trkpt lat="36.4961120" lon="-6.1432880">
        <ele>7.0</ele>
        <time>2023-01-28T07:52:19Z</time>
      </trkpt>
      <trkpt lat="36.4960390" lon="-6.1432470">
        <ele>6.2</ele>
        <time>2023-01-28T07:52:20Z</time>
      </trkpt>
      <trkpt lat="36.4959830" lon="-6.1432150">
        <ele>5.6</ele>
        <time>2023-01-28T07:52:21Z</time>
      </trkpt>
      <trkpt lat="36.4958930" lon="-6.1432080">
        <ele>4.8</ele>
        <time>2023-01-28T07:52:22Z</time>
      </trkpt>
      <trkpt lat="36.4958340" lon="-6.1432230">
        <ele>3.8</ele>
        <time>2023-01-28T07:52:23Z</time>
      </trkpt>
      <trkpt lat="36.4957560" lon="-6.1432450">
        <ele>3.4</ele>
        <time>2023-01-28T07:52:24Z</time>
      </trkpt>
      <trkpt lat="36.4956940" lon="-6.1432840">
        <ele>2.8</ele>
        <time>2023-01-28T07:52:25Z</time>
      </trkpt>
      <trkpt lat="36.4956290" lon="-6.1432690">
        <ele>2.6</ele>
        <time>2023-01-28T07:52:26Z</time>
      </trkpt>
      <trkpt lat="36.4955630" lon="-6.1432650">
        <ele>2.4</ele>
        <time>2023-01-28T07:52:27Z</time>
      </trkpt>
      <trkpt lat="36.4955100" lon="-6.1432510">
        <ele>2.2</ele>
        <time>2023-01-28T07:52:28Z</time>
      </trkpt>
      <trkpt lat="36.4954740" lon="-6.1432730">
        <ele>2.2</ele>
        <time>2023-01-28T07:52:29Z</time>
      </trkpt>
      <trkpt lat="36.4954340" lon="-6.1432650">
        <ele>2.2</ele>
        <time>2023-01-28T07:52:30Z</time>
      </trkpt>
      <trkpt lat="36.4953890" lon="-6.1432610">
        <ele>2.2</ele>
        <time>2023-01-28T07:52:31Z</time>
      </trkpt>
      <trkpt lat="36.4953590" lon="-6.1432540">
        <ele>2.2</ele>
        <time>2023-01-28T07:52:32Z</time>
      </trkpt>
      <trkpt lat="36.4953280" lon="-6.1432440">
        <ele>2.4</ele>
        <time>2023-01-28T07:52:33Z</time>
      </trkpt>
      <trkpt lat="36.4952950" lon="-6.1432110">
        <ele>2.4</ele>
        <time>2023-01-28T07:52:34Z</time>
      </trkpt>
      <trkpt lat="36.4952730" lon="-6.1431800">
        <ele>2.4</ele>
        <time>2023-01-28T07:52:35Z</time>
      </trkpt>
      <trkpt lat="36.4952380" lon="-6.1431180">
        <ele>2.4</ele>
        <time>2023-01-28T07:52:36Z</time>
      </trkpt>
      <trkpt lat="36.4952200" lon="-6.1430730">
        <ele>2.4</ele>
        <time>2023-01-28T07:52:37Z</time>
      </trkpt>
      <trkpt lat="36.4952230" lon="-6.1430250">
        <ele>2.4</ele>
        <time>2023-01-28T07:52:38Z</time>
      </trkpt>
      <trkpt lat="36.4951840" lon="-6.1429830">
        <ele>2.4</ele>
        <time>2023-01-28T07:52:39Z</time>
      </trkpt>
      <trkpt lat="36.4951660" lon="-6.1429560">
        <ele>2.4</ele>
        <time>2023-01-28T07:52:40Z</time>
      </trkpt>
      <trkpt lat="36.4951240" lon="-6.1429410">
        <ele>2.4</ele>
        <time>2023-01-28T07:52:41Z</time>
      </trkpt>
      <trkpt lat="36.4950820" lon="-6.1429340">
        <ele>2.4</ele>
        <time>2023-01-28T07:52:42Z</time>
      </trkpt>
      <trkpt lat="36.4950550" lon="-6.1429190">
        <ele>2.4</ele>
        <time>2023-01-28T07:52:43Z</time>
      </trkpt>
      <trkpt lat="36.4950050" lon="-6.1429210">
        <ele>2.4</ele>
        <time>2023-01-28T07:52:44Z</time>
      </trkpt>
      <trkpt lat="36.4949790" lon="-6.1429250">
        <ele>2.4</ele>
        <time>2023-01-28T07:52:45Z</time>
      </trkpt>
      <trkpt lat="36.4949250" lon="-6.1429440">
        <ele>2.4</ele>
        <time>2023-01-28T07:52:46Z</time>
      </trkpt>
      <trkpt lat="36.4948580" lon="-6.1429390">
        <ele>2.2</ele>
        <time>2023-01-28T07:52:47Z</time>
      </trkpt>
      <trkpt lat="36.4948070" lon="-6.1429460">
        <ele>2.4</ele>
        <time>2023-01-28T07:52:48Z</time>
      </trkpt>
      <trkpt lat="36.4947680" lon="-6.1429470">
        <ele>2.4</ele>
        <time>2023-01-28T07:52:49Z</time>
      </trkpt>
      <trkpt lat="36.4947210" lon="-6.1429250">
        <ele>2.4</ele>
        <time>2023-01-28T07:52:50Z</time>
      </trkpt>
      <trkpt lat="36.4946810" lon="-6.1429070">
        <ele>2.4</ele>
        <time>2023-01-28T07:52:51Z</time>
      </trkpt>
      <trkpt lat="36.4946290" lon="-6.1428750">
        <ele>2.4</ele>
        <time>2023-01-28T07:52:52Z</time>
      </trkpt>
      <trkpt lat="36.4945870" lon="-6.1428580">
        <ele>2.4</ele>
        <time>2023-01-28T07:52:53Z</time>
      </trkpt>
      <trkpt lat="36.4945500" lon="-6.1428910">
        <ele>2.4</ele>
        <time>2023-01-28T07:52:54Z</time>
      </trkpt>
      <trkpt lat="36.4945040" lon="-6.1428900">
        <ele>2.4</ele>
        <time>2023-01-28T07:52:55Z</time>
      </trkpt>
      <trkpt lat="36.4944500" lon="-6.1428720">
        <ele>2.4</ele>
        <time>2023-01-28T07:52:56Z</time>
      </trkpt>
      <trkpt lat="36.4944110" lon="-6.1428680">
        <ele>2.4</ele>
        <time>2023-01-28T07:52:57Z</time>
      </trkpt>
      <trkpt lat="36.4943620" lon="-6.1428770">
        <ele>2.4</ele>
        <time>2023-01-28T07:52:58Z</time>
      </trkpt>
      <trkpt lat="36.4943190" lon="-6.1428820">
        <ele>2.4</ele>
        <time>2023-01-28T07:52:59Z</time>
      </trkpt>
      <trkpt lat="36.4942620" lon="-6.1429040">
        <ele>2.4</ele>
        <time>2023-01-28T07:53:00Z</time>
      </trkpt>
      <trkpt lat="36.4942220" lon="-6.1429140">
        <ele>2.4</ele>
        <time>2023-01-28T07:53:01Z</time>
      </trkpt>
      <trkpt lat="36.4941680" lon="-6.1429040">
        <ele>2.4</ele>
        <time>2023-01-28T07:53:02Z</time>
      </trkpt>
      <trkpt lat="36.4941270" lon="-6.1429170">
        <ele>2.4</ele>
        <time>2023-01-28T07:53:03Z</time>
      </trkpt>
      <trkpt lat="36.4940810" lon="-6.1429530">
        <ele>2.4</ele>
        <time>2023-01-28T07:53:04Z</time>
      </trkpt>
      <trkpt lat="36.4940300" lon="-6.1429500">
        <ele>2.4</ele>
        <time>2023-01-28T07:53:05Z</time>
      </trkpt>
      <trkpt lat="36.4939860" lon="-6.1429450">
        <ele>2.4</ele>
        <time>2023-01-28T07:53:06Z</time>
      </trkpt>
      <trkpt lat="36.4939330" lon="-6.1429550">
        <ele>2.2</ele>
        <time>2023-01-28T07:53:07Z</time>
      </trkpt>
      <trkpt lat="36.4938850" lon="-6.1429560">
        <ele>2.2</ele>
        <time>2023-01-28T07:53:08Z</time>
      </trkpt>
      <trkpt lat="36.4938510" lon="-6.1429610">
        <ele>2.4</ele>
        <time>2023-01-28T07:53:09Z</time>
      </trkpt>
      <trkpt lat="36.4937930" lon="-6.1429650">
        <ele>2.4</ele>
        <time>2023-01-28T07:53:10Z</time>
      </trkpt>
      <trkpt lat="36.4937540" lon="-6.1429770">
        <ele>2.6</ele>
        <time>2023-01-28T07:53:11Z</time>
      </trkpt>
      <trkpt lat="36.4936900" lon="-6.1429690">
        <ele>2.4</ele>
        <time>2023-01-28T07:53:12Z</time>
      </trkpt>
      <trkpt lat="36.4936560" lon="-6.1429670">
        <ele>2.2</ele>
        <time>2023-01-28T07:53:13Z</time>
      </trkpt>
      <trkpt lat="36.4936140" lon="-6.1429440">
        <ele>2.2</ele>
        <time>2023-01-28T07:53:14Z</time>
      </trkpt>
      <trkpt lat="36.4935620" lon="-6.1429050">
        <ele>2.2</ele>
        <time>2023-01-28T07:53:15Z</time>
      </trkpt>
      <trkpt lat="36.4935350" lon="-6.1428930">
        <ele>2.2</ele>
        <time>2023-01-28T07:53:16Z</time>
      </trkpt>
      <trkpt lat="36.4934910" lon="-6.1428670">
        <ele>2.0</ele>
        <time>2023-01-28T07:53:17Z</time>
      </trkpt>
      <trkpt lat="36.4934510" lon="-6.1428170">
        <ele>1.8</ele>
        <time>2023-01-28T07:53:18Z</time>
      </trkpt>
      <trkpt lat="36.4934040" lon="-6.1427890">
        <ele>1.8</ele>
        <time>2023-01-28T07:53:19Z</time>
      </trkpt>
      <trkpt lat="36.4933680" lon="-6.1427700">
        <ele>1.6</ele>
        <time>2023-01-28T07:53:20Z</time>
      </trkpt>
      <trkpt lat="36.4933280" lon="-6.1427560">
        <ele>1.6</ele>
        <time>2023-01-28T07:53:21Z</time>
      </trkpt>
      <trkpt lat="36.4932720" lon="-6.1427480">
        <ele>1.4</ele>
        <time>2023-01-28T07:53:22Z</time>
      </trkpt>
      <trkpt lat="36.4932300" lon="-6.1427530">
        <ele>1.4</ele>
        <time>2023-01-28T07:53:23Z</time>
      </trkpt>
      <trkpt lat="36.4931780" lon="-6.1427450">
        <ele>1.4</ele>
        <time>2023-01-28T07:53:24Z</time>
      </trkpt>
      <trkpt lat="36.4931610" lon="-6.1427630">
        <ele>1.4</ele>
        <time>2023-01-28T07:53:25Z</time>
      </trkpt>
      <trkpt lat="36.4931170" lon="-6.1427500">
        <ele>1.4</ele>
        <time>2023-01-28T07:53:26Z</time>
      </trkpt>
      <trkpt lat="36.4930780" lon="-6.1427380">
        <ele>1.4</ele>
        <time>2023-01-28T07:53:27Z</time>
      </trkpt>
      <trkpt lat="36.4930350" lon="-6.1427350">
        <ele>1.4</ele>
        <time>2023-01-28T07:53:28Z</time>
      </trkpt>
      <trkpt lat="36.4930000" lon="-6.1427270">
        <ele>1.6</ele>
        <time>2023-01-28T07:53:29Z</time>
      </trkpt>
      <trkpt lat="36.4929630" lon="-6.1427420">
        <ele>1.6</ele>
        <time>2023-01-28T07:53:30Z</time>
      </trkpt>
      <trkpt lat="36.4929250" lon="-6.1427750">
        <ele>1.6</ele>
        <time>2023-01-28T07:53:31Z</time>
      </trkpt>
      <trkpt lat="36.4928850" lon="-6.1427760">
        <ele>1.6</ele>
        <time>2023-01-28T07:53:32Z</time>
      </trkpt>
      <trkpt lat="36.4928300" lon="-6.1427650">
        <ele>1.6</ele>
        <time>2023-01-28T07:53:33Z</time>
      </trkpt>
      <trkpt lat="36.4927860" lon="-6.1427600">
        <ele>1.6</ele>
        <time>2023-01-28T07:53:34Z</time>
      </trkpt>
      <trkpt lat="36.4927530" lon="-6.1427640">
        <ele>1.6</ele>
        <time>2023-01-28T07:53:35Z</time>
      </trkpt>
      <trkpt lat="36.4927120" lon="-6.1427640">
        <ele>1.6</ele>
        <time>2023-01-28T07:53:36Z</time>
      </trkpt>
      <trkpt lat="36.4926690" lon="-6.1427800">
        <ele>1.8</ele>
        <time>2023-01-28T07:53:37Z</time>
      </trkpt>
      <trkpt lat="36.4926250" lon="-6.1427640">
        <ele>1.8</ele>
        <time>2023-01-28T07:53:38Z</time>
      </trkpt>
      <trkpt lat="36.4925890" lon="-6.1427720">
        <ele>1.8</ele>
        <time>2023-01-28T07:53:39Z</time>
      </trkpt>
      <trkpt lat="36.4925450" lon="-6.1427770">
        <ele>1.8</ele>
        <time>2023-01-28T07:53:40Z</time>
      </trkpt>
      <trkpt lat="36.4924860" lon="-6.1427820">
        <ele>1.8</ele>
        <time>2023-01-28T07:53:41Z</time>
      </trkpt>
      <trkpt lat="36.4924410" lon="-6.1428100">
        <ele>1.8</ele>
        <time>2023-01-28T07:53:42Z</time>
      </trkpt>
      <trkpt lat="36.4923980" lon="-6.1428000">
        <ele>1.8</ele>
        <time>2023-01-28T07:53:43Z</time>
      </trkpt>
      <trkpt lat="36.4923580" lon="-6.1428020">
        <ele>1.8</ele>
        <time>2023-01-28T07:53:44Z</time>
      </trkpt>
      <trkpt lat="36.4923000" lon="-6.1427820">
        <ele>1.8</ele>
        <time>2023-01-28T07:53:45Z</time>
      </trkpt>
      <trkpt lat="36.4922530" lon="-6.1427700">
        <ele>1.8</ele>
        <time>2023-01-28T07:53:46Z</time>
      </trkpt>
      <trkpt lat="36.4922320" lon="-6.1427770">
        <ele>1.8</ele>
        <time>2023-01-28T07:53:47Z</time>
      </trkpt>
      <trkpt lat="36.4922000" lon="-6.1427810">
        <ele>1.8</ele>
        <time>2023-01-28T07:53:48Z</time>
      </trkpt>
      <trkpt lat="36.4921570" lon="-6.1427770">
        <ele>1.8</ele>
        <time>2023-01-28T07:53:49Z</time>
      </trkpt>
      <trkpt lat="36.4921370" lon="-6.1427740">
        <ele>1.6</ele>
        <time>2023-01-28T07:53:50Z</time>
      </trkpt>
      <trkpt lat="36.4920990" lon="-6.1427640">
        <ele>1.6</ele>
        <time>2023-01-28T07:53:51Z</time>
      </trkpt>
      <trkpt lat="36.4920750" lon="-6.1427500">
        <ele>1.4</ele>
        <time>2023-01-28T07:53:52Z</time>
      </trkpt>
      <trkpt lat="36.4920600" lon="-6.1427270">
        <ele>1.4</ele>
        <time>2023-01-28T07:53:53Z</time>
      </trkpt>
      <trkpt lat="36.4920320" lon="-6.1426760">
        <ele>1.4</ele>
        <time>2023-01-28T07:53:54Z</time>
      </trkpt>
      <trkpt lat="36.4920270" lon="-6.1426420">
        <ele>1.4</ele>
        <time>2023-01-28T07:53:55Z</time>
      </trkpt>
      <trkpt lat="36.4920110" lon="-6.1426000">
        <ele>1.4</ele>
        <time>2023-01-28T07:53:56Z</time>
      </trkpt>
      <trkpt lat="36.4919790" lon="-6.1425380">
        <ele>1.2</ele>
        <time>2023-01-28T07:53:57Z</time>
      </trkpt>
      <trkpt lat="36.4919750" lon="-6.1424950">
        <ele>1.2</ele>
        <time>2023-01-28T07:53:58Z</time>
      </trkpt>
      <trkpt lat="36.4919560" lon="-6.1424430">
        <ele>1.2</ele>
        <time>2023-01-28T07:53:59Z</time>
      </trkpt>
      <trkpt lat="36.4919400" lon="-6.1423820">
        <ele>1.2</ele>
        <time>2023-01-28T07:54:00Z</time>
      </trkpt>
      <trkpt lat="36.4919270" lon="-6.1423320">
        <ele>1.2</ele>
        <time>2023-01-28T07:54:01Z</time>
      </trkpt>
      <trkpt lat="36.4919120" lon="-6.1422840">
        <ele>1.2</ele>
        <time>2023-01-28T07:54:02Z</time>
      </trkpt>
      <trkpt lat="36.4919150" lon="-6.1422410">
        <ele>1.2</ele>
        <time>2023-01-28T07:54:03Z</time>
      </trkpt>
      <trkpt lat="36.4919080" lon="-6.1422060">
        <ele>1.2</ele>
        <time>2023-01-28T07:54:04Z</time>
      </trkpt>
      <trkpt lat="36.4918920" lon="-6.1421500">
        <ele>1.2</ele>
        <time>2023-01-28T07:54:05Z</time>
      </trkpt>
      <trkpt lat="36.4918840" lon="-6.1420990">
        <ele>1.2</ele>
        <time>2023-01-28T07:54:06Z</time>
      </trkpt>
      <trkpt lat="36.4918780" lon="-6.1420590">
        <ele>1.2</ele>
        <time>2023-01-28T07:54:07Z</time>
      </trkpt>
      <trkpt lat="36.4918670" lon="-6.1420320">
        <ele>1.4</ele>
        <time>2023-01-28T07:54:08Z</time>
      </trkpt>
      <trkpt lat="36.4918700" lon="-6.1419990">
        <ele>1.4</ele>
        <time>2023-01-28T07:54:09Z</time>
      </trkpt>
      <trkpt lat="36.4918530" lon="-6.1419270">
        <ele>1.2</ele>
        <time>2023-01-28T07:54:10Z</time>
      </trkpt>
      <trkpt lat="36.4918470" lon="-6.1418870">
        <ele>1.2</ele>
        <time>2023-01-28T07:54:11Z</time>
      </trkpt>
      <trkpt lat="36.4918370" lon="-6.1418620">
        <ele>1.4</ele>
        <time>2023-01-28T07:54:12Z</time>
      </trkpt>
      <trkpt lat="36.4918240" lon="-6.1418380">
        <ele>1.6</ele>
        <time>2023-01-28T07:54:13Z</time>
      </trkpt>
      <trkpt lat="36.4917920" lon="-6.1418050">
        <ele>1.6</ele>
        <time>2023-01-28T07:54:14Z</time>
      </trkpt>
      <trkpt lat="36.4917750" lon="-6.1417790">
        <ele>1.6</ele>
        <time>2023-01-28T07:54:15Z</time>
      </trkpt>
      <trkpt lat="36.4917390" lon="-6.1417420">
        <ele>1.6</ele>
        <time>2023-01-28T07:54:16Z</time>
      </trkpt>
      <trkpt lat="36.4917010" lon="-6.1417250">
        <ele>1.4</ele>
        <time>2023-01-28T07:54:17Z</time>
      </trkpt>
      <trkpt lat="36.4916760" lon="-6.1416800">
        <ele>1.4</ele>
        <time>2023-01-28T07:54:18Z</time>
      </trkpt>
      <trkpt lat="36.4916520" lon="-6.1416550">
        <ele>1.6</ele>
        <time>2023-01-28T07:54:19Z</time>
      </trkpt>
      <trkpt lat="36.4916150" lon="-6.1416170">
        <ele>1.6</ele>
        <time>2023-01-28T07:54:20Z</time>
      </trkpt>
      <trkpt lat="36.4915900" lon="-6.1415680">
        <ele>1.6</ele>
        <time>2023-01-28T07:54:21Z</time>
      </trkpt>
      <trkpt lat="36.4915520" lon="-6.1415130">
        <ele>1.6</ele>
        <time>2023-01-28T07:54:22Z</time>
      </trkpt>
      <trkpt lat="36.4915210" lon="-6.1414970">
        <ele>1.6</ele>
        <time>2023-01-28T07:54:23Z</time>
      </trkpt>
      <trkpt lat="36.4914770" lon="-6.1414570">
        <ele>1.6</ele>
        <time>2023-01-28T07:54:24Z</time>
      </trkpt>
      <trkpt lat="36.4914500" lon="-6.1414340">
        <ele>1.6</ele>
        <time>2023-01-28T07:54:25Z</time>
      </trkpt>
      <trkpt lat="36.4914060" lon="-6.1413810">
        <ele>1.6</ele>
        <time>2023-01-28T07:54:26Z</time>
      </trkpt>
      <trkpt lat="36.4913730" lon="-6.1413690">
        <ele>1.6</ele>
        <time>2023-01-28T07:54:27Z</time>
      </trkpt>
      <trkpt lat="36.4913430" lon="-6.1413440">
        <ele>1.8</ele>
        <time>2023-01-28T07:54:28Z</time>
      </trkpt>
      <trkpt lat="36.4913140" lon="-6.1413170">
        <ele>1.8</ele>
        <time>2023-01-28T07:54:29Z</time>
      </trkpt>
      <trkpt lat="36.4912840" lon="-6.1412870">
        <ele>1.8</ele>
        <time>2023-01-28T07:54:30Z</time>
      </trkpt>
      <trkpt lat="36.4912610" lon="-6.1412550">
        <ele>1.8</ele>
        <time>2023-01-28T07:54:31Z</time>
      </trkpt>
      <trkpt lat="36.4912380" lon="-6.1411920">
        <ele>2.0</ele>
        <time>2023-01-28T07:54:32Z</time>
      </trkpt>
      <trkpt lat="36.4912150" lon="-6.1411350">
        <ele>2.0</ele>
        <time>2023-01-28T07:54:33Z</time>
      </trkpt>
      <trkpt lat="36.4911890" lon="-6.1410980">
        <ele>2.0</ele>
        <time>2023-01-28T07:54:34Z</time>
      </trkpt>
      <trkpt lat="36.4911630" lon="-6.1410460">
        <ele>2.0</ele>
        <time>2023-01-28T07:54:35Z</time>
      </trkpt>
      <trkpt lat="36.4911440" lon="-6.1409890">
        <ele>2.0</ele>
        <time>2023-01-28T07:54:36Z</time>
      </trkpt>
      <trkpt lat="36.4911300" lon="-6.1409430">
        <ele>2.0</ele>
        <time>2023-01-28T07:54:37Z</time>
      </trkpt>
      <trkpt lat="36.4911210" lon="-6.1409030">
        <ele>2.2</ele>
        <time>2023-01-28T07:54:38Z</time>
      </trkpt>
      <trkpt lat="36.4911130" lon="-6.1408660">
        <ele>2.2</ele>
        <time>2023-01-28T07:54:39Z</time>
      </trkpt>
      <trkpt lat="36.4910940" lon="-6.1408260">
        <ele>2.2</ele>
        <time>2023-01-28T07:54:40Z</time>
      </trkpt>
      <trkpt lat="36.4910980" lon="-6.1407780">
        <ele>2.4</ele>
        <time>2023-01-28T07:54:41Z</time>
      </trkpt>
      <trkpt lat="36.4910850" lon="-6.1407250">
        <ele>2.4</ele>
        <time>2023-01-28T07:54:42Z</time>
      </trkpt>
      <trkpt lat="36.4910670" lon="-6.1406740">
        <ele>2.4</ele>
        <time>2023-01-28T07:54:43Z</time>
      </trkpt>
      <trkpt lat="36.4910760" lon="-6.1406490">
        <ele>2.4</ele>
        <time>2023-01-28T07:54:44Z</time>
      </trkpt>
      <trkpt lat="36.4910790" lon="-6.1405830">
        <ele>2.6</ele>
        <time>2023-01-28T07:54:45Z</time>
      </trkpt>
      <trkpt lat="36.4910540" lon="-6.1405220">
        <ele>2.4</ele>
        <time>2023-01-28T07:54:46Z</time>
      </trkpt>
      <trkpt lat="36.4910470" lon="-6.1404810">
        <ele>2.6</ele>
        <time>2023-01-28T07:54:47Z</time>
      </trkpt>
      <trkpt lat="36.4910300" lon="-6.1404320">
        <ele>2.6</ele>
        <time>2023-01-28T07:54:48Z</time>
      </trkpt>
      <trkpt lat="36.4910120" lon="-6.1403740">
        <ele>2.4</ele>
        <time>2023-01-28T07:54:49Z</time>
      </trkpt>
      <trkpt lat="36.4910140" lon="-6.1403340">
        <ele>2.4</ele>
        <time>2023-01-28T07:54:50Z</time>
      </trkpt>
      <trkpt lat="36.4909980" lon="-6.1402750">
        <ele>2.4</ele>
        <time>2023-01-28T07:54:51Z</time>
      </trkpt>
      <trkpt lat="36.4909920" lon="-6.1402110">
        <ele>2.6</ele>
        <time>2023-01-28T07:54:52Z</time>
      </trkpt>
      <trkpt lat="36.4909810" lon="-6.1401790">
        <ele>2.6</ele>
        <time>2023-01-28T07:54:53Z</time>
      </trkpt>
      <trkpt lat="36.4909670" lon="-6.1401220">
        <ele>2.6</ele>
        <time>2023-01-28T07:54:54Z</time>
      </trkpt>
      <trkpt lat="36.4909510" lon="-6.1400800">
        <ele>2.6</ele>
        <time>2023-01-28T07:54:55Z</time>
      </trkpt>
      <trkpt lat="36.4909430" lon="-6.1400420">
        <ele>2.8</ele>
        <time>2023-01-28T07:54:56Z</time>
      </trkpt>
      <trkpt lat="36.4909270" lon="-6.1399980">
        <ele>2.8</ele>
        <time>2023-01-28T07:54:57Z</time>
      </trkpt>
      <trkpt lat="36.4909230" lon="-6.1399460">
        <ele>2.8</ele>
        <time>2023-01-28T07:54:58Z</time>
      </trkpt>
      <trkpt lat="36.4909190" lon="-6.1399110">
        <ele>3.0</ele>
        <time>2023-01-28T07:54:59Z</time>
      </trkpt>
      <trkpt lat="36.4908880" lon="-6.1398600">
        <ele>3.0</ele>
        <time>2023-01-28T07:55:00Z</time>
      </trkpt>
      <trkpt lat="36.4908710" lon="-6.1398010">
        <ele>3.0</ele>
        <time>2023-01-28T07:55:01Z</time>
      </trkpt>
      <trkpt lat="36.4908720" lon="-6.1397710">
        <ele>3.0</ele>
        <time>2023-01-28T07:55:02Z</time>
      </trkpt>
      <trkpt lat="36.4908550" lon="-6.1397080">
        <ele>3.2</ele>
        <time>2023-01-28T07:55:03Z</time>
      </trkpt>
      <trkpt lat="36.4908520" lon="-6.1396610">
        <ele>3.2</ele>
        <time>2023-01-28T07:55:04Z</time>
      </trkpt>
      <trkpt lat="36.4908460" lon="-6.1396130">
        <ele>3.2</ele>
        <time>2023-01-28T07:55:05Z</time>
      </trkpt>
      <trkpt lat="36.4908260" lon="-6.1395640">
        <ele>3.2</ele>
        <time>2023-01-28T07:55:06Z</time>
      </trkpt>
      <trkpt lat="36.4908190" lon="-6.1395140">
        <ele>3.2</ele>
        <time>2023-01-28T07:55:07Z</time>
      </trkpt>
      <trkpt lat="36.4908170" lon="-6.1394640">
        <ele>3.4</ele>
        <time>2023-01-28T07:55:08Z</time>
      </trkpt>
      <trkpt lat="36.4908100" lon="-6.1394230">
        <ele>3.4</ele>
        <time>2023-01-28T07:55:09Z</time>
      </trkpt>
      <trkpt lat="36.4908070" lon="-6.1393850">
        <ele>3.4</ele>
        <time>2023-01-28T07:55:10Z</time>
      </trkpt>
      <trkpt lat="36.4908120" lon="-6.1393420">
        <ele>3.4</ele>
        <time>2023-01-28T07:55:11Z</time>
      </trkpt>
      <trkpt lat="36.4908050" lon="-6.1392830">
        <ele>3.6</ele>
        <time>2023-01-28T07:55:12Z</time>
      </trkpt>
      <trkpt lat="36.4907820" lon="-6.1392350">
        <ele>3.6</ele>
        <time>2023-01-28T07:55:13Z</time>
      </trkpt>
      <trkpt lat="36.4907780" lon="-6.1392120">
        <ele>3.6</ele>
        <time>2023-01-28T07:55:14Z</time>
      </trkpt>
      <trkpt lat="36.4907720" lon="-6.1391550">
        <ele>3.6</ele>
        <time>2023-01-28T07:55:15Z</time>
      </trkpt>
      <trkpt lat="36.4907680" lon="-6.1391210">
        <ele>3.6</ele>
        <time>2023-01-28T07:55:16Z</time>
      </trkpt>
      <trkpt lat="36.4907480" lon="-6.1390770">
        <ele>3.8</ele>
        <time>2023-01-28T07:55:17Z</time>
      </trkpt>
      <trkpt lat="36.4907450" lon="-6.1390280">
        <ele>3.8</ele>
        <time>2023-01-28T07:55:18Z</time>
      </trkpt>
      <trkpt lat="36.4907330" lon="-6.1389800">
        <ele>3.8</ele>
        <time>2023-01-28T07:55:19Z</time>
      </trkpt>
      <trkpt lat="36.4907230" lon="-6.1389130">
        <ele>3.6</ele>
        <time>2023-01-28T07:55:20Z</time>
      </trkpt>
      <trkpt lat="36.4907070" lon="-6.1388690">
        <ele>3.6</ele>
        <time>2023-01-28T07:55:21Z</time>
      </trkpt>
      <trkpt lat="36.4906890" lon="-6.1388160">
        <ele>3.8</ele>
        <time>2023-01-28T07:55:22Z</time>
      </trkpt>
      <trkpt lat="36.4906810" lon="-6.1387750">
        <ele>3.8</ele>
        <time>2023-01-28T07:55:23Z</time>
      </trkpt>
      <trkpt lat="36.4906800" lon="-6.1387310">
        <ele>4.0</ele>
        <time>2023-01-28T07:55:24Z</time>
      </trkpt>
      <trkpt lat="36.4906760" lon="-6.1386950">
        <ele>4.0</ele>
        <time>2023-01-28T07:55:25Z</time>
      </trkpt>
      <trkpt lat="36.4906660" lon="-6.1386470">
        <ele>4.0</ele>
        <time>2023-01-28T07:55:26Z</time>
      </trkpt>
      <trkpt lat="36.4906690" lon="-6.1386050">
        <ele>4.0</ele>
        <time>2023-01-28T07:55:27Z</time>
      </trkpt>
      <trkpt lat="36.4906530" lon="-6.1385510">
        <ele>4.0</ele>
        <time>2023-01-28T07:55:28Z</time>
      </trkpt>
      <trkpt lat="36.4906400" lon="-6.1385120">
        <ele>4.2</ele>
        <time>2023-01-28T07:55:29Z</time>
      </trkpt>
      <trkpt lat="36.4906220" lon="-6.1384650">
        <ele>4.2</ele>
        <time>2023-01-28T07:55:30Z</time>
      </trkpt>
      <trkpt lat="36.4906130" lon="-6.1384170">
        <ele>4.2</ele>
        <time>2023-01-28T07:55:31Z</time>
      </trkpt>
      <trkpt lat="36.4905970" lon="-6.1383470">
        <ele>4.2</ele>
        <time>2023-01-28T07:55:32Z</time>
      </trkpt>
      <trkpt lat="36.4906170" lon="-6.1383200">
        <ele>4.2</ele>
        <time>2023-01-28T07:55:33Z</time>
      </trkpt>
      <trkpt lat="36.4906040" lon="-6.1382900">
        <ele>4.4</ele>
        <time>2023-01-28T07:55:34Z</time>
      </trkpt>
      <trkpt lat="36.4905880" lon="-6.1382380">
        <ele>4.4</ele>
        <time>2023-01-28T07:55:35Z</time>
      </trkpt>
      <trkpt lat="36.4905800" lon="-6.1381840">
        <ele>4.4</ele>
        <time>2023-01-28T07:55:36Z</time>
      </trkpt>
      <trkpt lat="36.4905750" lon="-6.1381340">
        <ele>4.4</ele>
        <time>2023-01-28T07:55:37Z</time>
      </trkpt>
      <trkpt lat="36.4905750" lon="-6.1380750">
        <ele>4.4</ele>
        <time>2023-01-28T07:55:38Z</time>
      </trkpt>
      <trkpt lat="36.4905680" lon="-6.1380120">
        <ele>4.6</ele>
        <time>2023-01-28T07:55:39Z</time>
      </trkpt>
      <trkpt lat="36.4905510" lon="-6.1379510">
        <ele>4.6</ele>
        <time>2023-01-28T07:55:40Z</time>
      </trkpt>
      <trkpt lat="36.4905520" lon="-6.1379110">
        <ele>4.4</ele>
        <time>2023-01-28T07:55:41Z</time>
      </trkpt>
      <trkpt lat="36.4905440" lon="-6.1378540">
        <ele>4.4</ele>
        <time>2023-01-28T07:55:42Z</time>
      </trkpt>
      <trkpt lat="36.4905510" lon="-6.1377990">
        <ele>4.4</ele>
        <time>2023-01-28T07:55:43Z</time>
      </trkpt>
      <trkpt lat="36.4905380" lon="-6.1377370">
        <ele>4.2</ele>
        <time>2023-01-28T07:55:44Z</time>
      </trkpt>
      <trkpt lat="36.4905300" lon="-6.1376720">
        <ele>3.8</ele>
        <time>2023-01-28T07:55:45Z</time>
      </trkpt>
      <trkpt lat="36.4905410" lon="-6.1376070">
        <ele>3.6</ele>
        <time>2023-01-28T07:55:46Z</time>
      </trkpt>
      <trkpt lat="36.4905400" lon="-6.1375440">
        <ele>3.4</ele>
        <time>2023-01-28T07:55:47Z</time>
      </trkpt>
      <trkpt lat="36.4905460" lon="-6.1374890">
        <ele>3.2</ele>
        <time>2023-01-28T07:55:48Z</time>
      </trkpt>
      <trkpt lat="36.4905460" lon="-6.1374270">
        <ele>3.0</ele>
        <time>2023-01-28T07:55:49Z</time>
      </trkpt>
      <trkpt lat="36.4905400" lon="-6.1373890">
        <ele>2.8</ele>
        <time>2023-01-28T07:55:50Z</time>
      </trkpt>
      <trkpt lat="36.4905350" lon="-6.1373170">
        <ele>2.6</ele>
        <time>2023-01-28T07:55:51Z</time>
      </trkpt>
      <trkpt lat="36.4905260" lon="-6.1372550">
        <ele>2.6</ele>
        <time>2023-01-28T07:55:52Z</time>
      </trkpt>
      <trkpt lat="36.4905210" lon="-6.1371530">
        <ele>2.6</ele>
        <time>2023-01-28T07:55:53Z</time>
      </trkpt>
      <trkpt lat="36.4905220" lon="-6.1370820">
        <ele>2.6</ele>
        <time>2023-01-28T07:55:54Z</time>
      </trkpt>
      <trkpt lat="36.4905240" lon="-6.1370300">
        <ele>2.6</ele>
        <time>2023-01-28T07:55:55Z</time>
      </trkpt>
      <trkpt lat="36.4905220" lon="-6.1369720">
        <ele>2.6</ele>
        <time>2023-01-28T07:55:56Z</time>
      </trkpt>
      <trkpt lat="36.4905120" lon="-6.1369180">
        <ele>2.4</ele>
        <time>2023-01-28T07:55:57Z</time>
      </trkpt>
      <trkpt lat="36.4905100" lon="-6.1368640">
        <ele>2.4</ele>
        <time>2023-01-28T07:55:58Z</time>
      </trkpt>
      <trkpt lat="36.4905290" lon="-6.1368180">
        <ele>2.6</ele>
        <time>2023-01-28T07:55:59Z</time>
      </trkpt>
      <trkpt lat="36.4905190" lon="-6.1367620">
        <ele>2.6</ele>
        <time>2023-01-28T07:56:00Z</time>
      </trkpt>
      <trkpt lat="36.4905370" lon="-6.1366980">
        <ele>2.6</ele>
        <time>2023-01-28T07:56:01Z</time>
      </trkpt>
      <trkpt lat="36.4905360" lon="-6.1366480">
        <ele>2.6</ele>
        <time>2023-01-28T07:56:02Z</time>
      </trkpt>
      <trkpt lat="36.4905440" lon="-6.1365700">
        <ele>2.4</ele>
        <time>2023-01-28T07:56:03Z</time>
      </trkpt>
      <trkpt lat="36.4905350" lon="-6.1365210">
        <ele>2.6</ele>
        <time>2023-01-28T07:56:04Z</time>
      </trkpt>
      <trkpt lat="36.4905270" lon="-6.1364540">
        <ele>2.8</ele>
        <time>2023-01-28T07:56:05Z</time>
      </trkpt>
      <trkpt lat="36.4905200" lon="-6.1363800">
        <ele>2.6</ele>
        <time>2023-01-28T07:56:06Z</time>
      </trkpt>
      <trkpt lat="36.4905260" lon="-6.1363280">
        <ele>2.6</ele>
        <time>2023-01-28T07:56:07Z</time>
      </trkpt>
      <trkpt lat="36.4905050" lon="-6.1362670">
        <ele>2.6</ele>
        <time>2023-01-28T07:56:08Z</time>
      </trkpt>
      <trkpt lat="36.4905110" lon="-6.1361990">
        <ele>2.6</ele>
        <time>2023-01-28T07:56:09Z</time>
      </trkpt>
      <trkpt lat="36.4905010" lon="-6.1361200">
        <ele>2.6</ele>
        <time>2023-01-28T07:56:10Z</time>
      </trkpt>
      <trkpt lat="36.4904980" lon="-6.1360810">
        <ele>2.6</ele>
        <time>2023-01-28T07:56:11Z</time>
      </trkpt>
      <trkpt lat="36.4905020" lon="-6.1360410">
        <ele>2.6</ele>
        <time>2023-01-28T07:56:12Z</time>
      </trkpt>
      <trkpt lat="36.4905140" lon="-6.1359860">
        <ele>2.6</ele>
        <time>2023-01-28T07:56:13Z</time>
      </trkpt>
      <trkpt lat="36.4905070" lon="-6.1359240">
        <ele>2.6</ele>
        <time>2023-01-28T07:56:14Z</time>
      </trkpt>
      <trkpt lat="36.4905030" lon="-6.1358850">
        <ele>2.8</ele>
        <time>2023-01-28T07:56:15Z</time>
      </trkpt>
      <trkpt lat="36.4905100" lon="-6.1358300">
        <ele>2.8</ele>
        <time>2023-01-28T07:56:16Z</time>
      </trkpt>
      <trkpt lat="36.4905130" lon="-6.1357680">
        <ele>2.8</ele>
        <time>2023-01-28T07:56:17Z</time>
      </trkpt>
      <trkpt lat="36.4905120" lon="-6.1357070">
        <ele>3.0</ele>
        <time>2023-01-28T07:56:18Z</time>
      </trkpt>
      <trkpt lat="36.4905000" lon="-6.1356490">
        <ele>2.8</ele>
        <time>2023-01-28T07:56:19Z</time>
      </trkpt>
      <trkpt lat="36.4904970" lon="-6.1356040">
        <ele>2.8</ele>
        <time>2023-01-28T07:56:20Z</time>
      </trkpt>
      <trkpt lat="36.4905230" lon="-6.1355620">
        <ele>3.0</ele>
        <time>2023-01-28T07:56:21Z</time>
      </trkpt>
      <trkpt lat="36.4905240" lon="-6.1355000">
        <ele>3.0</ele>
        <time>2023-01-28T07:56:22Z</time>
      </trkpt>
      <trkpt lat="36.4905160" lon="-6.1354440">
        <ele>3.0</ele>
        <time>2023-01-28T07:56:23Z</time>
      </trkpt>
      <trkpt lat="36.4905270" lon="-6.1353760">
        <ele>3.0</ele>
        <time>2023-01-28T07:56:24Z</time>
      </trkpt>
      <trkpt lat="36.4905440" lon="-6.1353270">
        <ele>3.0</ele>
        <time>2023-01-28T07:56:25Z</time>
      </trkpt>
      <trkpt lat="36.4905370" lon="-6.1352580">
        <ele>3.0</ele>
        <time>2023-01-28T07:56:26Z</time>
      </trkpt>
      <trkpt lat="36.4905430" lon="-6.1351860">
        <ele>3.2</ele>
        <time>2023-01-28T07:56:27Z</time>
      </trkpt>
      <trkpt lat="36.4905380" lon="-6.1351240">
        <ele>3.2</ele>
        <time>2023-01-28T07:56:28Z</time>
      </trkpt>
      <trkpt lat="36.4905430" lon="-6.1350700">
        <ele>3.2</ele>
        <time>2023-01-28T07:56:29Z</time>
      </trkpt>
      <trkpt lat="36.4905170" lon="-6.1350090">
        <ele>3.2</ele>
        <time>2023-01-28T07:56:30Z</time>
      </trkpt>
      <trkpt lat="36.4905130" lon="-6.1349530">
        <ele>3.2</ele>
        <time>2023-01-28T07:56:31Z</time>
      </trkpt>
      <trkpt lat="36.4905110" lon="-6.1349090">
        <ele>3.2</ele>
        <time>2023-01-28T07:56:32Z</time>
      </trkpt>
      <trkpt lat="36.4905220" lon="-6.1348550">
        <ele>3.2</ele>
        <time>2023-01-28T07:56:33Z</time>
      </trkpt>
      <trkpt lat="36.4905240" lon="-6.1347950">
        <ele>3.2</ele>
        <time>2023-01-28T07:56:34Z</time>
      </trkpt>
      <trkpt lat="36.4905110" lon="-6.1347270">
        <ele>3.2</ele>
        <time>2023-01-28T07:56:35Z</time>
      </trkpt>
      <trkpt lat="36.4905320" lon="-6.1346630">
        <ele>3.2</ele>
        <time>2023-01-28T07:56:36Z</time>
      </trkpt>
      <trkpt lat="36.4905110" lon="-6.1346090">
        <ele>3.4</ele>
        <time>2023-01-28T07:56:37Z</time>
      </trkpt>
      <trkpt lat="36.4905190" lon="-6.1345760">
        <ele>3.4</ele>
        <time>2023-01-28T07:56:38Z</time>
      </trkpt>
      <trkpt lat="36.4905250" lon="-6.1345390">
        <ele>3.4</ele>
        <time>2023-01-28T07:56:39Z</time>
      </trkpt>
      <trkpt lat="36.4905300" lon="-6.1344990">
        <ele>3.6</ele>
        <time>2023-01-28T07:56:40Z</time>
      </trkpt>
      <trkpt lat="36.4905490" lon="-6.1344490">
        <ele>3.6</ele>
        <time>2023-01-28T07:56:41Z</time>
      </trkpt>
      <trkpt lat="36.4905440" lon="-6.1344030">
        <ele>3.6</ele>
        <time>2023-01-28T07:56:42Z</time>
      </trkpt>
      <trkpt lat="36.4905460" lon="-6.1343600">
        <ele>3.6</ele>
        <time>2023-01-28T07:56:43Z</time>
      </trkpt>
      <trkpt lat="36.4905550" lon="-6.1342980">
        <ele>3.6</ele>
        <time>2023-01-28T07:56:44Z</time>
      </trkpt>
      <trkpt lat="36.4905510" lon="-6.1342410">
        <ele>3.6</ele>
        <time>2023-01-28T07:56:45Z</time>
      </trkpt>
      <trkpt lat="36.4905400" lon="-6.1341670">
        <ele>3.8</ele>
        <time>2023-01-28T07:56:46Z</time>
      </trkpt>
      <trkpt lat="36.4905410" lon="-6.1341070">
        <ele>3.8</ele>
        <time>2023-01-28T07:56:47Z</time>
      </trkpt>
      <trkpt lat="36.4905410" lon="-6.1340420">
        <ele>3.8</ele>
        <time>2023-01-28T07:56:48Z</time>
      </trkpt>
      <trkpt lat="36.4905360" lon="-6.1339650">
        <ele>3.8</ele>
        <time>2023-01-28T07:56:49Z</time>
      </trkpt>
      <trkpt lat="36.4905480" lon="-6.1339140">
        <ele>4.0</ele>
        <time>2023-01-28T07:56:50Z</time>
      </trkpt>
      <trkpt lat="36.4905340" lon="-6.1338540">
        <ele>4.0</ele>
        <time>2023-01-28T07:56:51Z</time>
      </trkpt>
      <trkpt lat="36.4905120" lon="-6.1337700">
        <ele>4.0</ele>
        <time>2023-01-28T07:56:52Z</time>
      </trkpt>
      <trkpt lat="36.4905170" lon="-6.1337180">
        <ele>4.0</ele>
        <time>2023-01-28T07:56:53Z</time>
      </trkpt>
      <trkpt lat="36.4905180" lon="-6.1336450">
        <ele>4.0</ele>
        <time>2023-01-28T07:56:54Z</time>
      </trkpt>
      <trkpt lat="36.4905230" lon="-6.1335960">
        <ele>4.0</ele>
        <time>2023-01-28T07:56:55Z</time>
      </trkpt>
      <trkpt lat="36.4905300" lon="-6.1335240">
        <ele>4.0</ele>
        <time>2023-01-28T07:56:56Z</time>
      </trkpt>
      <trkpt lat="36.4905300" lon="-6.1334570">
        <ele>4.0</ele>
        <time>2023-01-28T07:56:57Z</time>
      </trkpt>
      <trkpt lat="36.4905210" lon="-6.1333980">
        <ele>4.0</ele>
        <time>2023-01-28T07:56:58Z</time>
      </trkpt>
      <trkpt lat="36.4905320" lon="-6.1333510">
        <ele>4.0</ele>
        <time>2023-01-28T07:56:59Z</time>
      </trkpt>
      <trkpt lat="36.4905410" lon="-6.1332990">
        <ele>4.2</ele>
        <time>2023-01-28T07:57:00Z</time>
      </trkpt>
      <trkpt lat="36.4905500" lon="-6.1332590">
        <ele>4.2</ele>
        <time>2023-01-28T07:57:01Z</time>
      </trkpt>
      <trkpt lat="36.4905600" lon="-6.1332210">
        <ele>4.2</ele>
        <time>2023-01-28T07:57:02Z</time>
      </trkpt>
      <trkpt lat="36.4905720" lon="-6.1331650">
        <ele>4.2</ele>
        <time>2023-01-28T07:57:03Z</time>
      </trkpt>
      <trkpt lat="36.4905760" lon="-6.1331080">
        <ele>4.4</ele>
        <time>2023-01-28T07:57:04Z</time>
      </trkpt>
      <trkpt lat="36.4905610" lon="-6.1330500">
        <ele>4.4</ele>
        <time>2023-01-28T07:57:05Z</time>
      </trkpt>
      <trkpt lat="36.4905890" lon="-6.1330110">
        <ele>4.4</ele>
        <time>2023-01-28T07:57:06Z</time>
      </trkpt>
      <trkpt lat="36.4905930" lon="-6.1329570">
        <ele>4.6</ele>
        <time>2023-01-28T07:57:07Z</time>
      </trkpt>
      <trkpt lat="36.4906080" lon="-6.1329190">
        <ele>4.6</ele>
        <time>2023-01-28T07:57:08Z</time>
      </trkpt>
      <trkpt lat="36.4906150" lon="-6.1328630">
        <ele>4.6</ele>
        <time>2023-01-28T07:57:09Z</time>
      </trkpt>
      <trkpt lat="36.4906220" lon="-6.1328130">
        <ele>4.6</ele>
        <time>2023-01-28T07:57:10Z</time>
      </trkpt>
      <trkpt lat="36.4906340" lon="-6.1327680">
        <ele>4.6</ele>
        <time>2023-01-28T07:57:11Z</time>
      </trkpt>
      <trkpt lat="36.4906360" lon="-6.1327260">
        <ele>4.6</ele>
        <time>2023-01-28T07:57:12Z</time>
      </trkpt>
      <trkpt lat="36.4906110" lon="-6.1326780">
        <ele>4.8</ele>
        <time>2023-01-28T07:57:13Z</time>
      </trkpt>
      <trkpt lat="36.4906200" lon="-6.1326440">
        <ele>4.8</ele>
        <time>2023-01-28T07:57:14Z</time>
      </trkpt>
      <trkpt lat="36.4906220" lon="-6.1325940">
        <ele>4.8</ele>
        <time>2023-01-28T07:57:15Z</time>
      </trkpt>
      <trkpt lat="36.4906290" lon="-6.1325510">
        <ele>4.8</ele>
        <time>2023-01-28T07:57:16Z</time>
      </trkpt>
      <trkpt lat="36.4906310" lon="-6.1325020">
        <ele>5.0</ele>
        <time>2023-01-28T07:57:17Z</time>
      </trkpt>
      <trkpt lat="36.4906350" lon="-6.1324510">
        <ele>5.0</ele>
        <time>2023-01-28T07:57:18Z</time>
      </trkpt>
      <trkpt lat="36.4906410" lon="-6.1323970">
        <ele>5.0</ele>
        <time>2023-01-28T07:57:19Z</time>
      </trkpt>
      <trkpt lat="36.4906370" lon="-6.1323480">
        <ele>5.0</ele>
        <time>2023-01-28T07:57:20Z</time>
      </trkpt>
      <trkpt lat="36.4906300" lon="-6.1322910">
        <ele>5.2</ele>
        <time>2023-01-28T07:57:21Z</time>
      </trkpt>
      <trkpt lat="36.4906410" lon="-6.1322540">
        <ele>5.2</ele>
        <time>2023-01-28T07:57:22Z</time>
      </trkpt>
      <trkpt lat="36.4906340" lon="-6.1322040">
        <ele>5.2</ele>
        <time>2023-01-28T07:57:23Z</time>
      </trkpt>
      <trkpt lat="36.4906340" lon="-6.1321670">
        <ele>5.4</ele>
        <time>2023-01-28T07:57:24Z</time>
      </trkpt>
      <trkpt lat="36.4906320" lon="-6.1321130">
        <ele>5.6</ele>
        <time>2023-01-28T07:57:25Z</time>
      </trkpt>
      <trkpt lat="36.4906470" lon="-6.1320550">
        <ele>5.6</ele>
        <time>2023-01-28T07:57:26Z</time>
      </trkpt>
      <trkpt lat="36.4906590" lon="-6.1320170">
        <ele>5.6</ele>
        <time>2023-01-28T07:57:27Z</time>
      </trkpt>
      <trkpt lat="36.4906800" lon="-6.1319780">
        <ele>5.6</ele>
        <time>2023-01-28T07:57:28Z</time>
      </trkpt>
      <trkpt lat="36.4906950" lon="-6.1319460">
        <ele>5.8</ele>
        <time>2023-01-28T07:57:29Z</time>
      </trkpt>
      <trkpt lat="36.4906950" lon="-6.1318980">
        <ele>5.8</ele>
        <time>2023-01-28T07:57:30Z</time>
      </trkpt>
      <trkpt lat="36.4907100" lon="-6.1318490">
        <ele>6.0</ele>
        <time>2023-01-28T07:57:31Z</time>
      </trkpt>
      <trkpt lat="36.4907120" lon="-6.1318080">
        <ele>6.0</ele>
        <time>2023-01-28T07:57:32Z</time>
      </trkpt>
      <trkpt lat="36.4907220" lon="-6.1317480">
        <ele>6.2</ele>
        <time>2023-01-28T07:57:33Z</time>
      </trkpt>
      <trkpt lat="36.4907380" lon="-6.1317130">
        <ele>6.2</ele>
        <time>2023-01-28T07:57:34Z</time>
      </trkpt>
      <trkpt lat="36.4907530" lon="-6.1316710">
        <ele>6.2</ele>
        <time>2023-01-28T07:57:35Z</time>
      </trkpt>
      <trkpt lat="36.4907640" lon="-6.1316390">
        <ele>6.2</ele>
        <time>2023-01-28T07:57:36Z</time>
      </trkpt>
      <trkpt lat="36.4907800" lon="-6.1315830">
        <ele>6.2</ele>
        <time>2023-01-28T07:57:37Z</time>
      </trkpt>
      <trkpt lat="36.4907740" lon="-6.1315310">
        <ele>6.4</ele>
        <time>2023-01-28T07:57:38Z</time>
      </trkpt>
      <trkpt lat="36.4907890" lon="-6.1315010">
        <ele>6.4</ele>
        <time>2023-01-28T07:57:39Z</time>
      </trkpt>
      <trkpt lat="36.4907870" lon="-6.1314360">
        <ele>6.4</ele>
        <time>2023-01-28T07:57:40Z</time>
      </trkpt>
      <trkpt lat="36.4907990" lon="-6.1313740">
        <ele>6.6</ele>
        <time>2023-01-28T07:57:41Z</time>
      </trkpt>
      <trkpt lat="36.4908040" lon="-6.1313320">
        <ele>6.6</ele>
        <time>2023-01-28T07:57:42Z</time>
      </trkpt>
      <trkpt lat="36.4908160" lon="-6.1312740">
        <ele>6.8</ele>
        <time>2023-01-28T07:57:43Z</time>
      </trkpt>
      <trkpt lat="36.4908200" lon="-6.1312110">
        <ele>7.2</ele>
        <time>2023-01-28T07:57:44Z</time>
      </trkpt>
      <trkpt lat="36.4908300" lon="-6.1311660">
        <ele>7.0</ele>
        <time>2023-01-28T07:57:45Z</time>
      </trkpt>
      <trkpt lat="36.4908320" lon="-6.1311180">
        <ele>7.0</ele>
        <time>2023-01-28T07:57:46Z</time>
      </trkpt>
      <trkpt lat="36.4908340" lon="-6.1310660">
        <ele>7.2</ele>
        <time>2023-01-28T07:57:47Z</time>
      </trkpt>
      <trkpt lat="36.4908270" lon="-6.1310120">
        <ele>7.2</ele>
        <time>2023-01-28T07:57:48Z</time>
      </trkpt>
      <trkpt lat="36.4908120" lon="-6.1309610">
        <ele>7.2</ele>
        <time>2023-01-28T07:57:49Z</time>
      </trkpt>
      <trkpt lat="36.4907990" lon="-6.1309250">
        <ele>7.4</ele>
        <time>2023-01-28T07:57:50Z</time>
      </trkpt>
      <trkpt lat="36.4908000" lon="-6.1308900">
        <ele>7.6</ele>
        <time>2023-01-28T07:57:51Z</time>
      </trkpt>
      <trkpt lat="36.4908090" lon="-6.1308640">
        <ele>7.6</ele>
        <time>2023-01-28T07:57:52Z</time>
      </trkpt>
      <trkpt lat="36.4908100" lon="-6.1307920">
        <ele>7.8</ele>
        <time>2023-01-28T07:57:53Z</time>
      </trkpt>
      <trkpt lat="36.4908030" lon="-6.1307400">
        <ele>7.8</ele>
        <time>2023-01-28T07:57:54Z</time>
      </trkpt>
      <trkpt lat="36.4908090" lon="-6.1307000">
        <ele>7.8</ele>
        <time>2023-01-28T07:57:55Z</time>
      </trkpt>
      <trkpt lat="36.4908060" lon="-6.1306630">
        <ele>7.8</ele>
        <time>2023-01-28T07:57:56Z</time>
      </trkpt>
      <trkpt lat="36.4908000" lon="-6.1306230">
        <ele>7.8</ele>
        <time>2023-01-28T07:57:57Z</time>
      </trkpt>
      <trkpt lat="36.4908000" lon="-6.1305810">
        <ele>7.8</ele>
        <time>2023-01-28T07:57:58Z</time>
      </trkpt>
      <trkpt lat="36.4907980" lon="-6.1305410">
        <ele>8.0</ele>
        <time>2023-01-28T07:57:59Z</time>
      </trkpt>
      <trkpt lat="36.4908170" lon="-6.1304880">
        <ele>8.0</ele>
        <time>2023-01-28T07:58:00Z</time>
      </trkpt>
      <trkpt lat="36.4908110" lon="-6.1304310">
        <ele>7.8</ele>
        <time>2023-01-28T07:58:01Z</time>
      </trkpt>
      <trkpt lat="36.4908240" lon="-6.1304130">
        <ele>7.8</ele>
        <time>2023-01-28T07:58:02Z</time>
      </trkpt>
      <trkpt lat="36.4908140" lon="-6.1303370">
        <ele>8.0</ele>
        <time>2023-01-28T07:58:03Z</time>
      </trkpt>
      <trkpt lat="36.4908000" lon="-6.1302890">
        <ele>8.0</ele>
        <time>2023-01-28T07:58:04Z</time>
      </trkpt>
      <trkpt lat="36.4907960" lon="-6.1302300">
        <ele>8.0</ele>
        <time>2023-01-28T07:58:05Z</time>
      </trkpt>
      <trkpt lat="36.4907850" lon="-6.1301920">
        <ele>8.0</ele>
        <time>2023-01-28T07:58:06Z</time>
      </trkpt>
      <trkpt lat="36.4907960" lon="-6.1301430">
        <ele>8.0</ele>
        <time>2023-01-28T07:58:07Z</time>
      </trkpt>
      <trkpt lat="36.4907890" lon="-6.1300900">
        <ele>8.2</ele>
        <time>2023-01-28T07:58:08Z</time>
      </trkpt>
      <trkpt lat="36.4907770" lon="-6.1300240">
        <ele>8.2</ele>
        <time>2023-01-28T07:58:09Z</time>
      </trkpt>
      <trkpt lat="36.4907800" lon="-6.1299670">
        <ele>8.2</ele>
        <time>2023-01-28T07:58:10Z</time>
      </trkpt>
      <trkpt lat="36.4907830" lon="-6.1299210">
        <ele>8.4</ele>
        <time>2023-01-28T07:58:11Z</time>
      </trkpt>
      <trkpt lat="36.4907880" lon="-6.1298380">
        <ele>8.4</ele>
        <time>2023-01-28T07:58:12Z</time>
      </trkpt>
      <trkpt lat="36.4907830" lon="-6.1297880">
        <ele>8.6</ele>
        <time>2023-01-28T07:58:13Z</time>
      </trkpt>
      <trkpt lat="36.4907630" lon="-6.1297280">
        <ele>8.6</ele>
        <time>2023-01-28T07:58:14Z</time>
      </trkpt>
      <trkpt lat="36.4907540" lon="-6.1296860">
        <ele>8.6</ele>
        <time>2023-01-28T07:58:15Z</time>
      </trkpt>
      <trkpt lat="36.4907480" lon="-6.1296400">
        <ele>8.8</ele>
        <time>2023-01-28T07:58:16Z</time>
      </trkpt>
      <trkpt lat="36.4907420" lon="-6.1295910">
        <ele>8.8</ele>
        <time>2023-01-28T07:58:17Z</time>
      </trkpt>
      <trkpt lat="36.4907340" lon="-6.1295520">
        <ele>9.0</ele>
        <time>2023-01-28T07:58:18Z</time>
      </trkpt>
      <trkpt lat="36.4907340" lon="-6.1295250">
        <ele>9.0</ele>
        <time>2023-01-28T07:58:19Z</time>
      </trkpt>
      <trkpt lat="36.4907200" lon="-6.1294900">
        <ele>9.2</ele>
        <time>2023-01-28T07:58:20Z</time>
      </trkpt>
      <trkpt lat="36.4907170" lon="-6.1294370">
        <ele>9.2</ele>
        <time>2023-01-28T07:58:21Z</time>
      </trkpt>
      <trkpt lat="36.4907140" lon="-6.1293790">
        <ele>9.4</ele>
        <time>2023-01-28T07:58:22Z</time>
      </trkpt>
      <trkpt lat="36.4907030" lon="-6.1293440">
        <ele>9.6</ele>
        <time>2023-01-28T07:58:23Z</time>
      </trkpt>
      <trkpt lat="36.4906930" lon="-6.1293160">
        <ele>9.6</ele>
        <time>2023-01-28T07:58:24Z</time>
      </trkpt>
      <trkpt lat="36.4906850" lon="-6.1292780">
        <ele>9.6</ele>
        <time>2023-01-28T07:58:25Z</time>
      </trkpt>
      <trkpt lat="36.4906870" lon="-6.1292140">
        <ele>9.6</ele>
        <time>2023-01-28T07:58:26Z</time>
      </trkpt>
      <trkpt lat="36.4906920" lon="-6.1292070">
        <ele>9.6</ele>
        <time>2023-01-28T07:58:27Z</time>
      </trkpt>
      <trkpt lat="36.4906720" lon="-6.1291580">
        <ele>9.6</ele>
        <time>2023-01-28T07:58:28Z</time>
      </trkpt>
      <trkpt lat="36.4907000" lon="-6.1291180">
        <ele>9.6</ele>
        <time>2023-01-28T07:58:29Z</time>
      </trkpt>
      <trkpt lat="36.4907150" lon="-6.1290990">
        <ele>9.6</ele>
        <time>2023-01-28T07:58:30Z</time>
      </trkpt>
      <trkpt lat="36.4907160" lon="-6.1290480">
        <ele>9.6</ele>
        <time>2023-01-28T07:58:31Z</time>
      </trkpt>
      <trkpt lat="36.4907360" lon="-6.1290010">
        <ele>9.6</ele>
        <time>2023-01-28T07:58:32Z</time>
      </trkpt>
      <trkpt lat="36.4907270" lon="-6.1289540">
        <ele>9.4</ele>
        <time>2023-01-28T07:58:33Z</time>
      </trkpt>
      <trkpt lat="36.4907250" lon="-6.1289010">
        <ele>9.4</ele>
        <time>2023-01-28T07:58:34Z</time>
      </trkpt>
      <trkpt lat="36.4907340" lon="-6.1288650">
        <ele>9.4</ele>
        <time>2023-01-28T07:58:35Z</time>
      </trkpt>
      <trkpt lat="36.4907540" lon="-6.1288320">
        <ele>9.2</ele>
        <time>2023-01-28T07:58:36Z</time>
      </trkpt>
      <trkpt lat="36.4907700" lon="-6.1287950">
        <ele>9.2</ele>
        <time>2023-01-28T07:58:37Z</time>
      </trkpt>
      <trkpt lat="36.4907800" lon="-6.1287520">
        <ele>9.2</ele>
        <time>2023-01-28T07:58:38Z</time>
      </trkpt>
      <trkpt lat="36.4907740" lon="-6.1287240">
        <ele>9.0</ele>
        <time>2023-01-28T07:58:39Z</time>
      </trkpt>
      <trkpt lat="36.4907590" lon="-6.1286900">
        <ele>9.0</ele>
        <time>2023-01-28T07:58:40Z</time>
      </trkpt>
      <trkpt lat="36.4907660" lon="-6.1286220">
        <ele>9.0</ele>
        <time>2023-01-28T07:58:41Z</time>
      </trkpt>
      <trkpt lat="36.4907640" lon="-6.1285570">
        <ele>8.8</ele>
        <time>2023-01-28T07:58:42Z</time>
      </trkpt>
      <trkpt lat="36.4907460" lon="-6.1285020">
        <ele>8.6</ele>
        <time>2023-01-28T07:58:43Z</time>
      </trkpt>
      <trkpt lat="36.4907560" lon="-6.1284930">
        <ele>8.4</ele>
        <time>2023-01-28T07:58:44Z</time>
      </trkpt>
      <trkpt lat="36.4907360" lon="-6.1284370">
        <ele>8.2</ele>
        <time>2023-01-28T07:58:45Z</time>
      </trkpt>
      <trkpt lat="36.4907400" lon="-6.1283730">
        <ele>8.0</ele>
        <time>2023-01-28T07:58:46Z</time>
      </trkpt>
      <trkpt lat="36.4907390" lon="-6.1282810">
        <ele>8.0</ele>
        <time>2023-01-28T07:58:47Z</time>
      </trkpt>
      <trkpt lat="36.4907340" lon="-6.1281900">
        <ele>7.8</ele>
        <time>2023-01-28T07:58:48Z</time>
      </trkpt>
      <trkpt lat="36.4907230" lon="-6.1281370">
        <ele>7.6</ele>
        <time>2023-01-28T07:58:49Z</time>
      </trkpt>
      <trkpt lat="36.4907160" lon="-6.1280540">
        <ele>7.4</ele>
        <time>2023-01-28T07:58:50Z</time>
      </trkpt>
      <trkpt lat="36.4907070" lon="-6.1279960">
        <ele>7.2</ele>
        <time>2023-01-28T07:58:51Z</time>
      </trkpt>
      <trkpt lat="36.4906960" lon="-6.1279550">
        <ele>7.0</ele>
        <time>2023-01-28T07:58:52Z</time>
      </trkpt>
      <trkpt lat="36.4907070" lon="-6.1278990">
        <ele>6.8</ele>
        <time>2023-01-28T07:58:53Z</time>
      </trkpt>
      <trkpt lat="36.4906850" lon="-6.1278230">
        <ele>6.6</ele>
        <time>2023-01-28T07:58:54Z</time>
      </trkpt>
      <trkpt lat="36.4907100" lon="-6.1277310">
        <ele>6.4</ele>
        <time>2023-01-28T07:58:55Z</time>
      </trkpt>
      <trkpt lat="36.4906930" lon="-6.1276690">
        <ele>6.2</ele>
        <time>2023-01-28T07:58:56Z</time>
      </trkpt>
      <trkpt lat="36.4907010" lon="-6.1275640">
        <ele>6.0</ele>
        <time>2023-01-28T07:58:57Z</time>
      </trkpt>
      <trkpt lat="36.4906690" lon="-6.1274760">
        <ele>5.8</ele>
        <time>2023-01-28T07:58:58Z</time>
      </trkpt>
      <trkpt lat="36.4906730" lon="-6.1274130">
        <ele>5.6</ele>
        <time>2023-01-28T07:58:59Z</time>
      </trkpt>
      <trkpt lat="36.4906600" lon="-6.1273470">
        <ele>5.4</ele>
        <time>2023-01-28T07:59:00Z</time>
      </trkpt>
      <trkpt lat="36.4906740" lon="-6.1272780">
        <ele>5.2</ele>
        <time>2023-01-28T07:59:01Z</time>
      </trkpt>
      <trkpt lat="36.4906590" lon="-6.1272360">
        <ele>5.0</ele>
        <time>2023-01-28T07:59:02Z</time>
      </trkpt>
      <trkpt lat="36.4906430" lon="-6.1271750">
        <ele>5.0</ele>
        <time>2023-01-28T07:59:03Z</time>
      </trkpt>
      <trkpt lat="36.4906200" lon="-6.1271190">
        <ele>4.8</ele>
        <time>2023-01-28T07:59:04Z</time>
      </trkpt>
      <trkpt lat="36.4905980" lon="-6.1270720">
        <ele>4.8</ele>
        <time>2023-01-28T07:59:05Z</time>
      </trkpt>
      <trkpt lat="36.4905860" lon="-6.1270080">
        <ele>4.8</ele>
        <time>2023-01-28T07:59:06Z</time>
      </trkpt>
      <trkpt lat="36.4905660" lon="-6.1269660">
        <ele>4.6</ele>
        <time>2023-01-28T07:59:07Z</time>
      </trkpt>
      <trkpt lat="36.4905350" lon="-6.1269200">
        <ele>4.6</ele>
        <time>2023-01-28T07:59:08Z</time>
      </trkpt>
      <trkpt lat="36.4904930" lon="-6.1268350">
        <ele>4.6</ele>
        <time>2023-01-28T07:59:09Z</time>
      </trkpt>
      <trkpt lat="36.4904680" lon="-6.1267930">
        <ele>4.6</ele>
        <time>2023-01-28T07:59:10Z</time>
      </trkpt>
      <trkpt lat="36.4904410" lon="-6.1267270">
        <ele>4.6</ele>
        <time>2023-01-28T07:59:11Z</time>
      </trkpt>
      <trkpt lat="36.4904110" lon="-6.1266640">
        <ele>4.6</ele>
        <time>2023-01-28T07:59:12Z</time>
      </trkpt>
      <trkpt lat="36.4903840" lon="-6.1266130">
        <ele>4.6</ele>
        <time>2023-01-28T07:59:13Z</time>
      </trkpt>
      <trkpt lat="36.4903850" lon="-6.1265770">
        <ele>4.6</ele>
        <time>2023-01-28T07:59:14Z</time>
      </trkpt>
      <trkpt lat="36.4903740" lon="-6.1265410">
        <ele>4.6</ele>
        <time>2023-01-28T07:59:15Z</time>
      </trkpt>
      <trkpt lat="36.4903570" lon="-6.1264720">
        <ele>4.4</ele>
        <time>2023-01-28T07:59:16Z</time>
      </trkpt>
      <trkpt lat="36.4903060" lon="-6.1264010">
        <ele>4.4</ele>
        <time>2023-01-28T07:59:17Z</time>
      </trkpt>
      <trkpt lat="36.4903090" lon="-6.1263810">
        <ele>4.4</ele>
        <time>2023-01-28T07:59:18Z</time>
      </trkpt>
      <trkpt lat="36.4902980" lon="-6.1263220">
        <ele>4.4</ele>
        <time>2023-01-28T07:59:19Z</time>
      </trkpt>
      <trkpt lat="36.4902790" lon="-6.1262550">
        <ele>4.4</ele>
        <time>2023-01-28T07:59:20Z</time>
      </trkpt>
      <trkpt lat="36.4902660" lon="-6.1261920">
        <ele>4.4</ele>
        <time>2023-01-28T07:59:21Z</time>
      </trkpt>
      <trkpt lat="36.4902460" lon="-6.1261080">
        <ele>4.6</ele>
        <time>2023-01-28T07:59:22Z</time>
      </trkpt>
      <trkpt lat="36.4902550" lon="-6.1260650">
        <ele>4.6</ele>
        <time>2023-01-28T07:59:23Z</time>
      </trkpt>
      <trkpt lat="36.4902470" lon="-6.1260210">
        <ele>4.4</ele>
        <time>2023-01-28T07:59:24Z</time>
      </trkpt>
      <trkpt lat="36.4902520" lon="-6.1259760">
        <ele>4.4</ele>
        <time>2023-01-28T07:59:25Z</time>
      </trkpt>
      <trkpt lat="36.4902350" lon="-6.1259100">
        <ele>4.6</ele>
        <time>2023-01-28T07:59:26Z</time>
      </trkpt>
      <trkpt lat="36.4902320" lon="-6.1258530">
        <ele>4.6</ele>
        <time>2023-01-28T07:59:27Z</time>
      </trkpt>
      <trkpt lat="36.4902410" lon="-6.1257930">
        <ele>4.6</ele>
        <time>2023-01-28T07:59:28Z</time>
      </trkpt>
      <trkpt lat="36.4902290" lon="-6.1257290">
        <ele>4.8</ele>
        <time>2023-01-28T07:59:29Z</time>
      </trkpt>
      <trkpt lat="36.4902330" lon="-6.1256910">
        <ele>4.8</ele>
        <time>2023-01-28T07:59:30Z</time>
      </trkpt>
      <trkpt lat="36.4902380" lon="-6.1256250">
        <ele>4.8</ele>
        <time>2023-01-28T07:59:31Z</time>
      </trkpt>
      <trkpt lat="36.4902410" lon="-6.1255720">
        <ele>4.8</ele>
        <time>2023-01-28T07:59:32Z</time>
      </trkpt>
      <trkpt lat="36.4902540" lon="-6.1255320">
        <ele>5.0</ele>
        <time>2023-01-28T07:59:33Z</time>
      </trkpt>
      <trkpt lat="36.4902550" lon="-6.1254970">
        <ele>5.0</ele>
        <time>2023-01-28T07:59:34Z</time>
      </trkpt>
      <trkpt lat="36.4902620" lon="-6.1254600">
        <ele>5.0</ele>
        <time>2023-01-28T07:59:35Z</time>
      </trkpt>
      <trkpt lat="36.4902730" lon="-6.1254210">
        <ele>5.0</ele>
        <time>2023-01-28T07:59:36Z</time>
      </trkpt>
      <trkpt lat="36.4902660" lon="-6.1253530">
        <ele>5.0</ele>
        <time>2023-01-28T07:59:37Z</time>
      </trkpt>
      <trkpt lat="36.4902700" lon="-6.1252970">
        <ele>5.0</ele>
        <time>2023-01-28T07:59:38Z</time>
      </trkpt>
      <trkpt lat="36.4902670" lon="-6.1252360">
        <ele>5.0</ele>
        <time>2023-01-28T07:59:39Z</time>
      </trkpt>
      <trkpt lat="36.4902620" lon="-6.1251830">
        <ele>5.0</ele>
        <time>2023-01-28T07:59:40Z</time>
      </trkpt>
      <trkpt lat="36.4902560" lon="-6.1251060">
        <ele>4.8</ele>
        <time>2023-01-28T07:59:41Z</time>
      </trkpt>
      <trkpt lat="36.4902640" lon="-6.1250520">
        <ele>5.0</ele>
        <time>2023-01-28T07:59:42Z</time>
      </trkpt>
      <trkpt lat="36.4902620" lon="-6.1250000">
        <ele>5.0</ele>
        <time>2023-01-28T07:59:43Z</time>
      </trkpt>
      <trkpt lat="36.4902600" lon="-6.1249310">
        <ele>5.0</ele>
        <time>2023-01-28T07:59:44Z</time>
      </trkpt>
      <trkpt lat="36.4902610" lon="-6.1248890">
        <ele>5.0</ele>
        <time>2023-01-28T07:59:45Z</time>
      </trkpt>
      <trkpt lat="36.4902600" lon="-6.1248470">
        <ele>5.2</ele>
        <time>2023-01-28T07:59:46Z</time>
      </trkpt>
      <trkpt lat="36.4902530" lon="-6.1248090">
        <ele>5.2</ele>
        <time>2023-01-28T07:59:47Z</time>
      </trkpt>
      <trkpt lat="36.4902450" lon="-6.1247680">
        <ele>5.2</ele>
        <time>2023-01-28T07:59:48Z</time>
      </trkpt>
      <trkpt lat="36.4902350" lon="-6.1247370">
        <ele>5.2</ele>
        <time>2023-01-28T07:59:49Z</time>
      </trkpt>
      <trkpt lat="36.4902240" lon="-6.1246870">
        <ele>5.0</ele>
        <time>2023-01-28T07:59:50Z</time>
      </trkpt>
      <trkpt lat="36.4902310" lon="-6.1246340">
        <ele>5.2</ele>
        <time>2023-01-28T07:59:51Z</time>
      </trkpt>
      <trkpt lat="36.4902380" lon="-6.1245860">
        <ele>5.2</ele>
        <time>2023-01-28T07:59:52Z</time>
      </trkpt>
      <trkpt lat="36.4902330" lon="-6.1245460">
        <ele>5.2</ele>
        <time>2023-01-28T07:59:53Z</time>
      </trkpt>
      <trkpt lat="36.4902300" lon="-6.1245050">
        <ele>5.2</ele>
        <time>2023-01-28T07:59:54Z</time>
      </trkpt>
      <trkpt lat="36.4902150" lon="-6.1244090">
        <ele>5.4</ele>
        <time>2023-01-28T07:59:55Z</time>
      </trkpt>
      <trkpt lat="36.4902280" lon="-6.1243670">
        <ele>5.4</ele>
        <time>2023-01-28T07:59:56Z</time>
      </trkpt>
      <trkpt lat="36.4902340" lon="-6.1243290">
        <ele>5.4</ele>
        <time>2023-01-28T07:59:57Z</time>
      </trkpt>
      <trkpt lat="36.4902330" lon="-6.1242880">
        <ele>5.4</ele>
        <time>2023-01-28T07:59:58Z</time>
      </trkpt>
      <trkpt lat="36.4902320" lon="-6.1242450">
        <ele>5.4</ele>
        <time>2023-01-28T07:59:59Z</time>
      </trkpt>
      <trkpt lat="36.4902260" lon="-6.1241950">
        <ele>5.4</ele>
        <time>2023-01-28T08:00:00Z</time>
      </trkpt>
      <trkpt lat="36.4902280" lon="-6.1241510">
        <ele>5.4</ele>
        <time>2023-01-28T08:00:01Z</time>
      </trkpt>
      <trkpt lat="36.4902280" lon="-6.1241070">
        <ele>5.6</ele>
        <time>2023-01-28T08:00:02Z</time>
      </trkpt>
      <trkpt lat="36.4902270" lon="-6.1240660">
        <ele>5.6</ele>
        <time>2023-01-28T08:00:03Z</time>
      </trkpt>
      <trkpt lat="36.4902290" lon="-6.1240200">
        <ele>5.4</ele>
        <time>2023-01-28T08:00:04Z</time>
      </trkpt>
      <trkpt lat="36.4902320" lon="-6.1239710">
        <ele>5.4</ele>
        <time>2023-01-28T08:00:05Z</time>
      </trkpt>
      <trkpt lat="36.4902310" lon="-6.1239200">
        <ele>5.4</ele>
        <time>2023-01-28T08:00:06Z</time>
      </trkpt>
      <trkpt lat="36.4902340" lon="-6.1238700">
        <ele>5.6</ele>
        <time>2023-01-28T08:00:07Z</time>
      </trkpt>
      <trkpt lat="36.4902370" lon="-6.1238220">
        <ele>5.6</ele>
        <time>2023-01-28T08:00:08Z</time>
      </trkpt>
      <trkpt lat="36.4902430" lon="-6.1237750">
        <ele>5.6</ele>
        <time>2023-01-28T08:00:09Z</time>
      </trkpt>
      <trkpt lat="36.4902520" lon="-6.1237270">
        <ele>5.6</ele>
        <time>2023-01-28T08:00:10Z</time>
      </trkpt>
      <trkpt lat="36.4902610" lon="-6.1236810">
        <ele>5.8</ele>
        <time>2023-01-28T08:00:11Z</time>
      </trkpt>
      <trkpt lat="36.4902720" lon="-6.1236360">
        <ele>5.8</ele>
        <time>2023-01-28T08:00:12Z</time>
      </trkpt>
      <trkpt lat="36.4902840" lon="-6.1235910">
        <ele>5.8</ele>
        <time>2023-01-28T08:00:13Z</time>
      </trkpt>
      <trkpt lat="36.4902940" lon="-6.1235490">
        <ele>6.0</ele>
        <time>2023-01-28T08:00:14Z</time>
      </trkpt>
      <trkpt lat="36.4903040" lon="-6.1235100">
        <ele>6.2</ele>
        <time>2023-01-28T08:00:15Z</time>
      </trkpt>
      <trkpt lat="36.4903180" lon="-6.1234730">
        <ele>6.2</ele>
        <time>2023-01-28T08:00:16Z</time>
      </trkpt>
      <trkpt lat="36.4903330" lon="-6.1234330">
        <ele>6.2</ele>
        <time>2023-01-28T08:00:17Z</time>
      </trkpt>
      <trkpt lat="36.4903380" lon="-6.1233910">
        <ele>6.2</ele>
        <time>2023-01-28T08:00:18Z</time>
      </trkpt>
      <trkpt lat="36.4903340" lon="-6.1233460">
        <ele>6.4</ele>
        <time>2023-01-28T08:00:19Z</time>
      </trkpt>
      <trkpt lat="36.4903280" lon="-6.1233080">
        <ele>6.4</ele>
        <time>2023-01-28T08:00:20Z</time>
      </trkpt>
      <trkpt lat="36.4903230" lon="-6.1232640">
        <ele>6.6</ele>
        <time>2023-01-28T08:00:21Z</time>
      </trkpt>
      <trkpt lat="36.4903200" lon="-6.1232220">
        <ele>6.6</ele>
        <time>2023-01-28T08:00:22Z</time>
      </trkpt>
      <trkpt lat="36.4903150" lon="-6.1231780">
        <ele>6.8</ele>
        <time>2023-01-28T08:00:23Z</time>
      </trkpt>
      <trkpt lat="36.4903100" lon="-6.1231310">
        <ele>6.8</ele>
        <time>2023-01-28T08:00:24Z</time>
      </trkpt>
      <trkpt lat="36.4902990" lon="-6.1230840">
        <ele>6.8</ele>
        <time>2023-01-28T08:00:25Z</time>
      </trkpt>
      <trkpt lat="36.4902920" lon="-6.1230370">
        <ele>6.8</ele>
        <time>2023-01-28T08:00:26Z</time>
      </trkpt>
      <trkpt lat="36.4902860" lon="-6.1229870">
        <ele>7.0</ele>
        <time>2023-01-28T08:00:27Z</time>
      </trkpt>
      <trkpt lat="36.4902790" lon="-6.1229380">
        <ele>7.0</ele>
        <time>2023-01-28T08:00:28Z</time>
      </trkpt>
      <trkpt lat="36.4902720" lon="-6.1228900">
        <ele>7.0</ele>
        <time>2023-01-28T08:00:29Z</time>
      </trkpt>
      <trkpt lat="36.4902640" lon="-6.1228440">
        <ele>7.0</ele>
        <time>2023-01-28T08:00:30Z</time>
      </trkpt>
      <trkpt lat="36.4902550" lon="-6.1228010">
        <ele>7.0</ele>
        <time>2023-01-28T08:00:31Z</time>
      </trkpt>
      <trkpt lat="36.4902480" lon="-6.1227570">
        <ele>7.0</ele>
        <time>2023-01-28T08:00:32Z</time>
      </trkpt>
      <trkpt lat="36.4902420" lon="-6.1227150">
        <ele>7.0</ele>
        <time>2023-01-28T08:00:33Z</time>
      </trkpt>
      <trkpt lat="36.4902380" lon="-6.1226680">
        <ele>7.2</ele>
        <time>2023-01-28T08:00:34Z</time>
      </trkpt>
      <trkpt lat="36.4902280" lon="-6.1226290">
        <ele>7.4</ele>
        <time>2023-01-28T08:00:35Z</time>
      </trkpt>
      <trkpt lat="36.4902170" lon="-6.1226000">
        <ele>7.4</ele>
        <time>2023-01-28T08:00:36Z</time>
      </trkpt>
      <trkpt lat="36.4902240" lon="-6.1225690">
        <ele>7.4</ele>
        <time>2023-01-28T08:00:37Z</time>
      </trkpt>
      <trkpt lat="36.4902120" lon="-6.1225300">
        <ele>7.4</ele>
        <time>2023-01-28T08:00:38Z</time>
      </trkpt>
      <trkpt lat="36.4901800" lon="-6.1224800">
        <ele>7.6</ele>
        <time>2023-01-28T08:00:39Z</time>
      </trkpt>
      <trkpt lat="36.4901770" lon="-6.1224240">
        <ele>7.6</ele>
        <time>2023-01-28T08:00:40Z</time>
      </trkpt>
      <trkpt lat="36.4901640" lon="-6.1223700">
        <ele>7.6</ele>
        <time>2023-01-28T08:00:41Z</time>
      </trkpt>
      <trkpt lat="36.4901650" lon="-6.1223400">
        <ele>7.8</ele>
        <time>2023-01-28T08:00:42Z</time>
      </trkpt>
      <trkpt lat="36.4901610" lon="-6.1223220">
        <ele>8.0</ele>
        <time>2023-01-28T08:00:43Z</time>
      </trkpt>
      <trkpt lat="36.4901490" lon="-6.1222900">
        <ele>8.0</ele>
        <time>2023-01-28T08:00:44Z</time>
      </trkpt>
      <trkpt lat="36.4901500" lon="-6.1222370">
        <ele>8.0</ele>
        <time>2023-01-28T08:00:45Z</time>
      </trkpt>
      <trkpt lat="36.4901390" lon="-6.1221840">
        <ele>8.0</ele>
        <time>2023-01-28T08:00:46Z</time>
      </trkpt>
      <trkpt lat="36.4901250" lon="-6.1221430">
        <ele>8.0</ele>
        <time>2023-01-28T08:00:47Z</time>
      </trkpt>
      <trkpt lat="36.4901250" lon="-6.1220970">
        <ele>8.2</ele>
        <time>2023-01-28T08:00:48Z</time>
      </trkpt>
      <trkpt lat="36.4901250" lon="-6.1220700">
        <ele>8.4</ele>
        <time>2023-01-28T08:00:49Z</time>
      </trkpt>
      <trkpt lat="36.4901280" lon="-6.1220140">
        <ele>8.4</ele>
        <time>2023-01-28T08:00:50Z</time>
      </trkpt>
      <trkpt lat="36.4900920" lon="-6.1219720">
        <ele>8.4</ele>
        <time>2023-01-28T08:00:51Z</time>
      </trkpt>
      <trkpt lat="36.4900850" lon="-6.1219150">
        <ele>8.4</ele>
        <time>2023-01-28T08:00:52Z</time>
      </trkpt>
      <trkpt lat="36.4900770" lon="-6.1218580">
        <ele>8.6</ele>
        <time>2023-01-28T08:00:53Z</time>
      </trkpt>
      <trkpt lat="36.4900550" lon="-6.1218460">
        <ele>8.6</ele>
        <time>2023-01-28T08:00:54Z</time>
      </trkpt>
      <trkpt lat="36.4900510" lon="-6.1218160">
        <ele>8.8</ele>
        <time>2023-01-28T08:00:55Z</time>
      </trkpt>
      <trkpt lat="36.4900460" lon="-6.1217740">
        <ele>9.0</ele>
        <time>2023-01-28T08:00:56Z</time>
      </trkpt>
      <trkpt lat="36.4900510" lon="-6.1217290">
        <ele>9.0</ele>
        <time>2023-01-28T08:00:57Z</time>
      </trkpt>
      <trkpt lat="36.4900400" lon="-6.1216890">
        <ele>9.2</ele>
        <time>2023-01-28T08:00:58Z</time>
      </trkpt>
      <trkpt lat="36.4900430" lon="-6.1216810">
        <ele>9.2</ele>
        <time>2023-01-28T08:00:59Z</time>
      </trkpt>
      <trkpt lat="36.4900210" lon="-6.1216420">
        <ele>9.2</ele>
        <time>2023-01-28T08:01:00Z</time>
      </trkpt>
      <trkpt lat="36.4900100" lon="-6.1215910">
        <ele>9.4</ele>
        <time>2023-01-28T08:01:01Z</time>
      </trkpt>
      <trkpt lat="36.4899750" lon="-6.1215530">
        <ele>9.4</ele>
        <time>2023-01-28T08:01:02Z</time>
      </trkpt>
      <trkpt lat="36.4899650" lon="-6.1215220">
        <ele>9.4</ele>
        <time>2023-01-28T08:01:03Z</time>
      </trkpt>
      <trkpt lat="36.4899430" lon="-6.1214700">
        <ele>9.4</ele>
        <time>2023-01-28T08:01:04Z</time>
      </trkpt>
      <trkpt lat="36.4899490" lon="-6.1213920">
        <ele>9.6</ele>
        <time>2023-01-28T08:01:05Z</time>
      </trkpt>
      <trkpt lat="36.4899440" lon="-6.1213690">
        <ele>9.8</ele>
        <time>2023-01-28T08:01:06Z</time>
      </trkpt>
      <trkpt lat="36.4899760" lon="-6.1213490">
        <ele>9.8</ele>
        <time>2023-01-28T08:01:07Z</time>
      </trkpt>
      <trkpt lat="36.4899660" lon="-6.1213220">
        <ele>9.8</ele>
        <time>2023-01-28T08:01:08Z</time>
      </trkpt>
      <trkpt lat="36.4899400" lon="-6.1212920">
        <ele>10.0</ele>
        <time>2023-01-28T08:01:09Z</time>
      </trkpt>
      <trkpt lat="36.4899260" lon="-6.1212600">
        <ele>10.2</ele>
        <time>2023-01-28T08:01:10Z</time>
      </trkpt>
      <trkpt lat="36.4898930" lon="-6.1211770">
        <ele>10.2</ele>
        <time>2023-01-28T08:01:11Z</time>
      </trkpt>
      <trkpt lat="36.4898700" lon="-6.1211310">
        <ele>10.4</ele>
        <time>2023-01-28T08:01:12Z</time>
      </trkpt>
      <trkpt lat="36.4898460" lon="-6.1210890">
        <ele>10.4</ele>
        <time>2023-01-28T08:01:13Z</time>
      </trkpt>
      <trkpt lat="36.4898400" lon="-6.1210720">
        <ele>10.4</ele>
        <time>2023-01-28T08:01:14Z</time>
      </trkpt>
      <trkpt lat="36.4898060" lon="-6.1210620">
        <ele>10.4</ele>
        <time>2023-01-28T08:01:15Z</time>
      </trkpt>
      <trkpt lat="36.4898000" lon="-6.1210360">
        <ele>10.4</ele>
        <time>2023-01-28T08:01:16Z</time>
      </trkpt>
      <trkpt lat="36.4897930" lon="-6.1210180">
        <ele>10.4</ele>
        <time>2023-01-28T08:01:17Z</time>
      </trkpt>
      <trkpt lat="36.4897590" lon="-6.1209740">
        <ele>10.4</ele>
        <time>2023-01-28T08:01:18Z</time>
      </trkpt>
      <trkpt lat="36.4897310" lon="-6.1209400">
        <ele>10.6</ele>
        <time>2023-01-28T08:01:19Z</time>
      </trkpt>
      <trkpt lat="36.4897100" lon="-6.1209240">
        <ele>10.6</ele>
        <time>2023-01-28T08:01:20Z</time>
      </trkpt>
      <trkpt lat="36.4896920" lon="-6.1209170">
        <ele>10.8</ele>
        <time>2023-01-28T08:01:21Z</time>
      </trkpt>
      <trkpt lat="36.4896580" lon="-6.1208790">
        <ele>10.6</ele>
        <time>2023-01-28T08:01:22Z</time>
      </trkpt>
      <trkpt lat="36.4896290" lon="-6.1208550">
        <ele>11.0</ele>
        <time>2023-01-28T08:01:23Z</time>
      </trkpt>
      <trkpt lat="36.4896130" lon="-6.1208140">
        <ele>11.2</ele>
        <time>2023-01-28T08:01:24Z</time>
      </trkpt>
      <trkpt lat="36.4896110" lon="-6.1207870">
        <ele>11.4</ele>
        <time>2023-01-28T08:01:25Z</time>
      </trkpt>
      <trkpt lat="36.4896060" lon="-6.1207690">
        <ele>11.6</ele>
        <time>2023-01-28T08:01:26Z</time>
      </trkpt>
      <trkpt lat="36.4895870" lon="-6.1207370">
        <ele>11.6</ele>
        <time>2023-01-28T08:01:27Z</time>
      </trkpt>
      <trkpt lat="36.4895650" lon="-6.1206950">
        <ele>11.2</ele>
        <time>2023-01-28T08:01:28Z</time>
      </trkpt>
      <trkpt lat="36.4895600" lon="-6.1206580">
        <ele>10.8</ele>
        <time>2023-01-28T08:01:29Z</time>
      </trkpt>
      <trkpt lat="36.4895270" lon="-6.1206030">
        <ele>10.6</ele>
        <time>2023-01-28T08:01:30Z</time>
      </trkpt>
      <trkpt lat="36.4895190" lon="-6.1205710">
        <ele>10.4</ele>
        <time>2023-01-28T08:01:31Z</time>
      </trkpt>
      <trkpt lat="36.4894860" lon="-6.1205310">
        <ele>10.4</ele>
        <time>2023-01-28T08:01:32Z</time>
      </trkpt>
      <trkpt lat="36.4894700" lon="-6.1205100">
        <ele>10.4</ele>
        <time>2023-01-28T08:01:33Z</time>
      </trkpt>
      <trkpt lat="36.4894430" lon="-6.1204670">
        <ele>10.4</ele>
        <time>2023-01-28T08:01:34Z</time>
      </trkpt>
      <trkpt lat="36.4894230" lon="-6.1204450">
        <ele>10.6</ele>
        <time>2023-01-28T08:01:35Z</time>
      </trkpt>
      <trkpt lat="36.4894100" lon="-6.1204130">
        <ele>10.6</ele>
        <time>2023-01-28T08:01:36Z</time>
      </trkpt>
      <trkpt lat="36.4894000" lon="-6.1203970">
        <ele>10.6</ele>
        <time>2023-01-28T08:01:37Z</time>
      </trkpt>
      <trkpt lat="36.4893930" lon="-6.1203620">
        <ele>10.6</ele>
        <time>2023-01-28T08:01:38Z</time>
      </trkpt>
      <trkpt lat="36.4893830" lon="-6.1203310">
        <ele>10.8</ele>
        <time>2023-01-28T08:01:39Z</time>
      </trkpt>
      <trkpt lat="36.4893590" lon="-6.1202870">
        <ele>10.8</ele>
        <time>2023-01-28T08:01:40Z</time>
      </trkpt>
      <trkpt lat="36.4893370" lon="-6.1202840">
        <ele>10.8</ele>
        <time>2023-01-28T08:01:41Z</time>
      </trkpt>
      <trkpt lat="36.4893100" lon="-6.1202460">
        <ele>10.8</ele>
        <time>2023-01-28T08:01:42Z</time>
      </trkpt>
      <trkpt lat="36.4892720" lon="-6.1202010">
        <ele>10.8</ele>
        <time>2023-01-28T08:01:43Z</time>
      </trkpt>
      <trkpt lat="36.4892440" lon="-6.1201780">
        <ele>10.8</ele>
        <time>2023-01-28T08:01:44Z</time>
      </trkpt>
      <trkpt lat="36.4892170" lon="-6.1201470">
        <ele>10.8</ele>
        <time>2023-01-28T08:01:45Z</time>
      </trkpt>
      <trkpt lat="36.4891750" lon="-6.1201180">
        <ele>10.8</ele>
        <time>2023-01-28T08:01:46Z</time>
      </trkpt>
      <trkpt lat="36.4891600" lon="-6.1200680">
        <ele>11.2</ele>
        <time>2023-01-28T08:01:47Z</time>
      </trkpt>
      <trkpt lat="36.4891280" lon="-6.1200250">
        <ele>11.0</ele>
        <time>2023-01-28T08:01:48Z</time>
      </trkpt>
      <trkpt lat="36.4890970" lon="-6.1199790">
        <ele>11.2</ele>
        <time>2023-01-28T08:01:49Z</time>
      </trkpt>
      <trkpt lat="36.4890700" lon="-6.1199330">
        <ele>11.2</ele>
        <time>2023-01-28T08:01:50Z</time>
      </trkpt>
      <trkpt lat="36.4890700" lon="-6.1199040">
        <ele>11.2</ele>
        <time>2023-01-28T08:01:51Z</time>
      </trkpt>
      <trkpt lat="36.4890530" lon="-6.1198470">
        <ele>11.4</ele>
        <time>2023-01-28T08:01:52Z</time>
      </trkpt>
      <trkpt lat="36.4890370" lon="-6.1198050">
        <ele>11.4</ele>
        <time>2023-01-28T08:01:53Z</time>
      </trkpt>
      <trkpt lat="36.4890290" lon="-6.1197860">
        <ele>11.4</ele>
        <time>2023-01-28T08:01:54Z</time>
      </trkpt>
      <trkpt lat="36.4890030" lon="-6.1197320">
        <ele>11.4</ele>
        <time>2023-01-28T08:01:55Z</time>
      </trkpt>
      <trkpt lat="36.4889810" lon="-6.1196880">
        <ele>11.4</ele>
        <time>2023-01-28T08:01:56Z</time>
      </trkpt>
      <trkpt lat="36.4889540" lon="-6.1196590">
        <ele>11.4</ele>
        <time>2023-01-28T08:01:57Z</time>
      </trkpt>
      <trkpt lat="36.4889200" lon="-6.1195990">
        <ele>11.4</ele>
        <time>2023-01-28T08:01:58Z</time>
      </trkpt>
      <trkpt lat="36.4888850" lon="-6.1195590">
        <ele>11.4</ele>
        <time>2023-01-28T08:01:59Z</time>
      </trkpt>
      <trkpt lat="36.4888670" lon="-6.1195570">
        <ele>11.4</ele>
        <time>2023-01-28T08:02:00Z</time>
      </trkpt>
      <trkpt lat="36.4888660" lon="-6.1195260">
        <ele>11.4</ele>
        <time>2023-01-28T08:02:01Z</time>
      </trkpt>
      <trkpt lat="36.4888500" lon="-6.1194860">
        <ele>11.4</ele>
        <time>2023-01-28T08:02:02Z</time>
      </trkpt>
      <trkpt lat="36.4888140" lon="-6.1194290">
        <ele>11.4</ele>
        <time>2023-01-28T08:02:03Z</time>
      </trkpt>
      <trkpt lat="36.4887850" lon="-6.1193380">
        <ele>11.2</ele>
        <time>2023-01-28T08:02:04Z</time>
      </trkpt>
      <trkpt lat="36.4887740" lon="-6.1192960">
        <ele>11.2</ele>
        <time>2023-01-28T08:02:05Z</time>
      </trkpt>
      <trkpt lat="36.4887630" lon="-6.1192630">
        <ele>11.2</ele>
        <time>2023-01-28T08:02:06Z</time>
      </trkpt>
      <trkpt lat="36.4887580" lon="-6.1192480">
        <ele>11.4</ele>
        <time>2023-01-28T08:02:07Z</time>
      </trkpt>
      <trkpt lat="36.4887370" lon="-6.1192470">
        <ele>11.4</ele>
        <time>2023-01-28T08:02:08Z</time>
      </trkpt>
      <trkpt lat="36.4887140" lon="-6.1192150">
        <ele>11.4</ele>
        <time>2023-01-28T08:02:09Z</time>
      </trkpt>
      <trkpt lat="36.4886870" lon="-6.1191840">
        <ele>11.4</ele>
        <time>2023-01-28T08:02:11Z</time>
      </trkpt>
      <trkpt lat="36.4886850" lon="-6.1190870">
        <ele>11.4</ele>
        <time>2023-01-28T08:02:12Z</time>
      </trkpt>
      <trkpt lat="36.4886940" lon="-6.1190640">
        <ele>11.6</ele>
        <time>2023-01-28T08:02:13Z</time>
      </trkpt>
      <trkpt lat="36.4886740" lon="-6.1190290">
        <ele>11.6</ele>
        <time>2023-01-28T08:02:14Z</time>
      </trkpt>
      <trkpt lat="36.4886750" lon="-6.1190060">
        <ele>11.6</ele>
        <time>2023-01-28T08:02:15Z</time>
      </trkpt>
      <trkpt lat="36.4886540" lon="-6.1189770">
        <ele>11.6</ele>
        <time>2023-01-28T08:02:16Z</time>
      </trkpt>
      <trkpt lat="36.4886390" lon="-6.1189680">
        <ele>11.6</ele>
        <time>2023-01-28T08:02:18Z</time>
      </trkpt>
      <trkpt lat="36.4886010" lon="-6.1188700">
        <ele>11.6</ele>
        <time>2023-01-28T08:02:19Z</time>
      </trkpt>
      <trkpt lat="36.4885830" lon="-6.1188380">
        <ele>11.4</ele>
        <time>2023-01-28T08:02:20Z</time>
      </trkpt>
      <trkpt lat="36.4885510" lon="-6.1187830">
        <ele>11.6</ele>
        <time>2023-01-28T08:02:21Z</time>
      </trkpt>
      <trkpt lat="36.4885250" lon="-6.1187340">
        <ele>11.6</ele>
        <time>2023-01-28T08:02:22Z</time>
      </trkpt>
      <trkpt lat="36.4885000" lon="-6.1186820">
        <ele>11.6</ele>
        <time>2023-01-28T08:02:23Z</time>
      </trkpt>
      <trkpt lat="36.4884930" lon="-6.1186580">
        <ele>11.6</ele>
        <time>2023-01-28T08:02:24Z</time>
      </trkpt>
      <trkpt lat="36.4884670" lon="-6.1186290">
        <ele>11.6</ele>
        <time>2023-01-28T08:02:26Z</time>
      </trkpt>
      <trkpt lat="36.4884380" lon="-6.1186000">
        <ele>11.4</ele>
        <time>2023-01-28T08:02:27Z</time>
      </trkpt>
      <trkpt lat="36.4883830" lon="-6.1185500">
        <ele>11.4</ele>
        <time>2023-01-28T08:02:29Z</time>
      </trkpt>
      <trkpt lat="36.4883570" lon="-6.1185230">
        <ele>11.4</ele>
        <time>2023-01-28T08:02:30Z</time>
      </trkpt>
      <trkpt lat="36.4883470" lon="-6.1184930">
        <ele>11.6</ele>
        <time>2023-01-28T08:02:31Z</time>
      </trkpt>
      <trkpt lat="36.4883340" lon="-6.1184630">
        <ele>11.6</ele>
        <time>2023-01-28T08:02:32Z</time>
      </trkpt>
      <trkpt lat="36.4883230" lon="-6.1184350">
        <ele>11.8</ele>
        <time>2023-01-28T08:02:34Z</time>
      </trkpt>
      <trkpt lat="36.4882780" lon="-6.1183600">
        <ele>12.2</ele>
        <time>2023-01-28T08:02:35Z</time>
      </trkpt>
      <trkpt lat="36.4882630" lon="-6.1183170">
        <ele>12.2</ele>
        <time>2023-01-28T08:02:37Z</time>
      </trkpt>
      <trkpt lat="36.4882430" lon="-6.1182460">
        <ele>12.2</ele>
        <time>2023-01-28T08:02:38Z</time>
      </trkpt>
      <trkpt lat="36.4882310" lon="-6.1182300">
        <ele>12.2</ele>
        <time>2023-01-28T08:02:39Z</time>
      </trkpt>
      <trkpt lat="36.4882280" lon="-6.1182220">
        <ele>12.2</ele>
        <time>2023-01-28T08:02:40Z</time>
      </trkpt>
      <trkpt lat="36.4882040" lon="-6.1181890">
        <ele>12.2</ele>
        <time>2023-01-28T08:02:41Z</time>
      </trkpt>
      <trkpt lat="36.4881780" lon="-6.1181580">
        <ele>12.2</ele>
        <time>2023-01-28T08:02:43Z</time>
      </trkpt>
      <trkpt lat="36.4881530" lon="-6.1181060">
        <ele>12.2</ele>
        <time>2023-01-28T08:02:44Z</time>
      </trkpt>
      <trkpt lat="36.4881310" lon="-6.1180260">
        <ele>12.4</ele>
        <time>2023-01-28T08:02:45Z</time>
      </trkpt>
      <trkpt lat="36.4881030" lon="-6.1179450">
        <ele>12.4</ele>
        <time>2023-01-28T08:02:47Z</time>
      </trkpt>
      <trkpt lat="36.4880880" lon="-6.1179040">
        <ele>12.6</ele>
        <time>2023-01-28T08:02:48Z</time>
      </trkpt>
      <trkpt lat="36.4880420" lon="-6.1178250">
        <ele>12.6</ele>
        <time>2023-01-28T08:02:50Z</time>
      </trkpt>
      <trkpt lat="36.4880180" lon="-6.1177880">
        <ele>12.6</ele>
        <time>2023-01-28T08:02:51Z</time>
      </trkpt>
      <trkpt lat="36.4879820" lon="-6.1177550">
        <ele>12.8</ele>
        <time>2023-01-28T08:02:52Z</time>
      </trkpt>
      <trkpt lat="36.4879750" lon="-6.1177300">
        <ele>12.8</ele>
        <time>2023-01-28T08:02:53Z</time>
      </trkpt>
      <trkpt lat="36.4879670" lon="-6.1176840">
        <ele>12.8</ele>
        <time>2023-01-28T08:02:55Z</time>
      </trkpt>
      <trkpt lat="36.4879660" lon="-6.1176150">
        <ele>13.0</ele>
        <time>2023-01-28T08:02:56Z</time>
      </trkpt>
      <trkpt lat="36.4879800" lon="-6.1175940">
        <ele>13.0</ele>
        <time>2023-01-28T08:02:57Z</time>
      </trkpt>
      <trkpt lat="36.4879650" lon="-6.1175750">
        <ele>13.0</ele>
        <time>2023-01-28T08:02:58Z</time>
      </trkpt>
      <trkpt lat="36.4879490" lon="-6.1175800">
        <ele>13.0</ele>
        <time>2023-01-28T08:02:59Z</time>
      </trkpt>
      <trkpt lat="36.4879410" lon="-6.1175470">
        <ele>13.0</ele>
        <time>2023-01-28T08:03:01Z</time>
      </trkpt>
      <trkpt lat="36.4879270" lon="-6.1174810">
        <ele>13.2</ele>
        <time>2023-01-28T08:03:02Z</time>
      </trkpt>
      <trkpt lat="36.4879240" lon="-6.1174560">
        <ele>13.4</ele>
        <time>2023-01-28T08:03:03Z</time>
      </trkpt>
      <trkpt lat="36.4879310" lon="-6.1174180">
        <ele>13.4</ele>
        <time>2023-01-28T08:03:04Z</time>
      </trkpt>
      <trkpt lat="36.4879290" lon="-6.1173960">
        <ele>13.4</ele>
        <time>2023-01-28T08:03:06Z</time>
      </trkpt>
      <trkpt lat="36.4879180" lon="-6.1173630">
        <ele>13.2</ele>
        <time>2023-01-28T08:03:08Z</time>
      </trkpt>
      <trkpt lat="36.4879350" lon="-6.1173170">
        <ele>13.0</ele>
        <time>2023-01-28T08:03:09Z</time>
      </trkpt>
      <trkpt lat="36.4879150" lon="-6.1172750">
        <ele>13.0</ele>
        <time>2023-01-28T08:03:10Z</time>
      </trkpt>
      <trkpt lat="36.4878980" lon="-6.1172600">
        <ele>13.0</ele>
        <time>2023-01-28T08:03:11Z</time>
      </trkpt>
      <trkpt lat="36.4878510" lon="-6.1172430">
        <ele>12.8</ele>
        <time>2023-01-28T08:03:12Z</time>
      </trkpt>
      <trkpt lat="36.4878270" lon="-6.1172130">
        <ele>13.0</ele>
        <time>2023-01-28T08:03:13Z</time>
      </trkpt>
      <trkpt lat="36.4877870" lon="-6.1171450">
        <ele>13.0</ele>
        <time>2023-01-28T08:03:15Z</time>
      </trkpt>
      <trkpt lat="36.4877680" lon="-6.1171090">
        <ele>12.8</ele>
        <time>2023-01-28T08:03:16Z</time>
      </trkpt>
      <trkpt lat="36.4877410" lon="-6.1170450">
        <ele>13.0</ele>
        <time>2023-01-28T08:03:18Z</time>
      </trkpt>
      <trkpt lat="36.4877300" lon="-6.1170210">
        <ele>12.8</ele>
        <time>2023-01-28T08:03:19Z</time>
      </trkpt>
      <trkpt lat="36.4877400" lon="-6.1169860">
        <ele>12.8</ele>
        <time>2023-01-28T08:03:20Z</time>
      </trkpt>
      <trkpt lat="36.4877250" lon="-6.1169460">
        <ele>12.8</ele>
        <time>2023-01-28T08:03:21Z</time>
      </trkpt>
      <trkpt lat="36.4877270" lon="-6.1168900">
        <ele>12.8</ele>
        <time>2023-01-28T08:03:22Z</time>
      </trkpt>
      <trkpt lat="36.4876950" lon="-6.1168320">
        <ele>12.8</ele>
        <time>2023-01-28T08:03:23Z</time>
      </trkpt>
      <trkpt lat="36.4876810" lon="-6.1167980">
        <ele>12.8</ele>
        <time>2023-01-28T08:03:24Z</time>
      </trkpt>
      <trkpt lat="36.4876730" lon="-6.1167580">
        <ele>12.8</ele>
        <time>2023-01-28T08:03:25Z</time>
      </trkpt>
      <trkpt lat="36.4876530" lon="-6.1167090">
        <ele>12.8</ele>
        <time>2023-01-28T08:03:26Z</time>
      </trkpt>
      <trkpt lat="36.4876400" lon="-6.1166650">
        <ele>13.0</ele>
        <time>2023-01-28T08:03:27Z</time>
      </trkpt>
      <trkpt lat="36.4876130" lon="-6.1165990">
        <ele>13.0</ele>
        <time>2023-01-28T08:03:28Z</time>
      </trkpt>
      <trkpt lat="36.4876120" lon="-6.1165750">
        <ele>13.0</ele>
        <time>2023-01-28T08:03:30Z</time>
      </trkpt>
      <trkpt lat="36.4876110" lon="-6.1165010">
        <ele>13.0</ele>
        <time>2023-01-28T08:03:32Z</time>
      </trkpt>
      <trkpt lat="36.4876080" lon="-6.1164530">
        <ele>13.0</ele>
        <time>2023-01-28T08:03:33Z</time>
      </trkpt>
      <trkpt lat="36.4875920" lon="-6.1164180">
        <ele>13.0</ele>
        <time>2023-01-28T08:03:34Z</time>
      </trkpt>
      <trkpt lat="36.4875840" lon="-6.1163850">
        <ele>13.2</ele>
        <time>2023-01-28T08:03:35Z</time>
      </trkpt>
      <trkpt lat="36.4875690" lon="-6.1163550">
        <ele>13.2</ele>
        <time>2023-01-28T08:03:36Z</time>
      </trkpt>
      <trkpt lat="36.4875560" lon="-6.1163310">
        <ele>13.2</ele>
        <time>2023-01-28T08:03:37Z</time>
      </trkpt>
      <trkpt lat="36.4875490" lon="-6.1163020">
        <ele>13.2</ele>
        <time>2023-01-28T08:03:38Z</time>
      </trkpt>
      <trkpt lat="36.4875480" lon="-6.1162700">
        <ele>13.2</ele>
        <time>2023-01-28T08:03:39Z</time>
      </trkpt>
      <trkpt lat="36.4875390" lon="-6.1162310">
        <ele>13.2</ele>
        <time>2023-01-28T08:03:40Z</time>
      </trkpt>
      <trkpt lat="36.4875420" lon="-6.1162080">
        <ele>13.2</ele>
        <time>2023-01-28T08:03:41Z</time>
      </trkpt>
      <trkpt lat="36.4875290" lon="-6.1161740">
        <ele>13.2</ele>
        <time>2023-01-28T08:03:42Z</time>
      </trkpt>
      <trkpt lat="36.4875230" lon="-6.1161410">
        <ele>13.4</ele>
        <time>2023-01-28T08:03:43Z</time>
      </trkpt>
      <trkpt lat="36.4875080" lon="-6.1161040">
        <ele>13.4</ele>
        <time>2023-01-28T08:03:44Z</time>
      </trkpt>
      <trkpt lat="36.4875010" lon="-6.1160830">
        <ele>13.4</ele>
        <time>2023-01-28T08:03:45Z</time>
      </trkpt>
      <trkpt lat="36.4874960" lon="-6.1160550">
        <ele>13.4</ele>
        <time>2023-01-28T08:03:46Z</time>
      </trkpt>
      <trkpt lat="36.4874860" lon="-6.1160160">
        <ele>13.6</ele>
        <time>2023-01-28T08:03:47Z</time>
      </trkpt>
      <trkpt lat="36.4874820" lon="-6.1159880">
        <ele>13.6</ele>
        <time>2023-01-28T08:03:48Z</time>
      </trkpt>
      <trkpt lat="36.4874810" lon="-6.1159550">
        <ele>13.6</ele>
        <time>2023-01-28T08:03:49Z</time>
      </trkpt>
      <trkpt lat="36.4874680" lon="-6.1159210">
        <ele>13.8</ele>
        <time>2023-01-28T08:03:50Z</time>
      </trkpt>
      <trkpt lat="36.4874630" lon="-6.1158770">
        <ele>13.8</ele>
        <time>2023-01-28T08:03:51Z</time>
      </trkpt>
      <trkpt lat="36.4874540" lon="-6.1158390">
        <ele>14.0</ele>
        <time>2023-01-28T08:03:52Z</time>
      </trkpt>
      <trkpt lat="36.4874530" lon="-6.1158080">
        <ele>13.8</ele>
        <time>2023-01-28T08:03:53Z</time>
      </trkpt>
      <trkpt lat="36.4874520" lon="-6.1157550">
        <ele>13.8</ele>
        <time>2023-01-28T08:03:54Z</time>
      </trkpt>
      <trkpt lat="36.4874510" lon="-6.1157160">
        <ele>14.0</ele>
        <time>2023-01-28T08:03:55Z</time>
      </trkpt>
      <trkpt lat="36.4874410" lon="-6.1156850">
        <ele>14.0</ele>
        <time>2023-01-28T08:03:56Z</time>
      </trkpt>
      <trkpt lat="36.4874340" lon="-6.1156340">
        <ele>14.0</ele>
        <time>2023-01-28T08:03:57Z</time>
      </trkpt>
      <trkpt lat="36.4874220" lon="-6.1156060">
        <ele>14.0</ele>
        <time>2023-01-28T08:03:58Z</time>
      </trkpt>
      <trkpt lat="36.4874310" lon="-6.1155690">
        <ele>14.2</ele>
        <time>2023-01-28T08:03:59Z</time>
      </trkpt>
      <trkpt lat="36.4874210" lon="-6.1155430">
        <ele>14.0</ele>
        <time>2023-01-28T08:04:00Z</time>
      </trkpt>
      <trkpt lat="36.4874180" lon="-6.1155180">
        <ele>14.2</ele>
        <time>2023-01-28T08:04:01Z</time>
      </trkpt>
      <trkpt lat="36.4874150" lon="-6.1154840">
        <ele>14.2</ele>
        <time>2023-01-28T08:04:02Z</time>
      </trkpt>
      <trkpt lat="36.4874080" lon="-6.1154430">
        <ele>14.2</ele>
        <time>2023-01-28T08:04:03Z</time>
      </trkpt>
      <trkpt lat="36.4873860" lon="-6.1154110">
        <ele>14.2</ele>
        <time>2023-01-28T08:04:04Z</time>
      </trkpt>
      <trkpt lat="36.4873650" lon="-6.1153800">
        <ele>14.2</ele>
        <time>2023-01-28T08:04:05Z</time>
      </trkpt>
      <trkpt lat="36.4873400" lon="-6.1153500">
        <ele>14.0</ele>
        <time>2023-01-28T08:04:06Z</time>
      </trkpt>
      <trkpt lat="36.4873240" lon="-6.1153280">
        <ele>14.0</ele>
        <time>2023-01-28T08:04:07Z</time>
      </trkpt>
      <trkpt lat="36.4873010" lon="-6.1153240">
        <ele>14.0</ele>
        <time>2023-01-28T08:04:08Z</time>
      </trkpt>
      <trkpt lat="36.4872670" lon="-6.1153030">
        <ele>14.0</ele>
        <time>2023-01-28T08:04:09Z</time>
      </trkpt>
      <trkpt lat="36.4872400" lon="-6.1152860">
        <ele>13.8</ele>
        <time>2023-01-28T08:04:10Z</time>
      </trkpt>
      <trkpt lat="36.4872090" lon="-6.1152940">
        <ele>13.8</ele>
        <time>2023-01-28T08:04:11Z</time>
      </trkpt>
      <trkpt lat="36.4871820" lon="-6.1152720">
        <ele>13.8</ele>
        <time>2023-01-28T08:04:12Z</time>
      </trkpt>
      <trkpt lat="36.4871530" lon="-6.1152540">
        <ele>13.8</ele>
        <time>2023-01-28T08:04:13Z</time>
      </trkpt>
      <trkpt lat="36.4871310" lon="-6.1152330">
        <ele>13.8</ele>
        <time>2023-01-28T08:04:14Z</time>
      </trkpt>
      <trkpt lat="36.4871190" lon="-6.1152050">
        <ele>13.8</ele>
        <time>2023-01-28T08:04:15Z</time>
      </trkpt>
      <trkpt lat="36.4871080" lon="-6.1151790">
        <ele>13.8</ele>
        <time>2023-01-28T08:04:16Z</time>
      </trkpt>
      <trkpt lat="36.4870970" lon="-6.1151540">
        <ele>13.8</ele>
        <time>2023-01-28T08:04:17Z</time>
      </trkpt>
      <trkpt lat="36.4870820" lon="-6.1151300">
        <ele>13.8</ele>
        <time>2023-01-28T08:04:18Z</time>
      </trkpt>
      <trkpt lat="36.4870710" lon="-6.1151080">
        <ele>14.0</ele>
        <time>2023-01-28T08:04:19Z</time>
      </trkpt>
      <trkpt lat="36.4870550" lon="-6.1150760">
        <ele>14.0</ele>
        <time>2023-01-28T08:04:20Z</time>
      </trkpt>
      <trkpt lat="36.4870260" lon="-6.1150490">
        <ele>14.0</ele>
        <time>2023-01-28T08:04:21Z</time>
      </trkpt>
      <trkpt lat="36.4870060" lon="-6.1150180">
        <ele>14.0</ele>
        <time>2023-01-28T08:04:22Z</time>
      </trkpt>
      <trkpt lat="36.4870010" lon="-6.1150000">
        <ele>14.2</ele>
        <time>2023-01-28T08:04:23Z</time>
      </trkpt>
      <trkpt lat="36.4869870" lon="-6.1149720">
        <ele>14.2</ele>
        <time>2023-01-28T08:04:24Z</time>
      </trkpt>
      <trkpt lat="36.4869770" lon="-6.1149390">
        <ele>14.2</ele>
        <time>2023-01-28T08:04:25Z</time>
      </trkpt>
      <trkpt lat="36.4869580" lon="-6.1149070">
        <ele>14.2</ele>
        <time>2023-01-28T08:04:26Z</time>
      </trkpt>
      <trkpt lat="36.4869460" lon="-6.1148930">
        <ele>14.2</ele>
        <time>2023-01-28T08:04:27Z</time>
      </trkpt>
      <trkpt lat="36.4869360" lon="-6.1148730">
        <ele>14.4</ele>
        <time>2023-01-28T08:04:28Z</time>
      </trkpt>
      <trkpt lat="36.4869330" lon="-6.1148440">
        <ele>14.4</ele>
        <time>2023-01-28T08:04:29Z</time>
      </trkpt>
      <trkpt lat="36.4869110" lon="-6.1148160">
        <ele>14.6</ele>
        <time>2023-01-28T08:04:30Z</time>
      </trkpt>
      <trkpt lat="36.4868960" lon="-6.1147810">
        <ele>14.6</ele>
        <time>2023-01-28T08:04:31Z</time>
      </trkpt>
      <trkpt lat="36.4868860" lon="-6.1147540">
        <ele>14.6</ele>
        <time>2023-01-28T08:04:32Z</time>
      </trkpt>
      <trkpt lat="36.4868710" lon="-6.1147210">
        <ele>14.8</ele>
        <time>2023-01-28T08:04:33Z</time>
      </trkpt>
      <trkpt lat="36.4868560" lon="-6.1146780">
        <ele>14.8</ele>
        <time>2023-01-28T08:04:34Z</time>
      </trkpt>
      <trkpt lat="36.4868470" lon="-6.1146340">
        <ele>14.8</ele>
        <time>2023-01-28T08:04:35Z</time>
      </trkpt>
      <trkpt lat="36.4868330" lon="-6.1145820">
        <ele>14.8</ele>
        <time>2023-01-28T08:04:36Z</time>
      </trkpt>
      <trkpt lat="36.4868300" lon="-6.1145430">
        <ele>14.8</ele>
        <time>2023-01-28T08:04:37Z</time>
      </trkpt>
      <trkpt lat="36.4868160" lon="-6.1145060">
        <ele>15.0</ele>
        <time>2023-01-28T08:04:38Z</time>
      </trkpt>
      <trkpt lat="36.4868050" lon="-6.1144530">
        <ele>15.0</ele>
        <time>2023-01-28T08:04:39Z</time>
      </trkpt>
      <trkpt lat="36.4867980" lon="-6.1144200">
        <ele>15.0</ele>
        <time>2023-01-28T08:04:40Z</time>
      </trkpt>
      <trkpt lat="36.4867910" lon="-6.1143810">
        <ele>15.0</ele>
        <time>2023-01-28T08:04:41Z</time>
      </trkpt>
      <trkpt lat="36.4867870" lon="-6.1143410">
        <ele>15.0</ele>
        <time>2023-01-28T08:04:42Z</time>
      </trkpt>
      <trkpt lat="36.4867840" lon="-6.1143010">
        <ele>15.0</ele>
        <time>2023-01-28T08:04:43Z</time>
      </trkpt>
      <trkpt lat="36.4867850" lon="-6.1142600">
        <ele>15.0</ele>
        <time>2023-01-28T08:04:44Z</time>
      </trkpt>
      <trkpt lat="36.4867770" lon="-6.1142250">
        <ele>15.2</ele>
        <time>2023-01-28T08:04:45Z</time>
      </trkpt>
      <trkpt lat="36.4867700" lon="-6.1141970">
        <ele>15.2</ele>
        <time>2023-01-28T08:04:46Z</time>
      </trkpt>
      <trkpt lat="36.4867630" lon="-6.1141500">
        <ele>15.4</ele>
        <time>2023-01-28T08:04:47Z</time>
      </trkpt>
      <trkpt lat="36.4867580" lon="-6.1141270">
        <ele>15.4</ele>
        <time>2023-01-28T08:04:48Z</time>
      </trkpt>
      <trkpt lat="36.4867520" lon="-6.1140880">
        <ele>15.4</ele>
        <time>2023-01-28T08:04:49Z</time>
      </trkpt>
      <trkpt lat="36.4867550" lon="-6.1140500">
        <ele>15.6</ele>
        <time>2023-01-28T08:04:50Z</time>
      </trkpt>
      <trkpt lat="36.4867490" lon="-6.1140130">
        <ele>15.6</ele>
        <time>2023-01-28T08:04:51Z</time>
      </trkpt>
      <trkpt lat="36.4867450" lon="-6.1139800">
        <ele>15.6</ele>
        <time>2023-01-28T08:04:52Z</time>
      </trkpt>
      <trkpt lat="36.4867340" lon="-6.1139410">
        <ele>15.6</ele>
        <time>2023-01-28T08:04:53Z</time>
      </trkpt>
      <trkpt lat="36.4867270" lon="-6.1138990">
        <ele>15.8</ele>
        <time>2023-01-28T08:04:54Z</time>
      </trkpt>
      <trkpt lat="36.4867250" lon="-6.1138510">
        <ele>15.8</ele>
        <time>2023-01-28T08:04:55Z</time>
      </trkpt>
      <trkpt lat="36.4867250" lon="-6.1138090">
        <ele>15.8</ele>
        <time>2023-01-28T08:04:56Z</time>
      </trkpt>
      <trkpt lat="36.4867190" lon="-6.1137650">
        <ele>16.0</ele>
        <time>2023-01-28T08:04:57Z</time>
      </trkpt>
      <trkpt lat="36.4867150" lon="-6.1137350">
        <ele>16.0</ele>
        <time>2023-01-28T08:04:58Z</time>
      </trkpt>
      <trkpt lat="36.4867110" lon="-6.1136950">
        <ele>16.2</ele>
        <time>2023-01-28T08:04:59Z</time>
      </trkpt>
      <trkpt lat="36.4867020" lon="-6.1136560">
        <ele>16.2</ele>
        <time>2023-01-28T08:05:00Z</time>
      </trkpt>
      <trkpt lat="36.4866980" lon="-6.1136080">
        <ele>16.2</ele>
        <time>2023-01-28T08:05:01Z</time>
      </trkpt>
      <trkpt lat="36.4866840" lon="-6.1135740">
        <ele>16.4</ele>
        <time>2023-01-28T08:05:02Z</time>
      </trkpt>
      <trkpt lat="36.4866820" lon="-6.1135380">
        <ele>16.4</ele>
        <time>2023-01-28T08:05:03Z</time>
      </trkpt>
      <trkpt lat="36.4866780" lon="-6.1134980">
        <ele>16.4</ele>
        <time>2023-01-28T08:05:04Z</time>
      </trkpt>
      <trkpt lat="36.4866640" lon="-6.1134570">
        <ele>16.6</ele>
        <time>2023-01-28T08:05:05Z</time>
      </trkpt>
      <trkpt lat="36.4866640" lon="-6.1134310">
        <ele>16.6</ele>
        <time>2023-01-28T08:05:06Z</time>
      </trkpt>
      <trkpt lat="36.4866480" lon="-6.1133890">
        <ele>16.8</ele>
        <time>2023-01-28T08:05:07Z</time>
      </trkpt>
      <trkpt lat="36.4866560" lon="-6.1133560">
        <ele>17.0</ele>
        <time>2023-01-28T08:05:08Z</time>
      </trkpt>
      <trkpt lat="36.4866500" lon="-6.1133220">
        <ele>17.0</ele>
        <time>2023-01-28T08:05:09Z</time>
      </trkpt>
      <trkpt lat="36.4866450" lon="-6.1132920">
        <ele>17.0</ele>
        <time>2023-01-28T08:05:10Z</time>
      </trkpt>
      <trkpt lat="36.4866410" lon="-6.1132620">
        <ele>17.0</ele>
        <time>2023-01-28T08:05:11Z</time>
      </trkpt>
      <trkpt lat="36.4866280" lon="-6.1132150">
        <ele>17.2</ele>
        <time>2023-01-28T08:05:12Z</time>
      </trkpt>
      <trkpt lat="36.4866180" lon="-6.1131780">
        <ele>17.2</ele>
        <time>2023-01-28T08:05:13Z</time>
      </trkpt>
      <trkpt lat="36.4866050" lon="-6.1131470">
        <ele>17.4</ele>
        <time>2023-01-28T08:05:14Z</time>
      </trkpt>
      <trkpt lat="36.4865920" lon="-6.1131090">
        <ele>17.4</ele>
        <time>2023-01-28T08:05:15Z</time>
      </trkpt>
      <trkpt lat="36.4865730" lon="-6.1130720">
        <ele>17.6</ele>
        <time>2023-01-28T08:05:16Z</time>
      </trkpt>
      <trkpt lat="36.4865710" lon="-6.1130290">
        <ele>17.6</ele>
        <time>2023-01-28T08:05:17Z</time>
      </trkpt>
      <trkpt lat="36.4865610" lon="-6.1130100">
        <ele>17.8</ele>
        <time>2023-01-28T08:05:18Z</time>
      </trkpt>
      <trkpt lat="36.4865570" lon="-6.1129770">
        <ele>17.8</ele>
        <time>2023-01-28T08:05:19Z</time>
      </trkpt>
      <trkpt lat="36.4865530" lon="-6.1129430">
        <ele>17.8</ele>
        <time>2023-01-28T08:05:20Z</time>
      </trkpt>
      <trkpt lat="36.4865470" lon="-6.1128990">
        <ele>18.0</ele>
        <time>2023-01-28T08:05:21Z</time>
      </trkpt>
      <trkpt lat="36.4865470" lon="-6.1128520">
        <ele>18.0</ele>
        <time>2023-01-28T08:05:22Z</time>
      </trkpt>
      <trkpt lat="36.4865420" lon="-6.1128110">
        <ele>18.2</ele>
        <time>2023-01-28T08:05:23Z</time>
      </trkpt>
      <trkpt lat="36.4865400" lon="-6.1127730">
        <ele>18.2</ele>
        <time>2023-01-28T08:05:24Z</time>
      </trkpt>
      <trkpt lat="36.4865270" lon="-6.1127270">
        <ele>18.4</ele>
        <time>2023-01-28T08:05:25Z</time>
      </trkpt>
      <trkpt lat="36.4865200" lon="-6.1126800">
        <ele>18.4</ele>
        <time>2023-01-28T08:05:26Z</time>
      </trkpt>
      <trkpt lat="36.4865170" lon="-6.1126590">
        <ele>18.4</ele>
        <time>2023-01-28T08:05:27Z</time>
      </trkpt>
      <trkpt lat="36.4865100" lon="-6.1126260">
        <ele>18.4</ele>
        <time>2023-01-28T08:05:28Z</time>
      </trkpt>
      <trkpt lat="36.4865050" lon="-6.1125910">
        <ele>18.4</ele>
        <time>2023-01-28T08:05:29Z</time>
      </trkpt>
      <trkpt lat="36.4865060" lon="-6.1125580">
        <ele>18.6</ele>
        <time>2023-01-28T08:05:30Z</time>
      </trkpt>
      <trkpt lat="36.4864980" lon="-6.1125130">
        <ele>18.6</ele>
        <time>2023-01-28T08:05:31Z</time>
      </trkpt>
      <trkpt lat="36.4864960" lon="-6.1124700">
        <ele>18.6</ele>
        <time>2023-01-28T08:05:32Z</time>
      </trkpt>
      <trkpt lat="36.4864840" lon="-6.1124370">
        <ele>18.8</ele>
        <time>2023-01-28T08:05:33Z</time>
      </trkpt>
      <trkpt lat="36.4864780" lon="-6.1124080">
        <ele>18.8</ele>
        <time>2023-01-28T08:05:34Z</time>
      </trkpt>
      <trkpt lat="36.4864720" lon="-6.1123720">
        <ele>18.8</ele>
        <time>2023-01-28T08:05:35Z</time>
      </trkpt>
      <trkpt lat="36.4864620" lon="-6.1123260">
        <ele>18.8</ele>
        <time>2023-01-28T08:05:36Z</time>
      </trkpt>
      <trkpt lat="36.4864530" lon="-6.1122970">
        <ele>19.0</ele>
        <time>2023-01-28T08:05:37Z</time>
      </trkpt>
      <trkpt lat="36.4864470" lon="-6.1122740">
        <ele>19.0</ele>
        <time>2023-01-28T08:05:38Z</time>
      </trkpt>
      <trkpt lat="36.4864420" lon="-6.1122440">
        <ele>19.0</ele>
        <time>2023-01-28T08:05:39Z</time>
      </trkpt>
      <trkpt lat="36.4864290" lon="-6.1121970">
        <ele>19.0</ele>
        <time>2023-01-28T08:05:40Z</time>
      </trkpt>
      <trkpt lat="36.4864270" lon="-6.1121380">
        <ele>19.0</ele>
        <time>2023-01-28T08:05:41Z</time>
      </trkpt>
      <trkpt lat="36.4864210" lon="-6.1121140">
        <ele>19.0</ele>
        <time>2023-01-28T08:05:42Z</time>
      </trkpt>
      <trkpt lat="36.4864120" lon="-6.1120810">
        <ele>19.2</ele>
        <time>2023-01-28T08:05:43Z</time>
      </trkpt>
      <trkpt lat="36.4864040" lon="-6.1120310">
        <ele>19.2</ele>
        <time>2023-01-28T08:05:44Z</time>
      </trkpt>
      <trkpt lat="36.4864010" lon="-6.1119940">
        <ele>19.2</ele>
        <time>2023-01-28T08:05:45Z</time>
      </trkpt>
      <trkpt lat="36.4863880" lon="-6.1119500">
        <ele>19.2</ele>
        <time>2023-01-28T08:05:46Z</time>
      </trkpt>
      <trkpt lat="36.4863790" lon="-6.1119150">
        <ele>19.4</ele>
        <time>2023-01-28T08:05:47Z</time>
      </trkpt>
      <trkpt lat="36.4863690" lon="-6.1118850">
        <ele>19.4</ele>
        <time>2023-01-28T08:05:48Z</time>
      </trkpt>
      <trkpt lat="36.4863590" lon="-6.1118460">
        <ele>19.6</ele>
        <time>2023-01-28T08:05:49Z</time>
      </trkpt>
      <trkpt lat="36.4863480" lon="-6.1118140">
        <ele>19.6</ele>
        <time>2023-01-28T08:05:50Z</time>
      </trkpt>
      <trkpt lat="36.4863430" lon="-6.1117750">
        <ele>19.6</ele>
        <time>2023-01-28T08:05:51Z</time>
      </trkpt>
      <trkpt lat="36.4863400" lon="-6.1117490">
        <ele>19.8</ele>
        <time>2023-01-28T08:05:52Z</time>
      </trkpt>
      <trkpt lat="36.4863260" lon="-6.1117100">
        <ele>19.8</ele>
        <time>2023-01-28T08:05:53Z</time>
      </trkpt>
      <trkpt lat="36.4863200" lon="-6.1116700">
        <ele>19.8</ele>
        <time>2023-01-28T08:05:54Z</time>
      </trkpt>
      <trkpt lat="36.4863100" lon="-6.1116420">
        <ele>19.8</ele>
        <time>2023-01-28T08:05:55Z</time>
      </trkpt>
      <trkpt lat="36.4863060" lon="-6.1116060">
        <ele>20.0</ele>
        <time>2023-01-28T08:05:56Z</time>
      </trkpt>
      <trkpt lat="36.4863130" lon="-6.1115700">
        <ele>20.0</ele>
        <time>2023-01-28T08:05:57Z</time>
      </trkpt>
      <trkpt lat="36.4863170" lon="-6.1115400">
        <ele>20.0</ele>
        <time>2023-01-28T08:05:58Z</time>
      </trkpt>
      <trkpt lat="36.4863060" lon="-6.1115040">
        <ele>20.2</ele>
        <time>2023-01-28T08:05:59Z</time>
      </trkpt>
      <trkpt lat="36.4862990" lon="-6.1114740">
        <ele>20.2</ele>
        <time>2023-01-28T08:06:00Z</time>
      </trkpt>
      <trkpt lat="36.4862890" lon="-6.1114340">
        <ele>20.4</ele>
        <time>2023-01-28T08:06:01Z</time>
      </trkpt>
      <trkpt lat="36.4862920" lon="-6.1113930">
        <ele>20.4</ele>
        <time>2023-01-28T08:06:02Z</time>
      </trkpt>
      <trkpt lat="36.4862820" lon="-6.1113470">
        <ele>20.6</ele>
        <time>2023-01-28T08:06:03Z</time>
      </trkpt>
      <trkpt lat="36.4862620" lon="-6.1113040">
        <ele>20.6</ele>
        <time>2023-01-28T08:06:04Z</time>
      </trkpt>
      <trkpt lat="36.4862560" lon="-6.1112680">
        <ele>20.8</ele>
        <time>2023-01-28T08:06:05Z</time>
      </trkpt>
      <trkpt lat="36.4862610" lon="-6.1112330">
        <ele>20.8</ele>
        <time>2023-01-28T08:06:06Z</time>
      </trkpt>
      <trkpt lat="36.4862680" lon="-6.1111870">
        <ele>20.8</ele>
        <time>2023-01-28T08:06:07Z</time>
      </trkpt>
      <trkpt lat="36.4862670" lon="-6.1111550">
        <ele>21.2</ele>
        <time>2023-01-28T08:06:08Z</time>
      </trkpt>
      <trkpt lat="36.4862620" lon="-6.1111150">
        <ele>21.4</ele>
        <time>2023-01-28T08:06:09Z</time>
      </trkpt>
      <trkpt lat="36.4862470" lon="-6.1110700">
        <ele>21.4</ele>
        <time>2023-01-28T08:06:10Z</time>
      </trkpt>
      <trkpt lat="36.4862370" lon="-6.1110300">
        <ele>21.4</ele>
        <time>2023-01-28T08:06:11Z</time>
      </trkpt>
      <trkpt lat="36.4862340" lon="-6.1109900">
        <ele>21.4</ele>
        <time>2023-01-28T08:06:12Z</time>
      </trkpt>
      <trkpt lat="36.4862240" lon="-6.1109620">
        <ele>21.6</ele>
        <time>2023-01-28T08:06:13Z</time>
      </trkpt>
      <trkpt lat="36.4862230" lon="-6.1109250">
        <ele>21.8</ele>
        <time>2023-01-28T08:06:14Z</time>
      </trkpt>
      <trkpt lat="36.4862200" lon="-6.1108950">
        <ele>22.0</ele>
        <time>2023-01-28T08:06:15Z</time>
      </trkpt>
      <trkpt lat="36.4862110" lon="-6.1108580">
        <ele>22.0</ele>
        <time>2023-01-28T08:06:16Z</time>
      </trkpt>
      <trkpt lat="36.4862030" lon="-6.1108230">
        <ele>22.2</ele>
        <time>2023-01-28T08:06:17Z</time>
      </trkpt>
      <trkpt lat="36.4861980" lon="-6.1107840">
        <ele>22.4</ele>
        <time>2023-01-28T08:06:18Z</time>
      </trkpt>
      <trkpt lat="36.4861940" lon="-6.1107540">
        <ele>22.4</ele>
        <time>2023-01-28T08:06:19Z</time>
      </trkpt>
      <trkpt lat="36.4861680" lon="-6.1107140">
        <ele>22.6</ele>
        <time>2023-01-28T08:06:20Z</time>
      </trkpt>
      <trkpt lat="36.4861690" lon="-6.1106790">
        <ele>22.8</ele>
        <time>2023-01-28T08:06:21Z</time>
      </trkpt>
      <trkpt lat="36.4861690" lon="-6.1106420">
        <ele>22.8</ele>
        <time>2023-01-28T08:06:22Z</time>
      </trkpt>
      <trkpt lat="36.4861740" lon="-6.1106090">
        <ele>23.0</ele>
        <time>2023-01-28T08:06:23Z</time>
      </trkpt>
      <trkpt lat="36.4861700" lon="-6.1105660">
        <ele>23.0</ele>
        <time>2023-01-28T08:06:24Z</time>
      </trkpt>
      <trkpt lat="36.4861650" lon="-6.1105400">
        <ele>23.2</ele>
        <time>2023-01-28T08:06:25Z</time>
      </trkpt>
      <trkpt lat="36.4861560" lon="-6.1105020">
        <ele>23.2</ele>
        <time>2023-01-28T08:06:26Z</time>
      </trkpt>
      <trkpt lat="36.4861490" lon="-6.1104740">
        <ele>23.6</ele>
        <time>2023-01-28T08:06:27Z</time>
      </trkpt>
      <trkpt lat="36.4861470" lon="-6.1104400">
        <ele>23.8</ele>
        <time>2023-01-28T08:06:28Z</time>
      </trkpt>
      <trkpt lat="36.4861470" lon="-6.1104050">
        <ele>23.8</ele>
        <time>2023-01-28T08:06:29Z</time>
      </trkpt>
      <trkpt lat="36.4861460" lon="-6.1103710">
        <ele>24.0</ele>
        <time>2023-01-28T08:06:30Z</time>
      </trkpt>
      <trkpt lat="36.4861480" lon="-6.1103340">
        <ele>24.0</ele>
        <time>2023-01-28T08:06:31Z</time>
      </trkpt>
      <trkpt lat="36.4861480" lon="-6.1103090">
        <ele>24.2</ele>
        <time>2023-01-28T08:06:32Z</time>
      </trkpt>
      <trkpt lat="36.4861350" lon="-6.1102850">
        <ele>24.4</ele>
        <time>2023-01-28T08:06:33Z</time>
      </trkpt>
      <trkpt lat="36.4861290" lon="-6.1102540">
        <ele>24.6</ele>
        <time>2023-01-28T08:06:34Z</time>
      </trkpt>
      <trkpt lat="36.4861240" lon="-6.1102120">
        <ele>24.6</ele>
        <time>2023-01-28T08:06:35Z</time>
      </trkpt>
      <trkpt lat="36.4861180" lon="-6.1101850">
        <ele>24.8</ele>
        <time>2023-01-28T08:06:36Z</time>
      </trkpt>
      <trkpt lat="36.4861140" lon="-6.1101520">
        <ele>24.8</ele>
        <time>2023-01-28T08:06:37Z</time>
      </trkpt>
      <trkpt lat="36.4861040" lon="-6.1101070">
        <ele>24.8</ele>
        <time>2023-01-28T08:06:38Z</time>
      </trkpt>
      <trkpt lat="36.4860950" lon="-6.1100840">
        <ele>25.0</ele>
        <time>2023-01-28T08:06:39Z</time>
      </trkpt>
      <trkpt lat="36.4860910" lon="-6.1100500">
        <ele>25.0</ele>
        <time>2023-01-28T08:06:40Z</time>
      </trkpt>
      <trkpt lat="36.4860860" lon="-6.1100170">
        <ele>25.0</ele>
        <time>2023-01-28T08:06:41Z</time>
      </trkpt>
      <trkpt lat="36.4860810" lon="-6.1099940">
        <ele>25.0</ele>
        <time>2023-01-28T08:06:42Z</time>
      </trkpt>
      <trkpt lat="36.4860800" lon="-6.1099530">
        <ele>25.0</ele>
        <time>2023-01-28T08:06:43Z</time>
      </trkpt>
      <trkpt lat="36.4860690" lon="-6.1099030">
        <ele>25.0</ele>
        <time>2023-01-28T08:06:44Z</time>
      </trkpt>
      <trkpt lat="36.4860640" lon="-6.1098560">
        <ele>25.0</ele>
        <time>2023-01-28T08:06:45Z</time>
      </trkpt>
      <trkpt lat="36.4860650" lon="-6.1098110">
        <ele>25.0</ele>
        <time>2023-01-28T08:06:46Z</time>
      </trkpt>
      <trkpt lat="36.4860720" lon="-6.1097590">
        <ele>25.0</ele>
        <time>2023-01-28T08:06:47Z</time>
      </trkpt>
      <trkpt lat="36.4860820" lon="-6.1097170">
        <ele>25.0</ele>
        <time>2023-01-28T08:06:48Z</time>
      </trkpt>
      <trkpt lat="36.4860840" lon="-6.1096750">
        <ele>24.8</ele>
        <time>2023-01-28T08:06:49Z</time>
      </trkpt>
      <trkpt lat="36.4860920" lon="-6.1096210">
        <ele>24.8</ele>
        <time>2023-01-28T08:06:50Z</time>
      </trkpt>
      <trkpt lat="36.4861000" lon="-6.1095890">
        <ele>24.8</ele>
        <time>2023-01-28T08:06:51Z</time>
      </trkpt>
      <trkpt lat="36.4861060" lon="-6.1095510">
        <ele>24.6</ele>
        <time>2023-01-28T08:06:52Z</time>
      </trkpt>
      <trkpt lat="36.4861040" lon="-6.1094940">
        <ele>24.4</ele>
        <time>2023-01-28T08:06:53Z</time>
      </trkpt>
      <trkpt lat="36.4861040" lon="-6.1094480">
        <ele>24.4</ele>
        <time>2023-01-28T08:06:54Z</time>
      </trkpt>
      <trkpt lat="36.4861110" lon="-6.1094090">
        <ele>24.2</ele>
        <time>2023-01-28T08:06:55Z</time>
      </trkpt>
      <trkpt lat="36.4861060" lon="-6.1093670">
        <ele>24.4</ele>
        <time>2023-01-28T08:06:56Z</time>
      </trkpt>
      <trkpt lat="36.4861030" lon="-6.1093220">
        <ele>24.2</ele>
        <time>2023-01-28T08:06:57Z</time>
      </trkpt>
      <trkpt lat="36.4861000" lon="-6.1092740">
        <ele>24.2</ele>
        <time>2023-01-28T08:06:58Z</time>
      </trkpt>
      <trkpt lat="36.4860940" lon="-6.1092260">
        <ele>24.2</ele>
        <time>2023-01-28T08:06:59Z</time>
      </trkpt>
      <trkpt lat="36.4860910" lon="-6.1091830">
        <ele>24.2</ele>
        <time>2023-01-28T08:07:00Z</time>
      </trkpt>
      <trkpt lat="36.4860840" lon="-6.1091430">
        <ele>24.2</ele>
        <time>2023-01-28T08:07:01Z</time>
      </trkpt>
      <trkpt lat="36.4860810" lon="-6.1091060">
        <ele>24.4</ele>
        <time>2023-01-28T08:07:02Z</time>
      </trkpt>
      <trkpt lat="36.4860760" lon="-6.1090490">
        <ele>24.4</ele>
        <time>2023-01-28T08:07:03Z</time>
      </trkpt>
      <trkpt lat="36.4860820" lon="-6.1089840">
        <ele>24.2</ele>
        <time>2023-01-28T08:07:04Z</time>
      </trkpt>
      <trkpt lat="36.4860700" lon="-6.1089470">
        <ele>24.2</ele>
        <time>2023-01-28T08:07:05Z</time>
      </trkpt>
      <trkpt lat="36.4860630" lon="-6.1088980">
        <ele>24.2</ele>
        <time>2023-01-28T08:07:06Z</time>
      </trkpt>
      <trkpt lat="36.4860510" lon="-6.1088410">
        <ele>24.0</ele>
        <time>2023-01-28T08:07:07Z</time>
      </trkpt>
      <trkpt lat="36.4860400" lon="-6.1087820">
        <ele>23.8</ele>
        <time>2023-01-28T08:07:08Z</time>
      </trkpt>
      <trkpt lat="36.4860270" lon="-6.1087380">
        <ele>23.6</ele>
        <time>2023-01-28T08:07:09Z</time>
      </trkpt>
      <trkpt lat="36.4860230" lon="-6.1086920">
        <ele>23.6</ele>
        <time>2023-01-28T08:07:10Z</time>
      </trkpt>
      <trkpt lat="36.4860060" lon="-6.1086430">
        <ele>23.6</ele>
        <time>2023-01-28T08:07:11Z</time>
      </trkpt>
      <trkpt lat="36.4859850" lon="-6.1085970">
        <ele>23.6</ele>
        <time>2023-01-28T08:07:12Z</time>
      </trkpt>
      <trkpt lat="36.4859590" lon="-6.1085290">
        <ele>23.6</ele>
        <time>2023-01-28T08:07:13Z</time>
      </trkpt>
      <trkpt lat="36.4859540" lon="-6.1084870">
        <ele>23.6</ele>
        <time>2023-01-28T08:07:14Z</time>
      </trkpt>
      <trkpt lat="36.4859540" lon="-6.1084340">
        <ele>23.6</ele>
        <time>2023-01-28T08:07:15Z</time>
      </trkpt>
      <trkpt lat="36.4859500" lon="-6.1083850">
        <ele>23.8</ele>
        <time>2023-01-28T08:07:16Z</time>
      </trkpt>
      <trkpt lat="36.4859480" lon="-6.1083410">
        <ele>24.0</ele>
        <time>2023-01-28T08:07:17Z</time>
      </trkpt>
      <trkpt lat="36.4859420" lon="-6.1082820">
        <ele>24.0</ele>
        <time>2023-01-28T08:07:18Z</time>
      </trkpt>
      <trkpt lat="36.4859290" lon="-6.1082310">
        <ele>23.8</ele>
        <time>2023-01-28T08:07:19Z</time>
      </trkpt>
      <trkpt lat="36.4859270" lon="-6.1081860">
        <ele>23.8</ele>
        <time>2023-01-28T08:07:20Z</time>
      </trkpt>
      <trkpt lat="36.4859120" lon="-6.1081430">
        <ele>24.0</ele>
        <time>2023-01-28T08:07:21Z</time>
      </trkpt>
      <trkpt lat="36.4859270" lon="-6.1080900">
        <ele>24.2</ele>
        <time>2023-01-28T08:07:22Z</time>
      </trkpt>
      <trkpt lat="36.4859360" lon="-6.1080640">
        <ele>24.2</ele>
        <time>2023-01-28T08:07:23Z</time>
      </trkpt>
      <trkpt lat="36.4859500" lon="-6.1080330">
        <ele>24.2</ele>
        <time>2023-01-28T08:07:24Z</time>
      </trkpt>
      <trkpt lat="36.4859600" lon="-6.1080010">
        <ele>24.4</ele>
        <time>2023-01-28T08:07:25Z</time>
      </trkpt>
      <trkpt lat="36.4859690" lon="-6.1079540">
        <ele>24.4</ele>
        <time>2023-01-28T08:07:26Z</time>
      </trkpt>
      <trkpt lat="36.4859690" lon="-6.1079320">
        <ele>24.4</ele>
        <time>2023-01-28T08:07:27Z</time>
      </trkpt>
      <trkpt lat="36.4859770" lon="-6.1079110">
        <ele>24.6</ele>
        <time>2023-01-28T08:07:28Z</time>
      </trkpt>
      <trkpt lat="36.4859880" lon="-6.1078750">
        <ele>24.6</ele>
        <time>2023-01-28T08:07:29Z</time>
      </trkpt>
      <trkpt lat="36.4859760" lon="-6.1078330">
        <ele>24.6</ele>
        <time>2023-01-28T08:07:30Z</time>
      </trkpt>
      <trkpt lat="36.4859600" lon="-6.1078210">
        <ele>24.6</ele>
        <time>2023-01-28T08:07:31Z</time>
      </trkpt>
      <trkpt lat="36.4859470" lon="-6.1077930">
        <ele>24.8</ele>
        <time>2023-01-28T08:07:32Z</time>
      </trkpt>
      <trkpt lat="36.4859340" lon="-6.1077690">
        <ele>24.8</ele>
        <time>2023-01-28T08:07:33Z</time>
      </trkpt>
      <trkpt lat="36.4859170" lon="-6.1077160">
        <ele>24.8</ele>
        <time>2023-01-28T08:07:34Z</time>
      </trkpt>
      <trkpt lat="36.4859020" lon="-6.1076930">
        <ele>25.0</ele>
        <time>2023-01-28T08:07:35Z</time>
      </trkpt>
      <trkpt lat="36.4859000" lon="-6.1076640">
        <ele>25.0</ele>
        <time>2023-01-28T08:07:36Z</time>
      </trkpt>
      <trkpt lat="36.4858900" lon="-6.1076530">
        <ele>25.0</ele>
        <time>2023-01-28T08:07:37Z</time>
      </trkpt>
      <trkpt lat="36.4858800" lon="-6.1076230">
        <ele>25.0</ele>
        <time>2023-01-28T08:07:38Z</time>
      </trkpt>
      <trkpt lat="36.4858650" lon="-6.1076000">
        <ele>25.0</ele>
        <time>2023-01-28T08:07:39Z</time>
      </trkpt>
      <trkpt lat="36.4858670" lon="-6.1075650">
        <ele>25.0</ele>
        <time>2023-01-28T08:07:40Z</time>
      </trkpt>
      <trkpt lat="36.4858590" lon="-6.1075360">
        <ele>24.8</ele>
        <time>2023-01-28T08:07:41Z</time>
      </trkpt>
      <trkpt lat="36.4858560" lon="-6.1074990">
        <ele>24.8</ele>
        <time>2023-01-28T08:07:42Z</time>
      </trkpt>
      <trkpt lat="36.4858470" lon="-6.1074660">
        <ele>24.6</ele>
        <time>2023-01-28T08:07:43Z</time>
      </trkpt>
      <trkpt lat="36.4858400" lon="-6.1074050">
        <ele>24.6</ele>
        <time>2023-01-28T08:07:44Z</time>
      </trkpt>
      <trkpt lat="36.4858330" lon="-6.1073740">
        <ele>24.4</ele>
        <time>2023-01-28T08:07:45Z</time>
      </trkpt>
      <trkpt lat="36.4858180" lon="-6.1073270">
        <ele>24.4</ele>
        <time>2023-01-28T08:07:46Z</time>
      </trkpt>
      <trkpt lat="36.4858100" lon="-6.1072870">
        <ele>24.4</ele>
        <time>2023-01-28T08:07:47Z</time>
      </trkpt>
      <trkpt lat="36.4857990" lon="-6.1072420">
        <ele>24.4</ele>
        <time>2023-01-28T08:07:48Z</time>
      </trkpt>
      <trkpt lat="36.4857870" lon="-6.1071930">
        <ele>24.2</ele>
        <time>2023-01-28T08:07:49Z</time>
      </trkpt>
      <trkpt lat="36.4857750" lon="-6.1071460">
        <ele>24.2</ele>
        <time>2023-01-28T08:07:50Z</time>
      </trkpt>
      <trkpt lat="36.4857670" lon="-6.1070980">
        <ele>24.2</ele>
        <time>2023-01-28T08:07:51Z</time>
      </trkpt>
      <trkpt lat="36.4857640" lon="-6.1070620">
        <ele>24.2</ele>
        <time>2023-01-28T08:07:52Z</time>
      </trkpt>
      <trkpt lat="36.4857560" lon="-6.1070290">
        <ele>24.4</ele>
        <time>2023-01-28T08:07:53Z</time>
      </trkpt>
      <trkpt lat="36.4857410" lon="-6.1069990">
        <ele>24.4</ele>
        <time>2023-01-28T08:07:54Z</time>
      </trkpt>
      <trkpt lat="36.4857270" lon="-6.1069600">
        <ele>24.4</ele>
        <time>2023-01-28T08:07:55Z</time>
      </trkpt>
      <trkpt lat="36.4857120" lon="-6.1069270">
        <ele>24.4</ele>
        <time>2023-01-28T08:07:56Z</time>
      </trkpt>
      <trkpt lat="36.4857080" lon="-6.1068960">
        <ele>24.4</ele>
        <time>2023-01-28T08:07:57Z</time>
      </trkpt>
      <trkpt lat="36.4856950" lon="-6.1068700">
        <ele>24.2</ele>
        <time>2023-01-28T08:07:58Z</time>
      </trkpt>
      <trkpt lat="36.4856880" lon="-6.1068330">
        <ele>24.2</ele>
        <time>2023-01-28T08:07:59Z</time>
      </trkpt>
      <trkpt lat="36.4856840" lon="-6.1067790">
        <ele>24.2</ele>
        <time>2023-01-28T08:08:00Z</time>
      </trkpt>
      <trkpt lat="36.4856990" lon="-6.1067490">
        <ele>24.2</ele>
        <time>2023-01-28T08:08:01Z</time>
      </trkpt>
      <trkpt lat="36.4856900" lon="-6.1067110">
        <ele>24.4</ele>
        <time>2023-01-28T08:08:02Z</time>
      </trkpt>
      <trkpt lat="36.4856970" lon="-6.1067010">
        <ele>24.2</ele>
        <time>2023-01-28T08:08:03Z</time>
      </trkpt>
      <trkpt lat="36.4857020" lon="-6.1066710">
        <ele>24.0</ele>
        <time>2023-01-28T08:08:04Z</time>
      </trkpt>
      <trkpt lat="36.4856990" lon="-6.1066350">
        <ele>23.6</ele>
        <time>2023-01-28T08:08:05Z</time>
      </trkpt>
      <trkpt lat="36.4856990" lon="-6.1065660">
        <ele>23.6</ele>
        <time>2023-01-28T08:08:06Z</time>
      </trkpt>
      <trkpt lat="36.4857040" lon="-6.1065070">
        <ele>23.4</ele>
        <time>2023-01-28T08:08:07Z</time>
      </trkpt>
      <trkpt lat="36.4857110" lon="-6.1064620">
        <ele>23.4</ele>
        <time>2023-01-28T08:08:08Z</time>
      </trkpt>
      <trkpt lat="36.4857100" lon="-6.1064180">
        <ele>23.4</ele>
        <time>2023-01-28T08:08:09Z</time>
      </trkpt>
      <trkpt lat="36.4857140" lon="-6.1063740">
        <ele>23.6</ele>
        <time>2023-01-28T08:08:10Z</time>
      </trkpt>
      <trkpt lat="36.4857180" lon="-6.1063390">
        <ele>23.6</ele>
        <time>2023-01-28T08:08:11Z</time>
      </trkpt>
      <trkpt lat="36.4857110" lon="-6.1063010">
        <ele>23.6</ele>
        <time>2023-01-28T08:08:12Z</time>
      </trkpt>
      <trkpt lat="36.4856980" lon="-6.1062740">
        <ele>23.6</ele>
        <time>2023-01-28T08:08:13Z</time>
      </trkpt>
      <trkpt lat="36.4856920" lon="-6.1062440">
        <ele>23.6</ele>
        <time>2023-01-28T08:08:14Z</time>
      </trkpt>
      <trkpt lat="36.4856870" lon="-6.1062180">
        <ele>23.6</ele>
        <time>2023-01-28T08:08:15Z</time>
      </trkpt>
      <trkpt lat="36.4856650" lon="-6.1061640">
        <ele>23.6</ele>
        <time>2023-01-28T08:08:16Z</time>
      </trkpt>
      <trkpt lat="36.4856660" lon="-6.1061280">
        <ele>23.8</ele>
        <time>2023-01-28T08:08:17Z</time>
      </trkpt>
      <trkpt lat="36.4856710" lon="-6.1060910">
        <ele>23.8</ele>
        <time>2023-01-28T08:08:18Z</time>
      </trkpt>
      <trkpt lat="36.4856510" lon="-6.1060640">
        <ele>23.8</ele>
        <time>2023-01-28T08:08:19Z</time>
      </trkpt>
      <trkpt lat="36.4856480" lon="-6.1060320">
        <ele>24.0</ele>
        <time>2023-01-28T08:08:20Z</time>
      </trkpt>
      <trkpt lat="36.4856510" lon="-6.1059960">
        <ele>24.2</ele>
        <time>2023-01-28T08:08:21Z</time>
      </trkpt>
      <trkpt lat="36.4856470" lon="-6.1059590">
        <ele>24.4</ele>
        <time>2023-01-28T08:08:22Z</time>
      </trkpt>
      <trkpt lat="36.4856370" lon="-6.1059110">
        <ele>24.4</ele>
        <time>2023-01-28T08:08:23Z</time>
      </trkpt>
      <trkpt lat="36.4856380" lon="-6.1058690">
        <ele>24.2</ele>
        <time>2023-01-28T08:08:24Z</time>
      </trkpt>
      <trkpt lat="36.4856380" lon="-6.1058320">
        <ele>24.4</ele>
        <time>2023-01-28T08:08:25Z</time>
      </trkpt>
      <trkpt lat="36.4856500" lon="-6.1057980">
        <ele>24.4</ele>
        <time>2023-01-28T08:08:26Z</time>
      </trkpt>
      <trkpt lat="36.4856370" lon="-6.1057520">
        <ele>24.4</ele>
        <time>2023-01-28T08:08:27Z</time>
      </trkpt>
      <trkpt lat="36.4856300" lon="-6.1057020">
        <ele>24.6</ele>
        <time>2023-01-28T08:08:28Z</time>
      </trkpt>
      <trkpt lat="36.4856210" lon="-6.1056850">
        <ele>24.6</ele>
        <time>2023-01-28T08:08:29Z</time>
      </trkpt>
      <trkpt lat="36.4856050" lon="-6.1056510">
        <ele>24.6</ele>
        <time>2023-01-28T08:08:30Z</time>
      </trkpt>
      <trkpt lat="36.4855700" lon="-6.1056120">
        <ele>24.6</ele>
        <time>2023-01-28T08:08:31Z</time>
      </trkpt>
      <trkpt lat="36.4855530" lon="-6.1055750">
        <ele>24.8</ele>
        <time>2023-01-28T08:08:32Z</time>
      </trkpt>
      <trkpt lat="36.4855290" lon="-6.1055360">
        <ele>25.0</ele>
        <time>2023-01-28T08:08:33Z</time>
      </trkpt>
      <trkpt lat="36.4855070" lon="-6.1055090">
        <ele>24.8</ele>
        <time>2023-01-28T08:08:34Z</time>
      </trkpt>
      <trkpt lat="36.4854890" lon="-6.1054860">
        <ele>24.8</ele>
        <time>2023-01-28T08:08:35Z</time>
      </trkpt>
      <trkpt lat="36.4854780" lon="-6.1054600">
        <ele>24.8</ele>
        <time>2023-01-28T08:08:36Z</time>
      </trkpt>
      <trkpt lat="36.4854500" lon="-6.1054010">
        <ele>25.0</ele>
        <time>2023-01-28T08:08:37Z</time>
      </trkpt>
      <trkpt lat="36.4854500" lon="-6.1053730">
        <ele>25.0</ele>
        <time>2023-01-28T08:08:38Z</time>
      </trkpt>
      <trkpt lat="36.4854340" lon="-6.1053490">
        <ele>24.8</ele>
        <time>2023-01-28T08:08:39Z</time>
      </trkpt>
      <trkpt lat="36.4854170" lon="-6.1053210">
        <ele>25.0</ele>
        <time>2023-01-28T08:08:40Z</time>
      </trkpt>
      <trkpt lat="36.4854030" lon="-6.1052820">
        <ele>25.0</ele>
        <time>2023-01-28T08:08:41Z</time>
      </trkpt>
      <trkpt lat="36.4853810" lon="-6.1052340">
        <ele>25.0</ele>
        <time>2023-01-28T08:08:42Z</time>
      </trkpt>
      <trkpt lat="36.4853580" lon="-6.1052000">
        <ele>25.2</ele>
        <time>2023-01-28T08:08:43Z</time>
      </trkpt>
      <trkpt lat="36.4853440" lon="-6.1051730">
        <ele>25.2</ele>
        <time>2023-01-28T08:08:44Z</time>
      </trkpt>
      <trkpt lat="36.4853290" lon="-6.1051460">
        <ele>25.0</ele>
        <time>2023-01-28T08:08:45Z</time>
      </trkpt>
      <trkpt lat="36.4853120" lon="-6.1051220">
        <ele>25.0</ele>
        <time>2023-01-28T08:08:46Z</time>
      </trkpt>
      <trkpt lat="36.4853030" lon="-6.1050810">
        <ele>25.2</ele>
        <time>2023-01-28T08:08:47Z</time>
      </trkpt>
      <trkpt lat="36.4852920" lon="-6.1050590">
        <ele>25.2</ele>
        <time>2023-01-28T08:08:48Z</time>
      </trkpt>
      <trkpt lat="36.4852780" lon="-6.1050200">
        <ele>25.2</ele>
        <time>2023-01-28T08:08:49Z</time>
      </trkpt>
      <trkpt lat="36.4852650" lon="-6.1049920">
        <ele>25.2</ele>
        <time>2023-01-28T08:08:50Z</time>
      </trkpt>
      <trkpt lat="36.4852510" lon="-6.1049660">
        <ele>25.2</ele>
        <time>2023-01-28T08:08:51Z</time>
      </trkpt>
      <trkpt lat="36.4852260" lon="-6.1048970">
        <ele>25.2</ele>
        <time>2023-01-28T08:08:52Z</time>
      </trkpt>
      <trkpt lat="36.4852100" lon="-6.1048340">
        <ele>25.2</ele>
        <time>2023-01-28T08:08:53Z</time>
      </trkpt>
      <trkpt lat="36.4852010" lon="-6.1047660">
        <ele>25.4</ele>
        <time>2023-01-28T08:08:54Z</time>
      </trkpt>
      <trkpt lat="36.4852030" lon="-6.1047200">
        <ele>25.6</ele>
        <time>2023-01-28T08:08:55Z</time>
      </trkpt>
      <trkpt lat="36.4851970" lon="-6.1046700">
        <ele>25.8</ele>
        <time>2023-01-28T08:08:56Z</time>
      </trkpt>
      <trkpt lat="36.4851880" lon="-6.1046160">
        <ele>25.8</ele>
        <time>2023-01-28T08:08:57Z</time>
      </trkpt>
      <trkpt lat="36.4851880" lon="-6.1045880">
        <ele>26.0</ele>
        <time>2023-01-28T08:08:58Z</time>
      </trkpt>
      <trkpt lat="36.4851840" lon="-6.1045690">
        <ele>26.4</ele>
        <time>2023-01-28T08:08:59Z</time>
      </trkpt>
      <trkpt lat="36.4851710" lon="-6.1045280">
        <ele>26.4</ele>
        <time>2023-01-28T08:09:00Z</time>
      </trkpt>
      <trkpt lat="36.4851770" lon="-6.1044950">
        <ele>26.4</ele>
        <time>2023-01-28T08:09:01Z</time>
      </trkpt>
      <trkpt lat="36.4851620" lon="-6.1044420">
        <ele>26.4</ele>
        <time>2023-01-28T08:09:02Z</time>
      </trkpt>
      <trkpt lat="36.4851540" lon="-6.1044190">
        <ele>26.4</ele>
        <time>2023-01-28T08:09:03Z</time>
      </trkpt>
      <trkpt lat="36.4851460" lon="-6.1043910">
        <ele>26.2</ele>
        <time>2023-01-28T08:09:04Z</time>
      </trkpt>
      <trkpt lat="36.4851450" lon="-6.1043610">
        <ele>26.0</ele>
        <time>2023-01-28T08:09:05Z</time>
      </trkpt>
      <trkpt lat="36.4851260" lon="-6.1042950">
        <ele>26.0</ele>
        <time>2023-01-28T08:09:06Z</time>
      </trkpt>
      <trkpt lat="36.4851120" lon="-6.1042400">
        <ele>25.8</ele>
        <time>2023-01-28T08:09:07Z</time>
      </trkpt>
      <trkpt lat="36.4850930" lon="-6.1042170">
        <ele>26.0</ele>
        <time>2023-01-28T08:09:08Z</time>
      </trkpt>
      <trkpt lat="36.4850890" lon="-6.1041950">
        <ele>26.0</ele>
        <time>2023-01-28T08:09:09Z</time>
      </trkpt>
      <trkpt lat="36.4850880" lon="-6.1041610">
        <ele>26.0</ele>
        <time>2023-01-28T08:09:10Z</time>
      </trkpt>
      <trkpt lat="36.4850780" lon="-6.1041250">
        <ele>26.0</ele>
        <time>2023-01-28T08:09:11Z</time>
      </trkpt>
      <trkpt lat="36.4850730" lon="-6.1040890">
        <ele>26.0</ele>
        <time>2023-01-28T08:09:12Z</time>
      </trkpt>
      <trkpt lat="36.4850600" lon="-6.1040590">
        <ele>26.2</ele>
        <time>2023-01-28T08:09:13Z</time>
      </trkpt>
      <trkpt lat="36.4850540" lon="-6.1040370">
        <ele>26.0</ele>
        <time>2023-01-28T08:09:14Z</time>
      </trkpt>
      <trkpt lat="36.4850370" lon="-6.1040110">
        <ele>26.0</ele>
        <time>2023-01-28T08:09:15Z</time>
      </trkpt>
      <trkpt lat="36.4850240" lon="-6.1039850">
        <ele>26.0</ele>
        <time>2023-01-28T08:09:16Z</time>
      </trkpt>
      <trkpt lat="36.4850180" lon="-6.1039510">
        <ele>26.0</ele>
        <time>2023-01-28T08:09:17Z</time>
      </trkpt>
      <trkpt lat="36.4849960" lon="-6.1039070">
        <ele>26.2</ele>
        <time>2023-01-28T08:09:18Z</time>
      </trkpt>
      <trkpt lat="36.4849930" lon="-6.1038690">
        <ele>26.2</ele>
        <time>2023-01-28T08:09:19Z</time>
      </trkpt>
      <trkpt lat="36.4849770" lon="-6.1038300">
        <ele>26.2</ele>
        <time>2023-01-28T08:09:20Z</time>
      </trkpt>
      <trkpt lat="36.4849610" lon="-6.1037860">
        <ele>26.4</ele>
        <time>2023-01-28T08:09:21Z</time>
      </trkpt>
      <trkpt lat="36.4849440" lon="-6.1037570">
        <ele>26.4</ele>
        <time>2023-01-28T08:09:22Z</time>
      </trkpt>
      <trkpt lat="36.4849330" lon="-6.1037230">
        <ele>26.4</ele>
        <time>2023-01-28T08:09:23Z</time>
      </trkpt>
      <trkpt lat="36.4849270" lon="-6.1036830">
        <ele>26.6</ele>
        <time>2023-01-28T08:09:24Z</time>
      </trkpt>
      <trkpt lat="36.4849160" lon="-6.1036360">
        <ele>26.4</ele>
        <time>2023-01-28T08:09:25Z</time>
      </trkpt>
      <trkpt lat="36.4849030" lon="-6.1035930">
        <ele>26.4</ele>
        <time>2023-01-28T08:09:26Z</time>
      </trkpt>
      <trkpt lat="36.4848880" lon="-6.1035610">
        <ele>26.6</ele>
        <time>2023-01-28T08:09:27Z</time>
      </trkpt>
      <trkpt lat="36.4848750" lon="-6.1035310">
        <ele>26.4</ele>
        <time>2023-01-28T08:09:28Z</time>
      </trkpt>
      <trkpt lat="36.4848570" lon="-6.1035100">
        <ele>26.4</ele>
        <time>2023-01-28T08:09:29Z</time>
      </trkpt>
      <trkpt lat="36.4848250" lon="-6.1034580">
        <ele>26.2</ele>
        <time>2023-01-28T08:09:30Z</time>
      </trkpt>
      <trkpt lat="36.4848060" lon="-6.1034320">
        <ele>26.0</ele>
        <time>2023-01-28T08:09:31Z</time>
      </trkpt>
      <trkpt lat="36.4847850" lon="-6.1034130">
        <ele>26.0</ele>
        <time>2023-01-28T08:09:32Z</time>
      </trkpt>
      <trkpt lat="36.4847650" lon="-6.1033720">
        <ele>26.2</ele>
        <time>2023-01-28T08:09:33Z</time>
      </trkpt>
      <trkpt lat="36.4847460" lon="-6.1033400">
        <ele>26.2</ele>
        <time>2023-01-28T08:09:34Z</time>
      </trkpt>
      <trkpt lat="36.4847300" lon="-6.1032960">
        <ele>26.2</ele>
        <time>2023-01-28T08:09:35Z</time>
      </trkpt>
      <trkpt lat="36.4847190" lon="-6.1032580">
        <ele>26.2</ele>
        <time>2023-01-28T08:09:36Z</time>
      </trkpt>
      <trkpt lat="36.4847060" lon="-6.1032160">
        <ele>26.2</ele>
        <time>2023-01-28T08:09:37Z</time>
      </trkpt>
      <trkpt lat="36.4846870" lon="-6.1031650">
        <ele>26.2</ele>
        <time>2023-01-28T08:09:38Z</time>
      </trkpt>
      <trkpt lat="36.4846660" lon="-6.1031150">
        <ele>26.2</ele>
        <time>2023-01-28T08:09:39Z</time>
      </trkpt>
      <trkpt lat="36.4846480" lon="-6.1030740">
        <ele>26.4</ele>
        <time>2023-01-28T08:09:40Z</time>
      </trkpt>
      <trkpt lat="36.4846400" lon="-6.1030260">
        <ele>26.6</ele>
        <time>2023-01-28T08:09:41Z</time>
      </trkpt>
      <trkpt lat="36.4846260" lon="-6.1029830">
        <ele>26.6</ele>
        <time>2023-01-28T08:09:42Z</time>
      </trkpt>
      <trkpt lat="36.4846080" lon="-6.1029400">
        <ele>26.6</ele>
        <time>2023-01-28T08:09:43Z</time>
      </trkpt>
      <trkpt lat="36.4846000" lon="-6.1028890">
        <ele>26.4</ele>
        <time>2023-01-28T08:09:44Z</time>
      </trkpt>
      <trkpt lat="36.4845960" lon="-6.1028600">
        <ele>26.4</ele>
        <time>2023-01-28T08:09:45Z</time>
      </trkpt>
      <trkpt lat="36.4845940" lon="-6.1028130">
        <ele>26.2</ele>
        <time>2023-01-28T08:09:46Z</time>
      </trkpt>
      <trkpt lat="36.4845950" lon="-6.1027750">
        <ele>26.2</ele>
        <time>2023-01-28T08:09:47Z</time>
      </trkpt>
      <trkpt lat="36.4845880" lon="-6.1027360">
        <ele>26.2</ele>
        <time>2023-01-28T08:09:48Z</time>
      </trkpt>
      <trkpt lat="36.4845930" lon="-6.1026890">
        <ele>26.2</ele>
        <time>2023-01-28T08:09:49Z</time>
      </trkpt>
      <trkpt lat="36.4845810" lon="-6.1026310">
        <ele>26.4</ele>
        <time>2023-01-28T08:09:50Z</time>
      </trkpt>
      <trkpt lat="36.4845770" lon="-6.1025960">
        <ele>26.4</ele>
        <time>2023-01-28T08:09:51Z</time>
      </trkpt>
      <trkpt lat="36.4845900" lon="-6.1025520">
        <ele>26.2</ele>
        <time>2023-01-28T08:09:52Z</time>
      </trkpt>
      <trkpt lat="36.4845820" lon="-6.1025010">
        <ele>26.4</ele>
        <time>2023-01-28T08:09:53Z</time>
      </trkpt>
      <trkpt lat="36.4845870" lon="-6.1024540">
        <ele>26.6</ele>
        <time>2023-01-28T08:09:54Z</time>
      </trkpt>
      <trkpt lat="36.4845870" lon="-6.1024160">
        <ele>26.6</ele>
        <time>2023-01-28T08:09:55Z</time>
      </trkpt>
      <trkpt lat="36.4845770" lon="-6.1023750">
        <ele>26.6</ele>
        <time>2023-01-28T08:09:56Z</time>
      </trkpt>
      <trkpt lat="36.4845670" lon="-6.1023250">
        <ele>26.6</ele>
        <time>2023-01-28T08:09:57Z</time>
      </trkpt>
      <trkpt lat="36.4845620" lon="-6.1022770">
        <ele>26.8</ele>
        <time>2023-01-28T08:09:58Z</time>
      </trkpt>
      <trkpt lat="36.4845510" lon="-6.1022390">
        <ele>26.8</ele>
        <time>2023-01-28T08:09:59Z</time>
      </trkpt>
      <trkpt lat="36.4845400" lon="-6.1022030">
        <ele>26.8</ele>
        <time>2023-01-28T08:10:00Z</time>
      </trkpt>
      <trkpt lat="36.4845460" lon="-6.1021540">
        <ele>26.8</ele>
        <time>2023-01-28T08:10:01Z</time>
      </trkpt>
      <trkpt lat="36.4845400" lon="-6.1021230">
        <ele>26.8</ele>
        <time>2023-01-28T08:10:02Z</time>
      </trkpt>
      <trkpt lat="36.4845500" lon="-6.1020710">
        <ele>26.8</ele>
        <time>2023-01-28T08:10:03Z</time>
      </trkpt>
      <trkpt lat="36.4845470" lon="-6.1020360">
        <ele>27.0</ele>
        <time>2023-01-28T08:10:04Z</time>
      </trkpt>
      <trkpt lat="36.4845290" lon="-6.1019960">
        <ele>27.0</ele>
        <time>2023-01-28T08:10:05Z</time>
      </trkpt>
      <trkpt lat="36.4845160" lon="-6.1019580">
        <ele>27.0</ele>
        <time>2023-01-28T08:10:06Z</time>
      </trkpt>
      <trkpt lat="36.4845000" lon="-6.1019150">
        <ele>27.0</ele>
        <time>2023-01-28T08:10:07Z</time>
      </trkpt>
      <trkpt lat="36.4844820" lon="-6.1018650">
        <ele>27.0</ele>
        <time>2023-01-28T08:10:08Z</time>
      </trkpt>
      <trkpt lat="36.4844670" lon="-6.1018210">
        <ele>27.0</ele>
        <time>2023-01-28T08:10:09Z</time>
      </trkpt>
      <trkpt lat="36.4844530" lon="-6.1017840">
        <ele>26.8</ele>
        <time>2023-01-28T08:10:10Z</time>
      </trkpt>
      <trkpt lat="36.4844500" lon="-6.1017530">
        <ele>26.8</ele>
        <time>2023-01-28T08:10:11Z</time>
      </trkpt>
      <trkpt lat="36.4844380" lon="-6.1017220">
        <ele>26.8</ele>
        <time>2023-01-28T08:10:12Z</time>
      </trkpt>
      <trkpt lat="36.4844320" lon="-6.1016860">
        <ele>27.0</ele>
        <time>2023-01-28T08:10:13Z</time>
      </trkpt>
      <trkpt lat="36.4844220" lon="-6.1016600">
        <ele>27.0</ele>
        <time>2023-01-28T08:10:14Z</time>
      </trkpt>
      <trkpt lat="36.4844150" lon="-6.1016130">
        <ele>27.0</ele>
        <time>2023-01-28T08:10:15Z</time>
      </trkpt>
      <trkpt lat="36.4844000" lon="-6.1015870">
        <ele>27.0</ele>
        <time>2023-01-28T08:10:16Z</time>
      </trkpt>
      <trkpt lat="36.4843880" lon="-6.1015500">
        <ele>27.0</ele>
        <time>2023-01-28T08:10:17Z</time>
      </trkpt>
      <trkpt lat="36.4843820" lon="-6.1015110">
        <ele>27.0</ele>
        <time>2023-01-28T08:10:18Z</time>
      </trkpt>
      <trkpt lat="36.4843760" lon="-6.1014690">
        <ele>27.0</ele>
        <time>2023-01-28T08:10:19Z</time>
      </trkpt>
      <trkpt lat="36.4843800" lon="-6.1014230">
        <ele>27.0</ele>
        <time>2023-01-28T08:10:20Z</time>
      </trkpt>
      <trkpt lat="36.4843730" lon="-6.1013920">
        <ele>27.0</ele>
        <time>2023-01-28T08:10:21Z</time>
      </trkpt>
      <trkpt lat="36.4843800" lon="-6.1013530">
        <ele>27.0</ele>
        <time>2023-01-28T08:10:22Z</time>
      </trkpt>
      <trkpt lat="36.4843990" lon="-6.1013180">
        <ele>27.2</ele>
        <time>2023-01-28T08:10:23Z</time>
      </trkpt>
      <trkpt lat="36.4844060" lon="-6.1012930">
        <ele>27.4</ele>
        <time>2023-01-28T08:10:24Z</time>
      </trkpt>
      <trkpt lat="36.4844080" lon="-6.1012660">
        <ele>27.6</ele>
        <time>2023-01-28T08:10:25Z</time>
      </trkpt>
      <trkpt lat="36.4844080" lon="-6.1012350">
        <ele>27.8</ele>
        <time>2023-01-28T08:10:26Z</time>
      </trkpt>
      <trkpt lat="36.4844020" lon="-6.1011990">
        <ele>27.8</ele>
        <time>2023-01-28T08:10:27Z</time>
      </trkpt>
      <trkpt lat="36.4843920" lon="-6.1011610">
        <ele>27.8</ele>
        <time>2023-01-28T08:10:28Z</time>
      </trkpt>
      <trkpt lat="36.4843960" lon="-6.1011230">
        <ele>27.6</ele>
        <time>2023-01-28T08:10:29Z</time>
      </trkpt>
      <trkpt lat="36.4843840" lon="-6.1010950">
        <ele>27.6</ele>
        <time>2023-01-28T08:10:30Z</time>
      </trkpt>
      <trkpt lat="36.4843670" lon="-6.1010400">
        <ele>27.6</ele>
        <time>2023-01-28T08:10:31Z</time>
      </trkpt>
      <trkpt lat="36.4843570" lon="-6.1010020">
        <ele>27.8</ele>
        <time>2023-01-28T08:10:32Z</time>
      </trkpt>
      <trkpt lat="36.4843480" lon="-6.1009700">
        <ele>27.8</ele>
        <time>2023-01-28T08:10:33Z</time>
      </trkpt>
      <trkpt lat="36.4843410" lon="-6.1009350">
        <ele>27.8</ele>
        <time>2023-01-28T08:10:34Z</time>
      </trkpt>
      <trkpt lat="36.4843250" lon="-6.1009040">
        <ele>27.8</ele>
        <time>2023-01-28T08:10:35Z</time>
      </trkpt>
      <trkpt lat="36.4843140" lon="-6.1008720">
        <ele>27.8</ele>
        <time>2023-01-28T08:10:36Z</time>
      </trkpt>
      <trkpt lat="36.4843170" lon="-6.1008540">
        <ele>27.8</ele>
        <time>2023-01-28T08:10:37Z</time>
      </trkpt>
      <trkpt lat="36.4843130" lon="-6.1008270">
        <ele>27.8</ele>
        <time>2023-01-28T08:10:38Z</time>
      </trkpt>
      <trkpt lat="36.4843060" lon="-6.1008070">
        <ele>27.8</ele>
        <time>2023-01-28T08:10:39Z</time>
      </trkpt>
      <trkpt lat="36.4843140" lon="-6.1007820">
        <ele>28.0</ele>
        <time>2023-01-28T08:10:40Z</time>
      </trkpt>
      <trkpt lat="36.4843100" lon="-6.1007400">
        <ele>28.0</ele>
        <time>2023-01-28T08:10:41Z</time>
      </trkpt>
      <trkpt lat="36.4843070" lon="-6.1006930">
        <ele>28.0</ele>
        <time>2023-01-28T08:10:42Z</time>
      </trkpt>
      <trkpt lat="36.4843040" lon="-6.1006540">
        <ele>28.0</ele>
        <time>2023-01-28T08:10:43Z</time>
      </trkpt>
      <trkpt lat="36.4843030" lon="-6.1006190">
        <ele>28.0</ele>
        <time>2023-01-28T08:10:44Z</time>
      </trkpt>
      <trkpt lat="36.4843040" lon="-6.1005950">
        <ele>28.2</ele>
        <time>2023-01-28T08:10:45Z</time>
      </trkpt>
      <trkpt lat="36.4843100" lon="-6.1005670">
        <ele>28.2</ele>
        <time>2023-01-28T08:10:46Z</time>
      </trkpt>
      <trkpt lat="36.4843140" lon="-6.1005360">
        <ele>28.2</ele>
        <time>2023-01-28T08:10:47Z</time>
      </trkpt>
      <trkpt lat="36.4843100" lon="-6.1005060">
        <ele>28.2</ele>
        <time>2023-01-28T08:10:48Z</time>
      </trkpt>
      <trkpt lat="36.4843120" lon="-6.1004690">
        <ele>28.2</ele>
        <time>2023-01-28T08:10:49Z</time>
      </trkpt>
      <trkpt lat="36.4843070" lon="-6.1004320">
        <ele>28.2</ele>
        <time>2023-01-28T08:10:50Z</time>
      </trkpt>
      <trkpt lat="36.4842880" lon="-6.1003730">
        <ele>28.2</ele>
        <time>2023-01-28T08:10:51Z</time>
      </trkpt>
      <trkpt lat="36.4842660" lon="-6.1003310">
        <ele>28.2</ele>
        <time>2023-01-28T08:10:52Z</time>
      </trkpt>
      <trkpt lat="36.4842680" lon="-6.1003050">
        <ele>28.4</ele>
        <time>2023-01-28T08:10:53Z</time>
      </trkpt>
      <trkpt lat="36.4842680" lon="-6.1002720">
        <ele>28.4</ele>
        <time>2023-01-28T08:10:54Z</time>
      </trkpt>
      <trkpt lat="36.4842560" lon="-6.1002390">
        <ele>28.4</ele>
        <time>2023-01-28T08:10:55Z</time>
      </trkpt>
      <trkpt lat="36.4842540" lon="-6.1002090">
        <ele>28.4</ele>
        <time>2023-01-28T08:10:56Z</time>
      </trkpt>
      <trkpt lat="36.4842660" lon="-6.1001790">
        <ele>28.6</ele>
        <time>2023-01-28T08:10:57Z</time>
      </trkpt>
      <trkpt lat="36.4842640" lon="-6.1001500">
        <ele>28.6</ele>
        <time>2023-01-28T08:10:58Z</time>
      </trkpt>
      <trkpt lat="36.4842730" lon="-6.1001060">
        <ele>28.4</ele>
        <time>2023-01-28T08:10:59Z</time>
      </trkpt>
      <trkpt lat="36.4842660" lon="-6.1000780">
        <ele>28.4</ele>
        <time>2023-01-28T08:11:00Z</time>
      </trkpt>
      <trkpt lat="36.4842540" lon="-6.1000250">
        <ele>28.4</ele>
        <time>2023-01-28T08:11:01Z</time>
      </trkpt>
      <trkpt lat="36.4842510" lon="-6.0999950">
        <ele>28.4</ele>
        <time>2023-01-28T08:11:02Z</time>
      </trkpt>
      <trkpt lat="36.4842540" lon="-6.0999680">
        <ele>28.4</ele>
        <time>2023-01-28T08:11:03Z</time>
      </trkpt>
      <trkpt lat="36.4842500" lon="-6.0999430">
        <ele>28.4</ele>
        <time>2023-01-28T08:11:04Z</time>
      </trkpt>
      <trkpt lat="36.4842580" lon="-6.0998990">
        <ele>28.6</ele>
        <time>2023-01-28T08:11:05Z</time>
      </trkpt>
      <trkpt lat="36.4842510" lon="-6.0998550">
        <ele>28.6</ele>
        <time>2023-01-28T08:11:06Z</time>
      </trkpt>
      <trkpt lat="36.4842450" lon="-6.0998310">
        <ele>28.6</ele>
        <time>2023-01-28T08:11:07Z</time>
      </trkpt>
      <trkpt lat="36.4842550" lon="-6.0998060">
        <ele>28.6</ele>
        <time>2023-01-28T08:11:08Z</time>
      </trkpt>
      <trkpt lat="36.4842610" lon="-6.0997800">
        <ele>28.6</ele>
        <time>2023-01-28T08:11:09Z</time>
      </trkpt>
      <trkpt lat="36.4842710" lon="-6.0997500">
        <ele>28.6</ele>
        <time>2023-01-28T08:11:10Z</time>
      </trkpt>
      <trkpt lat="36.4842780" lon="-6.0997110">
        <ele>28.6</ele>
        <time>2023-01-28T08:11:11Z</time>
      </trkpt>
      <trkpt lat="36.4842920" lon="-6.0996810">
        <ele>28.8</ele>
        <time>2023-01-28T08:11:12Z</time>
      </trkpt>
      <trkpt lat="36.4843010" lon="-6.0996440">
        <ele>28.8</ele>
        <time>2023-01-28T08:11:13Z</time>
      </trkpt>
      <trkpt lat="36.4843080" lon="-6.0995990">
        <ele>28.8</ele>
        <time>2023-01-28T08:11:14Z</time>
      </trkpt>
      <trkpt lat="36.4843100" lon="-6.0995720">
        <ele>28.8</ele>
        <time>2023-01-28T08:11:15Z</time>
      </trkpt>
      <trkpt lat="36.4843050" lon="-6.0995560">
        <ele>28.8</ele>
        <time>2023-01-28T08:11:16Z</time>
      </trkpt>
      <trkpt lat="36.4842960" lon="-6.0995000">
        <ele>29.0</ele>
        <time>2023-01-28T08:11:17Z</time>
      </trkpt>
      <trkpt lat="36.4842870" lon="-6.0994760">
        <ele>29.0</ele>
        <time>2023-01-28T08:11:18Z</time>
      </trkpt>
      <trkpt lat="36.4842780" lon="-6.0994590">
        <ele>29.0</ele>
        <time>2023-01-28T08:11:19Z</time>
      </trkpt>
      <trkpt lat="36.4842770" lon="-6.0994390">
        <ele>29.0</ele>
        <time>2023-01-28T08:11:20Z</time>
      </trkpt>
      <trkpt lat="36.4842680" lon="-6.0994100">
        <ele>29.0</ele>
        <time>2023-01-28T08:11:21Z</time>
      </trkpt>
      <trkpt lat="36.4842640" lon="-6.0993720">
        <ele>29.0</ele>
        <time>2023-01-28T08:11:22Z</time>
      </trkpt>
      <trkpt lat="36.4842750" lon="-6.0993440">
        <ele>29.2</ele>
        <time>2023-01-28T08:11:23Z</time>
      </trkpt>
      <trkpt lat="36.4842660" lon="-6.0992620">
        <ele>29.6</ele>
        <time>2023-01-28T08:11:24Z</time>
      </trkpt>
      <trkpt lat="36.4842760" lon="-6.0992320">
        <ele>30.0</ele>
        <time>2023-01-28T08:11:25Z</time>
      </trkpt>
      <trkpt lat="36.4842720" lon="-6.0991720">
        <ele>29.8</ele>
        <time>2023-01-28T08:11:26Z</time>
      </trkpt>
      <trkpt lat="36.4842610" lon="-6.0991110">
        <ele>29.8</ele>
        <time>2023-01-28T08:11:27Z</time>
      </trkpt>
      <trkpt lat="36.4842600" lon="-6.0990920">
        <ele>29.8</ele>
        <time>2023-01-28T08:11:28Z</time>
      </trkpt>
      <trkpt lat="36.4842660" lon="-6.0990580">
        <ele>29.8</ele>
        <time>2023-01-28T08:11:29Z</time>
      </trkpt>
      <trkpt lat="36.4842720" lon="-6.0989920">
        <ele>30.2</ele>
        <time>2023-01-28T08:11:30Z</time>
      </trkpt>
      <trkpt lat="36.4842750" lon="-6.0989610">
        <ele>30.2</ele>
        <time>2023-01-28T08:11:31Z</time>
      </trkpt>
      <trkpt lat="36.4842760" lon="-6.0988590">
        <ele>29.8</ele>
        <time>2023-01-28T08:11:33Z</time>
      </trkpt>
      <trkpt lat="36.4842720" lon="-6.0988250">
        <ele>29.8</ele>
        <time>2023-01-28T08:11:34Z</time>
      </trkpt>
      <trkpt lat="36.4842720" lon="-6.0987950">
        <ele>30.0</ele>
        <time>2023-01-28T08:11:35Z</time>
      </trkpt>
      <trkpt lat="36.4842760" lon="-6.0987620">
        <ele>29.8</ele>
        <time>2023-01-28T08:11:36Z</time>
      </trkpt>
      <trkpt lat="36.4842780" lon="-6.0987180">
        <ele>29.8</ele>
        <time>2023-01-28T08:11:37Z</time>
      </trkpt>
      <trkpt lat="36.4842770" lon="-6.0986750">
        <ele>29.6</ele>
        <time>2023-01-28T08:11:38Z</time>
      </trkpt>
      <trkpt lat="36.4842610" lon="-6.0986410">
        <ele>29.6</ele>
        <time>2023-01-28T08:11:39Z</time>
      </trkpt>
      <trkpt lat="36.4842440" lon="-6.0985970">
        <ele>29.8</ele>
        <time>2023-01-28T08:11:40Z</time>
      </trkpt>
      <trkpt lat="36.4842380" lon="-6.0985580">
        <ele>30.0</ele>
        <time>2023-01-28T08:11:41Z</time>
      </trkpt>
      <trkpt lat="36.4842260" lon="-6.0985200">
        <ele>30.0</ele>
        <time>2023-01-28T08:11:42Z</time>
      </trkpt>
      <trkpt lat="36.4842180" lon="-6.0984880">
        <ele>30.0</ele>
        <time>2023-01-28T08:11:43Z</time>
      </trkpt>
      <trkpt lat="36.4842200" lon="-6.0984460">
        <ele>30.0</ele>
        <time>2023-01-28T08:11:44Z</time>
      </trkpt>
      <trkpt lat="36.4842150" lon="-6.0984000">
        <ele>30.0</ele>
        <time>2023-01-28T08:11:45Z</time>
      </trkpt>
      <trkpt lat="36.4842040" lon="-6.0983590">
        <ele>30.2</ele>
        <time>2023-01-28T08:11:46Z</time>
      </trkpt>
      <trkpt lat="36.4842000" lon="-6.0983360">
        <ele>30.2</ele>
        <time>2023-01-28T08:11:47Z</time>
      </trkpt>
      <trkpt lat="36.4841900" lon="-6.0983160">
        <ele>30.2</ele>
        <time>2023-01-28T08:11:48Z</time>
      </trkpt>
      <trkpt lat="36.4841970" lon="-6.0982780">
        <ele>30.0</ele>
        <time>2023-01-28T08:11:49Z</time>
      </trkpt>
      <trkpt lat="36.4841970" lon="-6.0982410">
        <ele>30.2</ele>
        <time>2023-01-28T08:11:50Z</time>
      </trkpt>
      <trkpt lat="36.4842000" lon="-6.0981900">
        <ele>30.0</ele>
        <time>2023-01-28T08:11:51Z</time>
      </trkpt>
      <trkpt lat="36.4841990" lon="-6.0981520">
        <ele>30.0</ele>
        <time>2023-01-28T08:11:52Z</time>
      </trkpt>
      <trkpt lat="36.4841800" lon="-6.0981310">
        <ele>29.8</ele>
        <time>2023-01-28T08:11:53Z</time>
      </trkpt>
      <trkpt lat="36.4841540" lon="-6.0980950">
        <ele>29.4</ele>
        <time>2023-01-28T08:11:54Z</time>
      </trkpt>
      <trkpt lat="36.4841390" lon="-6.0980490">
        <ele>29.2</ele>
        <time>2023-01-28T08:11:55Z</time>
      </trkpt>
      <trkpt lat="36.4841310" lon="-6.0980000">
        <ele>29.2</ele>
        <time>2023-01-28T08:11:56Z</time>
      </trkpt>
      <trkpt lat="36.4841090" lon="-6.0979360">
        <ele>29.4</ele>
        <time>2023-01-28T08:11:57Z</time>
      </trkpt>
      <trkpt lat="36.4841080" lon="-6.0979120">
        <ele>29.4</ele>
        <time>2023-01-28T08:11:58Z</time>
      </trkpt>
      <trkpt lat="36.4840900" lon="-6.0978480">
        <ele>29.4</ele>
        <time>2023-01-28T08:11:59Z</time>
      </trkpt>
      <trkpt lat="36.4840790" lon="-6.0978020">
        <ele>29.4</ele>
        <time>2023-01-28T08:12:00Z</time>
      </trkpt>
      <trkpt lat="36.4840640" lon="-6.0977670">
        <ele>29.4</ele>
        <time>2023-01-28T08:12:01Z</time>
      </trkpt>
      <trkpt lat="36.4840660" lon="-6.0977360">
        <ele>29.4</ele>
        <time>2023-01-28T08:12:02Z</time>
      </trkpt>
      <trkpt lat="36.4840550" lon="-6.0976820">
        <ele>29.4</ele>
        <time>2023-01-28T08:12:03Z</time>
      </trkpt>
      <trkpt lat="36.4840540" lon="-6.0976530">
        <ele>29.4</ele>
        <time>2023-01-28T08:12:04Z</time>
      </trkpt>
      <trkpt lat="36.4840390" lon="-6.0976160">
        <ele>29.4</ele>
        <time>2023-01-28T08:12:05Z</time>
      </trkpt>
      <trkpt lat="36.4840270" lon="-6.0975850">
        <ele>29.2</ele>
        <time>2023-01-28T08:12:06Z</time>
      </trkpt>
      <trkpt lat="36.4840180" lon="-6.0975620">
        <ele>29.0</ele>
        <time>2023-01-28T08:12:07Z</time>
      </trkpt>
      <trkpt lat="36.4840190" lon="-6.0975710">
        <ele>29.0</ele>
        <time>2023-01-28T08:12:08Z</time>
      </trkpt>
      <trkpt lat="36.4840060" lon="-6.0975700">
        <ele>29.0</ele>
        <time>2023-01-28T08:12:09Z</time>
      </trkpt>
      <trkpt lat="36.4840020" lon="-6.0975160">
        <ele>29.0</ele>
        <time>2023-01-28T08:12:10Z</time>
      </trkpt>
      <trkpt lat="36.4839910" lon="-6.0974550">
        <ele>28.8</ele>
        <time>2023-01-28T08:12:11Z</time>
      </trkpt>
      <trkpt lat="36.4839910" lon="-6.0974110">
        <ele>28.6</ele>
        <time>2023-01-28T08:12:12Z</time>
      </trkpt>
      <trkpt lat="36.4839850" lon="-6.0973770">
        <ele>28.8</ele>
        <time>2023-01-28T08:12:13Z</time>
      </trkpt>
      <trkpt lat="36.4839700" lon="-6.0973450">
        <ele>28.8</ele>
        <time>2023-01-28T08:12:14Z</time>
      </trkpt>
      <trkpt lat="36.4839650" lon="-6.0973020">
        <ele>29.0</ele>
        <time>2023-01-28T08:12:15Z</time>
      </trkpt>
      <trkpt lat="36.4839700" lon="-6.0972740">
        <ele>29.0</ele>
        <time>2023-01-28T08:12:16Z</time>
      </trkpt>
      <trkpt lat="36.4839630" lon="-6.0972430">
        <ele>29.2</ele>
        <time>2023-01-28T08:12:17Z</time>
      </trkpt>
      <trkpt lat="36.4839750" lon="-6.0972030">
        <ele>29.4</ele>
        <time>2023-01-28T08:12:18Z</time>
      </trkpt>
      <trkpt lat="36.4839790" lon="-6.0971690">
        <ele>29.4</ele>
        <time>2023-01-28T08:12:19Z</time>
      </trkpt>
      <trkpt lat="36.4839700" lon="-6.0971160">
        <ele>29.2</ele>
        <time>2023-01-28T08:12:20Z</time>
      </trkpt>
      <trkpt lat="36.4839670" lon="-6.0970850">
        <ele>29.4</ele>
        <time>2023-01-28T08:12:21Z</time>
      </trkpt>
      <trkpt lat="36.4839570" lon="-6.0970410">
        <ele>29.4</ele>
        <time>2023-01-28T08:12:22Z</time>
      </trkpt>
      <trkpt lat="36.4839570" lon="-6.0969990">
        <ele>29.4</ele>
        <time>2023-01-28T08:12:23Z</time>
      </trkpt>
      <trkpt lat="36.4839550" lon="-6.0969600">
        <ele>29.4</ele>
        <time>2023-01-28T08:12:24Z</time>
      </trkpt>
      <trkpt lat="36.4839540" lon="-6.0969230">
        <ele>29.4</ele>
        <time>2023-01-28T08:12:25Z</time>
      </trkpt>
      <trkpt lat="36.4839470" lon="-6.0968810">
        <ele>29.2</ele>
        <time>2023-01-28T08:12:26Z</time>
      </trkpt>
      <trkpt lat="36.4839290" lon="-6.0968550">
        <ele>29.2</ele>
        <time>2023-01-28T08:12:27Z</time>
      </trkpt>
      <trkpt lat="36.4839070" lon="-6.0968220">
        <ele>29.4</ele>
        <time>2023-01-28T08:12:28Z</time>
      </trkpt>
      <trkpt lat="36.4838970" lon="-6.0967950">
        <ele>29.6</ele>
        <time>2023-01-28T08:12:29Z</time>
      </trkpt>
      <trkpt lat="36.4838840" lon="-6.0967860">
        <ele>29.4</ele>
        <time>2023-01-28T08:12:30Z</time>
      </trkpt>
      <trkpt lat="36.4838850" lon="-6.0967690">
        <ele>29.4</ele>
        <time>2023-01-28T08:12:31Z</time>
      </trkpt>
      <trkpt lat="36.4838470" lon="-6.0967140">
        <ele>29.4</ele>
        <time>2023-01-28T08:12:32Z</time>
      </trkpt>
      <trkpt lat="36.4838330" lon="-6.0966980">
        <ele>29.4</ele>
        <time>2023-01-28T08:12:33Z</time>
      </trkpt>
      <trkpt lat="36.4838150" lon="-6.0966740">
        <ele>29.4</ele>
        <time>2023-01-28T08:12:34Z</time>
      </trkpt>
      <trkpt lat="36.4837960" lon="-6.0966500">
        <ele>29.4</ele>
        <time>2023-01-28T08:12:35Z</time>
      </trkpt>
      <trkpt lat="36.4837770" lon="-6.0966080">
        <ele>29.4</ele>
        <time>2023-01-28T08:12:36Z</time>
      </trkpt>
      <trkpt lat="36.4837620" lon="-6.0965680">
        <ele>29.2</ele>
        <time>2023-01-28T08:12:37Z</time>
      </trkpt>
      <trkpt lat="36.4837580" lon="-6.0965180">
        <ele>29.2</ele>
        <time>2023-01-28T08:12:38Z</time>
      </trkpt>
      <trkpt lat="36.4837540" lon="-6.0964830">
        <ele>29.0</ele>
        <time>2023-01-28T08:12:39Z</time>
      </trkpt>
      <trkpt lat="36.4837530" lon="-6.0964410">
        <ele>28.6</ele>
        <time>2023-01-28T08:12:40Z</time>
      </trkpt>
      <trkpt lat="36.4837490" lon="-6.0963990">
        <ele>28.6</ele>
        <time>2023-01-28T08:12:41Z</time>
      </trkpt>
      <trkpt lat="36.4837480" lon="-6.0963600">
        <ele>28.2</ele>
        <time>2023-01-28T08:12:42Z</time>
      </trkpt>
      <trkpt lat="36.4837520" lon="-6.0963160">
        <ele>28.2</ele>
        <time>2023-01-28T08:12:43Z</time>
      </trkpt>
      <trkpt lat="36.4837590" lon="-6.0962760">
        <ele>28.0</ele>
        <time>2023-01-28T08:12:44Z</time>
      </trkpt>
      <trkpt lat="36.4837700" lon="-6.0961990">
        <ele>27.8</ele>
        <time>2023-01-28T08:12:46Z</time>
      </trkpt>
      <trkpt lat="36.4837770" lon="-6.0961680">
        <ele>27.6</ele>
        <time>2023-01-28T08:12:47Z</time>
      </trkpt>
      <trkpt lat="36.4837740" lon="-6.0961190">
        <ele>27.6</ele>
        <time>2023-01-28T08:12:48Z</time>
      </trkpt>
      <trkpt lat="36.4837780" lon="-6.0960860">
        <ele>27.6</ele>
        <time>2023-01-28T08:12:49Z</time>
      </trkpt>
      <trkpt lat="36.4837760" lon="-6.0960460">
        <ele>27.6</ele>
        <time>2023-01-28T08:12:50Z</time>
      </trkpt>
      <trkpt lat="36.4837720" lon="-6.0960060">
        <ele>27.4</ele>
        <time>2023-01-28T08:12:51Z</time>
      </trkpt>
      <trkpt lat="36.4837700" lon="-6.0959760">
        <ele>27.2</ele>
        <time>2023-01-28T08:12:52Z</time>
      </trkpt>
      <trkpt lat="36.4837710" lon="-6.0959030">
        <ele>26.8</ele>
        <time>2023-01-28T08:12:54Z</time>
      </trkpt>
      <trkpt lat="36.4837600" lon="-6.0958670">
        <ele>26.6</ele>
        <time>2023-01-28T08:12:55Z</time>
      </trkpt>
      <trkpt lat="36.4837500" lon="-6.0958430">
        <ele>26.4</ele>
        <time>2023-01-28T08:12:56Z</time>
      </trkpt>
      <trkpt lat="36.4837110" lon="-6.0957750">
        <ele>26.6</ele>
        <time>2023-01-28T08:12:58Z</time>
      </trkpt>
      <trkpt lat="36.4837050" lon="-6.0957450">
        <ele>26.6</ele>
        <time>2023-01-28T08:12:59Z</time>
      </trkpt>
      <trkpt lat="36.4836960" lon="-6.0957130">
        <ele>26.6</ele>
        <time>2023-01-28T08:13:00Z</time>
      </trkpt>
      <trkpt lat="36.4836920" lon="-6.0956840">
        <ele>26.4</ele>
        <time>2023-01-28T08:13:01Z</time>
      </trkpt>
      <trkpt lat="36.4836920" lon="-6.0956630">
        <ele>26.2</ele>
        <time>2023-01-28T08:13:02Z</time>
      </trkpt>
      <trkpt lat="36.4836880" lon="-6.0956140">
        <ele>26.2</ele>
        <time>2023-01-28T08:13:03Z</time>
      </trkpt>
      <trkpt lat="36.4836910" lon="-6.0955730">
        <ele>26.2</ele>
        <time>2023-01-28T08:13:04Z</time>
      </trkpt>
      <trkpt lat="36.4836940" lon="-6.0954830">
        <ele>26.2</ele>
        <time>2023-01-28T08:13:06Z</time>
      </trkpt>
      <trkpt lat="36.4836940" lon="-6.0954490">
        <ele>26.0</ele>
        <time>2023-01-28T08:13:07Z</time>
      </trkpt>
      <trkpt lat="36.4837040" lon="-6.0953890">
        <ele>25.8</ele>
        <time>2023-01-28T08:13:09Z</time>
      </trkpt>
      <trkpt lat="36.4837060" lon="-6.0953390">
        <ele>25.6</ele>
        <time>2023-01-28T08:13:10Z</time>
      </trkpt>
      <trkpt lat="36.4837140" lon="-6.0952930">
        <ele>25.6</ele>
        <time>2023-01-28T08:13:11Z</time>
      </trkpt>
      <trkpt lat="36.4837210" lon="-6.0952560">
        <ele>25.4</ele>
        <time>2023-01-28T08:13:12Z</time>
      </trkpt>
      <trkpt lat="36.4837320" lon="-6.0952270">
        <ele>25.4</ele>
        <time>2023-01-28T08:13:13Z</time>
      </trkpt>
      <trkpt lat="36.4837260" lon="-6.0951870">
        <ele>25.4</ele>
        <time>2023-01-28T08:13:14Z</time>
      </trkpt>
      <trkpt lat="36.4837170" lon="-6.0951470">
        <ele>25.4</ele>
        <time>2023-01-28T08:13:15Z</time>
      </trkpt>
      <trkpt lat="36.4837110" lon="-6.0951080">
        <ele>25.4</ele>
        <time>2023-01-28T08:13:16Z</time>
      </trkpt>
      <trkpt lat="36.4837060" lon="-6.0950710">
        <ele>25.2</ele>
        <time>2023-01-28T08:13:17Z</time>
      </trkpt>
      <trkpt lat="36.4836840" lon="-6.0949950">
        <ele>25.0</ele>
        <time>2023-01-28T08:13:19Z</time>
      </trkpt>
      <trkpt lat="36.4836650" lon="-6.0949500">
        <ele>24.8</ele>
        <time>2023-01-28T08:13:20Z</time>
      </trkpt>
      <trkpt lat="36.4836480" lon="-6.0949110">
        <ele>24.8</ele>
        <time>2023-01-28T08:13:21Z</time>
      </trkpt>
      <trkpt lat="36.4836360" lon="-6.0948840">
        <ele>24.8</ele>
        <time>2023-01-28T08:13:22Z</time>
      </trkpt>
      <trkpt lat="36.4836170" lon="-6.0948530">
        <ele>24.6</ele>
        <time>2023-01-28T08:13:23Z</time>
      </trkpt>
      <trkpt lat="36.4836020" lon="-6.0948140">
        <ele>24.6</ele>
        <time>2023-01-28T08:13:24Z</time>
      </trkpt>
      <trkpt lat="36.4835880" lon="-6.0947840">
        <ele>24.6</ele>
        <time>2023-01-28T08:13:25Z</time>
      </trkpt>
      <trkpt lat="36.4835790" lon="-6.0947540">
        <ele>24.4</ele>
        <time>2023-01-28T08:13:26Z</time>
      </trkpt>
      <trkpt lat="36.4835630" lon="-6.0947020">
        <ele>24.4</ele>
        <time>2023-01-28T08:13:27Z</time>
      </trkpt>
      <trkpt lat="36.4835460" lon="-6.0946560">
        <ele>24.2</ele>
        <time>2023-01-28T08:13:28Z</time>
      </trkpt>
      <trkpt lat="36.4835260" lon="-6.0946280">
        <ele>24.0</ele>
        <time>2023-01-28T08:13:29Z</time>
      </trkpt>
      <trkpt lat="36.4835160" lon="-6.0946020">
        <ele>24.0</ele>
        <time>2023-01-28T08:13:30Z</time>
      </trkpt>
      <trkpt lat="36.4835030" lon="-6.0945560">
        <ele>24.0</ele>
        <time>2023-01-28T08:13:31Z</time>
      </trkpt>
      <trkpt lat="36.4834830" lon="-6.0944700">
        <ele>23.6</ele>
        <time>2023-01-28T08:13:33Z</time>
      </trkpt>
      <trkpt lat="36.4834760" lon="-6.0944330">
        <ele>23.6</ele>
        <time>2023-01-28T08:13:34Z</time>
      </trkpt>
      <trkpt lat="36.4834610" lon="-6.0943590">
        <ele>23.2</ele>
        <time>2023-01-28T08:13:36Z</time>
      </trkpt>
      <trkpt lat="36.4834540" lon="-6.0943240">
        <ele>23.0</ele>
        <time>2023-01-28T08:13:37Z</time>
      </trkpt>
      <trkpt lat="36.4834560" lon="-6.0942900">
        <ele>22.6</ele>
        <time>2023-01-28T08:13:38Z</time>
      </trkpt>
      <trkpt lat="36.4834420" lon="-6.0942510">
        <ele>22.2</ele>
        <time>2023-01-28T08:13:39Z</time>
      </trkpt>
      <trkpt lat="36.4834250" lon="-6.0941700">
        <ele>21.6</ele>
        <time>2023-01-28T08:13:41Z</time>
      </trkpt>
      <trkpt lat="36.4834120" lon="-6.0941350">
        <ele>21.4</ele>
        <time>2023-01-28T08:13:42Z</time>
      </trkpt>
      <trkpt lat="36.4834010" lon="-6.0940570">
        <ele>21.0</ele>
        <time>2023-01-28T08:13:44Z</time>
      </trkpt>
      <trkpt lat="36.4833980" lon="-6.0940160">
        <ele>20.8</ele>
        <time>2023-01-28T08:13:45Z</time>
      </trkpt>
      <trkpt lat="36.4833950" lon="-6.0939820">
        <ele>20.6</ele>
        <time>2023-01-28T08:13:46Z</time>
      </trkpt>
      <trkpt lat="36.4833940" lon="-6.0939550">
        <ele>20.4</ele>
        <time>2023-01-28T08:13:47Z</time>
      </trkpt>
      <trkpt lat="36.4833810" lon="-6.0939190">
        <ele>20.4</ele>
        <time>2023-01-28T08:13:48Z</time>
      </trkpt>
      <trkpt lat="36.4833740" lon="-6.0938810">
        <ele>20.4</ele>
        <time>2023-01-28T08:13:49Z</time>
      </trkpt>
      <trkpt lat="36.4833650" lon="-6.0938430">
        <ele>20.0</ele>
        <time>2023-01-28T08:13:50Z</time>
      </trkpt>
      <trkpt lat="36.4833530" lon="-6.0937730">
        <ele>20.2</ele>
        <time>2023-01-28T08:13:52Z</time>
      </trkpt>
      <trkpt lat="36.4833500" lon="-6.0937440">
        <ele>20.0</ele>
        <time>2023-01-28T08:13:53Z</time>
      </trkpt>
      <trkpt lat="36.4833360" lon="-6.0937050">
        <ele>20.0</ele>
        <time>2023-01-28T08:13:54Z</time>
      </trkpt>
      <trkpt lat="36.4833150" lon="-6.0936320">
        <ele>19.8</ele>
        <time>2023-01-28T08:13:56Z</time>
      </trkpt>
      <trkpt lat="36.4833110" lon="-6.0935980">
        <ele>19.8</ele>
        <time>2023-01-28T08:13:57Z</time>
      </trkpt>
      <trkpt lat="36.4833000" lon="-6.0935570">
        <ele>19.8</ele>
        <time>2023-01-28T08:13:58Z</time>
      </trkpt>
      <trkpt lat="36.4832970" lon="-6.0935190">
        <ele>19.8</ele>
        <time>2023-01-28T08:13:59Z</time>
      </trkpt>
      <trkpt lat="36.4832990" lon="-6.0934790">
        <ele>19.6</ele>
        <time>2023-01-28T08:14:00Z</time>
      </trkpt>
      <trkpt lat="36.4833020" lon="-6.0934480">
        <ele>19.6</ele>
        <time>2023-01-28T08:14:01Z</time>
      </trkpt>
      <trkpt lat="36.4833070" lon="-6.0934090">
        <ele>19.6</ele>
        <time>2023-01-28T08:14:02Z</time>
      </trkpt>
      <trkpt lat="36.4833140" lon="-6.0933640">
        <ele>19.4</ele>
        <time>2023-01-28T08:14:03Z</time>
      </trkpt>
      <trkpt lat="36.4833160" lon="-6.0933230">
        <ele>19.2</ele>
        <time>2023-01-28T08:14:04Z</time>
      </trkpt>
      <trkpt lat="36.4833150" lon="-6.0932920">
        <ele>19.2</ele>
        <time>2023-01-28T08:14:05Z</time>
      </trkpt>
      <trkpt lat="36.4833090" lon="-6.0932580">
        <ele>19.0</ele>
        <time>2023-01-28T08:14:06Z</time>
      </trkpt>
      <trkpt lat="36.4832700" lon="-6.0931840">
        <ele>19.0</ele>
        <time>2023-01-28T08:14:08Z</time>
      </trkpt>
      <trkpt lat="36.4832480" lon="-6.0931450">
        <ele>19.0</ele>
        <time>2023-01-28T08:14:09Z</time>
      </trkpt>
      <trkpt lat="36.4832400" lon="-6.0930980">
        <ele>18.8</ele>
        <time>2023-01-28T08:14:10Z</time>
      </trkpt>
      <trkpt lat="36.4832350" lon="-6.0930760">
        <ele>18.8</ele>
        <time>2023-01-28T08:14:11Z</time>
      </trkpt>
      <trkpt lat="36.4832270" lon="-6.0930530">
        <ele>18.8</ele>
        <time>2023-01-28T08:14:12Z</time>
      </trkpt>
      <trkpt lat="36.4832160" lon="-6.0930340">
        <ele>18.8</ele>
        <time>2023-01-28T08:14:13Z</time>
      </trkpt>
      <trkpt lat="36.4831880" lon="-6.0929780">
        <ele>18.6</ele>
        <time>2023-01-28T08:14:14Z</time>
      </trkpt>
      <trkpt lat="36.4831710" lon="-6.0929450">
        <ele>18.6</ele>
        <time>2023-01-28T08:14:15Z</time>
      </trkpt>
      <trkpt lat="36.4831460" lon="-6.0929210">
        <ele>18.6</ele>
        <time>2023-01-28T08:14:16Z</time>
      </trkpt>
      <trkpt lat="36.4831130" lon="-6.0928850">
        <ele>18.6</ele>
        <time>2023-01-28T08:14:17Z</time>
      </trkpt>
      <trkpt lat="36.4831130" lon="-6.0928510">
        <ele>18.6</ele>
        <time>2023-01-28T08:14:18Z</time>
      </trkpt>
      <trkpt lat="36.4831010" lon="-6.0928130">
        <ele>18.4</ele>
        <time>2023-01-28T08:14:19Z</time>
      </trkpt>
      <trkpt lat="36.4831090" lon="-6.0927820">
        <ele>18.4</ele>
        <time>2023-01-28T08:14:20Z</time>
      </trkpt>
      <trkpt lat="36.4831040" lon="-6.0927470">
        <ele>18.4</ele>
        <time>2023-01-28T08:14:21Z</time>
      </trkpt>
      <trkpt lat="36.4830960" lon="-6.0927050">
        <ele>18.2</ele>
        <time>2023-01-28T08:14:23Z</time>
      </trkpt>
      <trkpt lat="36.4830890" lon="-6.0926530">
        <ele>18.2</ele>
        <time>2023-01-28T08:14:24Z</time>
      </trkpt>
      <trkpt lat="36.4830790" lon="-6.0926390">
        <ele>18.2</ele>
        <time>2023-01-28T08:14:25Z</time>
      </trkpt>
      <trkpt lat="36.4830330" lon="-6.0925490">
        <ele>18.0</ele>
        <time>2023-01-28T08:14:27Z</time>
      </trkpt>
      <trkpt lat="36.4830130" lon="-6.0925350">
        <ele>18.0</ele>
        <time>2023-01-28T08:14:28Z</time>
      </trkpt>
      <trkpt lat="36.4830050" lon="-6.0924950">
        <ele>18.0</ele>
        <time>2023-01-28T08:14:29Z</time>
      </trkpt>
      <trkpt lat="36.4829970" lon="-6.0924650">
        <ele>18.0</ele>
        <time>2023-01-28T08:14:30Z</time>
      </trkpt>
      <trkpt lat="36.4829970" lon="-6.0924300">
        <ele>18.2</ele>
        <time>2023-01-28T08:14:31Z</time>
      </trkpt>
      <trkpt lat="36.4829930" lon="-6.0924250">
        <ele>18.4</ele>
        <time>2023-01-28T08:14:32Z</time>
      </trkpt>
      <trkpt lat="36.4829850" lon="-6.0924030">
        <ele>18.2</ele>
        <time>2023-01-28T08:14:33Z</time>
      </trkpt>
      <trkpt lat="36.4829910" lon="-6.0923690">
        <ele>18.2</ele>
        <time>2023-01-28T08:14:34Z</time>
      </trkpt>
      <trkpt lat="36.4829910" lon="-6.0923470">
        <ele>18.0</ele>
        <time>2023-01-28T08:14:35Z</time>
      </trkpt>
      <trkpt lat="36.4829750" lon="-6.0923260">
        <ele>18.0</ele>
        <time>2023-01-28T08:14:36Z</time>
      </trkpt>
      <trkpt lat="36.4829520" lon="-6.0922430">
        <ele>18.0</ele>
        <time>2023-01-28T08:14:38Z</time>
      </trkpt>
      <trkpt lat="36.4829550" lon="-6.0922080">
        <ele>18.0</ele>
        <time>2023-01-28T08:14:39Z</time>
      </trkpt>
      <trkpt lat="36.4829450" lon="-6.0921420">
        <ele>18.0</ele>
        <time>2023-01-28T08:14:40Z</time>
      </trkpt>
      <trkpt lat="36.4829500" lon="-6.0921690">
        <ele>17.8</ele>
        <time>2023-01-28T08:14:41Z</time>
      </trkpt>
      <trkpt lat="36.4829310" lon="-6.0921570">
        <ele>17.8</ele>
        <time>2023-01-28T08:14:42Z</time>
      </trkpt>
      <trkpt lat="36.4829300" lon="-6.0921480">
        <ele>17.6</ele>
        <time>2023-01-28T08:14:43Z</time>
      </trkpt>
      <trkpt lat="36.4829230" lon="-6.0921490">
        <ele>17.6</ele>
        <time>2023-01-28T08:14:44Z</time>
      </trkpt>
      <trkpt lat="36.4829240" lon="-6.0921420">
        <ele>17.6</ele>
        <time>2023-01-28T08:14:45Z</time>
      </trkpt>
      <trkpt lat="36.4829230" lon="-6.0921440">
        <ele>17.6</ele>
        <time>2023-01-28T08:14:47Z</time>
      </trkpt>
      <trkpt lat="36.4829160" lon="-6.0921270">
        <ele>17.6</ele>
        <time>2023-01-28T08:14:48Z</time>
      </trkpt>
      <trkpt lat="36.4829220" lon="-6.0921200">
        <ele>17.6</ele>
        <time>2023-01-28T08:14:50Z</time>
      </trkpt>
      <trkpt lat="36.4829350" lon="-6.0921510">
        <ele>17.6</ele>
        <time>2023-01-28T08:14:51Z</time>
      </trkpt>
      <trkpt lat="36.4829320" lon="-6.0921890">
        <ele>17.6</ele>
        <time>2023-01-28T08:14:52Z</time>
      </trkpt>
      <trkpt lat="36.4829270" lon="-6.0921870">
        <ele>17.6</ele>
        <time>2023-01-28T08:14:53Z</time>
      </trkpt>
      <trkpt lat="36.4829300" lon="-6.0921560">
        <ele>17.6</ele>
        <time>2023-01-28T08:14:54Z</time>
      </trkpt>
      <trkpt lat="36.4829100" lon="-6.0921370">
        <ele>17.6</ele>
        <time>2023-01-28T08:14:55Z</time>
      </trkpt>
      <trkpt lat="36.4829220" lon="-6.0921910">
        <ele>17.8</ele>
        <time>2023-01-28T08:15:28Z</time>
      </trkpt>
      <trkpt lat="36.4829170" lon="-6.0921690">
        <ele>17.8</ele>
        <time>2023-01-28T08:15:29Z</time>
      </trkpt>
      <trkpt lat="36.4829050" lon="-6.0921630">
        <ele>17.8</ele>
        <time>2023-01-28T08:15:30Z</time>
      </trkpt>
      <trkpt lat="36.4829070" lon="-6.0921600">
        <ele>18.0</ele>
        <time>2023-01-28T08:15:31Z</time>
      </trkpt>
      <trkpt lat="36.4829070" lon="-6.0921650">
        <ele>18.0</ele>
        <time>2023-01-28T08:15:32Z</time>
      </trkpt>
      <trkpt lat="36.4829050" lon="-6.0921680">
        <ele>18.0</ele>
        <time>2023-01-28T08:15:33Z</time>
      </trkpt>
      <trkpt lat="36.4829180" lon="-6.0921780">
        <ele>18.0</ele>
        <time>2023-01-28T08:15:34Z</time>
      </trkpt>
      <trkpt lat="36.4829230" lon="-6.0921750">
        <ele>18.0</ele>
        <time>2023-01-28T08:15:35Z</time>
      </trkpt>
      <trkpt lat="36.4829280" lon="-6.0921830">
        <ele>18.0</ele>
        <time>2023-01-28T08:15:36Z</time>
      </trkpt>
      <trkpt lat="36.4829450" lon="-6.0922030">
        <ele>18.0</ele>
        <time>2023-01-28T08:15:37Z</time>
      </trkpt>
      <trkpt lat="36.4829470" lon="-6.0921770">
        <ele>18.0</ele>
        <time>2023-01-28T08:15:38Z</time>
      </trkpt>
      <trkpt lat="36.4829220" lon="-6.0921840">
        <ele>17.8</ele>
        <time>2023-01-28T08:15:39Z</time>
      </trkpt>
      <trkpt lat="36.4829300" lon="-6.0922370">
        <ele>17.8</ele>
        <time>2023-01-28T08:15:40Z</time>
      </trkpt>
      <trkpt lat="36.4829310" lon="-6.0922370">
        <ele>17.8</ele>
        <time>2023-01-28T08:15:41Z</time>
      </trkpt>
      <trkpt lat="36.4829370" lon="-6.0922400">
        <ele>18.0</ele>
        <time>2023-01-28T08:15:42Z</time>
      </trkpt>
      <trkpt lat="36.4829230" lon="-6.0922350">
        <ele>18.0</ele>
        <time>2023-01-28T08:15:43Z</time>
      </trkpt>
      <trkpt lat="36.4829390" lon="-6.0922430">
        <ele>18.0</ele>
        <time>2023-01-28T08:15:44Z</time>
      </trkpt>
      <trkpt lat="36.4829490" lon="-6.0922590">
        <ele>18.0</ele>
        <time>2023-01-28T08:15:45Z</time>
      </trkpt>
      <trkpt lat="36.4829740" lon="-6.0922570">
        <ele>18.0</ele>
        <time>2023-01-28T08:15:46Z</time>
      </trkpt>
      <trkpt lat="36.4829830" lon="-6.0922780">
        <ele>18.2</ele>
        <time>2023-01-28T08:15:47Z</time>
      </trkpt>
      <trkpt lat="36.4829970" lon="-6.0923070">
        <ele>18.0</ele>
        <time>2023-01-28T08:15:48Z</time>
      </trkpt>
      <trkpt lat="36.4829780" lon="-6.0923490">
        <ele>18.0</ele>
        <time>2023-01-28T08:15:49Z</time>
      </trkpt>
      <trkpt lat="36.4829970" lon="-6.0923570">
        <ele>18.0</ele>
        <time>2023-01-28T08:15:50Z</time>
      </trkpt>
      <trkpt lat="36.4829900" lon="-6.0924140">
        <ele>18.0</ele>
        <time>2023-01-28T08:15:52Z</time>
      </trkpt>
      <trkpt lat="36.4829870" lon="-6.0924300">
        <ele>18.2</ele>
        <time>2023-01-28T08:15:53Z</time>
      </trkpt>
      <trkpt lat="36.4829830" lon="-6.0924470">
        <ele>18.0</ele>
        <time>2023-01-28T08:15:55Z</time>
      </trkpt>
      <trkpt lat="36.4829910" lon="-6.0924860">
        <ele>18.0</ele>
        <time>2023-01-28T08:15:56Z</time>
      </trkpt>
      <trkpt lat="36.4829880" lon="-6.0925080">
        <ele>17.8</ele>
        <time>2023-01-28T08:15:57Z</time>
      </trkpt>
      <trkpt lat="36.4830130" lon="-6.0925630">
        <ele>17.8</ele>
        <time>2023-01-28T08:15:58Z</time>
      </trkpt>
      <trkpt lat="36.4830360" lon="-6.0925910">
        <ele>18.0</ele>
        <time>2023-01-28T08:15:59Z</time>
      </trkpt>
      <trkpt lat="36.4830380" lon="-6.0925940">
        <ele>18.0</ele>
        <time>2023-01-28T08:16:00Z</time>
      </trkpt>
      <trkpt lat="36.4830410" lon="-6.0926060">
        <ele>18.0</ele>
        <time>2023-01-28T08:16:01Z</time>
      </trkpt>
      <trkpt lat="36.4830450" lon="-6.0926260">
        <ele>18.0</ele>
        <time>2023-01-28T08:16:02Z</time>
      </trkpt>
      <trkpt lat="36.4830650" lon="-6.0926670">
        <ele>18.0</ele>
        <time>2023-01-28T08:16:03Z</time>
      </trkpt>
      <trkpt lat="36.4830830" lon="-6.0927070">
        <ele>18.2</ele>
        <time>2023-01-28T08:16:04Z</time>
      </trkpt>
      <trkpt lat="36.4830840" lon="-6.0927610">
        <ele>18.2</ele>
        <time>2023-01-28T08:16:05Z</time>
      </trkpt>
      <trkpt lat="36.4830820" lon="-6.0927750">
        <ele>18.2</ele>
        <time>2023-01-28T08:16:06Z</time>
      </trkpt>
      <trkpt lat="36.4830830" lon="-6.0928080">
        <ele>18.2</ele>
        <time>2023-01-28T08:16:07Z</time>
      </trkpt>
      <trkpt lat="36.4830830" lon="-6.0928530">
        <ele>18.4</ele>
        <time>2023-01-28T08:16:08Z</time>
      </trkpt>
      <trkpt lat="36.4831070" lon="-6.0929230">
        <ele>18.2</ele>
        <time>2023-01-28T08:16:09Z</time>
      </trkpt>
      <trkpt lat="36.4831430" lon="-6.0928850">
        <ele>18.4</ele>
        <time>2023-01-28T08:16:10Z</time>
      </trkpt>
      <trkpt lat="36.4831670" lon="-6.0929280">
        <ele>18.4</ele>
        <time>2023-01-28T08:16:11Z</time>
      </trkpt>
      <trkpt lat="36.4831820" lon="-6.0929730">
        <ele>18.4</ele>
        <time>2023-01-28T08:16:12Z</time>
      </trkpt>
      <trkpt lat="36.4832020" lon="-6.0930430">
        <ele>18.4</ele>
        <time>2023-01-28T08:16:13Z</time>
      </trkpt>
      <trkpt lat="36.4832240" lon="-6.0930620">
        <ele>18.4</ele>
        <time>2023-01-28T08:16:14Z</time>
      </trkpt>
      <trkpt lat="36.4832500" lon="-6.0931000">
        <ele>18.4</ele>
        <time>2023-01-28T08:16:15Z</time>
      </trkpt>
      <trkpt lat="36.4832580" lon="-6.0931300">
        <ele>18.4</ele>
        <time>2023-01-28T08:16:16Z</time>
      </trkpt>
      <trkpt lat="36.4832810" lon="-6.0931570">
        <ele>18.4</ele>
        <time>2023-01-28T08:16:17Z</time>
      </trkpt>
      <trkpt lat="36.4832800" lon="-6.0931950">
        <ele>18.4</ele>
        <time>2023-01-28T08:16:18Z</time>
      </trkpt>
      <trkpt lat="36.4832770" lon="-6.0932470">
        <ele>18.6</ele>
        <time>2023-01-28T08:16:19Z</time>
      </trkpt>
      <trkpt lat="36.4832890" lon="-6.0932650">
        <ele>18.6</ele>
        <time>2023-01-28T08:16:20Z</time>
      </trkpt>
      <trkpt lat="36.4833200" lon="-6.0932810">
        <ele>18.6</ele>
        <time>2023-01-28T08:16:22Z</time>
      </trkpt>
      <trkpt lat="36.4833300" lon="-6.0933150">
        <ele>18.8</ele>
        <time>2023-01-28T08:16:23Z</time>
      </trkpt>
      <trkpt lat="36.4833350" lon="-6.0933330">
        <ele>18.8</ele>
        <time>2023-01-28T08:16:24Z</time>
      </trkpt>
      <trkpt lat="36.4833370" lon="-6.0933290">
        <ele>18.8</ele>
        <time>2023-01-28T08:16:25Z</time>
      </trkpt>
      <trkpt lat="36.4833360" lon="-6.0933970">
        <ele>19.0</ele>
        <time>2023-01-28T08:16:26Z</time>
      </trkpt>
      <trkpt lat="36.4833380" lon="-6.0933840">
        <ele>19.0</ele>
        <time>2023-01-28T08:16:27Z</time>
      </trkpt>
      <trkpt lat="36.4833360" lon="-6.0934500">
        <ele>19.2</ele>
        <time>2023-01-28T08:16:28Z</time>
      </trkpt>
      <trkpt lat="36.4833260" lon="-6.0934800">
        <ele>19.4</ele>
        <time>2023-01-28T08:16:29Z</time>
      </trkpt>
      <trkpt lat="36.4833300" lon="-6.0935360">
        <ele>19.4</ele>
        <time>2023-01-28T08:16:30Z</time>
      </trkpt>
      <trkpt lat="36.4833290" lon="-6.0935740">
        <ele>19.4</ele>
        <time>2023-01-28T08:16:31Z</time>
      </trkpt>
      <trkpt lat="36.4833330" lon="-6.0935960">
        <ele>19.6</ele>
        <time>2023-01-28T08:16:32Z</time>
      </trkpt>
      <trkpt lat="36.4833200" lon="-6.0935930">
        <ele>19.6</ele>
        <time>2023-01-28T08:16:33Z</time>
      </trkpt>
      <trkpt lat="36.4833130" lon="-6.0936190">
        <ele>19.6</ele>
        <time>2023-01-28T08:16:34Z</time>
      </trkpt>
      <trkpt lat="36.4833240" lon="-6.0936590">
        <ele>19.8</ele>
        <time>2023-01-28T08:16:35Z</time>
      </trkpt>
      <trkpt lat="36.4833420" lon="-6.0936730">
        <ele>19.8</ele>
        <time>2023-01-28T08:16:36Z</time>
      </trkpt>
      <trkpt lat="36.4833410" lon="-6.0936920">
        <ele>20.0</ele>
        <time>2023-01-28T08:16:37Z</time>
      </trkpt>
      <trkpt lat="36.4833410" lon="-6.0937100">
        <ele>20.0</ele>
        <time>2023-01-28T08:16:38Z</time>
      </trkpt>
      <trkpt lat="36.4833470" lon="-6.0937420">
        <ele>20.0</ele>
        <time>2023-01-28T08:16:39Z</time>
      </trkpt>
      <trkpt lat="36.4833700" lon="-6.0937680">
        <ele>20.2</ele>
        <time>2023-01-28T08:16:40Z</time>
      </trkpt>
      <trkpt lat="36.4833760" lon="-6.0937750">
        <ele>20.2</ele>
        <time>2023-01-28T08:16:41Z</time>
      </trkpt>
      <trkpt lat="36.4833870" lon="-6.0938100">
        <ele>20.2</ele>
        <time>2023-01-28T08:16:42Z</time>
      </trkpt>
      <trkpt lat="36.4833940" lon="-6.0938190">
        <ele>20.2</ele>
        <time>2023-01-28T08:16:43Z</time>
      </trkpt>
      <trkpt lat="36.4834020" lon="-6.0938170">
        <ele>20.4</ele>
        <time>2023-01-28T08:16:44Z</time>
      </trkpt>
      <trkpt lat="36.4834020" lon="-6.0938590">
        <ele>20.4</ele>
        <time>2023-01-28T08:16:45Z</time>
      </trkpt>
      <trkpt lat="36.4834090" lon="-6.0939770">
        <ele>20.4</ele>
        <time>2023-01-28T08:16:46Z</time>
      </trkpt>
      <trkpt lat="36.4834150" lon="-6.0940110">
        <ele>20.6</ele>
        <time>2023-01-28T08:16:47Z</time>
      </trkpt>
      <trkpt lat="36.4834170" lon="-6.0940460">
        <ele>20.6</ele>
        <time>2023-01-28T08:16:48Z</time>
      </trkpt>
      <trkpt lat="36.4834090" lon="-6.0940900">
        <ele>20.8</ele>
        <time>2023-01-28T08:16:49Z</time>
      </trkpt>
      <trkpt lat="36.4834160" lon="-6.0941230">
        <ele>21.0</ele>
        <time>2023-01-28T08:16:50Z</time>
      </trkpt>
      <trkpt lat="36.4834270" lon="-6.0941480">
        <ele>21.0</ele>
        <time>2023-01-28T08:16:51Z</time>
      </trkpt>
      <trkpt lat="36.4834340" lon="-6.0941740">
        <ele>21.0</ele>
        <time>2023-01-28T08:16:52Z</time>
      </trkpt>
      <trkpt lat="36.4834370" lon="-6.0941960">
        <ele>21.2</ele>
        <time>2023-01-28T08:16:53Z</time>
      </trkpt>
      <trkpt lat="36.4834400" lon="-6.0942140">
        <ele>21.4</ele>
        <time>2023-01-28T08:16:54Z</time>
      </trkpt>
      <trkpt lat="36.4834520" lon="-6.0942620">
        <ele>21.6</ele>
        <time>2023-01-28T08:16:55Z</time>
      </trkpt>
      <trkpt lat="36.4834500" lon="-6.0942860">
        <ele>21.8</ele>
        <time>2023-01-28T08:16:56Z</time>
      </trkpt>
      <trkpt lat="36.4834640" lon="-6.0943340">
        <ele>22.2</ele>
        <time>2023-01-28T08:16:57Z</time>
      </trkpt>
      <trkpt lat="36.4834670" lon="-6.0943670">
        <ele>22.4</ele>
        <time>2023-01-28T08:16:58Z</time>
      </trkpt>
      <trkpt lat="36.4834880" lon="-6.0944030">
        <ele>22.8</ele>
        <time>2023-01-28T08:17:00Z</time>
      </trkpt>
      <trkpt lat="36.4834920" lon="-6.0944560">
        <ele>23.0</ele>
        <time>2023-01-28T08:17:01Z</time>
      </trkpt>
      <trkpt lat="36.4834880" lon="-6.0944720">
        <ele>23.2</ele>
        <time>2023-01-28T08:17:02Z</time>
      </trkpt>
      <trkpt lat="36.4834860" lon="-6.0945280">
        <ele>23.4</ele>
        <time>2023-01-28T08:17:04Z</time>
      </trkpt>
      <trkpt lat="36.4834920" lon="-6.0945620">
        <ele>23.6</ele>
        <time>2023-01-28T08:17:05Z</time>
      </trkpt>
      <trkpt lat="36.4835040" lon="-6.0945770">
        <ele>23.8</ele>
        <time>2023-01-28T08:17:06Z</time>
      </trkpt>
      <trkpt lat="36.4835060" lon="-6.0945940">
        <ele>24.0</ele>
        <time>2023-01-28T08:17:07Z</time>
      </trkpt>
      <trkpt lat="36.4835120" lon="-6.0946190">
        <ele>24.2</ele>
        <time>2023-01-28T08:17:08Z</time>
      </trkpt>
      <trkpt lat="36.4835230" lon="-6.0946490">
        <ele>24.2</ele>
        <time>2023-01-28T08:17:09Z</time>
      </trkpt>
      <trkpt lat="36.4835410" lon="-6.0946900">
        <ele>24.2</ele>
        <time>2023-01-28T08:17:10Z</time>
      </trkpt>
      <trkpt lat="36.4835630" lon="-6.0947350">
        <ele>24.2</ele>
        <time>2023-01-28T08:17:11Z</time>
      </trkpt>
      <trkpt lat="36.4835710" lon="-6.0947480">
        <ele>24.0</ele>
        <time>2023-01-28T08:17:12Z</time>
      </trkpt>
      <trkpt lat="36.4835770" lon="-6.0947690">
        <ele>24.0</ele>
        <time>2023-01-28T08:17:13Z</time>
      </trkpt>
      <trkpt lat="36.4835860" lon="-6.0947890">
        <ele>24.2</ele>
        <time>2023-01-28T08:17:14Z</time>
      </trkpt>
      <trkpt lat="36.4835910" lon="-6.0947850">
        <ele>24.2</ele>
        <time>2023-01-28T08:17:15Z</time>
      </trkpt>
      <trkpt lat="36.4836040" lon="-6.0948210">
        <ele>24.4</ele>
        <time>2023-01-28T08:17:16Z</time>
      </trkpt>
      <trkpt lat="36.4836080" lon="-6.0948480">
        <ele>24.4</ele>
        <time>2023-01-28T08:17:17Z</time>
      </trkpt>
      <trkpt lat="36.4836120" lon="-6.0948820">
        <ele>24.4</ele>
        <time>2023-01-28T08:17:18Z</time>
      </trkpt>
      <trkpt lat="36.4836290" lon="-6.0949040">
        <ele>24.4</ele>
        <time>2023-01-28T08:17:19Z</time>
      </trkpt>
      <trkpt lat="36.4836460" lon="-6.0949280">
        <ele>24.6</ele>
        <time>2023-01-28T08:17:20Z</time>
      </trkpt>
      <trkpt lat="36.4836600" lon="-6.0949610">
        <ele>24.6</ele>
        <time>2023-01-28T08:17:21Z</time>
      </trkpt>
      <trkpt lat="36.4836830" lon="-6.0949910">
        <ele>24.8</ele>
        <time>2023-01-28T08:17:22Z</time>
      </trkpt>
      <trkpt lat="36.4836950" lon="-6.0950270">
        <ele>24.8</ele>
        <time>2023-01-28T08:17:23Z</time>
      </trkpt>
      <trkpt lat="36.4837060" lon="-6.0950540">
        <ele>24.8</ele>
        <time>2023-01-28T08:17:24Z</time>
      </trkpt>
      <trkpt lat="36.4837120" lon="-6.0950620">
        <ele>24.8</ele>
        <time>2023-01-28T08:17:25Z</time>
      </trkpt>
      <trkpt lat="36.4837230" lon="-6.0950690">
        <ele>24.8</ele>
        <time>2023-01-28T08:17:26Z</time>
      </trkpt>
      <trkpt lat="36.4837300" lon="-6.0950970">
        <ele>24.8</ele>
        <time>2023-01-28T08:17:27Z</time>
      </trkpt>
      <trkpt lat="36.4837400" lon="-6.0951250">
        <ele>25.0</ele>
        <time>2023-01-28T08:17:28Z</time>
      </trkpt>
      <trkpt lat="36.4837420" lon="-6.0951810">
        <ele>25.0</ele>
        <time>2023-01-28T08:17:29Z</time>
      </trkpt>
      <trkpt lat="36.4837410" lon="-6.0952160">
        <ele>25.2</ele>
        <time>2023-01-28T08:17:30Z</time>
      </trkpt>
      <trkpt lat="36.4837420" lon="-6.0952200">
        <ele>25.4</ele>
        <time>2023-01-28T08:17:31Z</time>
      </trkpt>
      <trkpt lat="36.4837430" lon="-6.0952650">
        <ele>25.4</ele>
        <time>2023-01-28T08:17:32Z</time>
      </trkpt>
      <trkpt lat="36.4837350" lon="-6.0952980">
        <ele>25.4</ele>
        <time>2023-01-28T08:17:33Z</time>
      </trkpt>
      <trkpt lat="36.4837410" lon="-6.0953570">
        <ele>25.4</ele>
        <time>2023-01-28T08:17:34Z</time>
      </trkpt>
      <trkpt lat="36.4837250" lon="-6.0953840">
        <ele>25.6</ele>
        <time>2023-01-28T08:17:35Z</time>
      </trkpt>
      <trkpt lat="36.4837140" lon="-6.0953920">
        <ele>25.6</ele>
        <time>2023-01-28T08:17:36Z</time>
      </trkpt>
      <trkpt lat="36.4837100" lon="-6.0954410">
        <ele>25.6</ele>
        <time>2023-01-28T08:17:37Z</time>
      </trkpt>
      <trkpt lat="36.4837040" lon="-6.0954640">
        <ele>25.6</ele>
        <time>2023-01-28T08:17:38Z</time>
      </trkpt>
      <trkpt lat="36.4837100" lon="-6.0955050">
        <ele>25.4</ele>
        <time>2023-01-28T08:17:39Z</time>
      </trkpt>
      <trkpt lat="36.4837080" lon="-6.0955360">
        <ele>25.4</ele>
        <time>2023-01-28T08:17:40Z</time>
      </trkpt>
      <trkpt lat="36.4837050" lon="-6.0955720">
        <ele>25.8</ele>
        <time>2023-01-28T08:17:41Z</time>
      </trkpt>
      <trkpt lat="36.4837110" lon="-6.0956110">
        <ele>26.4</ele>
        <time>2023-01-28T08:17:42Z</time>
      </trkpt>
      <trkpt lat="36.4837030" lon="-6.0956420">
        <ele>26.4</ele>
        <time>2023-01-28T08:17:43Z</time>
      </trkpt>
      <trkpt lat="36.4837040" lon="-6.0956810">
        <ele>26.4</ele>
        <time>2023-01-28T08:17:44Z</time>
      </trkpt>
      <trkpt lat="36.4836960" lon="-6.0957160">
        <ele>26.6</ele>
        <time>2023-01-28T08:17:45Z</time>
      </trkpt>
      <trkpt lat="36.4836990" lon="-6.0957490">
        <ele>26.6</ele>
        <time>2023-01-28T08:17:46Z</time>
      </trkpt>
      <trkpt lat="36.4836940" lon="-6.0957840">
        <ele>26.6</ele>
        <time>2023-01-28T08:17:47Z</time>
      </trkpt>
      <trkpt lat="36.4837000" lon="-6.0958100">
        <ele>26.4</ele>
        <time>2023-01-28T08:17:48Z</time>
      </trkpt>
      <trkpt lat="36.4837020" lon="-6.0958250">
        <ele>26.4</ele>
        <time>2023-01-28T08:17:49Z</time>
      </trkpt>
      <trkpt lat="36.4837100" lon="-6.0958560">
        <ele>26.4</ele>
        <time>2023-01-28T08:17:50Z</time>
      </trkpt>
      <trkpt lat="36.4837230" lon="-6.0958670">
        <ele>26.4</ele>
        <time>2023-01-28T08:17:51Z</time>
      </trkpt>
      <trkpt lat="36.4837260" lon="-6.0958870">
        <ele>26.4</ele>
        <time>2023-01-28T08:17:52Z</time>
      </trkpt>
      <trkpt lat="36.4837350" lon="-6.0959130">
        <ele>26.4</ele>
        <time>2023-01-28T08:17:53Z</time>
      </trkpt>
      <trkpt lat="36.4837400" lon="-6.0959250">
        <ele>26.6</ele>
        <time>2023-01-28T08:17:54Z</time>
      </trkpt>
      <trkpt lat="36.4837520" lon="-6.0959610">
        <ele>26.6</ele>
        <time>2023-01-28T08:17:55Z</time>
      </trkpt>
      <trkpt lat="36.4837660" lon="-6.0959910">
        <ele>26.6</ele>
        <time>2023-01-28T08:17:56Z</time>
      </trkpt>
      <trkpt lat="36.4837680" lon="-6.0960280">
        <ele>26.6</ele>
        <time>2023-01-28T08:17:57Z</time>
      </trkpt>
      <trkpt lat="36.4837770" lon="-6.0960410">
        <ele>26.6</ele>
        <time>2023-01-28T08:17:58Z</time>
      </trkpt>
      <trkpt lat="36.4837760" lon="-6.0960640">
        <ele>26.6</ele>
        <time>2023-01-28T08:17:59Z</time>
      </trkpt>
      <trkpt lat="36.4837810" lon="-6.0961050">
        <ele>26.8</ele>
        <time>2023-01-28T08:18:00Z</time>
      </trkpt>
      <trkpt lat="36.4837880" lon="-6.0961210">
        <ele>26.8</ele>
        <time>2023-01-28T08:18:01Z</time>
      </trkpt>
      <trkpt lat="36.4837910" lon="-6.0961490">
        <ele>26.8</ele>
        <time>2023-01-28T08:18:02Z</time>
      </trkpt>
      <trkpt lat="36.4837900" lon="-6.0961740">
        <ele>27.0</ele>
        <time>2023-01-28T08:18:03Z</time>
      </trkpt>
      <trkpt lat="36.4837950" lon="-6.0962230">
        <ele>27.0</ele>
        <time>2023-01-28T08:18:04Z</time>
      </trkpt>
      <trkpt lat="36.4837930" lon="-6.0962150">
        <ele>27.2</ele>
        <time>2023-01-28T08:18:05Z</time>
      </trkpt>
      <trkpt lat="36.4838030" lon="-6.0962750">
        <ele>27.2</ele>
        <time>2023-01-28T08:18:06Z</time>
      </trkpt>
      <trkpt lat="36.4837970" lon="-6.0962650">
        <ele>27.4</ele>
        <time>2023-01-28T08:18:07Z</time>
      </trkpt>
      <trkpt lat="36.4837940" lon="-6.0962990">
        <ele>27.4</ele>
        <time>2023-01-28T08:18:08Z</time>
      </trkpt>
      <trkpt lat="36.4837910" lon="-6.0963260">
        <ele>27.8</ele>
        <time>2023-01-28T08:18:09Z</time>
      </trkpt>
      <trkpt lat="36.4837840" lon="-6.0963560">
        <ele>28.0</ele>
        <time>2023-01-28T08:18:10Z</time>
      </trkpt>
      <trkpt lat="36.4837880" lon="-6.0963920">
        <ele>28.0</ele>
        <time>2023-01-28T08:18:11Z</time>
      </trkpt>
      <trkpt lat="36.4837970" lon="-6.0964250">
        <ele>28.0</ele>
        <time>2023-01-28T08:18:12Z</time>
      </trkpt>
      <trkpt lat="36.4838030" lon="-6.0964690">
        <ele>28.2</ele>
        <time>2023-01-28T08:18:13Z</time>
      </trkpt>
      <trkpt lat="36.4837980" lon="-6.0964980">
        <ele>28.2</ele>
        <time>2023-01-28T08:18:14Z</time>
      </trkpt>
      <trkpt lat="36.4838000" lon="-6.0965250">
        <ele>28.4</ele>
        <time>2023-01-28T08:18:15Z</time>
      </trkpt>
      <trkpt lat="36.4837930" lon="-6.0965670">
        <ele>28.4</ele>
        <time>2023-01-28T08:18:16Z</time>
      </trkpt>
      <trkpt lat="36.4837970" lon="-6.0966010">
        <ele>28.8</ele>
        <time>2023-01-28T08:18:17Z</time>
      </trkpt>
      <trkpt lat="36.4838070" lon="-6.0966350">
        <ele>29.0</ele>
        <time>2023-01-28T08:18:18Z</time>
      </trkpt>
      <trkpt lat="36.4838210" lon="-6.0966590">
        <ele>29.2</ele>
        <time>2023-01-28T08:18:19Z</time>
      </trkpt>
      <trkpt lat="36.4838350" lon="-6.0966760">
        <ele>29.2</ele>
        <time>2023-01-28T08:18:20Z</time>
      </trkpt>
      <trkpt lat="36.4838480" lon="-6.0966850">
        <ele>29.4</ele>
        <time>2023-01-28T08:18:21Z</time>
      </trkpt>
      <trkpt lat="36.4838700" lon="-6.0966940">
        <ele>29.2</ele>
        <time>2023-01-28T08:18:22Z</time>
      </trkpt>
      <trkpt lat="36.4838870" lon="-6.0967070">
        <ele>29.4</ele>
        <time>2023-01-28T08:18:23Z</time>
      </trkpt>
      <trkpt lat="36.4839000" lon="-6.0967230">
        <ele>29.4</ele>
        <time>2023-01-28T08:18:24Z</time>
      </trkpt>
      <trkpt lat="36.4839170" lon="-6.0967400">
        <ele>29.6</ele>
        <time>2023-01-28T08:18:25Z</time>
      </trkpt>
      <trkpt lat="36.4839230" lon="-6.0967540">
        <ele>29.4</ele>
        <time>2023-01-28T08:18:26Z</time>
      </trkpt>
      <trkpt lat="36.4839380" lon="-6.0967740">
        <ele>29.2</ele>
        <time>2023-01-28T08:18:27Z</time>
      </trkpt>
      <trkpt lat="36.4839560" lon="-6.0968100">
        <ele>29.2</ele>
        <time>2023-01-28T08:18:28Z</time>
      </trkpt>
      <trkpt lat="36.4839700" lon="-6.0968480">
        <ele>29.4</ele>
        <time>2023-01-28T08:18:29Z</time>
      </trkpt>
      <trkpt lat="36.4839920" lon="-6.0968920">
        <ele>29.4</ele>
        <time>2023-01-28T08:18:30Z</time>
      </trkpt>
      <trkpt lat="36.4840170" lon="-6.0969090">
        <ele>29.4</ele>
        <time>2023-01-28T08:18:31Z</time>
      </trkpt>
      <trkpt lat="36.4840280" lon="-6.0969280">
        <ele>29.4</ele>
        <time>2023-01-28T08:18:32Z</time>
      </trkpt>
      <trkpt lat="36.4840440" lon="-6.0969250">
        <ele>29.4</ele>
        <time>2023-01-28T08:18:33Z</time>
      </trkpt>
      <trkpt lat="36.4840550" lon="-6.0969380">
        <ele>29.4</ele>
        <time>2023-01-28T08:18:34Z</time>
      </trkpt>
      <trkpt lat="36.4840550" lon="-6.0969240">
        <ele>29.4</ele>
        <time>2023-01-28T08:18:35Z</time>
      </trkpt>
      <trkpt lat="36.4840640" lon="-6.0969040">
        <ele>29.4</ele>
        <time>2023-01-28T08:18:36Z</time>
      </trkpt>
      <trkpt lat="36.4840760" lon="-6.0968490">
        <ele>29.6</ele>
        <time>2023-01-28T08:18:37Z</time>
      </trkpt>
      <trkpt lat="36.4840830" lon="-6.0968110">
        <ele>29.6</ele>
        <time>2023-01-28T08:18:38Z</time>
      </trkpt>
      <trkpt lat="36.4840820" lon="-6.0967870">
        <ele>29.6</ele>
        <time>2023-01-28T08:18:39Z</time>
      </trkpt>
      <trkpt lat="36.4840860" lon="-6.0967380">
        <ele>29.6</ele>
        <time>2023-01-28T08:18:40Z</time>
      </trkpt>
      <trkpt lat="36.4840880" lon="-6.0967170">
        <ele>29.6</ele>
        <time>2023-01-28T08:18:41Z</time>
      </trkpt>
      <trkpt lat="36.4841000" lon="-6.0966790">
        <ele>29.4</ele>
        <time>2023-01-28T08:18:42Z</time>
      </trkpt>
      <trkpt lat="36.4841090" lon="-6.0966390">
        <ele>29.2</ele>
        <time>2023-01-28T08:18:43Z</time>
      </trkpt>
      <trkpt lat="36.4841140" lon="-6.0965980">
        <ele>29.0</ele>
        <time>2023-01-28T08:18:44Z</time>
      </trkpt>
      <trkpt lat="36.4841080" lon="-6.0965510">
        <ele>29.0</ele>
        <time>2023-01-28T08:18:45Z</time>
      </trkpt>
      <trkpt lat="36.4841140" lon="-6.0965180">
        <ele>29.0</ele>
        <time>2023-01-28T08:18:46Z</time>
      </trkpt>
      <trkpt lat="36.4841070" lon="-6.0964790">
        <ele>29.0</ele>
        <time>2023-01-28T08:18:47Z</time>
      </trkpt>
      <trkpt lat="36.4841120" lon="-6.0964590">
        <ele>29.0</ele>
        <time>2023-01-28T08:18:48Z</time>
      </trkpt>
      <trkpt lat="36.4841080" lon="-6.0964320">
        <ele>29.0</ele>
        <time>2023-01-28T08:18:49Z</time>
      </trkpt>
      <trkpt lat="36.4841250" lon="-6.0964130">
        <ele>29.0</ele>
        <time>2023-01-28T08:18:50Z</time>
      </trkpt>
      <trkpt lat="36.4841370" lon="-6.0963600">
        <ele>29.2</ele>
        <time>2023-01-28T08:18:51Z</time>
      </trkpt>
      <trkpt lat="36.4841400" lon="-6.0963220">
        <ele>29.4</ele>
        <time>2023-01-28T08:18:52Z</time>
      </trkpt>
      <trkpt lat="36.4841390" lon="-6.0963050">
        <ele>29.2</ele>
        <time>2023-01-28T08:18:53Z</time>
      </trkpt>
      <trkpt lat="36.4841450" lon="-6.0962670">
        <ele>29.0</ele>
        <time>2023-01-28T08:18:54Z</time>
      </trkpt>
      <trkpt lat="36.4841540" lon="-6.0962260">
        <ele>29.2</ele>
        <time>2023-01-28T08:18:55Z</time>
      </trkpt>
      <trkpt lat="36.4841790" lon="-6.0961820">
        <ele>29.2</ele>
        <time>2023-01-28T08:18:56Z</time>
      </trkpt>
      <trkpt lat="36.4842050" lon="-6.0961720">
        <ele>29.2</ele>
        <time>2023-01-28T08:18:57Z</time>
      </trkpt>
      <trkpt lat="36.4842270" lon="-6.0961580">
        <ele>29.4</ele>
        <time>2023-01-28T08:18:58Z</time>
      </trkpt>
      <trkpt lat="36.4842510" lon="-6.0961550">
        <ele>29.4</ele>
        <time>2023-01-28T08:18:59Z</time>
      </trkpt>
      <trkpt lat="36.4842800" lon="-6.0961600">
        <ele>29.8</ele>
        <time>2023-01-28T08:19:00Z</time>
      </trkpt>
      <trkpt lat="36.4842980" lon="-6.0961330">
        <ele>29.8</ele>
        <time>2023-01-28T08:19:01Z</time>
      </trkpt>
      <trkpt lat="36.4843260" lon="-6.0961230">
        <ele>29.8</ele>
        <time>2023-01-28T08:19:02Z</time>
      </trkpt>
      <trkpt lat="36.4843570" lon="-6.0961070">
        <ele>29.6</ele>
        <time>2023-01-28T08:19:03Z</time>
      </trkpt>
      <trkpt lat="36.4843790" lon="-6.0960740">
        <ele>29.6</ele>
        <time>2023-01-28T08:19:04Z</time>
      </trkpt>
      <trkpt lat="36.4843890" lon="-6.0960220">
        <ele>29.6</ele>
        <time>2023-01-28T08:19:05Z</time>
      </trkpt>
      <trkpt lat="36.4844140" lon="-6.0959830">
        <ele>29.8</ele>
        <time>2023-01-28T08:19:06Z</time>
      </trkpt>
      <trkpt lat="36.4844150" lon="-6.0959450">
        <ele>29.8</ele>
        <time>2023-01-28T08:19:07Z</time>
      </trkpt>
      <trkpt lat="36.4844310" lon="-6.0959230">
        <ele>29.8</ele>
        <time>2023-01-28T08:19:08Z</time>
      </trkpt>
      <trkpt lat="36.4844430" lon="-6.0958880">
        <ele>30.0</ele>
        <time>2023-01-28T08:19:09Z</time>
      </trkpt>
      <trkpt lat="36.4844520" lon="-6.0958660">
        <ele>30.0</ele>
        <time>2023-01-28T08:19:10Z</time>
      </trkpt>
      <trkpt lat="36.4844750" lon="-6.0958040">
        <ele>30.0</ele>
        <time>2023-01-28T08:19:11Z</time>
      </trkpt>
      <trkpt lat="36.4844830" lon="-6.0957800">
        <ele>30.0</ele>
        <time>2023-01-28T08:19:12Z</time>
      </trkpt>
      <trkpt lat="36.4845020" lon="-6.0957420">
        <ele>30.0</ele>
        <time>2023-01-28T08:19:13Z</time>
      </trkpt>
      <trkpt lat="36.4845270" lon="-6.0957010">
        <ele>30.0</ele>
        <time>2023-01-28T08:19:14Z</time>
      </trkpt>
      <trkpt lat="36.4845740" lon="-6.0956870">
        <ele>30.0</ele>
        <time>2023-01-28T08:19:15Z</time>
      </trkpt>
      <trkpt lat="36.4845940" lon="-6.0956710">
        <ele>30.0</ele>
        <time>2023-01-28T08:19:16Z</time>
      </trkpt>
      <trkpt lat="36.4846050" lon="-6.0956540">
        <ele>30.2</ele>
        <time>2023-01-28T08:19:17Z</time>
      </trkpt>
      <trkpt lat="36.4846230" lon="-6.0956300">
        <ele>30.2</ele>
        <time>2023-01-28T08:19:18Z</time>
      </trkpt>
      <trkpt lat="36.4846440" lon="-6.0955940">
        <ele>30.2</ele>
        <time>2023-01-28T08:19:19Z</time>
      </trkpt>
      <trkpt lat="36.4846540" lon="-6.0955620">
        <ele>30.2</ele>
        <time>2023-01-28T08:19:20Z</time>
      </trkpt>
      <trkpt lat="36.4846740" lon="-6.0955390">
        <ele>30.2</ele>
        <time>2023-01-28T08:19:21Z</time>
      </trkpt>
      <trkpt lat="36.4846880" lon="-6.0955080">
        <ele>30.4</ele>
        <time>2023-01-28T08:19:22Z</time>
      </trkpt>
      <trkpt lat="36.4847020" lon="-6.0955050">
        <ele>30.4</ele>
        <time>2023-01-28T08:19:23Z</time>
      </trkpt>
      <trkpt lat="36.4847180" lon="-6.0954930">
        <ele>30.4</ele>
        <time>2023-01-28T08:19:24Z</time>
      </trkpt>
      <trkpt lat="36.4847290" lon="-6.0954690">
        <ele>30.4</ele>
        <time>2023-01-28T08:19:25Z</time>
      </trkpt>
      <trkpt lat="36.4847340" lon="-6.0954640">
        <ele>30.6</ele>
        <time>2023-01-28T08:19:26Z</time>
      </trkpt>
      <trkpt lat="36.4847440" lon="-6.0954200">
        <ele>30.6</ele>
        <time>2023-01-28T08:19:27Z</time>
      </trkpt>
      <trkpt lat="36.4847510" lon="-6.0953760">
        <ele>30.4</ele>
        <time>2023-01-28T08:19:28Z</time>
      </trkpt>
      <trkpt lat="36.4847620" lon="-6.0953540">
        <ele>30.4</ele>
        <time>2023-01-28T08:19:29Z</time>
      </trkpt>
      <trkpt lat="36.4848030" lon="-6.0953300">
        <ele>30.4</ele>
        <time>2023-01-28T08:19:30Z</time>
      </trkpt>
      <trkpt lat="36.4848210" lon="-6.0953140">
        <ele>30.6</ele>
        <time>2023-01-28T08:19:31Z</time>
      </trkpt>
      <trkpt lat="36.4848410" lon="-6.0952770">
        <ele>30.8</ele>
        <time>2023-01-28T08:19:32Z</time>
      </trkpt>
      <trkpt lat="36.4848750" lon="-6.0952420">
        <ele>31.0</ele>
        <time>2023-01-28T08:19:33Z</time>
      </trkpt>
      <trkpt lat="36.4848880" lon="-6.0952230">
        <ele>31.0</ele>
        <time>2023-01-28T08:19:34Z</time>
      </trkpt>
      <trkpt lat="36.4849110" lon="-6.0952160">
        <ele>31.0</ele>
        <time>2023-01-28T08:19:35Z</time>
      </trkpt>
      <trkpt lat="36.4849310" lon="-6.0951870">
        <ele>30.8</ele>
        <time>2023-01-28T08:19:36Z</time>
      </trkpt>
      <trkpt lat="36.4849470" lon="-6.0951580">
        <ele>30.8</ele>
        <time>2023-01-28T08:19:37Z</time>
      </trkpt>
      <trkpt lat="36.4849530" lon="-6.0951410">
        <ele>31.0</ele>
        <time>2023-01-28T08:19:38Z</time>
      </trkpt>
      <trkpt lat="36.4849670" lon="-6.0951250">
        <ele>31.0</ele>
        <time>2023-01-28T08:19:39Z</time>
      </trkpt>
      <trkpt lat="36.4849810" lon="-6.0951000">
        <ele>31.0</ele>
        <time>2023-01-28T08:19:40Z</time>
      </trkpt>
      <trkpt lat="36.4850010" lon="-6.0950710">
        <ele>31.2</ele>
        <time>2023-01-28T08:19:41Z</time>
      </trkpt>
      <trkpt lat="36.4850140" lon="-6.0950380">
        <ele>31.4</ele>
        <time>2023-01-28T08:19:42Z</time>
      </trkpt>
      <trkpt lat="36.4850340" lon="-6.0950240">
        <ele>31.4</ele>
        <time>2023-01-28T08:19:43Z</time>
      </trkpt>
      <trkpt lat="36.4850530" lon="-6.0950180">
        <ele>31.4</ele>
        <time>2023-01-28T08:19:44Z</time>
      </trkpt>
      <trkpt lat="36.4850730" lon="-6.0950180">
        <ele>31.4</ele>
        <time>2023-01-28T08:19:45Z</time>
      </trkpt>
      <trkpt lat="36.4850920" lon="-6.0950000">
        <ele>31.4</ele>
        <time>2023-01-28T08:19:46Z</time>
      </trkpt>
      <trkpt lat="36.4851070" lon="-6.0949950">
        <ele>31.4</ele>
        <time>2023-01-28T08:19:47Z</time>
      </trkpt>
      <trkpt lat="36.4851330" lon="-6.0949750">
        <ele>31.4</ele>
        <time>2023-01-28T08:19:48Z</time>
      </trkpt>
      <trkpt lat="36.4851600" lon="-6.0949720">
        <ele>31.6</ele>
        <time>2023-01-28T08:19:49Z</time>
      </trkpt>
      <trkpt lat="36.4851870" lon="-6.0949540">
        <ele>31.6</ele>
        <time>2023-01-28T08:19:50Z</time>
      </trkpt>
      <trkpt lat="36.4852050" lon="-6.0949340">
        <ele>31.8</ele>
        <time>2023-01-28T08:19:51Z</time>
      </trkpt>
      <trkpt lat="36.4852180" lon="-6.0949120">
        <ele>31.8</ele>
        <time>2023-01-28T08:19:52Z</time>
      </trkpt>
      <trkpt lat="36.4852260" lon="-6.0948860">
        <ele>31.8</ele>
        <time>2023-01-28T08:19:53Z</time>
      </trkpt>
      <trkpt lat="36.4852460" lon="-6.0948690">
        <ele>31.6</ele>
        <time>2023-01-28T08:19:54Z</time>
      </trkpt>
      <trkpt lat="36.4852530" lon="-6.0948220">
        <ele>31.8</ele>
        <time>2023-01-28T08:19:55Z</time>
      </trkpt>
      <trkpt lat="36.4852730" lon="-6.0947970">
        <ele>31.8</ele>
        <time>2023-01-28T08:19:56Z</time>
      </trkpt>
      <trkpt lat="36.4852900" lon="-6.0947450">
        <ele>32.0</ele>
        <time>2023-01-28T08:19:57Z</time>
      </trkpt>
      <trkpt lat="36.4853250" lon="-6.0947120">
        <ele>32.0</ele>
        <time>2023-01-28T08:19:58Z</time>
      </trkpt>
      <trkpt lat="36.4853550" lon="-6.0947090">
        <ele>32.0</ele>
        <time>2023-01-28T08:19:59Z</time>
      </trkpt>
      <trkpt lat="36.4853800" lon="-6.0946880">
        <ele>32.2</ele>
        <time>2023-01-28T08:20:00Z</time>
      </trkpt>
      <trkpt lat="36.4854100" lon="-6.0946370">
        <ele>32.2</ele>
        <time>2023-01-28T08:20:01Z</time>
      </trkpt>
      <trkpt lat="36.4854360" lon="-6.0946020">
        <ele>32.2</ele>
        <time>2023-01-28T08:20:02Z</time>
      </trkpt>
      <trkpt lat="36.4854640" lon="-6.0945510">
        <ele>32.2</ele>
        <time>2023-01-28T08:20:03Z</time>
      </trkpt>
      <trkpt lat="36.4854750" lon="-6.0945420">
        <ele>32.2</ele>
        <time>2023-01-28T08:20:04Z</time>
      </trkpt>
      <trkpt lat="36.4854930" lon="-6.0945070">
        <ele>32.2</ele>
        <time>2023-01-28T08:20:05Z</time>
      </trkpt>
      <trkpt lat="36.4855160" lon="-6.0944760">
        <ele>32.2</ele>
        <time>2023-01-28T08:20:06Z</time>
      </trkpt>
      <trkpt lat="36.4855330" lon="-6.0944460">
        <ele>32.2</ele>
        <time>2023-01-28T08:20:07Z</time>
      </trkpt>
      <trkpt lat="36.4855530" lon="-6.0944250">
        <ele>32.4</ele>
        <time>2023-01-28T08:20:08Z</time>
      </trkpt>
      <trkpt lat="36.4855820" lon="-6.0943760">
        <ele>32.4</ele>
        <time>2023-01-28T08:20:09Z</time>
      </trkpt>
      <trkpt lat="36.4855980" lon="-6.0943400">
        <ele>32.4</ele>
        <time>2023-01-28T08:20:10Z</time>
      </trkpt>
      <trkpt lat="36.4856210" lon="-6.0943080">
        <ele>32.4</ele>
        <time>2023-01-28T08:20:11Z</time>
      </trkpt>
      <trkpt lat="36.4856580" lon="-6.0942710">
        <ele>32.4</ele>
        <time>2023-01-28T08:20:12Z</time>
      </trkpt>
      <trkpt lat="36.4856770" lon="-6.0942310">
        <ele>32.2</ele>
        <time>2023-01-28T08:20:13Z</time>
      </trkpt>
      <trkpt lat="36.4856990" lon="-6.0942050">
        <ele>32.2</ele>
        <time>2023-01-28T08:20:14Z</time>
      </trkpt>
      <trkpt lat="36.4857120" lon="-6.0941710">
        <ele>32.0</ele>
        <time>2023-01-28T08:20:15Z</time>
      </trkpt>
      <trkpt lat="36.4857280" lon="-6.0941400">
        <ele>32.0</ele>
        <time>2023-01-28T08:20:16Z</time>
      </trkpt>
      <trkpt lat="36.4857520" lon="-6.0941090">
        <ele>32.0</ele>
        <time>2023-01-28T08:20:17Z</time>
      </trkpt>
      <trkpt lat="36.4857690" lon="-6.0940760">
        <ele>32.0</ele>
        <time>2023-01-28T08:20:18Z</time>
      </trkpt>
      <trkpt lat="36.4857970" lon="-6.0940560">
        <ele>32.0</ele>
        <time>2023-01-28T08:20:19Z</time>
      </trkpt>
      <trkpt lat="36.4858140" lon="-6.0940190">
        <ele>31.8</ele>
        <time>2023-01-28T08:20:20Z</time>
      </trkpt>
      <trkpt lat="36.4858270" lon="-6.0939960">
        <ele>31.8</ele>
        <time>2023-01-28T08:20:21Z</time>
      </trkpt>
      <trkpt lat="36.4858710" lon="-6.0939460">
        <ele>31.8</ele>
        <time>2023-01-28T08:20:22Z</time>
      </trkpt>
      <trkpt lat="36.4858940" lon="-6.0939140">
        <ele>31.8</ele>
        <time>2023-01-28T08:20:23Z</time>
      </trkpt>
      <trkpt lat="36.4859320" lon="-6.0938790">
        <ele>32.0</ele>
        <time>2023-01-28T08:20:24Z</time>
      </trkpt>
      <trkpt lat="36.4859680" lon="-6.0938310">
        <ele>32.0</ele>
        <time>2023-01-28T08:20:25Z</time>
      </trkpt>
      <trkpt lat="36.4859910" lon="-6.0937880">
        <ele>31.6</ele>
        <time>2023-01-28T08:20:26Z</time>
      </trkpt>
      <trkpt lat="36.4860010" lon="-6.0937550">
        <ele>31.6</ele>
        <time>2023-01-28T08:20:27Z</time>
      </trkpt>
      <trkpt lat="36.4860270" lon="-6.0937100">
        <ele>31.6</ele>
        <time>2023-01-28T08:20:28Z</time>
      </trkpt>
      <trkpt lat="36.4860390" lon="-6.0936590">
        <ele>31.4</ele>
        <time>2023-01-28T08:20:29Z</time>
      </trkpt>
      <trkpt lat="36.4860420" lon="-6.0936060">
        <ele>31.2</ele>
        <time>2023-01-28T08:20:30Z</time>
      </trkpt>
      <trkpt lat="36.4860470" lon="-6.0935370">
        <ele>31.2</ele>
        <time>2023-01-28T08:20:31Z</time>
      </trkpt>
      <trkpt lat="36.4860430" lon="-6.0934920">
        <ele>31.2</ele>
        <time>2023-01-28T08:20:32Z</time>
      </trkpt>
      <trkpt lat="36.4860390" lon="-6.0934420">
        <ele>31.0</ele>
        <time>2023-01-28T08:20:33Z</time>
      </trkpt>
      <trkpt lat="36.4860220" lon="-6.0933750">
        <ele>30.8</ele>
        <time>2023-01-28T08:20:34Z</time>
      </trkpt>
      <trkpt lat="36.4860010" lon="-6.0933120">
        <ele>30.4</ele>
        <time>2023-01-28T08:20:35Z</time>
      </trkpt>
      <trkpt lat="36.4859860" lon="-6.0932560">
        <ele>30.2</ele>
        <time>2023-01-28T08:20:36Z</time>
      </trkpt>
      <trkpt lat="36.4859600" lon="-6.0931970">
        <ele>30.0</ele>
        <time>2023-01-28T08:20:37Z</time>
      </trkpt>
      <trkpt lat="36.4859480" lon="-6.0931220">
        <ele>29.6</ele>
        <time>2023-01-28T08:20:38Z</time>
      </trkpt>
      <trkpt lat="36.4859280" lon="-6.0930450">
        <ele>29.4</ele>
        <time>2023-01-28T08:20:39Z</time>
      </trkpt>
      <trkpt lat="36.4859030" lon="-6.0929720">
        <ele>29.2</ele>
        <time>2023-01-28T08:20:40Z</time>
      </trkpt>
      <trkpt lat="36.4858800" lon="-6.0929120">
        <ele>29.0</ele>
        <time>2023-01-28T08:20:41Z</time>
      </trkpt>
      <trkpt lat="36.4858570" lon="-6.0928440">
        <ele>28.6</ele>
        <time>2023-01-28T08:20:42Z</time>
      </trkpt>
      <trkpt lat="36.4858290" lon="-6.0927700">
        <ele>28.4</ele>
        <time>2023-01-28T08:20:43Z</time>
      </trkpt>
      <trkpt lat="36.4858080" lon="-6.0927080">
        <ele>28.2</ele>
        <time>2023-01-28T08:20:44Z</time>
      </trkpt>
      <trkpt lat="36.4857740" lon="-6.0926420">
        <ele>28.0</ele>
        <time>2023-01-28T08:20:45Z</time>
      </trkpt>
      <trkpt lat="36.4857440" lon="-6.0925730">
        <ele>27.6</ele>
        <time>2023-01-28T08:20:46Z</time>
      </trkpt>
      <trkpt lat="36.4857270" lon="-6.0925070">
        <ele>27.4</ele>
        <time>2023-01-28T08:20:47Z</time>
      </trkpt>
      <trkpt lat="36.4857050" lon="-6.0924260">
        <ele>27.2</ele>
        <time>2023-01-28T08:20:48Z</time>
      </trkpt>
      <trkpt lat="36.4857010" lon="-6.0923660">
        <ele>27.0</ele>
        <time>2023-01-28T08:20:49Z</time>
      </trkpt>
      <trkpt lat="36.4856830" lon="-6.0923000">
        <ele>26.8</ele>
        <time>2023-01-28T08:20:50Z</time>
      </trkpt>
      <trkpt lat="36.4856630" lon="-6.0922450">
        <ele>26.4</ele>
        <time>2023-01-28T08:20:51Z</time>
      </trkpt>
      <trkpt lat="36.4856480" lon="-6.0922060">
        <ele>26.4</ele>
        <time>2023-01-28T08:20:52Z</time>
      </trkpt>
      <trkpt lat="36.4856150" lon="-6.0921480">
        <ele>26.2</ele>
        <time>2023-01-28T08:20:53Z</time>
      </trkpt>
      <trkpt lat="36.4855830" lon="-6.0920830">
        <ele>26.0</ele>
        <time>2023-01-28T08:20:54Z</time>
      </trkpt>
      <trkpt lat="36.4855430" lon="-6.0920370">
        <ele>26.0</ele>
        <time>2023-01-28T08:20:55Z</time>
      </trkpt>
      <trkpt lat="36.4855110" lon="-6.0919890">
        <ele>25.8</ele>
        <time>2023-01-28T08:20:56Z</time>
      </trkpt>
      <trkpt lat="36.4854820" lon="-6.0919330">
        <ele>25.8</ele>
        <time>2023-01-28T08:20:57Z</time>
      </trkpt>
      <trkpt lat="36.4854550" lon="-6.0918860">
        <ele>25.6</ele>
        <time>2023-01-28T08:20:58Z</time>
      </trkpt>
      <trkpt lat="36.4854300" lon="-6.0918340">
        <ele>25.4</ele>
        <time>2023-01-28T08:20:59Z</time>
      </trkpt>
      <trkpt lat="36.4854020" lon="-6.0917610">
        <ele>25.4</ele>
        <time>2023-01-28T08:21:00Z</time>
      </trkpt>
      <trkpt lat="36.4853610" lon="-6.0916420">
        <ele>25.2</ele>
        <time>2023-01-28T08:21:01Z</time>
      </trkpt>
      <trkpt lat="36.4853480" lon="-6.0915910">
        <ele>25.0</ele>
        <time>2023-01-28T08:21:02Z</time>
      </trkpt>
      <trkpt lat="36.4853350" lon="-6.0915400">
        <ele>25.0</ele>
        <time>2023-01-28T08:21:03Z</time>
      </trkpt>
      <trkpt lat="36.4853220" lon="-6.0914890">
        <ele>24.8</ele>
        <time>2023-01-28T08:21:04Z</time>
      </trkpt>
      <trkpt lat="36.4853090" lon="-6.0914380">
        <ele>24.8</ele>
        <time>2023-01-28T08:21:05Z</time>
      </trkpt>
      <trkpt lat="36.4852960" lon="-6.0913870">
        <ele>24.8</ele>
        <time>2023-01-28T08:21:06Z</time>
      </trkpt>
      <trkpt lat="36.4852830" lon="-6.0913360">
        <ele>24.8</ele>
        <time>2023-01-28T08:21:07Z</time>
      </trkpt>
      <trkpt lat="36.4852700" lon="-6.0912850">
        <ele>24.6</ele>
        <time>2023-01-28T08:21:08Z</time>
      </trkpt>
      <trkpt lat="36.4852570" lon="-6.0912420">
        <ele>24.4</ele>
        <time>2023-01-28T08:21:09Z</time>
      </trkpt>
      <trkpt lat="36.4852310" lon="-6.0911880">
        <ele>24.2</ele>
        <time>2023-01-28T08:21:10Z</time>
      </trkpt>
      <trkpt lat="36.4852090" lon="-6.0911300">
        <ele>24.2</ele>
        <time>2023-01-28T08:21:11Z</time>
      </trkpt>
      <trkpt lat="36.4851910" lon="-6.0910750">
        <ele>23.8</ele>
        <time>2023-01-28T08:21:12Z</time>
      </trkpt>
      <trkpt lat="36.4851720" lon="-6.0910240">
        <ele>23.6</ele>
        <time>2023-01-28T08:21:13Z</time>
      </trkpt>
      <trkpt lat="36.4851490" lon="-6.0909680">
        <ele>23.4</ele>
        <time>2023-01-28T08:21:14Z</time>
      </trkpt>
      <trkpt lat="36.4851280" lon="-6.0909080">
        <ele>23.2</ele>
        <time>2023-01-28T08:21:15Z</time>
      </trkpt>
      <trkpt lat="36.4851170" lon="-6.0908520">
        <ele>23.0</ele>
        <time>2023-01-28T08:21:16Z</time>
      </trkpt>
      <trkpt lat="36.4851150" lon="-6.0907990">
        <ele>23.0</ele>
        <time>2023-01-28T08:21:17Z</time>
      </trkpt>
      <trkpt lat="36.4851140" lon="-6.0907490">
        <ele>22.8</ele>
        <time>2023-01-28T08:21:18Z</time>
      </trkpt>
      <trkpt lat="36.4851140" lon="-6.0906960">
        <ele>22.8</ele>
        <time>2023-01-28T08:21:19Z</time>
      </trkpt>
      <trkpt lat="36.4851130" lon="-6.0906440">
        <ele>22.6</ele>
        <time>2023-01-28T08:21:20Z</time>
      </trkpt>
      <trkpt lat="36.4851070" lon="-6.0905910">
        <ele>22.4</ele>
        <time>2023-01-28T08:21:21Z</time>
      </trkpt>
      <trkpt lat="36.4850970" lon="-6.0905360">
        <ele>22.2</ele>
        <time>2023-01-28T08:21:22Z</time>
      </trkpt>
      <trkpt lat="36.4850840" lon="-6.0904840">
        <ele>22.2</ele>
        <time>2023-01-28T08:21:23Z</time>
      </trkpt>
      <trkpt lat="36.4850750" lon="-6.0904310">
        <ele>22.2</ele>
        <time>2023-01-28T08:21:24Z</time>
      </trkpt>
      <trkpt lat="36.4850660" lon="-6.0903780">
        <ele>22.2</ele>
        <time>2023-01-28T08:21:25Z</time>
      </trkpt>
      <trkpt lat="36.4850560" lon="-6.0903220">
        <ele>22.2</ele>
        <time>2023-01-28T08:21:26Z</time>
      </trkpt>
      <trkpt lat="36.4850400" lon="-6.0902730">
        <ele>22.0</ele>
        <time>2023-01-28T08:21:27Z</time>
      </trkpt>
      <trkpt lat="36.4850180" lon="-6.0902290">
        <ele>21.8</ele>
        <time>2023-01-28T08:21:28Z</time>
      </trkpt>
      <trkpt lat="36.4849980" lon="-6.0901800">
        <ele>21.6</ele>
        <time>2023-01-28T08:21:29Z</time>
      </trkpt>
      <trkpt lat="36.4849900" lon="-6.0901240">
        <ele>21.4</ele>
        <time>2023-01-28T08:21:30Z</time>
      </trkpt>
      <trkpt lat="36.4849800" lon="-6.0900750">
        <ele>21.2</ele>
        <time>2023-01-28T08:21:31Z</time>
      </trkpt>
      <trkpt lat="36.4849720" lon="-6.0900170">
        <ele>21.2</ele>
        <time>2023-01-28T08:21:32Z</time>
      </trkpt>
      <trkpt lat="36.4849610" lon="-6.0899580">
        <ele>21.0</ele>
        <time>2023-01-28T08:21:33Z</time>
      </trkpt>
      <trkpt lat="36.4849480" lon="-6.0899050">
        <ele>21.0</ele>
        <time>2023-01-28T08:21:34Z</time>
      </trkpt>
      <trkpt lat="36.4849390" lon="-6.0898520">
        <ele>21.0</ele>
        <time>2023-01-28T08:21:35Z</time>
      </trkpt>
      <trkpt lat="36.4849270" lon="-6.0898030">
        <ele>20.8</ele>
        <time>2023-01-28T08:21:36Z</time>
      </trkpt>
      <trkpt lat="36.4849070" lon="-6.0897580">
        <ele>20.8</ele>
        <time>2023-01-28T08:21:37Z</time>
      </trkpt>
      <trkpt lat="36.4848860" lon="-6.0897150">
        <ele>20.8</ele>
        <time>2023-01-28T08:21:38Z</time>
      </trkpt>
      <trkpt lat="36.4848710" lon="-6.0896710">
        <ele>20.6</ele>
        <time>2023-01-28T08:21:39Z</time>
      </trkpt>
      <trkpt lat="36.4848590" lon="-6.0896290">
        <ele>20.6</ele>
        <time>2023-01-28T08:21:40Z</time>
      </trkpt>
      <trkpt lat="36.4848460" lon="-6.0895810">
        <ele>20.4</ele>
        <time>2023-01-28T08:21:41Z</time>
      </trkpt>
      <trkpt lat="36.4848390" lon="-6.0895440">
        <ele>20.4</ele>
        <time>2023-01-28T08:21:42Z</time>
      </trkpt>
      <trkpt lat="36.4848350" lon="-6.0895080">
        <ele>20.2</ele>
        <time>2023-01-28T08:21:43Z</time>
      </trkpt>
      <trkpt lat="36.4848350" lon="-6.0894730">
        <ele>20.2</ele>
        <time>2023-01-28T08:21:44Z</time>
      </trkpt>
      <trkpt lat="36.4848380" lon="-6.0894350">
        <ele>20.2</ele>
        <time>2023-01-28T08:21:45Z</time>
      </trkpt>
      <trkpt lat="36.4848440" lon="-6.0894040">
        <ele>20.0</ele>
        <time>2023-01-28T08:21:46Z</time>
      </trkpt>
      <trkpt lat="36.4848560" lon="-6.0893730">
        <ele>20.2</ele>
        <time>2023-01-28T08:21:47Z</time>
      </trkpt>
      <trkpt lat="36.4848680" lon="-6.0893530">
        <ele>20.2</ele>
        <time>2023-01-28T08:21:48Z</time>
      </trkpt>
      <trkpt lat="36.4848810" lon="-6.0893400">
        <ele>20.2</ele>
        <time>2023-01-28T08:21:49Z</time>
      </trkpt>
      <trkpt lat="36.4848990" lon="-6.0893390">
        <ele>20.2</ele>
        <time>2023-01-28T08:21:50Z</time>
      </trkpt>
      <trkpt lat="36.4849120" lon="-6.0893410">
        <ele>20.4</ele>
        <time>2023-01-28T08:21:51Z</time>
      </trkpt>
      <trkpt lat="36.4849290" lon="-6.0893410">
        <ele>20.4</ele>
        <time>2023-01-28T08:21:52Z</time>
      </trkpt>
      <trkpt lat="36.4849440" lon="-6.0893370">
        <ele>20.6</ele>
        <time>2023-01-28T08:21:53Z</time>
      </trkpt>
      <trkpt lat="36.4849520" lon="-6.0893270">
        <ele>20.6</ele>
        <time>2023-01-28T08:21:54Z</time>
      </trkpt>
      <trkpt lat="36.4849540" lon="-6.0893090">
        <ele>20.6</ele>
        <time>2023-01-28T08:21:55Z</time>
      </trkpt>
      <trkpt lat="36.4849560" lon="-6.0892960">
        <ele>20.6</ele>
        <time>2023-01-28T08:21:56Z</time>
      </trkpt>
      <trkpt lat="36.4849610" lon="-6.0892810">
        <ele>20.6</ele>
        <time>2023-01-28T08:21:57Z</time>
      </trkpt>
      <trkpt lat="36.4849670" lon="-6.0892680">
        <ele>20.4</ele>
        <time>2023-01-28T08:21:58Z</time>
      </trkpt>
      <trkpt lat="36.4849690" lon="-6.0892460">
        <ele>20.4</ele>
        <time>2023-01-28T08:21:59Z</time>
      </trkpt>
      <trkpt lat="36.4849740" lon="-6.0892240">
        <ele>20.2</ele>
        <time>2023-01-28T08:22:00Z</time>
      </trkpt>
      <trkpt lat="36.4849790" lon="-6.0892010">
        <ele>20.2</ele>
        <time>2023-01-28T08:22:01Z</time>
      </trkpt>
      <trkpt lat="36.4849770" lon="-6.0891860">
        <ele>20.2</ele>
        <time>2023-01-28T08:22:02Z</time>
      </trkpt>
      <trkpt lat="36.4849800" lon="-6.0891640">
        <ele>20.2</ele>
        <time>2023-01-28T08:22:03Z</time>
      </trkpt>
      <trkpt lat="36.4849820" lon="-6.0891500">
        <ele>20.4</ele>
        <time>2023-01-28T08:22:04Z</time>
      </trkpt>
      <trkpt lat="36.4849720" lon="-6.0891370">
        <ele>20.2</ele>
        <time>2023-01-28T08:22:05Z</time>
      </trkpt>
      <trkpt lat="36.4849700" lon="-6.0891120">
        <ele>20.0</ele>
        <time>2023-01-28T08:22:06Z</time>
      </trkpt>
      <trkpt lat="36.4849710" lon="-6.0890850">
        <ele>20.0</ele>
        <time>2023-01-28T08:22:07Z</time>
      </trkpt>
      <trkpt lat="36.4849730" lon="-6.0890610">
        <ele>20.0</ele>
        <time>2023-01-28T08:22:08Z</time>
      </trkpt>
      <trkpt lat="36.4849770" lon="-6.0890420">
        <ele>20.0</ele>
        <time>2023-01-28T08:22:09Z</time>
      </trkpt>
      <trkpt lat="36.4849800" lon="-6.0890240">
        <ele>20.0</ele>
        <time>2023-01-28T08:22:10Z</time>
      </trkpt>
      <trkpt lat="36.4849820" lon="-6.0890030">
        <ele>20.0</ele>
        <time>2023-01-28T08:22:11Z</time>
      </trkpt>
      <trkpt lat="36.4849910" lon="-6.0889870">
        <ele>20.0</ele>
        <time>2023-01-28T08:22:12Z</time>
      </trkpt>
      <trkpt lat="36.4849910" lon="-6.0889790">
        <ele>20.0</ele>
        <time>2023-01-28T08:22:13Z</time>
      </trkpt>
      <trkpt lat="36.4849900" lon="-6.0889760">
        <ele>20.0</ele>
        <time>2023-01-28T08:22:14Z</time>
      </trkpt>
      <trkpt lat="36.4849910" lon="-6.0889710">
        <ele>20.0</ele>
        <time>2023-01-28T08:22:15Z</time>
      </trkpt>
      <trkpt lat="36.4849910" lon="-6.0889680">
        <ele>20.0</ele>
        <time>2023-01-28T08:22:16Z</time>
      </trkpt>
      <trkpt lat="36.4849910" lon="-6.0889600">
        <ele>20.0</ele>
        <time>2023-01-28T08:22:17Z</time>
      </trkpt>
      <trkpt lat="36.4849930" lon="-6.0889570">
        <ele>20.0</ele>
        <time>2023-01-28T08:22:18Z</time>
      </trkpt>
      <trkpt lat="36.4849920" lon="-6.0889550">
        <ele>19.8</ele>
        <time>2023-01-28T08:22:19Z</time>
      </trkpt>
      <trkpt lat="36.4849920" lon="-6.0889550">
        <ele>19.8</ele>
        <time>2023-01-28T08:22:20Z</time>
      </trkpt>
      <trkpt lat="36.4849940" lon="-6.0889550">
        <ele>19.8</ele>
        <time>2023-01-28T08:22:21Z</time>
      </trkpt>
      <trkpt lat="36.4849960" lon="-6.0889550">
        <ele>19.8</ele>
        <time>2023-01-28T08:22:22Z</time>
      </trkpt>
      <trkpt lat="36.4849970" lon="-6.0889550">
        <ele>19.8</ele>
        <time>2023-01-28T08:22:23Z</time>
      </trkpt>
      <trkpt lat="36.4849930" lon="-6.0889540">
        <ele>19.8</ele>
        <time>2023-01-28T08:22:24Z</time>
      </trkpt>
      <trkpt lat="36.4849920" lon="-6.0889620">
        <ele>19.8</ele>
        <time>2023-01-28T08:22:25Z</time>
      </trkpt>
      <trkpt lat="36.4850000" lon="-6.0889830">
        <ele>19.8</ele>
        <time>2023-01-28T08:22:29Z</time>
      </trkpt>
      <trkpt lat="36.4850030" lon="-6.0889840">
        <ele>19.8</ele>
        <time>2023-01-28T08:22:30Z</time>
      </trkpt>
      <trkpt lat="36.4849980" lon="-6.0889810">
        <ele>20.0</ele>
        <time>2023-01-28T08:22:31Z</time>
      </trkpt>
      <trkpt lat="36.4849880" lon="-6.0889710">
        <ele>20.0</ele>
        <time>2023-01-28T08:22:32Z</time>
      </trkpt>
      <trkpt lat="36.4849990" lon="-6.0889900">
        <ele>20.0</ele>
        <time>2023-01-28T08:22:33Z</time>
      </trkpt>
      <trkpt lat="36.4850020" lon="-6.0889790">
        <ele>20.0</ele>
        <time>2023-01-28T08:22:34Z</time>
      </trkpt>
      <trkpt lat="36.4850010" lon="-6.0890000">
        <ele>20.0</ele>
        <time>2023-01-28T08:22:35Z</time>
      </trkpt>
      <trkpt lat="36.4850040" lon="-6.0890080">
        <ele>20.0</ele>
        <time>2023-01-28T08:22:36Z</time>
      </trkpt>
      <trkpt lat="36.4850050" lon="-6.0890020">
        <ele>20.0</ele>
        <time>2023-01-28T08:22:37Z</time>
      </trkpt>
      <trkpt lat="36.4850030" lon="-6.0890160">
        <ele>20.0</ele>
        <time>2023-01-28T08:22:38Z</time>
      </trkpt>
      <trkpt lat="36.4849780" lon="-6.0890020">
        <ele>20.0</ele>
        <time>2023-01-28T08:22:39Z</time>
      </trkpt>
      <trkpt lat="36.4849800" lon="-6.0890050">
        <ele>20.0</ele>
        <time>2023-01-28T08:22:40Z</time>
      </trkpt>
      <trkpt lat="36.4849820" lon="-6.0890060">
        <ele>18.8</ele>
        <time>2023-01-28T08:22:41Z</time>
      </trkpt>
      <trkpt lat="36.4849800" lon="-6.0890160">
        <ele>19.8</ele>
        <time>2023-01-28T08:22:42Z</time>
      </trkpt>
      <trkpt lat="36.4849780" lon="-6.0890130">
        <ele>19.4</ele>
        <time>2023-01-28T08:22:43Z</time>
      </trkpt>
      <trkpt lat="36.4849760" lon="-6.0890080">
        <ele>18.8</ele>
        <time>2023-01-28T08:22:44Z</time>
      </trkpt>
      <trkpt lat="36.4849720" lon="-6.0890010">
        <ele>20.4</ele>
        <time>2023-01-28T08:22:45Z</time>
      </trkpt>
      <trkpt lat="36.4849620" lon="-6.0890110">
        <ele>21.2</ele>
        <time>2023-01-28T08:22:46Z</time>
      </trkpt>
      <trkpt lat="36.4849810" lon="-6.0889990">
        <ele>20.2</ele>
        <time>2023-01-28T08:22:47Z</time>
      </trkpt>
      <trkpt lat="36.4849900" lon="-6.0890230">
        <ele>20.2</ele>
        <time>2023-01-28T08:22:48Z</time>
      </trkpt>
      <trkpt lat="36.4849840" lon="-6.0890550">
        <ele>20.0</ele>
        <time>2023-01-28T08:22:49Z</time>
      </trkpt>
      <trkpt lat="36.4849690" lon="-6.0890610">
        <ele>20.2</ele>
        <time>2023-01-28T08:22:50Z</time>
      </trkpt>
      <trkpt lat="36.4849840" lon="-6.0890580">
        <ele>20.0</ele>
        <time>2023-01-28T08:22:51Z</time>
      </trkpt>
      <trkpt lat="36.4849960" lon="-6.0890850">
        <ele>20.0</ele>
        <time>2023-01-28T08:22:52Z</time>
      </trkpt>
      <trkpt lat="36.4850090" lon="-6.0890900">
        <ele>20.0</ele>
        <time>2023-01-28T08:22:54Z</time>
      </trkpt>
      <trkpt lat="36.4850240" lon="-6.0891020">
        <ele>20.0</ele>
        <time>2023-01-28T08:22:55Z</time>
      </trkpt>
      <trkpt lat="36.4850140" lon="-6.0891070">
        <ele>20.0</ele>
        <time>2023-01-28T08:22:56Z</time>
      </trkpt>
      <trkpt lat="36.4850120" lon="-6.0891130">
        <ele>20.0</ele>
        <time>2023-01-28T08:22:57Z</time>
      </trkpt>
      <trkpt lat="36.4850210" lon="-6.0891210">
        <ele>20.0</ele>
        <time>2023-01-28T08:22:58Z</time>
      </trkpt>
      <trkpt lat="36.4850220" lon="-6.0890990">
        <ele>20.0</ele>
        <time>2023-01-28T08:22:59Z</time>
      </trkpt>
      <trkpt lat="36.4850120" lon="-6.0890640">
        <ele>20.0</ele>
        <time>2023-01-28T08:23:00Z</time>
      </trkpt>
      <trkpt lat="36.4850150" lon="-6.0890120">
        <ele>20.0</ele>
        <time>2023-01-28T08:23:01Z</time>
      </trkpt>
      <trkpt lat="36.4850190" lon="-6.0890060">
        <ele>20.0</ele>
        <time>2023-01-28T08:23:02Z</time>
      </trkpt>
      <trkpt lat="36.4850170" lon="-6.0889990">
        <ele>20.0</ele>
        <time>2023-01-28T08:23:03Z</time>
      </trkpt>
      <trkpt lat="36.4850140" lon="-6.0889960">
        <ele>20.0</ele>
        <time>2023-01-28T08:23:04Z</time>
      </trkpt>
      <trkpt lat="36.4850110" lon="-6.0889870">
        <ele>20.0</ele>
        <time>2023-01-28T08:23:05Z</time>
      </trkpt>
      <trkpt lat="36.4850110" lon="-6.0889990">
        <ele>20.0</ele>
        <time>2023-01-28T08:23:06Z</time>
      </trkpt>
      <trkpt lat="36.4850040" lon="-6.0889900">
        <ele>20.0</ele>
        <time>2023-01-28T08:23:07Z</time>
      </trkpt>
      <trkpt lat="36.4850170" lon="-6.0890300">
        <ele>19.8</ele>
        <time>2023-01-28T08:23:08Z</time>
      </trkpt>
      <trkpt lat="36.4850170" lon="-6.0890820">
        <ele>20.0</ele>
        <time>2023-01-28T08:23:09Z</time>
      </trkpt>
      <trkpt lat="36.4850080" lon="-6.0890630">
        <ele>20.0</ele>
        <time>2023-01-28T08:23:10Z</time>
      </trkpt>
      <trkpt lat="36.4850050" lon="-6.0890630">
        <ele>20.0</ele>
        <time>2023-01-28T08:23:11Z</time>
      </trkpt>
      <trkpt lat="36.4850030" lon="-6.0890570">
        <ele>20.0</ele>
        <time>2023-01-28T08:23:12Z</time>
      </trkpt>
      <trkpt lat="36.4850100" lon="-6.0890650">
        <ele>19.8</ele>
        <time>2023-01-28T08:23:13Z</time>
      </trkpt>
      <trkpt lat="36.4850160" lon="-6.0890640">
        <ele>19.8</ele>
        <time>2023-01-28T08:23:14Z</time>
      </trkpt>
      <trkpt lat="36.4850110" lon="-6.0890550">
        <ele>19.8</ele>
        <time>2023-01-28T08:23:15Z</time>
      </trkpt>
      <trkpt lat="36.4850120" lon="-6.0890670">
        <ele>19.8</ele>
        <time>2023-01-28T08:23:16Z</time>
      </trkpt>
      <trkpt lat="36.4850080" lon="-6.0890770">
        <ele>19.8</ele>
        <time>2023-01-28T08:23:17Z</time>
      </trkpt>
      <trkpt lat="36.4850090" lon="-6.0891040">
        <ele>19.8</ele>
        <time>2023-01-28T08:23:18Z</time>
      </trkpt>
      <trkpt lat="36.4850050" lon="-6.0890970">
        <ele>19.8</ele>
        <time>2023-01-28T08:23:19Z</time>
      </trkpt>
      <trkpt lat="36.4850080" lon="-6.0890930">
        <ele>19.8</ele>
        <time>2023-01-28T08:23:20Z</time>
      </trkpt>
      <trkpt lat="36.4850080" lon="-6.0890940">
        <ele>19.8</ele>
        <time>2023-01-28T08:23:21Z</time>
      </trkpt>
      <trkpt lat="36.4850060" lon="-6.0890900">
        <ele>19.8</ele>
        <time>2023-01-28T08:23:22Z</time>
      </trkpt>
      <trkpt lat="36.4850130" lon="-6.0891040">
        <ele>19.8</ele>
        <time>2023-01-28T08:23:23Z</time>
      </trkpt>
      <trkpt lat="36.4850170" lon="-6.0891110">
        <ele>19.8</ele>
        <time>2023-01-28T08:23:24Z</time>
      </trkpt>
      <trkpt lat="36.4850210" lon="-6.0891190">
        <ele>19.8</ele>
        <time>2023-01-28T08:23:25Z</time>
      </trkpt>
      <trkpt lat="36.4850310" lon="-6.0891400">
        <ele>20.0</ele>
        <time>2023-01-28T08:23:26Z</time>
      </trkpt>
      <trkpt lat="36.4850310" lon="-6.0891560">
        <ele>20.0</ele>
        <time>2023-01-28T08:23:27Z</time>
      </trkpt>
      <trkpt lat="36.4850590" lon="-6.0892450">
        <ele>20.0</ele>
        <time>2023-01-28T08:23:28Z</time>
      </trkpt>
      <trkpt lat="36.4850520" lon="-6.0892760">
        <ele>20.0</ele>
        <time>2023-01-28T08:23:29Z</time>
      </trkpt>
      <trkpt lat="36.4850480" lon="-6.0893000">
        <ele>20.0</ele>
        <time>2023-01-28T08:23:30Z</time>
      </trkpt>
      <trkpt lat="36.4850280" lon="-6.0893140">
        <ele>20.0</ele>
        <time>2023-01-28T08:23:31Z</time>
      </trkpt>
      <trkpt lat="36.4850130" lon="-6.0893020">
        <ele>20.2</ele>
        <time>2023-01-28T08:23:32Z</time>
      </trkpt>
      <trkpt lat="36.4850100" lon="-6.0893290">
        <ele>20.4</ele>
        <time>2023-01-28T08:23:33Z</time>
      </trkpt>
      <trkpt lat="36.4850040" lon="-6.0893460">
        <ele>20.4</ele>
        <time>2023-01-28T08:23:34Z</time>
      </trkpt>
      <trkpt lat="36.4849880" lon="-6.0893440">
        <ele>20.6</ele>
        <time>2023-01-28T08:23:35Z</time>
      </trkpt>
      <trkpt lat="36.4849800" lon="-6.0893290">
        <ele>20.6</ele>
        <time>2023-01-28T08:23:36Z</time>
      </trkpt>
      <trkpt lat="36.4849710" lon="-6.0893430">
        <ele>20.6</ele>
        <time>2023-01-28T08:23:37Z</time>
      </trkpt>
      <trkpt lat="36.4849680" lon="-6.0893570">
        <ele>20.4</ele>
        <time>2023-01-28T08:23:38Z</time>
      </trkpt>
      <trkpt lat="36.4849480" lon="-6.0893380">
        <ele>20.2</ele>
        <time>2023-01-28T08:23:39Z</time>
      </trkpt>
      <trkpt lat="36.4849380" lon="-6.0893570">
        <ele>20.2</ele>
        <time>2023-01-28T08:23:40Z</time>
      </trkpt>
      <trkpt lat="36.4849110" lon="-6.0893320">
        <ele>20.0</ele>
        <time>2023-01-28T08:23:41Z</time>
      </trkpt>
      <trkpt lat="36.4848980" lon="-6.0893180">
        <ele>20.0</ele>
        <time>2023-01-28T08:23:42Z</time>
      </trkpt>
      <trkpt lat="36.4848940" lon="-6.0893250">
        <ele>19.8</ele>
        <time>2023-01-28T08:23:43Z</time>
      </trkpt>
      <trkpt lat="36.4848840" lon="-6.0893080">
        <ele>19.8</ele>
        <time>2023-01-28T08:23:44Z</time>
      </trkpt>
      <trkpt lat="36.4848940" lon="-6.0893390">
        <ele>19.8</ele>
        <time>2023-01-28T08:23:45Z</time>
      </trkpt>
      <trkpt lat="36.4848860" lon="-6.0893220">
        <ele>19.8</ele>
        <time>2023-01-28T08:23:46Z</time>
      </trkpt>
      <trkpt lat="36.4848780" lon="-6.0893090">
        <ele>19.8</ele>
        <time>2023-01-28T08:23:47Z</time>
      </trkpt>
      <trkpt lat="36.4848710" lon="-6.0893170">
        <ele>19.6</ele>
        <time>2023-01-28T08:23:48Z</time>
      </trkpt>
      <trkpt lat="36.4848650" lon="-6.0893190">
        <ele>19.6</ele>
        <time>2023-01-28T08:23:49Z</time>
      </trkpt>
      <trkpt lat="36.4848480" lon="-6.0892910">
        <ele>19.6</ele>
        <time>2023-01-28T08:23:50Z</time>
      </trkpt>
      <trkpt lat="36.4848520" lon="-6.0893050">
        <ele>19.6</ele>
        <time>2023-01-28T08:23:51Z</time>
      </trkpt>
      <trkpt lat="36.4848360" lon="-6.0892830">
        <ele>19.6</ele>
        <time>2023-01-28T08:23:52Z</time>
      </trkpt>
      <trkpt lat="36.4848270" lon="-6.0892800">
        <ele>19.6</ele>
        <time>2023-01-28T08:23:53Z</time>
      </trkpt>
      <trkpt lat="36.4848200" lon="-6.0892810">
        <ele>19.6</ele>
        <time>2023-01-28T08:23:54Z</time>
      </trkpt>
      <trkpt lat="36.4848140" lon="-6.0892690">
        <ele>19.6</ele>
        <time>2023-01-28T08:23:55Z</time>
      </trkpt>
      <trkpt lat="36.4848180" lon="-6.0892560">
        <ele>19.6</ele>
        <time>2023-01-28T08:23:56Z</time>
      </trkpt>
      <trkpt lat="36.4848080" lon="-6.0892480">
        <ele>19.6</ele>
        <time>2023-01-28T08:23:57Z</time>
      </trkpt>
      <trkpt lat="36.4848050" lon="-6.0892440">
        <ele>19.6</ele>
        <time>2023-01-28T08:23:58Z</time>
      </trkpt>
      <trkpt lat="36.4848080" lon="-6.0892530">
        <ele>19.6</ele>
        <time>2023-01-28T08:23:59Z</time>
      </trkpt>
      <trkpt lat="36.4848070" lon="-6.0892450">
        <ele>19.6</ele>
        <time>2023-01-28T08:24:00Z</time>
      </trkpt>
      <trkpt lat="36.4848110" lon="-6.0892370">
        <ele>19.8</ele>
        <time>2023-01-28T08:24:01Z</time>
      </trkpt>
      <trkpt lat="36.4848080" lon="-6.0892130">
        <ele>19.8</ele>
        <time>2023-01-28T08:24:02Z</time>
      </trkpt>
      <trkpt lat="36.4848130" lon="-6.0892030">
        <ele>19.8</ele>
        <time>2023-01-28T08:24:03Z</time>
      </trkpt>
      <trkpt lat="36.4848140" lon="-6.0892060">
        <ele>20.0</ele>
        <time>2023-01-28T08:24:04Z</time>
      </trkpt>
      <trkpt lat="36.4848260" lon="-6.0892150">
        <ele>19.8</ele>
        <time>2023-01-28T08:24:05Z</time>
      </trkpt>
      <trkpt lat="36.4848320" lon="-6.0892150">
        <ele>19.8</ele>
        <time>2023-01-28T08:24:06Z</time>
      </trkpt>
      <trkpt lat="36.4848330" lon="-6.0892210">
        <ele>19.8</ele>
        <time>2023-01-28T08:24:07Z</time>
      </trkpt>
      <trkpt lat="36.4848380" lon="-6.0892110">
        <ele>19.8</ele>
        <time>2023-01-28T08:24:08Z</time>
      </trkpt>
      <trkpt lat="36.4848410" lon="-6.0892030">
        <ele>19.8</ele>
        <time>2023-01-28T08:24:09Z</time>
      </trkpt>
      <trkpt lat="36.4848400" lon="-6.0891770">
        <ele>19.8</ele>
        <time>2023-01-28T08:24:10Z</time>
      </trkpt>
      <trkpt lat="36.4848510" lon="-6.0891670">
        <ele>19.8</ele>
        <time>2023-01-28T08:24:11Z</time>
      </trkpt>
      <trkpt lat="36.4848550" lon="-6.0891430">
        <ele>19.8</ele>
        <time>2023-01-28T08:24:12Z</time>
      </trkpt>
      <trkpt lat="36.4848630" lon="-6.0891090">
        <ele>19.8</ele>
        <time>2023-01-28T08:24:13Z</time>
      </trkpt>
      <trkpt lat="36.4848630" lon="-6.0890910">
        <ele>19.8</ele>
        <time>2023-01-28T08:24:14Z</time>
      </trkpt>
      <trkpt lat="36.4848640" lon="-6.0890760">
        <ele>19.8</ele>
        <time>2023-01-28T08:24:15Z</time>
      </trkpt>
      <trkpt lat="36.4848690" lon="-6.0890540">
        <ele>19.8</ele>
        <time>2023-01-28T08:24:16Z</time>
      </trkpt>
      <trkpt lat="36.4848720" lon="-6.0890310">
        <ele>20.0</ele>
        <time>2023-01-28T08:24:17Z</time>
      </trkpt>
      <trkpt lat="36.4848710" lon="-6.0890090">
        <ele>20.2</ele>
        <time>2023-01-28T08:24:18Z</time>
      </trkpt>
      <trkpt lat="36.4848740" lon="-6.0889910">
        <ele>20.2</ele>
        <time>2023-01-28T08:24:19Z</time>
      </trkpt>
      <trkpt lat="36.4848790" lon="-6.0889620">
        <ele>20.4</ele>
        <time>2023-01-28T08:24:20Z</time>
      </trkpt>
      <trkpt lat="36.4848730" lon="-6.0889370">
        <ele>20.2</ele>
        <time>2023-01-28T08:24:21Z</time>
      </trkpt>
      <trkpt lat="36.4848740" lon="-6.0889120">
        <ele>20.2</ele>
        <time>2023-01-28T08:24:22Z</time>
      </trkpt>
      <trkpt lat="36.4848710" lon="-6.0889030">
        <ele>20.2</ele>
        <time>2023-01-28T08:24:23Z</time>
      </trkpt>
      <trkpt lat="36.4848670" lon="-6.0888880">
        <ele>20.2</ele>
        <time>2023-01-28T08:24:24Z</time>
      </trkpt>
      <trkpt lat="36.4848550" lon="-6.0888710">
        <ele>20.2</ele>
        <time>2023-01-28T08:24:25Z</time>
      </trkpt>
      <trkpt lat="36.4848410" lon="-6.0888560">
        <ele>20.0</ele>
        <time>2023-01-28T08:24:26Z</time>
      </trkpt>
      <trkpt lat="36.4848350" lon="-6.0888410">
        <ele>19.8</ele>
        <time>2023-01-28T08:24:27Z</time>
      </trkpt>
      <trkpt lat="36.4848240" lon="-6.0888280">
        <ele>19.8</ele>
        <time>2023-01-28T08:24:28Z</time>
      </trkpt>
      <trkpt lat="36.4848220" lon="-6.0888290">
        <ele>19.8</ele>
        <time>2023-01-28T08:24:29Z</time>
      </trkpt>
      <trkpt lat="36.4848190" lon="-6.0888360">
        <ele>19.6</ele>
        <time>2023-01-28T08:24:30Z</time>
      </trkpt>
      <trkpt lat="36.4848160" lon="-6.0888250">
        <ele>19.6</ele>
        <time>2023-01-28T08:24:31Z</time>
      </trkpt>
      <trkpt lat="36.4848170" lon="-6.0888300">
        <ele>19.6</ele>
        <time>2023-01-28T08:24:32Z</time>
      </trkpt>
      <trkpt lat="36.4848180" lon="-6.0888330">
        <ele>20.0</ele>
        <time>2023-01-28T08:24:33Z</time>
      </trkpt>
      <trkpt lat="36.4848160" lon="-6.0888210">
        <ele>20.0</ele>
        <time>2023-01-28T08:24:34Z</time>
      </trkpt>
      <trkpt lat="36.4848150" lon="-6.0888070">
        <ele>20.0</ele>
        <time>2023-01-28T08:24:35Z</time>
      </trkpt>
      <trkpt lat="36.4848200" lon="-6.0888060">
        <ele>20.0</ele>
        <time>2023-01-28T08:24:36Z</time>
      </trkpt>
      <trkpt lat="36.4848190" lon="-6.0888090">
        <ele>19.8</ele>
        <time>2023-01-28T08:24:37Z</time>
      </trkpt>
      <trkpt lat="36.4848160" lon="-6.0888080">
        <ele>19.8</ele>
        <time>2023-01-28T08:24:38Z</time>
      </trkpt>
      <trkpt lat="36.4848170" lon="-6.0888160">
        <ele>19.6</ele>
        <time>2023-01-28T08:24:39Z</time>
      </trkpt>
      <trkpt lat="36.4848200" lon="-6.0888220">
        <ele>19.6</ele>
        <time>2023-01-28T08:24:40Z</time>
      </trkpt>
      <trkpt lat="36.4848220" lon="-6.0888320">
        <ele>19.6</ele>
        <time>2023-01-28T08:24:41Z</time>
      </trkpt>
      <trkpt lat="36.4848330" lon="-6.0888600">
        <ele>19.6</ele>
        <time>2023-01-28T08:24:42Z</time>
      </trkpt>
      <trkpt lat="36.4848380" lon="-6.0888710">
        <ele>19.8</ele>
        <time>2023-01-28T08:24:43Z</time>
      </trkpt>
      <trkpt lat="36.4848410" lon="-6.0888730">
        <ele>19.8</ele>
        <time>2023-01-28T08:24:44Z</time>
      </trkpt>
      <trkpt lat="36.4848450" lon="-6.0888770">
        <ele>19.8</ele>
        <time>2023-01-28T08:24:45Z</time>
      </trkpt>
      <trkpt lat="36.4848420" lon="-6.0888880">
        <ele>19.8</ele>
        <time>2023-01-28T08:24:46Z</time>
      </trkpt>
      <trkpt lat="36.4848510" lon="-6.0888900">
        <ele>20.0</ele>
        <time>2023-01-28T08:24:47Z</time>
      </trkpt>
      <trkpt lat="36.4848560" lon="-6.0889070">
        <ele>20.0</ele>
        <time>2023-01-28T08:24:48Z</time>
      </trkpt>
      <trkpt lat="36.4848660" lon="-6.0889000">
        <ele>19.8</ele>
        <time>2023-01-28T08:24:49Z</time>
      </trkpt>
      <trkpt lat="36.4848640" lon="-6.0889140">
        <ele>19.8</ele>
        <time>2023-01-28T08:24:50Z</time>
      </trkpt>
      <trkpt lat="36.4848710" lon="-6.0889310">
        <ele>19.8</ele>
        <time>2023-01-28T08:24:51Z</time>
      </trkpt>
      <trkpt lat="36.4848720" lon="-6.0889280">
        <ele>20.0</ele>
        <time>2023-01-28T08:24:52Z</time>
      </trkpt>
      <trkpt lat="36.4848820" lon="-6.0889420">
        <ele>20.0</ele>
        <time>2023-01-28T08:24:53Z</time>
      </trkpt>
      <trkpt lat="36.4848790" lon="-6.0889340">
        <ele>20.0</ele>
        <time>2023-01-28T08:24:54Z</time>
      </trkpt>
      <trkpt lat="36.4848840" lon="-6.0889300">
        <ele>20.0</ele>
        <time>2023-01-28T08:24:55Z</time>
      </trkpt>
      <trkpt lat="36.4848840" lon="-6.0889510">
        <ele>20.0</ele>
        <time>2023-01-28T08:24:56Z</time>
      </trkpt>
      <trkpt lat="36.4848880" lon="-6.0889800">
        <ele>20.0</ele>
        <time>2023-01-28T08:24:57Z</time>
      </trkpt>
      <trkpt lat="36.4848930" lon="-6.0890140">
        <ele>20.0</ele>
        <time>2023-01-28T08:24:58Z</time>
      </trkpt>
      <trkpt lat="36.4848830" lon="-6.0890180">
        <ele>20.0</ele>
        <time>2023-01-28T08:24:59Z</time>
      </trkpt>
      <trkpt lat="36.4848740" lon="-6.0889730">
        <ele>19.8</ele>
        <time>2023-01-28T08:25:32Z</time>
      </trkpt>
      <trkpt lat="36.4848770" lon="-6.0889790">
        <ele>19.6</ele>
        <time>2023-01-28T08:25:33Z</time>
      </trkpt>
      <trkpt lat="36.4848750" lon="-6.0889740">
        <ele>19.6</ele>
        <time>2023-01-28T08:25:34Z</time>
      </trkpt>
      <trkpt lat="36.4848770" lon="-6.0889740">
        <ele>19.6</ele>
        <time>2023-01-28T08:25:35Z</time>
      </trkpt>
      <trkpt lat="36.4848730" lon="-6.0889730">
        <ele>19.6</ele>
        <time>2023-01-28T08:25:36Z</time>
      </trkpt>
      <trkpt lat="36.4848640" lon="-6.0889790">
        <ele>19.6</ele>
        <time>2023-01-28T08:25:37Z</time>
      </trkpt>
      <trkpt lat="36.4848560" lon="-6.0889880">
        <ele>19.6</ele>
        <time>2023-01-28T08:25:38Z</time>
      </trkpt>
      <trkpt lat="36.4848450" lon="-6.0889690">
        <ele>19.6</ele>
        <time>2023-01-28T08:25:39Z</time>
      </trkpt>
      <trkpt lat="36.4848440" lon="-6.0889640">
        <ele>19.6</ele>
        <time>2023-01-28T08:25:40Z</time>
      </trkpt>
      <trkpt lat="36.4848410" lon="-6.0889480">
        <ele>19.6</ele>
        <time>2023-01-28T08:25:41Z</time>
      </trkpt>
      <trkpt lat="36.4848360" lon="-6.0889350">
        <ele>19.6</ele>
        <time>2023-01-28T08:25:42Z</time>
      </trkpt>
      <trkpt lat="36.4848380" lon="-6.0889430">
        <ele>19.6</ele>
        <time>2023-01-28T08:25:43Z</time>
      </trkpt>
      <trkpt lat="36.4848400" lon="-6.0889490">
        <ele>19.6</ele>
        <time>2023-01-28T08:25:44Z</time>
      </trkpt>
      <trkpt lat="36.4848470" lon="-6.0889670">
        <ele>19.6</ele>
        <time>2023-01-28T08:25:45Z</time>
      </trkpt>
      <trkpt lat="36.4848560" lon="-6.0889850">
        <ele>19.6</ele>
        <time>2023-01-28T08:25:46Z</time>
      </trkpt>
      <trkpt lat="36.4849010" lon="-6.0889490">
        <ele>18.8</ele>
        <time>2023-01-28T08:27:42Z</time>
      </trkpt>
      <trkpt lat="36.4848890" lon="-6.0889480">
        <ele>18.8</ele>
        <time>2023-01-28T08:27:43Z</time>
      </trkpt>
      <trkpt lat="36.4848970" lon="-6.0889490">
        <ele>18.8</ele>
        <time>2023-01-28T08:27:44Z</time>
      </trkpt>
      <trkpt lat="36.4848900" lon="-6.0889250">
        <ele>18.8</ele>
        <time>2023-01-28T08:27:45Z</time>
      </trkpt>
      <trkpt lat="36.4848970" lon="-6.0889270">
        <ele>18.8</ele>
        <time>2023-01-28T08:27:46Z</time>
      </trkpt>
      <trkpt lat="36.4848990" lon="-6.0889070">
        <ele>18.8</ele>
        <time>2023-01-28T08:27:47Z</time>
      </trkpt>
      <trkpt lat="36.4849070" lon="-6.0888910">
        <ele>18.8</ele>
        <time>2023-01-28T08:27:48Z</time>
      </trkpt>
      <trkpt lat="36.4848930" lon="-6.0888640">
        <ele>18.8</ele>
        <time>2023-01-28T08:27:49Z</time>
      </trkpt>
      <trkpt lat="36.4848840" lon="-6.0888480">
        <ele>18.6</ele>
        <time>2023-01-28T08:27:50Z</time>
      </trkpt>
      <trkpt lat="36.4848820" lon="-6.0888660">
        <ele>18.6</ele>
        <time>2023-01-28T08:27:51Z</time>
      </trkpt>
      <trkpt lat="36.4848720" lon="-6.0888650">
        <ele>18.6</ele>
        <time>2023-01-28T08:27:52Z</time>
      </trkpt>
      <trkpt lat="36.4848260" lon="-6.0890110">
        <ele>18.0</ele>
        <time>2023-01-28T08:29:41Z</time>
      </trkpt>
      <trkpt lat="36.4848360" lon="-6.0890290">
        <ele>18.0</ele>
        <time>2023-01-28T08:29:42Z</time>
      </trkpt>
      <trkpt lat="36.4848370" lon="-6.0890390">
        <ele>18.0</ele>
        <time>2023-01-28T08:29:43Z</time>
      </trkpt>
      <trkpt lat="36.4848430" lon="-6.0890480">
        <ele>18.2</ele>
        <time>2023-01-28T08:29:44Z</time>
      </trkpt>
      <trkpt lat="36.4848400" lon="-6.0890580">
        <ele>18.2</ele>
        <time>2023-01-28T08:29:45Z</time>
      </trkpt>
      <trkpt lat="36.4848300" lon="-6.0890760">
        <ele>18.2</ele>
        <time>2023-01-28T08:29:46Z</time>
      </trkpt>
      <trkpt lat="36.4848280" lon="-6.0890860">
        <ele>18.2</ele>
        <time>2023-01-28T08:29:47Z</time>
      </trkpt>
      <trkpt lat="36.4848360" lon="-6.0891060">
        <ele>18.0</ele>
        <time>2023-01-28T08:29:48Z</time>
      </trkpt>
      <trkpt lat="36.4848390" lon="-6.0891120">
        <ele>18.0</ele>
        <time>2023-01-28T08:29:49Z</time>
      </trkpt>
      <trkpt lat="36.4848390" lon="-6.0891120">
        <ele>18.0</ele>
        <time>2023-01-28T08:29:50Z</time>
      </trkpt>
      <trkpt lat="36.4848360" lon="-6.0891230">
        <ele>18.0</ele>
        <time>2023-01-28T08:29:51Z</time>
      </trkpt>
      <trkpt lat="36.4848430" lon="-6.0891230">
        <ele>18.0</ele>
        <time>2023-01-28T08:29:52Z</time>
      </trkpt>
      <trkpt lat="36.4848440" lon="-6.0891330">
        <ele>17.8</ele>
        <time>2023-01-28T08:29:53Z</time>
      </trkpt>
      <trkpt lat="36.4848340" lon="-6.0891620">
        <ele>17.8</ele>
        <time>2023-01-28T08:29:54Z</time>
      </trkpt>
      <trkpt lat="36.4848420" lon="-6.0891840">
        <ele>17.8</ele>
        <time>2023-01-28T08:29:55Z</time>
      </trkpt>
      <trkpt lat="36.4848410" lon="-6.0891850">
        <ele>17.8</ele>
        <time>2023-01-28T08:29:56Z</time>
      </trkpt>
      <trkpt lat="36.4848330" lon="-6.0891720">
        <ele>17.8</ele>
        <time>2023-01-28T08:29:57Z</time>
      </trkpt>
      <trkpt lat="36.4848380" lon="-6.0891950">
        <ele>17.8</ele>
        <time>2023-01-28T08:29:58Z</time>
      </trkpt>
      <trkpt lat="36.4848400" lon="-6.0892110">
        <ele>17.8</ele>
        <time>2023-01-28T08:29:59Z</time>
      </trkpt>
      <trkpt lat="36.4848430" lon="-6.0892140">
        <ele>17.6</ele>
        <time>2023-01-28T08:30:00Z</time>
      </trkpt>
      <trkpt lat="36.4848420" lon="-6.0892090">
        <ele>17.6</ele>
        <time>2023-01-28T08:30:01Z</time>
      </trkpt>
      <trkpt lat="36.4848430" lon="-6.0892130">
        <ele>17.8</ele>
        <time>2023-01-28T08:30:02Z</time>
      </trkpt>
      <trkpt lat="36.4848420" lon="-6.0892160">
        <ele>17.8</ele>
        <time>2023-01-28T08:30:03Z</time>
      </trkpt>
      <trkpt lat="36.4848440" lon="-6.0892180">
        <ele>17.8</ele>
        <time>2023-01-28T08:30:04Z</time>
      </trkpt>
      <trkpt lat="36.4848480" lon="-6.0892290">
        <ele>17.8</ele>
        <time>2023-01-28T08:30:05Z</time>
      </trkpt>
      <trkpt lat="36.4848500" lon="-6.0892330">
        <ele>17.6</ele>
        <time>2023-01-28T08:30:06Z</time>
      </trkpt>
      <trkpt lat="36.4848510" lon="-6.0892490">
        <ele>17.6</ele>
        <time>2023-01-28T08:30:07Z</time>
      </trkpt>
      <trkpt lat="36.4848510" lon="-6.0892650">
        <ele>17.6</ele>
        <time>2023-01-28T08:30:08Z</time>
      </trkpt>
      <trkpt lat="36.4848530" lon="-6.0892780">
        <ele>17.6</ele>
        <time>2023-01-28T08:30:09Z</time>
      </trkpt>
      <trkpt lat="36.4848550" lon="-6.0892930">
        <ele>17.6</ele>
        <time>2023-01-28T08:30:10Z</time>
      </trkpt>
      <trkpt lat="36.4848570" lon="-6.0893010">
        <ele>17.8</ele>
        <time>2023-01-28T08:30:11Z</time>
      </trkpt>
      <trkpt lat="36.4848570" lon="-6.0893070">
        <ele>17.8</ele>
        <time>2023-01-28T08:30:12Z</time>
      </trkpt>
      <trkpt lat="36.4848550" lon="-6.0893160">
        <ele>17.8</ele>
        <time>2023-01-28T08:30:13Z</time>
      </trkpt>
      <trkpt lat="36.4848550" lon="-6.0893220">
        <ele>17.6</ele>
        <time>2023-01-28T08:30:14Z</time>
      </trkpt>
      <trkpt lat="36.4848630" lon="-6.0893520">
        <ele>17.6</ele>
        <time>2023-01-28T08:30:15Z</time>
      </trkpt>
      <trkpt lat="36.4848640" lon="-6.0893760">
        <ele>17.6</ele>
        <time>2023-01-28T08:30:16Z</time>
      </trkpt>
      <trkpt lat="36.4848660" lon="-6.0893940">
        <ele>17.6</ele>
        <time>2023-01-28T08:30:17Z</time>
      </trkpt>
      <trkpt lat="36.4848690" lon="-6.0894170">
        <ele>17.6</ele>
        <time>2023-01-28T08:30:18Z</time>
      </trkpt>
      <trkpt lat="36.4848690" lon="-6.0894330">
        <ele>17.6</ele>
        <time>2023-01-28T08:30:19Z</time>
      </trkpt>
      <trkpt lat="36.4848760" lon="-6.0894550">
        <ele>17.6</ele>
        <time>2023-01-28T08:30:20Z</time>
      </trkpt>
      <trkpt lat="36.4848820" lon="-6.0894770">
        <ele>17.8</ele>
        <time>2023-01-28T08:30:21Z</time>
      </trkpt>
      <trkpt lat="36.4848880" lon="-6.0895030">
        <ele>17.8</ele>
        <time>2023-01-28T08:30:22Z</time>
      </trkpt>
      <trkpt lat="36.4848940" lon="-6.0895260">
        <ele>17.8</ele>
        <time>2023-01-28T08:30:23Z</time>
      </trkpt>
      <trkpt lat="36.4848990" lon="-6.0895480">
        <ele>17.8</ele>
        <time>2023-01-28T08:30:24Z</time>
      </trkpt>
      <trkpt lat="36.4849060" lon="-6.0895720">
        <ele>18.0</ele>
        <time>2023-01-28T08:30:25Z</time>
      </trkpt>
      <trkpt lat="36.4849140" lon="-6.0895980">
        <ele>18.0</ele>
        <time>2023-01-28T08:30:26Z</time>
      </trkpt>
      <trkpt lat="36.4849220" lon="-6.0896160">
        <ele>18.0</ele>
        <time>2023-01-28T08:30:27Z</time>
      </trkpt>
      <trkpt lat="36.4849280" lon="-6.0896410">
        <ele>18.0</ele>
        <time>2023-01-28T08:30:28Z</time>
      </trkpt>
      <trkpt lat="36.4849350" lon="-6.0896620">
        <ele>18.2</ele>
        <time>2023-01-28T08:30:29Z</time>
      </trkpt>
      <trkpt lat="36.4849380" lon="-6.0896840">
        <ele>18.2</ele>
        <time>2023-01-28T08:30:30Z</time>
      </trkpt>
      <trkpt lat="36.4849440" lon="-6.0897120">
        <ele>18.2</ele>
        <time>2023-01-28T08:30:31Z</time>
      </trkpt>
      <trkpt lat="36.4849480" lon="-6.0897310">
        <ele>18.2</ele>
        <time>2023-01-28T08:30:32Z</time>
      </trkpt>
      <trkpt lat="36.4849500" lon="-6.0897560">
        <ele>18.4</ele>
        <time>2023-01-28T08:30:33Z</time>
      </trkpt>
      <trkpt lat="36.4849570" lon="-6.0897830">
        <ele>18.4</ele>
        <time>2023-01-28T08:30:34Z</time>
      </trkpt>
      <trkpt lat="36.4849620" lon="-6.0898070">
        <ele>18.4</ele>
        <time>2023-01-28T08:30:35Z</time>
      </trkpt>
      <trkpt lat="36.4849700" lon="-6.0898330">
        <ele>18.6</ele>
        <time>2023-01-28T08:30:36Z</time>
      </trkpt>
      <trkpt lat="36.4849750" lon="-6.0898540">
        <ele>18.6</ele>
        <time>2023-01-28T08:30:37Z</time>
      </trkpt>
      <trkpt lat="36.4849810" lon="-6.0898630">
        <ele>18.6</ele>
        <time>2023-01-28T08:30:38Z</time>
      </trkpt>
      <trkpt lat="36.4849960" lon="-6.0898910">
        <ele>18.6</ele>
        <time>2023-01-28T08:30:39Z</time>
      </trkpt>
      <trkpt lat="36.4849990" lon="-6.0899180">
        <ele>18.6</ele>
        <time>2023-01-28T08:30:40Z</time>
      </trkpt>
      <trkpt lat="36.4850040" lon="-6.0899380">
        <ele>18.6</ele>
        <time>2023-01-28T08:30:41Z</time>
      </trkpt>
      <trkpt lat="36.4850080" lon="-6.0899630">
        <ele>18.6</ele>
        <time>2023-01-28T08:30:42Z</time>
      </trkpt>
      <trkpt lat="36.4850100" lon="-6.0899840">
        <ele>18.6</ele>
        <time>2023-01-28T08:30:43Z</time>
      </trkpt>
      <trkpt lat="36.4850190" lon="-6.0900230">
        <ele>18.6</ele>
        <time>2023-01-28T08:30:44Z</time>
      </trkpt>
      <trkpt lat="36.4850260" lon="-6.0900480">
        <ele>18.8</ele>
        <time>2023-01-28T08:30:45Z</time>
      </trkpt>
      <trkpt lat="36.4850310" lon="-6.0900680">
        <ele>18.8</ele>
        <time>2023-01-28T08:30:46Z</time>
      </trkpt>
      <trkpt lat="36.4850380" lon="-6.0900860">
        <ele>18.8</ele>
        <time>2023-01-28T08:30:47Z</time>
      </trkpt>
      <trkpt lat="36.4850460" lon="-6.0901020">
        <ele>19.0</ele>
        <time>2023-01-28T08:30:48Z</time>
      </trkpt>
      <trkpt lat="36.4850490" lon="-6.0901100">
        <ele>19.0</ele>
        <time>2023-01-28T08:30:49Z</time>
      </trkpt>
      <trkpt lat="36.4850540" lon="-6.0901380">
        <ele>19.0</ele>
        <time>2023-01-28T08:30:50Z</time>
      </trkpt>
      <trkpt lat="36.4850600" lon="-6.0901660">
        <ele>19.2</ele>
        <time>2023-01-28T08:30:51Z</time>
      </trkpt>
      <trkpt lat="36.4850690" lon="-6.0901910">
        <ele>19.4</ele>
        <time>2023-01-28T08:30:52Z</time>
      </trkpt>
      <trkpt lat="36.4850780" lon="-6.0902200">
        <ele>19.4</ele>
        <time>2023-01-28T08:30:53Z</time>
      </trkpt>
      <trkpt lat="36.4850850" lon="-6.0902500">
        <ele>19.6</ele>
        <time>2023-01-28T08:30:54Z</time>
      </trkpt>
      <trkpt lat="36.4850960" lon="-6.0902940">
        <ele>19.6</ele>
        <time>2023-01-28T08:30:55Z</time>
      </trkpt>
      <trkpt lat="36.4850990" lon="-6.0903090">
        <ele>19.4</ele>
        <time>2023-01-28T08:30:56Z</time>
      </trkpt>
      <trkpt lat="36.4851050" lon="-6.0903380">
        <ele>19.4</ele>
        <time>2023-01-28T08:30:57Z</time>
      </trkpt>
      <trkpt lat="36.4851060" lon="-6.0903740">
        <ele>19.6</ele>
        <time>2023-01-28T08:30:58Z</time>
      </trkpt>
      <trkpt lat="36.4851110" lon="-6.0904060">
        <ele>19.6</ele>
        <time>2023-01-28T08:30:59Z</time>
      </trkpt>
      <trkpt lat="36.4851330" lon="-6.0904250">
        <ele>19.6</ele>
        <time>2023-01-28T08:31:00Z</time>
      </trkpt>
      <trkpt lat="36.4851380" lon="-6.0904750">
        <ele>19.6</ele>
        <time>2023-01-28T08:31:01Z</time>
      </trkpt>
      <trkpt lat="36.4851400" lon="-6.0904930">
        <ele>19.6</ele>
        <time>2023-01-28T08:31:02Z</time>
      </trkpt>
      <trkpt lat="36.4851410" lon="-6.0905240">
        <ele>19.8</ele>
        <time>2023-01-28T08:31:03Z</time>
      </trkpt>
      <trkpt lat="36.4851430" lon="-6.0905570">
        <ele>19.8</ele>
        <time>2023-01-28T08:31:04Z</time>
      </trkpt>
      <trkpt lat="36.4851450" lon="-6.0905880">
        <ele>19.8</ele>
        <time>2023-01-28T08:31:05Z</time>
      </trkpt>
      <trkpt lat="36.4851430" lon="-6.0906170">
        <ele>20.0</ele>
        <time>2023-01-28T08:31:06Z</time>
      </trkpt>
      <trkpt lat="36.4851400" lon="-6.0906380">
        <ele>20.0</ele>
        <time>2023-01-28T08:31:07Z</time>
      </trkpt>
      <trkpt lat="36.4851370" lon="-6.0906630">
        <ele>20.2</ele>
        <time>2023-01-28T08:31:08Z</time>
      </trkpt>
      <trkpt lat="36.4851320" lon="-6.0906830">
        <ele>20.2</ele>
        <time>2023-01-28T08:31:09Z</time>
      </trkpt>
      <trkpt lat="36.4851290" lon="-6.0907090">
        <ele>20.2</ele>
        <time>2023-01-28T08:31:10Z</time>
      </trkpt>
      <trkpt lat="36.4851320" lon="-6.0907330">
        <ele>20.2</ele>
        <time>2023-01-28T08:31:11Z</time>
      </trkpt>
      <trkpt lat="36.4851370" lon="-6.0907610">
        <ele>20.4</ele>
        <time>2023-01-28T08:31:12Z</time>
      </trkpt>
      <trkpt lat="36.4851410" lon="-6.0907910">
        <ele>20.4</ele>
        <time>2023-01-28T08:31:13Z</time>
      </trkpt>
      <trkpt lat="36.4851520" lon="-6.0908270">
        <ele>20.6</ele>
        <time>2023-01-28T08:31:14Z</time>
      </trkpt>
      <trkpt lat="36.4851610" lon="-6.0908570">
        <ele>20.8</ele>
        <time>2023-01-28T08:31:15Z</time>
      </trkpt>
      <trkpt lat="36.4851690" lon="-6.0908830">
        <ele>21.0</ele>
        <time>2023-01-28T08:31:16Z</time>
      </trkpt>
      <trkpt lat="36.4851780" lon="-6.0909150">
        <ele>21.2</ele>
        <time>2023-01-28T08:31:17Z</time>
      </trkpt>
      <trkpt lat="36.4851840" lon="-6.0909370">
        <ele>21.2</ele>
        <time>2023-01-28T08:31:18Z</time>
      </trkpt>
      <trkpt lat="36.4851930" lon="-6.0909600">
        <ele>21.4</ele>
        <time>2023-01-28T08:31:19Z</time>
      </trkpt>
      <trkpt lat="36.4852030" lon="-6.0909840">
        <ele>21.4</ele>
        <time>2023-01-28T08:31:20Z</time>
      </trkpt>
      <trkpt lat="36.4852130" lon="-6.0910090">
        <ele>21.4</ele>
        <time>2023-01-28T08:31:21Z</time>
      </trkpt>
      <trkpt lat="36.4852130" lon="-6.0910020">
        <ele>21.6</ele>
        <time>2023-01-28T08:31:22Z</time>
      </trkpt>
      <trkpt lat="36.4852200" lon="-6.0910100">
        <ele>21.6</ele>
        <time>2023-01-28T08:31:23Z</time>
      </trkpt>
      <trkpt lat="36.4852330" lon="-6.0910340">
        <ele>21.6</ele>
        <time>2023-01-28T08:31:24Z</time>
      </trkpt>
      <trkpt lat="36.4852470" lon="-6.0910610">
        <ele>21.6</ele>
        <time>2023-01-28T08:31:25Z</time>
      </trkpt>
      <trkpt lat="36.4852500" lon="-6.0910750">
        <ele>21.8</ele>
        <time>2023-01-28T08:31:26Z</time>
      </trkpt>
      <trkpt lat="36.4852600" lon="-6.0910930">
        <ele>21.8</ele>
        <time>2023-01-28T08:31:27Z</time>
      </trkpt>
      <trkpt lat="36.4852690" lon="-6.0911070">
        <ele>21.8</ele>
        <time>2023-01-28T08:31:28Z</time>
      </trkpt>
      <trkpt lat="36.4852780" lon="-6.0911340">
        <ele>21.8</ele>
        <time>2023-01-28T08:31:29Z</time>
      </trkpt>
      <trkpt lat="36.4852900" lon="-6.0911620">
        <ele>22.0</ele>
        <time>2023-01-28T08:31:30Z</time>
      </trkpt>
      <trkpt lat="36.4852970" lon="-6.0911940">
        <ele>22.0</ele>
        <time>2023-01-28T08:31:31Z</time>
      </trkpt>
      <trkpt lat="36.4853110" lon="-6.0912170">
        <ele>22.0</ele>
        <time>2023-01-28T08:31:32Z</time>
      </trkpt>
      <trkpt lat="36.4853210" lon="-6.0912390">
        <ele>22.2</ele>
        <time>2023-01-28T08:31:33Z</time>
      </trkpt>
      <trkpt lat="36.4853290" lon="-6.0912610">
        <ele>22.2</ele>
        <time>2023-01-28T08:31:34Z</time>
      </trkpt>
      <trkpt lat="36.4853380" lon="-6.0912780">
        <ele>22.4</ele>
        <time>2023-01-28T08:31:35Z</time>
      </trkpt>
      <trkpt lat="36.4853500" lon="-6.0913100">
        <ele>22.4</ele>
        <time>2023-01-28T08:31:36Z</time>
      </trkpt>
      <trkpt lat="36.4853630" lon="-6.0913530">
        <ele>22.4</ele>
        <time>2023-01-28T08:31:37Z</time>
      </trkpt>
      <trkpt lat="36.4853740" lon="-6.0913890">
        <ele>22.4</ele>
        <time>2023-01-28T08:31:38Z</time>
      </trkpt>
      <trkpt lat="36.4853890" lon="-6.0914540">
        <ele>22.6</ele>
        <time>2023-01-28T08:31:39Z</time>
      </trkpt>
      <trkpt lat="36.4854060" lon="-6.0914990">
        <ele>22.6</ele>
        <time>2023-01-28T08:31:40Z</time>
      </trkpt>
      <trkpt lat="36.4854200" lon="-6.0915290">
        <ele>22.6</ele>
        <time>2023-01-28T08:31:41Z</time>
      </trkpt>
      <trkpt lat="36.4854220" lon="-6.0915450">
        <ele>22.8</ele>
        <time>2023-01-28T08:31:42Z</time>
      </trkpt>
      <trkpt lat="36.4854350" lon="-6.0915820">
        <ele>22.8</ele>
        <time>2023-01-28T08:31:43Z</time>
      </trkpt>
      <trkpt lat="36.4854450" lon="-6.0916150">
        <ele>22.8</ele>
        <time>2023-01-28T08:31:44Z</time>
      </trkpt>
      <trkpt lat="36.4854590" lon="-6.0916540">
        <ele>22.8</ele>
        <time>2023-01-28T08:31:45Z</time>
      </trkpt>
      <trkpt lat="36.4854720" lon="-6.0916830">
        <ele>23.0</ele>
        <time>2023-01-28T08:31:46Z</time>
      </trkpt>
      <trkpt lat="36.4854830" lon="-6.0917180">
        <ele>23.0</ele>
        <time>2023-01-28T08:31:47Z</time>
      </trkpt>
      <trkpt lat="36.4854950" lon="-6.0917200">
        <ele>23.2</ele>
        <time>2023-01-28T08:31:48Z</time>
      </trkpt>
      <trkpt lat="36.4855080" lon="-6.0917360">
        <ele>23.2</ele>
        <time>2023-01-28T08:31:49Z</time>
      </trkpt>
      <trkpt lat="36.4855190" lon="-6.0917570">
        <ele>23.2</ele>
        <time>2023-01-28T08:31:50Z</time>
      </trkpt>
      <trkpt lat="36.4855320" lon="-6.0917810">
        <ele>23.2</ele>
        <time>2023-01-28T08:31:51Z</time>
      </trkpt>
      <trkpt lat="36.4855460" lon="-6.0917930">
        <ele>23.2</ele>
        <time>2023-01-28T08:31:52Z</time>
      </trkpt>
      <trkpt lat="36.4855670" lon="-6.0918380">
        <ele>23.4</ele>
        <time>2023-01-28T08:31:53Z</time>
      </trkpt>
      <trkpt lat="36.4855850" lon="-6.0918720">
        <ele>23.6</ele>
        <time>2023-01-28T08:31:54Z</time>
      </trkpt>
      <trkpt lat="36.4856020" lon="-6.0919020">
        <ele>23.6</ele>
        <time>2023-01-28T08:31:55Z</time>
      </trkpt>
      <trkpt lat="36.4856210" lon="-6.0919400">
        <ele>23.8</ele>
        <time>2023-01-28T08:31:56Z</time>
      </trkpt>
      <trkpt lat="36.4856390" lon="-6.0919540">
        <ele>24.0</ele>
        <time>2023-01-28T08:31:57Z</time>
      </trkpt>
      <trkpt lat="36.4856540" lon="-6.0919710">
        <ele>24.0</ele>
        <time>2023-01-28T08:31:58Z</time>
      </trkpt>
      <trkpt lat="36.4856730" lon="-6.0920020">
        <ele>24.2</ele>
        <time>2023-01-28T08:31:59Z</time>
      </trkpt>
      <trkpt lat="36.4856690" lon="-6.0920120">
        <ele>24.2</ele>
        <time>2023-01-28T08:32:00Z</time>
      </trkpt>
      <trkpt lat="36.4856720" lon="-6.0920890">
        <ele>24.2</ele>
        <time>2023-01-28T08:32:01Z</time>
      </trkpt>
      <trkpt lat="36.4856790" lon="-6.0921530">
        <ele>24.4</ele>
        <time>2023-01-28T08:32:02Z</time>
      </trkpt>
      <trkpt lat="36.4856920" lon="-6.0922010">
        <ele>24.4</ele>
        <time>2023-01-28T08:32:03Z</time>
      </trkpt>
      <trkpt lat="36.4857030" lon="-6.0922580">
        <ele>24.6</ele>
        <time>2023-01-28T08:32:04Z</time>
      </trkpt>
      <trkpt lat="36.4857090" lon="-6.0922810">
        <ele>24.6</ele>
        <time>2023-01-28T08:32:05Z</time>
      </trkpt>
      <trkpt lat="36.4857180" lon="-6.0923080">
        <ele>24.6</ele>
        <time>2023-01-28T08:32:06Z</time>
      </trkpt>
      <trkpt lat="36.4857200" lon="-6.0923540">
        <ele>24.6</ele>
        <time>2023-01-28T08:32:07Z</time>
      </trkpt>
      <trkpt lat="36.4857300" lon="-6.0923690">
        <ele>24.8</ele>
        <time>2023-01-28T08:32:08Z</time>
      </trkpt>
      <trkpt lat="36.4857380" lon="-6.0923870">
        <ele>25.0</ele>
        <time>2023-01-28T08:32:09Z</time>
      </trkpt>
      <trkpt lat="36.4857410" lon="-6.0924230">
        <ele>25.4</ele>
        <time>2023-01-28T08:32:10Z</time>
      </trkpt>
      <trkpt lat="36.4857570" lon="-6.0924480">
        <ele>25.4</ele>
        <time>2023-01-28T08:32:11Z</time>
      </trkpt>
      <trkpt lat="36.4857640" lon="-6.0924860">
        <ele>25.4</ele>
        <time>2023-01-28T08:32:12Z</time>
      </trkpt>
      <trkpt lat="36.4857820" lon="-6.0925330">
        <ele>25.6</ele>
        <time>2023-01-28T08:32:13Z</time>
      </trkpt>
      <trkpt lat="36.4857920" lon="-6.0925830">
        <ele>25.6</ele>
        <time>2023-01-28T08:32:14Z</time>
      </trkpt>
      <trkpt lat="36.4858000" lon="-6.0926090">
        <ele>25.6</ele>
        <time>2023-01-28T08:32:15Z</time>
      </trkpt>
      <trkpt lat="36.4858060" lon="-6.0926630">
        <ele>25.6</ele>
        <time>2023-01-28T08:32:16Z</time>
      </trkpt>
      <trkpt lat="36.4858080" lon="-6.0926680">
        <ele>25.8</ele>
        <time>2023-01-28T08:32:17Z</time>
      </trkpt>
      <trkpt lat="36.4858350" lon="-6.0926990">
        <ele>25.8</ele>
        <time>2023-01-28T08:32:18Z</time>
      </trkpt>
      <trkpt lat="36.4858370" lon="-6.0927290">
        <ele>26.0</ele>
        <time>2023-01-28T08:32:19Z</time>
      </trkpt>
      <trkpt lat="36.4858580" lon="-6.0927630">
        <ele>26.2</ele>
        <time>2023-01-28T08:32:20Z</time>
      </trkpt>
      <trkpt lat="36.4858660" lon="-6.0927650">
        <ele>26.4</ele>
        <time>2023-01-28T08:32:21Z</time>
      </trkpt>
      <trkpt lat="36.4858800" lon="-6.0927880">
        <ele>26.4</ele>
        <time>2023-01-28T08:32:22Z</time>
      </trkpt>
      <trkpt lat="36.4858930" lon="-6.0928230">
        <ele>26.6</ele>
        <time>2023-01-28T08:32:23Z</time>
      </trkpt>
      <trkpt lat="36.4858920" lon="-6.0928570">
        <ele>26.8</ele>
        <time>2023-01-28T08:32:24Z</time>
      </trkpt>
      <trkpt lat="36.4859030" lon="-6.0928960">
        <ele>27.0</ele>
        <time>2023-01-28T08:32:25Z</time>
      </trkpt>
      <trkpt lat="36.4859210" lon="-6.0929440">
        <ele>27.2</ele>
        <time>2023-01-28T08:32:26Z</time>
      </trkpt>
      <trkpt lat="36.4859300" lon="-6.0929690">
        <ele>27.2</ele>
        <time>2023-01-28T08:32:27Z</time>
      </trkpt>
      <trkpt lat="36.4859630" lon="-6.0930760">
        <ele>27.4</ele>
        <time>2023-01-28T08:32:28Z</time>
      </trkpt>
      <trkpt lat="36.4859640" lon="-6.0931030">
        <ele>27.4</ele>
        <time>2023-01-28T08:32:29Z</time>
      </trkpt>
      <trkpt lat="36.4859800" lon="-6.0931590">
        <ele>27.6</ele>
        <time>2023-01-28T08:32:30Z</time>
      </trkpt>
      <trkpt lat="36.4859920" lon="-6.0932030">
        <ele>27.8</ele>
        <time>2023-01-28T08:32:31Z</time>
      </trkpt>
      <trkpt lat="36.4859870" lon="-6.0932200">
        <ele>27.8</ele>
        <time>2023-01-28T08:32:32Z</time>
      </trkpt>
      <trkpt lat="36.4859970" lon="-6.0932810">
        <ele>27.8</ele>
        <time>2023-01-28T08:32:33Z</time>
      </trkpt>
      <trkpt lat="36.4860160" lon="-6.0933310">
        <ele>28.0</ele>
        <time>2023-01-28T08:32:34Z</time>
      </trkpt>
      <trkpt lat="36.4860280" lon="-6.0933790">
        <ele>28.2</ele>
        <time>2023-01-28T08:32:35Z</time>
      </trkpt>
      <trkpt lat="36.4860470" lon="-6.0934320">
        <ele>28.2</ele>
        <time>2023-01-28T08:32:36Z</time>
      </trkpt>
      <trkpt lat="36.4860440" lon="-6.0934340">
        <ele>28.2</ele>
        <time>2023-01-28T08:32:37Z</time>
      </trkpt>
      <trkpt lat="36.4860300" lon="-6.0933820">
        <ele>28.4</ele>
        <time>2023-01-28T08:32:38Z</time>
      </trkpt>
      <trkpt lat="36.4860360" lon="-6.0934130">
        <ele>28.6</ele>
        <time>2023-01-28T08:32:39Z</time>
      </trkpt>
      <trkpt lat="36.4860530" lon="-6.0934450">
        <ele>28.6</ele>
        <time>2023-01-28T08:32:40Z</time>
      </trkpt>
      <trkpt lat="36.4860790" lon="-6.0935260">
        <ele>28.6</ele>
        <time>2023-01-28T08:32:41Z</time>
      </trkpt>
      <trkpt lat="36.4860870" lon="-6.0936200">
        <ele>28.8</ele>
        <time>2023-01-28T08:32:42Z</time>
      </trkpt>
      <trkpt lat="36.4860770" lon="-6.0936440">
        <ele>29.2</ele>
        <time>2023-01-28T08:32:43Z</time>
      </trkpt>
      <trkpt lat="36.4860540" lon="-6.0936110">
        <ele>29.4</ele>
        <time>2023-01-28T08:32:44Z</time>
      </trkpt>
      <trkpt lat="36.4860600" lon="-6.0936660">
        <ele>29.4</ele>
        <time>2023-01-28T08:32:45Z</time>
      </trkpt>
      <trkpt lat="36.4860670" lon="-6.0937030">
        <ele>29.4</ele>
        <time>2023-01-28T08:32:46Z</time>
      </trkpt>
      <trkpt lat="36.4860680" lon="-6.0937280">
        <ele>29.4</ele>
        <time>2023-01-28T08:32:47Z</time>
      </trkpt>
      <trkpt lat="36.4860650" lon="-6.0937760">
        <ele>29.4</ele>
        <time>2023-01-28T08:32:48Z</time>
      </trkpt>
      <trkpt lat="36.4860570" lon="-6.0938280">
        <ele>29.4</ele>
        <time>2023-01-28T08:32:49Z</time>
      </trkpt>
      <trkpt lat="36.4860670" lon="-6.0939140">
        <ele>29.6</ele>
        <time>2023-01-28T08:32:50Z</time>
      </trkpt>
      <trkpt lat="36.4860610" lon="-6.0939660">
        <ele>29.8</ele>
        <time>2023-01-28T08:32:51Z</time>
      </trkpt>
      <trkpt lat="36.4860370" lon="-6.0939800">
        <ele>29.8</ele>
        <time>2023-01-28T08:32:52Z</time>
      </trkpt>
      <trkpt lat="36.4860200" lon="-6.0940070">
        <ele>29.8</ele>
        <time>2023-01-28T08:32:53Z</time>
      </trkpt>
      <trkpt lat="36.4860020" lon="-6.0940210">
        <ele>29.6</ele>
        <time>2023-01-28T08:32:54Z</time>
      </trkpt>
      <trkpt lat="36.4859790" lon="-6.0940400">
        <ele>29.6</ele>
        <time>2023-01-28T08:32:55Z</time>
      </trkpt>
      <trkpt lat="36.4859540" lon="-6.0940370">
        <ele>29.6</ele>
        <time>2023-01-28T08:32:56Z</time>
      </trkpt>
      <trkpt lat="36.4859300" lon="-6.0940540">
        <ele>29.8</ele>
        <time>2023-01-28T08:32:57Z</time>
      </trkpt>
      <trkpt lat="36.4859150" lon="-6.0940960">
        <ele>29.6</ele>
        <time>2023-01-28T08:32:58Z</time>
      </trkpt>
      <trkpt lat="36.4858770" lon="-6.0940700">
        <ele>29.6</ele>
        <time>2023-01-28T08:32:59Z</time>
      </trkpt>
      <trkpt lat="36.4858710" lon="-6.0941080">
        <ele>29.8</ele>
        <time>2023-01-28T08:33:00Z</time>
      </trkpt>
      <trkpt lat="36.4858480" lon="-6.0941100">
        <ele>29.8</ele>
        <time>2023-01-28T08:33:01Z</time>
      </trkpt>
      <trkpt lat="36.4858130" lon="-6.0941190">
        <ele>30.0</ele>
        <time>2023-01-28T08:33:02Z</time>
      </trkpt>
      <trkpt lat="36.4857830" lon="-6.0941230">
        <ele>30.0</ele>
        <time>2023-01-28T08:33:03Z</time>
      </trkpt>
      <trkpt lat="36.4857500" lon="-6.0941290">
        <ele>30.0</ele>
        <time>2023-01-28T08:33:04Z</time>
      </trkpt>
      <trkpt lat="36.4857400" lon="-6.0941710">
        <ele>30.2</ele>
        <time>2023-01-28T08:33:05Z</time>
      </trkpt>
      <trkpt lat="36.4857150" lon="-6.0942080">
        <ele>30.2</ele>
        <time>2023-01-28T08:33:06Z</time>
      </trkpt>
      <trkpt lat="36.4856880" lon="-6.0942490">
        <ele>30.2</ele>
        <time>2023-01-28T08:33:07Z</time>
      </trkpt>
      <trkpt lat="36.4856680" lon="-6.0942720">
        <ele>30.2</ele>
        <time>2023-01-28T08:33:08Z</time>
      </trkpt>
      <trkpt lat="36.4856420" lon="-6.0943020">
        <ele>30.2</ele>
        <time>2023-01-28T08:33:09Z</time>
      </trkpt>
      <trkpt lat="36.4856180" lon="-6.0943410">
        <ele>30.4</ele>
        <time>2023-01-28T08:33:10Z</time>
      </trkpt>
      <trkpt lat="36.4855960" lon="-6.0943520">
        <ele>30.4</ele>
        <time>2023-01-28T08:33:11Z</time>
      </trkpt>
      <trkpt lat="36.4855850" lon="-6.0943870">
        <ele>30.4</ele>
        <time>2023-01-28T08:33:12Z</time>
      </trkpt>
      <trkpt lat="36.4855620" lon="-6.0943970">
        <ele>30.4</ele>
        <time>2023-01-28T08:33:13Z</time>
      </trkpt>
      <trkpt lat="36.4855350" lon="-6.0944000">
        <ele>30.4</ele>
        <time>2023-01-28T08:33:14Z</time>
      </trkpt>
      <trkpt lat="36.4855030" lon="-6.0944020">
        <ele>30.4</ele>
        <time>2023-01-28T08:33:15Z</time>
      </trkpt>
      <trkpt lat="36.4854710" lon="-6.0944000">
        <ele>30.4</ele>
        <time>2023-01-28T08:33:16Z</time>
      </trkpt>
      <trkpt lat="36.4854560" lon="-6.0944710">
        <ele>30.4</ele>
        <time>2023-01-28T08:33:17Z</time>
      </trkpt>
      <trkpt lat="36.4854360" lon="-6.0945140">
        <ele>30.4</ele>
        <time>2023-01-28T08:33:18Z</time>
      </trkpt>
      <trkpt lat="36.4854170" lon="-6.0945770">
        <ele>30.4</ele>
        <time>2023-01-28T08:33:19Z</time>
      </trkpt>
      <trkpt lat="36.4854100" lon="-6.0945980">
        <ele>30.4</ele>
        <time>2023-01-28T08:33:20Z</time>
      </trkpt>
      <trkpt lat="36.4853840" lon="-6.0946400">
        <ele>30.4</ele>
        <time>2023-01-28T08:33:21Z</time>
      </trkpt>
      <trkpt lat="36.4853670" lon="-6.0947030">
        <ele>30.4</ele>
        <time>2023-01-28T08:33:22Z</time>
      </trkpt>
      <trkpt lat="36.4853240" lon="-6.0947340">
        <ele>30.4</ele>
        <time>2023-01-28T08:33:23Z</time>
      </trkpt>
      <trkpt lat="36.4853050" lon="-6.0947620">
        <ele>30.4</ele>
        <time>2023-01-28T08:33:24Z</time>
      </trkpt>
      <trkpt lat="36.4853040" lon="-6.0948170">
        <ele>30.4</ele>
        <time>2023-01-28T08:33:25Z</time>
      </trkpt>
      <trkpt lat="36.4852910" lon="-6.0948520">
        <ele>30.2</ele>
        <time>2023-01-28T08:33:26Z</time>
      </trkpt>
      <trkpt lat="36.4852790" lon="-6.0948930">
        <ele>30.2</ele>
        <time>2023-01-28T08:33:27Z</time>
      </trkpt>
      <trkpt lat="36.4852540" lon="-6.0949220">
        <ele>30.2</ele>
        <time>2023-01-28T08:33:28Z</time>
      </trkpt>
      <trkpt lat="36.4852220" lon="-6.0949340">
        <ele>30.0</ele>
        <time>2023-01-28T08:33:29Z</time>
      </trkpt>
      <trkpt lat="36.4851750" lon="-6.0949270">
        <ele>29.8</ele>
        <time>2023-01-28T08:33:30Z</time>
      </trkpt>
      <trkpt lat="36.4851320" lon="-6.0949240">
        <ele>29.8</ele>
        <time>2023-01-28T08:33:31Z</time>
      </trkpt>
      <trkpt lat="36.4850880" lon="-6.0949110">
        <ele>29.8</ele>
        <time>2023-01-28T08:33:32Z</time>
      </trkpt>
      <trkpt lat="36.4850510" lon="-6.0949310">
        <ele>29.6</ele>
        <time>2023-01-28T08:33:33Z</time>
      </trkpt>
      <trkpt lat="36.4850290" lon="-6.0949520">
        <ele>29.4</ele>
        <time>2023-01-28T08:33:34Z</time>
      </trkpt>
      <trkpt lat="36.4850030" lon="-6.0949750">
        <ele>29.4</ele>
        <time>2023-01-28T08:33:35Z</time>
      </trkpt>
      <trkpt lat="36.4849760" lon="-6.0950210">
        <ele>29.4</ele>
        <time>2023-01-28T08:33:36Z</time>
      </trkpt>
      <trkpt lat="36.4849520" lon="-6.0950450">
        <ele>29.4</ele>
        <time>2023-01-28T08:33:37Z</time>
      </trkpt>
      <trkpt lat="36.4849730" lon="-6.0951340">
        <ele>29.4</ele>
        <time>2023-01-28T08:33:38Z</time>
      </trkpt>
      <trkpt lat="36.4849670" lon="-6.0951760">
        <ele>29.6</ele>
        <time>2023-01-28T08:33:39Z</time>
      </trkpt>
      <trkpt lat="36.4849520" lon="-6.0952050">
        <ele>29.4</ele>
        <time>2023-01-28T08:33:40Z</time>
      </trkpt>
      <trkpt lat="36.4849180" lon="-6.0952040">
        <ele>29.2</ele>
        <time>2023-01-28T08:33:41Z</time>
      </trkpt>
      <trkpt lat="36.4849040" lon="-6.0952360">
        <ele>29.2</ele>
        <time>2023-01-28T08:33:42Z</time>
      </trkpt>
      <trkpt lat="36.4848730" lon="-6.0952360">
        <ele>29.2</ele>
        <time>2023-01-28T08:33:43Z</time>
      </trkpt>
      <trkpt lat="36.4848450" lon="-6.0952670">
        <ele>29.2</ele>
        <time>2023-01-28T08:33:44Z</time>
      </trkpt>
      <trkpt lat="36.4848140" lon="-6.0952610">
        <ele>29.2</ele>
        <time>2023-01-28T08:33:45Z</time>
      </trkpt>
      <trkpt lat="36.4847850" lon="-6.0952750">
        <ele>29.2</ele>
        <time>2023-01-28T08:33:46Z</time>
      </trkpt>
      <trkpt lat="36.4847680" lon="-6.0953130">
        <ele>29.0</ele>
        <time>2023-01-28T08:33:47Z</time>
      </trkpt>
      <trkpt lat="36.4847600" lon="-6.0953500">
        <ele>28.8</ele>
        <time>2023-01-28T08:33:48Z</time>
      </trkpt>
      <trkpt lat="36.4847440" lon="-6.0953860">
        <ele>28.8</ele>
        <time>2023-01-28T08:33:49Z</time>
      </trkpt>
      <trkpt lat="36.4847260" lon="-6.0954180">
        <ele>28.6</ele>
        <time>2023-01-28T08:33:50Z</time>
      </trkpt>
      <trkpt lat="36.4847070" lon="-6.0954440">
        <ele>28.6</ele>
        <time>2023-01-28T08:33:51Z</time>
      </trkpt>
      <trkpt lat="36.4846910" lon="-6.0954810">
        <ele>28.6</ele>
        <time>2023-01-28T08:33:52Z</time>
      </trkpt>
      <trkpt lat="36.4846730" lon="-6.0955220">
        <ele>28.6</ele>
        <time>2023-01-28T08:33:53Z</time>
      </trkpt>
      <trkpt lat="36.4846540" lon="-6.0955620">
        <ele>28.6</ele>
        <time>2023-01-28T08:33:54Z</time>
      </trkpt>
      <trkpt lat="36.4846340" lon="-6.0956010">
        <ele>28.6</ele>
        <time>2023-01-28T08:33:55Z</time>
      </trkpt>
      <trkpt lat="36.4846050" lon="-6.0956230">
        <ele>28.6</ele>
        <time>2023-01-28T08:33:56Z</time>
      </trkpt>
      <trkpt lat="36.4845800" lon="-6.0956500">
        <ele>28.6</ele>
        <time>2023-01-28T08:33:57Z</time>
      </trkpt>
      <trkpt lat="36.4845650" lon="-6.0956840">
        <ele>28.4</ele>
        <time>2023-01-28T08:33:58Z</time>
      </trkpt>
      <trkpt lat="36.4845380" lon="-6.0957110">
        <ele>28.4</ele>
        <time>2023-01-28T08:33:59Z</time>
      </trkpt>
      <trkpt lat="36.4845250" lon="-6.0957670">
        <ele>28.4</ele>
        <time>2023-01-28T08:34:00Z</time>
      </trkpt>
      <trkpt lat="36.4845110" lon="-6.0958290">
        <ele>28.2</ele>
        <time>2023-01-28T08:34:01Z</time>
      </trkpt>
      <trkpt lat="36.4844880" lon="-6.0958610">
        <ele>28.2</ele>
        <time>2023-01-28T08:34:02Z</time>
      </trkpt>
      <trkpt lat="36.4844680" lon="-6.0959030">
        <ele>28.2</ele>
        <time>2023-01-28T08:34:03Z</time>
      </trkpt>
      <trkpt lat="36.4844610" lon="-6.0959580">
        <ele>28.2</ele>
        <time>2023-01-28T08:34:04Z</time>
      </trkpt>
      <trkpt lat="36.4844530" lon="-6.0960300">
        <ele>28.2</ele>
        <time>2023-01-28T08:34:05Z</time>
      </trkpt>
      <trkpt lat="36.4844230" lon="-6.0960500">
        <ele>28.2</ele>
        <time>2023-01-28T08:34:06Z</time>
      </trkpt>
      <trkpt lat="36.4844010" lon="-6.0960850">
        <ele>28.2</ele>
        <time>2023-01-28T08:34:07Z</time>
      </trkpt>
      <trkpt lat="36.4843850" lon="-6.0961210">
        <ele>28.2</ele>
        <time>2023-01-28T08:34:08Z</time>
      </trkpt>
      <trkpt lat="36.4843700" lon="-6.0961380">
        <ele>28.2</ele>
        <time>2023-01-28T08:34:09Z</time>
      </trkpt>
      <trkpt lat="36.4843690" lon="-6.0961630">
        <ele>28.4</ele>
        <time>2023-01-28T08:34:10Z</time>
      </trkpt>
      <trkpt lat="36.4843590" lon="-6.0962050">
        <ele>28.2</ele>
        <time>2023-01-28T08:34:11Z</time>
      </trkpt>
      <trkpt lat="36.4843370" lon="-6.0962170">
        <ele>28.2</ele>
        <time>2023-01-28T08:34:12Z</time>
      </trkpt>
      <trkpt lat="36.4843140" lon="-6.0962420">
        <ele>28.0</ele>
        <time>2023-01-28T08:34:13Z</time>
      </trkpt>
      <trkpt lat="36.4842820" lon="-6.0962550">
        <ele>27.8</ele>
        <time>2023-01-28T08:34:14Z</time>
      </trkpt>
      <trkpt lat="36.4842480" lon="-6.0962940">
        <ele>27.6</ele>
        <time>2023-01-28T08:34:15Z</time>
      </trkpt>
      <trkpt lat="36.4842160" lon="-6.0962920">
        <ele>27.4</ele>
        <time>2023-01-28T08:34:16Z</time>
      </trkpt>
      <trkpt lat="36.4841970" lon="-6.0963290">
        <ele>27.4</ele>
        <time>2023-01-28T08:34:17Z</time>
      </trkpt>
      <trkpt lat="36.4841970" lon="-6.0963710">
        <ele>27.4</ele>
        <time>2023-01-28T08:34:18Z</time>
      </trkpt>
      <trkpt lat="36.4841820" lon="-6.0964020">
        <ele>27.2</ele>
        <time>2023-01-28T08:34:19Z</time>
      </trkpt>
      <trkpt lat="36.4841770" lon="-6.0964110">
        <ele>27.2</ele>
        <time>2023-01-28T08:34:20Z</time>
      </trkpt>
      <trkpt lat="36.4841720" lon="-6.0964470">
        <ele>27.4</ele>
        <time>2023-01-28T08:34:21Z</time>
      </trkpt>
      <trkpt lat="36.4841630" lon="-6.0964800">
        <ele>27.4</ele>
        <time>2023-01-28T08:34:22Z</time>
      </trkpt>
      <trkpt lat="36.4841660" lon="-6.0965350">
        <ele>27.6</ele>
        <time>2023-01-28T08:34:23Z</time>
      </trkpt>
      <trkpt lat="36.4841620" lon="-6.0965540">
        <ele>27.6</ele>
        <time>2023-01-28T08:34:24Z</time>
      </trkpt>
      <trkpt lat="36.4841570" lon="-6.0965920">
        <ele>27.8</ele>
        <time>2023-01-28T08:34:25Z</time>
      </trkpt>
      <trkpt lat="36.4841510" lon="-6.0966370">
        <ele>27.8</ele>
        <time>2023-01-28T08:34:26Z</time>
      </trkpt>
      <trkpt lat="36.4841350" lon="-6.0967000">
        <ele>27.8</ele>
        <time>2023-01-28T08:34:27Z</time>
      </trkpt>
      <trkpt lat="36.4841170" lon="-6.0967400">
        <ele>27.8</ele>
        <time>2023-01-28T08:34:28Z</time>
      </trkpt>
      <trkpt lat="36.4841040" lon="-6.0967900">
        <ele>27.8</ele>
        <time>2023-01-28T08:34:29Z</time>
      </trkpt>
      <trkpt lat="36.4840860" lon="-6.0968480">
        <ele>27.8</ele>
        <time>2023-01-28T08:34:30Z</time>
      </trkpt>
      <trkpt lat="36.4840580" lon="-6.0968650">
        <ele>27.8</ele>
        <time>2023-01-28T08:34:31Z</time>
      </trkpt>
      <trkpt lat="36.4840460" lon="-6.0969170">
        <ele>27.8</ele>
        <time>2023-01-28T08:34:32Z</time>
      </trkpt>
      <trkpt lat="36.4840420" lon="-6.0969670">
        <ele>27.8</ele>
        <time>2023-01-28T08:34:33Z</time>
      </trkpt>
      <trkpt lat="36.4840420" lon="-6.0970050">
        <ele>27.6</ele>
        <time>2023-01-28T08:34:34Z</time>
      </trkpt>
      <trkpt lat="36.4840500" lon="-6.0970390">
        <ele>27.6</ele>
        <time>2023-01-28T08:34:35Z</time>
      </trkpt>
      <trkpt lat="36.4840560" lon="-6.0970750">
        <ele>27.6</ele>
        <time>2023-01-28T08:34:36Z</time>
      </trkpt>
      <trkpt lat="36.4840630" lon="-6.0971150">
        <ele>27.6</ele>
        <time>2023-01-28T08:34:37Z</time>
      </trkpt>
      <trkpt lat="36.4840530" lon="-6.0971550">
        <ele>27.6</ele>
        <time>2023-01-28T08:34:38Z</time>
      </trkpt>
      <trkpt lat="36.4840430" lon="-6.0971660">
        <ele>27.4</ele>
        <time>2023-01-28T08:34:39Z</time>
      </trkpt>
      <trkpt lat="36.4840340" lon="-6.0972170">
        <ele>27.4</ele>
        <time>2023-01-28T08:34:40Z</time>
      </trkpt>
      <trkpt lat="36.4840220" lon="-6.0972680">
        <ele>27.4</ele>
        <time>2023-01-28T08:34:41Z</time>
      </trkpt>
      <trkpt lat="36.4839990" lon="-6.0972780">
        <ele>27.2</ele>
        <time>2023-01-28T08:34:42Z</time>
      </trkpt>
      <trkpt lat="36.4839850" lon="-6.0973170">
        <ele>27.2</ele>
        <time>2023-01-28T08:34:43Z</time>
      </trkpt>
      <trkpt lat="36.4839810" lon="-6.0973900">
        <ele>27.0</ele>
        <time>2023-01-28T08:34:44Z</time>
      </trkpt>
      <trkpt lat="36.4839760" lon="-6.0974150">
        <ele>27.4</ele>
        <time>2023-01-28T08:34:45Z</time>
      </trkpt>
      <trkpt lat="36.4839790" lon="-6.0974570">
        <ele>27.4</ele>
        <time>2023-01-28T08:34:46Z</time>
      </trkpt>
      <trkpt lat="36.4839940" lon="-6.0974950">
        <ele>27.4</ele>
        <time>2023-01-28T08:34:47Z</time>
      </trkpt>
      <trkpt lat="36.4840060" lon="-6.0975370">
        <ele>27.4</ele>
        <time>2023-01-28T08:34:48Z</time>
      </trkpt>
      <trkpt lat="36.4840070" lon="-6.0975620">
        <ele>27.4</ele>
        <time>2023-01-28T08:34:49Z</time>
      </trkpt>
      <trkpt lat="36.4840130" lon="-6.0975970">
        <ele>27.4</ele>
        <time>2023-01-28T08:34:50Z</time>
      </trkpt>
      <trkpt lat="36.4840220" lon="-6.0976260">
        <ele>27.6</ele>
        <time>2023-01-28T08:34:51Z</time>
      </trkpt>
      <trkpt lat="36.4840410" lon="-6.0976660">
        <ele>27.6</ele>
        <time>2023-01-28T08:34:52Z</time>
      </trkpt>
      <trkpt lat="36.4840630" lon="-6.0977050">
        <ele>27.6</ele>
        <time>2023-01-28T08:34:53Z</time>
      </trkpt>
      <trkpt lat="36.4840720" lon="-6.0977260">
        <ele>27.6</ele>
        <time>2023-01-28T08:34:54Z</time>
      </trkpt>
      <trkpt lat="36.4840880" lon="-6.0978130">
        <ele>27.6</ele>
        <time>2023-01-28T08:34:55Z</time>
      </trkpt>
      <trkpt lat="36.4841000" lon="-6.0978500">
        <ele>27.6</ele>
        <time>2023-01-28T08:34:56Z</time>
      </trkpt>
      <trkpt lat="36.4841010" lon="-6.0978690">
        <ele>27.6</ele>
        <time>2023-01-28T08:34:57Z</time>
      </trkpt>
      <trkpt lat="36.4841100" lon="-6.0978990">
        <ele>27.6</ele>
        <time>2023-01-28T08:34:58Z</time>
      </trkpt>
      <trkpt lat="36.4841440" lon="-6.0979570">
        <ele>27.6</ele>
        <time>2023-01-28T08:34:59Z</time>
      </trkpt>
      <trkpt lat="36.4841840" lon="-6.0980320">
        <ele>28.0</ele>
        <time>2023-01-28T08:35:00Z</time>
      </trkpt>
      <trkpt lat="36.4841920" lon="-6.0980670">
        <ele>28.2</ele>
        <time>2023-01-28T08:35:01Z</time>
      </trkpt>
      <trkpt lat="36.4841860" lon="-6.0980510">
        <ele>28.2</ele>
        <time>2023-01-28T08:35:02Z</time>
      </trkpt>
      <trkpt lat="36.4841920" lon="-6.0981000">
        <ele>28.4</ele>
        <time>2023-01-28T08:35:03Z</time>
      </trkpt>
      <trkpt lat="36.4842020" lon="-6.0981500">
        <ele>28.4</ele>
        <time>2023-01-28T08:35:04Z</time>
      </trkpt>
      <trkpt lat="36.4842020" lon="-6.0982410">
        <ele>28.8</ele>
        <time>2023-01-28T08:35:05Z</time>
      </trkpt>
      <trkpt lat="36.4841980" lon="-6.0982730">
        <ele>28.6</ele>
        <time>2023-01-28T08:35:06Z</time>
      </trkpt>
      <trkpt lat="36.4841880" lon="-6.0982910">
        <ele>28.6</ele>
        <time>2023-01-28T08:35:07Z</time>
      </trkpt>
      <trkpt lat="36.4841860" lon="-6.0983340">
        <ele>28.6</ele>
        <time>2023-01-28T08:35:08Z</time>
      </trkpt>
      <trkpt lat="36.4841830" lon="-6.0983750">
        <ele>28.4</ele>
        <time>2023-01-28T08:35:09Z</time>
      </trkpt>
      <trkpt lat="36.4841820" lon="-6.0984260">
        <ele>28.2</ele>
        <time>2023-01-28T08:35:10Z</time>
      </trkpt>
      <trkpt lat="36.4842040" lon="-6.0984770">
        <ele>28.2</ele>
        <time>2023-01-28T08:35:11Z</time>
      </trkpt>
      <trkpt lat="36.4842190" lon="-6.0985270">
        <ele>28.2</ele>
        <time>2023-01-28T08:35:12Z</time>
      </trkpt>
      <trkpt lat="36.4842280" lon="-6.0985790">
        <ele>28.2</ele>
        <time>2023-01-28T08:35:13Z</time>
      </trkpt>
      <trkpt lat="36.4842210" lon="-6.0985910">
        <ele>28.4</ele>
        <time>2023-01-28T08:35:14Z</time>
      </trkpt>
      <trkpt lat="36.4842020" lon="-6.0986260">
        <ele>28.4</ele>
        <time>2023-01-28T08:35:15Z</time>
      </trkpt>
      <trkpt lat="36.4841960" lon="-6.0986490">
        <ele>28.4</ele>
        <time>2023-01-28T08:35:16Z</time>
      </trkpt>
      <trkpt lat="36.4841980" lon="-6.0987110">
        <ele>28.4</ele>
        <time>2023-01-28T08:35:17Z</time>
      </trkpt>
      <trkpt lat="36.4842220" lon="-6.0988120">
        <ele>28.4</ele>
        <time>2023-01-28T08:35:18Z</time>
      </trkpt>
      <trkpt lat="36.4842300" lon="-6.0988620">
        <ele>28.4</ele>
        <time>2023-01-28T08:35:19Z</time>
      </trkpt>
      <trkpt lat="36.4842350" lon="-6.0989120">
        <ele>28.4</ele>
        <time>2023-01-28T08:35:20Z</time>
      </trkpt>
      <trkpt lat="36.4842390" lon="-6.0989680">
        <ele>28.4</ele>
        <time>2023-01-28T08:35:21Z</time>
      </trkpt>
      <trkpt lat="36.4842490" lon="-6.0990300">
        <ele>28.4</ele>
        <time>2023-01-28T08:35:22Z</time>
      </trkpt>
      <trkpt lat="36.4842500" lon="-6.0990510">
        <ele>28.4</ele>
        <time>2023-01-28T08:35:23Z</time>
      </trkpt>
      <trkpt lat="36.4842470" lon="-6.0990990">
        <ele>28.4</ele>
        <time>2023-01-28T08:35:24Z</time>
      </trkpt>
      <trkpt lat="36.4842510" lon="-6.0991520">
        <ele>28.4</ele>
        <time>2023-01-28T08:35:25Z</time>
      </trkpt>
      <trkpt lat="36.4842430" lon="-6.0991900">
        <ele>28.2</ele>
        <time>2023-01-28T08:35:26Z</time>
      </trkpt>
      <trkpt lat="36.4842340" lon="-6.0992360">
        <ele>27.8</ele>
        <time>2023-01-28T08:35:27Z</time>
      </trkpt>
      <trkpt lat="36.4842100" lon="-6.0992320">
        <ele>27.8</ele>
        <time>2023-01-28T08:35:28Z</time>
      </trkpt>
      <trkpt lat="36.4842230" lon="-6.0992730">
        <ele>27.6</ele>
        <time>2023-01-28T08:35:29Z</time>
      </trkpt>
      <trkpt lat="36.4842210" lon="-6.0992840">
        <ele>27.6</ele>
        <time>2023-01-28T08:35:30Z</time>
      </trkpt>
      <trkpt lat="36.4842240" lon="-6.0993160">
        <ele>27.6</ele>
        <time>2023-01-28T08:35:31Z</time>
      </trkpt>
      <trkpt lat="36.4842430" lon="-6.0993720">
        <ele>27.6</ele>
        <time>2023-01-28T08:35:32Z</time>
      </trkpt>
      <trkpt lat="36.4842560" lon="-6.0994120">
        <ele>27.6</ele>
        <time>2023-01-28T08:35:33Z</time>
      </trkpt>
      <trkpt lat="36.4842700" lon="-6.0994430">
        <ele>27.4</ele>
        <time>2023-01-28T08:35:34Z</time>
      </trkpt>
      <trkpt lat="36.4842730" lon="-6.0994710">
        <ele>27.4</ele>
        <time>2023-01-28T08:35:35Z</time>
      </trkpt>
      <trkpt lat="36.4842540" lon="-6.0994690">
        <ele>27.4</ele>
        <time>2023-01-28T08:35:36Z</time>
      </trkpt>
      <trkpt lat="36.4842670" lon="-6.0995020">
        <ele>27.4</ele>
        <time>2023-01-28T08:35:37Z</time>
      </trkpt>
      <trkpt lat="36.4842630" lon="-6.0995310">
        <ele>27.2</ele>
        <time>2023-01-28T08:35:38Z</time>
      </trkpt>
      <trkpt lat="36.4842600" lon="-6.0995640">
        <ele>27.2</ele>
        <time>2023-01-28T08:35:39Z</time>
      </trkpt>
      <trkpt lat="36.4842460" lon="-6.0996140">
        <ele>27.2</ele>
        <time>2023-01-28T08:35:40Z</time>
      </trkpt>
      <trkpt lat="36.4842320" lon="-6.0996110">
        <ele>27.2</ele>
        <time>2023-01-28T08:35:41Z</time>
      </trkpt>
      <trkpt lat="36.4842500" lon="-6.0996960">
        <ele>27.0</ele>
        <time>2023-01-28T08:35:42Z</time>
      </trkpt>
      <trkpt lat="36.4842540" lon="-6.0997830">
        <ele>27.0</ele>
        <time>2023-01-28T08:35:43Z</time>
      </trkpt>
      <trkpt lat="36.4842600" lon="-6.0998410">
        <ele>27.0</ele>
        <time>2023-01-28T08:35:44Z</time>
      </trkpt>
      <trkpt lat="36.4842310" lon="-6.0998260">
        <ele>26.8</ele>
        <time>2023-01-28T08:35:45Z</time>
      </trkpt>
      <trkpt lat="36.4842150" lon="-6.0998640">
        <ele>26.8</ele>
        <time>2023-01-28T08:35:46Z</time>
      </trkpt>
      <trkpt lat="36.4842130" lon="-6.0999390">
        <ele>26.8</ele>
        <time>2023-01-28T08:35:47Z</time>
      </trkpt>
      <trkpt lat="36.4842020" lon="-6.0999420">
        <ele>26.8</ele>
        <time>2023-01-28T08:35:48Z</time>
      </trkpt>
      <trkpt lat="36.4842000" lon="-6.1000280">
        <ele>26.8</ele>
        <time>2023-01-28T08:35:49Z</time>
      </trkpt>
      <trkpt lat="36.4841850" lon="-6.1000800">
        <ele>26.8</ele>
        <time>2023-01-28T08:35:50Z</time>
      </trkpt>
      <trkpt lat="36.4841780" lon="-6.1001260">
        <ele>26.6</ele>
        <time>2023-01-28T08:35:51Z</time>
      </trkpt>
      <trkpt lat="36.4841910" lon="-6.1001860">
        <ele>26.6</ele>
        <time>2023-01-28T08:35:52Z</time>
      </trkpt>
      <trkpt lat="36.4841940" lon="-6.1002160">
        <ele>26.6</ele>
        <time>2023-01-28T08:35:53Z</time>
      </trkpt>
      <trkpt lat="36.4841900" lon="-6.1002200">
        <ele>26.6</ele>
        <time>2023-01-28T08:35:54Z</time>
      </trkpt>
      <trkpt lat="36.4842000" lon="-6.1002630">
        <ele>26.6</ele>
        <time>2023-01-28T08:35:55Z</time>
      </trkpt>
      <trkpt lat="36.4841930" lon="-6.1003190">
        <ele>26.6</ele>
        <time>2023-01-28T08:35:56Z</time>
      </trkpt>
      <trkpt lat="36.4841750" lon="-6.1003410">
        <ele>26.4</ele>
        <time>2023-01-28T08:35:57Z</time>
      </trkpt>
      <trkpt lat="36.4841700" lon="-6.1003960">
        <ele>26.4</ele>
        <time>2023-01-28T08:35:58Z</time>
      </trkpt>
      <trkpt lat="36.4842030" lon="-6.1005180">
        <ele>26.4</ele>
        <time>2023-01-28T08:35:59Z</time>
      </trkpt>
      <trkpt lat="36.4842140" lon="-6.1005740">
        <ele>26.4</ele>
        <time>2023-01-28T08:36:00Z</time>
      </trkpt>
      <trkpt lat="36.4842380" lon="-6.1006460">
        <ele>26.2</ele>
        <time>2023-01-28T08:36:01Z</time>
      </trkpt>
      <trkpt lat="36.4842670" lon="-6.1007220">
        <ele>26.4</ele>
        <time>2023-01-28T08:36:02Z</time>
      </trkpt>
      <trkpt lat="36.4842800" lon="-6.1007740">
        <ele>26.2</ele>
        <time>2023-01-28T08:36:03Z</time>
      </trkpt>
      <trkpt lat="36.4842950" lon="-6.1008260">
        <ele>26.2</ele>
        <time>2023-01-28T08:36:04Z</time>
      </trkpt>
      <trkpt lat="36.4843020" lon="-6.1008670">
        <ele>26.0</ele>
        <time>2023-01-28T08:36:05Z</time>
      </trkpt>
      <trkpt lat="36.4843180" lon="-6.1009280">
        <ele>26.0</ele>
        <time>2023-01-28T08:36:06Z</time>
      </trkpt>
      <trkpt lat="36.4843390" lon="-6.1009760">
        <ele>26.0</ele>
        <time>2023-01-28T08:36:07Z</time>
      </trkpt>
      <trkpt lat="36.4843500" lon="-6.1010300">
        <ele>26.0</ele>
        <time>2023-01-28T08:36:08Z</time>
      </trkpt>
      <trkpt lat="36.4843680" lon="-6.1010620">
        <ele>26.2</ele>
        <time>2023-01-28T08:36:09Z</time>
      </trkpt>
      <trkpt lat="36.4843970" lon="-6.1011300">
        <ele>26.2</ele>
        <time>2023-01-28T08:36:10Z</time>
      </trkpt>
      <trkpt lat="36.4843990" lon="-6.1011840">
        <ele>26.2</ele>
        <time>2023-01-28T08:36:11Z</time>
      </trkpt>
      <trkpt lat="36.4844070" lon="-6.1012350">
        <ele>26.0</ele>
        <time>2023-01-28T08:36:12Z</time>
      </trkpt>
      <trkpt lat="36.4844210" lon="-6.1013020">
        <ele>26.0</ele>
        <time>2023-01-28T08:36:13Z</time>
      </trkpt>
      <trkpt lat="36.4844300" lon="-6.1013400">
        <ele>26.0</ele>
        <time>2023-01-28T08:36:14Z</time>
      </trkpt>
      <trkpt lat="36.4844310" lon="-6.1013810">
        <ele>26.0</ele>
        <time>2023-01-28T08:36:15Z</time>
      </trkpt>
      <trkpt lat="36.4844350" lon="-6.1014200">
        <ele>26.0</ele>
        <time>2023-01-28T08:36:16Z</time>
      </trkpt>
      <trkpt lat="36.4844450" lon="-6.1014870">
        <ele>25.8</ele>
        <time>2023-01-28T08:36:17Z</time>
      </trkpt>
      <trkpt lat="36.4844330" lon="-6.1015410">
        <ele>25.8</ele>
        <time>2023-01-28T08:36:18Z</time>
      </trkpt>
      <trkpt lat="36.4844300" lon="-6.1015810">
        <ele>25.6</ele>
        <time>2023-01-28T08:36:19Z</time>
      </trkpt>
      <trkpt lat="36.4844370" lon="-6.1016430">
        <ele>25.6</ele>
        <time>2023-01-28T08:36:20Z</time>
      </trkpt>
      <trkpt lat="36.4844470" lon="-6.1017100">
        <ele>25.4</ele>
        <time>2023-01-28T08:36:21Z</time>
      </trkpt>
      <trkpt lat="36.4844480" lon="-6.1017420">
        <ele>25.4</ele>
        <time>2023-01-28T08:36:22Z</time>
      </trkpt>
      <trkpt lat="36.4844680" lon="-6.1018010">
        <ele>25.4</ele>
        <time>2023-01-28T08:36:23Z</time>
      </trkpt>
      <trkpt lat="36.4844980" lon="-6.1018540">
        <ele>25.6</ele>
        <time>2023-01-28T08:36:24Z</time>
      </trkpt>
      <trkpt lat="36.4845150" lon="-6.1018770">
        <ele>25.4</ele>
        <time>2023-01-28T08:36:25Z</time>
      </trkpt>
      <trkpt lat="36.4845330" lon="-6.1019180">
        <ele>25.6</ele>
        <time>2023-01-28T08:36:26Z</time>
      </trkpt>
      <trkpt lat="36.4845290" lon="-6.1019350">
        <ele>25.6</ele>
        <time>2023-01-28T08:36:27Z</time>
      </trkpt>
      <trkpt lat="36.4845450" lon="-6.1019730">
        <ele>25.6</ele>
        <time>2023-01-28T08:36:28Z</time>
      </trkpt>
      <trkpt lat="36.4845590" lon="-6.1020020">
        <ele>25.4</ele>
        <time>2023-01-28T08:36:29Z</time>
      </trkpt>
      <trkpt lat="36.4845640" lon="-6.1020420">
        <ele>25.4</ele>
        <time>2023-01-28T08:36:30Z</time>
      </trkpt>
      <trkpt lat="36.4845700" lon="-6.1020800">
        <ele>25.2</ele>
        <time>2023-01-28T08:36:31Z</time>
      </trkpt>
      <trkpt lat="36.4845650" lon="-6.1021400">
        <ele>25.2</ele>
        <time>2023-01-28T08:36:32Z</time>
      </trkpt>
      <trkpt lat="36.4845590" lon="-6.1021610">
        <ele>25.4</ele>
        <time>2023-01-28T08:36:33Z</time>
      </trkpt>
      <trkpt lat="36.4845570" lon="-6.1022040">
        <ele>25.4</ele>
        <time>2023-01-28T08:36:34Z</time>
      </trkpt>
      <trkpt lat="36.4845530" lon="-6.1022380">
        <ele>25.4</ele>
        <time>2023-01-28T08:36:35Z</time>
      </trkpt>
      <trkpt lat="36.4845550" lon="-6.1022870">
        <ele>25.2</ele>
        <time>2023-01-28T08:36:36Z</time>
      </trkpt>
      <trkpt lat="36.4845650" lon="-6.1023300">
        <ele>25.2</ele>
        <time>2023-01-28T08:36:37Z</time>
      </trkpt>
      <trkpt lat="36.4845680" lon="-6.1023760">
        <ele>25.2</ele>
        <time>2023-01-28T08:36:38Z</time>
      </trkpt>
      <trkpt lat="36.4845780" lon="-6.1024170">
        <ele>25.2</ele>
        <time>2023-01-28T08:36:39Z</time>
      </trkpt>
      <trkpt lat="36.4845760" lon="-6.1024800">
        <ele>25.2</ele>
        <time>2023-01-28T08:36:40Z</time>
      </trkpt>
      <trkpt lat="36.4845770" lon="-6.1025260">
        <ele>25.2</ele>
        <time>2023-01-28T08:36:41Z</time>
      </trkpt>
      <trkpt lat="36.4845830" lon="-6.1025820">
        <ele>25.2</ele>
        <time>2023-01-28T08:36:42Z</time>
      </trkpt>
      <trkpt lat="36.4846010" lon="-6.1026520">
        <ele>25.2</ele>
        <time>2023-01-28T08:36:43Z</time>
      </trkpt>
      <trkpt lat="36.4846090" lon="-6.1026880">
        <ele>25.2</ele>
        <time>2023-01-28T08:36:44Z</time>
      </trkpt>
      <trkpt lat="36.4846170" lon="-6.1027160">
        <ele>25.2</ele>
        <time>2023-01-28T08:36:45Z</time>
      </trkpt>
      <trkpt lat="36.4846380" lon="-6.1027730">
        <ele>25.2</ele>
        <time>2023-01-28T08:36:46Z</time>
      </trkpt>
      <trkpt lat="36.4846390" lon="-6.1028210">
        <ele>25.2</ele>
        <time>2023-01-28T08:36:47Z</time>
      </trkpt>
      <trkpt lat="36.4846470" lon="-6.1028760">
        <ele>25.2</ele>
        <time>2023-01-28T08:36:48Z</time>
      </trkpt>
      <trkpt lat="36.4846490" lon="-6.1029410">
        <ele>25.0</ele>
        <time>2023-01-28T08:36:49Z</time>
      </trkpt>
      <trkpt lat="36.4846400" lon="-6.1029710">
        <ele>25.0</ele>
        <time>2023-01-28T08:36:50Z</time>
      </trkpt>
      <trkpt lat="36.4846410" lon="-6.1030350">
        <ele>25.0</ele>
        <time>2023-01-28T08:36:51Z</time>
      </trkpt>
      <trkpt lat="36.4846490" lon="-6.1030850">
        <ele>25.0</ele>
        <time>2023-01-28T08:36:52Z</time>
      </trkpt>
      <trkpt lat="36.4846480" lon="-6.1031000">
        <ele>25.0</ele>
        <time>2023-01-28T08:36:53Z</time>
      </trkpt>
      <trkpt lat="36.4846560" lon="-6.1031360">
        <ele>24.8</ele>
        <time>2023-01-28T08:36:54Z</time>
      </trkpt>
      <trkpt lat="36.4846650" lon="-6.1031680">
        <ele>24.8</ele>
        <time>2023-01-28T08:36:55Z</time>
      </trkpt>
      <trkpt lat="36.4846860" lon="-6.1032230">
        <ele>24.8</ele>
        <time>2023-01-28T08:36:56Z</time>
      </trkpt>
      <trkpt lat="36.4846920" lon="-6.1032320">
        <ele>24.8</ele>
        <time>2023-01-28T08:36:57Z</time>
      </trkpt>
      <trkpt lat="36.4847130" lon="-6.1032610">
        <ele>24.8</ele>
        <time>2023-01-28T08:36:58Z</time>
      </trkpt>
      <trkpt lat="36.4847360" lon="-6.1032890">
        <ele>24.6</ele>
        <time>2023-01-28T08:36:59Z</time>
      </trkpt>
      <trkpt lat="36.4847600" lon="-6.1033000">
        <ele>24.6</ele>
        <time>2023-01-28T08:37:00Z</time>
      </trkpt>
      <trkpt lat="36.4847790" lon="-6.1033220">
        <ele>24.8</ele>
        <time>2023-01-28T08:37:01Z</time>
      </trkpt>
      <trkpt lat="36.4847920" lon="-6.1033220">
        <ele>24.8</ele>
        <time>2023-01-28T08:37:02Z</time>
      </trkpt>
      <trkpt lat="36.4848030" lon="-6.1033210">
        <ele>25.0</ele>
        <time>2023-01-28T08:37:03Z</time>
      </trkpt>
      <trkpt lat="36.4848140" lon="-6.1033430">
        <ele>25.2</ele>
        <time>2023-01-28T08:37:04Z</time>
      </trkpt>
      <trkpt lat="36.4848250" lon="-6.1034060">
        <ele>25.0</ele>
        <time>2023-01-28T08:37:05Z</time>
      </trkpt>
      <trkpt lat="36.4848520" lon="-6.1034590">
        <ele>25.2</ele>
        <time>2023-01-28T08:37:06Z</time>
      </trkpt>
      <trkpt lat="36.4848690" lon="-6.1034900">
        <ele>25.2</ele>
        <time>2023-01-28T08:37:07Z</time>
      </trkpt>
      <trkpt lat="36.4848810" lon="-6.1035120">
        <ele>25.0</ele>
        <time>2023-01-28T08:37:08Z</time>
      </trkpt>
      <trkpt lat="36.4848970" lon="-6.1035620">
        <ele>25.0</ele>
        <time>2023-01-28T08:37:09Z</time>
      </trkpt>
      <trkpt lat="36.4849190" lon="-6.1036150">
        <ele>24.8</ele>
        <time>2023-01-28T08:37:10Z</time>
      </trkpt>
      <trkpt lat="36.4849420" lon="-6.1036700">
        <ele>24.8</ele>
        <time>2023-01-28T08:37:11Z</time>
      </trkpt>
      <trkpt lat="36.4849670" lon="-6.1037250">
        <ele>24.6</ele>
        <time>2023-01-28T08:37:12Z</time>
      </trkpt>
      <trkpt lat="36.4849750" lon="-6.1037760">
        <ele>24.8</ele>
        <time>2023-01-28T08:37:13Z</time>
      </trkpt>
      <trkpt lat="36.4850010" lon="-6.1038390">
        <ele>24.6</ele>
        <time>2023-01-28T08:37:14Z</time>
      </trkpt>
      <trkpt lat="36.4850130" lon="-6.1039000">
        <ele>24.6</ele>
        <time>2023-01-28T08:37:15Z</time>
      </trkpt>
      <trkpt lat="36.4850300" lon="-6.1039380">
        <ele>24.6</ele>
        <time>2023-01-28T08:37:16Z</time>
      </trkpt>
      <trkpt lat="36.4850430" lon="-6.1039770">
        <ele>24.6</ele>
        <time>2023-01-28T08:37:17Z</time>
      </trkpt>
      <trkpt lat="36.4850570" lon="-6.1040030">
        <ele>24.6</ele>
        <time>2023-01-28T08:37:18Z</time>
      </trkpt>
      <trkpt lat="36.4850600" lon="-6.1040360">
        <ele>24.6</ele>
        <time>2023-01-28T08:37:19Z</time>
      </trkpt>
      <trkpt lat="36.4850790" lon="-6.1040910">
        <ele>24.4</ele>
        <time>2023-01-28T08:37:20Z</time>
      </trkpt>
      <trkpt lat="36.4850960" lon="-6.1041520">
        <ele>24.6</ele>
        <time>2023-01-28T08:37:21Z</time>
      </trkpt>
      <trkpt lat="36.4851040" lon="-6.1041880">
        <ele>24.6</ele>
        <time>2023-01-28T08:37:22Z</time>
      </trkpt>
      <trkpt lat="36.4851100" lon="-6.1042230">
        <ele>24.6</ele>
        <time>2023-01-28T08:37:23Z</time>
      </trkpt>
      <trkpt lat="36.4851230" lon="-6.1042610">
        <ele>24.6</ele>
        <time>2023-01-28T08:37:24Z</time>
      </trkpt>
      <trkpt lat="36.4851380" lon="-6.1042870">
        <ele>24.4</ele>
        <time>2023-01-28T08:37:25Z</time>
      </trkpt>
      <trkpt lat="36.4851490" lon="-6.1043320">
        <ele>24.6</ele>
        <time>2023-01-28T08:37:26Z</time>
      </trkpt>
      <trkpt lat="36.4851660" lon="-6.1043750">
        <ele>24.6</ele>
        <time>2023-01-28T08:37:27Z</time>
      </trkpt>
      <trkpt lat="36.4851640" lon="-6.1044150">
        <ele>24.4</ele>
        <time>2023-01-28T08:37:28Z</time>
      </trkpt>
      <trkpt lat="36.4851560" lon="-6.1044610">
        <ele>24.2</ele>
        <time>2023-01-28T08:37:29Z</time>
      </trkpt>
      <trkpt lat="36.4851360" lon="-6.1044780">
        <ele>24.0</ele>
        <time>2023-01-28T08:37:30Z</time>
      </trkpt>
      <trkpt lat="36.4851410" lon="-6.1045230">
        <ele>23.8</ele>
        <time>2023-01-28T08:37:31Z</time>
      </trkpt>
      <trkpt lat="36.4851450" lon="-6.1045530">
        <ele>23.6</ele>
        <time>2023-01-28T08:37:32Z</time>
      </trkpt>
      <trkpt lat="36.4851460" lon="-6.1045840">
        <ele>23.6</ele>
        <time>2023-01-28T08:37:33Z</time>
      </trkpt>
      <trkpt lat="36.4851520" lon="-6.1046110">
        <ele>23.6</ele>
        <time>2023-01-28T08:37:34Z</time>
      </trkpt>
      <trkpt lat="36.4851750" lon="-6.1046590">
        <ele>23.6</ele>
        <time>2023-01-28T08:37:35Z</time>
      </trkpt>
      <trkpt lat="36.4851910" lon="-6.1047110">
        <ele>23.4</ele>
        <time>2023-01-28T08:37:36Z</time>
      </trkpt>
      <trkpt lat="36.4852030" lon="-6.1047480">
        <ele>23.4</ele>
        <time>2023-01-28T08:37:37Z</time>
      </trkpt>
      <trkpt lat="36.4852030" lon="-6.1047580">
        <ele>23.6</ele>
        <time>2023-01-28T08:37:38Z</time>
      </trkpt>
      <trkpt lat="36.4852320" lon="-6.1047910">
        <ele>23.4</ele>
        <time>2023-01-28T08:37:39Z</time>
      </trkpt>
      <trkpt lat="36.4852430" lon="-6.1048180">
        <ele>23.4</ele>
        <time>2023-01-28T08:37:40Z</time>
      </trkpt>
      <trkpt lat="36.4852490" lon="-6.1048550">
        <ele>23.4</ele>
        <time>2023-01-28T08:37:41Z</time>
      </trkpt>
      <trkpt lat="36.4852630" lon="-6.1048930">
        <ele>23.2</ele>
        <time>2023-01-28T08:37:42Z</time>
      </trkpt>
      <trkpt lat="36.4852920" lon="-6.1049540">
        <ele>23.2</ele>
        <time>2023-01-28T08:37:43Z</time>
      </trkpt>
      <trkpt lat="36.4853010" lon="-6.1049860">
        <ele>23.2</ele>
        <time>2023-01-28T08:37:44Z</time>
      </trkpt>
      <trkpt lat="36.4853170" lon="-6.1050310">
        <ele>23.2</ele>
        <time>2023-01-28T08:37:45Z</time>
      </trkpt>
      <trkpt lat="36.4853330" lon="-6.1050780">
        <ele>23.2</ele>
        <time>2023-01-28T08:37:46Z</time>
      </trkpt>
      <trkpt lat="36.4853490" lon="-6.1051130">
        <ele>23.2</ele>
        <time>2023-01-28T08:37:47Z</time>
      </trkpt>
      <trkpt lat="36.4853750" lon="-6.1051720">
        <ele>23.0</ele>
        <time>2023-01-28T08:37:48Z</time>
      </trkpt>
      <trkpt lat="36.4854130" lon="-6.1052500">
        <ele>23.0</ele>
        <time>2023-01-28T08:37:49Z</time>
      </trkpt>
      <trkpt lat="36.4854310" lon="-6.1052830">
        <ele>22.8</ele>
        <time>2023-01-28T08:37:50Z</time>
      </trkpt>
      <trkpt lat="36.4854570" lon="-6.1053230">
        <ele>23.0</ele>
        <time>2023-01-28T08:37:51Z</time>
      </trkpt>
      <trkpt lat="36.4854930" lon="-6.1053890">
        <ele>22.8</ele>
        <time>2023-01-28T08:37:52Z</time>
      </trkpt>
      <trkpt lat="36.4854970" lon="-6.1054390">
        <ele>22.6</ele>
        <time>2023-01-28T08:37:53Z</time>
      </trkpt>
      <trkpt lat="36.4855090" lon="-6.1055200">
        <ele>22.6</ele>
        <time>2023-01-28T08:37:54Z</time>
      </trkpt>
      <trkpt lat="36.4855160" lon="-6.1055510">
        <ele>22.4</ele>
        <time>2023-01-28T08:37:55Z</time>
      </trkpt>
      <trkpt lat="36.4855190" lon="-6.1055880">
        <ele>22.4</ele>
        <time>2023-01-28T08:37:56Z</time>
      </trkpt>
      <trkpt lat="36.4855310" lon="-6.1056640">
        <ele>22.4</ele>
        <time>2023-01-28T08:37:57Z</time>
      </trkpt>
      <trkpt lat="36.4855270" lon="-6.1056920">
        <ele>22.4</ele>
        <time>2023-01-28T08:37:58Z</time>
      </trkpt>
      <trkpt lat="36.4855260" lon="-6.1057330">
        <ele>22.2</ele>
        <time>2023-01-28T08:37:59Z</time>
      </trkpt>
      <trkpt lat="36.4855540" lon="-6.1057970">
        <ele>22.2</ele>
        <time>2023-01-28T08:38:00Z</time>
      </trkpt>
      <trkpt lat="36.4855720" lon="-6.1058560">
        <ele>22.0</ele>
        <time>2023-01-28T08:38:01Z</time>
      </trkpt>
      <trkpt lat="36.4855760" lon="-6.1058900">
        <ele>22.0</ele>
        <time>2023-01-28T08:38:02Z</time>
      </trkpt>
      <trkpt lat="36.4856060" lon="-6.1059510">
        <ele>22.0</ele>
        <time>2023-01-28T08:38:03Z</time>
      </trkpt>
      <trkpt lat="36.4856110" lon="-6.1059650">
        <ele>22.0</ele>
        <time>2023-01-28T08:38:04Z</time>
      </trkpt>
      <trkpt lat="36.4856350" lon="-6.1060920">
        <ele>22.0</ele>
        <time>2023-01-28T08:38:05Z</time>
      </trkpt>
      <trkpt lat="36.4856300" lon="-6.1061520">
        <ele>21.8</ele>
        <time>2023-01-28T08:38:06Z</time>
      </trkpt>
      <trkpt lat="36.4856350" lon="-6.1061980">
        <ele>22.0</ele>
        <time>2023-01-28T08:38:07Z</time>
      </trkpt>
      <trkpt lat="36.4856240" lon="-6.1062000">
        <ele>22.0</ele>
        <time>2023-01-28T08:38:08Z</time>
      </trkpt>
      <trkpt lat="36.4856260" lon="-6.1062310">
        <ele>22.0</ele>
        <time>2023-01-28T08:38:09Z</time>
      </trkpt>
      <trkpt lat="36.4856400" lon="-6.1063340">
        <ele>22.2</ele>
        <time>2023-01-28T08:38:10Z</time>
      </trkpt>
      <trkpt lat="36.4856500" lon="-6.1063860">
        <ele>22.4</ele>
        <time>2023-01-28T08:38:11Z</time>
      </trkpt>
      <trkpt lat="36.4856610" lon="-6.1064410">
        <ele>22.6</ele>
        <time>2023-01-28T08:38:12Z</time>
      </trkpt>
      <trkpt lat="36.4856590" lon="-6.1064630">
        <ele>22.6</ele>
        <time>2023-01-28T08:38:13Z</time>
      </trkpt>
      <trkpt lat="36.4856750" lon="-6.1065000">
        <ele>22.4</ele>
        <time>2023-01-28T08:38:14Z</time>
      </trkpt>
      <trkpt lat="36.4856950" lon="-6.1065580">
        <ele>22.6</ele>
        <time>2023-01-28T08:38:15Z</time>
      </trkpt>
      <trkpt lat="36.4857110" lon="-6.1066070">
        <ele>22.6</ele>
        <time>2023-01-28T08:38:16Z</time>
      </trkpt>
      <trkpt lat="36.4857420" lon="-6.1066660">
        <ele>22.8</ele>
        <time>2023-01-28T08:38:17Z</time>
      </trkpt>
      <trkpt lat="36.4857320" lon="-6.1066470">
        <ele>22.8</ele>
        <time>2023-01-28T08:38:18Z</time>
      </trkpt>
      <trkpt lat="36.4857470" lon="-6.1066830">
        <ele>22.8</ele>
        <time>2023-01-28T08:38:19Z</time>
      </trkpt>
      <trkpt lat="36.4857670" lon="-6.1067210">
        <ele>22.8</ele>
        <time>2023-01-28T08:38:20Z</time>
      </trkpt>
      <trkpt lat="36.4857740" lon="-6.1067380">
        <ele>22.8</ele>
        <time>2023-01-28T08:38:21Z</time>
      </trkpt>
      <trkpt lat="36.4857850" lon="-6.1067880">
        <ele>22.8</ele>
        <time>2023-01-28T08:38:22Z</time>
      </trkpt>
      <trkpt lat="36.4857710" lon="-6.1068270">
        <ele>23.0</ele>
        <time>2023-01-28T08:38:23Z</time>
      </trkpt>
      <trkpt lat="36.4857520" lon="-6.1068960">
        <ele>23.0</ele>
        <time>2023-01-28T08:38:24Z</time>
      </trkpt>
      <trkpt lat="36.4857440" lon="-6.1069420">
        <ele>22.8</ele>
        <time>2023-01-28T08:38:25Z</time>
      </trkpt>
      <trkpt lat="36.4857690" lon="-6.1070550">
        <ele>23.0</ele>
        <time>2023-01-28T08:38:26Z</time>
      </trkpt>
      <trkpt lat="36.4857680" lon="-6.1071080">
        <ele>23.2</ele>
        <time>2023-01-28T08:38:27Z</time>
      </trkpt>
      <trkpt lat="36.4858000" lon="-6.1072140">
        <ele>23.2</ele>
        <time>2023-01-28T08:38:28Z</time>
      </trkpt>
      <trkpt lat="36.4857980" lon="-6.1072750">
        <ele>23.4</ele>
        <time>2023-01-28T08:38:29Z</time>
      </trkpt>
      <trkpt lat="36.4858060" lon="-6.1073140">
        <ele>23.6</ele>
        <time>2023-01-28T08:38:30Z</time>
      </trkpt>
      <trkpt lat="36.4858150" lon="-6.1073540">
        <ele>23.4</ele>
        <time>2023-01-28T08:38:31Z</time>
      </trkpt>
      <trkpt lat="36.4858140" lon="-6.1073720">
        <ele>23.6</ele>
        <time>2023-01-28T08:38:32Z</time>
      </trkpt>
      <trkpt lat="36.4858240" lon="-6.1073930">
        <ele>23.6</ele>
        <time>2023-01-28T08:38:33Z</time>
      </trkpt>
      <trkpt lat="36.4858300" lon="-6.1074230">
        <ele>23.6</ele>
        <time>2023-01-28T08:38:34Z</time>
      </trkpt>
      <trkpt lat="36.4858360" lon="-6.1074370">
        <ele>23.6</ele>
        <time>2023-01-28T08:38:35Z</time>
      </trkpt>
      <trkpt lat="36.4858560" lon="-6.1074710">
        <ele>23.6</ele>
        <time>2023-01-28T08:38:36Z</time>
      </trkpt>
      <trkpt lat="36.4858710" lon="-6.1074940">
        <ele>23.4</ele>
        <time>2023-01-28T08:38:37Z</time>
      </trkpt>
      <trkpt lat="36.4858770" lon="-6.1075170">
        <ele>23.4</ele>
        <time>2023-01-28T08:38:38Z</time>
      </trkpt>
      <trkpt lat="36.4858830" lon="-6.1075270">
        <ele>23.2</ele>
        <time>2023-01-28T08:38:39Z</time>
      </trkpt>
      <trkpt lat="36.4859020" lon="-6.1075730">
        <ele>23.2</ele>
        <time>2023-01-28T08:38:40Z</time>
      </trkpt>
      <trkpt lat="36.4859140" lon="-6.1075920">
        <ele>23.2</ele>
        <time>2023-01-28T08:38:41Z</time>
      </trkpt>
      <trkpt lat="36.4859200" lon="-6.1076290">
        <ele>23.0</ele>
        <time>2023-01-28T08:38:42Z</time>
      </trkpt>
      <trkpt lat="36.4859070" lon="-6.1076790">
        <ele>22.8</ele>
        <time>2023-01-28T08:38:43Z</time>
      </trkpt>
      <trkpt lat="36.4859020" lon="-6.1077560">
        <ele>22.6</ele>
        <time>2023-01-28T08:38:44Z</time>
      </trkpt>
      <trkpt lat="36.4858860" lon="-6.1078020">
        <ele>22.6</ele>
        <time>2023-01-28T08:38:45Z</time>
      </trkpt>
      <trkpt lat="36.4858610" lon="-6.1078330">
        <ele>22.6</ele>
        <time>2023-01-28T08:38:46Z</time>
      </trkpt>
      <trkpt lat="36.4858380" lon="-6.1078570">
        <ele>22.6</ele>
        <time>2023-01-28T08:38:47Z</time>
      </trkpt>
      <trkpt lat="36.4858290" lon="-6.1078950">
        <ele>22.4</ele>
        <time>2023-01-28T08:38:48Z</time>
      </trkpt>
      <trkpt lat="36.4858310" lon="-6.1079470">
        <ele>22.2</ele>
        <time>2023-01-28T08:38:49Z</time>
      </trkpt>
      <trkpt lat="36.4858410" lon="-6.1080210">
        <ele>22.0</ele>
        <time>2023-01-28T08:38:50Z</time>
      </trkpt>
      <trkpt lat="36.4858660" lon="-6.1081400">
        <ele>22.0</ele>
        <time>2023-01-28T08:38:51Z</time>
      </trkpt>
      <trkpt lat="36.4858760" lon="-6.1082100">
        <ele>21.8</ele>
        <time>2023-01-28T08:38:52Z</time>
      </trkpt>
      <trkpt lat="36.4858780" lon="-6.1082590">
        <ele>21.8</ele>
        <time>2023-01-28T08:38:53Z</time>
      </trkpt>
      <trkpt lat="36.4858850" lon="-6.1083330">
        <ele>21.6</ele>
        <time>2023-01-28T08:38:54Z</time>
      </trkpt>
      <trkpt lat="36.4858690" lon="-6.1083560">
        <ele>21.4</ele>
        <time>2023-01-28T08:38:55Z</time>
      </trkpt>
      <trkpt lat="36.4858770" lon="-6.1084530">
        <ele>21.6</ele>
        <time>2023-01-28T08:38:56Z</time>
      </trkpt>
      <trkpt lat="36.4858480" lon="-6.1084540">
        <ele>21.4</ele>
        <time>2023-01-28T08:38:57Z</time>
      </trkpt>
      <trkpt lat="36.4858500" lon="-6.1085530">
        <ele>21.4</ele>
        <time>2023-01-28T08:38:58Z</time>
      </trkpt>
      <trkpt lat="36.4858490" lon="-6.1086140">
        <ele>21.2</ele>
        <time>2023-01-28T08:38:59Z</time>
      </trkpt>
      <trkpt lat="36.4858440" lon="-6.1086530">
        <ele>21.2</ele>
        <time>2023-01-28T08:39:00Z</time>
      </trkpt>
      <trkpt lat="36.4858500" lon="-6.1087030">
        <ele>21.2</ele>
        <time>2023-01-28T08:39:01Z</time>
      </trkpt>
      <trkpt lat="36.4858670" lon="-6.1087390">
        <ele>21.2</ele>
        <time>2023-01-28T08:39:02Z</time>
      </trkpt>
      <trkpt lat="36.4858760" lon="-6.1087950">
        <ele>21.4</ele>
        <time>2023-01-28T08:39:03Z</time>
      </trkpt>
      <trkpt lat="36.4858790" lon="-6.1088210">
        <ele>21.2</ele>
        <time>2023-01-28T08:39:04Z</time>
      </trkpt>
      <trkpt lat="36.4858760" lon="-6.1088570">
        <ele>21.2</ele>
        <time>2023-01-28T08:39:05Z</time>
      </trkpt>
      <trkpt lat="36.4858740" lon="-6.1089000">
        <ele>21.4</ele>
        <time>2023-01-28T08:39:06Z</time>
      </trkpt>
      <trkpt lat="36.4858810" lon="-6.1089400">
        <ele>21.4</ele>
        <time>2023-01-28T08:39:07Z</time>
      </trkpt>
      <trkpt lat="36.4858830" lon="-6.1089750">
        <ele>21.6</ele>
        <time>2023-01-28T08:39:08Z</time>
      </trkpt>
      <trkpt lat="36.4858940" lon="-6.1090240">
        <ele>21.6</ele>
        <time>2023-01-28T08:39:09Z</time>
      </trkpt>
      <trkpt lat="36.4858990" lon="-6.1090740">
        <ele>21.6</ele>
        <time>2023-01-28T08:39:10Z</time>
      </trkpt>
      <trkpt lat="36.4859050" lon="-6.1091230">
        <ele>21.6</ele>
        <time>2023-01-28T08:39:11Z</time>
      </trkpt>
      <trkpt lat="36.4859100" lon="-6.1091660">
        <ele>22.0</ele>
        <time>2023-01-28T08:39:12Z</time>
      </trkpt>
      <trkpt lat="36.4859260" lon="-6.1092580">
        <ele>22.2</ele>
        <time>2023-01-28T08:39:13Z</time>
      </trkpt>
      <trkpt lat="36.4859300" lon="-6.1092880">
        <ele>22.2</ele>
        <time>2023-01-28T08:39:14Z</time>
      </trkpt>
      <trkpt lat="36.4859420" lon="-6.1093340">
        <ele>22.2</ele>
        <time>2023-01-28T08:39:15Z</time>
      </trkpt>
      <trkpt lat="36.4859470" lon="-6.1093570">
        <ele>22.2</ele>
        <time>2023-01-28T08:39:16Z</time>
      </trkpt>
      <trkpt lat="36.4859440" lon="-6.1093860">
        <ele>22.4</ele>
        <time>2023-01-28T08:39:17Z</time>
      </trkpt>
      <trkpt lat="36.4859560" lon="-6.1094460">
        <ele>22.6</ele>
        <time>2023-01-28T08:39:18Z</time>
      </trkpt>
      <trkpt lat="36.4859590" lon="-6.1094780">
        <ele>22.8</ele>
        <time>2023-01-28T08:39:19Z</time>
      </trkpt>
      <trkpt lat="36.4859750" lon="-6.1095270">
        <ele>22.8</ele>
        <time>2023-01-28T08:39:20Z</time>
      </trkpt>
      <trkpt lat="36.4859790" lon="-6.1095470">
        <ele>23.0</ele>
        <time>2023-01-28T08:39:21Z</time>
      </trkpt>
      <trkpt lat="36.4859930" lon="-6.1096030">
        <ele>23.0</ele>
        <time>2023-01-28T08:39:22Z</time>
      </trkpt>
      <trkpt lat="36.4860130" lon="-6.1096550">
        <ele>23.0</ele>
        <time>2023-01-28T08:39:23Z</time>
      </trkpt>
      <trkpt lat="36.4860200" lon="-6.1096910">
        <ele>23.0</ele>
        <time>2023-01-28T08:39:24Z</time>
      </trkpt>
      <trkpt lat="36.4860420" lon="-6.1097540">
        <ele>23.0</ele>
        <time>2023-01-28T08:39:25Z</time>
      </trkpt>
      <trkpt lat="36.4860490" lon="-6.1097810">
        <ele>23.0</ele>
        <time>2023-01-28T08:39:26Z</time>
      </trkpt>
      <trkpt lat="36.4860640" lon="-6.1098080">
        <ele>23.0</ele>
        <time>2023-01-28T08:39:27Z</time>
      </trkpt>
      <trkpt lat="36.4860830" lon="-6.1098530">
        <ele>23.0</ele>
        <time>2023-01-28T08:39:28Z</time>
      </trkpt>
      <trkpt lat="36.4860930" lon="-6.1098960">
        <ele>23.0</ele>
        <time>2023-01-28T08:39:29Z</time>
      </trkpt>
      <trkpt lat="36.4861080" lon="-6.1099370">
        <ele>22.8</ele>
        <time>2023-01-28T08:39:30Z</time>
      </trkpt>
      <trkpt lat="36.4861100" lon="-6.1099760">
        <ele>22.8</ele>
        <time>2023-01-28T08:39:31Z</time>
      </trkpt>
      <trkpt lat="36.4861110" lon="-6.1099990">
        <ele>22.6</ele>
        <time>2023-01-28T08:39:32Z</time>
      </trkpt>
      <trkpt lat="36.4861110" lon="-6.1100400">
        <ele>22.4</ele>
        <time>2023-01-28T08:39:33Z</time>
      </trkpt>
      <trkpt lat="36.4861200" lon="-6.1101210">
        <ele>22.2</ele>
        <time>2023-01-28T08:39:34Z</time>
      </trkpt>
      <trkpt lat="36.4861140" lon="-6.1101740">
        <ele>22.0</ele>
        <time>2023-01-28T08:39:35Z</time>
      </trkpt>
      <trkpt lat="36.4861200" lon="-6.1102250">
        <ele>21.8</ele>
        <time>2023-01-28T08:39:36Z</time>
      </trkpt>
      <trkpt lat="36.4861230" lon="-6.1102790">
        <ele>21.4</ele>
        <time>2023-01-28T08:39:37Z</time>
      </trkpt>
      <trkpt lat="36.4861290" lon="-6.1103570">
        <ele>21.2</ele>
        <time>2023-01-28T08:39:38Z</time>
      </trkpt>
      <trkpt lat="36.4861360" lon="-6.1104600">
        <ele>20.8</ele>
        <time>2023-01-28T08:39:39Z</time>
      </trkpt>
      <trkpt lat="36.4861510" lon="-6.1105500">
        <ele>20.6</ele>
        <time>2023-01-28T08:39:40Z</time>
      </trkpt>
      <trkpt lat="36.4861670" lon="-6.1106400">
        <ele>20.2</ele>
        <time>2023-01-28T08:39:41Z</time>
      </trkpt>
      <trkpt lat="36.4861740" lon="-6.1107020">
        <ele>20.0</ele>
        <time>2023-01-28T08:39:42Z</time>
      </trkpt>
      <trkpt lat="36.4861780" lon="-6.1107760">
        <ele>19.8</ele>
        <time>2023-01-28T08:39:43Z</time>
      </trkpt>
      <trkpt lat="36.4861800" lon="-6.1108430">
        <ele>19.6</ele>
        <time>2023-01-28T08:39:44Z</time>
      </trkpt>
      <trkpt lat="36.4861850" lon="-6.1108990">
        <ele>19.4</ele>
        <time>2023-01-28T08:39:45Z</time>
      </trkpt>
      <trkpt lat="36.4861990" lon="-6.1109550">
        <ele>19.2</ele>
        <time>2023-01-28T08:39:46Z</time>
      </trkpt>
      <trkpt lat="36.4861990" lon="-6.1110110">
        <ele>18.8</ele>
        <time>2023-01-28T08:39:47Z</time>
      </trkpt>
      <trkpt lat="36.4862050" lon="-6.1110830">
        <ele>18.6</ele>
        <time>2023-01-28T08:39:48Z</time>
      </trkpt>
      <trkpt lat="36.4862230" lon="-6.1111650">
        <ele>18.4</ele>
        <time>2023-01-28T08:39:49Z</time>
      </trkpt>
      <trkpt lat="36.4862560" lon="-6.1112790">
        <ele>18.4</ele>
        <time>2023-01-28T08:39:50Z</time>
      </trkpt>
      <trkpt lat="36.4862690" lon="-6.1113440">
        <ele>18.2</ele>
        <time>2023-01-28T08:39:51Z</time>
      </trkpt>
      <trkpt lat="36.4862780" lon="-6.1114160">
        <ele>18.0</ele>
        <time>2023-01-28T08:39:52Z</time>
      </trkpt>
      <trkpt lat="36.4862900" lon="-6.1114990">
        <ele>17.8</ele>
        <time>2023-01-28T08:39:53Z</time>
      </trkpt>
      <trkpt lat="36.4862970" lon="-6.1115550">
        <ele>17.6</ele>
        <time>2023-01-28T08:39:54Z</time>
      </trkpt>
      <trkpt lat="36.4863190" lon="-6.1116400">
        <ele>17.4</ele>
        <time>2023-01-28T08:39:55Z</time>
      </trkpt>
      <trkpt lat="36.4863270" lon="-6.1117170">
        <ele>17.4</ele>
        <time>2023-01-28T08:39:56Z</time>
      </trkpt>
      <trkpt lat="36.4863490" lon="-6.1118230">
        <ele>17.2</ele>
        <time>2023-01-28T08:39:57Z</time>
      </trkpt>
      <trkpt lat="36.4863720" lon="-6.1119090">
        <ele>17.2</ele>
        <time>2023-01-28T08:39:58Z</time>
      </trkpt>
      <trkpt lat="36.4863840" lon="-6.1119840">
        <ele>17.0</ele>
        <time>2023-01-28T08:39:59Z</time>
      </trkpt>
      <trkpt lat="36.4863890" lon="-6.1120460">
        <ele>17.0</ele>
        <time>2023-01-28T08:40:00Z</time>
      </trkpt>
      <trkpt lat="36.4864050" lon="-6.1121190">
        <ele>16.8</ele>
        <time>2023-01-28T08:40:01Z</time>
      </trkpt>
      <trkpt lat="36.4864270" lon="-6.1121940">
        <ele>16.8</ele>
        <time>2023-01-28T08:40:02Z</time>
      </trkpt>
      <trkpt lat="36.4864310" lon="-6.1122340">
        <ele>16.6</ele>
        <time>2023-01-28T08:40:03Z</time>
      </trkpt>
      <trkpt lat="36.4864370" lon="-6.1122800">
        <ele>16.6</ele>
        <time>2023-01-28T08:40:04Z</time>
      </trkpt>
      <trkpt lat="36.4864510" lon="-6.1123530">
        <ele>16.6</ele>
        <time>2023-01-28T08:40:05Z</time>
      </trkpt>
      <trkpt lat="36.4864710" lon="-6.1124500">
        <ele>16.4</ele>
        <time>2023-01-28T08:40:06Z</time>
      </trkpt>
      <trkpt lat="36.4864720" lon="-6.1125290">
        <ele>16.4</ele>
        <time>2023-01-28T08:40:07Z</time>
      </trkpt>
      <trkpt lat="36.4864810" lon="-6.1125930">
        <ele>16.4</ele>
        <time>2023-01-28T08:40:08Z</time>
      </trkpt>
      <trkpt lat="36.4865030" lon="-6.1126750">
        <ele>16.2</ele>
        <time>2023-01-28T08:40:09Z</time>
      </trkpt>
      <trkpt lat="36.4865150" lon="-6.1127360">
        <ele>16.0</ele>
        <time>2023-01-28T08:40:10Z</time>
      </trkpt>
      <trkpt lat="36.4865310" lon="-6.1128260">
        <ele>15.8</ele>
        <time>2023-01-28T08:40:11Z</time>
      </trkpt>
      <trkpt lat="36.4865560" lon="-6.1128920">
        <ele>15.6</ele>
        <time>2023-01-28T08:40:12Z</time>
      </trkpt>
      <trkpt lat="36.4865850" lon="-6.1129660">
        <ele>15.4</ele>
        <time>2023-01-28T08:40:13Z</time>
      </trkpt>
      <trkpt lat="36.4866050" lon="-6.1130380">
        <ele>15.2</ele>
        <time>2023-01-28T08:40:14Z</time>
      </trkpt>
      <trkpt lat="36.4866250" lon="-6.1131160">
        <ele>15.2</ele>
        <time>2023-01-28T08:40:15Z</time>
      </trkpt>
      <trkpt lat="36.4866440" lon="-6.1131800">
        <ele>15.0</ele>
        <time>2023-01-28T08:40:16Z</time>
      </trkpt>
      <trkpt lat="36.4866460" lon="-6.1132120">
        <ele>14.8</ele>
        <time>2023-01-28T08:40:17Z</time>
      </trkpt>
      <trkpt lat="36.4866530" lon="-6.1132870">
        <ele>14.6</ele>
        <time>2023-01-28T08:40:18Z</time>
      </trkpt>
      <trkpt lat="36.4866590" lon="-6.1133530">
        <ele>14.6</ele>
        <time>2023-01-28T08:40:19Z</time>
      </trkpt>
      <trkpt lat="36.4866700" lon="-6.1134140">
        <ele>14.4</ele>
        <time>2023-01-28T08:40:20Z</time>
      </trkpt>
      <trkpt lat="36.4866780" lon="-6.1134730">
        <ele>14.2</ele>
        <time>2023-01-28T08:40:21Z</time>
      </trkpt>
      <trkpt lat="36.4866910" lon="-6.1135240">
        <ele>14.0</ele>
        <time>2023-01-28T08:40:22Z</time>
      </trkpt>
      <trkpt lat="36.4866810" lon="-6.1135570">
        <ele>13.8</ele>
        <time>2023-01-28T08:40:23Z</time>
      </trkpt>
      <trkpt lat="36.4866780" lon="-6.1135880">
        <ele>13.8</ele>
        <time>2023-01-28T08:40:24Z</time>
      </trkpt>
      <trkpt lat="36.4866870" lon="-6.1136780">
        <ele>13.8</ele>
        <time>2023-01-28T08:40:25Z</time>
      </trkpt>
      <trkpt lat="36.4866960" lon="-6.1137410">
        <ele>13.6</ele>
        <time>2023-01-28T08:40:26Z</time>
      </trkpt>
      <trkpt lat="36.4867130" lon="-6.1138010">
        <ele>13.6</ele>
        <time>2023-01-28T08:40:27Z</time>
      </trkpt>
      <trkpt lat="36.4867180" lon="-6.1138540">
        <ele>13.4</ele>
        <time>2023-01-28T08:40:28Z</time>
      </trkpt>
      <trkpt lat="36.4867260" lon="-6.1138880">
        <ele>13.2</ele>
        <time>2023-01-28T08:40:29Z</time>
      </trkpt>
      <trkpt lat="36.4867380" lon="-6.1139360">
        <ele>13.2</ele>
        <time>2023-01-28T08:40:30Z</time>
      </trkpt>
      <trkpt lat="36.4867550" lon="-6.1139850">
        <ele>13.0</ele>
        <time>2023-01-28T08:40:31Z</time>
      </trkpt>
      <trkpt lat="36.4867650" lon="-6.1140530">
        <ele>13.0</ele>
        <time>2023-01-28T08:40:32Z</time>
      </trkpt>
      <trkpt lat="36.4867770" lon="-6.1140960">
        <ele>12.8</ele>
        <time>2023-01-28T08:40:33Z</time>
      </trkpt>
      <trkpt lat="36.4867660" lon="-6.1141270">
        <ele>12.6</ele>
        <time>2023-01-28T08:40:34Z</time>
      </trkpt>
      <trkpt lat="36.4867730" lon="-6.1141880">
        <ele>12.4</ele>
        <time>2023-01-28T08:40:35Z</time>
      </trkpt>
      <trkpt lat="36.4867780" lon="-6.1142390">
        <ele>12.4</ele>
        <time>2023-01-28T08:40:36Z</time>
      </trkpt>
      <trkpt lat="36.4867940" lon="-6.1142900">
        <ele>12.4</ele>
        <time>2023-01-28T08:40:37Z</time>
      </trkpt>
      <trkpt lat="36.4868120" lon="-6.1143220">
        <ele>12.2</ele>
        <time>2023-01-28T08:40:38Z</time>
      </trkpt>
      <trkpt lat="36.4868500" lon="-6.1143700">
        <ele>12.0</ele>
        <time>2023-01-28T08:40:39Z</time>
      </trkpt>
      <trkpt lat="36.4868830" lon="-6.1144320">
        <ele>11.8</ele>
        <time>2023-01-28T08:40:40Z</time>
      </trkpt>
      <trkpt lat="36.4868900" lon="-6.1144500">
        <ele>11.8</ele>
        <time>2023-01-28T08:40:41Z</time>
      </trkpt>
      <trkpt lat="36.4869030" lon="-6.1144850">
        <ele>11.6</ele>
        <time>2023-01-28T08:40:42Z</time>
      </trkpt>
      <trkpt lat="36.4869260" lon="-6.1145400">
        <ele>11.6</ele>
        <time>2023-01-28T08:40:43Z</time>
      </trkpt>
      <trkpt lat="36.4869470" lon="-6.1145680">
        <ele>11.6</ele>
        <time>2023-01-28T08:40:44Z</time>
      </trkpt>
      <trkpt lat="36.4869620" lon="-6.1146000">
        <ele>11.6</ele>
        <time>2023-01-28T08:40:45Z</time>
      </trkpt>
      <trkpt lat="36.4869670" lon="-6.1146330">
        <ele>11.6</ele>
        <time>2023-01-28T08:40:46Z</time>
      </trkpt>
      <trkpt lat="36.4869860" lon="-6.1147240">
        <ele>11.4</ele>
        <time>2023-01-28T08:40:47Z</time>
      </trkpt>
      <trkpt lat="36.4869840" lon="-6.1147990">
        <ele>11.2</ele>
        <time>2023-01-28T08:40:48Z</time>
      </trkpt>
      <trkpt lat="36.4869910" lon="-6.1148960">
        <ele>11.2</ele>
        <time>2023-01-28T08:40:49Z</time>
      </trkpt>
      <trkpt lat="36.4870150" lon="-6.1150240">
        <ele>11.2</ele>
        <time>2023-01-28T08:40:50Z</time>
      </trkpt>
      <trkpt lat="36.4870190" lon="-6.1150760">
        <ele>11.0</ele>
        <time>2023-01-28T08:40:51Z</time>
      </trkpt>
      <trkpt lat="36.4870320" lon="-6.1151610">
        <ele>11.0</ele>
        <time>2023-01-28T08:40:52Z</time>
      </trkpt>
      <trkpt lat="36.4870360" lon="-6.1152080">
        <ele>10.8</ele>
        <time>2023-01-28T08:40:53Z</time>
      </trkpt>
      <trkpt lat="36.4870470" lon="-6.1152780">
        <ele>10.8</ele>
        <time>2023-01-28T08:40:54Z</time>
      </trkpt>
      <trkpt lat="36.4870410" lon="-6.1153370">
        <ele>10.6</ele>
        <time>2023-01-28T08:40:55Z</time>
      </trkpt>
      <trkpt lat="36.4870590" lon="-6.1154830">
        <ele>10.6</ele>
        <time>2023-01-28T08:40:56Z</time>
      </trkpt>
      <trkpt lat="36.4870590" lon="-6.1154830">
        <ele>10.4</ele>
        <time>2023-01-28T08:40:57Z</time>
      </trkpt>
      <trkpt lat="36.4870600" lon="-6.1155380">
        <ele>10.4</ele>
        <time>2023-01-28T08:40:58Z</time>
      </trkpt>
      <trkpt lat="36.4870660" lon="-6.1155980">
        <ele>10.4</ele>
        <time>2023-01-28T08:40:59Z</time>
      </trkpt>
      <trkpt lat="36.4870590" lon="-6.1156590">
        <ele>10.4</ele>
        <time>2023-01-28T08:41:00Z</time>
      </trkpt>
      <trkpt lat="36.4870270" lon="-6.1157340">
        <ele>10.2</ele>
        <time>2023-01-28T08:41:01Z</time>
      </trkpt>
      <trkpt lat="36.4870270" lon="-6.1157340">
        <ele>10.0</ele>
        <time>2023-01-28T08:41:02Z</time>
      </trkpt>
      <trkpt lat="36.4870160" lon="-6.1157880">
        <ele>9.8</ele>
        <time>2023-01-28T08:41:03Z</time>
      </trkpt>
      <trkpt lat="36.4870280" lon="-6.1158720">
        <ele>9.6</ele>
        <time>2023-01-28T08:41:04Z</time>
      </trkpt>
      <trkpt lat="36.4870250" lon="-6.1159390">
        <ele>9.6</ele>
        <time>2023-01-28T08:41:05Z</time>
      </trkpt>
      <trkpt lat="36.4870160" lon="-6.1160040">
        <ele>9.4</ele>
        <time>2023-01-28T08:41:06Z</time>
      </trkpt>
      <trkpt lat="36.4870120" lon="-6.1161250">
        <ele>9.4</ele>
        <time>2023-01-28T08:41:07Z</time>
      </trkpt>
      <trkpt lat="36.4870000" lon="-6.1161750">
        <ele>9.4</ele>
        <time>2023-01-28T08:41:08Z</time>
      </trkpt>
      <trkpt lat="36.4869960" lon="-6.1162320">
        <ele>9.2</ele>
        <time>2023-01-28T08:41:09Z</time>
      </trkpt>
      <trkpt lat="36.4869780" lon="-6.1162900">
        <ele>9.2</ele>
        <time>2023-01-28T08:41:10Z</time>
      </trkpt>
      <trkpt lat="36.4869650" lon="-6.1163250">
        <ele>9.0</ele>
        <time>2023-01-28T08:41:11Z</time>
      </trkpt>
      <trkpt lat="36.4869580" lon="-6.1163580">
        <ele>9.0</ele>
        <time>2023-01-28T08:41:12Z</time>
      </trkpt>
      <trkpt lat="36.4869550" lon="-6.1164230">
        <ele>8.8</ele>
        <time>2023-01-28T08:41:13Z</time>
      </trkpt>
      <trkpt lat="36.4869550" lon="-6.1164590">
        <ele>8.8</ele>
        <time>2023-01-28T08:41:14Z</time>
      </trkpt>
      <trkpt lat="36.4869520" lon="-6.1164890">
        <ele>8.8</ele>
        <time>2023-01-28T08:41:15Z</time>
      </trkpt>
      <trkpt lat="36.4869500" lon="-6.1165090">
        <ele>8.8</ele>
        <time>2023-01-28T08:41:16Z</time>
      </trkpt>
      <trkpt lat="36.4869570" lon="-6.1165450">
        <ele>8.8</ele>
        <time>2023-01-28T08:41:17Z</time>
      </trkpt>
      <trkpt lat="36.4869590" lon="-6.1165780">
        <ele>8.8</ele>
        <time>2023-01-28T08:41:18Z</time>
      </trkpt>
      <trkpt lat="36.4869760" lon="-6.1166170">
        <ele>8.8</ele>
        <time>2023-01-28T08:41:19Z</time>
      </trkpt>
      <trkpt lat="36.4869860" lon="-6.1166480">
        <ele>8.8</ele>
        <time>2023-01-28T08:41:20Z</time>
      </trkpt>
      <trkpt lat="36.4869900" lon="-6.1166760">
        <ele>8.8</ele>
        <time>2023-01-28T08:41:21Z</time>
      </trkpt>
      <trkpt lat="36.4869950" lon="-6.1167540">
        <ele>8.8</ele>
        <time>2023-01-28T08:41:22Z</time>
      </trkpt>
      <trkpt lat="36.4870040" lon="-6.1167660">
        <ele>8.6</ele>
        <time>2023-01-28T08:41:23Z</time>
      </trkpt>
      <trkpt lat="36.4869770" lon="-6.1167720">
        <ele>8.6</ele>
        <time>2023-01-28T08:41:24Z</time>
      </trkpt>
      <trkpt lat="36.4869460" lon="-6.1167750">
        <ele>8.6</ele>
        <time>2023-01-28T08:41:25Z</time>
      </trkpt>
      <trkpt lat="36.4869460" lon="-6.1167750">
        <ele>8.6</ele>
        <time>2023-01-28T08:41:26Z</time>
      </trkpt>
      <trkpt lat="36.4869270" lon="-6.1167710">
        <ele>8.6</ele>
        <time>2023-01-28T08:41:27Z</time>
      </trkpt>
      <trkpt lat="36.4868960" lon="-6.1167670">
        <ele>8.6</ele>
        <time>2023-01-28T08:41:28Z</time>
      </trkpt>
      <trkpt lat="36.4868960" lon="-6.1167670">
        <ele>8.6</ele>
        <time>2023-01-28T08:41:29Z</time>
      </trkpt>
      <trkpt lat="36.4868710" lon="-6.1167390">
        <ele>8.6</ele>
        <time>2023-01-28T08:41:30Z</time>
      </trkpt>
      <trkpt lat="36.4868600" lon="-6.1167360">
        <ele>8.6</ele>
        <time>2023-01-28T08:41:31Z</time>
      </trkpt>
      <trkpt lat="36.4868430" lon="-6.1167290">
        <ele>8.4</ele>
        <time>2023-01-28T08:41:32Z</time>
      </trkpt>
      <trkpt lat="36.4868220" lon="-6.1166980">
        <ele>8.4</ele>
        <time>2023-01-28T08:41:33Z</time>
      </trkpt>
      <trkpt lat="36.4868030" lon="-6.1166910">
        <ele>8.2</ele>
        <time>2023-01-28T08:41:34Z</time>
      </trkpt>
      <trkpt lat="36.4867630" lon="-6.1166600">
        <ele>8.2</ele>
        <time>2023-01-28T08:41:35Z</time>
      </trkpt>
      <trkpt lat="36.4867630" lon="-6.1166600">
        <ele>8.2</ele>
        <time>2023-01-28T08:41:36Z</time>
      </trkpt>
      <trkpt lat="36.4867500" lon="-6.1166380">
        <ele>8.2</ele>
        <time>2023-01-28T08:41:37Z</time>
      </trkpt>
      <trkpt lat="36.4867380" lon="-6.1166190">
        <ele>8.4</ele>
        <time>2023-01-28T08:41:38Z</time>
      </trkpt>
      <trkpt lat="36.4867230" lon="-6.1166350">
        <ele>8.4</ele>
        <time>2023-01-28T08:41:39Z</time>
      </trkpt>
      <trkpt lat="36.4867230" lon="-6.1166620">
        <ele>8.2</ele>
        <time>2023-01-28T08:41:40Z</time>
      </trkpt>
      <trkpt lat="36.4867020" lon="-6.1166620">
        <ele>8.2</ele>
        <time>2023-01-28T08:41:41Z</time>
      </trkpt>
      <trkpt lat="36.4866740" lon="-6.1166530">
        <ele>8.2</ele>
        <time>2023-01-28T08:41:42Z</time>
      </trkpt>
      <trkpt lat="36.4866380" lon="-6.1166330">
        <ele>8.0</ele>
        <time>2023-01-28T08:41:43Z</time>
      </trkpt>
      <trkpt lat="36.4866160" lon="-6.1166320">
        <ele>8.0</ele>
        <time>2023-01-28T08:41:44Z</time>
      </trkpt>
      <trkpt lat="36.4865840" lon="-6.1166220">
        <ele>8.0</ele>
        <time>2023-01-28T08:41:45Z</time>
      </trkpt>
      <trkpt lat="36.4865490" lon="-6.1165940">
        <ele>8.0</ele>
        <time>2023-01-28T08:41:46Z</time>
      </trkpt>
      <trkpt lat="36.4865150" lon="-6.1165610">
        <ele>8.0</ele>
        <time>2023-01-28T08:41:47Z</time>
      </trkpt>
      <trkpt lat="36.4864820" lon="-6.1165530">
        <ele>8.0</ele>
        <time>2023-01-28T08:41:48Z</time>
      </trkpt>
      <trkpt lat="36.4864540" lon="-6.1165490">
        <ele>8.0</ele>
        <time>2023-01-28T08:41:49Z</time>
      </trkpt>
      <trkpt lat="36.4863790" lon="-6.1164930">
        <ele>7.8</ele>
        <time>2023-01-28T08:41:50Z</time>
      </trkpt>
      <trkpt lat="36.4863790" lon="-6.1164930">
        <ele>7.8</ele>
        <time>2023-01-28T08:41:51Z</time>
      </trkpt>
      <trkpt lat="36.4863440" lon="-6.1164930">
        <ele>7.8</ele>
        <time>2023-01-28T08:41:52Z</time>
      </trkpt>
      <trkpt lat="36.4863150" lon="-6.1164780">
        <ele>7.6</ele>
        <time>2023-01-28T08:41:53Z</time>
      </trkpt>
      <trkpt lat="36.4862820" lon="-6.1164550">
        <ele>7.6</ele>
        <time>2023-01-28T08:41:54Z</time>
      </trkpt>
      <trkpt lat="36.4862050" lon="-6.1164130">
        <ele>7.6</ele>
        <time>2023-01-28T08:41:55Z</time>
      </trkpt>
      <trkpt lat="36.4862050" lon="-6.1164130">
        <ele>7.4</ele>
        <time>2023-01-28T08:41:56Z</time>
      </trkpt>
      <trkpt lat="36.4861680" lon="-6.1164240">
        <ele>7.4</ele>
        <time>2023-01-28T08:41:57Z</time>
      </trkpt>
      <trkpt lat="36.4860830" lon="-6.1163690">
        <ele>7.2</ele>
        <time>2023-01-28T08:41:58Z</time>
      </trkpt>
      <trkpt lat="36.4860830" lon="-6.1163690">
        <ele>7.2</ele>
        <time>2023-01-28T08:41:59Z</time>
      </trkpt>
      <trkpt lat="36.4860560" lon="-6.1163760">
        <ele>7.2</ele>
        <time>2023-01-28T08:42:00Z</time>
      </trkpt>
      <trkpt lat="36.4860190" lon="-6.1163400">
        <ele>7.0</ele>
        <time>2023-01-28T08:42:01Z</time>
      </trkpt>
      <trkpt lat="36.4859240" lon="-6.1162940">
        <ele>7.0</ele>
        <time>2023-01-28T08:42:02Z</time>
      </trkpt>
      <trkpt lat="36.4859240" lon="-6.1162940">
        <ele>7.0</ele>
        <time>2023-01-28T08:42:03Z</time>
      </trkpt>
      <trkpt lat="36.4858950" lon="-6.1163040">
        <ele>7.0</ele>
        <time>2023-01-28T08:42:04Z</time>
      </trkpt>
      <trkpt lat="36.4858490" lon="-6.1162930">
        <ele>6.8</ele>
        <time>2023-01-28T08:42:05Z</time>
      </trkpt>
      <trkpt lat="36.4858140" lon="-6.1163030">
        <ele>6.6</ele>
        <time>2023-01-28T08:42:06Z</time>
      </trkpt>
      <trkpt lat="36.4857270" lon="-6.1163220">
        <ele>6.4</ele>
        <time>2023-01-28T08:42:07Z</time>
      </trkpt>
      <trkpt lat="36.4857270" lon="-6.1163220">
        <ele>6.4</ele>
        <time>2023-01-28T08:42:08Z</time>
      </trkpt>
      <trkpt lat="36.4856800" lon="-6.1163060">
        <ele>6.4</ele>
        <time>2023-01-28T08:42:09Z</time>
      </trkpt>
      <trkpt lat="36.4856390" lon="-6.1163060">
        <ele>6.4</ele>
        <time>2023-01-28T08:42:10Z</time>
      </trkpt>
      <trkpt lat="36.4856080" lon="-6.1163160">
        <ele>6.2</ele>
        <time>2023-01-28T08:42:11Z</time>
      </trkpt>
      <trkpt lat="36.4855440" lon="-6.1163320">
        <ele>5.8</ele>
        <time>2023-01-28T08:42:12Z</time>
      </trkpt>
      <trkpt lat="36.4855170" lon="-6.1163480">
        <ele>5.6</ele>
        <time>2023-01-28T08:42:13Z</time>
      </trkpt>
      <trkpt lat="36.4854800" lon="-6.1163460">
        <ele>5.6</ele>
        <time>2023-01-28T08:42:14Z</time>
      </trkpt>
      <trkpt lat="36.4854800" lon="-6.1163460">
        <ele>5.6</ele>
        <time>2023-01-28T08:42:15Z</time>
      </trkpt>
      <trkpt lat="36.4854360" lon="-6.1163390">
        <ele>5.6</ele>
        <time>2023-01-28T08:42:16Z</time>
      </trkpt>
      <trkpt lat="36.4853880" lon="-6.1163030">
        <ele>5.6</ele>
        <time>2023-01-28T08:42:17Z</time>
      </trkpt>
      <trkpt lat="36.4853090" lon="-6.1162450">
        <ele>5.6</ele>
        <time>2023-01-28T08:42:18Z</time>
      </trkpt>
      <trkpt lat="36.4853090" lon="-6.1162450">
        <ele>5.6</ele>
        <time>2023-01-28T08:42:19Z</time>
      </trkpt>
      <trkpt lat="36.4852670" lon="-6.1161960">
        <ele>5.6</ele>
        <time>2023-01-28T08:42:20Z</time>
      </trkpt>
      <trkpt lat="36.4852350" lon="-6.1161990">
        <ele>5.4</ele>
        <time>2023-01-28T08:42:21Z</time>
      </trkpt>
      <trkpt lat="36.4852060" lon="-6.1162010">
        <ele>5.4</ele>
        <time>2023-01-28T08:42:22Z</time>
      </trkpt>
      <trkpt lat="36.4851270" lon="-6.1161680">
        <ele>5.2</ele>
        <time>2023-01-28T08:42:23Z</time>
      </trkpt>
      <trkpt lat="36.4851270" lon="-6.1161680">
        <ele>5.0</ele>
        <time>2023-01-28T08:42:24Z</time>
      </trkpt>
      <trkpt lat="36.4850690" lon="-6.1161270">
        <ele>4.8</ele>
        <time>2023-01-28T08:42:25Z</time>
      </trkpt>
      <trkpt lat="36.4849900" lon="-6.1161370">
        <ele>4.6</ele>
        <time>2023-01-28T08:42:26Z</time>
      </trkpt>
      <trkpt lat="36.4849900" lon="-6.1161370">
        <ele>4.6</ele>
        <time>2023-01-28T08:42:27Z</time>
      </trkpt>
      <trkpt lat="36.4849390" lon="-6.1161430">
        <ele>4.4</ele>
        <time>2023-01-28T08:42:28Z</time>
      </trkpt>
      <trkpt lat="36.4848920" lon="-6.1161420">
        <ele>4.2</ele>
        <time>2023-01-28T08:42:29Z</time>
      </trkpt>
      <trkpt lat="36.4848410" lon="-6.1161510">
        <ele>4.0</ele>
        <time>2023-01-28T08:42:30Z</time>
      </trkpt>
      <trkpt lat="36.4847930" lon="-6.1161650">
        <ele>3.8</ele>
        <time>2023-01-28T08:42:31Z</time>
      </trkpt>
      <trkpt lat="36.4847590" lon="-6.1162020">
        <ele>3.6</ele>
        <time>2023-01-28T08:42:32Z</time>
      </trkpt>
      <trkpt lat="36.4846710" lon="-6.1162570">
        <ele>3.4</ele>
        <time>2023-01-28T08:42:33Z</time>
      </trkpt>
      <trkpt lat="36.4846710" lon="-6.1162570">
        <ele>3.2</ele>
        <time>2023-01-28T08:42:34Z</time>
      </trkpt>
      <trkpt lat="36.4846350" lon="-6.1162740">
        <ele>3.2</ele>
        <time>2023-01-28T08:42:35Z</time>
      </trkpt>
      <trkpt lat="36.4846040" lon="-6.1163040">
        <ele>3.0</ele>
        <time>2023-01-28T08:42:36Z</time>
      </trkpt>
      <trkpt lat="36.4845520" lon="-6.1163360">
        <ele>3.0</ele>
        <time>2023-01-28T08:42:37Z</time>
      </trkpt>
      <trkpt lat="36.4845140" lon="-6.1163370">
        <ele>2.8</ele>
        <time>2023-01-28T08:42:38Z</time>
      </trkpt>
      <trkpt lat="36.4845140" lon="-6.1163370">
        <ele>2.6</ele>
        <time>2023-01-28T08:42:39Z</time>
      </trkpt>
      <trkpt lat="36.4844900" lon="-6.1163780">
        <ele>2.6</ele>
        <time>2023-01-28T08:42:40Z</time>
      </trkpt>
      <trkpt lat="36.4844320" lon="-6.1163770">
        <ele>2.6</ele>
        <time>2023-01-28T08:42:41Z</time>
      </trkpt>
      <trkpt lat="36.4843790" lon="-6.1163830">
        <ele>2.6</ele>
        <time>2023-01-28T08:42:42Z</time>
      </trkpt>
      <trkpt lat="36.4843120" lon="-6.1164580">
        <ele>2.4</ele>
        <time>2023-01-28T08:42:43Z</time>
      </trkpt>
      <trkpt lat="36.4843120" lon="-6.1164580">
        <ele>2.2</ele>
        <time>2023-01-28T08:42:44Z</time>
      </trkpt>
      <trkpt lat="36.4842800" lon="-6.1164820">
        <ele>2.2</ele>
        <time>2023-01-28T08:42:45Z</time>
      </trkpt>
      <trkpt lat="36.4842380" lon="-6.1164880">
        <ele>2.2</ele>
        <time>2023-01-28T08:42:46Z</time>
      </trkpt>
      <trkpt lat="36.4841820" lon="-6.1164870">
        <ele>2.2</ele>
        <time>2023-01-28T08:42:47Z</time>
      </trkpt>
      <trkpt lat="36.4840880" lon="-6.1165050">
        <ele>2.0</ele>
        <time>2023-01-28T08:42:48Z</time>
      </trkpt>
      <trkpt lat="36.4840290" lon="-6.1165090">
        <ele>2.0</ele>
        <time>2023-01-28T08:42:49Z</time>
      </trkpt>
      <trkpt lat="36.4839690" lon="-6.1165170">
        <ele>2.0</ele>
        <time>2023-01-28T08:42:50Z</time>
      </trkpt>
      <trkpt lat="36.4839200" lon="-6.1165670">
        <ele>2.0</ele>
        <time>2023-01-28T08:42:51Z</time>
      </trkpt>
      <trkpt lat="36.4839200" lon="-6.1165670">
        <ele>2.0</ele>
        <time>2023-01-28T08:42:52Z</time>
      </trkpt>
      <trkpt lat="36.4838350" lon="-6.1166110">
        <ele>2.0</ele>
        <time>2023-01-28T08:42:53Z</time>
      </trkpt>
      <trkpt lat="36.4837950" lon="-6.1166190">
        <ele>2.0</ele>
        <time>2023-01-28T08:42:54Z</time>
      </trkpt>
      <trkpt lat="36.4837950" lon="-6.1166190">
        <ele>2.2</ele>
        <time>2023-01-28T08:42:55Z</time>
      </trkpt>
      <trkpt lat="36.4837630" lon="-6.1166350">
        <ele>2.2</ele>
        <time>2023-01-28T08:42:56Z</time>
      </trkpt>
      <trkpt lat="36.4837240" lon="-6.1166600">
        <ele>2.4</ele>
        <time>2023-01-28T08:42:57Z</time>
      </trkpt>
      <trkpt lat="36.4836550" lon="-6.1166600">
        <ele>2.4</ele>
        <time>2023-01-28T08:42:58Z</time>
      </trkpt>
      <trkpt lat="36.4836550" lon="-6.1166600">
        <ele>2.4</ele>
        <time>2023-01-28T08:42:59Z</time>
      </trkpt>
      <trkpt lat="36.4836080" lon="-6.1166980">
        <ele>2.6</ele>
        <time>2023-01-28T08:43:00Z</time>
      </trkpt>
      <trkpt lat="36.4835820" lon="-6.1167110">
        <ele>2.8</ele>
        <time>2023-01-28T08:43:01Z</time>
      </trkpt>
      <trkpt lat="36.4835820" lon="-6.1167110">
        <ele>2.6</ele>
        <time>2023-01-28T08:43:02Z</time>
      </trkpt>
      <trkpt lat="36.4835230" lon="-6.1167250">
        <ele>2.4</ele>
        <time>2023-01-28T08:43:03Z</time>
      </trkpt>
      <trkpt lat="36.4835230" lon="-6.1167250">
        <ele>2.2</ele>
        <time>2023-01-28T08:43:04Z</time>
      </trkpt>
      <trkpt lat="36.4834710" lon="-6.1167690">
        <ele>2.0</ele>
        <time>2023-01-28T08:43:05Z</time>
      </trkpt>
      <trkpt lat="36.4834710" lon="-6.1167690">
        <ele>1.8</ele>
        <time>2023-01-28T08:43:06Z</time>
      </trkpt>
      <trkpt lat="36.4834410" lon="-6.1167700">
        <ele>1.6</ele>
        <time>2023-01-28T08:43:07Z</time>
      </trkpt>
      <trkpt lat="36.4834000" lon="-6.1167490">
        <ele>1.6</ele>
        <time>2023-01-28T08:43:08Z</time>
      </trkpt>
      <trkpt lat="36.4834000" lon="-6.1167490">
        <ele>1.6</ele>
        <time>2023-01-28T08:43:09Z</time>
      </trkpt>
      <trkpt lat="36.4833820" lon="-6.1167640">
        <ele>3.0</ele>
        <time>2023-01-28T08:43:10Z</time>
      </trkpt>
      <trkpt lat="36.4833870" lon="-6.1167750">
        <ele>1.6</ele>
        <time>2023-01-28T08:43:11Z</time>
      </trkpt>
      <trkpt lat="36.4833760" lon="-6.1167660">
        <ele>1.6</ele>
        <time>2023-01-28T08:43:12Z</time>
      </trkpt>
      <trkpt lat="36.4833710" lon="-6.1167770">
        <ele>1.6</ele>
        <time>2023-01-28T08:43:13Z</time>
      </trkpt>
      <trkpt lat="36.4833710" lon="-6.1167770">
        <ele>1.6</ele>
        <time>2023-01-28T08:43:14Z</time>
      </trkpt>
      <trkpt lat="36.4833600" lon="-6.1167680">
        <ele>1.4</ele>
        <time>2023-01-28T08:43:15Z</time>
      </trkpt>
      <trkpt lat="36.4833510" lon="-6.1167610">
        <ele>1.0</ele>
        <time>2023-01-28T08:43:16Z</time>
      </trkpt>
      <trkpt lat="36.4833370" lon="-6.1167520">
        <ele>1.4</ele>
        <time>2023-01-28T08:43:17Z</time>
      </trkpt>
      <trkpt lat="36.4833370" lon="-6.1167520">
        <ele>1.2</ele>
        <time>2023-01-28T08:43:18Z</time>
      </trkpt>
      <trkpt lat="36.4833400" lon="-6.1167740">
        <ele>0.8</ele>
        <time>2023-01-28T08:43:19Z</time>
      </trkpt>
      <trkpt lat="36.4833460" lon="-6.1167960">
        <ele>0.8</ele>
        <time>2023-01-28T08:43:20Z</time>
      </trkpt>
      <trkpt lat="36.4833460" lon="-6.1167960">
        <ele>1.8</ele>
        <time>2023-01-28T08:43:21Z</time>
      </trkpt>
      <trkpt lat="36.4833380" lon="-6.1168000">
        <ele>1.6</ele>
        <time>2023-01-28T08:43:22Z</time>
      </trkpt>
      <trkpt lat="36.4833380" lon="-6.1167870">
        <ele>0.8</ele>
        <time>2023-01-28T08:43:23Z</time>
      </trkpt>
      <trkpt lat="36.4833300" lon="-6.1167810">
        <ele>0.8</ele>
        <time>2023-01-28T08:43:24Z</time>
      </trkpt>
      <trkpt lat="36.4833230" lon="-6.1167890">
        <ele>0.8</ele>
        <time>2023-01-28T08:43:25Z</time>
      </trkpt>
      <trkpt lat="36.4833230" lon="-6.1167890">
        <ele>2.0</ele>
        <time>2023-01-28T08:43:26Z</time>
      </trkpt>
      <trkpt lat="36.4833160" lon="-6.1167680">
        <ele>1.8</ele>
        <time>2023-01-28T08:43:27Z</time>
      </trkpt>
      <trkpt lat="36.4832990" lon="-6.1167980">
        <ele>2.0</ele>
        <time>2023-01-28T08:43:28Z</time>
      </trkpt>
      <trkpt lat="36.4832920" lon="-6.1167810">
        <ele>2.2</ele>
        <time>2023-01-28T08:43:29Z</time>
      </trkpt>
      <trkpt lat="36.4832770" lon="-6.1167850">
        <ele>2.4</ele>
        <time>2023-01-28T08:43:30Z</time>
      </trkpt>
      <trkpt lat="36.4832660" lon="-6.1167830">
        <ele>2.6</ele>
        <time>2023-01-28T08:43:31Z</time>
      </trkpt>
      <trkpt lat="36.4832660" lon="-6.1167830">
        <ele>2.8</ele>
        <time>2023-01-28T08:43:32Z</time>
      </trkpt>
      <trkpt lat="36.4832730" lon="-6.1168340">
        <ele>3.0</ele>
        <time>2023-01-28T08:43:33Z</time>
      </trkpt>
      <trkpt lat="36.4832710" lon="-6.1168670">
        <ele>3.0</ele>
        <time>2023-01-28T08:43:34Z</time>
      </trkpt>
      <trkpt lat="36.4832710" lon="-6.1168670">
        <ele>3.0</ele>
        <time>2023-01-28T08:43:35Z</time>
      </trkpt>
      <trkpt lat="36.4832640" lon="-6.1168810">
        <ele>3.2</ele>
        <time>2023-01-28T08:43:36Z</time>
      </trkpt>
      <trkpt lat="36.4832640" lon="-6.1168810">
        <ele>3.2</ele>
        <time>2023-01-28T08:43:37Z</time>
      </trkpt>
      <trkpt lat="36.4832520" lon="-6.1168770">
        <ele>3.2</ele>
        <time>2023-01-28T08:43:38Z</time>
      </trkpt>
      <trkpt lat="36.4832370" lon="-6.1168630">
        <ele>3.2</ele>
        <time>2023-01-28T08:43:39Z</time>
      </trkpt>
      <trkpt lat="36.4832210" lon="-6.1168600">
        <ele>3.2</ele>
        <time>2023-01-28T08:43:40Z</time>
      </trkpt>
      <trkpt lat="36.4832210" lon="-6.1168600">
        <ele>3.2</ele>
        <time>2023-01-28T08:43:41Z</time>
      </trkpt>
      <trkpt lat="36.4831870" lon="-6.1168480">
        <ele>3.4</ele>
        <time>2023-01-28T08:43:42Z</time>
      </trkpt>
      <trkpt lat="36.4831710" lon="-6.1168400">
        <ele>3.4</ele>
        <time>2023-01-28T08:43:43Z</time>
      </trkpt>
      <trkpt lat="36.4831710" lon="-6.1168400">
        <ele>3.4</ele>
        <time>2023-01-28T08:43:44Z</time>
      </trkpt>
      <trkpt lat="36.4830990" lon="-6.1167850">
        <ele>3.4</ele>
        <time>2023-01-28T08:43:45Z</time>
      </trkpt>
      <trkpt lat="36.4830710" lon="-6.1167760">
        <ele>3.4</ele>
        <time>2023-01-28T08:43:46Z</time>
      </trkpt>
      <trkpt lat="36.4830500" lon="-6.1167870">
        <ele>3.6</ele>
        <time>2023-01-28T08:43:47Z</time>
      </trkpt>
      <trkpt lat="36.4830250" lon="-6.1167810">
        <ele>3.6</ele>
        <time>2023-01-28T08:43:48Z</time>
      </trkpt>
      <trkpt lat="36.4830020" lon="-6.1167760">
        <ele>3.8</ele>
        <time>2023-01-28T08:43:49Z</time>
      </trkpt>
      <trkpt lat="36.4829640" lon="-6.1167530">
        <ele>3.8</ele>
        <time>2023-01-28T08:43:50Z</time>
      </trkpt>
      <trkpt lat="36.4829340" lon="-6.1167410">
        <ele>3.6</ele>
        <time>2023-01-28T08:43:51Z</time>
      </trkpt>
      <trkpt lat="36.4829040" lon="-6.1167450">
        <ele>3.6</ele>
        <time>2023-01-28T08:43:52Z</time>
      </trkpt>
      <trkpt lat="36.4828770" lon="-6.1167530">
        <ele>3.6</ele>
        <time>2023-01-28T08:43:53Z</time>
      </trkpt>
      <trkpt lat="36.4828500" lon="-6.1167500">
        <ele>3.8</ele>
        <time>2023-01-28T08:43:54Z</time>
      </trkpt>
      <trkpt lat="36.4828260" lon="-6.1167580">
        <ele>3.8</ele>
        <time>2023-01-28T08:43:55Z</time>
      </trkpt>
      <trkpt lat="36.4828260" lon="-6.1167580">
        <ele>3.8</ele>
        <time>2023-01-28T08:43:56Z</time>
      </trkpt>
      <trkpt lat="36.4827700" lon="-6.1167930">
        <ele>4.0</ele>
        <time>2023-01-28T08:43:57Z</time>
      </trkpt>
      <trkpt lat="36.4827330" lon="-6.1168000">
        <ele>4.0</ele>
        <time>2023-01-28T08:43:58Z</time>
      </trkpt>
      <trkpt lat="36.4826960" lon="-6.1167980">
        <ele>4.0</ele>
        <time>2023-01-28T08:43:59Z</time>
      </trkpt>
      <trkpt lat="36.4826630" lon="-6.1167950">
        <ele>4.0</ele>
        <time>2023-01-28T08:44:00Z</time>
      </trkpt>
      <trkpt lat="36.4826630" lon="-6.1167950">
        <ele>4.0</ele>
        <time>2023-01-28T08:44:01Z</time>
      </trkpt>
      <trkpt lat="36.4825960" lon="-6.1167900">
        <ele>3.8</ele>
        <time>2023-01-28T08:44:02Z</time>
      </trkpt>
      <trkpt lat="36.4825700" lon="-6.1168090">
        <ele>3.8</ele>
        <time>2023-01-28T08:44:03Z</time>
      </trkpt>
      <trkpt lat="36.4825340" lon="-6.1168300">
        <ele>4.0</ele>
        <time>2023-01-28T08:44:04Z</time>
      </trkpt>
      <trkpt lat="36.4825130" lon="-6.1168540">
        <ele>4.0</ele>
        <time>2023-01-28T08:44:05Z</time>
      </trkpt>
      <trkpt lat="36.4824700" lon="-6.1168580">
        <ele>4.0</ele>
        <time>2023-01-28T08:44:06Z</time>
      </trkpt>
      <trkpt lat="36.4824540" lon="-6.1168530">
        <ele>4.2</ele>
        <time>2023-01-28T08:44:07Z</time>
      </trkpt>
      <trkpt lat="36.4824270" lon="-6.1168710">
        <ele>4.2</ele>
        <time>2023-01-28T08:44:08Z</time>
      </trkpt>
      <trkpt lat="36.4823970" lon="-6.1168890">
        <ele>4.2</ele>
        <time>2023-01-28T08:44:09Z</time>
      </trkpt>
      <trkpt lat="36.4823640" lon="-6.1168880">
        <ele>4.4</ele>
        <time>2023-01-28T08:44:10Z</time>
      </trkpt>
      <trkpt lat="36.4823230" lon="-6.1168810">
        <ele>4.4</ele>
        <time>2023-01-28T08:44:11Z</time>
      </trkpt>
      <trkpt lat="36.4822840" lon="-6.1168830">
        <ele>4.6</ele>
        <time>2023-01-28T08:44:12Z</time>
      </trkpt>
      <trkpt lat="36.4822490" lon="-6.1168880">
        <ele>4.6</ele>
        <time>2023-01-28T08:44:13Z</time>
      </trkpt>
      <trkpt lat="36.4822150" lon="-6.1168830">
        <ele>4.8</ele>
        <time>2023-01-28T08:44:14Z</time>
      </trkpt>
      <trkpt lat="36.4821750" lon="-6.1168880">
        <ele>5.0</ele>
        <time>2023-01-28T08:44:15Z</time>
      </trkpt>
      <trkpt lat="36.4821430" lon="-6.1168980">
        <ele>4.8</ele>
        <time>2023-01-28T08:44:16Z</time>
      </trkpt>
      <trkpt lat="36.4821210" lon="-6.1169410">
        <ele>4.6</ele>
        <time>2023-01-28T08:44:17Z</time>
      </trkpt>
      <trkpt lat="36.4820700" lon="-6.1169490">
        <ele>4.6</ele>
        <time>2023-01-28T08:44:18Z</time>
      </trkpt>
      <trkpt lat="36.4820160" lon="-6.1169470">
        <ele>4.6</ele>
        <time>2023-01-28T08:44:19Z</time>
      </trkpt>
      <trkpt lat="36.4819720" lon="-6.1169280">
        <ele>4.6</ele>
        <time>2023-01-28T08:44:20Z</time>
      </trkpt>
      <trkpt lat="36.4819510" lon="-6.1169660">
        <ele>4.6</ele>
        <time>2023-01-28T08:44:21Z</time>
      </trkpt>
      <trkpt lat="36.4819130" lon="-6.1169400">
        <ele>4.6</ele>
        <time>2023-01-28T08:44:22Z</time>
      </trkpt>
      <trkpt lat="36.4818780" lon="-6.1169460">
        <ele>4.8</ele>
        <time>2023-01-28T08:44:23Z</time>
      </trkpt>
      <trkpt lat="36.4818440" lon="-6.1169580">
        <ele>4.8</ele>
        <time>2023-01-28T08:44:24Z</time>
      </trkpt>
      <trkpt lat="36.4818160" lon="-6.1169860">
        <ele>5.0</ele>
        <time>2023-01-28T08:44:25Z</time>
      </trkpt>
      <trkpt lat="36.4817650" lon="-6.1169780">
        <ele>5.0</ele>
        <time>2023-01-28T08:44:26Z</time>
      </trkpt>
      <trkpt lat="36.4817280" lon="-6.1169920">
        <ele>5.0</ele>
        <time>2023-01-28T08:44:27Z</time>
      </trkpt>
      <trkpt lat="36.4816800" lon="-6.1169710">
        <ele>5.0</ele>
        <time>2023-01-28T08:44:28Z</time>
      </trkpt>
      <trkpt lat="36.4816310" lon="-6.1169480">
        <ele>5.0</ele>
        <time>2023-01-28T08:44:29Z</time>
      </trkpt>
      <trkpt lat="36.4815820" lon="-6.1169210">
        <ele>5.2</ele>
        <time>2023-01-28T08:44:30Z</time>
      </trkpt>
      <trkpt lat="36.4815380" lon="-6.1169150">
        <ele>5.2</ele>
        <time>2023-01-28T08:44:31Z</time>
      </trkpt>
      <trkpt lat="36.4815040" lon="-6.1169290">
        <ele>5.2</ele>
        <time>2023-01-28T08:44:32Z</time>
      </trkpt>
      <trkpt lat="36.4814790" lon="-6.1169800">
        <ele>5.2</ele>
        <time>2023-01-28T08:44:33Z</time>
      </trkpt>
      <trkpt lat="36.4814460" lon="-6.1170190">
        <ele>5.2</ele>
        <time>2023-01-28T08:44:34Z</time>
      </trkpt>
      <trkpt lat="36.4813890" lon="-6.1169960">
        <ele>5.4</ele>
        <time>2023-01-28T08:44:35Z</time>
      </trkpt>
      <trkpt lat="36.4813530" lon="-6.1170070">
        <ele>5.4</ele>
        <time>2023-01-28T08:44:36Z</time>
      </trkpt>
      <trkpt lat="36.4813170" lon="-6.1170280">
        <ele>5.6</ele>
        <time>2023-01-28T08:44:37Z</time>
      </trkpt>
      <trkpt lat="36.4812810" lon="-6.1170340">
        <ele>5.6</ele>
        <time>2023-01-28T08:44:38Z</time>
      </trkpt>
      <trkpt lat="36.4812430" lon="-6.1170410">
        <ele>5.6</ele>
        <time>2023-01-28T08:44:39Z</time>
      </trkpt>
      <trkpt lat="36.4812170" lon="-6.1170610">
        <ele>5.8</ele>
        <time>2023-01-28T08:44:40Z</time>
      </trkpt>
      <trkpt lat="36.4811710" lon="-6.1170410">
        <ele>5.8</ele>
        <time>2023-01-28T08:44:41Z</time>
      </trkpt>
      <trkpt lat="36.4811270" lon="-6.1170410">
        <ele>5.8</ele>
        <time>2023-01-28T08:44:42Z</time>
      </trkpt>
      <trkpt lat="36.4810950" lon="-6.1170380">
        <ele>5.8</ele>
        <time>2023-01-28T08:44:43Z</time>
      </trkpt>
      <trkpt lat="36.4810580" lon="-6.1170360">
        <ele>5.8</ele>
        <time>2023-01-28T08:44:44Z</time>
      </trkpt>
      <trkpt lat="36.4810260" lon="-6.1170570">
        <ele>6.0</ele>
        <time>2023-01-28T08:44:45Z</time>
      </trkpt>
      <trkpt lat="36.4809970" lon="-6.1171030">
        <ele>6.0</ele>
        <time>2023-01-28T08:44:46Z</time>
      </trkpt>
      <trkpt lat="36.4809630" lon="-6.1170960">
        <ele>6.0</ele>
        <time>2023-01-28T08:44:47Z</time>
      </trkpt>
      <trkpt lat="36.4809350" lon="-6.1170940">
        <ele>6.2</ele>
        <time>2023-01-28T08:44:48Z</time>
      </trkpt>
      <trkpt lat="36.4809090" lon="-6.1171070">
        <ele>6.2</ele>
        <time>2023-01-28T08:44:49Z</time>
      </trkpt>
      <trkpt lat="36.4808940" lon="-6.1171300">
        <ele>6.2</ele>
        <time>2023-01-28T08:44:50Z</time>
      </trkpt>
      <trkpt lat="36.4808610" lon="-6.1171410">
        <ele>6.4</ele>
        <time>2023-01-28T08:44:51Z</time>
      </trkpt>
      <trkpt lat="36.4808300" lon="-6.1171480">
        <ele>6.6</ele>
        <time>2023-01-28T08:44:52Z</time>
      </trkpt>
      <trkpt lat="36.4807960" lon="-6.1171510">
        <ele>6.6</ele>
        <time>2023-01-28T08:44:53Z</time>
      </trkpt>
      <trkpt lat="36.4807750" lon="-6.1171570">
        <ele>6.8</ele>
        <time>2023-01-28T08:44:54Z</time>
      </trkpt>
      <trkpt lat="36.4807400" lon="-6.1171440">
        <ele>6.8</ele>
        <time>2023-01-28T08:44:55Z</time>
      </trkpt>
      <trkpt lat="36.4807230" lon="-6.1171890">
        <ele>6.8</ele>
        <time>2023-01-28T08:44:56Z</time>
      </trkpt>
      <trkpt lat="36.4806880" lon="-6.1171760">
        <ele>7.0</ele>
        <time>2023-01-28T08:44:57Z</time>
      </trkpt>
      <trkpt lat="36.4806550" lon="-6.1171970">
        <ele>7.0</ele>
        <time>2023-01-28T08:44:58Z</time>
      </trkpt>
      <trkpt lat="36.4806550" lon="-6.1171970">
        <ele>7.0</ele>
        <time>2023-01-28T08:44:59Z</time>
      </trkpt>
      <trkpt lat="36.4806010" lon="-6.1172370">
        <ele>7.0</ele>
        <time>2023-01-28T08:45:00Z</time>
      </trkpt>
      <trkpt lat="36.4805760" lon="-6.1172320">
        <ele>7.0</ele>
        <time>2023-01-28T08:45:01Z</time>
      </trkpt>
      <trkpt lat="36.4805510" lon="-6.1172720">
        <ele>7.0</ele>
        <time>2023-01-28T08:45:02Z</time>
      </trkpt>
      <trkpt lat="36.4805170" lon="-6.1172720">
        <ele>7.2</ele>
        <time>2023-01-28T08:45:03Z</time>
      </trkpt>
      <trkpt lat="36.4804930" lon="-6.1172770">
        <ele>7.4</ele>
        <time>2023-01-28T08:45:04Z</time>
      </trkpt>
      <trkpt lat="36.4804760" lon="-6.1173180">
        <ele>7.6</ele>
        <time>2023-01-28T08:45:05Z</time>
      </trkpt>
      <trkpt lat="36.4804240" lon="-6.1172940">
        <ele>7.8</ele>
        <time>2023-01-28T08:45:06Z</time>
      </trkpt>
      <trkpt lat="36.4804040" lon="-6.1172980">
        <ele>8.0</ele>
        <time>2023-01-28T08:45:07Z</time>
      </trkpt>
      <trkpt lat="36.4803700" lon="-6.1172720">
        <ele>8.2</ele>
        <time>2023-01-28T08:45:08Z</time>
      </trkpt>
      <trkpt lat="36.4803600" lon="-6.1172830">
        <ele>8.6</ele>
        <time>2023-01-28T08:45:09Z</time>
      </trkpt>
      <trkpt lat="36.4803530" lon="-6.1173000">
        <ele>8.8</ele>
        <time>2023-01-28T08:45:10Z</time>
      </trkpt>
      <trkpt lat="36.4803460" lon="-6.1173210">
        <ele>9.0</ele>
        <time>2023-01-28T08:45:11Z</time>
      </trkpt>
      <trkpt lat="36.4803440" lon="-6.1173390">
        <ele>9.2</ele>
        <time>2023-01-28T08:45:12Z</time>
      </trkpt>
      <trkpt lat="36.4803150" lon="-6.1172970">
        <ele>9.4</ele>
        <time>2023-01-28T08:45:13Z</time>
      </trkpt>
      <trkpt lat="36.4803040" lon="-6.1173170">
        <ele>9.6</ele>
        <time>2023-01-28T08:45:14Z</time>
      </trkpt>
      <trkpt lat="36.4802780" lon="-6.1172810">
        <ele>9.8</ele>
        <time>2023-01-28T08:45:15Z</time>
      </trkpt>
      <trkpt lat="36.4802410" lon="-6.1173020">
        <ele>9.8</ele>
        <time>2023-01-28T08:45:16Z</time>
      </trkpt>
      <trkpt lat="36.4802340" lon="-6.1173410">
        <ele>10.0</ele>
        <time>2023-01-28T08:45:17Z</time>
      </trkpt>
      <trkpt lat="36.4802180" lon="-6.1173600">
        <ele>10.0</ele>
        <time>2023-01-28T08:45:18Z</time>
      </trkpt>
      <trkpt lat="36.4801820" lon="-6.1173310">
        <ele>10.2</ele>
        <time>2023-01-28T08:45:19Z</time>
      </trkpt>
      <trkpt lat="36.4801530" lon="-6.1173010">
        <ele>10.2</ele>
        <time>2023-01-28T08:45:20Z</time>
      </trkpt>
      <trkpt lat="36.4801270" lon="-6.1172770">
        <ele>10.4</ele>
        <time>2023-01-28T08:45:21Z</time>
      </trkpt>
      <trkpt lat="36.4800810" lon="-6.1172470">
        <ele>10.6</ele>
        <time>2023-01-28T08:45:22Z</time>
      </trkpt>
      <trkpt lat="36.4800620" lon="-6.1172480">
        <ele>10.8</ele>
        <time>2023-01-28T08:45:23Z</time>
      </trkpt>
      <trkpt lat="36.4800560" lon="-6.1172600">
        <ele>11.0</ele>
        <time>2023-01-28T08:45:24Z</time>
      </trkpt>
      <trkpt lat="36.4800330" lon="-6.1172500">
        <ele>11.0</ele>
        <time>2023-01-28T08:45:25Z</time>
      </trkpt>
      <trkpt lat="36.4800150" lon="-6.1172490">
        <ele>11.2</ele>
        <time>2023-01-28T08:45:26Z</time>
      </trkpt>
      <trkpt lat="36.4800030" lon="-6.1172650">
        <ele>11.4</ele>
        <time>2023-01-28T08:45:27Z</time>
      </trkpt>
      <trkpt lat="36.4799800" lon="-6.1172500">
        <ele>11.4</ele>
        <time>2023-01-28T08:45:28Z</time>
      </trkpt>
      <trkpt lat="36.4799780" lon="-6.1172720">
        <ele>11.6</ele>
        <time>2023-01-28T08:45:29Z</time>
      </trkpt>
      <trkpt lat="36.4799440" lon="-6.1172220">
        <ele>11.6</ele>
        <time>2023-01-28T08:45:30Z</time>
      </trkpt>
      <trkpt lat="36.4799040" lon="-6.1171850">
        <ele>11.6</ele>
        <time>2023-01-28T08:45:31Z</time>
      </trkpt>
      <trkpt lat="36.4798880" lon="-6.1171910">
        <ele>11.6</ele>
        <time>2023-01-28T08:45:32Z</time>
      </trkpt>
      <trkpt lat="36.4798520" lon="-6.1171600">
        <ele>11.6</ele>
        <time>2023-01-28T08:45:33Z</time>
      </trkpt>
      <trkpt lat="36.4798320" lon="-6.1171810">
        <ele>11.6</ele>
        <time>2023-01-28T08:45:34Z</time>
      </trkpt>
      <trkpt lat="36.4798100" lon="-6.1171790">
        <ele>11.6</ele>
        <time>2023-01-28T08:45:35Z</time>
      </trkpt>
      <trkpt lat="36.4797770" lon="-6.1171660">
        <ele>11.6</ele>
        <time>2023-01-28T08:45:36Z</time>
      </trkpt>
      <trkpt lat="36.4797590" lon="-6.1171690">
        <ele>11.6</ele>
        <time>2023-01-28T08:45:37Z</time>
      </trkpt>
      <trkpt lat="36.4797470" lon="-6.1172200">
        <ele>11.4</ele>
        <time>2023-01-28T08:45:38Z</time>
      </trkpt>
      <trkpt lat="36.4797100" lon="-6.1172030">
        <ele>11.6</ele>
        <time>2023-01-28T08:45:39Z</time>
      </trkpt>
      <trkpt lat="36.4796610" lon="-6.1171740">
        <ele>11.6</ele>
        <time>2023-01-28T08:45:40Z</time>
      </trkpt>
      <trkpt lat="36.4796380" lon="-6.1171800">
        <ele>11.6</ele>
        <time>2023-01-28T08:45:41Z</time>
      </trkpt>
      <trkpt lat="36.4795980" lon="-6.1171700">
        <ele>11.6</ele>
        <time>2023-01-28T08:45:42Z</time>
      </trkpt>
      <trkpt lat="36.4795700" lon="-6.1171560">
        <ele>11.8</ele>
        <time>2023-01-28T08:45:43Z</time>
      </trkpt>
      <trkpt lat="36.4795400" lon="-6.1171550">
        <ele>11.8</ele>
        <time>2023-01-28T08:45:44Z</time>
      </trkpt>
      <trkpt lat="36.4795120" lon="-6.1171640">
        <ele>11.6</ele>
        <time>2023-01-28T08:45:45Z</time>
      </trkpt>
      <trkpt lat="36.4794830" lon="-6.1171600">
        <ele>11.8</ele>
        <time>2023-01-28T08:45:46Z</time>
      </trkpt>
      <trkpt lat="36.4794580" lon="-6.1171470">
        <ele>11.8</ele>
        <time>2023-01-28T08:45:47Z</time>
      </trkpt>
      <trkpt lat="36.4794150" lon="-6.1171270">
        <ele>11.8</ele>
        <time>2023-01-28T08:45:48Z</time>
      </trkpt>
      <trkpt lat="36.4793840" lon="-6.1171260">
        <ele>11.8</ele>
        <time>2023-01-28T08:45:49Z</time>
      </trkpt>
      <trkpt lat="36.4793540" lon="-6.1171230">
        <ele>11.8</ele>
        <time>2023-01-28T08:45:50Z</time>
      </trkpt>
      <trkpt lat="36.4793250" lon="-6.1171280">
        <ele>11.8</ele>
        <time>2023-01-28T08:45:51Z</time>
      </trkpt>
      <trkpt lat="36.4793040" lon="-6.1171480">
        <ele>11.8</ele>
        <time>2023-01-28T08:45:52Z</time>
      </trkpt>
      <trkpt lat="36.4792860" lon="-6.1171670">
        <ele>11.8</ele>
        <time>2023-01-28T08:45:53Z</time>
      </trkpt>
      <trkpt lat="36.4792520" lon="-6.1171690">
        <ele>11.8</ele>
        <time>2023-01-28T08:45:54Z</time>
      </trkpt>
      <trkpt lat="36.4792200" lon="-6.1171620">
        <ele>11.8</ele>
        <time>2023-01-28T08:45:55Z</time>
      </trkpt>
      <trkpt lat="36.4792100" lon="-6.1171980">
        <ele>11.8</ele>
        <time>2023-01-28T08:45:56Z</time>
      </trkpt>
      <trkpt lat="36.4791680" lon="-6.1171760">
        <ele>11.8</ele>
        <time>2023-01-28T08:45:57Z</time>
      </trkpt>
      <trkpt lat="36.4791400" lon="-6.1171940">
        <ele>11.8</ele>
        <time>2023-01-28T08:45:58Z</time>
      </trkpt>
      <trkpt lat="36.4791180" lon="-6.1172050">
        <ele>11.8</ele>
        <time>2023-01-28T08:45:59Z</time>
      </trkpt>
      <trkpt lat="36.4790810" lon="-6.1172100">
        <ele>11.8</ele>
        <time>2023-01-28T08:46:00Z</time>
      </trkpt>
      <trkpt lat="36.4790580" lon="-6.1172120">
        <ele>11.8</ele>
        <time>2023-01-28T08:46:01Z</time>
      </trkpt>
      <trkpt lat="36.4790180" lon="-6.1171930">
        <ele>11.8</ele>
        <time>2023-01-28T08:46:02Z</time>
      </trkpt>
      <trkpt lat="36.4789910" lon="-6.1171740">
        <ele>11.8</ele>
        <time>2023-01-28T08:46:03Z</time>
      </trkpt>
      <trkpt lat="36.4789470" lon="-6.1171480">
        <ele>11.8</ele>
        <time>2023-01-28T08:46:04Z</time>
      </trkpt>
      <trkpt lat="36.4788990" lon="-6.1171150">
        <ele>11.8</ele>
        <time>2023-01-28T08:46:05Z</time>
      </trkpt>
      <trkpt lat="36.4788760" lon="-6.1171420">
        <ele>11.8</ele>
        <time>2023-01-28T08:46:06Z</time>
      </trkpt>
      <trkpt lat="36.4788490" lon="-6.1171570">
        <ele>11.8</ele>
        <time>2023-01-28T08:46:07Z</time>
      </trkpt>
      <trkpt lat="36.4788200" lon="-6.1171560">
        <ele>11.8</ele>
        <time>2023-01-28T08:46:08Z</time>
      </trkpt>
      <trkpt lat="36.4787790" lon="-6.1171390">
        <ele>11.8</ele>
        <time>2023-01-28T08:46:09Z</time>
      </trkpt>
      <trkpt lat="36.4787390" lon="-6.1171390">
        <ele>11.8</ele>
        <time>2023-01-28T08:46:10Z</time>
      </trkpt>
      <trkpt lat="36.4786980" lon="-6.1171050">
        <ele>11.8</ele>
        <time>2023-01-28T08:46:11Z</time>
      </trkpt>
      <trkpt lat="36.4786640" lon="-6.1171110">
        <ele>12.0</ele>
        <time>2023-01-28T08:46:12Z</time>
      </trkpt>
      <trkpt lat="36.4786200" lon="-6.1170820">
        <ele>12.0</ele>
        <time>2023-01-28T08:46:13Z</time>
      </trkpt>
      <trkpt lat="36.4785920" lon="-6.1171140">
        <ele>12.0</ele>
        <time>2023-01-28T08:46:14Z</time>
      </trkpt>
      <trkpt lat="36.4785520" lon="-6.1171020">
        <ele>12.0</ele>
        <time>2023-01-28T08:46:15Z</time>
      </trkpt>
      <trkpt lat="36.4785220" lon="-6.1171160">
        <ele>11.8</ele>
        <time>2023-01-28T08:46:16Z</time>
      </trkpt>
      <trkpt lat="36.4784970" lon="-6.1171350">
        <ele>12.0</ele>
        <time>2023-01-28T08:46:17Z</time>
      </trkpt>
      <trkpt lat="36.4784600" lon="-6.1171320">
        <ele>12.0</ele>
        <time>2023-01-28T08:46:18Z</time>
      </trkpt>
      <trkpt lat="36.4784420" lon="-6.1171740">
        <ele>12.0</ele>
        <time>2023-01-28T08:46:19Z</time>
      </trkpt>
      <trkpt lat="36.4784120" lon="-6.1171770">
        <ele>12.0</ele>
        <time>2023-01-28T08:46:20Z</time>
      </trkpt>
      <trkpt lat="36.4783970" lon="-6.1172090">
        <ele>12.0</ele>
        <time>2023-01-28T08:46:21Z</time>
      </trkpt>
      <trkpt lat="36.4783690" lon="-6.1172150">
        <ele>12.0</ele>
        <time>2023-01-28T08:46:22Z</time>
      </trkpt>
      <trkpt lat="36.4783270" lon="-6.1172100">
        <ele>12.0</ele>
        <time>2023-01-28T08:46:23Z</time>
      </trkpt>
      <trkpt lat="36.4783010" lon="-6.1172210">
        <ele>12.0</ele>
        <time>2023-01-28T08:46:24Z</time>
      </trkpt>
      <trkpt lat="36.4782590" lon="-6.1171930">
        <ele>12.2</ele>
        <time>2023-01-28T08:46:25Z</time>
      </trkpt>
      <trkpt lat="36.4782270" lon="-6.1172030">
        <ele>12.2</ele>
        <time>2023-01-28T08:46:26Z</time>
      </trkpt>
      <trkpt lat="36.4781950" lon="-6.1172020">
        <ele>12.2</ele>
        <time>2023-01-28T08:46:27Z</time>
      </trkpt>
      <trkpt lat="36.4781560" lon="-6.1171940">
        <ele>12.2</ele>
        <time>2023-01-28T08:46:28Z</time>
      </trkpt>
      <trkpt lat="36.4781180" lon="-6.1171800">
        <ele>12.2</ele>
        <time>2023-01-28T08:46:29Z</time>
      </trkpt>
      <trkpt lat="36.4781070" lon="-6.1172200">
        <ele>12.2</ele>
        <time>2023-01-28T08:46:30Z</time>
      </trkpt>
      <trkpt lat="36.4780600" lon="-6.1171960">
        <ele>12.4</ele>
        <time>2023-01-28T08:46:31Z</time>
      </trkpt>
      <trkpt lat="36.4780300" lon="-6.1172020">
        <ele>12.2</ele>
        <time>2023-01-28T08:46:32Z</time>
      </trkpt>
      <trkpt lat="36.4780080" lon="-6.1172490">
        <ele>12.2</ele>
        <time>2023-01-28T08:46:33Z</time>
      </trkpt>
      <trkpt lat="36.4779750" lon="-6.1172380">
        <ele>12.2</ele>
        <time>2023-01-28T08:46:34Z</time>
      </trkpt>
      <trkpt lat="36.4779490" lon="-6.1172560">
        <ele>12.2</ele>
        <time>2023-01-28T08:46:35Z</time>
      </trkpt>
      <trkpt lat="36.4779070" lon="-6.1172620">
        <ele>12.4</ele>
        <time>2023-01-28T08:46:36Z</time>
      </trkpt>
      <trkpt lat="36.4778830" lon="-6.1172740">
        <ele>12.4</ele>
        <time>2023-01-28T08:46:37Z</time>
      </trkpt>
      <trkpt lat="36.4778530" lon="-6.1172930">
        <ele>12.4</ele>
        <time>2023-01-28T08:46:38Z</time>
      </trkpt>
      <trkpt lat="36.4778250" lon="-6.1173130">
        <ele>12.4</ele>
        <time>2023-01-28T08:46:39Z</time>
      </trkpt>
      <trkpt lat="36.4777950" lon="-6.1173310">
        <ele>12.2</ele>
        <time>2023-01-28T08:46:40Z</time>
      </trkpt>
      <trkpt lat="36.4777540" lon="-6.1173250">
        <ele>12.2</ele>
        <time>2023-01-28T08:46:41Z</time>
      </trkpt>
      <trkpt lat="36.4777200" lon="-6.1173280">
        <ele>12.2</ele>
        <time>2023-01-28T08:46:42Z</time>
      </trkpt>
      <trkpt lat="36.4776850" lon="-6.1173220">
        <ele>12.0</ele>
        <time>2023-01-28T08:46:43Z</time>
      </trkpt>
      <trkpt lat="36.4776470" lon="-6.1173170">
        <ele>11.8</ele>
        <time>2023-01-28T08:46:44Z</time>
      </trkpt>
      <trkpt lat="36.4776230" lon="-6.1173690">
        <ele>11.6</ele>
        <time>2023-01-28T08:46:45Z</time>
      </trkpt>
      <trkpt lat="36.4775920" lon="-6.1173950">
        <ele>11.4</ele>
        <time>2023-01-28T08:46:46Z</time>
      </trkpt>
      <trkpt lat="36.4775250" lon="-6.1173350">
        <ele>11.2</ele>
        <time>2023-01-28T08:46:47Z</time>
      </trkpt>
      <trkpt lat="36.4774940" lon="-6.1173480">
        <ele>11.0</ele>
        <time>2023-01-28T08:46:48Z</time>
      </trkpt>
      <trkpt lat="36.4774620" lon="-6.1173560">
        <ele>10.8</ele>
        <time>2023-01-28T08:46:49Z</time>
      </trkpt>
      <trkpt lat="36.4774060" lon="-6.1172920">
        <ele>10.8</ele>
        <time>2023-01-28T08:46:50Z</time>
      </trkpt>
      <trkpt lat="36.4773630" lon="-6.1172620">
        <ele>11.2</ele>
        <time>2023-01-28T08:46:51Z</time>
      </trkpt>
      <trkpt lat="36.4773200" lon="-6.1171990">
        <ele>11.6</ele>
        <time>2023-01-28T08:46:52Z</time>
      </trkpt>
      <trkpt lat="36.4772900" lon="-6.1171790">
        <ele>12.0</ele>
        <time>2023-01-28T08:46:53Z</time>
      </trkpt>
      <trkpt lat="36.4772580" lon="-6.1171650">
        <ele>12.2</ele>
        <time>2023-01-28T08:46:54Z</time>
      </trkpt>
      <trkpt lat="36.4772190" lon="-6.1171280">
        <ele>12.4</ele>
        <time>2023-01-28T08:46:55Z</time>
      </trkpt>
      <trkpt lat="36.4772120" lon="-6.1171640">
        <ele>12.6</ele>
        <time>2023-01-28T08:46:56Z</time>
      </trkpt>
      <trkpt lat="36.4771760" lon="-6.1171360">
        <ele>12.6</ele>
        <time>2023-01-28T08:46:57Z</time>
      </trkpt>
      <trkpt lat="36.4771450" lon="-6.1171220">
        <ele>12.6</ele>
        <time>2023-01-28T08:46:58Z</time>
      </trkpt>
      <trkpt lat="36.4771210" lon="-6.1171540">
        <ele>12.6</ele>
        <time>2023-01-28T08:46:59Z</time>
      </trkpt>
      <trkpt lat="36.4770840" lon="-6.1171420">
        <ele>12.6</ele>
        <time>2023-01-28T08:47:00Z</time>
      </trkpt>
      <trkpt lat="36.4770550" lon="-6.1171390">
        <ele>12.8</ele>
        <time>2023-01-28T08:47:01Z</time>
      </trkpt>
      <trkpt lat="36.4770260" lon="-6.1171460">
        <ele>13.0</ele>
        <time>2023-01-28T08:47:02Z</time>
      </trkpt>
      <trkpt lat="36.4770030" lon="-6.1171420">
        <ele>13.0</ele>
        <time>2023-01-28T08:47:03Z</time>
      </trkpt>
      <trkpt lat="36.4769730" lon="-6.1171480">
        <ele>13.2</ele>
        <time>2023-01-28T08:47:04Z</time>
      </trkpt>
      <trkpt lat="36.4769250" lon="-6.1171330">
        <ele>13.2</ele>
        <time>2023-01-28T08:47:05Z</time>
      </trkpt>
      <trkpt lat="36.4769130" lon="-6.1171720">
        <ele>13.2</ele>
        <time>2023-01-28T08:47:06Z</time>
      </trkpt>
      <trkpt lat="36.4768860" lon="-6.1171930">
        <ele>13.2</ele>
        <time>2023-01-28T08:47:07Z</time>
      </trkpt>
      <trkpt lat="36.4768450" lon="-6.1171910">
        <ele>13.4</ele>
        <time>2023-01-28T08:47:08Z</time>
      </trkpt>
      <trkpt lat="36.4768180" lon="-6.1172360">
        <ele>13.4</ele>
        <time>2023-01-28T08:47:09Z</time>
      </trkpt>
      <trkpt lat="36.4767800" lon="-6.1172420">
        <ele>13.4</ele>
        <time>2023-01-28T08:47:10Z</time>
      </trkpt>
      <trkpt lat="36.4767570" lon="-6.1172810">
        <ele>13.6</ele>
        <time>2023-01-28T08:47:11Z</time>
      </trkpt>
      <trkpt lat="36.4767070" lon="-6.1172530">
        <ele>13.6</ele>
        <time>2023-01-28T08:47:12Z</time>
      </trkpt>
      <trkpt lat="36.4766790" lon="-6.1172530">
        <ele>13.6</ele>
        <time>2023-01-28T08:47:13Z</time>
      </trkpt>
      <trkpt lat="36.4766700" lon="-6.1172680">
        <ele>13.6</ele>
        <time>2023-01-28T08:47:14Z</time>
      </trkpt>
      <trkpt lat="36.4766390" lon="-6.1172830">
        <ele>13.6</ele>
        <time>2023-01-28T08:47:15Z</time>
      </trkpt>
      <trkpt lat="36.4766130" lon="-6.1172680">
        <ele>13.6</ele>
        <time>2023-01-28T08:47:16Z</time>
      </trkpt>
      <trkpt lat="36.4765700" lon="-6.1172890">
        <ele>13.6</ele>
        <time>2023-01-28T08:47:17Z</time>
      </trkpt>
      <trkpt lat="36.4765540" lon="-6.1173010">
        <ele>13.6</ele>
        <time>2023-01-28T08:47:18Z</time>
      </trkpt>
      <trkpt lat="36.4765330" lon="-6.1173400">
        <ele>13.4</ele>
        <time>2023-01-28T08:47:19Z</time>
      </trkpt>
      <trkpt lat="36.4765060" lon="-6.1173540">
        <ele>13.4</ele>
        <time>2023-01-28T08:47:20Z</time>
      </trkpt>
      <trkpt lat="36.4764740" lon="-6.1173540">
        <ele>13.4</ele>
        <time>2023-01-28T08:47:21Z</time>
      </trkpt>
      <trkpt lat="36.4764540" lon="-6.1173630">
        <ele>13.4</ele>
        <time>2023-01-28T08:47:22Z</time>
      </trkpt>
      <trkpt lat="36.4764220" lon="-6.1173170">
        <ele>13.4</ele>
        <time>2023-01-28T08:47:23Z</time>
      </trkpt>
      <trkpt lat="36.4763880" lon="-6.1172550">
        <ele>13.4</ele>
        <time>2023-01-28T08:47:24Z</time>
      </trkpt>
      <trkpt lat="36.4764000" lon="-6.1172500">
        <ele>13.4</ele>
        <time>2023-01-28T08:47:25Z</time>
      </trkpt>
      <trkpt lat="36.4763990" lon="-6.1172360">
        <ele>13.4</ele>
        <time>2023-01-28T08:47:26Z</time>
      </trkpt>
      <trkpt lat="36.4764000" lon="-6.1172250">
        <ele>13.6</ele>
        <time>2023-01-28T08:47:27Z</time>
      </trkpt>
      <trkpt lat="36.4763900" lon="-6.1172160">
        <ele>14.0</ele>
        <time>2023-01-28T08:47:28Z</time>
      </trkpt>
      <trkpt lat="36.4763890" lon="-6.1172040">
        <ele>14.2</ele>
        <time>2023-01-28T08:47:29Z</time>
      </trkpt>
      <trkpt lat="36.4763990" lon="-6.1172230">
        <ele>14.6</ele>
        <time>2023-01-28T08:47:30Z</time>
      </trkpt>
      <trkpt lat="36.4763910" lon="-6.1171870">
        <ele>14.6</ele>
        <time>2023-01-28T08:47:31Z</time>
      </trkpt>
      <trkpt lat="36.4763950" lon="-6.1171540">
        <ele>14.6</ele>
        <time>2023-01-28T08:47:32Z</time>
      </trkpt>
      <trkpt lat="36.4764010" lon="-6.1171310">
        <ele>14.6</ele>
        <time>2023-01-28T08:47:33Z</time>
      </trkpt>
      <trkpt lat="36.4764110" lon="-6.1171260">
        <ele>14.4</ele>
        <time>2023-01-28T08:47:34Z</time>
      </trkpt>
      <trkpt lat="36.4764070" lon="-6.1170880">
        <ele>14.4</ele>
        <time>2023-01-28T08:47:35Z</time>
      </trkpt>
      <trkpt lat="36.4764080" lon="-6.1170830">
        <ele>14.4</ele>
        <time>2023-01-28T08:47:36Z</time>
      </trkpt>
      <trkpt lat="36.4764060" lon="-6.1170440">
        <ele>14.4</ele>
        <time>2023-01-28T08:47:37Z</time>
      </trkpt>
      <trkpt lat="36.4763910" lon="-6.1169940">
        <ele>14.4</ele>
        <time>2023-01-28T08:47:38Z</time>
      </trkpt>
      <trkpt lat="36.4763790" lon="-6.1169540">
        <ele>14.4</ele>
        <time>2023-01-28T08:47:39Z</time>
      </trkpt>
      <trkpt lat="36.4764000" lon="-6.1169660">
        <ele>14.6</ele>
        <time>2023-01-28T08:47:40Z</time>
      </trkpt>
      <trkpt lat="36.4763940" lon="-6.1169140">
        <ele>14.4</ele>
        <time>2023-01-28T08:47:41Z</time>
      </trkpt>
      <trkpt lat="36.4763850" lon="-6.1168750">
        <ele>14.4</ele>
        <time>2023-01-28T08:47:42Z</time>
      </trkpt>
      <trkpt lat="36.4763870" lon="-6.1168480">
        <ele>14.4</ele>
        <time>2023-01-28T08:47:43Z</time>
      </trkpt>
      <trkpt lat="36.4763850" lon="-6.1168230">
        <ele>14.4</ele>
        <time>2023-01-28T08:47:44Z</time>
      </trkpt>
      <trkpt lat="36.4763620" lon="-6.1167580">
        <ele>14.6</ele>
        <time>2023-01-28T08:47:45Z</time>
      </trkpt>
      <trkpt lat="36.4763540" lon="-6.1167280">
        <ele>14.6</ele>
        <time>2023-01-28T08:47:46Z</time>
      </trkpt>
      <trkpt lat="36.4763460" lon="-6.1166810">
        <ele>14.6</ele>
        <time>2023-01-28T08:47:47Z</time>
      </trkpt>
      <trkpt lat="36.4763350" lon="-6.1166530">
        <ele>14.6</ele>
        <time>2023-01-28T08:47:48Z</time>
      </trkpt>
      <trkpt lat="36.4763300" lon="-6.1166300">
        <ele>14.6</ele>
        <time>2023-01-28T08:47:49Z</time>
      </trkpt>
      <trkpt lat="36.4763240" lon="-6.1166190">
        <ele>14.6</ele>
        <time>2023-01-28T08:47:50Z</time>
      </trkpt>
      <trkpt lat="36.4763220" lon="-6.1166150">
        <ele>14.6</ele>
        <time>2023-01-28T08:47:51Z</time>
      </trkpt>
      <trkpt lat="36.4763170" lon="-6.1165750">
        <ele>14.8</ele>
        <time>2023-01-28T08:47:52Z</time>
      </trkpt>
      <trkpt lat="36.4762990" lon="-6.1165070">
        <ele>14.6</ele>
        <time>2023-01-28T08:47:53Z</time>
      </trkpt>
      <trkpt lat="36.4762960" lon="-6.1164700">
        <ele>14.8</ele>
        <time>2023-01-28T08:47:54Z</time>
      </trkpt>
      <trkpt lat="36.4762970" lon="-6.1164620">
        <ele>14.6</ele>
        <time>2023-01-28T08:47:55Z</time>
      </trkpt>
      <trkpt lat="36.4762890" lon="-6.1164510">
        <ele>14.8</ele>
        <time>2023-01-28T08:47:56Z</time>
      </trkpt>
      <trkpt lat="36.4762850" lon="-6.1164260">
        <ele>14.8</ele>
        <time>2023-01-28T08:47:57Z</time>
      </trkpt>
      <trkpt lat="36.4762980" lon="-6.1164130">
        <ele>14.8</ele>
        <time>2023-01-28T08:47:58Z</time>
      </trkpt>
      <trkpt lat="36.4762830" lon="-6.1163600">
        <ele>14.8</ele>
        <time>2023-01-28T08:47:59Z</time>
      </trkpt>
      <trkpt lat="36.4762540" lon="-6.1162890">
        <ele>15.0</ele>
        <time>2023-01-28T08:48:00Z</time>
      </trkpt>
      <trkpt lat="36.4762350" lon="-6.1162340">
        <ele>15.2</ele>
        <time>2023-01-28T08:48:01Z</time>
      </trkpt>
      <trkpt lat="36.4762330" lon="-6.1162010">
        <ele>15.2</ele>
        <time>2023-01-28T08:48:02Z</time>
      </trkpt>
      <trkpt lat="36.4762370" lon="-6.1161650">
        <ele>15.2</ele>
        <time>2023-01-28T08:48:03Z</time>
      </trkpt>
      <trkpt lat="36.4762440" lon="-6.1161650">
        <ele>15.2</ele>
        <time>2023-01-28T08:48:04Z</time>
      </trkpt>
      <trkpt lat="36.4762540" lon="-6.1161290">
        <ele>15.2</ele>
        <time>2023-01-28T08:48:05Z</time>
      </trkpt>
      <trkpt lat="36.4762580" lon="-6.1161180">
        <ele>15.2</ele>
        <time>2023-01-28T08:48:06Z</time>
      </trkpt>
      <trkpt lat="36.4762540" lon="-6.1160780">
        <ele>15.2</ele>
        <time>2023-01-28T08:48:07Z</time>
      </trkpt>
      <trkpt lat="36.4762350" lon="-6.1160390">
        <ele>15.2</ele>
        <time>2023-01-28T08:48:08Z</time>
      </trkpt>
      <trkpt lat="36.4762340" lon="-6.1160240">
        <ele>15.4</ele>
        <time>2023-01-28T08:48:09Z</time>
      </trkpt>
      <trkpt lat="36.4762140" lon="-6.1159610">
        <ele>15.4</ele>
        <time>2023-01-28T08:48:10Z</time>
      </trkpt>
      <trkpt lat="36.4762060" lon="-6.1159320">
        <ele>15.4</ele>
        <time>2023-01-28T08:48:11Z</time>
      </trkpt>
      <trkpt lat="36.4762070" lon="-6.1159120">
        <ele>15.6</ele>
        <time>2023-01-28T08:48:12Z</time>
      </trkpt>
      <trkpt lat="36.4762080" lon="-6.1159280">
        <ele>15.6</ele>
        <time>2023-01-28T08:48:13Z</time>
      </trkpt>
      <trkpt lat="36.4762090" lon="-6.1158880">
        <ele>15.6</ele>
        <time>2023-01-28T08:48:14Z</time>
      </trkpt>
      <trkpt lat="36.4762200" lon="-6.1158610">
        <ele>15.6</ele>
        <time>2023-01-28T08:48:15Z</time>
      </trkpt>
      <trkpt lat="36.4762030" lon="-6.1157760">
        <ele>15.8</ele>
        <time>2023-01-28T08:48:16Z</time>
      </trkpt>
      <trkpt lat="36.4761990" lon="-6.1157560">
        <ele>15.8</ele>
        <time>2023-01-28T08:48:17Z</time>
      </trkpt>
      <trkpt lat="36.4761950" lon="-6.1157510">
        <ele>15.6</ele>
        <time>2023-01-28T08:48:18Z</time>
      </trkpt>
      <trkpt lat="36.4761830" lon="-6.1157130">
        <ele>15.6</ele>
        <time>2023-01-28T08:48:19Z</time>
      </trkpt>
      <trkpt lat="36.4761820" lon="-6.1156640">
        <ele>15.6</ele>
        <time>2023-01-28T08:48:20Z</time>
      </trkpt>
      <trkpt lat="36.4761870" lon="-6.1156440">
        <ele>15.8</ele>
        <time>2023-01-28T08:48:21Z</time>
      </trkpt>
      <trkpt lat="36.4761780" lon="-6.1155990">
        <ele>16.0</ele>
        <time>2023-01-28T08:48:22Z</time>
      </trkpt>
      <trkpt lat="36.4761640" lon="-6.1155310">
        <ele>16.0</ele>
        <time>2023-01-28T08:48:23Z</time>
      </trkpt>
      <trkpt lat="36.4761850" lon="-6.1155070">
        <ele>16.2</ele>
        <time>2023-01-28T08:48:24Z</time>
      </trkpt>
      <trkpt lat="36.4761890" lon="-6.1155060">
        <ele>16.4</ele>
        <time>2023-01-28T08:48:25Z</time>
      </trkpt>
      <trkpt lat="36.4761790" lon="-6.1154640">
        <ele>16.2</ele>
        <time>2023-01-28T08:48:26Z</time>
      </trkpt>
      <trkpt lat="36.4761750" lon="-6.1154370">
        <ele>16.2</ele>
        <time>2023-01-28T08:48:27Z</time>
      </trkpt>
      <trkpt lat="36.4761600" lon="-6.1153820">
        <ele>16.4</ele>
        <time>2023-01-28T08:48:28Z</time>
      </trkpt>
      <trkpt lat="36.4761570" lon="-6.1153390">
        <ele>16.6</ele>
        <time>2023-01-28T08:48:29Z</time>
      </trkpt>
      <trkpt lat="36.4761650" lon="-6.1153440">
        <ele>16.8</ele>
        <time>2023-01-28T08:48:30Z</time>
      </trkpt>
      <trkpt lat="36.4761780" lon="-6.1153330">
        <ele>16.6</ele>
        <time>2023-01-28T08:48:31Z</time>
      </trkpt>
      <trkpt lat="36.4761630" lon="-6.1152840">
        <ele>16.6</ele>
        <time>2023-01-28T08:48:32Z</time>
      </trkpt>
      <trkpt lat="36.4761510" lon="-6.1152710">
        <ele>16.6</ele>
        <time>2023-01-28T08:48:33Z</time>
      </trkpt>
      <trkpt lat="36.4761400" lon="-6.1152620">
        <ele>16.8</ele>
        <time>2023-01-28T08:48:34Z</time>
      </trkpt>
      <trkpt lat="36.4761240" lon="-6.1152290">
        <ele>17.0</ele>
        <time>2023-01-28T08:48:35Z</time>
      </trkpt>
      <trkpt lat="36.4761370" lon="-6.1152120">
        <ele>17.0</ele>
        <time>2023-01-28T08:48:36Z</time>
      </trkpt>
      <trkpt lat="36.4761290" lon="-6.1151520">
        <ele>17.0</ele>
        <time>2023-01-28T08:48:37Z</time>
      </trkpt>
      <trkpt lat="36.4761370" lon="-6.1151240">
        <ele>16.8</ele>
        <time>2023-01-28T08:48:38Z</time>
      </trkpt>
      <trkpt lat="36.4761280" lon="-6.1151110">
        <ele>16.6</ele>
        <time>2023-01-28T08:48:39Z</time>
      </trkpt>
      <trkpt lat="36.4761150" lon="-6.1150570">
        <ele>16.6</ele>
        <time>2023-01-28T08:48:40Z</time>
      </trkpt>
      <trkpt lat="36.4761000" lon="-6.1150040">
        <ele>16.8</ele>
        <time>2023-01-28T08:48:41Z</time>
      </trkpt>
      <trkpt lat="36.4760930" lon="-6.1149450">
        <ele>17.0</ele>
        <time>2023-01-28T08:48:42Z</time>
      </trkpt>
      <trkpt lat="36.4761000" lon="-6.1149060">
        <ele>17.0</ele>
        <time>2023-01-28T08:48:43Z</time>
      </trkpt>
      <trkpt lat="36.4760930" lon="-6.1148530">
        <ele>17.2</ele>
        <time>2023-01-28T08:48:44Z</time>
      </trkpt>
      <trkpt lat="36.4760900" lon="-6.1148290">
        <ele>17.2</ele>
        <time>2023-01-28T08:48:45Z</time>
      </trkpt>
      <trkpt lat="36.4760830" lon="-6.1147860">
        <ele>17.4</ele>
        <time>2023-01-28T08:48:46Z</time>
      </trkpt>
      <trkpt lat="36.4760720" lon="-6.1147700">
        <ele>17.4</ele>
        <time>2023-01-28T08:48:47Z</time>
      </trkpt>
      <trkpt lat="36.4760750" lon="-6.1147380">
        <ele>17.2</ele>
        <time>2023-01-28T08:48:48Z</time>
      </trkpt>
      <trkpt lat="36.4760660" lon="-6.1146880">
        <ele>17.2</ele>
        <time>2023-01-28T08:48:49Z</time>
      </trkpt>
      <trkpt lat="36.4760470" lon="-6.1146160">
        <ele>17.2</ele>
        <time>2023-01-28T08:48:50Z</time>
      </trkpt>
      <trkpt lat="36.4760620" lon="-6.1146240">
        <ele>17.2</ele>
        <time>2023-01-28T08:48:51Z</time>
      </trkpt>
      <trkpt lat="36.4760560" lon="-6.1145910">
        <ele>17.2</ele>
        <time>2023-01-28T08:48:52Z</time>
      </trkpt>
      <trkpt lat="36.4760610" lon="-6.1145580">
        <ele>17.4</ele>
        <time>2023-01-28T08:48:53Z</time>
      </trkpt>
      <trkpt lat="36.4760580" lon="-6.1145430">
        <ele>17.4</ele>
        <time>2023-01-28T08:48:54Z</time>
      </trkpt>
      <trkpt lat="36.4760430" lon="-6.1144910">
        <ele>17.8</ele>
        <time>2023-01-28T08:48:55Z</time>
      </trkpt>
      <trkpt lat="36.4760340" lon="-6.1144570">
        <ele>17.6</ele>
        <time>2023-01-28T08:48:56Z</time>
      </trkpt>
      <trkpt lat="36.4760320" lon="-6.1144410">
        <ele>17.4</ele>
        <time>2023-01-28T08:48:57Z</time>
      </trkpt>
      <trkpt lat="36.4760290" lon="-6.1144240">
        <ele>17.6</ele>
        <time>2023-01-28T08:48:58Z</time>
      </trkpt>
      <trkpt lat="36.4760090" lon="-6.1143740">
        <ele>17.6</ele>
        <time>2023-01-28T08:48:59Z</time>
      </trkpt>
      <trkpt lat="36.4759740" lon="-6.1142780">
        <ele>17.8</ele>
        <time>2023-01-28T08:49:00Z</time>
      </trkpt>
      <trkpt lat="36.4759670" lon="-6.1142550">
        <ele>17.8</ele>
        <time>2023-01-28T08:49:01Z</time>
      </trkpt>
      <trkpt lat="36.4759720" lon="-6.1142390">
        <ele>17.8</ele>
        <time>2023-01-28T08:49:02Z</time>
      </trkpt>
      <trkpt lat="36.4759670" lon="-6.1142300">
        <ele>18.0</ele>
        <time>2023-01-28T08:49:03Z</time>
      </trkpt>
      <trkpt lat="36.4759660" lon="-6.1142130">
        <ele>18.0</ele>
        <time>2023-01-28T08:49:04Z</time>
      </trkpt>
      <trkpt lat="36.4759540" lon="-6.1141650">
        <ele>18.0</ele>
        <time>2023-01-28T08:49:05Z</time>
      </trkpt>
      <trkpt lat="36.4759570" lon="-6.1141050">
        <ele>18.0</ele>
        <time>2023-01-28T08:49:06Z</time>
      </trkpt>
      <trkpt lat="36.4759520" lon="-6.1140720">
        <ele>18.0</ele>
        <time>2023-01-28T08:49:07Z</time>
      </trkpt>
      <trkpt lat="36.4759390" lon="-6.1140150">
        <ele>18.0</ele>
        <time>2023-01-28T08:49:08Z</time>
      </trkpt>
      <trkpt lat="36.4759250" lon="-6.1139660">
        <ele>18.0</ele>
        <time>2023-01-28T08:49:09Z</time>
      </trkpt>
      <trkpt lat="36.4759110" lon="-6.1139210">
        <ele>18.0</ele>
        <time>2023-01-28T08:49:10Z</time>
      </trkpt>
      <trkpt lat="36.4759180" lon="-6.1139170">
        <ele>18.0</ele>
        <time>2023-01-28T08:49:11Z</time>
      </trkpt>
      <trkpt lat="36.4759240" lon="-6.1138610">
        <ele>18.0</ele>
        <time>2023-01-28T08:49:12Z</time>
      </trkpt>
      <trkpt lat="36.4759190" lon="-6.1138210">
        <ele>18.0</ele>
        <time>2023-01-28T08:49:13Z</time>
      </trkpt>
      <trkpt lat="36.4759120" lon="-6.1137710">
        <ele>18.0</ele>
        <time>2023-01-28T08:49:14Z</time>
      </trkpt>
      <trkpt lat="36.4759130" lon="-6.1137470">
        <ele>18.2</ele>
        <time>2023-01-28T08:49:15Z</time>
      </trkpt>
      <trkpt lat="36.4759130" lon="-6.1137460">
        <ele>18.2</ele>
        <time>2023-01-28T08:49:16Z</time>
      </trkpt>
      <trkpt lat="36.4759020" lon="-6.1136860">
        <ele>18.2</ele>
        <time>2023-01-28T08:49:17Z</time>
      </trkpt>
      <trkpt lat="36.4758930" lon="-6.1136520">
        <ele>18.2</ele>
        <time>2023-01-28T08:49:18Z</time>
      </trkpt>
      <trkpt lat="36.4758890" lon="-6.1136370">
        <ele>18.2</ele>
        <time>2023-01-28T08:49:19Z</time>
      </trkpt>
      <trkpt lat="36.4758900" lon="-6.1136230">
        <ele>18.4</ele>
        <time>2023-01-28T08:49:20Z</time>
      </trkpt>
      <trkpt lat="36.4758860" lon="-6.1135900">
        <ele>18.4</ele>
        <time>2023-01-28T08:49:21Z</time>
      </trkpt>
      <trkpt lat="36.4758630" lon="-6.1135170">
        <ele>18.4</ele>
        <time>2023-01-28T08:49:22Z</time>
      </trkpt>
      <trkpt lat="36.4758560" lon="-6.1135090">
        <ele>18.6</ele>
        <time>2023-01-28T08:49:23Z</time>
      </trkpt>
      <trkpt lat="36.4758330" lon="-6.1134490">
        <ele>18.6</ele>
        <time>2023-01-28T08:49:24Z</time>
      </trkpt>
      <trkpt lat="36.4758210" lon="-6.1134040">
        <ele>18.6</ele>
        <time>2023-01-28T08:49:25Z</time>
      </trkpt>
      <trkpt lat="36.4758190" lon="-6.1133470">
        <ele>18.6</ele>
        <time>2023-01-28T08:49:26Z</time>
      </trkpt>
      <trkpt lat="36.4758170" lon="-6.1133200">
        <ele>18.8</ele>
        <time>2023-01-28T08:49:27Z</time>
      </trkpt>
      <trkpt lat="36.4758070" lon="-6.1132670">
        <ele>18.8</ele>
        <time>2023-01-28T08:49:28Z</time>
      </trkpt>
      <trkpt lat="36.4758100" lon="-6.1132410">
        <ele>18.8</ele>
        <time>2023-01-28T08:49:29Z</time>
      </trkpt>
      <trkpt lat="36.4758070" lon="-6.1132330">
        <ele>18.8</ele>
        <time>2023-01-28T08:49:30Z</time>
      </trkpt>
      <trkpt lat="36.4757980" lon="-6.1131880">
        <ele>18.8</ele>
        <time>2023-01-28T08:49:31Z</time>
      </trkpt>
      <trkpt lat="36.4757790" lon="-6.1131190">
        <ele>19.0</ele>
        <time>2023-01-28T08:49:32Z</time>
      </trkpt>
      <trkpt lat="36.4757770" lon="-6.1130820">
        <ele>19.0</ele>
        <time>2023-01-28T08:49:33Z</time>
      </trkpt>
      <trkpt lat="36.4757900" lon="-6.1130750">
        <ele>19.2</ele>
        <time>2023-01-28T08:49:34Z</time>
      </trkpt>
      <trkpt lat="36.4757850" lon="-6.1130280">
        <ele>19.2</ele>
        <time>2023-01-28T08:49:35Z</time>
      </trkpt>
      <trkpt lat="36.4757740" lon="-6.1129830">
        <ele>19.2</ele>
        <time>2023-01-28T08:49:36Z</time>
      </trkpt>
      <trkpt lat="36.4757700" lon="-6.1129690">
        <ele>19.2</ele>
        <time>2023-01-28T08:49:37Z</time>
      </trkpt>
      <trkpt lat="36.4757710" lon="-6.1129470">
        <ele>19.4</ele>
        <time>2023-01-28T08:49:38Z</time>
      </trkpt>
      <trkpt lat="36.4757890" lon="-6.1129140">
        <ele>19.4</ele>
        <time>2023-01-28T08:49:39Z</time>
      </trkpt>
      <trkpt lat="36.4757930" lon="-6.1128860">
        <ele>19.6</ele>
        <time>2023-01-28T08:49:40Z</time>
      </trkpt>
      <trkpt lat="36.4757870" lon="-6.1128550">
        <ele>19.6</ele>
        <time>2023-01-28T08:49:41Z</time>
      </trkpt>
      <trkpt lat="36.4757790" lon="-6.1128210">
        <ele>19.8</ele>
        <time>2023-01-28T08:49:42Z</time>
      </trkpt>
      <trkpt lat="36.4757740" lon="-6.1127750">
        <ele>19.8</ele>
        <time>2023-01-28T08:49:43Z</time>
      </trkpt>
      <trkpt lat="36.4757720" lon="-6.1127360">
        <ele>20.0</ele>
        <time>2023-01-28T08:49:44Z</time>
      </trkpt>
      <trkpt lat="36.4757500" lon="-6.1126880">
        <ele>20.0</ele>
        <time>2023-01-28T08:49:45Z</time>
      </trkpt>
      <trkpt lat="36.4757310" lon="-6.1126380">
        <ele>20.2</ele>
        <time>2023-01-28T08:49:46Z</time>
      </trkpt>
      <trkpt lat="36.4757310" lon="-6.1126160">
        <ele>20.4</ele>
        <time>2023-01-28T08:49:47Z</time>
      </trkpt>
      <trkpt lat="36.4757400" lon="-6.1126070">
        <ele>20.4</ele>
        <time>2023-01-28T08:49:48Z</time>
      </trkpt>
      <trkpt lat="36.4757160" lon="-6.1125650">
        <ele>20.6</ele>
        <time>2023-01-28T08:49:49Z</time>
      </trkpt>
      <trkpt lat="36.4757000" lon="-6.1125120">
        <ele>20.6</ele>
        <time>2023-01-28T08:49:50Z</time>
      </trkpt>
      <trkpt lat="36.4757030" lon="-6.1124490">
        <ele>20.6</ele>
        <time>2023-01-28T08:49:51Z</time>
      </trkpt>
      <trkpt lat="36.4756830" lon="-6.1123740">
        <ele>20.8</ele>
        <time>2023-01-28T08:49:52Z</time>
      </trkpt>
      <trkpt lat="36.4756790" lon="-6.1123410">
        <ele>20.8</ele>
        <time>2023-01-28T08:49:53Z</time>
      </trkpt>
      <trkpt lat="36.4756620" lon="-6.1123090">
        <ele>21.0</ele>
        <time>2023-01-28T08:49:54Z</time>
      </trkpt>
      <trkpt lat="36.4756580" lon="-6.1122590">
        <ele>21.0</ele>
        <time>2023-01-28T08:49:55Z</time>
      </trkpt>
      <trkpt lat="36.4756670" lon="-6.1122260">
        <ele>21.2</ele>
        <time>2023-01-28T08:49:56Z</time>
      </trkpt>
      <trkpt lat="36.4756580" lon="-6.1122040">
        <ele>21.2</ele>
        <time>2023-01-28T08:49:57Z</time>
      </trkpt>
      <trkpt lat="36.4756400" lon="-6.1121650">
        <ele>21.2</ele>
        <time>2023-01-28T08:49:58Z</time>
      </trkpt>
      <trkpt lat="36.4756490" lon="-6.1121380">
        <ele>21.4</ele>
        <time>2023-01-28T08:49:59Z</time>
      </trkpt>
      <trkpt lat="36.4756430" lon="-6.1121040">
        <ele>21.4</ele>
        <time>2023-01-28T08:50:00Z</time>
      </trkpt>
      <trkpt lat="36.4756190" lon="-6.1120460">
        <ele>21.4</ele>
        <time>2023-01-28T08:50:01Z</time>
      </trkpt>
      <trkpt lat="36.4756050" lon="-6.1119940">
        <ele>21.2</ele>
        <time>2023-01-28T08:50:02Z</time>
      </trkpt>
      <trkpt lat="36.4755900" lon="-6.1119220">
        <ele>21.2</ele>
        <time>2023-01-28T08:50:03Z</time>
      </trkpt>
      <trkpt lat="36.4755800" lon="-6.1118840">
        <ele>21.2</ele>
        <time>2023-01-28T08:50:04Z</time>
      </trkpt>
      <trkpt lat="36.4755700" lon="-6.1118440">
        <ele>21.2</ele>
        <time>2023-01-28T08:50:05Z</time>
      </trkpt>
      <trkpt lat="36.4755620" lon="-6.1118050">
        <ele>21.4</ele>
        <time>2023-01-28T08:50:06Z</time>
      </trkpt>
      <trkpt lat="36.4755700" lon="-6.1118010">
        <ele>21.4</ele>
        <time>2023-01-28T08:50:07Z</time>
      </trkpt>
      <trkpt lat="36.4755860" lon="-6.1117760">
        <ele>21.4</ele>
        <time>2023-01-28T08:50:08Z</time>
      </trkpt>
      <trkpt lat="36.4755840" lon="-6.1117530">
        <ele>21.4</ele>
        <time>2023-01-28T08:50:09Z</time>
      </trkpt>
      <trkpt lat="36.4755740" lon="-6.1117200">
        <ele>21.6</ele>
        <time>2023-01-28T08:50:10Z</time>
      </trkpt>
      <trkpt lat="36.4755700" lon="-6.1116600">
        <ele>21.6</ele>
        <time>2023-01-28T08:50:11Z</time>
      </trkpt>
      <trkpt lat="36.4755630" lon="-6.1116010">
        <ele>21.6</ele>
        <time>2023-01-28T08:50:12Z</time>
      </trkpt>
      <trkpt lat="36.4755490" lon="-6.1115740">
        <ele>21.6</ele>
        <time>2023-01-28T08:50:13Z</time>
      </trkpt>
      <trkpt lat="36.4755410" lon="-6.1115300">
        <ele>21.6</ele>
        <time>2023-01-28T08:50:14Z</time>
      </trkpt>
      <trkpt lat="36.4755370" lon="-6.1114840">
        <ele>21.6</ele>
        <time>2023-01-28T08:50:15Z</time>
      </trkpt>
      <trkpt lat="36.4755350" lon="-6.1114240">
        <ele>21.6</ele>
        <time>2023-01-28T08:50:16Z</time>
      </trkpt>
      <trkpt lat="36.4755200" lon="-6.1113800">
        <ele>21.8</ele>
        <time>2023-01-28T08:50:17Z</time>
      </trkpt>
      <trkpt lat="36.4755000" lon="-6.1113350">
        <ele>21.8</ele>
        <time>2023-01-28T08:50:18Z</time>
      </trkpt>
      <trkpt lat="36.4754920" lon="-6.1113200">
        <ele>21.8</ele>
        <time>2023-01-28T08:50:19Z</time>
      </trkpt>
      <trkpt lat="36.4754870" lon="-6.1113110">
        <ele>21.8</ele>
        <time>2023-01-28T08:50:20Z</time>
      </trkpt>
      <trkpt lat="36.4754750" lon="-6.1112820">
        <ele>22.0</ele>
        <time>2023-01-28T08:50:21Z</time>
      </trkpt>
      <trkpt lat="36.4754580" lon="-6.1112220">
        <ele>22.0</ele>
        <time>2023-01-28T08:50:22Z</time>
      </trkpt>
      <trkpt lat="36.4754540" lon="-6.1111820">
        <ele>21.8</ele>
        <time>2023-01-28T08:50:23Z</time>
      </trkpt>
      <trkpt lat="36.4754460" lon="-6.1111420">
        <ele>21.8</ele>
        <time>2023-01-28T08:50:24Z</time>
      </trkpt>
      <trkpt lat="36.4754270" lon="-6.1110850">
        <ele>21.8</ele>
        <time>2023-01-28T08:50:25Z</time>
      </trkpt>
      <trkpt lat="36.4754150" lon="-6.1110490">
        <ele>22.0</ele>
        <time>2023-01-28T08:50:26Z</time>
      </trkpt>
      <trkpt lat="36.4754500" lon="-6.1110680">
        <ele>22.0</ele>
        <time>2023-01-28T08:50:27Z</time>
      </trkpt>
      <trkpt lat="36.4754620" lon="-6.1110790">
        <ele>22.0</ele>
        <time>2023-01-28T08:50:28Z</time>
      </trkpt>
      <trkpt lat="36.4754530" lon="-6.1110390">
        <ele>22.2</ele>
        <time>2023-01-28T08:50:29Z</time>
      </trkpt>
      <trkpt lat="36.4754650" lon="-6.1110050">
        <ele>22.4</ele>
        <time>2023-01-28T08:50:30Z</time>
      </trkpt>
      <trkpt lat="36.4754700" lon="-6.1109620">
        <ele>22.4</ele>
        <time>2023-01-28T08:50:31Z</time>
      </trkpt>
      <trkpt lat="36.4754430" lon="-6.1109100">
        <ele>22.6</ele>
        <time>2023-01-28T08:50:32Z</time>
      </trkpt>
      <trkpt lat="36.4754380" lon="-6.1108850">
        <ele>22.8</ele>
        <time>2023-01-28T08:50:33Z</time>
      </trkpt>
      <trkpt lat="36.4754160" lon="-6.1108130">
        <ele>22.8</ele>
        <time>2023-01-28T08:50:34Z</time>
      </trkpt>
      <trkpt lat="36.4754070" lon="-6.1107770">
        <ele>22.8</ele>
        <time>2023-01-28T08:50:35Z</time>
      </trkpt>
      <trkpt lat="36.4753990" lon="-6.1107480">
        <ele>23.0</ele>
        <time>2023-01-28T08:50:36Z</time>
      </trkpt>
      <trkpt lat="36.4754130" lon="-6.1107490">
        <ele>23.0</ele>
        <time>2023-01-28T08:50:37Z</time>
      </trkpt>
      <trkpt lat="36.4753980" lon="-6.1106840">
        <ele>23.0</ele>
        <time>2023-01-28T08:50:38Z</time>
      </trkpt>
      <trkpt lat="36.4753860" lon="-6.1106700">
        <ele>23.0</ele>
        <time>2023-01-28T08:50:39Z</time>
      </trkpt>
      <trkpt lat="36.4753830" lon="-6.1106550">
        <ele>23.0</ele>
        <time>2023-01-28T08:50:40Z</time>
      </trkpt>
      <trkpt lat="36.4753820" lon="-6.1106200">
        <ele>23.0</ele>
        <time>2023-01-28T08:50:41Z</time>
      </trkpt>
      <trkpt lat="36.4753770" lon="-6.1105700">
        <ele>23.0</ele>
        <time>2023-01-28T08:50:42Z</time>
      </trkpt>
      <trkpt lat="36.4753780" lon="-6.1105440">
        <ele>23.2</ele>
        <time>2023-01-28T08:50:43Z</time>
      </trkpt>
      <trkpt lat="36.4753730" lon="-6.1105070">
        <ele>23.2</ele>
        <time>2023-01-28T08:50:44Z</time>
      </trkpt>
      <trkpt lat="36.4753710" lon="-6.1104620">
        <ele>23.2</ele>
        <time>2023-01-28T08:50:45Z</time>
      </trkpt>
      <trkpt lat="36.4753820" lon="-6.1104470">
        <ele>23.2</ele>
        <time>2023-01-28T08:50:46Z</time>
      </trkpt>
      <trkpt lat="36.4753800" lon="-6.1103880">
        <ele>23.2</ele>
        <time>2023-01-28T08:50:47Z</time>
      </trkpt>
      <trkpt lat="36.4753740" lon="-6.1103430">
        <ele>23.2</ele>
        <time>2023-01-28T08:50:48Z</time>
      </trkpt>
      <trkpt lat="36.4753850" lon="-6.1102750">
        <ele>23.2</ele>
        <time>2023-01-28T08:50:49Z</time>
      </trkpt>
      <trkpt lat="36.4753630" lon="-6.1102560">
        <ele>23.2</ele>
        <time>2023-01-28T08:50:50Z</time>
      </trkpt>
      <trkpt lat="36.4753430" lon="-6.1101990">
        <ele>23.0</ele>
        <time>2023-01-28T08:50:51Z</time>
      </trkpt>
      <trkpt lat="36.4753300" lon="-6.1101410">
        <ele>23.2</ele>
        <time>2023-01-28T08:50:52Z</time>
      </trkpt>
      <trkpt lat="36.4753140" lon="-6.1100860">
        <ele>23.2</ele>
        <time>2023-01-28T08:50:53Z</time>
      </trkpt>
      <trkpt lat="36.4753110" lon="-6.1100460">
        <ele>23.4</ele>
        <time>2023-01-28T08:50:54Z</time>
      </trkpt>
      <trkpt lat="36.4752980" lon="-6.1100150">
        <ele>23.4</ele>
        <time>2023-01-28T08:50:55Z</time>
      </trkpt>
      <trkpt lat="36.4752890" lon="-6.1099830">
        <ele>23.4</ele>
        <time>2023-01-28T08:50:56Z</time>
      </trkpt>
      <trkpt lat="36.4752980" lon="-6.1099600">
        <ele>23.6</ele>
        <time>2023-01-28T08:50:57Z</time>
      </trkpt>
      <trkpt lat="36.4753140" lon="-6.1099730">
        <ele>23.6</ele>
        <time>2023-01-28T08:50:58Z</time>
      </trkpt>
      <trkpt lat="36.4753200" lon="-6.1099190">
        <ele>23.6</ele>
        <time>2023-01-28T08:50:59Z</time>
      </trkpt>
      <trkpt lat="36.4753000" lon="-6.1099190">
        <ele>23.6</ele>
        <time>2023-01-28T08:51:00Z</time>
      </trkpt>
      <trkpt lat="36.4752730" lon="-6.1098500">
        <ele>23.8</ele>
        <time>2023-01-28T08:51:01Z</time>
      </trkpt>
      <trkpt lat="36.4752520" lon="-6.1098260">
        <ele>23.8</ele>
        <time>2023-01-28T08:51:02Z</time>
      </trkpt>
      <trkpt lat="36.4752390" lon="-6.1097650">
        <ele>23.8</ele>
        <time>2023-01-28T08:51:03Z</time>
      </trkpt>
      <trkpt lat="36.4752370" lon="-6.1097340">
        <ele>23.8</ele>
        <time>2023-01-28T08:51:04Z</time>
      </trkpt>
      <trkpt lat="36.4752060" lon="-6.1096610">
        <ele>23.8</ele>
        <time>2023-01-28T08:51:05Z</time>
      </trkpt>
      <trkpt lat="36.4751970" lon="-6.1096480">
        <ele>23.8</ele>
        <time>2023-01-28T08:51:06Z</time>
      </trkpt>
      <trkpt lat="36.4751760" lon="-6.1095500">
        <ele>24.0</ele>
        <time>2023-01-28T08:51:07Z</time>
      </trkpt>
      <trkpt lat="36.4751860" lon="-6.1095080">
        <ele>24.2</ele>
        <time>2023-01-28T08:51:08Z</time>
      </trkpt>
      <trkpt lat="36.4751630" lon="-6.1094480">
        <ele>24.2</ele>
        <time>2023-01-28T08:51:09Z</time>
      </trkpt>
      <trkpt lat="36.4751600" lon="-6.1094210">
        <ele>24.4</ele>
        <time>2023-01-28T08:51:10Z</time>
      </trkpt>
      <trkpt lat="36.4751550" lon="-6.1093920">
        <ele>24.6</ele>
        <time>2023-01-28T08:51:11Z</time>
      </trkpt>
      <trkpt lat="36.4751480" lon="-6.1093630">
        <ele>24.4</ele>
        <time>2023-01-28T08:51:12Z</time>
      </trkpt>
      <trkpt lat="36.4751510" lon="-6.1093440">
        <ele>24.6</ele>
        <time>2023-01-28T08:51:13Z</time>
      </trkpt>
      <trkpt lat="36.4751500" lon="-6.1093020">
        <ele>24.8</ele>
        <time>2023-01-28T08:51:14Z</time>
      </trkpt>
      <trkpt lat="36.4751630" lon="-6.1093020">
        <ele>24.8</ele>
        <time>2023-01-28T08:51:15Z</time>
      </trkpt>
      <trkpt lat="36.4751480" lon="-6.1092600">
        <ele>24.6</ele>
        <time>2023-01-28T08:51:16Z</time>
      </trkpt>
      <trkpt lat="36.4751650" lon="-6.1092840">
        <ele>24.6</ele>
        <time>2023-01-28T08:51:17Z</time>
      </trkpt>
      <trkpt lat="36.4751450" lon="-6.1092060">
        <ele>24.8</ele>
        <time>2023-01-28T08:51:18Z</time>
      </trkpt>
      <trkpt lat="36.4751620" lon="-6.1091960">
        <ele>24.8</ele>
        <time>2023-01-28T08:51:19Z</time>
      </trkpt>
      <trkpt lat="36.4751610" lon="-6.1091730">
        <ele>24.8</ele>
        <time>2023-01-28T08:51:20Z</time>
      </trkpt>
      <trkpt lat="36.4751340" lon="-6.1090820">
        <ele>24.8</ele>
        <time>2023-01-28T08:51:21Z</time>
      </trkpt>
      <trkpt lat="36.4751150" lon="-6.1089960">
        <ele>25.0</ele>
        <time>2023-01-28T08:51:22Z</time>
      </trkpt>
      <trkpt lat="36.4751070" lon="-6.1089470">
        <ele>25.0</ele>
        <time>2023-01-28T08:51:23Z</time>
      </trkpt>
      <trkpt lat="36.4750940" lon="-6.1088950">
        <ele>25.2</ele>
        <time>2023-01-28T08:51:24Z</time>
      </trkpt>
      <trkpt lat="36.4750760" lon="-6.1088410">
        <ele>25.4</ele>
        <time>2023-01-28T08:51:25Z</time>
      </trkpt>
      <trkpt lat="36.4750930" lon="-6.1088690">
        <ele>25.4</ele>
        <time>2023-01-28T08:51:26Z</time>
      </trkpt>
      <trkpt lat="36.4750890" lon="-6.1088230">
        <ele>25.6</ele>
        <time>2023-01-28T08:51:27Z</time>
      </trkpt>
      <trkpt lat="36.4750830" lon="-6.1087670">
        <ele>26.0</ele>
        <time>2023-01-28T08:51:28Z</time>
      </trkpt>
      <trkpt lat="36.4750480" lon="-6.1087010">
        <ele>26.0</ele>
        <time>2023-01-28T08:51:29Z</time>
      </trkpt>
      <trkpt lat="36.4750490" lon="-6.1086490">
        <ele>26.2</ele>
        <time>2023-01-28T08:51:30Z</time>
      </trkpt>
      <trkpt lat="36.4750510" lon="-6.1086600">
        <ele>26.2</ele>
        <time>2023-01-28T08:51:31Z</time>
      </trkpt>
      <trkpt lat="36.4750410" lon="-6.1086470">
        <ele>26.2</ele>
        <time>2023-01-28T08:51:32Z</time>
      </trkpt>
      <trkpt lat="36.4750380" lon="-6.1086380">
        <ele>26.4</ele>
        <time>2023-01-28T08:51:33Z</time>
      </trkpt>
      <trkpt lat="36.4750540" lon="-6.1086230">
        <ele>26.4</ele>
        <time>2023-01-28T08:51:34Z</time>
      </trkpt>
      <trkpt lat="36.4750530" lon="-6.1086130">
        <ele>26.6</ele>
        <time>2023-01-28T08:51:35Z</time>
      </trkpt>
      <trkpt lat="36.4750410" lon="-6.1085810">
        <ele>26.8</ele>
        <time>2023-01-28T08:51:36Z</time>
      </trkpt>
      <trkpt lat="36.4750470" lon="-6.1085600">
        <ele>26.8</ele>
        <time>2023-01-28T08:51:37Z</time>
      </trkpt>
      <trkpt lat="36.4750530" lon="-6.1085390">
        <ele>26.8</ele>
        <time>2023-01-28T08:51:38Z</time>
      </trkpt>
      <trkpt lat="36.4750550" lon="-6.1085130">
        <ele>26.8</ele>
        <time>2023-01-28T08:51:39Z</time>
      </trkpt>
      <trkpt lat="36.4750380" lon="-6.1084430">
        <ele>26.8</ele>
        <time>2023-01-28T08:51:40Z</time>
      </trkpt>
      <trkpt lat="36.4750200" lon="-6.1083840">
        <ele>27.0</ele>
        <time>2023-01-28T08:51:41Z</time>
      </trkpt>
      <trkpt lat="36.4750210" lon="-6.1083600">
        <ele>27.0</ele>
        <time>2023-01-28T08:51:42Z</time>
      </trkpt>
      <trkpt lat="36.4750180" lon="-6.1083290">
        <ele>27.0</ele>
        <time>2023-01-28T08:51:43Z</time>
      </trkpt>
      <trkpt lat="36.4750000" lon="-6.1082780">
        <ele>27.0</ele>
        <time>2023-01-28T08:51:44Z</time>
      </trkpt>
      <trkpt lat="36.4749930" lon="-6.1082500">
        <ele>27.2</ele>
        <time>2023-01-28T08:51:45Z</time>
      </trkpt>
      <trkpt lat="36.4749680" lon="-6.1081730">
        <ele>27.2</ele>
        <time>2023-01-28T08:51:46Z</time>
      </trkpt>
      <trkpt lat="36.4749520" lon="-6.1081350">
        <ele>27.2</ele>
        <time>2023-01-28T08:51:47Z</time>
      </trkpt>
      <trkpt lat="36.4749460" lon="-6.1080950">
        <ele>27.6</ele>
        <time>2023-01-28T08:51:48Z</time>
      </trkpt>
      <trkpt lat="36.4749410" lon="-6.1080340">
        <ele>27.6</ele>
        <time>2023-01-28T08:51:49Z</time>
      </trkpt>
      <trkpt lat="36.4749240" lon="-6.1079830">
        <ele>27.4</ele>
        <time>2023-01-28T08:51:50Z</time>
      </trkpt>
      <trkpt lat="36.4749170" lon="-6.1079220">
        <ele>27.6</ele>
        <time>2023-01-28T08:51:51Z</time>
      </trkpt>
      <trkpt lat="36.4749190" lon="-6.1078950">
        <ele>28.0</ele>
        <time>2023-01-28T08:51:52Z</time>
      </trkpt>
      <trkpt lat="36.4749280" lon="-6.1078900">
        <ele>27.8</ele>
        <time>2023-01-28T08:51:53Z</time>
      </trkpt>
      <trkpt lat="36.4749320" lon="-6.1078780">
        <ele>27.4</ele>
        <time>2023-01-28T08:51:54Z</time>
      </trkpt>
      <trkpt lat="36.4749200" lon="-6.1078370">
        <ele>27.4</ele>
        <time>2023-01-28T08:51:55Z</time>
      </trkpt>
      <trkpt lat="36.4749180" lon="-6.1077830">
        <ele>27.4</ele>
        <time>2023-01-28T08:51:56Z</time>
      </trkpt>
      <trkpt lat="36.4749220" lon="-6.1077490">
        <ele>27.6</ele>
        <time>2023-01-28T08:51:57Z</time>
      </trkpt>
      <trkpt lat="36.4749150" lon="-6.1077130">
        <ele>27.6</ele>
        <time>2023-01-28T08:51:58Z</time>
      </trkpt>
      <trkpt lat="36.4749080" lon="-6.1076300">
        <ele>27.6</ele>
        <time>2023-01-28T08:51:59Z</time>
      </trkpt>
      <trkpt lat="36.4749060" lon="-6.1076180">
        <ele>27.8</ele>
        <time>2023-01-28T08:52:00Z</time>
      </trkpt>
      <trkpt lat="36.4748920" lon="-6.1075510">
        <ele>27.8</ele>
        <time>2023-01-28T08:52:01Z</time>
      </trkpt>
      <trkpt lat="36.4748990" lon="-6.1075310">
        <ele>27.8</ele>
        <time>2023-01-28T08:52:02Z</time>
      </trkpt>
      <trkpt lat="36.4748900" lon="-6.1074950">
        <ele>27.8</ele>
        <time>2023-01-28T08:52:03Z</time>
      </trkpt>
      <trkpt lat="36.4748730" lon="-6.1074230">
        <ele>28.0</ele>
        <time>2023-01-28T08:52:04Z</time>
      </trkpt>
      <trkpt lat="36.4748560" lon="-6.1073730">
        <ele>28.0</ele>
        <time>2023-01-28T08:52:05Z</time>
      </trkpt>
      <trkpt lat="36.4748470" lon="-6.1073400">
        <ele>28.2</ele>
        <time>2023-01-28T08:52:06Z</time>
      </trkpt>
      <trkpt lat="36.4748500" lon="-6.1073170">
        <ele>28.2</ele>
        <time>2023-01-28T08:52:07Z</time>
      </trkpt>
      <trkpt lat="36.4748260" lon="-6.1072430">
        <ele>28.4</ele>
        <time>2023-01-28T08:52:08Z</time>
      </trkpt>
      <trkpt lat="36.4748280" lon="-6.1072080">
        <ele>28.6</ele>
        <time>2023-01-28T08:52:09Z</time>
      </trkpt>
      <trkpt lat="36.4748140" lon="-6.1072110">
        <ele>28.6</ele>
        <time>2023-01-28T08:52:10Z</time>
      </trkpt>
      <trkpt lat="36.4748130" lon="-6.1071810">
        <ele>28.6</ele>
        <time>2023-01-28T08:52:11Z</time>
      </trkpt>
      <trkpt lat="36.4747930" lon="-6.1071110">
        <ele>28.8</ele>
        <time>2023-01-28T08:52:12Z</time>
      </trkpt>
      <trkpt lat="36.4747740" lon="-6.1070430">
        <ele>28.8</ele>
        <time>2023-01-28T08:52:13Z</time>
      </trkpt>
      <trkpt lat="36.4747730" lon="-6.1070300">
        <ele>29.0</ele>
        <time>2023-01-28T08:52:14Z</time>
      </trkpt>
      <trkpt lat="36.4747640" lon="-6.1069920">
        <ele>29.2</ele>
        <time>2023-01-28T08:52:15Z</time>
      </trkpt>
      <trkpt lat="36.4747690" lon="-6.1069740">
        <ele>29.4</ele>
        <time>2023-01-28T08:52:16Z</time>
      </trkpt>
      <trkpt lat="36.4747800" lon="-6.1069350">
        <ele>29.4</ele>
        <time>2023-01-28T08:52:17Z</time>
      </trkpt>
      <trkpt lat="36.4747590" lon="-6.1068580">
        <ele>29.6</ele>
        <time>2023-01-28T08:52:18Z</time>
      </trkpt>
      <trkpt lat="36.4747590" lon="-6.1068460">
        <ele>29.4</ele>
        <time>2023-01-28T08:52:19Z</time>
      </trkpt>
      <trkpt lat="36.4747690" lon="-6.1068380">
        <ele>29.6</ele>
        <time>2023-01-28T08:52:20Z</time>
      </trkpt>
      <trkpt lat="36.4747350" lon="-6.1067440">
        <ele>29.6</ele>
        <time>2023-01-28T08:52:21Z</time>
      </trkpt>
      <trkpt lat="36.4747340" lon="-6.1067180">
        <ele>29.8</ele>
        <time>2023-01-28T08:52:22Z</time>
      </trkpt>
      <trkpt lat="36.4747280" lon="-6.1066850">
        <ele>30.0</ele>
        <time>2023-01-28T08:52:23Z</time>
      </trkpt>
      <trkpt lat="36.4747220" lon="-6.1066570">
        <ele>30.0</ele>
        <time>2023-01-28T08:52:24Z</time>
      </trkpt>
      <trkpt lat="36.4747160" lon="-6.1066110">
        <ele>30.2</ele>
        <time>2023-01-28T08:52:25Z</time>
      </trkpt>
      <trkpt lat="36.4747140" lon="-6.1065950">
        <ele>30.2</ele>
        <time>2023-01-28T08:52:26Z</time>
      </trkpt>
      <trkpt lat="36.4747060" lon="-6.1065570">
        <ele>30.2</ele>
        <time>2023-01-28T08:52:27Z</time>
      </trkpt>
      <trkpt lat="36.4747110" lon="-6.1065410">
        <ele>30.2</ele>
        <time>2023-01-28T08:52:28Z</time>
      </trkpt>
      <trkpt lat="36.4747140" lon="-6.1065390">
        <ele>30.4</ele>
        <time>2023-01-28T08:52:29Z</time>
      </trkpt>
      <trkpt lat="36.4747200" lon="-6.1065750">
        <ele>30.4</ele>
        <time>2023-01-28T08:52:30Z</time>
      </trkpt>
      <trkpt lat="36.4747080" lon="-6.1065750">
        <ele>30.4</ele>
        <time>2023-01-28T08:52:31Z</time>
      </trkpt>
      <trkpt lat="36.4746970" lon="-6.1065170">
        <ele>30.6</ele>
        <time>2023-01-28T08:52:32Z</time>
      </trkpt>
      <trkpt lat="36.4746870" lon="-6.1064450">
        <ele>30.6</ele>
        <time>2023-01-28T08:52:33Z</time>
      </trkpt>
      <trkpt lat="36.4746810" lon="-6.1064210">
        <ele>30.6</ele>
        <time>2023-01-28T08:52:34Z</time>
      </trkpt>
      <trkpt lat="36.4746650" lon="-6.1063760">
        <ele>30.6</ele>
        <time>2023-01-28T08:52:35Z</time>
      </trkpt>
      <trkpt lat="36.4746560" lon="-6.1063260">
        <ele>30.6</ele>
        <time>2023-01-28T08:52:36Z</time>
      </trkpt>
      <trkpt lat="36.4746720" lon="-6.1063270">
        <ele>30.6</ele>
        <time>2023-01-28T08:52:37Z</time>
      </trkpt>
      <trkpt lat="36.4746950" lon="-6.1063480">
        <ele>30.6</ele>
        <time>2023-01-28T08:52:38Z</time>
      </trkpt>
      <trkpt lat="36.4746910" lon="-6.1063050">
        <ele>30.8</ele>
        <time>2023-01-28T08:52:39Z</time>
      </trkpt>
      <trkpt lat="36.4746620" lon="-6.1062180">
        <ele>30.6</ele>
        <time>2023-01-28T08:52:40Z</time>
      </trkpt>
      <trkpt lat="36.4746650" lon="-6.1061390">
        <ele>30.8</ele>
        <time>2023-01-28T08:52:41Z</time>
      </trkpt>
      <trkpt lat="36.4746460" lon="-6.1060750">
        <ele>31.0</ele>
        <time>2023-01-28T08:52:42Z</time>
      </trkpt>
      <trkpt lat="36.4746490" lon="-6.1060420">
        <ele>31.2</ele>
        <time>2023-01-28T08:52:43Z</time>
      </trkpt>
      <trkpt lat="36.4746560" lon="-6.1060080">
        <ele>30.6</ele>
        <time>2023-01-28T08:52:44Z</time>
      </trkpt>
      <trkpt lat="36.4746370" lon="-6.1059960">
        <ele>30.6</ele>
        <time>2023-01-28T08:52:45Z</time>
      </trkpt>
      <trkpt lat="36.4746200" lon="-6.1059460">
        <ele>30.6</ele>
        <time>2023-01-28T08:52:46Z</time>
      </trkpt>
      <trkpt lat="36.4745970" lon="-6.1058600">
        <ele>30.8</ele>
        <time>2023-01-28T08:52:47Z</time>
      </trkpt>
      <trkpt lat="36.4745990" lon="-6.1057970">
        <ele>30.6</ele>
        <time>2023-01-28T08:52:48Z</time>
      </trkpt>
      <trkpt lat="36.4745910" lon="-6.1057410">
        <ele>30.6</ele>
        <time>2023-01-28T08:52:49Z</time>
      </trkpt>
      <trkpt lat="36.4745860" lon="-6.1057010">
        <ele>31.0</ele>
        <time>2023-01-28T08:52:50Z</time>
      </trkpt>
      <trkpt lat="36.4745650" lon="-6.1056280">
        <ele>31.0</ele>
        <time>2023-01-28T08:52:51Z</time>
      </trkpt>
      <trkpt lat="36.4745690" lon="-6.1056100">
        <ele>31.0</ele>
        <time>2023-01-28T08:52:52Z</time>
      </trkpt>
      <trkpt lat="36.4745820" lon="-6.1055970">
        <ele>31.0</ele>
        <time>2023-01-28T08:52:53Z</time>
      </trkpt>
      <trkpt lat="36.4745730" lon="-6.1055610">
        <ele>31.0</ele>
        <time>2023-01-28T08:52:54Z</time>
      </trkpt>
      <trkpt lat="36.4745800" lon="-6.1055650">
        <ele>31.2</ele>
        <time>2023-01-28T08:52:55Z</time>
      </trkpt>
      <trkpt lat="36.4745710" lon="-6.1055420">
        <ele>31.2</ele>
        <time>2023-01-28T08:52:56Z</time>
      </trkpt>
      <trkpt lat="36.4745710" lon="-6.1055220">
        <ele>31.0</ele>
        <time>2023-01-28T08:52:57Z</time>
      </trkpt>
      <trkpt lat="36.4745850" lon="-6.1055360">
        <ele>31.4</ele>
        <time>2023-01-28T08:52:58Z</time>
      </trkpt>
      <trkpt lat="36.4745870" lon="-6.1055150">
        <ele>31.2</ele>
        <time>2023-01-28T08:52:59Z</time>
      </trkpt>
      <trkpt lat="36.4745650" lon="-6.1054290">
        <ele>31.2</ele>
        <time>2023-01-28T08:53:00Z</time>
      </trkpt>
      <trkpt lat="36.4745480" lon="-6.1054010">
        <ele>31.2</ele>
        <time>2023-01-28T08:53:01Z</time>
      </trkpt>
      <trkpt lat="36.4745490" lon="-6.1053660">
        <ele>31.0</ele>
        <time>2023-01-28T08:53:02Z</time>
      </trkpt>
      <trkpt lat="36.4745300" lon="-6.1052990">
        <ele>31.2</ele>
        <time>2023-01-28T08:53:03Z</time>
      </trkpt>
      <trkpt lat="36.4745230" lon="-6.1052420">
        <ele>31.2</ele>
        <time>2023-01-28T08:53:04Z</time>
      </trkpt>
      <trkpt lat="36.4745140" lon="-6.1051840">
        <ele>31.4</ele>
        <time>2023-01-28T08:53:05Z</time>
      </trkpt>
      <trkpt lat="36.4744990" lon="-6.1051150">
        <ele>31.4</ele>
        <time>2023-01-28T08:53:06Z</time>
      </trkpt>
      <trkpt lat="36.4744980" lon="-6.1050890">
        <ele>31.6</ele>
        <time>2023-01-28T08:53:07Z</time>
      </trkpt>
      <trkpt lat="36.4744790" lon="-6.1050510">
        <ele>31.6</ele>
        <time>2023-01-28T08:53:08Z</time>
      </trkpt>
      <trkpt lat="36.4744760" lon="-6.1050120">
        <ele>31.8</ele>
        <time>2023-01-28T08:53:09Z</time>
      </trkpt>
      <trkpt lat="36.4744740" lon="-6.1050040">
        <ele>31.8</ele>
        <time>2023-01-28T08:53:10Z</time>
      </trkpt>
      <trkpt lat="36.4744650" lon="-6.1049700">
        <ele>31.6</ele>
        <time>2023-01-28T08:53:11Z</time>
      </trkpt>
      <trkpt lat="36.4744500" lon="-6.1049060">
        <ele>31.8</ele>
        <time>2023-01-28T08:53:12Z</time>
      </trkpt>
      <trkpt lat="36.4744620" lon="-6.1049190">
        <ele>31.6</ele>
        <time>2023-01-28T08:53:13Z</time>
      </trkpt>
      <trkpt lat="36.4744530" lon="-6.1048640">
        <ele>31.8</ele>
        <time>2023-01-28T08:53:14Z</time>
      </trkpt>
      <trkpt lat="36.4744480" lon="-6.1048330">
        <ele>31.8</ele>
        <time>2023-01-28T08:53:15Z</time>
      </trkpt>
      <trkpt lat="36.4744550" lon="-6.1048350">
        <ele>31.8</ele>
        <time>2023-01-28T08:53:16Z</time>
      </trkpt>
      <trkpt lat="36.4744660" lon="-6.1047740">
        <ele>31.8</ele>
        <time>2023-01-28T08:53:17Z</time>
      </trkpt>
      <trkpt lat="36.4744500" lon="-6.1047310">
        <ele>32.0</ele>
        <time>2023-01-28T08:53:18Z</time>
      </trkpt>
      <trkpt lat="36.4744250" lon="-6.1046620">
        <ele>31.8</ele>
        <time>2023-01-28T08:53:19Z</time>
      </trkpt>
      <trkpt lat="36.4744220" lon="-6.1046370">
        <ele>31.8</ele>
        <time>2023-01-28T08:53:20Z</time>
      </trkpt>
      <trkpt lat="36.4743970" lon="-6.1045710">
        <ele>32.0</ele>
        <time>2023-01-28T08:53:21Z</time>
      </trkpt>
      <trkpt lat="36.4744010" lon="-6.1045420">
        <ele>32.0</ele>
        <time>2023-01-28T08:53:22Z</time>
      </trkpt>
      <trkpt lat="36.4744030" lon="-6.1045180">
        <ele>32.2</ele>
        <time>2023-01-28T08:53:23Z</time>
      </trkpt>
      <trkpt lat="36.4743920" lon="-6.1044710">
        <ele>32.4</ele>
        <time>2023-01-28T08:53:24Z</time>
      </trkpt>
      <trkpt lat="36.4743790" lon="-6.1043820">
        <ele>32.4</ele>
        <time>2023-01-28T08:53:25Z</time>
      </trkpt>
      <trkpt lat="36.4743660" lon="-6.1043480">
        <ele>32.4</ele>
        <time>2023-01-28T08:53:26Z</time>
      </trkpt>
      <trkpt lat="36.4743680" lon="-6.1043290">
        <ele>32.4</ele>
        <time>2023-01-28T08:53:27Z</time>
      </trkpt>
      <trkpt lat="36.4743680" lon="-6.1043210">
        <ele>32.6</ele>
        <time>2023-01-28T08:53:28Z</time>
      </trkpt>
      <trkpt lat="36.4743500" lon="-6.1042690">
        <ele>32.8</ele>
        <time>2023-01-28T08:53:29Z</time>
      </trkpt>
      <trkpt lat="36.4743560" lon="-6.1042290">
        <ele>32.8</ele>
        <time>2023-01-28T08:53:30Z</time>
      </trkpt>
      <trkpt lat="36.4743450" lon="-6.1041600">
        <ele>32.8</ele>
        <time>2023-01-28T08:53:31Z</time>
      </trkpt>
      <trkpt lat="36.4743380" lon="-6.1041140">
        <ele>33.0</ele>
        <time>2023-01-28T08:53:32Z</time>
      </trkpt>
      <trkpt lat="36.4743280" lon="-6.1041070">
        <ele>33.2</ele>
        <time>2023-01-28T08:53:33Z</time>
      </trkpt>
      <trkpt lat="36.4743170" lon="-6.1040340">
        <ele>33.2</ele>
        <time>2023-01-28T08:53:34Z</time>
      </trkpt>
      <trkpt lat="36.4743110" lon="-6.1039810">
        <ele>33.4</ele>
        <time>2023-01-28T08:53:35Z</time>
      </trkpt>
      <trkpt lat="36.4743200" lon="-6.1039670">
        <ele>33.6</ele>
        <time>2023-01-28T08:53:36Z</time>
      </trkpt>
      <trkpt lat="36.4743220" lon="-6.1039310">
        <ele>33.6</ele>
        <time>2023-01-28T08:53:37Z</time>
      </trkpt>
      <trkpt lat="36.4743130" lon="-6.1039060">
        <ele>33.4</ele>
        <time>2023-01-28T08:53:38Z</time>
      </trkpt>
      <trkpt lat="36.4743120" lon="-6.1038810">
        <ele>33.4</ele>
        <time>2023-01-28T08:53:39Z</time>
      </trkpt>
      <trkpt lat="36.4743050" lon="-6.1038310">
        <ele>33.6</ele>
        <time>2023-01-28T08:53:40Z</time>
      </trkpt>
      <trkpt lat="36.4742870" lon="-6.1037890">
        <ele>33.6</ele>
        <time>2023-01-28T08:53:41Z</time>
      </trkpt>
      <trkpt lat="36.4742920" lon="-6.1037810">
        <ele>33.6</ele>
        <time>2023-01-28T08:53:42Z</time>
      </trkpt>
      <trkpt lat="36.4742920" lon="-6.1037690">
        <ele>33.6</ele>
        <time>2023-01-28T08:53:43Z</time>
      </trkpt>
      <trkpt lat="36.4742680" lon="-6.1036950">
        <ele>33.6</ele>
        <time>2023-01-28T08:53:44Z</time>
      </trkpt>
      <trkpt lat="36.4742530" lon="-6.1036560">
        <ele>33.8</ele>
        <time>2023-01-28T08:53:45Z</time>
      </trkpt>
      <trkpt lat="36.4742300" lon="-6.1036020">
        <ele>34.0</ele>
        <time>2023-01-28T08:53:46Z</time>
      </trkpt>
      <trkpt lat="36.4742050" lon="-6.1035330">
        <ele>34.0</ele>
        <time>2023-01-28T08:53:47Z</time>
      </trkpt>
      <trkpt lat="36.4741990" lon="-6.1035180">
        <ele>34.0</ele>
        <time>2023-01-28T08:53:48Z</time>
      </trkpt>
      <trkpt lat="36.4741970" lon="-6.1034740">
        <ele>34.0</ele>
        <time>2023-01-28T08:53:49Z</time>
      </trkpt>
      <trkpt lat="36.4742090" lon="-6.1034740">
        <ele>34.4</ele>
        <time>2023-01-28T08:53:50Z</time>
      </trkpt>
      <trkpt lat="36.4742000" lon="-6.1034580">
        <ele>34.4</ele>
        <time>2023-01-28T08:53:51Z</time>
      </trkpt>
      <trkpt lat="36.4741900" lon="-6.1034220">
        <ele>34.6</ele>
        <time>2023-01-28T08:53:52Z</time>
      </trkpt>
      <trkpt lat="36.4741670" lon="-6.1033660">
        <ele>34.4</ele>
        <time>2023-01-28T08:53:53Z</time>
      </trkpt>
      <trkpt lat="36.4741520" lon="-6.1033360">
        <ele>34.6</ele>
        <time>2023-01-28T08:53:54Z</time>
      </trkpt>
      <trkpt lat="36.4741340" lon="-6.1032740">
        <ele>34.6</ele>
        <time>2023-01-28T08:53:55Z</time>
      </trkpt>
      <trkpt lat="36.4741290" lon="-6.1032530">
        <ele>34.8</ele>
        <time>2023-01-28T08:53:56Z</time>
      </trkpt>
      <trkpt lat="36.4741240" lon="-6.1032300">
        <ele>35.2</ele>
        <time>2023-01-28T08:53:57Z</time>
      </trkpt>
      <trkpt lat="36.4741100" lon="-6.1032010">
        <ele>35.2</ele>
        <time>2023-01-28T08:53:58Z</time>
      </trkpt>
      <trkpt lat="36.4741100" lon="-6.1031750">
        <ele>35.2</ele>
        <time>2023-01-28T08:53:59Z</time>
      </trkpt>
      <trkpt lat="36.4741060" lon="-6.1031420">
        <ele>35.2</ele>
        <time>2023-01-28T08:54:00Z</time>
      </trkpt>
      <trkpt lat="36.4740920" lon="-6.1031080">
        <ele>35.4</ele>
        <time>2023-01-28T08:54:01Z</time>
      </trkpt>
      <trkpt lat="36.4740820" lon="-6.1030790">
        <ele>35.6</ele>
        <time>2023-01-28T08:54:02Z</time>
      </trkpt>
      <trkpt lat="36.4740800" lon="-6.1030600">
        <ele>35.6</ele>
        <time>2023-01-28T08:54:03Z</time>
      </trkpt>
      <trkpt lat="36.4740630" lon="-6.1030070">
        <ele>35.8</ele>
        <time>2023-01-28T08:54:04Z</time>
      </trkpt>
      <trkpt lat="36.4740570" lon="-6.1029760">
        <ele>36.0</ele>
        <time>2023-01-28T08:54:05Z</time>
      </trkpt>
      <trkpt lat="36.4740400" lon="-6.1029050">
        <ele>36.0</ele>
        <time>2023-01-28T08:54:06Z</time>
      </trkpt>
      <trkpt lat="36.4740340" lon="-6.1028570">
        <ele>35.8</ele>
        <time>2023-01-28T08:54:07Z</time>
      </trkpt>
      <trkpt lat="36.4740190" lon="-6.1028190">
        <ele>35.8</ele>
        <time>2023-01-28T08:54:08Z</time>
      </trkpt>
      <trkpt lat="36.4740100" lon="-6.1027800">
        <ele>35.8</ele>
        <time>2023-01-28T08:54:09Z</time>
      </trkpt>
      <trkpt lat="36.4740060" lon="-6.1027410">
        <ele>36.0</ele>
        <time>2023-01-28T08:54:10Z</time>
      </trkpt>
      <trkpt lat="36.4739970" lon="-6.1026850">
        <ele>36.2</ele>
        <time>2023-01-28T08:54:11Z</time>
      </trkpt>
      <trkpt lat="36.4739870" lon="-6.1026330">
        <ele>36.4</ele>
        <time>2023-01-28T08:54:12Z</time>
      </trkpt>
      <trkpt lat="36.4739680" lon="-6.1025800">
        <ele>36.4</ele>
        <time>2023-01-28T08:54:13Z</time>
      </trkpt>
      <trkpt lat="36.4739610" lon="-6.1025630">
        <ele>36.4</ele>
        <time>2023-01-28T08:54:14Z</time>
      </trkpt>
      <trkpt lat="36.4739490" lon="-6.1025070">
        <ele>36.4</ele>
        <time>2023-01-28T08:54:15Z</time>
      </trkpt>
      <trkpt lat="36.4739370" lon="-6.1024740">
        <ele>36.6</ele>
        <time>2023-01-28T08:54:16Z</time>
      </trkpt>
      <trkpt lat="36.4739290" lon="-6.1024660">
        <ele>36.6</ele>
        <time>2023-01-28T08:54:17Z</time>
      </trkpt>
      <trkpt lat="36.4739340" lon="-6.1024300">
        <ele>36.4</ele>
        <time>2023-01-28T08:54:18Z</time>
      </trkpt>
      <trkpt lat="36.4739290" lon="-6.1024130">
        <ele>36.6</ele>
        <time>2023-01-28T08:54:19Z</time>
      </trkpt>
      <trkpt lat="36.4739220" lon="-6.1023830">
        <ele>37.0</ele>
        <time>2023-01-28T08:54:20Z</time>
      </trkpt>
      <trkpt lat="36.4738970" lon="-6.1023150">
        <ele>36.8</ele>
        <time>2023-01-28T08:54:21Z</time>
      </trkpt>
      <trkpt lat="36.4738810" lon="-6.1022840">
        <ele>37.0</ele>
        <time>2023-01-28T08:54:22Z</time>
      </trkpt>
      <trkpt lat="36.4738670" lon="-6.1022370">
        <ele>37.4</ele>
        <time>2023-01-28T08:54:23Z</time>
      </trkpt>
      <trkpt lat="36.4738600" lon="-6.1021960">
        <ele>37.2</ele>
        <time>2023-01-28T08:54:24Z</time>
      </trkpt>
      <trkpt lat="36.4738450" lon="-6.1021460">
        <ele>37.6</ele>
        <time>2023-01-28T08:54:25Z</time>
      </trkpt>
      <trkpt lat="36.4738470" lon="-6.1021180">
        <ele>37.4</ele>
        <time>2023-01-28T08:54:26Z</time>
      </trkpt>
      <trkpt lat="36.4738380" lon="-6.1020980">
        <ele>37.4</ele>
        <time>2023-01-28T08:54:27Z</time>
      </trkpt>
      <trkpt lat="36.4738380" lon="-6.1020860">
        <ele>37.6</ele>
        <time>2023-01-28T08:54:28Z</time>
      </trkpt>
      <trkpt lat="36.4738240" lon="-6.1020520">
        <ele>38.0</ele>
        <time>2023-01-28T08:54:29Z</time>
      </trkpt>
      <trkpt lat="36.4738280" lon="-6.1020650">
        <ele>37.8</ele>
        <time>2023-01-28T08:54:30Z</time>
      </trkpt>
      <trkpt lat="36.4738260" lon="-6.1020560">
        <ele>37.8</ele>
        <time>2023-01-28T08:54:31Z</time>
      </trkpt>
      <trkpt lat="36.4738060" lon="-6.1019920">
        <ele>38.4</ele>
        <time>2023-01-28T08:54:32Z</time>
      </trkpt>
      <trkpt lat="36.4738020" lon="-6.1019550">
        <ele>38.6</ele>
        <time>2023-01-28T08:54:33Z</time>
      </trkpt>
      <trkpt lat="36.4737950" lon="-6.1019000">
        <ele>38.6</ele>
        <time>2023-01-28T08:54:34Z</time>
      </trkpt>
      <trkpt lat="36.4737760" lon="-6.1018540">
        <ele>38.4</ele>
        <time>2023-01-28T08:54:35Z</time>
      </trkpt>
      <trkpt lat="36.4737750" lon="-6.1018420">
        <ele>38.4</ele>
        <time>2023-01-28T08:54:36Z</time>
      </trkpt>
      <trkpt lat="36.4737730" lon="-6.1018110">
        <ele>38.2</ele>
        <time>2023-01-28T08:54:37Z</time>
      </trkpt>
      <trkpt lat="36.4737520" lon="-6.1017680">
        <ele>38.2</ele>
        <time>2023-01-28T08:54:38Z</time>
      </trkpt>
      <trkpt lat="36.4737260" lon="-6.1017200">
        <ele>38.0</ele>
        <time>2023-01-28T08:54:39Z</time>
      </trkpt>
      <trkpt lat="36.4737240" lon="-6.1017000">
        <ele>38.2</ele>
        <time>2023-01-28T08:54:40Z</time>
      </trkpt>
      <trkpt lat="36.4737200" lon="-6.1016640">
        <ele>38.4</ele>
        <time>2023-01-28T08:54:41Z</time>
      </trkpt>
      <trkpt lat="36.4737130" lon="-6.1016170">
        <ele>38.6</ele>
        <time>2023-01-28T08:54:42Z</time>
      </trkpt>
      <trkpt lat="36.4737320" lon="-6.1016430">
        <ele>38.8</ele>
        <time>2023-01-28T08:54:43Z</time>
      </trkpt>
      <trkpt lat="36.4737290" lon="-6.1016220">
        <ele>38.8</ele>
        <time>2023-01-28T08:54:44Z</time>
      </trkpt>
      <trkpt lat="36.4737280" lon="-6.1016200">
        <ele>39.0</ele>
        <time>2023-01-28T08:54:45Z</time>
      </trkpt>
      <trkpt lat="36.4737010" lon="-6.1015500">
        <ele>39.2</ele>
        <time>2023-01-28T08:54:46Z</time>
      </trkpt>
      <trkpt lat="36.4736810" lon="-6.1014990">
        <ele>39.4</ele>
        <time>2023-01-28T08:54:47Z</time>
      </trkpt>
      <trkpt lat="36.4736780" lon="-6.1014810">
        <ele>39.2</ele>
        <time>2023-01-28T08:54:48Z</time>
      </trkpt>
      <trkpt lat="36.4736620" lon="-6.1014490">
        <ele>39.4</ele>
        <time>2023-01-28T08:54:49Z</time>
      </trkpt>
      <trkpt lat="36.4736460" lon="-6.1014000">
        <ele>40.0</ele>
        <time>2023-01-28T08:54:50Z</time>
      </trkpt>
      <trkpt lat="36.4736350" lon="-6.1013410">
        <ele>39.8</ele>
        <time>2023-01-28T08:54:51Z</time>
      </trkpt>
      <trkpt lat="36.4736190" lon="-6.1012920">
        <ele>39.8</ele>
        <time>2023-01-28T08:54:52Z</time>
      </trkpt>
      <trkpt lat="36.4735990" lon="-6.1012380">
        <ele>39.8</ele>
        <time>2023-01-28T08:54:53Z</time>
      </trkpt>
      <trkpt lat="36.4735860" lon="-6.1011910">
        <ele>39.8</ele>
        <time>2023-01-28T08:54:54Z</time>
      </trkpt>
      <trkpt lat="36.4735620" lon="-6.1011290">
        <ele>39.8</ele>
        <time>2023-01-28T08:54:55Z</time>
      </trkpt>
      <trkpt lat="36.4735560" lon="-6.1011110">
        <ele>39.8</ele>
        <time>2023-01-28T08:54:56Z</time>
      </trkpt>
      <trkpt lat="36.4735440" lon="-6.1010720">
        <ele>40.0</ele>
        <time>2023-01-28T08:54:57Z</time>
      </trkpt>
      <trkpt lat="36.4735320" lon="-6.1010440">
        <ele>40.0</ele>
        <time>2023-01-28T08:54:58Z</time>
      </trkpt>
      <trkpt lat="36.4735060" lon="-6.1009720">
        <ele>40.2</ele>
        <time>2023-01-28T08:54:59Z</time>
      </trkpt>
      <trkpt lat="36.4734860" lon="-6.1009180">
        <ele>40.2</ele>
        <time>2023-01-28T08:55:00Z</time>
      </trkpt>
      <trkpt lat="36.4734790" lon="-6.1008930">
        <ele>40.0</ele>
        <time>2023-01-28T08:55:01Z</time>
      </trkpt>
      <trkpt lat="36.4734810" lon="-6.1008540">
        <ele>39.8</ele>
        <time>2023-01-28T08:55:02Z</time>
      </trkpt>
      <trkpt lat="36.4734940" lon="-6.1008560">
        <ele>39.8</ele>
        <time>2023-01-28T08:55:03Z</time>
      </trkpt>
      <trkpt lat="36.4734880" lon="-6.1008230">
        <ele>40.0</ele>
        <time>2023-01-28T08:55:04Z</time>
      </trkpt>
      <trkpt lat="36.4734740" lon="-6.1007900">
        <ele>39.8</ele>
        <time>2023-01-28T08:55:05Z</time>
      </trkpt>
      <trkpt lat="36.4734610" lon="-6.1007660">
        <ele>39.8</ele>
        <time>2023-01-28T08:55:06Z</time>
      </trkpt>
      <trkpt lat="36.4734520" lon="-6.1007160">
        <ele>40.0</ele>
        <time>2023-01-28T08:55:07Z</time>
      </trkpt>
      <trkpt lat="36.4734440" lon="-6.1006880">
        <ele>40.0</ele>
        <time>2023-01-28T08:55:08Z</time>
      </trkpt>
      <trkpt lat="36.4734320" lon="-6.1006490">
        <ele>40.0</ele>
        <time>2023-01-28T08:55:09Z</time>
      </trkpt>
      <trkpt lat="36.4734250" lon="-6.1006120">
        <ele>40.2</ele>
        <time>2023-01-28T08:55:10Z</time>
      </trkpt>
      <trkpt lat="36.4734140" lon="-6.1005830">
        <ele>40.0</ele>
        <time>2023-01-28T08:55:11Z</time>
      </trkpt>
      <trkpt lat="36.4734070" lon="-6.1005340">
        <ele>40.2</ele>
        <time>2023-01-28T08:55:12Z</time>
      </trkpt>
      <trkpt lat="36.4733940" lon="-6.1005080">
        <ele>40.2</ele>
        <time>2023-01-28T08:55:13Z</time>
      </trkpt>
      <trkpt lat="36.4733830" lon="-6.1004660">
        <ele>40.4</ele>
        <time>2023-01-28T08:55:14Z</time>
      </trkpt>
      <trkpt lat="36.4733700" lon="-6.1004280">
        <ele>40.2</ele>
        <time>2023-01-28T08:55:15Z</time>
      </trkpt>
      <trkpt lat="36.4733750" lon="-6.1004120">
        <ele>40.4</ele>
        <time>2023-01-28T08:55:16Z</time>
      </trkpt>
      <trkpt lat="36.4733610" lon="-6.1003520">
        <ele>40.6</ele>
        <time>2023-01-28T08:55:17Z</time>
      </trkpt>
      <trkpt lat="36.4733520" lon="-6.1003130">
        <ele>40.6</ele>
        <time>2023-01-28T08:55:18Z</time>
      </trkpt>
      <trkpt lat="36.4733510" lon="-6.1002780">
        <ele>40.8</ele>
        <time>2023-01-28T08:55:19Z</time>
      </trkpt>
      <trkpt lat="36.4733370" lon="-6.1002150">
        <ele>41.0</ele>
        <time>2023-01-28T08:55:20Z</time>
      </trkpt>
      <trkpt lat="36.4733320" lon="-6.1001860">
        <ele>40.6</ele>
        <time>2023-01-28T08:55:21Z</time>
      </trkpt>
      <trkpt lat="36.4733260" lon="-6.1001640">
        <ele>40.6</ele>
        <time>2023-01-28T08:55:22Z</time>
      </trkpt>
      <trkpt lat="36.4733220" lon="-6.1001100">
        <ele>41.0</ele>
        <time>2023-01-28T08:55:23Z</time>
      </trkpt>
      <trkpt lat="36.4733220" lon="-6.1000870">
        <ele>41.2</ele>
        <time>2023-01-28T08:55:24Z</time>
      </trkpt>
      <trkpt lat="36.4733110" lon="-6.1000470">
        <ele>41.2</ele>
        <time>2023-01-28T08:55:25Z</time>
      </trkpt>
      <trkpt lat="36.4733020" lon="-6.1000170">
        <ele>41.2</ele>
        <time>2023-01-28T08:55:26Z</time>
      </trkpt>
      <trkpt lat="36.4732790" lon="-6.0999640">
        <ele>41.2</ele>
        <time>2023-01-28T08:55:27Z</time>
      </trkpt>
      <trkpt lat="36.4732480" lon="-6.0999220">
        <ele>41.2</ele>
        <time>2023-01-28T08:55:28Z</time>
      </trkpt>
      <trkpt lat="36.4732490" lon="-6.0998680">
        <ele>41.2</ele>
        <time>2023-01-28T08:55:29Z</time>
      </trkpt>
      <trkpt lat="36.4732300" lon="-6.0998330">
        <ele>41.2</ele>
        <time>2023-01-28T08:55:30Z</time>
      </trkpt>
      <trkpt lat="36.4732220" lon="-6.0997860">
        <ele>41.4</ele>
        <time>2023-01-28T08:55:31Z</time>
      </trkpt>
      <trkpt lat="36.4732060" lon="-6.0997400">
        <ele>41.4</ele>
        <time>2023-01-28T08:55:32Z</time>
      </trkpt>
      <trkpt lat="36.4731860" lon="-6.0996910">
        <ele>41.8</ele>
        <time>2023-01-28T08:55:33Z</time>
      </trkpt>
      <trkpt lat="36.4731820" lon="-6.0996470">
        <ele>41.8</ele>
        <time>2023-01-28T08:55:34Z</time>
      </trkpt>
      <trkpt lat="36.4731780" lon="-6.0996370">
        <ele>41.8</ele>
        <time>2023-01-28T08:55:35Z</time>
      </trkpt>
      <trkpt lat="36.4731460" lon="-6.0995790">
        <ele>41.8</ele>
        <time>2023-01-28T08:55:36Z</time>
      </trkpt>
      <trkpt lat="36.4731330" lon="-6.0995790">
        <ele>41.8</ele>
        <time>2023-01-28T08:55:37Z</time>
      </trkpt>
      <trkpt lat="36.4731100" lon="-6.0995190">
        <ele>41.8</ele>
        <time>2023-01-28T08:55:38Z</time>
      </trkpt>
      <trkpt lat="36.4731070" lon="-6.0994870">
        <ele>41.8</ele>
        <time>2023-01-28T08:55:39Z</time>
      </trkpt>
      <trkpt lat="36.4731110" lon="-6.0994780">
        <ele>42.0</ele>
        <time>2023-01-28T08:55:40Z</time>
      </trkpt>
      <trkpt lat="36.4731070" lon="-6.0994420">
        <ele>42.2</ele>
        <time>2023-01-28T08:55:41Z</time>
      </trkpt>
      <trkpt lat="36.4730990" lon="-6.0993870">
        <ele>42.4</ele>
        <time>2023-01-28T08:55:42Z</time>
      </trkpt>
      <trkpt lat="36.4730950" lon="-6.0993470">
        <ele>42.2</ele>
        <time>2023-01-28T08:55:43Z</time>
      </trkpt>
      <trkpt lat="36.4730770" lon="-6.0992870">
        <ele>42.2</ele>
        <time>2023-01-28T08:55:44Z</time>
      </trkpt>
      <trkpt lat="36.4730770" lon="-6.0992790">
        <ele>42.2</ele>
        <time>2023-01-28T08:55:45Z</time>
      </trkpt>
      <trkpt lat="36.4730660" lon="-6.0992500">
        <ele>42.2</ele>
        <time>2023-01-28T08:55:46Z</time>
      </trkpt>
      <trkpt lat="36.4730630" lon="-6.0992370">
        <ele>42.4</ele>
        <time>2023-01-28T08:55:47Z</time>
      </trkpt>
      <trkpt lat="36.4730610" lon="-6.0991790">
        <ele>42.4</ele>
        <time>2023-01-28T08:55:48Z</time>
      </trkpt>
      <trkpt lat="36.4730480" lon="-6.0991470">
        <ele>42.4</ele>
        <time>2023-01-28T08:55:49Z</time>
      </trkpt>
      <trkpt lat="36.4730290" lon="-6.0990910">
        <ele>42.4</ele>
        <time>2023-01-28T08:55:50Z</time>
      </trkpt>
      <trkpt lat="36.4730040" lon="-6.0990170">
        <ele>43.0</ele>
        <time>2023-01-28T08:55:51Z</time>
      </trkpt>
      <trkpt lat="36.4729950" lon="-6.0989900">
        <ele>43.0</ele>
        <time>2023-01-28T08:55:52Z</time>
      </trkpt>
      <trkpt lat="36.4729950" lon="-6.0989650">
        <ele>42.8</ele>
        <time>2023-01-28T08:55:53Z</time>
      </trkpt>
      <trkpt lat="36.4729850" lon="-6.0989070">
        <ele>43.0</ele>
        <time>2023-01-28T08:55:54Z</time>
      </trkpt>
      <trkpt lat="36.4729800" lon="-6.0988680">
        <ele>43.0</ele>
        <time>2023-01-28T08:55:55Z</time>
      </trkpt>
      <trkpt lat="36.4729620" lon="-6.0988210">
        <ele>43.0</ele>
        <time>2023-01-28T08:55:56Z</time>
      </trkpt>
      <trkpt lat="36.4729710" lon="-6.0988280">
        <ele>43.0</ele>
        <time>2023-01-28T08:55:57Z</time>
      </trkpt>
      <trkpt lat="36.4729640" lon="-6.0988050">
        <ele>43.2</ele>
        <time>2023-01-28T08:55:58Z</time>
      </trkpt>
      <trkpt lat="36.4729530" lon="-6.0987850">
        <ele>43.2</ele>
        <time>2023-01-28T08:55:59Z</time>
      </trkpt>
      <trkpt lat="36.4729270" lon="-6.0987300">
        <ele>43.4</ele>
        <time>2023-01-28T08:56:00Z</time>
      </trkpt>
      <trkpt lat="36.4729140" lon="-6.0986870">
        <ele>43.4</ele>
        <time>2023-01-28T08:56:01Z</time>
      </trkpt>
      <trkpt lat="36.4729120" lon="-6.0986470">
        <ele>43.4</ele>
        <time>2023-01-28T08:56:02Z</time>
      </trkpt>
      <trkpt lat="36.4729030" lon="-6.0986320">
        <ele>43.4</ele>
        <time>2023-01-28T08:56:03Z</time>
      </trkpt>
      <trkpt lat="36.4728960" lon="-6.0985840">
        <ele>43.4</ele>
        <time>2023-01-28T08:56:04Z</time>
      </trkpt>
      <trkpt lat="36.4728820" lon="-6.0985540">
        <ele>43.6</ele>
        <time>2023-01-28T08:56:05Z</time>
      </trkpt>
      <trkpt lat="36.4728730" lon="-6.0985140">
        <ele>43.8</ele>
        <time>2023-01-28T08:56:06Z</time>
      </trkpt>
      <trkpt lat="36.4728740" lon="-6.0985170">
        <ele>43.6</ele>
        <time>2023-01-28T08:56:07Z</time>
      </trkpt>
      <trkpt lat="36.4728540" lon="-6.0984650">
        <ele>43.6</ele>
        <time>2023-01-28T08:56:08Z</time>
      </trkpt>
      <trkpt lat="36.4728500" lon="-6.0984770">
        <ele>43.8</ele>
        <time>2023-01-28T08:56:09Z</time>
      </trkpt>
      <trkpt lat="36.4728370" lon="-6.0984320">
        <ele>43.8</ele>
        <time>2023-01-28T08:56:10Z</time>
      </trkpt>
      <trkpt lat="36.4728140" lon="-6.0983630">
        <ele>44.0</ele>
        <time>2023-01-28T08:56:11Z</time>
      </trkpt>
      <trkpt lat="36.4728020" lon="-6.0983260">
        <ele>44.0</ele>
        <time>2023-01-28T08:56:12Z</time>
      </trkpt>
      <trkpt lat="36.4727900" lon="-6.0982880">
        <ele>44.0</ele>
        <time>2023-01-28T08:56:13Z</time>
      </trkpt>
      <trkpt lat="36.4727760" lon="-6.0982240">
        <ele>44.0</ele>
        <time>2023-01-28T08:56:14Z</time>
      </trkpt>
      <trkpt lat="36.4727630" lon="-6.0982020">
        <ele>44.0</ele>
        <time>2023-01-28T08:56:15Z</time>
      </trkpt>
      <trkpt lat="36.4727610" lon="-6.0981830">
        <ele>44.2</ele>
        <time>2023-01-28T08:56:16Z</time>
      </trkpt>
      <trkpt lat="36.4727460" lon="-6.0981330">
        <ele>44.6</ele>
        <time>2023-01-28T08:56:17Z</time>
      </trkpt>
      <trkpt lat="36.4727410" lon="-6.0981060">
        <ele>44.4</ele>
        <time>2023-01-28T08:56:18Z</time>
      </trkpt>
      <trkpt lat="36.4727200" lon="-6.0980650">
        <ele>44.6</ele>
        <time>2023-01-28T08:56:19Z</time>
      </trkpt>
      <trkpt lat="36.4726980" lon="-6.0980030">
        <ele>44.6</ele>
        <time>2023-01-28T08:56:20Z</time>
      </trkpt>
      <trkpt lat="36.4727060" lon="-6.0979880">
        <ele>44.6</ele>
        <time>2023-01-28T08:56:21Z</time>
      </trkpt>
      <trkpt lat="36.4726970" lon="-6.0979650">
        <ele>44.8</ele>
        <time>2023-01-28T08:56:22Z</time>
      </trkpt>
      <trkpt lat="36.4726750" lon="-6.0978950">
        <ele>45.0</ele>
        <time>2023-01-28T08:56:23Z</time>
      </trkpt>
      <trkpt lat="36.4726480" lon="-6.0978160">
        <ele>45.0</ele>
        <time>2023-01-28T08:56:24Z</time>
      </trkpt>
      <trkpt lat="36.4726400" lon="-6.0977930">
        <ele>45.2</ele>
        <time>2023-01-28T08:56:25Z</time>
      </trkpt>
      <trkpt lat="36.4726280" lon="-6.0977740">
        <ele>45.2</ele>
        <time>2023-01-28T08:56:26Z</time>
      </trkpt>
      <trkpt lat="36.4726220" lon="-6.0977260">
        <ele>45.4</ele>
        <time>2023-01-28T08:56:27Z</time>
      </trkpt>
      <trkpt lat="36.4725920" lon="-6.0976460">
        <ele>45.6</ele>
        <time>2023-01-28T08:56:28Z</time>
      </trkpt>
      <trkpt lat="36.4725630" lon="-6.0975680">
        <ele>45.6</ele>
        <time>2023-01-28T08:56:29Z</time>
      </trkpt>
      <trkpt lat="36.4725490" lon="-6.0975230">
        <ele>45.8</ele>
        <time>2023-01-28T08:56:30Z</time>
      </trkpt>
      <trkpt lat="36.4725520" lon="-6.0975120">
        <ele>45.8</ele>
        <time>2023-01-28T08:56:31Z</time>
      </trkpt>
      <trkpt lat="36.4725500" lon="-6.0974880">
        <ele>46.0</ele>
        <time>2023-01-28T08:56:32Z</time>
      </trkpt>
      <trkpt lat="36.4725530" lon="-6.0974670">
        <ele>46.0</ele>
        <time>2023-01-28T08:56:33Z</time>
      </trkpt>
      <trkpt lat="36.4725400" lon="-6.0974350">
        <ele>46.0</ele>
        <time>2023-01-28T08:56:34Z</time>
      </trkpt>
      <trkpt lat="36.4725400" lon="-6.0974210">
        <ele>46.2</ele>
        <time>2023-01-28T08:56:35Z</time>
      </trkpt>
      <trkpt lat="36.4725320" lon="-6.0973870">
        <ele>46.4</ele>
        <time>2023-01-28T08:56:36Z</time>
      </trkpt>
      <trkpt lat="36.4725300" lon="-6.0973690">
        <ele>46.4</ele>
        <time>2023-01-28T08:56:37Z</time>
      </trkpt>
      <trkpt lat="36.4725220" lon="-6.0973320">
        <ele>46.6</ele>
        <time>2023-01-28T08:56:38Z</time>
      </trkpt>
      <trkpt lat="36.4725260" lon="-6.0973260">
        <ele>46.4</ele>
        <time>2023-01-28T08:56:39Z</time>
      </trkpt>
      <trkpt lat="36.4725080" lon="-6.0973000">
        <ele>46.8</ele>
        <time>2023-01-28T08:56:40Z</time>
      </trkpt>
      <trkpt lat="36.4724970" lon="-6.0972740">
        <ele>46.8</ele>
        <time>2023-01-28T08:56:41Z</time>
      </trkpt>
      <trkpt lat="36.4724800" lon="-6.0972250">
        <ele>47.0</ele>
        <time>2023-01-28T08:56:42Z</time>
      </trkpt>
      <trkpt lat="36.4724820" lon="-6.0972350">
        <ele>47.0</ele>
        <time>2023-01-28T08:56:43Z</time>
      </trkpt>
      <trkpt lat="36.4724640" lon="-6.0971840">
        <ele>47.2</ele>
        <time>2023-01-28T08:56:44Z</time>
      </trkpt>
      <trkpt lat="36.4724640" lon="-6.0971600">
        <ele>47.4</ele>
        <time>2023-01-28T08:56:45Z</time>
      </trkpt>
      <trkpt lat="36.4724520" lon="-6.0971160">
        <ele>47.4</ele>
        <time>2023-01-28T08:56:46Z</time>
      </trkpt>
      <trkpt lat="36.4724550" lon="-6.0970990">
        <ele>47.6</ele>
        <time>2023-01-28T08:56:47Z</time>
      </trkpt>
      <trkpt lat="36.4724430" lon="-6.0970580">
        <ele>47.8</ele>
        <time>2023-01-28T08:56:48Z</time>
      </trkpt>
      <trkpt lat="36.4724260" lon="-6.0970080">
        <ele>48.0</ele>
        <time>2023-01-28T08:56:49Z</time>
      </trkpt>
      <trkpt lat="36.4724060" lon="-6.0969420">
        <ele>48.2</ele>
        <time>2023-01-28T08:56:50Z</time>
      </trkpt>
      <trkpt lat="36.4723970" lon="-6.0969060">
        <ele>48.2</ele>
        <time>2023-01-28T08:56:51Z</time>
      </trkpt>
      <trkpt lat="36.4723790" lon="-6.0968550">
        <ele>48.6</ele>
        <time>2023-01-28T08:56:52Z</time>
      </trkpt>
      <trkpt lat="36.4723710" lon="-6.0968100">
        <ele>48.6</ele>
        <time>2023-01-28T08:56:53Z</time>
      </trkpt>
      <trkpt lat="36.4723520" lon="-6.0967790">
        <ele>48.8</ele>
        <time>2023-01-28T08:56:54Z</time>
      </trkpt>
      <trkpt lat="36.4723410" lon="-6.0967520">
        <ele>48.8</ele>
        <time>2023-01-28T08:56:55Z</time>
      </trkpt>
      <trkpt lat="36.4723400" lon="-6.0967400">
        <ele>49.0</ele>
        <time>2023-01-28T08:56:56Z</time>
      </trkpt>
      <trkpt lat="36.4723340" lon="-6.0967180">
        <ele>49.0</ele>
        <time>2023-01-28T08:56:57Z</time>
      </trkpt>
      <trkpt lat="36.4723360" lon="-6.0967260">
        <ele>49.0</ele>
        <time>2023-01-28T08:56:58Z</time>
      </trkpt>
      <trkpt lat="36.4723190" lon="-6.0966940">
        <ele>49.2</ele>
        <time>2023-01-28T08:56:59Z</time>
      </trkpt>
      <trkpt lat="36.4723090" lon="-6.0966560">
        <ele>49.4</ele>
        <time>2023-01-28T08:57:00Z</time>
      </trkpt>
      <trkpt lat="36.4723020" lon="-6.0966320">
        <ele>49.4</ele>
        <time>2023-01-28T08:57:01Z</time>
      </trkpt>
      <trkpt lat="36.4723000" lon="-6.0966210">
        <ele>49.6</ele>
        <time>2023-01-28T08:57:02Z</time>
      </trkpt>
      <trkpt lat="36.4722830" lon="-6.0965970">
        <ele>49.8</ele>
        <time>2023-01-28T08:57:03Z</time>
      </trkpt>
      <trkpt lat="36.4722900" lon="-6.0965660">
        <ele>49.8</ele>
        <time>2023-01-28T08:57:04Z</time>
      </trkpt>
      <trkpt lat="36.4722790" lon="-6.0965260">
        <ele>50.0</ele>
        <time>2023-01-28T08:57:05Z</time>
      </trkpt>
      <trkpt lat="36.4722610" lon="-6.0964630">
        <ele>50.0</ele>
        <time>2023-01-28T08:57:06Z</time>
      </trkpt>
      <trkpt lat="36.4722470" lon="-6.0964050">
        <ele>50.2</ele>
        <time>2023-01-28T08:57:07Z</time>
      </trkpt>
      <trkpt lat="36.4722560" lon="-6.0964100">
        <ele>50.2</ele>
        <time>2023-01-28T08:57:08Z</time>
      </trkpt>
      <trkpt lat="36.4722530" lon="-6.0963860">
        <ele>50.4</ele>
        <time>2023-01-28T08:57:09Z</time>
      </trkpt>
      <trkpt lat="36.4722360" lon="-6.0963330">
        <ele>50.6</ele>
        <time>2023-01-28T08:57:10Z</time>
      </trkpt>
      <trkpt lat="36.4722270" lon="-6.0962970">
        <ele>50.8</ele>
        <time>2023-01-28T08:57:11Z</time>
      </trkpt>
      <trkpt lat="36.4722140" lon="-6.0962700">
        <ele>51.0</ele>
        <time>2023-01-28T08:57:12Z</time>
      </trkpt>
      <trkpt lat="36.4721990" lon="-6.0962190">
        <ele>51.2</ele>
        <time>2023-01-28T08:57:13Z</time>
      </trkpt>
      <trkpt lat="36.4721790" lon="-6.0961760">
        <ele>51.4</ele>
        <time>2023-01-28T08:57:14Z</time>
      </trkpt>
      <trkpt lat="36.4721680" lon="-6.0961320">
        <ele>51.6</ele>
        <time>2023-01-28T08:57:15Z</time>
      </trkpt>
      <trkpt lat="36.4721740" lon="-6.0961390">
        <ele>51.8</ele>
        <time>2023-01-28T08:57:16Z</time>
      </trkpt>
      <trkpt lat="36.4721690" lon="-6.0961180">
        <ele>52.0</ele>
        <time>2023-01-28T08:57:17Z</time>
      </trkpt>
      <trkpt lat="36.4721700" lon="-6.0961000">
        <ele>52.2</ele>
        <time>2023-01-28T08:57:18Z</time>
      </trkpt>
      <trkpt lat="36.4721680" lon="-6.0960690">
        <ele>52.4</ele>
        <time>2023-01-28T08:57:19Z</time>
      </trkpt>
      <trkpt lat="36.4721620" lon="-6.0960320">
        <ele>52.8</ele>
        <time>2023-01-28T08:57:20Z</time>
      </trkpt>
      <trkpt lat="36.4721480" lon="-6.0959800">
        <ele>52.8</ele>
        <time>2023-01-28T08:57:21Z</time>
      </trkpt>
      <trkpt lat="36.4721350" lon="-6.0959540">
        <ele>53.0</ele>
        <time>2023-01-28T08:57:22Z</time>
      </trkpt>
      <trkpt lat="36.4721050" lon="-6.0958760">
        <ele>53.2</ele>
        <time>2023-01-28T08:57:23Z</time>
      </trkpt>
      <trkpt lat="36.4720910" lon="-6.0958600">
        <ele>53.6</ele>
        <time>2023-01-28T08:57:24Z</time>
      </trkpt>
      <trkpt lat="36.4720770" lon="-6.0958360">
        <ele>53.6</ele>
        <time>2023-01-28T08:57:25Z</time>
      </trkpt>
      <trkpt lat="36.4720720" lon="-6.0957910">
        <ele>53.8</ele>
        <time>2023-01-28T08:57:26Z</time>
      </trkpt>
      <trkpt lat="36.4720570" lon="-6.0957380">
        <ele>54.0</ele>
        <time>2023-01-28T08:57:27Z</time>
      </trkpt>
      <trkpt lat="36.4720510" lon="-6.0957130">
        <ele>54.0</ele>
        <time>2023-01-28T08:57:28Z</time>
      </trkpt>
      <trkpt lat="36.4720440" lon="-6.0956900">
        <ele>54.2</ele>
        <time>2023-01-28T08:57:29Z</time>
      </trkpt>
      <trkpt lat="36.4720390" lon="-6.0956870">
        <ele>54.2</ele>
        <time>2023-01-28T08:57:30Z</time>
      </trkpt>
      <trkpt lat="36.4720370" lon="-6.0956950">
        <ele>54.2</ele>
        <time>2023-01-28T08:57:31Z</time>
      </trkpt>
      <trkpt lat="36.4720010" lon="-6.0956460">
        <ele>54.2</ele>
        <time>2023-01-28T08:57:32Z</time>
      </trkpt>
      <trkpt lat="36.4719890" lon="-6.0956390">
        <ele>54.4</ele>
        <time>2023-01-28T08:57:33Z</time>
      </trkpt>
      <trkpt lat="36.4719710" lon="-6.0956230">
        <ele>54.4</ele>
        <time>2023-01-28T08:57:34Z</time>
      </trkpt>
      <trkpt lat="36.4719450" lon="-6.0956100">
        <ele>54.4</ele>
        <time>2023-01-28T08:57:35Z</time>
      </trkpt>
      <trkpt lat="36.4719260" lon="-6.0956290">
        <ele>54.4</ele>
        <time>2023-01-28T08:57:36Z</time>
      </trkpt>
      <trkpt lat="36.4718920" lon="-6.0956060">
        <ele>54.4</ele>
        <time>2023-01-28T08:57:37Z</time>
      </trkpt>
      <trkpt lat="36.4718900" lon="-6.0956400">
        <ele>54.6</ele>
        <time>2023-01-28T08:57:38Z</time>
      </trkpt>
      <trkpt lat="36.4718670" lon="-6.0956330">
        <ele>54.6</ele>
        <time>2023-01-28T08:57:39Z</time>
      </trkpt>
      <trkpt lat="36.4718280" lon="-6.0956350">
        <ele>54.8</ele>
        <time>2023-01-28T08:57:40Z</time>
      </trkpt>
      <trkpt lat="36.4717930" lon="-6.0956460">
        <ele>54.8</ele>
        <time>2023-01-28T08:57:41Z</time>
      </trkpt>
      <trkpt lat="36.4717730" lon="-6.0956600">
        <ele>55.0</ele>
        <time>2023-01-28T08:57:42Z</time>
      </trkpt>
      <trkpt lat="36.4717660" lon="-6.0956940">
        <ele>55.0</ele>
        <time>2023-01-28T08:57:43Z</time>
      </trkpt>
      <trkpt lat="36.4717450" lon="-6.0957170">
        <ele>55.0</ele>
        <time>2023-01-28T08:57:44Z</time>
      </trkpt>
      <trkpt lat="36.4717090" lon="-6.0957120">
        <ele>55.0</ele>
        <time>2023-01-28T08:57:45Z</time>
      </trkpt>
      <trkpt lat="36.4716990" lon="-6.0957740">
        <ele>55.0</ele>
        <time>2023-01-28T08:57:46Z</time>
      </trkpt>
      <trkpt lat="36.4716900" lon="-6.0957850">
        <ele>55.0</ele>
        <time>2023-01-28T08:57:47Z</time>
      </trkpt>
      <trkpt lat="36.4716690" lon="-6.0958050">
        <ele>55.0</ele>
        <time>2023-01-28T08:57:48Z</time>
      </trkpt>
      <trkpt lat="36.4716560" lon="-6.0958400">
        <ele>55.0</ele>
        <time>2023-01-28T08:57:49Z</time>
      </trkpt>
      <trkpt lat="36.4716370" lon="-6.0958590">
        <ele>55.0</ele>
        <time>2023-01-28T08:57:50Z</time>
      </trkpt>
      <trkpt lat="36.4715980" lon="-6.0958370">
        <ele>55.0</ele>
        <time>2023-01-28T08:57:51Z</time>
      </trkpt>
      <trkpt lat="36.4715650" lon="-6.0958300">
        <ele>55.0</ele>
        <time>2023-01-28T08:57:52Z</time>
      </trkpt>
      <trkpt lat="36.4715440" lon="-6.0958490">
        <ele>54.8</ele>
        <time>2023-01-28T08:57:53Z</time>
      </trkpt>
      <trkpt lat="36.4715210" lon="-6.0958340">
        <ele>54.8</ele>
        <time>2023-01-28T08:57:54Z</time>
      </trkpt>
      <trkpt lat="36.4715220" lon="-6.0958510">
        <ele>54.8</ele>
        <time>2023-01-28T08:57:55Z</time>
      </trkpt>
      <trkpt lat="36.4715190" lon="-6.0958730">
        <ele>54.8</ele>
        <time>2023-01-28T08:57:56Z</time>
      </trkpt>
      <trkpt lat="36.4715110" lon="-6.0958720">
        <ele>54.8</ele>
        <time>2023-01-28T08:57:57Z</time>
      </trkpt>
      <trkpt lat="36.4715130" lon="-6.0958800">
        <ele>54.8</ele>
        <time>2023-01-28T08:57:58Z</time>
      </trkpt>
      <trkpt lat="36.4715210" lon="-6.0958880">
        <ele>54.8</ele>
        <time>2023-01-28T08:57:59Z</time>
      </trkpt>
      <trkpt lat="36.4715330" lon="-6.0959120">
        <ele>54.6</ele>
        <time>2023-01-28T08:58:00Z</time>
      </trkpt>
      <trkpt lat="36.4715440" lon="-6.0959160">
        <ele>54.6</ele>
        <time>2023-01-28T08:58:01Z</time>
      </trkpt>
      <trkpt lat="36.4715250" lon="-6.0958980">
        <ele>54.6</ele>
        <time>2023-01-28T08:58:02Z</time>
      </trkpt>
      <trkpt lat="36.4715360" lon="-6.0959190">
        <ele>54.6</ele>
        <time>2023-01-28T08:58:03Z</time>
      </trkpt>
      <trkpt lat="36.4715260" lon="-6.0958930">
        <ele>54.6</ele>
        <time>2023-01-28T08:58:04Z</time>
      </trkpt>
      <trkpt lat="36.4715090" lon="-6.0958590">
        <ele>54.6</ele>
        <time>2023-01-28T08:58:05Z</time>
      </trkpt>
      <trkpt lat="36.4715190" lon="-6.0958820">
        <ele>54.4</ele>
        <time>2023-01-28T08:58:06Z</time>
      </trkpt>
      <trkpt lat="36.4715000" lon="-6.0958490">
        <ele>54.6</ele>
        <time>2023-01-28T08:58:07Z</time>
      </trkpt>
      <trkpt lat="36.4714850" lon="-6.0958380">
        <ele>54.8</ele>
        <time>2023-01-28T08:58:08Z</time>
      </trkpt>
      <trkpt lat="36.4714810" lon="-6.0958710">
        <ele>55.0</ele>
        <time>2023-01-28T08:58:09Z</time>
      </trkpt>
      <trkpt lat="36.4714760" lon="-6.0958790">
        <ele>54.8</ele>
        <time>2023-01-28T08:58:10Z</time>
      </trkpt>
      <trkpt lat="36.4714670" lon="-6.0958690">
        <ele>54.8</ele>
        <time>2023-01-28T08:58:11Z</time>
      </trkpt>
      <trkpt lat="36.4714660" lon="-6.0958780">
        <ele>54.8</ele>
        <time>2023-01-28T08:58:12Z</time>
      </trkpt>
      <trkpt lat="36.4714620" lon="-6.0958820">
        <ele>54.6</ele>
        <time>2023-01-28T08:58:13Z</time>
      </trkpt>
      <trkpt lat="36.4714590" lon="-6.0958790">
        <ele>54.6</ele>
        <time>2023-01-28T08:58:14Z</time>
      </trkpt>
      <trkpt lat="36.4714610" lon="-6.0958770">
        <ele>54.6</ele>
        <time>2023-01-28T08:58:15Z</time>
      </trkpt>
      <trkpt lat="36.4714630" lon="-6.0958760">
        <ele>54.6</ele>
        <time>2023-01-28T08:58:16Z</time>
      </trkpt>
      <trkpt lat="36.4714600" lon="-6.0958700">
        <ele>54.6</ele>
        <time>2023-01-28T08:58:17Z</time>
      </trkpt>
      <trkpt lat="36.4714590" lon="-6.0958740">
        <ele>54.6</ele>
        <time>2023-01-28T08:58:18Z</time>
      </trkpt>
      <trkpt lat="36.4714550" lon="-6.0958740">
        <ele>54.6</ele>
        <time>2023-01-28T08:58:19Z</time>
      </trkpt>
      <trkpt lat="36.4714490" lon="-6.0958730">
        <ele>54.4</ele>
        <time>2023-01-28T08:58:20Z</time>
      </trkpt>
      <trkpt lat="36.4714240" lon="-6.0960070">
        <ele>54.4</ele>
        <time>2023-01-28T08:58:43Z</time>
      </trkpt>
      <trkpt lat="36.4714250" lon="-6.0960220">
        <ele>54.4</ele>
        <time>2023-01-28T08:58:44Z</time>
      </trkpt>
      <trkpt lat="36.4714200" lon="-6.0960220">
        <ele>54.4</ele>
        <time>2023-01-28T08:58:45Z</time>
      </trkpt>
      <trkpt lat="36.4714120" lon="-6.0960150">
        <ele>54.6</ele>
        <time>2023-01-28T08:58:46Z</time>
      </trkpt>
      <trkpt lat="36.4714120" lon="-6.0960180">
        <ele>54.8</ele>
        <time>2023-01-28T08:58:47Z</time>
      </trkpt>
      <trkpt lat="36.4714100" lon="-6.0960190">
        <ele>54.6</ele>
        <time>2023-01-28T08:58:48Z</time>
      </trkpt>
      <trkpt lat="36.4714100" lon="-6.0960200">
        <ele>54.6</ele>
        <time>2023-01-28T08:58:49Z</time>
      </trkpt>
      <trkpt lat="36.4714110" lon="-6.0960230">
        <ele>54.8</ele>
        <time>2023-01-28T08:58:50Z</time>
      </trkpt>
      <trkpt lat="36.4714100" lon="-6.0960230">
        <ele>54.8</ele>
        <time>2023-01-28T08:58:51Z</time>
      </trkpt>
      <trkpt lat="36.4714090" lon="-6.0960180">
        <ele>54.8</ele>
        <time>2023-01-28T08:58:52Z</time>
      </trkpt>
      <trkpt lat="36.4714120" lon="-6.0960190">
        <ele>55.0</ele>
        <time>2023-01-28T08:58:53Z</time>
      </trkpt>
      <trkpt lat="36.4714130" lon="-6.0960190">
        <ele>55.0</ele>
        <time>2023-01-28T08:58:54Z</time>
      </trkpt>
      <trkpt lat="36.4714120" lon="-6.0960170">
        <ele>55.0</ele>
        <time>2023-01-28T08:58:55Z</time>
      </trkpt>
      <trkpt lat="36.4714070" lon="-6.0960110">
        <ele>55.0</ele>
        <time>2023-01-28T08:58:56Z</time>
      </trkpt>
      <trkpt lat="36.4714000" lon="-6.0960010">
        <ele>54.8</ele>
        <time>2023-01-28T08:58:57Z</time>
      </trkpt>
      <trkpt lat="36.4713990" lon="-6.0959880">
        <ele>54.8</ele>
        <time>2023-01-28T08:58:58Z</time>
      </trkpt>
      <trkpt lat="36.4714000" lon="-6.0959720">
        <ele>55.0</ele>
        <time>2023-01-28T08:58:59Z</time>
      </trkpt>
      <trkpt lat="36.4713970" lon="-6.0959530">
        <ele>55.0</ele>
        <time>2023-01-28T08:59:00Z</time>
      </trkpt>
      <trkpt lat="36.4713930" lon="-6.0959330">
        <ele>55.2</ele>
        <time>2023-01-28T08:59:01Z</time>
      </trkpt>
      <trkpt lat="36.4713900" lon="-6.0959110">
        <ele>55.2</ele>
        <time>2023-01-28T08:59:02Z</time>
      </trkpt>
      <trkpt lat="36.4713860" lon="-6.0958880">
        <ele>55.2</ele>
        <time>2023-01-28T08:59:03Z</time>
      </trkpt>
      <trkpt lat="36.4713790" lon="-6.0958660">
        <ele>55.4</ele>
        <time>2023-01-28T08:59:04Z</time>
      </trkpt>
      <trkpt lat="36.4713730" lon="-6.0958440">
        <ele>55.6</ele>
        <time>2023-01-28T08:59:05Z</time>
      </trkpt>
      <trkpt lat="36.4713680" lon="-6.0958220">
        <ele>55.8</ele>
        <time>2023-01-28T08:59:06Z</time>
      </trkpt>
      <trkpt lat="36.4713640" lon="-6.0957990">
        <ele>55.8</ele>
        <time>2023-01-28T08:59:07Z</time>
      </trkpt>
      <trkpt lat="36.4713610" lon="-6.0957740">
        <ele>56.0</ele>
        <time>2023-01-28T08:59:08Z</time>
      </trkpt>
      <trkpt lat="36.4713580" lon="-6.0957500">
        <ele>56.4</ele>
        <time>2023-01-28T08:59:09Z</time>
      </trkpt>
      <trkpt lat="36.4713560" lon="-6.0957260">
        <ele>56.4</ele>
        <time>2023-01-28T08:59:10Z</time>
      </trkpt>
      <trkpt lat="36.4713540" lon="-6.0957000">
        <ele>56.4</ele>
        <time>2023-01-28T08:59:11Z</time>
      </trkpt>
      <trkpt lat="36.4713470" lon="-6.0956710">
        <ele>56.8</ele>
        <time>2023-01-28T08:59:12Z</time>
      </trkpt>
      <trkpt lat="36.4713360" lon="-6.0956420">
        <ele>57.0</ele>
        <time>2023-01-28T08:59:13Z</time>
      </trkpt>
      <trkpt lat="36.4713340" lon="-6.0956180">
        <ele>57.2</ele>
        <time>2023-01-28T08:59:14Z</time>
      </trkpt>
      <trkpt lat="36.4713340" lon="-6.0955980">
        <ele>57.2</ele>
        <time>2023-01-28T08:59:15Z</time>
      </trkpt>
      <trkpt lat="36.4713280" lon="-6.0955770">
        <ele>57.4</ele>
        <time>2023-01-28T08:59:16Z</time>
      </trkpt>
      <trkpt lat="36.4713220" lon="-6.0955460">
        <ele>57.4</ele>
        <time>2023-01-28T08:59:17Z</time>
      </trkpt>
      <trkpt lat="36.4713180" lon="-6.0955240">
        <ele>57.6</ele>
        <time>2023-01-28T08:59:18Z</time>
      </trkpt>
      <trkpt lat="36.4713210" lon="-6.0954950">
        <ele>57.6</ele>
        <time>2023-01-28T08:59:19Z</time>
      </trkpt>
      <trkpt lat="36.4713080" lon="-6.0954680">
        <ele>57.6</ele>
        <time>2023-01-28T08:59:20Z</time>
      </trkpt>
      <trkpt lat="36.4712990" lon="-6.0954310">
        <ele>57.6</ele>
        <time>2023-01-28T08:59:21Z</time>
      </trkpt>
      <trkpt lat="36.4713010" lon="-6.0954130">
        <ele>58.0</ele>
        <time>2023-01-28T08:59:22Z</time>
      </trkpt>
      <trkpt lat="36.4712940" lon="-6.0953880">
        <ele>58.2</ele>
        <time>2023-01-28T08:59:23Z</time>
      </trkpt>
      <trkpt lat="36.4712880" lon="-6.0953660">
        <ele>58.4</ele>
        <time>2023-01-28T08:59:24Z</time>
      </trkpt>
      <trkpt lat="36.4712890" lon="-6.0953400">
        <ele>58.6</ele>
        <time>2023-01-28T08:59:25Z</time>
      </trkpt>
      <trkpt lat="36.4712940" lon="-6.0953100">
        <ele>58.8</ele>
        <time>2023-01-28T08:59:26Z</time>
      </trkpt>
      <trkpt lat="36.4713000" lon="-6.0952950">
        <ele>59.0</ele>
        <time>2023-01-28T08:59:27Z</time>
      </trkpt>
      <trkpt lat="36.4712930" lon="-6.0952720">
        <ele>59.0</ele>
        <time>2023-01-28T08:59:28Z</time>
      </trkpt>
      <trkpt lat="36.4712900" lon="-6.0952430">
        <ele>59.2</ele>
        <time>2023-01-28T08:59:29Z</time>
      </trkpt>
      <trkpt lat="36.4712860" lon="-6.0952190">
        <ele>59.2</ele>
        <time>2023-01-28T08:59:30Z</time>
      </trkpt>
      <trkpt lat="36.4712790" lon="-6.0952030">
        <ele>59.2</ele>
        <time>2023-01-28T08:59:31Z</time>
      </trkpt>
      <trkpt lat="36.4712760" lon="-6.0951840">
        <ele>59.4</ele>
        <time>2023-01-28T08:59:32Z</time>
      </trkpt>
      <trkpt lat="36.4712660" lon="-6.0951630">
        <ele>59.6</ele>
        <time>2023-01-28T08:59:33Z</time>
      </trkpt>
      <trkpt lat="36.4712630" lon="-6.0951390">
        <ele>59.6</ele>
        <time>2023-01-28T08:59:34Z</time>
      </trkpt>
      <trkpt lat="36.4712730" lon="-6.0951130">
        <ele>59.6</ele>
        <time>2023-01-28T08:59:35Z</time>
      </trkpt>
      <trkpt lat="36.4712780" lon="-6.0950840">
        <ele>59.6</ele>
        <time>2023-01-28T08:59:36Z</time>
      </trkpt>
      <trkpt lat="36.4712660" lon="-6.0950470">
        <ele>59.8</ele>
        <time>2023-01-28T08:59:37Z</time>
      </trkpt>
      <trkpt lat="36.4712480" lon="-6.0950190">
        <ele>59.8</ele>
        <time>2023-01-28T08:59:38Z</time>
      </trkpt>
      <trkpt lat="36.4712480" lon="-6.0950000">
        <ele>60.0</ele>
        <time>2023-01-28T08:59:39Z</time>
      </trkpt>
      <trkpt lat="36.4712460" lon="-6.0949820">
        <ele>60.0</ele>
        <time>2023-01-28T08:59:40Z</time>
      </trkpt>
      <trkpt lat="36.4712360" lon="-6.0949510">
        <ele>60.2</ele>
        <time>2023-01-28T08:59:41Z</time>
      </trkpt>
      <trkpt lat="36.4712300" lon="-6.0949290">
        <ele>60.2</ele>
        <time>2023-01-28T08:59:42Z</time>
      </trkpt>
      <trkpt lat="36.4712260" lon="-6.0949020">
        <ele>60.4</ele>
        <time>2023-01-28T08:59:43Z</time>
      </trkpt>
      <trkpt lat="36.4712280" lon="-6.0948790">
        <ele>60.2</ele>
        <time>2023-01-28T08:59:44Z</time>
      </trkpt>
      <trkpt lat="36.4712210" lon="-6.0948540">
        <ele>60.4</ele>
        <time>2023-01-28T08:59:45Z</time>
      </trkpt>
      <trkpt lat="36.4712210" lon="-6.0948340">
        <ele>60.4</ele>
        <time>2023-01-28T08:59:46Z</time>
      </trkpt>
      <trkpt lat="36.4712100" lon="-6.0948030">
        <ele>60.6</ele>
        <time>2023-01-28T08:59:47Z</time>
      </trkpt>
      <trkpt lat="36.4712200" lon="-6.0947870">
        <ele>60.6</ele>
        <time>2023-01-28T08:59:48Z</time>
      </trkpt>
      <trkpt lat="36.4712080" lon="-6.0947620">
        <ele>60.4</ele>
        <time>2023-01-28T08:59:49Z</time>
      </trkpt>
      <trkpt lat="36.4711900" lon="-6.0947350">
        <ele>60.4</ele>
        <time>2023-01-28T08:59:50Z</time>
      </trkpt>
      <trkpt lat="36.4711770" lon="-6.0947010">
        <ele>60.4</ele>
        <time>2023-01-28T08:59:51Z</time>
      </trkpt>
      <trkpt lat="36.4711790" lon="-6.0946860">
        <ele>60.4</ele>
        <time>2023-01-28T08:59:52Z</time>
      </trkpt>
      <trkpt lat="36.4711740" lon="-6.0946570">
        <ele>60.4</ele>
        <time>2023-01-28T08:59:53Z</time>
      </trkpt>
      <trkpt lat="36.4711660" lon="-6.0946230">
        <ele>60.2</ele>
        <time>2023-01-28T08:59:54Z</time>
      </trkpt>
      <trkpt lat="36.4711650" lon="-6.0946100">
        <ele>60.2</ele>
        <time>2023-01-28T08:59:55Z</time>
      </trkpt>
      <trkpt lat="36.4711620" lon="-6.0945830">
        <ele>60.0</ele>
        <time>2023-01-28T08:59:56Z</time>
      </trkpt>
      <trkpt lat="36.4711500" lon="-6.0945510">
        <ele>59.8</ele>
        <time>2023-01-28T08:59:57Z</time>
      </trkpt>
      <trkpt lat="36.4711490" lon="-6.0945220">
        <ele>59.6</ele>
        <time>2023-01-28T08:59:58Z</time>
      </trkpt>
      <trkpt lat="36.4711470" lon="-6.0944710">
        <ele>59.4</ele>
        <time>2023-01-28T08:59:59Z</time>
      </trkpt>
      <trkpt lat="36.4711460" lon="-6.0944520">
        <ele>59.2</ele>
        <time>2023-01-28T09:00:00Z</time>
      </trkpt>
      <trkpt lat="36.4711400" lon="-6.0944100">
        <ele>59.0</ele>
        <time>2023-01-28T09:00:01Z</time>
      </trkpt>
      <trkpt lat="36.4711320" lon="-6.0943670">
        <ele>58.8</ele>
        <time>2023-01-28T09:00:02Z</time>
      </trkpt>
      <trkpt lat="36.4711220" lon="-6.0943240">
        <ele>58.8</ele>
        <time>2023-01-28T09:00:03Z</time>
      </trkpt>
      <trkpt lat="36.4711140" lon="-6.0942790">
        <ele>58.6</ele>
        <time>2023-01-28T09:00:04Z</time>
      </trkpt>
      <trkpt lat="36.4711080" lon="-6.0942340">
        <ele>58.4</ele>
        <time>2023-01-28T09:00:05Z</time>
      </trkpt>
      <trkpt lat="36.4710990" lon="-6.0941880">
        <ele>58.2</ele>
        <time>2023-01-28T09:00:06Z</time>
      </trkpt>
      <trkpt lat="36.4710900" lon="-6.0941400">
        <ele>58.0</ele>
        <time>2023-01-28T09:00:07Z</time>
      </trkpt>
      <trkpt lat="36.4710810" lon="-6.0940920">
        <ele>57.6</ele>
        <time>2023-01-28T09:00:08Z</time>
      </trkpt>
      <trkpt lat="36.4710700" lon="-6.0940390">
        <ele>57.4</ele>
        <time>2023-01-28T09:00:09Z</time>
      </trkpt>
      <trkpt lat="36.4710600" lon="-6.0939840">
        <ele>56.8</ele>
        <time>2023-01-28T09:00:10Z</time>
      </trkpt>
      <trkpt lat="36.4710500" lon="-6.0939280">
        <ele>56.6</ele>
        <time>2023-01-28T09:00:11Z</time>
      </trkpt>
      <trkpt lat="36.4710410" lon="-6.0938700">
        <ele>56.2</ele>
        <time>2023-01-28T09:00:12Z</time>
      </trkpt>
      <trkpt lat="36.4710340" lon="-6.0938100">
        <ele>56.0</ele>
        <time>2023-01-28T09:00:13Z</time>
      </trkpt>
      <trkpt lat="36.4710270" lon="-6.0937480">
        <ele>55.8</ele>
        <time>2023-01-28T09:00:14Z</time>
      </trkpt>
      <trkpt lat="36.4710220" lon="-6.0936860">
        <ele>55.4</ele>
        <time>2023-01-28T09:00:15Z</time>
      </trkpt>
      <trkpt lat="36.4710160" lon="-6.0936260">
        <ele>55.2</ele>
        <time>2023-01-28T09:00:16Z</time>
      </trkpt>
      <trkpt lat="36.4710100" lon="-6.0935690">
        <ele>55.0</ele>
        <time>2023-01-28T09:00:17Z</time>
      </trkpt>
      <trkpt lat="36.4710070" lon="-6.0935140">
        <ele>54.8</ele>
        <time>2023-01-28T09:00:18Z</time>
      </trkpt>
      <trkpt lat="36.4710050" lon="-6.0934620">
        <ele>54.8</ele>
        <time>2023-01-28T09:00:19Z</time>
      </trkpt>
      <trkpt lat="36.4710080" lon="-6.0934130">
        <ele>54.4</ele>
        <time>2023-01-28T09:00:20Z</time>
      </trkpt>
      <trkpt lat="36.4710110" lon="-6.0933660">
        <ele>54.4</ele>
        <time>2023-01-28T09:00:21Z</time>
      </trkpt>
      <trkpt lat="36.4710140" lon="-6.0933240">
        <ele>54.2</ele>
        <time>2023-01-28T09:00:22Z</time>
      </trkpt>
      <trkpt lat="36.4710180" lon="-6.0932860">
        <ele>54.2</ele>
        <time>2023-01-28T09:00:23Z</time>
      </trkpt>
      <trkpt lat="36.4710190" lon="-6.0932520">
        <ele>54.4</ele>
        <time>2023-01-28T09:00:24Z</time>
      </trkpt>
      <trkpt lat="36.4710170" lon="-6.0932210">
        <ele>54.4</ele>
        <time>2023-01-28T09:00:25Z</time>
      </trkpt>
      <trkpt lat="36.4710130" lon="-6.0931940">
        <ele>54.4</ele>
        <time>2023-01-28T09:00:26Z</time>
      </trkpt>
      <trkpt lat="36.4710060" lon="-6.0931680">
        <ele>54.2</ele>
        <time>2023-01-28T09:00:27Z</time>
      </trkpt>
      <trkpt lat="36.4710050" lon="-6.0931410">
        <ele>54.2</ele>
        <time>2023-01-28T09:00:28Z</time>
      </trkpt>
      <trkpt lat="36.4710080" lon="-6.0931140">
        <ele>54.0</ele>
        <time>2023-01-28T09:00:29Z</time>
      </trkpt>
      <trkpt lat="36.4710100" lon="-6.0930880">
        <ele>54.2</ele>
        <time>2023-01-28T09:00:30Z</time>
      </trkpt>
      <trkpt lat="36.4710130" lon="-6.0930600">
        <ele>54.0</ele>
        <time>2023-01-28T09:00:31Z</time>
      </trkpt>
      <trkpt lat="36.4710150" lon="-6.0930350">
        <ele>54.2</ele>
        <time>2023-01-28T09:00:32Z</time>
      </trkpt>
      <trkpt lat="36.4710190" lon="-6.0930120">
        <ele>54.2</ele>
        <time>2023-01-28T09:00:33Z</time>
      </trkpt>
      <trkpt lat="36.4710150" lon="-6.0929880">
        <ele>54.0</ele>
        <time>2023-01-28T09:00:34Z</time>
      </trkpt>
      <trkpt lat="36.4710150" lon="-6.0929710">
        <ele>54.2</ele>
        <time>2023-01-28T09:00:35Z</time>
      </trkpt>
      <trkpt lat="36.4710100" lon="-6.0929450">
        <ele>54.0</ele>
        <time>2023-01-28T09:00:36Z</time>
      </trkpt>
      <trkpt lat="36.4709990" lon="-6.0929220">
        <ele>53.8</ele>
        <time>2023-01-28T09:00:37Z</time>
      </trkpt>
      <trkpt lat="36.4709850" lon="-6.0929000">
        <ele>53.8</ele>
        <time>2023-01-28T09:00:38Z</time>
      </trkpt>
      <trkpt lat="36.4709650" lon="-6.0928890">
        <ele>53.6</ele>
        <time>2023-01-28T09:00:39Z</time>
      </trkpt>
      <trkpt lat="36.4709530" lon="-6.0928850">
        <ele>53.6</ele>
        <time>2023-01-28T09:00:40Z</time>
      </trkpt>
      <trkpt lat="36.4709600" lon="-6.0928860">
        <ele>53.6</ele>
        <time>2023-01-28T09:00:41Z</time>
      </trkpt>
      <trkpt lat="36.4709670" lon="-6.0928880">
        <ele>53.6</ele>
        <time>2023-01-28T09:00:42Z</time>
      </trkpt>
      <trkpt lat="36.4709740" lon="-6.0928940">
        <ele>53.6</ele>
        <time>2023-01-28T09:00:43Z</time>
      </trkpt>
      <trkpt lat="36.4709590" lon="-6.0928770">
        <ele>53.6</ele>
        <time>2023-01-28T09:00:44Z</time>
      </trkpt>
      <trkpt lat="36.4709450" lon="-6.0928890">
        <ele>53.6</ele>
        <time>2023-01-28T09:00:45Z</time>
      </trkpt>
      <trkpt lat="36.4709450" lon="-6.0928930">
        <ele>53.6</ele>
        <time>2023-01-28T09:00:46Z</time>
      </trkpt>
      <trkpt lat="36.4709430" lon="-6.0928920">
        <ele>53.8</ele>
        <time>2023-01-28T09:00:47Z</time>
      </trkpt>
      <trkpt lat="36.4709390" lon="-6.0928950">
        <ele>53.8</ele>
        <time>2023-01-28T09:00:48Z</time>
      </trkpt>
      <trkpt lat="36.4709290" lon="-6.0928950">
        <ele>53.6</ele>
        <time>2023-01-28T09:00:49Z</time>
      </trkpt>
      <trkpt lat="36.4709160" lon="-6.0928900">
        <ele>53.6</ele>
        <time>2023-01-28T09:00:50Z</time>
      </trkpt>
      <trkpt lat="36.4709250" lon="-6.0928910">
        <ele>53.6</ele>
        <time>2023-01-28T09:00:51Z</time>
      </trkpt>
      <trkpt lat="36.4709230" lon="-6.0928880">
        <ele>53.6</ele>
        <time>2023-01-28T09:00:52Z</time>
      </trkpt>
      <trkpt lat="36.4709170" lon="-6.0928850">
        <ele>53.6</ele>
        <time>2023-01-28T09:00:53Z</time>
      </trkpt>
      <trkpt lat="36.4709210" lon="-6.0928820">
        <ele>53.8</ele>
        <time>2023-01-28T09:00:54Z</time>
      </trkpt>
      <trkpt lat="36.4709280" lon="-6.0928910">
        <ele>53.8</ele>
        <time>2023-01-28T09:00:55Z</time>
      </trkpt>
      <trkpt lat="36.4709360" lon="-6.0928930">
        <ele>53.8</ele>
        <time>2023-01-28T09:00:56Z</time>
      </trkpt>
      <trkpt lat="36.4709420" lon="-6.0928860">
        <ele>53.8</ele>
        <time>2023-01-28T09:00:57Z</time>
      </trkpt>
      <trkpt lat="36.4709450" lon="-6.0928960">
        <ele>53.8</ele>
        <time>2023-01-28T09:00:58Z</time>
      </trkpt>
      <trkpt lat="36.4709430" lon="-6.0928950">
        <ele>53.8</ele>
        <time>2023-01-28T09:00:59Z</time>
      </trkpt>
      <trkpt lat="36.4709450" lon="-6.0929020">
        <ele>53.8</ele>
        <time>2023-01-28T09:01:00Z</time>
      </trkpt>
      <trkpt lat="36.4709360" lon="-6.0928950">
        <ele>53.8</ele>
        <time>2023-01-28T09:01:01Z</time>
      </trkpt>
      <trkpt lat="36.4709200" lon="-6.0928230">
        <ele>53.6</ele>
        <time>2023-01-28T09:02:01Z</time>
      </trkpt>
      <trkpt lat="36.4709100" lon="-6.0928080">
        <ele>53.6</ele>
        <time>2023-01-28T09:02:02Z</time>
      </trkpt>
      <trkpt lat="36.4709080" lon="-6.0927900">
        <ele>53.6</ele>
        <time>2023-01-28T09:02:03Z</time>
      </trkpt>
      <trkpt lat="36.4709210" lon="-6.0927730">
        <ele>53.6</ele>
        <time>2023-01-28T09:02:04Z</time>
      </trkpt>
      <trkpt lat="36.4709160" lon="-6.0927510">
        <ele>53.6</ele>
        <time>2023-01-28T09:02:05Z</time>
      </trkpt>
      <trkpt lat="36.4709110" lon="-6.0927370">
        <ele>53.6</ele>
        <time>2023-01-28T09:02:06Z</time>
      </trkpt>
      <trkpt lat="36.4709020" lon="-6.0927100">
        <ele>53.8</ele>
        <time>2023-01-28T09:02:07Z</time>
      </trkpt>
      <trkpt lat="36.4708950" lon="-6.0926690">
        <ele>53.8</ele>
        <time>2023-01-28T09:02:08Z</time>
      </trkpt>
      <trkpt lat="36.4708830" lon="-6.0926330">
        <ele>53.8</ele>
        <time>2023-01-28T09:02:09Z</time>
      </trkpt>
      <trkpt lat="36.4708740" lon="-6.0926030">
        <ele>54.0</ele>
        <time>2023-01-28T09:02:10Z</time>
      </trkpt>
      <trkpt lat="36.4708710" lon="-6.0925770">
        <ele>54.2</ele>
        <time>2023-01-28T09:02:11Z</time>
      </trkpt>
      <trkpt lat="36.4708680" lon="-6.0925460">
        <ele>54.4</ele>
        <time>2023-01-28T09:02:12Z</time>
      </trkpt>
      <trkpt lat="36.4708700" lon="-6.0925160">
        <ele>54.4</ele>
        <time>2023-01-28T09:02:13Z</time>
      </trkpt>
      <trkpt lat="36.4708700" lon="-6.0924880">
        <ele>54.6</ele>
        <time>2023-01-28T09:02:14Z</time>
      </trkpt>
      <trkpt lat="36.4708650" lon="-6.0924520">
        <ele>54.6</ele>
        <time>2023-01-28T09:02:15Z</time>
      </trkpt>
      <trkpt lat="36.4708740" lon="-6.0924180">
        <ele>54.6</ele>
        <time>2023-01-28T09:02:16Z</time>
      </trkpt>
      <trkpt lat="36.4708750" lon="-6.0923860">
        <ele>54.4</ele>
        <time>2023-01-28T09:02:17Z</time>
      </trkpt>
      <trkpt lat="36.4708700" lon="-6.0923540">
        <ele>54.6</ele>
        <time>2023-01-28T09:02:18Z</time>
      </trkpt>
      <trkpt lat="36.4708800" lon="-6.0923230">
        <ele>54.6</ele>
        <time>2023-01-28T09:02:19Z</time>
      </trkpt>
      <trkpt lat="36.4708630" lon="-6.0922920">
        <ele>54.8</ele>
        <time>2023-01-28T09:02:20Z</time>
      </trkpt>
      <trkpt lat="36.4708530" lon="-6.0922610">
        <ele>55.2</ele>
        <time>2023-01-28T09:02:21Z</time>
      </trkpt>
      <trkpt lat="36.4708520" lon="-6.0922310">
        <ele>55.2</ele>
        <time>2023-01-28T09:02:22Z</time>
      </trkpt>
      <trkpt lat="36.4708600" lon="-6.0922010">
        <ele>55.0</ele>
        <time>2023-01-28T09:02:23Z</time>
      </trkpt>
      <trkpt lat="36.4708530" lon="-6.0921840">
        <ele>55.2</ele>
        <time>2023-01-28T09:02:24Z</time>
      </trkpt>
      <trkpt lat="36.4708620" lon="-6.0921700">
        <ele>55.4</ele>
        <time>2023-01-28T09:02:25Z</time>
      </trkpt>
      <trkpt lat="36.4708640" lon="-6.0921460">
        <ele>55.6</ele>
        <time>2023-01-28T09:02:26Z</time>
      </trkpt>
      <trkpt lat="36.4708550" lon="-6.0921170">
        <ele>55.6</ele>
        <time>2023-01-28T09:02:27Z</time>
      </trkpt>
      <trkpt lat="36.4708490" lon="-6.0920950">
        <ele>55.6</ele>
        <time>2023-01-28T09:02:28Z</time>
      </trkpt>
      <trkpt lat="36.4708460" lon="-6.0920570">
        <ele>55.8</ele>
        <time>2023-01-28T09:02:29Z</time>
      </trkpt>
      <trkpt lat="36.4708350" lon="-6.0920300">
        <ele>56.0</ele>
        <time>2023-01-28T09:02:30Z</time>
      </trkpt>
      <trkpt lat="36.4708290" lon="-6.0920040">
        <ele>56.0</ele>
        <time>2023-01-28T09:02:31Z</time>
      </trkpt>
      <trkpt lat="36.4708050" lon="-6.0919730">
        <ele>56.4</ele>
        <time>2023-01-28T09:02:32Z</time>
      </trkpt>
      <trkpt lat="36.4708120" lon="-6.0919510">
        <ele>56.6</ele>
        <time>2023-01-28T09:02:33Z</time>
      </trkpt>
      <trkpt lat="36.4708070" lon="-6.0919300">
        <ele>56.8</ele>
        <time>2023-01-28T09:02:34Z</time>
      </trkpt>
      <trkpt lat="36.4708130" lon="-6.0919070">
        <ele>57.0</ele>
        <time>2023-01-28T09:02:35Z</time>
      </trkpt>
      <trkpt lat="36.4708160" lon="-6.0918840">
        <ele>57.2</ele>
        <time>2023-01-28T09:02:36Z</time>
      </trkpt>
      <trkpt lat="36.4708070" lon="-6.0918440">
        <ele>57.2</ele>
        <time>2023-01-28T09:02:37Z</time>
      </trkpt>
      <trkpt lat="36.4708040" lon="-6.0918330">
        <ele>57.6</ele>
        <time>2023-01-28T09:02:38Z</time>
      </trkpt>
      <trkpt lat="36.4708010" lon="-6.0918210">
        <ele>57.8</ele>
        <time>2023-01-28T09:02:39Z</time>
      </trkpt>
      <trkpt lat="36.4708000" lon="-6.0917930">
        <ele>58.0</ele>
        <time>2023-01-28T09:02:40Z</time>
      </trkpt>
      <trkpt lat="36.4708000" lon="-6.0917740">
        <ele>58.0</ele>
        <time>2023-01-28T09:02:41Z</time>
      </trkpt>
      <trkpt lat="36.4708060" lon="-6.0917520">
        <ele>58.2</ele>
        <time>2023-01-28T09:02:42Z</time>
      </trkpt>
      <trkpt lat="36.4708070" lon="-6.0917320">
        <ele>58.4</ele>
        <time>2023-01-28T09:02:43Z</time>
      </trkpt>
      <trkpt lat="36.4708030" lon="-6.0916970">
        <ele>58.6</ele>
        <time>2023-01-28T09:02:44Z</time>
      </trkpt>
      <trkpt lat="36.4707980" lon="-6.0916790">
        <ele>58.8</ele>
        <time>2023-01-28T09:02:45Z</time>
      </trkpt>
      <trkpt lat="36.4708060" lon="-6.0916570">
        <ele>59.0</ele>
        <time>2023-01-28T09:02:46Z</time>
      </trkpt>
      <trkpt lat="36.4708070" lon="-6.0916410">
        <ele>59.0</ele>
        <time>2023-01-28T09:02:47Z</time>
      </trkpt>
      <trkpt lat="36.4708030" lon="-6.0916030">
        <ele>59.2</ele>
        <time>2023-01-28T09:02:48Z</time>
      </trkpt>
      <trkpt lat="36.4708040" lon="-6.0915920">
        <ele>59.6</ele>
        <time>2023-01-28T09:02:49Z</time>
      </trkpt>
      <trkpt lat="36.4708000" lon="-6.0915750">
        <ele>59.6</ele>
        <time>2023-01-28T09:02:50Z</time>
      </trkpt>
      <trkpt lat="36.4708000" lon="-6.0915580">
        <ele>59.8</ele>
        <time>2023-01-28T09:02:51Z</time>
      </trkpt>
      <trkpt lat="36.4708030" lon="-6.0915380">
        <ele>60.0</ele>
        <time>2023-01-28T09:02:52Z</time>
      </trkpt>
      <trkpt lat="36.4707990" lon="-6.0915140">
        <ele>60.4</ele>
        <time>2023-01-28T09:02:53Z</time>
      </trkpt>
      <trkpt lat="36.4707970" lon="-6.0914990">
        <ele>60.6</ele>
        <time>2023-01-28T09:02:54Z</time>
      </trkpt>
      <trkpt lat="36.4708010" lon="-6.0914790">
        <ele>60.8</ele>
        <time>2023-01-28T09:02:55Z</time>
      </trkpt>
      <trkpt lat="36.4708040" lon="-6.0914580">
        <ele>61.2</ele>
        <time>2023-01-28T09:02:56Z</time>
      </trkpt>
      <trkpt lat="36.4708090" lon="-6.0914440">
        <ele>61.4</ele>
        <time>2023-01-28T09:02:57Z</time>
      </trkpt>
      <trkpt lat="36.4707980" lon="-6.0914310">
        <ele>61.8</ele>
        <time>2023-01-28T09:02:58Z</time>
      </trkpt>
      <trkpt lat="36.4707850" lon="-6.0914060">
        <ele>61.8</ele>
        <time>2023-01-28T09:02:59Z</time>
      </trkpt>
      <trkpt lat="36.4707830" lon="-6.0913910">
        <ele>61.8</ele>
        <time>2023-01-28T09:03:00Z</time>
      </trkpt>
      <trkpt lat="36.4707770" lon="-6.0913650">
        <ele>62.2</ele>
        <time>2023-01-28T09:03:01Z</time>
      </trkpt>
      <trkpt lat="36.4707850" lon="-6.0913680">
        <ele>62.6</ele>
        <time>2023-01-28T09:03:02Z</time>
      </trkpt>
      <trkpt lat="36.4707730" lon="-6.0913400">
        <ele>63.0</ele>
        <time>2023-01-28T09:03:03Z</time>
      </trkpt>
      <trkpt lat="36.4707760" lon="-6.0913250">
        <ele>63.0</ele>
        <time>2023-01-28T09:03:04Z</time>
      </trkpt>
      <trkpt lat="36.4707700" lon="-6.0913050">
        <ele>63.0</ele>
        <time>2023-01-28T09:03:05Z</time>
      </trkpt>
      <trkpt lat="36.4707730" lon="-6.0912970">
        <ele>63.0</ele>
        <time>2023-01-28T09:03:06Z</time>
      </trkpt>
      <trkpt lat="36.4707770" lon="-6.0912860">
        <ele>63.2</ele>
        <time>2023-01-28T09:03:07Z</time>
      </trkpt>
      <trkpt lat="36.4707760" lon="-6.0912710">
        <ele>63.4</ele>
        <time>2023-01-28T09:03:08Z</time>
      </trkpt>
      <trkpt lat="36.4707730" lon="-6.0912470">
        <ele>63.6</ele>
        <time>2023-01-28T09:03:09Z</time>
      </trkpt>
      <trkpt lat="36.4707690" lon="-6.0912230">
        <ele>63.6</ele>
        <time>2023-01-28T09:03:10Z</time>
      </trkpt>
      <trkpt lat="36.4707500" lon="-6.0912000">
        <ele>63.8</ele>
        <time>2023-01-28T09:03:11Z</time>
      </trkpt>
      <trkpt lat="36.4707450" lon="-6.0911820">
        <ele>64.0</ele>
        <time>2023-01-28T09:03:12Z</time>
      </trkpt>
      <trkpt lat="36.4707410" lon="-6.0911600">
        <ele>64.2</ele>
        <time>2023-01-28T09:03:13Z</time>
      </trkpt>
      <trkpt lat="36.4707300" lon="-6.0911390">
        <ele>64.6</ele>
        <time>2023-01-28T09:03:14Z</time>
      </trkpt>
      <trkpt lat="36.4707290" lon="-6.0911180">
        <ele>64.8</ele>
        <time>2023-01-28T09:03:15Z</time>
      </trkpt>
      <trkpt lat="36.4707300" lon="-6.0911040">
        <ele>64.8</ele>
        <time>2023-01-28T09:03:16Z</time>
      </trkpt>
      <trkpt lat="36.4707300" lon="-6.0910830">
        <ele>64.8</ele>
        <time>2023-01-28T09:03:17Z</time>
      </trkpt>
      <trkpt lat="36.4707240" lon="-6.0910720">
        <ele>65.0</ele>
        <time>2023-01-28T09:03:18Z</time>
      </trkpt>
      <trkpt lat="36.4707210" lon="-6.0910580">
        <ele>65.4</ele>
        <time>2023-01-28T09:03:19Z</time>
      </trkpt>
      <trkpt lat="36.4706970" lon="-6.0910370">
        <ele>65.2</ele>
        <time>2023-01-28T09:03:20Z</time>
      </trkpt>
      <trkpt lat="36.4706890" lon="-6.0910310">
        <ele>65.6</ele>
        <time>2023-01-28T09:03:21Z</time>
      </trkpt>
      <trkpt lat="36.4706830" lon="-6.0910190">
        <ele>66.0</ele>
        <time>2023-01-28T09:03:22Z</time>
      </trkpt>
      <trkpt lat="36.4706730" lon="-6.0910020">
        <ele>66.4</ele>
        <time>2023-01-28T09:03:23Z</time>
      </trkpt>
      <trkpt lat="36.4706610" lon="-6.0909880">
        <ele>66.4</ele>
        <time>2023-01-28T09:03:24Z</time>
      </trkpt>
      <trkpt lat="36.4706580" lon="-6.0909760">
        <ele>66.6</ele>
        <time>2023-01-28T09:03:25Z</time>
      </trkpt>
      <trkpt lat="36.4706630" lon="-6.0909530">
        <ele>66.6</ele>
        <time>2023-01-28T09:03:26Z</time>
      </trkpt>
      <trkpt lat="36.4706520" lon="-6.0909330">
        <ele>66.8</ele>
        <time>2023-01-28T09:03:27Z</time>
      </trkpt>
      <trkpt lat="36.4706550" lon="-6.0909160">
        <ele>66.8</ele>
        <time>2023-01-28T09:03:28Z</time>
      </trkpt>
      <trkpt lat="36.4706650" lon="-6.0909020">
        <ele>67.0</ele>
        <time>2023-01-28T09:03:29Z</time>
      </trkpt>
      <trkpt lat="36.4706630" lon="-6.0908810">
        <ele>67.2</ele>
        <time>2023-01-28T09:03:30Z</time>
      </trkpt>
      <trkpt lat="36.4706580" lon="-6.0908670">
        <ele>67.8</ele>
        <time>2023-01-28T09:03:31Z</time>
      </trkpt>
      <trkpt lat="36.4706470" lon="-6.0908410">
        <ele>68.0</ele>
        <time>2023-01-28T09:03:32Z</time>
      </trkpt>
      <trkpt lat="36.4706510" lon="-6.0908300">
        <ele>68.2</ele>
        <time>2023-01-28T09:03:33Z</time>
      </trkpt>
      <trkpt lat="36.4706460" lon="-6.0907930">
        <ele>68.2</ele>
        <time>2023-01-28T09:03:34Z</time>
      </trkpt>
      <trkpt lat="36.4706430" lon="-6.0907650">
        <ele>68.0</ele>
        <time>2023-01-28T09:03:35Z</time>
      </trkpt>
      <trkpt lat="36.4706370" lon="-6.0907540">
        <ele>68.2</ele>
        <time>2023-01-28T09:03:36Z</time>
      </trkpt>
      <trkpt lat="36.4706310" lon="-6.0907370">
        <ele>68.4</ele>
        <time>2023-01-28T09:03:37Z</time>
      </trkpt>
      <trkpt lat="36.4706260" lon="-6.0907290">
        <ele>68.6</ele>
        <time>2023-01-28T09:03:38Z</time>
      </trkpt>
      <trkpt lat="36.4706220" lon="-6.0907150">
        <ele>68.6</ele>
        <time>2023-01-28T09:03:39Z</time>
      </trkpt>
      <trkpt lat="36.4706300" lon="-6.0907020">
        <ele>68.8</ele>
        <time>2023-01-28T09:03:40Z</time>
      </trkpt>
      <trkpt lat="36.4706410" lon="-6.0906990">
        <ele>69.0</ele>
        <time>2023-01-28T09:03:41Z</time>
      </trkpt>
      <trkpt lat="36.4706390" lon="-6.0906830">
        <ele>69.4</ele>
        <time>2023-01-28T09:03:42Z</time>
      </trkpt>
      <trkpt lat="36.4706230" lon="-6.0906590">
        <ele>69.4</ele>
        <time>2023-01-28T09:03:43Z</time>
      </trkpt>
      <trkpt lat="36.4705980" lon="-6.0906200">
        <ele>70.0</ele>
        <time>2023-01-28T09:03:44Z</time>
      </trkpt>
      <trkpt lat="36.4705830" lon="-6.0906110">
        <ele>70.2</ele>
        <time>2023-01-28T09:03:45Z</time>
      </trkpt>
      <trkpt lat="36.4705810" lon="-6.0906070">
        <ele>70.4</ele>
        <time>2023-01-28T09:03:46Z</time>
      </trkpt>
      <trkpt lat="36.4705750" lon="-6.0905920">
        <ele>70.8</ele>
        <time>2023-01-28T09:03:47Z</time>
      </trkpt>
      <trkpt lat="36.4705660" lon="-6.0905630">
        <ele>71.2</ele>
        <time>2023-01-28T09:03:48Z</time>
      </trkpt>
      <trkpt lat="36.4705560" lon="-6.0905480">
        <ele>71.0</ele>
        <time>2023-01-28T09:03:49Z</time>
      </trkpt>
      <trkpt lat="36.4705450" lon="-6.0905500">
        <ele>71.0</ele>
        <time>2023-01-28T09:03:50Z</time>
      </trkpt>
      <trkpt lat="36.4705550" lon="-6.0905340">
        <ele>71.2</ele>
        <time>2023-01-28T09:03:51Z</time>
      </trkpt>
      <trkpt lat="36.4705610" lon="-6.0905140">
        <ele>71.6</ele>
        <time>2023-01-28T09:03:52Z</time>
      </trkpt>
      <trkpt lat="36.4705350" lon="-6.0905000">
        <ele>71.8</ele>
        <time>2023-01-28T09:03:53Z</time>
      </trkpt>
      <trkpt lat="36.4705340" lon="-6.0904890">
        <ele>71.8</ele>
        <time>2023-01-28T09:03:54Z</time>
      </trkpt>
      <trkpt lat="36.4705250" lon="-6.0904760">
        <ele>72.0</ele>
        <time>2023-01-28T09:03:55Z</time>
      </trkpt>
      <trkpt lat="36.4705090" lon="-6.0904600">
        <ele>72.2</ele>
        <time>2023-01-28T09:03:56Z</time>
      </trkpt>
      <trkpt lat="36.4705040" lon="-6.0904420">
        <ele>72.4</ele>
        <time>2023-01-28T09:03:57Z</time>
      </trkpt>
      <trkpt lat="36.4705010" lon="-6.0904300">
        <ele>73.0</ele>
        <time>2023-01-28T09:03:58Z</time>
      </trkpt>
      <trkpt lat="36.4704820" lon="-6.0903950">
        <ele>73.2</ele>
        <time>2023-01-28T09:03:59Z</time>
      </trkpt>
      <trkpt lat="36.4704740" lon="-6.0903770">
        <ele>73.4</ele>
        <time>2023-01-28T09:04:00Z</time>
      </trkpt>
      <trkpt lat="36.4704680" lon="-6.0903580">
        <ele>73.2</ele>
        <time>2023-01-28T09:04:01Z</time>
      </trkpt>
      <trkpt lat="36.4704650" lon="-6.0903470">
        <ele>73.0</ele>
        <time>2023-01-28T09:04:02Z</time>
      </trkpt>
      <trkpt lat="36.4704590" lon="-6.0903280">
        <ele>73.0</ele>
        <time>2023-01-28T09:04:03Z</time>
      </trkpt>
      <trkpt lat="36.4704360" lon="-6.0903140">
        <ele>73.2</ele>
        <time>2023-01-28T09:04:04Z</time>
      </trkpt>
      <trkpt lat="36.4704300" lon="-6.0902980">
        <ele>73.2</ele>
        <time>2023-01-28T09:04:05Z</time>
      </trkpt>
      <trkpt lat="36.4704240" lon="-6.0902880">
        <ele>73.6</ele>
        <time>2023-01-28T09:04:06Z</time>
      </trkpt>
      <trkpt lat="36.4703870" lon="-6.0902490">
        <ele>73.6</ele>
        <time>2023-01-28T09:04:07Z</time>
      </trkpt>
      <trkpt lat="36.4703830" lon="-6.0902280">
        <ele>73.6</ele>
        <time>2023-01-28T09:04:08Z</time>
      </trkpt>
      <trkpt lat="36.4703710" lon="-6.0902060">
        <ele>73.8</ele>
        <time>2023-01-28T09:04:09Z</time>
      </trkpt>
      <trkpt lat="36.4703660" lon="-6.0901850">
        <ele>74.0</ele>
        <time>2023-01-28T09:04:10Z</time>
      </trkpt>
      <trkpt lat="36.4703590" lon="-6.0901650">
        <ele>74.0</ele>
        <time>2023-01-28T09:04:11Z</time>
      </trkpt>
      <trkpt lat="36.4703400" lon="-6.0901390">
        <ele>74.0</ele>
        <time>2023-01-28T09:04:12Z</time>
      </trkpt>
      <trkpt lat="36.4703360" lon="-6.0901090">
        <ele>74.0</ele>
        <time>2023-01-28T09:04:13Z</time>
      </trkpt>
      <trkpt lat="36.4703280" lon="-6.0900900">
        <ele>74.0</ele>
        <time>2023-01-28T09:04:14Z</time>
      </trkpt>
      <trkpt lat="36.4703210" lon="-6.0900730">
        <ele>74.2</ele>
        <time>2023-01-28T09:04:15Z</time>
      </trkpt>
      <trkpt lat="36.4703160" lon="-6.0900610">
        <ele>74.2</ele>
        <time>2023-01-28T09:04:16Z</time>
      </trkpt>
      <trkpt lat="36.4703020" lon="-6.0900410">
        <ele>74.2</ele>
        <time>2023-01-28T09:04:17Z</time>
      </trkpt>
      <trkpt lat="36.4702960" lon="-6.0900150">
        <ele>74.2</ele>
        <time>2023-01-28T09:04:18Z</time>
      </trkpt>
      <trkpt lat="36.4702930" lon="-6.0899860">
        <ele>74.0</ele>
        <time>2023-01-28T09:04:19Z</time>
      </trkpt>
      <trkpt lat="36.4702740" lon="-6.0899470">
        <ele>74.0</ele>
        <time>2023-01-28T09:04:20Z</time>
      </trkpt>
      <trkpt lat="36.4702550" lon="-6.0899270">
        <ele>74.0</ele>
        <time>2023-01-28T09:04:21Z</time>
      </trkpt>
      <trkpt lat="36.4702400" lon="-6.0899040">
        <ele>74.0</ele>
        <time>2023-01-28T09:04:22Z</time>
      </trkpt>
      <trkpt lat="36.4702270" lon="-6.0898820">
        <ele>74.6</ele>
        <time>2023-01-28T09:04:23Z</time>
      </trkpt>
      <trkpt lat="36.4702200" lon="-6.0898550">
        <ele>74.6</ele>
        <time>2023-01-28T09:04:24Z</time>
      </trkpt>
      <trkpt lat="36.4702060" lon="-6.0898420">
        <ele>74.6</ele>
        <time>2023-01-28T09:04:25Z</time>
      </trkpt>
      <trkpt lat="36.4701950" lon="-6.0898380">
        <ele>74.4</ele>
        <time>2023-01-28T09:04:26Z</time>
      </trkpt>
      <trkpt lat="36.4701730" lon="-6.0898180">
        <ele>74.4</ele>
        <time>2023-01-28T09:04:27Z</time>
      </trkpt>
      <trkpt lat="36.4701530" lon="-6.0897980">
        <ele>74.6</ele>
        <time>2023-01-28T09:04:28Z</time>
      </trkpt>
      <trkpt lat="36.4701260" lon="-6.0897750">
        <ele>74.6</ele>
        <time>2023-01-28T09:04:29Z</time>
      </trkpt>
      <trkpt lat="36.4701050" lon="-6.0897420">
        <ele>74.2</ele>
        <time>2023-01-28T09:04:30Z</time>
      </trkpt>
      <trkpt lat="36.4700900" lon="-6.0897170">
        <ele>74.0</ele>
        <time>2023-01-28T09:04:31Z</time>
      </trkpt>
      <trkpt lat="36.4700600" lon="-6.0896960">
        <ele>73.8</ele>
        <time>2023-01-28T09:04:32Z</time>
      </trkpt>
      <trkpt lat="36.4700270" lon="-6.0896670">
        <ele>74.0</ele>
        <time>2023-01-28T09:04:33Z</time>
      </trkpt>
      <trkpt lat="36.4700130" lon="-6.0896470">
        <ele>74.4</ele>
        <time>2023-01-28T09:04:34Z</time>
      </trkpt>
      <trkpt lat="36.4700120" lon="-6.0896300">
        <ele>74.4</ele>
        <time>2023-01-28T09:04:35Z</time>
      </trkpt>
      <trkpt lat="36.4699830" lon="-6.0896060">
        <ele>74.6</ele>
        <time>2023-01-28T09:04:36Z</time>
      </trkpt>
      <trkpt lat="36.4699730" lon="-6.0895810">
        <ele>74.6</ele>
        <time>2023-01-28T09:04:37Z</time>
      </trkpt>
      <trkpt lat="36.4699410" lon="-6.0895520">
        <ele>74.4</ele>
        <time>2023-01-28T09:04:38Z</time>
      </trkpt>
      <trkpt lat="36.4699190" lon="-6.0895420">
        <ele>74.2</ele>
        <time>2023-01-28T09:04:39Z</time>
      </trkpt>
      <trkpt lat="36.4698900" lon="-6.0895420">
        <ele>74.4</ele>
        <time>2023-01-28T09:04:40Z</time>
      </trkpt>
      <trkpt lat="36.4698570" lon="-6.0895490">
        <ele>74.8</ele>
        <time>2023-01-28T09:04:41Z</time>
      </trkpt>
      <trkpt lat="36.4698280" lon="-6.0895700">
        <ele>74.8</ele>
        <time>2023-01-28T09:04:42Z</time>
      </trkpt>
      <trkpt lat="36.4698010" lon="-6.0895660">
        <ele>74.8</ele>
        <time>2023-01-28T09:04:43Z</time>
      </trkpt>
      <trkpt lat="36.4697680" lon="-6.0895800">
        <ele>74.8</ele>
        <time>2023-01-28T09:04:44Z</time>
      </trkpt>
      <trkpt lat="36.4697390" lon="-6.0895960">
        <ele>75.0</ele>
        <time>2023-01-28T09:04:45Z</time>
      </trkpt>
      <trkpt lat="36.4697070" lon="-6.0896040">
        <ele>75.0</ele>
        <time>2023-01-28T09:04:46Z</time>
      </trkpt>
      <trkpt lat="36.4696710" lon="-6.0896000">
        <ele>75.0</ele>
        <time>2023-01-28T09:04:47Z</time>
      </trkpt>
      <trkpt lat="36.4696280" lon="-6.0896030">
        <ele>75.0</ele>
        <time>2023-01-28T09:04:48Z</time>
      </trkpt>
      <trkpt lat="36.4695950" lon="-6.0896120">
        <ele>75.2</ele>
        <time>2023-01-28T09:04:49Z</time>
      </trkpt>
      <trkpt lat="36.4695600" lon="-6.0896110">
        <ele>75.2</ele>
        <time>2023-01-28T09:04:50Z</time>
      </trkpt>
      <trkpt lat="36.4695340" lon="-6.0896200">
        <ele>75.2</ele>
        <time>2023-01-28T09:04:51Z</time>
      </trkpt>
      <trkpt lat="36.4694900" lon="-6.0896130">
        <ele>75.4</ele>
        <time>2023-01-28T09:04:52Z</time>
      </trkpt>
      <trkpt lat="36.4694580" lon="-6.0896220">
        <ele>75.6</ele>
        <time>2023-01-28T09:04:53Z</time>
      </trkpt>
      <trkpt lat="36.4694220" lon="-6.0896160">
        <ele>75.6</ele>
        <time>2023-01-28T09:04:54Z</time>
      </trkpt>
      <trkpt lat="36.4693890" lon="-6.0896150">
        <ele>75.8</ele>
        <time>2023-01-28T09:04:55Z</time>
      </trkpt>
      <trkpt lat="36.4693510" lon="-6.0896120">
        <ele>76.0</ele>
        <time>2023-01-28T09:04:56Z</time>
      </trkpt>
      <trkpt lat="36.4693110" lon="-6.0896130">
        <ele>76.2</ele>
        <time>2023-01-28T09:04:57Z</time>
      </trkpt>
      <trkpt lat="36.4692680" lon="-6.0896130">
        <ele>76.4</ele>
        <time>2023-01-28T09:04:58Z</time>
      </trkpt>
      <trkpt lat="36.4692280" lon="-6.0896110">
        <ele>76.6</ele>
        <time>2023-01-28T09:04:59Z</time>
      </trkpt>
      <trkpt lat="36.4691790" lon="-6.0896110">
        <ele>76.8</ele>
        <time>2023-01-28T09:05:00Z</time>
      </trkpt>
      <trkpt lat="36.4691480" lon="-6.0896170">
        <ele>77.0</ele>
        <time>2023-01-28T09:05:01Z</time>
      </trkpt>
      <trkpt lat="36.4691210" lon="-6.0896240">
        <ele>77.0</ele>
        <time>2023-01-28T09:05:02Z</time>
      </trkpt>
      <trkpt lat="36.4690900" lon="-6.0896230">
        <ele>77.0</ele>
        <time>2023-01-28T09:05:03Z</time>
      </trkpt>
      <trkpt lat="36.4690660" lon="-6.0896350">
        <ele>77.2</ele>
        <time>2023-01-28T09:05:04Z</time>
      </trkpt>
      <trkpt lat="36.4690320" lon="-6.0896330">
        <ele>77.2</ele>
        <time>2023-01-28T09:05:05Z</time>
      </trkpt>
      <trkpt lat="36.4690060" lon="-6.0896380">
        <ele>77.2</ele>
        <time>2023-01-28T09:05:06Z</time>
      </trkpt>
      <trkpt lat="36.4689700" lon="-6.0896480">
        <ele>77.2</ele>
        <time>2023-01-28T09:05:07Z</time>
      </trkpt>
      <trkpt lat="36.4689390" lon="-6.0896500">
        <ele>77.2</ele>
        <time>2023-01-28T09:05:08Z</time>
      </trkpt>
      <trkpt lat="36.4689050" lon="-6.0896570">
        <ele>77.2</ele>
        <time>2023-01-28T09:05:09Z</time>
      </trkpt>
      <trkpt lat="36.4688720" lon="-6.0896650">
        <ele>77.4</ele>
        <time>2023-01-28T09:05:10Z</time>
      </trkpt>
      <trkpt lat="36.4688280" lon="-6.0896580">
        <ele>77.4</ele>
        <time>2023-01-28T09:05:11Z</time>
      </trkpt>
      <trkpt lat="36.4687960" lon="-6.0896700">
        <ele>77.4</ele>
        <time>2023-01-28T09:05:12Z</time>
      </trkpt>
      <trkpt lat="36.4687510" lon="-6.0896500">
        <ele>77.4</ele>
        <time>2023-01-28T09:05:13Z</time>
      </trkpt>
      <trkpt lat="36.4687100" lon="-6.0896480">
        <ele>77.2</ele>
        <time>2023-01-28T09:05:14Z</time>
      </trkpt>
      <trkpt lat="36.4686620" lon="-6.0896480">
        <ele>77.2</ele>
        <time>2023-01-28T09:05:15Z</time>
      </trkpt>
      <trkpt lat="36.4686390" lon="-6.0896680">
        <ele>77.2</ele>
        <time>2023-01-28T09:05:16Z</time>
      </trkpt>
      <trkpt lat="36.4685900" lon="-6.0896610">
        <ele>77.2</ele>
        <time>2023-01-28T09:05:17Z</time>
      </trkpt>
      <trkpt lat="36.4685550" lon="-6.0896630">
        <ele>77.2</ele>
        <time>2023-01-28T09:05:18Z</time>
      </trkpt>
      <trkpt lat="36.4685180" lon="-6.0896520">
        <ele>77.0</ele>
        <time>2023-01-28T09:05:19Z</time>
      </trkpt>
      <trkpt lat="36.4684810" lon="-6.0896460">
        <ele>77.0</ele>
        <time>2023-01-28T09:05:20Z</time>
      </trkpt>
      <trkpt lat="36.4684500" lon="-6.0896530">
        <ele>76.8</ele>
        <time>2023-01-28T09:05:21Z</time>
      </trkpt>
      <trkpt lat="36.4684050" lon="-6.0896580">
        <ele>76.6</ele>
        <time>2023-01-28T09:05:22Z</time>
      </trkpt>
      <trkpt lat="36.4683630" lon="-6.0896660">
        <ele>76.4</ele>
        <time>2023-01-28T09:05:23Z</time>
      </trkpt>
      <trkpt lat="36.4683130" lon="-6.0896660">
        <ele>76.4</ele>
        <time>2023-01-28T09:05:24Z</time>
      </trkpt>
      <trkpt lat="36.4682730" lon="-6.0896730">
        <ele>76.4</ele>
        <time>2023-01-28T09:05:25Z</time>
      </trkpt>
      <trkpt lat="36.4682250" lon="-6.0896760">
        <ele>76.4</ele>
        <time>2023-01-28T09:05:26Z</time>
      </trkpt>
      <trkpt lat="36.4681860" lon="-6.0896860">
        <ele>76.2</ele>
        <time>2023-01-28T09:05:27Z</time>
      </trkpt>
      <trkpt lat="36.4681420" lon="-6.0896850">
        <ele>76.2</ele>
        <time>2023-01-28T09:05:28Z</time>
      </trkpt>
      <trkpt lat="36.4680920" lon="-6.0896930">
        <ele>76.2</ele>
        <time>2023-01-28T09:05:29Z</time>
      </trkpt>
      <trkpt lat="36.4680480" lon="-6.0897000">
        <ele>76.0</ele>
        <time>2023-01-28T09:05:30Z</time>
      </trkpt>
      <trkpt lat="36.4679920" lon="-6.0897020">
        <ele>76.0</ele>
        <time>2023-01-28T09:05:31Z</time>
      </trkpt>
      <trkpt lat="36.4679410" lon="-6.0897040">
        <ele>75.8</ele>
        <time>2023-01-28T09:05:32Z</time>
      </trkpt>
      <trkpt lat="36.4678960" lon="-6.0897070">
        <ele>75.6</ele>
        <time>2023-01-28T09:05:33Z</time>
      </trkpt>
      <trkpt lat="36.4678480" lon="-6.0897130">
        <ele>75.6</ele>
        <time>2023-01-28T09:05:34Z</time>
      </trkpt>
      <trkpt lat="36.4678040" lon="-6.0897160">
        <ele>75.6</ele>
        <time>2023-01-28T09:05:35Z</time>
      </trkpt>
      <trkpt lat="36.4677550" lon="-6.0897170">
        <ele>75.6</ele>
        <time>2023-01-28T09:05:36Z</time>
      </trkpt>
      <trkpt lat="36.4676980" lon="-6.0897160">
        <ele>75.6</ele>
        <time>2023-01-28T09:05:37Z</time>
      </trkpt>
      <trkpt lat="36.4676380" lon="-6.0897270">
        <ele>75.2</ele>
        <time>2023-01-28T09:05:38Z</time>
      </trkpt>
      <trkpt lat="36.4675930" lon="-6.0897240">
        <ele>75.0</ele>
        <time>2023-01-28T09:05:39Z</time>
      </trkpt>
      <trkpt lat="36.4675430" lon="-6.0897260">
        <ele>74.8</ele>
        <time>2023-01-28T09:05:40Z</time>
      </trkpt>
      <trkpt lat="36.4674960" lon="-6.0897350">
        <ele>74.8</ele>
        <time>2023-01-28T09:05:41Z</time>
      </trkpt>
      <trkpt lat="36.4674420" lon="-6.0897380">
        <ele>74.6</ele>
        <time>2023-01-28T09:05:42Z</time>
      </trkpt>
      <trkpt lat="36.4673910" lon="-6.0897240">
        <ele>74.6</ele>
        <time>2023-01-28T09:05:43Z</time>
      </trkpt>
      <trkpt lat="36.4673340" lon="-6.0897160">
        <ele>74.8</ele>
        <time>2023-01-28T09:05:44Z</time>
      </trkpt>
      <trkpt lat="36.4672820" lon="-6.0897170">
        <ele>74.8</ele>
        <time>2023-01-28T09:05:45Z</time>
      </trkpt>
      <trkpt lat="36.4672260" lon="-6.0897080">
        <ele>74.6</ele>
        <time>2023-01-28T09:05:46Z</time>
      </trkpt>
      <trkpt lat="36.4671650" lon="-6.0897020">
        <ele>74.6</ele>
        <time>2023-01-28T09:05:47Z</time>
      </trkpt>
      <trkpt lat="36.4671180" lon="-6.0897170">
        <ele>74.4</ele>
        <time>2023-01-28T09:05:48Z</time>
      </trkpt>
      <trkpt lat="36.4670650" lon="-6.0897330">
        <ele>74.4</ele>
        <time>2023-01-28T09:05:49Z</time>
      </trkpt>
      <trkpt lat="36.4670160" lon="-6.0897260">
        <ele>74.4</ele>
        <time>2023-01-28T09:05:50Z</time>
      </trkpt>
      <trkpt lat="36.4669580" lon="-6.0897250">
        <ele>74.2</ele>
        <time>2023-01-28T09:05:51Z</time>
      </trkpt>
      <trkpt lat="36.4669030" lon="-6.0897230">
        <ele>74.2</ele>
        <time>2023-01-28T09:05:52Z</time>
      </trkpt>
      <trkpt lat="36.4668480" lon="-6.0897160">
        <ele>74.4</ele>
        <time>2023-01-28T09:05:53Z</time>
      </trkpt>
      <trkpt lat="36.4668040" lon="-6.0897120">
        <ele>74.4</ele>
        <time>2023-01-28T09:05:54Z</time>
      </trkpt>
      <trkpt lat="36.4667570" lon="-6.0897150">
        <ele>74.4</ele>
        <time>2023-01-28T09:05:55Z</time>
      </trkpt>
      <trkpt lat="36.4667180" lon="-6.0897250">
        <ele>74.4</ele>
        <time>2023-01-28T09:05:56Z</time>
      </trkpt>
      <trkpt lat="36.4666790" lon="-6.0897390">
        <ele>74.6</ele>
        <time>2023-01-28T09:05:57Z</time>
      </trkpt>
      <trkpt lat="36.4666350" lon="-6.0897450">
        <ele>74.8</ele>
        <time>2023-01-28T09:05:58Z</time>
      </trkpt>
      <trkpt lat="36.4665840" lon="-6.0897580">
        <ele>74.6</ele>
        <time>2023-01-28T09:05:59Z</time>
      </trkpt>
      <trkpt lat="36.4665400" lon="-6.0897780">
        <ele>74.2</ele>
        <time>2023-01-28T09:06:00Z</time>
      </trkpt>
      <trkpt lat="36.4664990" lon="-6.0897900">
        <ele>74.4</ele>
        <time>2023-01-28T09:06:01Z</time>
      </trkpt>
      <trkpt lat="36.4664520" lon="-6.0897780">
        <ele>74.4</ele>
        <time>2023-01-28T09:06:02Z</time>
      </trkpt>
      <trkpt lat="36.4664140" lon="-6.0897990">
        <ele>74.4</ele>
        <time>2023-01-28T09:06:03Z</time>
      </trkpt>
      <trkpt lat="36.4663720" lon="-6.0898060">
        <ele>74.2</ele>
        <time>2023-01-28T09:06:04Z</time>
      </trkpt>
      <trkpt lat="36.4663340" lon="-6.0898070">
        <ele>74.2</ele>
        <time>2023-01-28T09:06:05Z</time>
      </trkpt>
      <trkpt lat="36.4662870" lon="-6.0898100">
        <ele>74.2</ele>
        <time>2023-01-28T09:06:06Z</time>
      </trkpt>
      <trkpt lat="36.4662470" lon="-6.0898180">
        <ele>74.0</ele>
        <time>2023-01-28T09:06:07Z</time>
      </trkpt>
      <trkpt lat="36.4662120" lon="-6.0898220">
        <ele>74.0</ele>
        <time>2023-01-28T09:06:08Z</time>
      </trkpt>
      <trkpt lat="36.4661670" lon="-6.0898240">
        <ele>74.0</ele>
        <time>2023-01-28T09:06:09Z</time>
      </trkpt>
      <trkpt lat="36.4661340" lon="-6.0898170">
        <ele>73.8</ele>
        <time>2023-01-28T09:06:10Z</time>
      </trkpt>
      <trkpt lat="36.4660810" lon="-6.0898040">
        <ele>73.8</ele>
        <time>2023-01-28T09:06:11Z</time>
      </trkpt>
      <trkpt lat="36.4660340" lon="-6.0897820">
        <ele>73.8</ele>
        <time>2023-01-28T09:06:12Z</time>
      </trkpt>
      <trkpt lat="36.4659880" lon="-6.0897640">
        <ele>73.8</ele>
        <time>2023-01-28T09:06:13Z</time>
      </trkpt>
      <trkpt lat="36.4659450" lon="-6.0897610">
        <ele>73.8</ele>
        <time>2023-01-28T09:06:14Z</time>
      </trkpt>
      <trkpt lat="36.4659180" lon="-6.0897560">
        <ele>74.0</ele>
        <time>2023-01-28T09:06:15Z</time>
      </trkpt>
      <trkpt lat="36.4658870" lon="-6.0897440">
        <ele>74.2</ele>
        <time>2023-01-28T09:06:16Z</time>
      </trkpt>
      <trkpt lat="36.4658630" lon="-6.0897290">
        <ele>74.4</ele>
        <time>2023-01-28T09:06:17Z</time>
      </trkpt>
      <trkpt lat="36.4658470" lon="-6.0896980">
        <ele>74.6</ele>
        <time>2023-01-28T09:06:18Z</time>
      </trkpt>
      <trkpt lat="36.4658410" lon="-6.0896700">
        <ele>75.0</ele>
        <time>2023-01-28T09:06:19Z</time>
      </trkpt>
      <trkpt lat="36.4658350" lon="-6.0896490">
        <ele>75.0</ele>
        <time>2023-01-28T09:06:20Z</time>
      </trkpt>
      <trkpt lat="36.4658340" lon="-6.0896110">
        <ele>75.0</ele>
        <time>2023-01-28T09:06:21Z</time>
      </trkpt>
      <trkpt lat="36.4658340" lon="-6.0895650">
        <ele>75.2</ele>
        <time>2023-01-28T09:06:22Z</time>
      </trkpt>
      <trkpt lat="36.4658350" lon="-6.0895490">
        <ele>75.2</ele>
        <time>2023-01-28T09:06:23Z</time>
      </trkpt>
      <trkpt lat="36.4658360" lon="-6.0895170">
        <ele>75.2</ele>
        <time>2023-01-28T09:06:24Z</time>
      </trkpt>
      <trkpt lat="36.4658390" lon="-6.0894460">
        <ele>75.0</ele>
        <time>2023-01-28T09:06:25Z</time>
      </trkpt>
      <trkpt lat="36.4658430" lon="-6.0894240">
        <ele>75.2</ele>
        <time>2023-01-28T09:06:26Z</time>
      </trkpt>
      <trkpt lat="36.4658370" lon="-6.0893910">
        <ele>75.2</ele>
        <time>2023-01-28T09:06:27Z</time>
      </trkpt>
      <trkpt lat="36.4658480" lon="-6.0893610">
        <ele>75.2</ele>
        <time>2023-01-28T09:06:28Z</time>
      </trkpt>
      <trkpt lat="36.4658430" lon="-6.0893110">
        <ele>75.2</ele>
        <time>2023-01-28T09:06:29Z</time>
      </trkpt>
      <trkpt lat="36.4658510" lon="-6.0892670">
        <ele>75.4</ele>
        <time>2023-01-28T09:06:30Z</time>
      </trkpt>
      <trkpt lat="36.4658640" lon="-6.0892260">
        <ele>75.4</ele>
        <time>2023-01-28T09:06:31Z</time>
      </trkpt>
      <trkpt lat="36.4658750" lon="-6.0891890">
        <ele>75.4</ele>
        <time>2023-01-28T09:06:32Z</time>
      </trkpt>
      <trkpt lat="36.4658810" lon="-6.0891490">
        <ele>75.4</ele>
        <time>2023-01-28T09:06:33Z</time>
      </trkpt>
      <trkpt lat="36.4658820" lon="-6.0891030">
        <ele>75.4</ele>
        <time>2023-01-28T09:06:34Z</time>
      </trkpt>
      <trkpt lat="36.4658590" lon="-6.0890590">
        <ele>75.4</ele>
        <time>2023-01-28T09:06:35Z</time>
      </trkpt>
      <trkpt lat="36.4658490" lon="-6.0890180">
        <ele>75.4</ele>
        <time>2023-01-28T09:06:36Z</time>
      </trkpt>
      <trkpt lat="36.4658360" lon="-6.0889750">
        <ele>75.6</ele>
        <time>2023-01-28T09:06:37Z</time>
      </trkpt>
      <trkpt lat="36.4658210" lon="-6.0889330">
        <ele>75.6</ele>
        <time>2023-01-28T09:06:38Z</time>
      </trkpt>
      <trkpt lat="36.4657780" lon="-6.0888820">
        <ele>75.6</ele>
        <time>2023-01-28T09:06:39Z</time>
      </trkpt>
      <trkpt lat="36.4657510" lon="-6.0888600">
        <ele>75.8</ele>
        <time>2023-01-28T09:06:40Z</time>
      </trkpt>
      <trkpt lat="36.4657220" lon="-6.0888370">
        <ele>76.2</ele>
        <time>2023-01-28T09:06:41Z</time>
      </trkpt>
      <trkpt lat="36.4656880" lon="-6.0888220">
        <ele>76.4</ele>
        <time>2023-01-28T09:06:42Z</time>
      </trkpt>
      <trkpt lat="36.4656610" lon="-6.0888040">
        <ele>76.2</ele>
        <time>2023-01-28T09:06:43Z</time>
      </trkpt>
      <trkpt lat="36.4656260" lon="-6.0887960">
        <ele>76.0</ele>
        <time>2023-01-28T09:06:44Z</time>
      </trkpt>
      <trkpt lat="36.4655990" lon="-6.0887880">
        <ele>76.0</ele>
        <time>2023-01-28T09:06:45Z</time>
      </trkpt>
      <trkpt lat="36.4655640" lon="-6.0887860">
        <ele>76.2</ele>
        <time>2023-01-28T09:06:46Z</time>
      </trkpt>
      <trkpt lat="36.4655460" lon="-6.0887770">
        <ele>76.2</ele>
        <time>2023-01-28T09:06:47Z</time>
      </trkpt>
      <trkpt lat="36.4655000" lon="-6.0887630">
        <ele>76.2</ele>
        <time>2023-01-28T09:06:48Z</time>
      </trkpt>
      <trkpt lat="36.4654630" lon="-6.0887500">
        <ele>76.2</ele>
        <time>2023-01-28T09:06:49Z</time>
      </trkpt>
      <trkpt lat="36.4654330" lon="-6.0887460">
        <ele>76.0</ele>
        <time>2023-01-28T09:06:50Z</time>
      </trkpt>
      <trkpt lat="36.4653980" lon="-6.0887300">
        <ele>76.0</ele>
        <time>2023-01-28T09:06:51Z</time>
      </trkpt>
      <trkpt lat="36.4653560" lon="-6.0887120">
        <ele>76.0</ele>
        <time>2023-01-28T09:06:52Z</time>
      </trkpt>
      <trkpt lat="36.4653200" lon="-6.0887080">
        <ele>76.0</ele>
        <time>2023-01-28T09:06:53Z</time>
      </trkpt>
      <trkpt lat="36.4652870" lon="-6.0887170">
        <ele>76.0</ele>
        <time>2023-01-28T09:06:54Z</time>
      </trkpt>
      <trkpt lat="36.4652550" lon="-6.0887100">
        <ele>76.0</ele>
        <time>2023-01-28T09:06:55Z</time>
      </trkpt>
      <trkpt lat="36.4652210" lon="-6.0887140">
        <ele>76.2</ele>
        <time>2023-01-28T09:06:56Z</time>
      </trkpt>
      <trkpt lat="36.4651830" lon="-6.0887130">
        <ele>76.2</ele>
        <time>2023-01-28T09:06:57Z</time>
      </trkpt>
      <trkpt lat="36.4651420" lon="-6.0887080">
        <ele>76.0</ele>
        <time>2023-01-28T09:06:58Z</time>
      </trkpt>
      <trkpt lat="36.4651080" lon="-6.0887000">
        <ele>76.0</ele>
        <time>2023-01-28T09:06:59Z</time>
      </trkpt>
      <trkpt lat="36.4650650" lon="-6.0887000">
        <ele>76.0</ele>
        <time>2023-01-28T09:07:00Z</time>
      </trkpt>
      <trkpt lat="36.4650270" lon="-6.0886980">
        <ele>76.0</ele>
        <time>2023-01-28T09:07:01Z</time>
      </trkpt>
      <trkpt lat="36.4649930" lon="-6.0887080">
        <ele>76.0</ele>
        <time>2023-01-28T09:07:02Z</time>
      </trkpt>
      <trkpt lat="36.4649700" lon="-6.0887220">
        <ele>76.0</ele>
        <time>2023-01-28T09:07:03Z</time>
      </trkpt>
      <trkpt lat="36.4649300" lon="-6.0887270">
        <ele>76.0</ele>
        <time>2023-01-28T09:07:04Z</time>
      </trkpt>
      <trkpt lat="36.4648940" lon="-6.0887330">
        <ele>76.0</ele>
        <time>2023-01-28T09:07:05Z</time>
      </trkpt>
      <trkpt lat="36.4648560" lon="-6.0887300">
        <ele>76.0</ele>
        <time>2023-01-28T09:07:06Z</time>
      </trkpt>
      <trkpt lat="36.4648140" lon="-6.0887270">
        <ele>76.2</ele>
        <time>2023-01-28T09:07:07Z</time>
      </trkpt>
      <trkpt lat="36.4647720" lon="-6.0887320">
        <ele>76.4</ele>
        <time>2023-01-28T09:07:08Z</time>
      </trkpt>
      <trkpt lat="36.4647320" lon="-6.0887410">
        <ele>76.2</ele>
        <time>2023-01-28T09:07:09Z</time>
      </trkpt>
      <trkpt lat="36.4646930" lon="-6.0887430">
        <ele>76.4</ele>
        <time>2023-01-28T09:07:10Z</time>
      </trkpt>
      <trkpt lat="36.4646600" lon="-6.0887350">
        <ele>76.4</ele>
        <time>2023-01-28T09:07:11Z</time>
      </trkpt>
      <trkpt lat="36.4646260" lon="-6.0887350">
        <ele>76.4</ele>
        <time>2023-01-28T09:07:12Z</time>
      </trkpt>
      <trkpt lat="36.4645850" lon="-6.0887370">
        <ele>76.6</ele>
        <time>2023-01-28T09:07:13Z</time>
      </trkpt>
      <trkpt lat="36.4645480" lon="-6.0887420">
        <ele>76.6</ele>
        <time>2023-01-28T09:07:14Z</time>
      </trkpt>
      <trkpt lat="36.4645000" lon="-6.0887340">
        <ele>76.6</ele>
        <time>2023-01-28T09:07:15Z</time>
      </trkpt>
      <trkpt lat="36.4644550" lon="-6.0887150">
        <ele>76.6</ele>
        <time>2023-01-28T09:07:16Z</time>
      </trkpt>
      <trkpt lat="36.4644070" lon="-6.0887120">
        <ele>76.6</ele>
        <time>2023-01-28T09:07:17Z</time>
      </trkpt>
      <trkpt lat="36.4643690" lon="-6.0887060">
        <ele>76.8</ele>
        <time>2023-01-28T09:07:18Z</time>
      </trkpt>
      <trkpt lat="36.4643310" lon="-6.0886920">
        <ele>76.8</ele>
        <time>2023-01-28T09:07:19Z</time>
      </trkpt>
      <trkpt lat="36.4643000" lon="-6.0886910">
        <ele>77.0</ele>
        <time>2023-01-28T09:07:20Z</time>
      </trkpt>
      <trkpt lat="36.4642580" lon="-6.0886860">
        <ele>77.2</ele>
        <time>2023-01-28T09:07:21Z</time>
      </trkpt>
      <trkpt lat="36.4642200" lon="-6.0886760">
        <ele>77.4</ele>
        <time>2023-01-28T09:07:22Z</time>
      </trkpt>
      <trkpt lat="36.4641750" lon="-6.0886590">
        <ele>77.4</ele>
        <time>2023-01-28T09:07:23Z</time>
      </trkpt>
      <trkpt lat="36.4641320" lon="-6.0886430">
        <ele>77.6</ele>
        <time>2023-01-28T09:07:24Z</time>
      </trkpt>
      <trkpt lat="36.4641010" lon="-6.0886350">
        <ele>77.8</ele>
        <time>2023-01-28T09:07:25Z</time>
      </trkpt>
      <trkpt lat="36.4640690" lon="-6.0886190">
        <ele>77.8</ele>
        <time>2023-01-28T09:07:26Z</time>
      </trkpt>
      <trkpt lat="36.4640300" lon="-6.0886150">
        <ele>78.0</ele>
        <time>2023-01-28T09:07:27Z</time>
      </trkpt>
      <trkpt lat="36.4639880" lon="-6.0886170">
        <ele>78.0</ele>
        <time>2023-01-28T09:07:28Z</time>
      </trkpt>
      <trkpt lat="36.4639610" lon="-6.0886070">
        <ele>78.0</ele>
        <time>2023-01-28T09:07:29Z</time>
      </trkpt>
      <trkpt lat="36.4639300" lon="-6.0886010">
        <ele>78.0</ele>
        <time>2023-01-28T09:07:30Z</time>
      </trkpt>
      <trkpt lat="36.4639000" lon="-6.0885990">
        <ele>78.0</ele>
        <time>2023-01-28T09:07:31Z</time>
      </trkpt>
      <trkpt lat="36.4638650" lon="-6.0885860">
        <ele>78.0</ele>
        <time>2023-01-28T09:07:32Z</time>
      </trkpt>
      <trkpt lat="36.4638270" lon="-6.0885830">
        <ele>78.0</ele>
        <time>2023-01-28T09:07:33Z</time>
      </trkpt>
      <trkpt lat="36.4637890" lon="-6.0885700">
        <ele>78.2</ele>
        <time>2023-01-28T09:07:34Z</time>
      </trkpt>
      <trkpt lat="36.4637510" lon="-6.0885540">
        <ele>78.2</ele>
        <time>2023-01-28T09:07:35Z</time>
      </trkpt>
      <trkpt lat="36.4637180" lon="-6.0885550">
        <ele>78.2</ele>
        <time>2023-01-28T09:07:36Z</time>
      </trkpt>
      <trkpt lat="36.4636810" lon="-6.0885510">
        <ele>78.2</ele>
        <time>2023-01-28T09:07:37Z</time>
      </trkpt>
      <trkpt lat="36.4636500" lon="-6.0885520">
        <ele>78.2</ele>
        <time>2023-01-28T09:07:38Z</time>
      </trkpt>
      <trkpt lat="36.4636060" lon="-6.0885440">
        <ele>78.4</ele>
        <time>2023-01-28T09:07:39Z</time>
      </trkpt>
      <trkpt lat="36.4635710" lon="-6.0885400">
        <ele>78.4</ele>
        <time>2023-01-28T09:07:40Z</time>
      </trkpt>
      <trkpt lat="36.4635250" lon="-6.0885330">
        <ele>78.4</ele>
        <time>2023-01-28T09:07:41Z</time>
      </trkpt>
      <trkpt lat="36.4634870" lon="-6.0885280">
        <ele>78.2</ele>
        <time>2023-01-28T09:07:42Z</time>
      </trkpt>
      <trkpt lat="36.4634450" lon="-6.0885150">
        <ele>78.4</ele>
        <time>2023-01-28T09:07:43Z</time>
      </trkpt>
      <trkpt lat="36.4633990" lon="-6.0885030">
        <ele>78.4</ele>
        <time>2023-01-28T09:07:44Z</time>
      </trkpt>
      <trkpt lat="36.4633570" lon="-6.0884990">
        <ele>78.4</ele>
        <time>2023-01-28T09:07:45Z</time>
      </trkpt>
      <trkpt lat="36.4633130" lon="-6.0884920">
        <ele>78.4</ele>
        <time>2023-01-28T09:07:46Z</time>
      </trkpt>
      <trkpt lat="36.4632770" lon="-6.0884860">
        <ele>78.6</ele>
        <time>2023-01-28T09:07:47Z</time>
      </trkpt>
      <trkpt lat="36.4632320" lon="-6.0884670">
        <ele>78.6</ele>
        <time>2023-01-28T09:07:48Z</time>
      </trkpt>
      <trkpt lat="36.4631940" lon="-6.0884560">
        <ele>78.4</ele>
        <time>2023-01-28T09:07:49Z</time>
      </trkpt>
      <trkpt lat="36.4631480" lon="-6.0884470">
        <ele>78.6</ele>
        <time>2023-01-28T09:07:50Z</time>
      </trkpt>
      <trkpt lat="36.4631070" lon="-6.0884360">
        <ele>78.6</ele>
        <time>2023-01-28T09:07:51Z</time>
      </trkpt>
      <trkpt lat="36.4630650" lon="-6.0884140">
        <ele>78.8</ele>
        <time>2023-01-28T09:07:52Z</time>
      </trkpt>
      <trkpt lat="36.4630310" lon="-6.0883990">
        <ele>78.8</ele>
        <time>2023-01-28T09:07:53Z</time>
      </trkpt>
      <trkpt lat="36.4629930" lon="-6.0883850">
        <ele>78.8</ele>
        <time>2023-01-28T09:07:54Z</time>
      </trkpt>
      <trkpt lat="36.4629480" lon="-6.0883600">
        <ele>79.0</ele>
        <time>2023-01-28T09:07:55Z</time>
      </trkpt>
      <trkpt lat="36.4629150" lon="-6.0883540">
        <ele>79.2</ele>
        <time>2023-01-28T09:07:56Z</time>
      </trkpt>
      <trkpt lat="36.4628750" lon="-6.0883450">
        <ele>79.4</ele>
        <time>2023-01-28T09:07:57Z</time>
      </trkpt>
      <trkpt lat="36.4628400" lon="-6.0883380">
        <ele>79.4</ele>
        <time>2023-01-28T09:07:58Z</time>
      </trkpt>
      <trkpt lat="36.4628070" lon="-6.0883240">
        <ele>79.6</ele>
        <time>2023-01-28T09:07:59Z</time>
      </trkpt>
      <trkpt lat="36.4627710" lon="-6.0883070">
        <ele>79.8</ele>
        <time>2023-01-28T09:08:00Z</time>
      </trkpt>
      <trkpt lat="36.4627390" lon="-6.0882980">
        <ele>80.0</ele>
        <time>2023-01-28T09:08:01Z</time>
      </trkpt>
      <trkpt lat="36.4627080" lon="-6.0882980">
        <ele>80.2</ele>
        <time>2023-01-28T09:08:02Z</time>
      </trkpt>
      <trkpt lat="36.4626750" lon="-6.0882950">
        <ele>80.2</ele>
        <time>2023-01-28T09:08:03Z</time>
      </trkpt>
      <trkpt lat="36.4626410" lon="-6.0882780">
        <ele>80.2</ele>
        <time>2023-01-28T09:08:04Z</time>
      </trkpt>
      <trkpt lat="36.4626030" lon="-6.0882650">
        <ele>80.2</ele>
        <time>2023-01-28T09:08:05Z</time>
      </trkpt>
      <trkpt lat="36.4625770" lon="-6.0882570">
        <ele>80.2</ele>
        <time>2023-01-28T09:08:06Z</time>
      </trkpt>
      <trkpt lat="36.4625390" lon="-6.0882440">
        <ele>80.2</ele>
        <time>2023-01-28T09:08:07Z</time>
      </trkpt>
      <trkpt lat="36.4625060" lon="-6.0882300">
        <ele>80.2</ele>
        <time>2023-01-28T09:08:08Z</time>
      </trkpt>
      <trkpt lat="36.4624670" lon="-6.0882260">
        <ele>80.2</ele>
        <time>2023-01-28T09:08:09Z</time>
      </trkpt>
      <trkpt lat="36.4624330" lon="-6.0882170">
        <ele>80.2</ele>
        <time>2023-01-28T09:08:10Z</time>
      </trkpt>
      <trkpt lat="36.4623870" lon="-6.0882130">
        <ele>80.2</ele>
        <time>2023-01-28T09:08:11Z</time>
      </trkpt>
      <trkpt lat="36.4623480" lon="-6.0882190">
        <ele>80.0</ele>
        <time>2023-01-28T09:08:12Z</time>
      </trkpt>
      <trkpt lat="36.4623260" lon="-6.0882160">
        <ele>80.0</ele>
        <time>2023-01-28T09:08:13Z</time>
      </trkpt>
      <trkpt lat="36.4622830" lon="-6.0882080">
        <ele>80.0</ele>
        <time>2023-01-28T09:08:14Z</time>
      </trkpt>
      <trkpt lat="36.4622410" lon="-6.0882030">
        <ele>80.0</ele>
        <time>2023-01-28T09:08:15Z</time>
      </trkpt>
      <trkpt lat="36.4622150" lon="-6.0882090">
        <ele>80.0</ele>
        <time>2023-01-28T09:08:16Z</time>
      </trkpt>
      <trkpt lat="36.4621700" lon="-6.0881980">
        <ele>80.2</ele>
        <time>2023-01-28T09:08:17Z</time>
      </trkpt>
      <trkpt lat="36.4621260" lon="-6.0881960">
        <ele>80.2</ele>
        <time>2023-01-28T09:08:18Z</time>
      </trkpt>
      <trkpt lat="36.4620860" lon="-6.0881800">
        <ele>80.2</ele>
        <time>2023-01-28T09:08:19Z</time>
      </trkpt>
      <trkpt lat="36.4620480" lon="-6.0881700">
        <ele>80.4</ele>
        <time>2023-01-28T09:08:20Z</time>
      </trkpt>
      <trkpt lat="36.4620000" lon="-6.0881400">
        <ele>80.4</ele>
        <time>2023-01-28T09:08:21Z</time>
      </trkpt>
      <trkpt lat="36.4619610" lon="-6.0881440">
        <ele>80.6</ele>
        <time>2023-01-28T09:08:22Z</time>
      </trkpt>
      <trkpt lat="36.4619300" lon="-6.0881460">
        <ele>80.6</ele>
        <time>2023-01-28T09:08:23Z</time>
      </trkpt>
      <trkpt lat="36.4618770" lon="-6.0881120">
        <ele>80.8</ele>
        <time>2023-01-28T09:08:24Z</time>
      </trkpt>
      <trkpt lat="36.4618360" lon="-6.0880920">
        <ele>80.8</ele>
        <time>2023-01-28T09:08:25Z</time>
      </trkpt>
      <trkpt lat="36.4618060" lon="-6.0881000">
        <ele>80.8</ele>
        <time>2023-01-28T09:08:26Z</time>
      </trkpt>
      <trkpt lat="36.4617530" lon="-6.0880660">
        <ele>80.8</ele>
        <time>2023-01-28T09:08:27Z</time>
      </trkpt>
      <trkpt lat="36.4616860" lon="-6.0880190">
        <ele>81.0</ele>
        <time>2023-01-28T09:08:28Z</time>
      </trkpt>
      <trkpt lat="36.4616770" lon="-6.0880930">
        <ele>81.0</ele>
        <time>2023-01-28T09:08:29Z</time>
      </trkpt>
      <trkpt lat="36.4616570" lon="-6.0881120">
        <ele>81.0</ele>
        <time>2023-01-28T09:08:30Z</time>
      </trkpt>
      <trkpt lat="36.4616290" lon="-6.0881170">
        <ele>81.0</ele>
        <time>2023-01-28T09:08:31Z</time>
      </trkpt>
      <trkpt lat="36.4615830" lon="-6.0880970">
        <ele>81.2</ele>
        <time>2023-01-28T09:08:32Z</time>
      </trkpt>
      <trkpt lat="36.4615410" lon="-6.0880990">
        <ele>81.2</ele>
        <time>2023-01-28T09:08:33Z</time>
      </trkpt>
      <trkpt lat="36.4615060" lon="-6.0880900">
        <ele>81.0</ele>
        <time>2023-01-28T09:08:34Z</time>
      </trkpt>
      <trkpt lat="36.4614660" lon="-6.0880960">
        <ele>81.0</ele>
        <time>2023-01-28T09:08:35Z</time>
      </trkpt>
      <trkpt lat="36.4614320" lon="-6.0880910">
        <ele>81.0</ele>
        <time>2023-01-28T09:08:36Z</time>
      </trkpt>
      <trkpt lat="36.4613960" lon="-6.0880870">
        <ele>80.8</ele>
        <time>2023-01-28T09:08:37Z</time>
      </trkpt>
      <trkpt lat="36.4613620" lon="-6.0880900">
        <ele>80.8</ele>
        <time>2023-01-28T09:08:38Z</time>
      </trkpt>
      <trkpt lat="36.4613210" lon="-6.0880790">
        <ele>80.8</ele>
        <time>2023-01-28T09:08:39Z</time>
      </trkpt>
      <trkpt lat="36.4612830" lon="-6.0880740">
        <ele>80.8</ele>
        <time>2023-01-28T09:08:40Z</time>
      </trkpt>
      <trkpt lat="36.4612370" lon="-6.0880720">
        <ele>80.8</ele>
        <time>2023-01-28T09:08:41Z</time>
      </trkpt>
      <trkpt lat="36.4611890" lon="-6.0880710">
        <ele>80.8</ele>
        <time>2023-01-28T09:08:42Z</time>
      </trkpt>
      <trkpt lat="36.4611500" lon="-6.0880780">
        <ele>80.8</ele>
        <time>2023-01-28T09:08:43Z</time>
      </trkpt>
      <trkpt lat="36.4611040" lon="-6.0880680">
        <ele>80.8</ele>
        <time>2023-01-28T09:08:44Z</time>
      </trkpt>
      <trkpt lat="36.4610640" lon="-6.0880670">
        <ele>80.8</ele>
        <time>2023-01-28T09:08:45Z</time>
      </trkpt>
      <trkpt lat="36.4610220" lon="-6.0880630">
        <ele>80.8</ele>
        <time>2023-01-28T09:08:46Z</time>
      </trkpt>
      <trkpt lat="36.4609840" lon="-6.0880710">
        <ele>80.8</ele>
        <time>2023-01-28T09:08:47Z</time>
      </trkpt>
      <trkpt lat="36.4609520" lon="-6.0880780">
        <ele>80.8</ele>
        <time>2023-01-28T09:08:48Z</time>
      </trkpt>
      <trkpt lat="36.4609190" lon="-6.0880810">
        <ele>80.8</ele>
        <time>2023-01-28T09:08:49Z</time>
      </trkpt>
      <trkpt lat="36.4608840" lon="-6.0880920">
        <ele>81.0</ele>
        <time>2023-01-28T09:08:50Z</time>
      </trkpt>
      <trkpt lat="36.4608480" lon="-6.0881000">
        <ele>81.0</ele>
        <time>2023-01-28T09:08:51Z</time>
      </trkpt>
      <trkpt lat="36.4608120" lon="-6.0881100">
        <ele>81.0</ele>
        <time>2023-01-28T09:08:52Z</time>
      </trkpt>
      <trkpt lat="36.4607760" lon="-6.0881200">
        <ele>81.0</ele>
        <time>2023-01-28T09:08:53Z</time>
      </trkpt>
      <trkpt lat="36.4607290" lon="-6.0881200">
        <ele>81.0</ele>
        <time>2023-01-28T09:08:54Z</time>
      </trkpt>
      <trkpt lat="36.4606870" lon="-6.0881320">
        <ele>81.0</ele>
        <time>2023-01-28T09:08:55Z</time>
      </trkpt>
      <trkpt lat="36.4606490" lon="-6.0881230">
        <ele>81.0</ele>
        <time>2023-01-28T09:08:56Z</time>
      </trkpt>
      <trkpt lat="36.4606020" lon="-6.0881270">
        <ele>81.0</ele>
        <time>2023-01-28T09:08:57Z</time>
      </trkpt>
      <trkpt lat="36.4605580" lon="-6.0881200">
        <ele>81.2</ele>
        <time>2023-01-28T09:08:58Z</time>
      </trkpt>
      <trkpt lat="36.4605210" lon="-6.0881220">
        <ele>81.2</ele>
        <time>2023-01-28T09:08:59Z</time>
      </trkpt>
      <trkpt lat="36.4604780" lon="-6.0881120">
        <ele>81.4</ele>
        <time>2023-01-28T09:09:00Z</time>
      </trkpt>
      <trkpt lat="36.4604340" lon="-6.0881050">
        <ele>81.6</ele>
        <time>2023-01-28T09:09:01Z</time>
      </trkpt>
      <trkpt lat="36.4603990" lon="-6.0881120">
        <ele>81.6</ele>
        <time>2023-01-28T09:09:02Z</time>
      </trkpt>
      <trkpt lat="36.4603600" lon="-6.0881150">
        <ele>81.6</ele>
        <time>2023-01-28T09:09:03Z</time>
      </trkpt>
      <trkpt lat="36.4603230" lon="-6.0881160">
        <ele>81.6</ele>
        <time>2023-01-28T09:09:04Z</time>
      </trkpt>
      <trkpt lat="36.4602860" lon="-6.0881130">
        <ele>81.8</ele>
        <time>2023-01-28T09:09:05Z</time>
      </trkpt>
      <trkpt lat="36.4602370" lon="-6.0881100">
        <ele>81.8</ele>
        <time>2023-01-28T09:09:06Z</time>
      </trkpt>
      <trkpt lat="36.4601980" lon="-6.0881070">
        <ele>82.0</ele>
        <time>2023-01-28T09:09:07Z</time>
      </trkpt>
      <trkpt lat="36.4601680" lon="-6.0881030">
        <ele>82.0</ele>
        <time>2023-01-28T09:09:08Z</time>
      </trkpt>
      <trkpt lat="36.4601330" lon="-6.0881020">
        <ele>82.2</ele>
        <time>2023-01-28T09:09:09Z</time>
      </trkpt>
      <trkpt lat="36.4600980" lon="-6.0880970">
        <ele>82.2</ele>
        <time>2023-01-28T09:09:10Z</time>
      </trkpt>
      <trkpt lat="36.4600610" lon="-6.0880940">
        <ele>82.4</ele>
        <time>2023-01-28T09:09:11Z</time>
      </trkpt>
      <trkpt lat="36.4600300" lon="-6.0881020">
        <ele>82.6</ele>
        <time>2023-01-28T09:09:12Z</time>
      </trkpt>
      <trkpt lat="36.4599940" lon="-6.0880960">
        <ele>82.6</ele>
        <time>2023-01-28T09:09:13Z</time>
      </trkpt>
      <trkpt lat="36.4599650" lon="-6.0880920">
        <ele>82.8</ele>
        <time>2023-01-28T09:09:14Z</time>
      </trkpt>
      <trkpt lat="36.4599350" lon="-6.0880910">
        <ele>82.8</ele>
        <time>2023-01-28T09:09:15Z</time>
      </trkpt>
      <trkpt lat="36.4599050" lon="-6.0880780">
        <ele>83.0</ele>
        <time>2023-01-28T09:09:16Z</time>
      </trkpt>
      <trkpt lat="36.4598790" lon="-6.0880780">
        <ele>83.2</ele>
        <time>2023-01-28T09:09:17Z</time>
      </trkpt>
      <trkpt lat="36.4598470" lon="-6.0880780">
        <ele>83.4</ele>
        <time>2023-01-28T09:09:18Z</time>
      </trkpt>
      <trkpt lat="36.4598210" lon="-6.0880710">
        <ele>83.6</ele>
        <time>2023-01-28T09:09:19Z</time>
      </trkpt>
      <trkpt lat="36.4597920" lon="-6.0880560">
        <ele>83.8</ele>
        <time>2023-01-28T09:09:20Z</time>
      </trkpt>
      <trkpt lat="36.4597640" lon="-6.0880520">
        <ele>84.0</ele>
        <time>2023-01-28T09:09:21Z</time>
      </trkpt>
      <trkpt lat="36.4597320" lon="-6.0880500">
        <ele>84.0</ele>
        <time>2023-01-28T09:09:22Z</time>
      </trkpt>
      <trkpt lat="36.4597080" lon="-6.0880500">
        <ele>84.2</ele>
        <time>2023-01-28T09:09:23Z</time>
      </trkpt>
      <trkpt lat="36.4596800" lon="-6.0880590">
        <ele>84.4</ele>
        <time>2023-01-28T09:09:24Z</time>
      </trkpt>
      <trkpt lat="36.4596610" lon="-6.0880610">
        <ele>84.6</ele>
        <time>2023-01-28T09:09:25Z</time>
      </trkpt>
      <trkpt lat="36.4596350" lon="-6.0880540">
        <ele>84.8</ele>
        <time>2023-01-28T09:09:26Z</time>
      </trkpt>
      <trkpt lat="36.4596060" lon="-6.0880490">
        <ele>85.0</ele>
        <time>2023-01-28T09:09:27Z</time>
      </trkpt>
      <trkpt lat="36.4595880" lon="-6.0880590">
        <ele>85.2</ele>
        <time>2023-01-28T09:09:28Z</time>
      </trkpt>
      <trkpt lat="36.4595660" lon="-6.0880640">
        <ele>85.4</ele>
        <time>2023-01-28T09:09:29Z</time>
      </trkpt>
      <trkpt lat="36.4595440" lon="-6.0880570">
        <ele>85.6</ele>
        <time>2023-01-28T09:09:30Z</time>
      </trkpt>
      <trkpt lat="36.4595300" lon="-6.0880630">
        <ele>85.8</ele>
        <time>2023-01-28T09:09:31Z</time>
      </trkpt>
      <trkpt lat="36.4594980" lon="-6.0880520">
        <ele>86.0</ele>
        <time>2023-01-28T09:09:32Z</time>
      </trkpt>
      <trkpt lat="36.4594670" lon="-6.0880500">
        <ele>86.2</ele>
        <time>2023-01-28T09:09:33Z</time>
      </trkpt>
      <trkpt lat="36.4594380" lon="-6.0880220">
        <ele>86.2</ele>
        <time>2023-01-28T09:09:34Z</time>
      </trkpt>
      <trkpt lat="36.4594090" lon="-6.0880190">
        <ele>86.4</ele>
        <time>2023-01-28T09:09:35Z</time>
      </trkpt>
      <trkpt lat="36.4593830" lon="-6.0880010">
        <ele>86.6</ele>
        <time>2023-01-28T09:09:36Z</time>
      </trkpt>
      <trkpt lat="36.4593580" lon="-6.0879890">
        <ele>86.6</ele>
        <time>2023-01-28T09:09:37Z</time>
      </trkpt>
      <trkpt lat="36.4593380" lon="-6.0879890">
        <ele>86.6</ele>
        <time>2023-01-28T09:09:38Z</time>
      </trkpt>
      <trkpt lat="36.4593120" lon="-6.0879920">
        <ele>86.8</ele>
        <time>2023-01-28T09:09:39Z</time>
      </trkpt>
      <trkpt lat="36.4592860" lon="-6.0879970">
        <ele>86.8</ele>
        <time>2023-01-28T09:09:40Z</time>
      </trkpt>
      <trkpt lat="36.4592640" lon="-6.0880180">
        <ele>87.0</ele>
        <time>2023-01-28T09:09:41Z</time>
      </trkpt>
      <trkpt lat="36.4592340" lon="-6.0880130">
        <ele>87.0</ele>
        <time>2023-01-28T09:09:42Z</time>
      </trkpt>
      <trkpt lat="36.4592060" lon="-6.0880200">
        <ele>87.2</ele>
        <time>2023-01-28T09:09:43Z</time>
      </trkpt>
      <trkpt lat="36.4591770" lon="-6.0880130">
        <ele>87.2</ele>
        <time>2023-01-28T09:09:44Z</time>
      </trkpt>
      <trkpt lat="36.4591480" lon="-6.0880060">
        <ele>87.2</ele>
        <time>2023-01-28T09:09:45Z</time>
      </trkpt>
      <trkpt lat="36.4591150" lon="-6.0880070">
        <ele>87.2</ele>
        <time>2023-01-28T09:09:46Z</time>
      </trkpt>
      <trkpt lat="36.4590850" lon="-6.0880230">
        <ele>87.2</ele>
        <time>2023-01-28T09:09:47Z</time>
      </trkpt>
      <trkpt lat="36.4590420" lon="-6.0880010">
        <ele>87.2</ele>
        <time>2023-01-28T09:09:48Z</time>
      </trkpt>
      <trkpt lat="36.4590200" lon="-6.0880260">
        <ele>87.2</ele>
        <time>2023-01-28T09:09:49Z</time>
      </trkpt>
      <trkpt lat="36.4589860" lon="-6.0880270">
        <ele>87.2</ele>
        <time>2023-01-28T09:09:50Z</time>
      </trkpt>
      <trkpt lat="36.4589520" lon="-6.0880180">
        <ele>87.2</ele>
        <time>2023-01-28T09:09:51Z</time>
      </trkpt>
      <trkpt lat="36.4589250" lon="-6.0880200">
        <ele>87.2</ele>
        <time>2023-01-28T09:09:52Z</time>
      </trkpt>
      <trkpt lat="36.4588900" lon="-6.0880220">
        <ele>87.2</ele>
        <time>2023-01-28T09:09:53Z</time>
      </trkpt>
      <trkpt lat="36.4588540" lon="-6.0880120">
        <ele>87.2</ele>
        <time>2023-01-28T09:09:54Z</time>
      </trkpt>
      <trkpt lat="36.4588130" lon="-6.0880070">
        <ele>87.2</ele>
        <time>2023-01-28T09:09:55Z</time>
      </trkpt>
      <trkpt lat="36.4587830" lon="-6.0880340">
        <ele>87.0</ele>
        <time>2023-01-28T09:09:56Z</time>
      </trkpt>
      <trkpt lat="36.4587360" lon="-6.0880230">
        <ele>86.8</ele>
        <time>2023-01-28T09:09:57Z</time>
      </trkpt>
      <trkpt lat="36.4586960" lon="-6.0880280">
        <ele>86.8</ele>
        <time>2023-01-28T09:09:58Z</time>
      </trkpt>
      <trkpt lat="36.4586450" lon="-6.0880270">
        <ele>86.4</ele>
        <time>2023-01-28T09:09:59Z</time>
      </trkpt>
      <trkpt lat="36.4586010" lon="-6.0880120">
        <ele>86.4</ele>
        <time>2023-01-28T09:10:00Z</time>
      </trkpt>
      <trkpt lat="36.4585630" lon="-6.0880170">
        <ele>86.2</ele>
        <time>2023-01-28T09:10:01Z</time>
      </trkpt>
      <trkpt lat="36.4585140" lon="-6.0879970">
        <ele>85.8</ele>
        <time>2023-01-28T09:10:02Z</time>
      </trkpt>
      <trkpt lat="36.4584650" lon="-6.0879830">
        <ele>85.8</ele>
        <time>2023-01-28T09:10:03Z</time>
      </trkpt>
      <trkpt lat="36.4584200" lon="-6.0879570">
        <ele>85.8</ele>
        <time>2023-01-28T09:10:04Z</time>
      </trkpt>
      <trkpt lat="36.4583730" lon="-6.0879510">
        <ele>85.8</ele>
        <time>2023-01-28T09:10:05Z</time>
      </trkpt>
      <trkpt lat="36.4583270" lon="-6.0879370">
        <ele>86.0</ele>
        <time>2023-01-28T09:10:06Z</time>
      </trkpt>
      <trkpt lat="36.4582900" lon="-6.0879300">
        <ele>86.0</ele>
        <time>2023-01-28T09:10:07Z</time>
      </trkpt>
      <trkpt lat="36.4582390" lon="-6.0879230">
        <ele>86.0</ele>
        <time>2023-01-28T09:10:08Z</time>
      </trkpt>
      <trkpt lat="36.4581940" lon="-6.0879270">
        <ele>85.8</ele>
        <time>2023-01-28T09:10:09Z</time>
      </trkpt>
      <trkpt lat="36.4581640" lon="-6.0879170">
        <ele>86.0</ele>
        <time>2023-01-28T09:10:10Z</time>
      </trkpt>
      <trkpt lat="36.4581180" lon="-6.0879060">
        <ele>86.0</ele>
        <time>2023-01-28T09:10:11Z</time>
      </trkpt>
      <trkpt lat="36.4580790" lon="-6.0878980">
        <ele>85.8</ele>
        <time>2023-01-28T09:10:12Z</time>
      </trkpt>
      <trkpt lat="36.4580490" lon="-6.0878820">
        <ele>85.8</ele>
        <time>2023-01-28T09:10:13Z</time>
      </trkpt>
      <trkpt lat="36.4580130" lon="-6.0878670">
        <ele>85.6</ele>
        <time>2023-01-28T09:10:14Z</time>
      </trkpt>
      <trkpt lat="36.4579730" lon="-6.0878580">
        <ele>85.4</ele>
        <time>2023-01-28T09:10:15Z</time>
      </trkpt>
      <trkpt lat="36.4579330" lon="-6.0878460">
        <ele>85.2</ele>
        <time>2023-01-28T09:10:16Z</time>
      </trkpt>
      <trkpt lat="36.4578890" lon="-6.0878400">
        <ele>85.2</ele>
        <time>2023-01-28T09:10:17Z</time>
      </trkpt>
      <trkpt lat="36.4578420" lon="-6.0878240">
        <ele>84.8</ele>
        <time>2023-01-28T09:10:18Z</time>
      </trkpt>
      <trkpt lat="36.4577860" lon="-6.0878100">
        <ele>84.8</ele>
        <time>2023-01-28T09:10:19Z</time>
      </trkpt>
      <trkpt lat="36.4577350" lon="-6.0878010">
        <ele>84.6</ele>
        <time>2023-01-28T09:10:20Z</time>
      </trkpt>
      <trkpt lat="36.4576880" lon="-6.0877910">
        <ele>84.2</ele>
        <time>2023-01-28T09:10:21Z</time>
      </trkpt>
      <trkpt lat="36.4576370" lon="-6.0877740">
        <ele>84.0</ele>
        <time>2023-01-28T09:10:22Z</time>
      </trkpt>
      <trkpt lat="36.4575880" lon="-6.0877710">
        <ele>83.4</ele>
        <time>2023-01-28T09:10:23Z</time>
      </trkpt>
      <trkpt lat="36.4575450" lon="-6.0877860">
        <ele>83.0</ele>
        <time>2023-01-28T09:10:24Z</time>
      </trkpt>
      <trkpt lat="36.4574880" lon="-6.0877890">
        <ele>82.6</ele>
        <time>2023-01-28T09:10:25Z</time>
      </trkpt>
      <trkpt lat="36.4574290" lon="-6.0877950">
        <ele>82.0</ele>
        <time>2023-01-28T09:10:26Z</time>
      </trkpt>
      <trkpt lat="36.4573740" lon="-6.0878070">
        <ele>81.6</ele>
        <time>2023-01-28T09:10:27Z</time>
      </trkpt>
      <trkpt lat="36.4573170" lon="-6.0878080">
        <ele>81.2</ele>
        <time>2023-01-28T09:10:28Z</time>
      </trkpt>
      <trkpt lat="36.4572470" lon="-6.0877920">
        <ele>80.8</ele>
        <time>2023-01-28T09:10:29Z</time>
      </trkpt>
      <trkpt lat="36.4571670" lon="-6.0877750">
        <ele>80.4</ele>
        <time>2023-01-28T09:10:30Z</time>
      </trkpt>
      <trkpt lat="36.4570950" lon="-6.0877730">
        <ele>80.2</ele>
        <time>2023-01-28T09:10:31Z</time>
      </trkpt>
      <trkpt lat="36.4570450" lon="-6.0877880">
        <ele>80.0</ele>
        <time>2023-01-28T09:10:32Z</time>
      </trkpt>
      <trkpt lat="36.4569910" lon="-6.0877940">
        <ele>79.6</ele>
        <time>2023-01-28T09:10:33Z</time>
      </trkpt>
      <trkpt lat="36.4569350" lon="-6.0878130">
        <ele>79.4</ele>
        <time>2023-01-28T09:10:34Z</time>
      </trkpt>
      <trkpt lat="36.4568690" lon="-6.0878160">
        <ele>79.0</ele>
        <time>2023-01-28T09:10:35Z</time>
      </trkpt>
      <trkpt lat="36.4567990" lon="-6.0878120">
        <ele>78.8</ele>
        <time>2023-01-28T09:10:36Z</time>
      </trkpt>
      <trkpt lat="36.4567260" lon="-6.0878130">
        <ele>78.8</ele>
        <time>2023-01-28T09:10:37Z</time>
      </trkpt>
      <trkpt lat="36.4566690" lon="-6.0878110">
        <ele>78.6</ele>
        <time>2023-01-28T09:10:38Z</time>
      </trkpt>
      <trkpt lat="36.4566030" lon="-6.0878240">
        <ele>78.4</ele>
        <time>2023-01-28T09:10:39Z</time>
      </trkpt>
      <trkpt lat="36.4565420" lon="-6.0878370">
        <ele>78.2</ele>
        <time>2023-01-28T09:10:40Z</time>
      </trkpt>
      <trkpt lat="36.4564780" lon="-6.0878460">
        <ele>78.0</ele>
        <time>2023-01-28T09:10:41Z</time>
      </trkpt>
      <trkpt lat="36.4564140" lon="-6.0878550">
        <ele>78.0</ele>
        <time>2023-01-28T09:10:42Z</time>
      </trkpt>
      <trkpt lat="36.4563490" lon="-6.0878650">
        <ele>77.8</ele>
        <time>2023-01-28T09:10:43Z</time>
      </trkpt>
      <trkpt lat="36.4562890" lon="-6.0878820">
        <ele>77.8</ele>
        <time>2023-01-28T09:10:44Z</time>
      </trkpt>
      <trkpt lat="36.4562230" lon="-6.0879050">
        <ele>77.6</ele>
        <time>2023-01-28T09:10:45Z</time>
      </trkpt>
      <trkpt lat="36.4561670" lon="-6.0879150">
        <ele>77.4</ele>
        <time>2023-01-28T09:10:46Z</time>
      </trkpt>
      <trkpt lat="36.4561000" lon="-6.0879330">
        <ele>77.2</ele>
        <time>2023-01-28T09:10:47Z</time>
      </trkpt>
      <trkpt lat="36.4560340" lon="-6.0879430">
        <ele>77.0</ele>
        <time>2023-01-28T09:10:48Z</time>
      </trkpt>
      <trkpt lat="36.4559680" lon="-6.0879530">
        <ele>76.8</ele>
        <time>2023-01-28T09:10:49Z</time>
      </trkpt>
      <trkpt lat="36.4558970" lon="-6.0879780">
        <ele>76.6</ele>
        <time>2023-01-28T09:10:50Z</time>
      </trkpt>
      <trkpt lat="36.4558280" lon="-6.0880010">
        <ele>76.4</ele>
        <time>2023-01-28T09:10:51Z</time>
      </trkpt>
      <trkpt lat="36.4557620" lon="-6.0880250">
        <ele>76.2</ele>
        <time>2023-01-28T09:10:52Z</time>
      </trkpt>
      <trkpt lat="36.4557050" lon="-6.0880430">
        <ele>76.0</ele>
        <time>2023-01-28T09:10:53Z</time>
      </trkpt>
      <trkpt lat="36.4556460" lon="-6.0880680">
        <ele>75.8</ele>
        <time>2023-01-28T09:10:54Z</time>
      </trkpt>
      <trkpt lat="36.4555760" lon="-6.0880900">
        <ele>75.6</ele>
        <time>2023-01-28T09:10:55Z</time>
      </trkpt>
      <trkpt lat="36.4555090" lon="-6.0881200">
        <ele>75.4</ele>
        <time>2023-01-28T09:10:56Z</time>
      </trkpt>
      <trkpt lat="36.4554410" lon="-6.0881380">
        <ele>75.0</ele>
        <time>2023-01-28T09:10:57Z</time>
      </trkpt>
      <trkpt lat="36.4553730" lon="-6.0881670">
        <ele>75.0</ele>
        <time>2023-01-28T09:10:58Z</time>
      </trkpt>
      <trkpt lat="36.4553010" lon="-6.0882000">
        <ele>74.8</ele>
        <time>2023-01-28T09:10:59Z</time>
      </trkpt>
      <trkpt lat="36.4552270" lon="-6.0882180">
        <ele>74.6</ele>
        <time>2023-01-28T09:11:00Z</time>
      </trkpt>
      <trkpt lat="36.4551620" lon="-6.0882420">
        <ele>74.0</ele>
        <time>2023-01-28T09:11:01Z</time>
      </trkpt>
      <trkpt lat="36.4550910" lon="-6.0882690">
        <ele>73.8</ele>
        <time>2023-01-28T09:11:02Z</time>
      </trkpt>
      <trkpt lat="36.4550280" lon="-6.0882880">
        <ele>73.4</ele>
        <time>2023-01-28T09:11:03Z</time>
      </trkpt>
      <trkpt lat="36.4549610" lon="-6.0883070">
        <ele>73.2</ele>
        <time>2023-01-28T09:11:04Z</time>
      </trkpt>
      <trkpt lat="36.4548960" lon="-6.0883300">
        <ele>73.0</ele>
        <time>2023-01-28T09:11:05Z</time>
      </trkpt>
      <trkpt lat="36.4548310" lon="-6.0883560">
        <ele>72.8</ele>
        <time>2023-01-28T09:11:06Z</time>
      </trkpt>
      <trkpt lat="36.4547650" lon="-6.0883700">
        <ele>72.6</ele>
        <time>2023-01-28T09:11:07Z</time>
      </trkpt>
      <trkpt lat="36.4546980" lon="-6.0883950">
        <ele>72.4</ele>
        <time>2023-01-28T09:11:08Z</time>
      </trkpt>
      <trkpt lat="36.4546330" lon="-6.0884160">
        <ele>72.2</ele>
        <time>2023-01-28T09:11:09Z</time>
      </trkpt>
      <trkpt lat="36.4545590" lon="-6.0884380">
        <ele>72.0</ele>
        <time>2023-01-28T09:11:10Z</time>
      </trkpt>
      <trkpt lat="36.4544890" lon="-6.0884570">
        <ele>71.8</ele>
        <time>2023-01-28T09:11:11Z</time>
      </trkpt>
      <trkpt lat="36.4544090" lon="-6.0884820">
        <ele>71.8</ele>
        <time>2023-01-28T09:11:12Z</time>
      </trkpt>
      <trkpt lat="36.4543450" lon="-6.0884890">
        <ele>71.6</ele>
        <time>2023-01-28T09:11:13Z</time>
      </trkpt>
      <trkpt lat="36.4542750" lon="-6.0885150">
        <ele>71.4</ele>
        <time>2023-01-28T09:11:14Z</time>
      </trkpt>
      <trkpt lat="36.4542230" lon="-6.0885500">
        <ele>71.4</ele>
        <time>2023-01-28T09:11:15Z</time>
      </trkpt>
      <trkpt lat="36.4541570" lon="-6.0885640">
        <ele>71.2</ele>
        <time>2023-01-28T09:11:16Z</time>
      </trkpt>
      <trkpt lat="36.4540900" lon="-6.0885980">
        <ele>71.0</ele>
        <time>2023-01-28T09:11:17Z</time>
      </trkpt>
      <trkpt lat="36.4540340" lon="-6.0886240">
        <ele>70.8</ele>
        <time>2023-01-28T09:11:18Z</time>
      </trkpt>
      <trkpt lat="36.4539660" lon="-6.0886480">
        <ele>70.8</ele>
        <time>2023-01-28T09:11:19Z</time>
      </trkpt>
      <trkpt lat="36.4539040" lon="-6.0886780">
        <ele>70.6</ele>
        <time>2023-01-28T09:11:20Z</time>
      </trkpt>
      <trkpt lat="36.4538490" lon="-6.0886950">
        <ele>70.6</ele>
        <time>2023-01-28T09:11:21Z</time>
      </trkpt>
      <trkpt lat="36.4537870" lon="-6.0887230">
        <ele>70.6</ele>
        <time>2023-01-28T09:11:22Z</time>
      </trkpt>
      <trkpt lat="36.4537320" lon="-6.0887490">
        <ele>70.6</ele>
        <time>2023-01-28T09:11:23Z</time>
      </trkpt>
      <trkpt lat="36.4536740" lon="-6.0887700">
        <ele>70.6</ele>
        <time>2023-01-28T09:11:24Z</time>
      </trkpt>
      <trkpt lat="36.4536180" lon="-6.0887880">
        <ele>70.4</ele>
        <time>2023-01-28T09:11:25Z</time>
      </trkpt>
      <trkpt lat="36.4535610" lon="-6.0888020">
        <ele>70.4</ele>
        <time>2023-01-28T09:11:26Z</time>
      </trkpt>
      <trkpt lat="36.4535070" lon="-6.0888310">
        <ele>70.4</ele>
        <time>2023-01-28T09:11:27Z</time>
      </trkpt>
      <trkpt lat="36.4534570" lon="-6.0888720">
        <ele>70.4</ele>
        <time>2023-01-28T09:11:28Z</time>
      </trkpt>
      <trkpt lat="36.4534050" lon="-6.0888950">
        <ele>70.2</ele>
        <time>2023-01-28T09:11:29Z</time>
      </trkpt>
      <trkpt lat="36.4533570" lon="-6.0889350">
        <ele>70.2</ele>
        <time>2023-01-28T09:11:30Z</time>
      </trkpt>
      <trkpt lat="36.4533060" lon="-6.0889610">
        <ele>70.4</ele>
        <time>2023-01-28T09:11:31Z</time>
      </trkpt>
      <trkpt lat="36.4532670" lon="-6.0889890">
        <ele>70.4</ele>
        <time>2023-01-28T09:11:32Z</time>
      </trkpt>
      <trkpt lat="36.4532210" lon="-6.0890250">
        <ele>70.4</ele>
        <time>2023-01-28T09:11:33Z</time>
      </trkpt>
      <trkpt lat="36.4531680" lon="-6.0890410">
        <ele>70.2</ele>
        <time>2023-01-28T09:11:34Z</time>
      </trkpt>
      <trkpt lat="36.4531150" lon="-6.0890670">
        <ele>70.4</ele>
        <time>2023-01-28T09:11:35Z</time>
      </trkpt>
      <trkpt lat="36.4530620" lon="-6.0890970">
        <ele>70.2</ele>
        <time>2023-01-28T09:11:36Z</time>
      </trkpt>
      <trkpt lat="36.4530060" lon="-6.0891030">
        <ele>70.2</ele>
        <time>2023-01-28T09:11:37Z</time>
      </trkpt>
      <trkpt lat="36.4529620" lon="-6.0891320">
        <ele>70.2</ele>
        <time>2023-01-28T09:11:38Z</time>
      </trkpt>
      <trkpt lat="36.4529070" lon="-6.0891660">
        <ele>70.2</ele>
        <time>2023-01-28T09:11:39Z</time>
      </trkpt>
      <trkpt lat="36.4528640" lon="-6.0892170">
        <ele>70.0</ele>
        <time>2023-01-28T09:11:40Z</time>
      </trkpt>
      <trkpt lat="36.4528090" lon="-6.0892420">
        <ele>70.0</ele>
        <time>2023-01-28T09:11:41Z</time>
      </trkpt>
      <trkpt lat="36.4527660" lon="-6.0892780">
        <ele>70.0</ele>
        <time>2023-01-28T09:11:42Z</time>
      </trkpt>
      <trkpt lat="36.4527230" lon="-6.0893080">
        <ele>70.0</ele>
        <time>2023-01-28T09:11:43Z</time>
      </trkpt>
      <trkpt lat="36.4526690" lon="-6.0893530">
        <ele>70.0</ele>
        <time>2023-01-28T09:11:44Z</time>
      </trkpt>
      <trkpt lat="36.4526320" lon="-6.0893920">
        <ele>69.8</ele>
        <time>2023-01-28T09:11:45Z</time>
      </trkpt>
      <trkpt lat="36.4525940" lon="-6.0894170">
        <ele>70.0</ele>
        <time>2023-01-28T09:11:46Z</time>
      </trkpt>
      <trkpt lat="36.4525400" lon="-6.0894410">
        <ele>70.0</ele>
        <time>2023-01-28T09:11:47Z</time>
      </trkpt>
      <trkpt lat="36.4525070" lon="-6.0894700">
        <ele>70.0</ele>
        <time>2023-01-28T09:11:48Z</time>
      </trkpt>
      <trkpt lat="36.4524670" lon="-6.0894870">
        <ele>70.0</ele>
        <time>2023-01-28T09:11:49Z</time>
      </trkpt>
      <trkpt lat="36.4524480" lon="-6.0895000">
        <ele>70.2</ele>
        <time>2023-01-28T09:11:50Z</time>
      </trkpt>
      <trkpt lat="36.4524100" lon="-6.0895210">
        <ele>70.2</ele>
        <time>2023-01-28T09:11:51Z</time>
      </trkpt>
      <trkpt lat="36.4523640" lon="-6.0895400">
        <ele>70.4</ele>
        <time>2023-01-28T09:11:52Z</time>
      </trkpt>
      <trkpt lat="36.4523250" lon="-6.0895590">
        <ele>70.4</ele>
        <time>2023-01-28T09:11:53Z</time>
      </trkpt>
      <trkpt lat="36.4522720" lon="-6.0895690">
        <ele>70.4</ele>
        <time>2023-01-28T09:11:54Z</time>
      </trkpt>
      <trkpt lat="36.4522330" lon="-6.0895900">
        <ele>70.4</ele>
        <time>2023-01-28T09:11:55Z</time>
      </trkpt>
      <trkpt lat="36.4521870" lon="-6.0896050">
        <ele>70.4</ele>
        <time>2023-01-28T09:11:56Z</time>
      </trkpt>
      <trkpt lat="36.4521430" lon="-6.0896310">
        <ele>70.4</ele>
        <time>2023-01-28T09:11:57Z</time>
      </trkpt>
      <trkpt lat="36.4520930" lon="-6.0896620">
        <ele>70.4</ele>
        <time>2023-01-28T09:11:58Z</time>
      </trkpt>
      <trkpt lat="36.4520480" lon="-6.0896990">
        <ele>70.6</ele>
        <time>2023-01-28T09:11:59Z</time>
      </trkpt>
      <trkpt lat="36.4520090" lon="-6.0897160">
        <ele>70.6</ele>
        <time>2023-01-28T09:12:00Z</time>
      </trkpt>
      <trkpt lat="36.4519630" lon="-6.0897380">
        <ele>70.6</ele>
        <time>2023-01-28T09:12:01Z</time>
      </trkpt>
      <trkpt lat="36.4519290" lon="-6.0897580">
        <ele>70.8</ele>
        <time>2023-01-28T09:12:02Z</time>
      </trkpt>
      <trkpt lat="36.4518930" lon="-6.0897770">
        <ele>70.8</ele>
        <time>2023-01-28T09:12:03Z</time>
      </trkpt>
      <trkpt lat="36.4518460" lon="-6.0897870">
        <ele>70.8</ele>
        <time>2023-01-28T09:12:04Z</time>
      </trkpt>
      <trkpt lat="36.4518030" lon="-6.0898110">
        <ele>70.8</ele>
        <time>2023-01-28T09:12:05Z</time>
      </trkpt>
      <trkpt lat="36.4517730" lon="-6.0898150">
        <ele>70.8</ele>
        <time>2023-01-28T09:12:06Z</time>
      </trkpt>
      <trkpt lat="36.4517270" lon="-6.0898370">
        <ele>71.0</ele>
        <time>2023-01-28T09:12:07Z</time>
      </trkpt>
      <trkpt lat="36.4516830" lon="-6.0898400">
        <ele>71.0</ele>
        <time>2023-01-28T09:12:08Z</time>
      </trkpt>
      <trkpt lat="36.4516390" lon="-6.0898510">
        <ele>70.8</ele>
        <time>2023-01-28T09:12:09Z</time>
      </trkpt>
      <trkpt lat="36.4515970" lon="-6.0898690">
        <ele>70.8</ele>
        <time>2023-01-28T09:12:10Z</time>
      </trkpt>
      <trkpt lat="36.4515490" lon="-6.0898840">
        <ele>70.8</ele>
        <time>2023-01-28T09:12:11Z</time>
      </trkpt>
      <trkpt lat="36.4515050" lon="-6.0899000">
        <ele>70.8</ele>
        <time>2023-01-28T09:12:12Z</time>
      </trkpt>
      <trkpt lat="36.4514590" lon="-6.0899140">
        <ele>70.8</ele>
        <time>2023-01-28T09:12:13Z</time>
      </trkpt>
      <trkpt lat="36.4514140" lon="-6.0899390">
        <ele>70.8</ele>
        <time>2023-01-28T09:12:14Z</time>
      </trkpt>
      <trkpt lat="36.4513640" lon="-6.0899530">
        <ele>70.8</ele>
        <time>2023-01-28T09:12:15Z</time>
      </trkpt>
      <trkpt lat="36.4513150" lon="-6.0899740">
        <ele>70.8</ele>
        <time>2023-01-28T09:12:16Z</time>
      </trkpt>
      <trkpt lat="36.4512780" lon="-6.0899870">
        <ele>70.8</ele>
        <time>2023-01-28T09:12:17Z</time>
      </trkpt>
      <trkpt lat="36.4512340" lon="-6.0900080">
        <ele>70.8</ele>
        <time>2023-01-28T09:12:18Z</time>
      </trkpt>
      <trkpt lat="36.4511850" lon="-6.0900140">
        <ele>70.6</ele>
        <time>2023-01-28T09:12:19Z</time>
      </trkpt>
      <trkpt lat="36.4511480" lon="-6.0900200">
        <ele>70.4</ele>
        <time>2023-01-28T09:12:20Z</time>
      </trkpt>
      <trkpt lat="36.4511150" lon="-6.0900440">
        <ele>70.4</ele>
        <time>2023-01-28T09:12:21Z</time>
      </trkpt>
      <trkpt lat="36.4510560" lon="-6.0900490">
        <ele>70.2</ele>
        <time>2023-01-28T09:12:22Z</time>
      </trkpt>
      <trkpt lat="36.4510000" lon="-6.0900660">
        <ele>70.0</ele>
        <time>2023-01-28T09:12:23Z</time>
      </trkpt>
      <trkpt lat="36.4509550" lon="-6.0900840">
        <ele>69.8</ele>
        <time>2023-01-28T09:12:24Z</time>
      </trkpt>
      <trkpt lat="36.4509050" lon="-6.0901040">
        <ele>69.8</ele>
        <time>2023-01-28T09:12:25Z</time>
      </trkpt>
      <trkpt lat="36.4508540" lon="-6.0901240">
        <ele>69.8</ele>
        <time>2023-01-28T09:12:26Z</time>
      </trkpt>
      <trkpt lat="36.4508080" lon="-6.0901520">
        <ele>69.8</ele>
        <time>2023-01-28T09:12:27Z</time>
      </trkpt>
      <trkpt lat="36.4507630" lon="-6.0901820">
        <ele>69.6</ele>
        <time>2023-01-28T09:12:28Z</time>
      </trkpt>
      <trkpt lat="36.4507140" lon="-6.0902110">
        <ele>69.6</ele>
        <time>2023-01-28T09:12:29Z</time>
      </trkpt>
      <trkpt lat="36.4506660" lon="-6.0902430">
        <ele>69.6</ele>
        <time>2023-01-28T09:12:30Z</time>
      </trkpt>
      <trkpt lat="36.4506170" lon="-6.0902760">
        <ele>69.8</ele>
        <time>2023-01-28T09:12:31Z</time>
      </trkpt>
      <trkpt lat="36.4505700" lon="-6.0903110">
        <ele>69.8</ele>
        <time>2023-01-28T09:12:32Z</time>
      </trkpt>
      <trkpt lat="36.4505190" lon="-6.0903270">
        <ele>69.8</ele>
        <time>2023-01-28T09:12:33Z</time>
      </trkpt>
      <trkpt lat="36.4504860" lon="-6.0903600">
        <ele>69.8</ele>
        <time>2023-01-28T09:12:34Z</time>
      </trkpt>
      <trkpt lat="36.4504430" lon="-6.0903850">
        <ele>69.8</ele>
        <time>2023-01-28T09:12:35Z</time>
      </trkpt>
      <trkpt lat="36.4504060" lon="-6.0904170">
        <ele>69.8</ele>
        <time>2023-01-28T09:12:36Z</time>
      </trkpt>
      <trkpt lat="36.4503630" lon="-6.0904400">
        <ele>69.8</ele>
        <time>2023-01-28T09:12:37Z</time>
      </trkpt>
      <trkpt lat="36.4503200" lon="-6.0904840">
        <ele>69.8</ele>
        <time>2023-01-28T09:12:38Z</time>
      </trkpt>
      <trkpt lat="36.4502720" lon="-6.0905160">
        <ele>69.8</ele>
        <time>2023-01-28T09:12:39Z</time>
      </trkpt>
      <trkpt lat="36.4502250" lon="-6.0905460">
        <ele>70.0</ele>
        <time>2023-01-28T09:12:40Z</time>
      </trkpt>
      <trkpt lat="36.4502000" lon="-6.0905870">
        <ele>69.8</ele>
        <time>2023-01-28T09:12:41Z</time>
      </trkpt>
      <trkpt lat="36.4501600" lon="-6.0906310">
        <ele>69.8</ele>
        <time>2023-01-28T09:12:42Z</time>
      </trkpt>
      <trkpt lat="36.4501220" lon="-6.0906680">
        <ele>69.8</ele>
        <time>2023-01-28T09:12:43Z</time>
      </trkpt>
      <trkpt lat="36.4500800" lon="-6.0906810">
        <ele>69.8</ele>
        <time>2023-01-28T09:12:44Z</time>
      </trkpt>
      <trkpt lat="36.4500470" lon="-6.0907240">
        <ele>70.0</ele>
        <time>2023-01-28T09:12:45Z</time>
      </trkpt>
      <trkpt lat="36.4500160" lon="-6.0907670">
        <ele>70.0</ele>
        <time>2023-01-28T09:12:46Z</time>
      </trkpt>
      <trkpt lat="36.4499830" lon="-6.0907960">
        <ele>70.0</ele>
        <time>2023-01-28T09:12:47Z</time>
      </trkpt>
      <trkpt lat="36.4499420" lon="-6.0908430">
        <ele>70.2</ele>
        <time>2023-01-28T09:12:48Z</time>
      </trkpt>
      <trkpt lat="36.4498980" lon="-6.0908860">
        <ele>70.0</ele>
        <time>2023-01-28T09:12:49Z</time>
      </trkpt>
      <trkpt lat="36.4498560" lon="-6.0909370">
        <ele>70.0</ele>
        <time>2023-01-28T09:12:50Z</time>
      </trkpt>
      <trkpt lat="36.4498120" lon="-6.0909780">
        <ele>70.0</ele>
        <time>2023-01-28T09:12:51Z</time>
      </trkpt>
      <trkpt lat="36.4497760" lon="-6.0910190">
        <ele>69.8</ele>
        <time>2023-01-28T09:12:52Z</time>
      </trkpt>
      <trkpt lat="36.4497410" lon="-6.0910660">
        <ele>70.0</ele>
        <time>2023-01-28T09:12:53Z</time>
      </trkpt>
      <trkpt lat="36.4497120" lon="-6.0911080">
        <ele>69.8</ele>
        <time>2023-01-28T09:12:54Z</time>
      </trkpt>
      <trkpt lat="36.4496710" lon="-6.0911310">
        <ele>69.8</ele>
        <time>2023-01-28T09:12:55Z</time>
      </trkpt>
      <trkpt lat="36.4496340" lon="-6.0911600">
        <ele>69.8</ele>
        <time>2023-01-28T09:12:56Z</time>
      </trkpt>
      <trkpt lat="36.4496030" lon="-6.0911950">
        <ele>69.8</ele>
        <time>2023-01-28T09:12:57Z</time>
      </trkpt>
      <trkpt lat="36.4495630" lon="-6.0912330">
        <ele>69.8</ele>
        <time>2023-01-28T09:12:58Z</time>
      </trkpt>
      <trkpt lat="36.4495300" lon="-6.0912660">
        <ele>69.6</ele>
        <time>2023-01-28T09:12:59Z</time>
      </trkpt>
      <trkpt lat="36.4494990" lon="-6.0913000">
        <ele>69.4</ele>
        <time>2023-01-28T09:13:00Z</time>
      </trkpt>
      <trkpt lat="36.4494590" lon="-6.0913370">
        <ele>69.4</ele>
        <time>2023-01-28T09:13:01Z</time>
      </trkpt>
      <trkpt lat="36.4494180" lon="-6.0913690">
        <ele>69.4</ele>
        <time>2023-01-28T09:13:02Z</time>
      </trkpt>
      <trkpt lat="36.4493880" lon="-6.0914050">
        <ele>69.4</ele>
        <time>2023-01-28T09:13:03Z</time>
      </trkpt>
      <trkpt lat="36.4493530" lon="-6.0914390">
        <ele>69.4</ele>
        <time>2023-01-28T09:13:04Z</time>
      </trkpt>
      <trkpt lat="36.4493140" lon="-6.0914730">
        <ele>69.4</ele>
        <time>2023-01-28T09:13:05Z</time>
      </trkpt>
      <trkpt lat="36.4492720" lon="-6.0914940">
        <ele>69.4</ele>
        <time>2023-01-28T09:13:06Z</time>
      </trkpt>
      <trkpt lat="36.4492270" lon="-6.0915150">
        <ele>69.2</ele>
        <time>2023-01-28T09:13:07Z</time>
      </trkpt>
      <trkpt lat="36.4491950" lon="-6.0915300">
        <ele>69.2</ele>
        <time>2023-01-28T09:13:08Z</time>
      </trkpt>
      <trkpt lat="36.4491500" lon="-6.0915520">
        <ele>69.2</ele>
        <time>2023-01-28T09:13:09Z</time>
      </trkpt>
      <trkpt lat="36.4491060" lon="-6.0915680">
        <ele>69.2</ele>
        <time>2023-01-28T09:13:10Z</time>
      </trkpt>
      <trkpt lat="36.4490710" lon="-6.0915820">
        <ele>69.2</ele>
        <time>2023-01-28T09:13:11Z</time>
      </trkpt>
      <trkpt lat="36.4490360" lon="-6.0916030">
        <ele>69.2</ele>
        <time>2023-01-28T09:13:12Z</time>
      </trkpt>
      <trkpt lat="36.4489940" lon="-6.0916090">
        <ele>69.2</ele>
        <time>2023-01-28T09:13:13Z</time>
      </trkpt>
      <trkpt lat="36.4489620" lon="-6.0916120">
        <ele>69.6</ele>
        <time>2023-01-28T09:13:14Z</time>
      </trkpt>
      <trkpt lat="36.4489360" lon="-6.0915900">
        <ele>69.6</ele>
        <time>2023-01-28T09:13:15Z</time>
      </trkpt>
      <trkpt lat="36.4489120" lon="-6.0915650">
        <ele>69.4</ele>
        <time>2023-01-28T09:13:16Z</time>
      </trkpt>
      <trkpt lat="36.4489050" lon="-6.0915370">
        <ele>69.4</ele>
        <time>2023-01-28T09:13:17Z</time>
      </trkpt>
      <trkpt lat="36.4489080" lon="-6.0914930">
        <ele>69.2</ele>
        <time>2023-01-28T09:13:18Z</time>
      </trkpt>
      <trkpt lat="36.4489180" lon="-6.0914690">
        <ele>69.0</ele>
        <time>2023-01-28T09:13:19Z</time>
      </trkpt>
      <trkpt lat="36.4489420" lon="-6.0914320">
        <ele>69.0</ele>
        <time>2023-01-28T09:13:20Z</time>
      </trkpt>
      <trkpt lat="36.4489530" lon="-6.0913880">
        <ele>69.0</ele>
        <time>2023-01-28T09:13:21Z</time>
      </trkpt>
      <trkpt lat="36.4489760" lon="-6.0913450">
        <ele>69.0</ele>
        <time>2023-01-28T09:13:22Z</time>
      </trkpt>
      <trkpt lat="36.4489980" lon="-6.0913160">
        <ele>69.2</ele>
        <time>2023-01-28T09:13:23Z</time>
      </trkpt>
      <trkpt lat="36.4490240" lon="-6.0912850">
        <ele>69.2</ele>
        <time>2023-01-28T09:13:24Z</time>
      </trkpt>
      <trkpt lat="36.4490400" lon="-6.0912510">
        <ele>69.2</ele>
        <time>2023-01-28T09:13:25Z</time>
      </trkpt>
      <trkpt lat="36.4490560" lon="-6.0912200">
        <ele>69.0</ele>
        <time>2023-01-28T09:13:26Z</time>
      </trkpt>
      <trkpt lat="36.4490670" lon="-6.0911900">
        <ele>69.0</ele>
        <time>2023-01-28T09:13:27Z</time>
      </trkpt>
      <trkpt lat="36.4490810" lon="-6.0911440">
        <ele>69.0</ele>
        <time>2023-01-28T09:13:28Z</time>
      </trkpt>
      <trkpt lat="36.4490990" lon="-6.0911070">
        <ele>69.0</ele>
        <time>2023-01-28T09:13:29Z</time>
      </trkpt>
      <trkpt lat="36.4491160" lon="-6.0910740">
        <ele>69.0</ele>
        <time>2023-01-28T09:13:30Z</time>
      </trkpt>
      <trkpt lat="36.4491460" lon="-6.0910300">
        <ele>69.0</ele>
        <time>2023-01-28T09:13:31Z</time>
      </trkpt>
      <trkpt lat="36.4491780" lon="-6.0909950">
        <ele>69.2</ele>
        <time>2023-01-28T09:13:32Z</time>
      </trkpt>
      <trkpt lat="36.4491860" lon="-6.0909560">
        <ele>69.0</ele>
        <time>2023-01-28T09:13:33Z</time>
      </trkpt>
      <trkpt lat="36.4492030" lon="-6.0909210">
        <ele>69.0</ele>
        <time>2023-01-28T09:13:34Z</time>
      </trkpt>
      <trkpt lat="36.4492240" lon="-6.0908780">
        <ele>68.8</ele>
        <time>2023-01-28T09:13:35Z</time>
      </trkpt>
      <trkpt lat="36.4492380" lon="-6.0908270">
        <ele>68.8</ele>
        <time>2023-01-28T09:13:36Z</time>
      </trkpt>
      <trkpt lat="36.4492630" lon="-6.0907840">
        <ele>68.6</ele>
        <time>2023-01-28T09:13:37Z</time>
      </trkpt>
      <trkpt lat="36.4492810" lon="-6.0907380">
        <ele>68.8</ele>
        <time>2023-01-28T09:13:38Z</time>
      </trkpt>
      <trkpt lat="36.4493080" lon="-6.0906950">
        <ele>68.6</ele>
        <time>2023-01-28T09:13:39Z</time>
      </trkpt>
      <trkpt lat="36.4493290" lon="-6.0906510">
        <ele>68.4</ele>
        <time>2023-01-28T09:13:40Z</time>
      </trkpt>
      <trkpt lat="36.4493590" lon="-6.0906090">
        <ele>68.6</ele>
        <time>2023-01-28T09:13:41Z</time>
      </trkpt>
      <trkpt lat="36.4493840" lon="-6.0905750">
        <ele>68.6</ele>
        <time>2023-01-28T09:13:42Z</time>
      </trkpt>
      <trkpt lat="36.4494100" lon="-6.0905270">
        <ele>68.8</ele>
        <time>2023-01-28T09:13:43Z</time>
      </trkpt>
      <trkpt lat="36.4494290" lon="-6.0904840">
        <ele>68.6</ele>
        <time>2023-01-28T09:13:44Z</time>
      </trkpt>
      <trkpt lat="36.4494330" lon="-6.0904390">
        <ele>68.6</ele>
        <time>2023-01-28T09:13:45Z</time>
      </trkpt>
      <trkpt lat="36.4494580" lon="-6.0903960">
        <ele>68.6</ele>
        <time>2023-01-28T09:13:46Z</time>
      </trkpt>
      <trkpt lat="36.4494730" lon="-6.0903510">
        <ele>68.6</ele>
        <time>2023-01-28T09:13:47Z</time>
      </trkpt>
      <trkpt lat="36.4494810" lon="-6.0903120">
        <ele>68.8</ele>
        <time>2023-01-28T09:13:48Z</time>
      </trkpt>
      <trkpt lat="36.4494940" lon="-6.0902660">
        <ele>68.8</ele>
        <time>2023-01-28T09:13:49Z</time>
      </trkpt>
      <trkpt lat="36.4495060" lon="-6.0902100">
        <ele>68.8</ele>
        <time>2023-01-28T09:13:50Z</time>
      </trkpt>
      <trkpt lat="36.4495460" lon="-6.0901770">
        <ele>68.8</ele>
        <time>2023-01-28T09:13:51Z</time>
      </trkpt>
      <trkpt lat="36.4495650" lon="-6.0901270">
        <ele>68.8</ele>
        <time>2023-01-28T09:13:52Z</time>
      </trkpt>
      <trkpt lat="36.4495760" lon="-6.0900950">
        <ele>69.0</ele>
        <time>2023-01-28T09:13:53Z</time>
      </trkpt>
      <trkpt lat="36.4495850" lon="-6.0900580">
        <ele>68.8</ele>
        <time>2023-01-28T09:13:54Z</time>
      </trkpt>
      <trkpt lat="36.4496010" lon="-6.0900200">
        <ele>68.6</ele>
        <time>2023-01-28T09:13:55Z</time>
      </trkpt>
      <trkpt lat="36.4496260" lon="-6.0899810">
        <ele>68.6</ele>
        <time>2023-01-28T09:13:56Z</time>
      </trkpt>
      <trkpt lat="36.4496600" lon="-6.0899470">
        <ele>68.6</ele>
        <time>2023-01-28T09:13:57Z</time>
      </trkpt>
      <trkpt lat="36.4496810" lon="-6.0898990">
        <ele>68.6</ele>
        <time>2023-01-28T09:13:58Z</time>
      </trkpt>
      <trkpt lat="36.4497010" lon="-6.0898530">
        <ele>68.6</ele>
        <time>2023-01-28T09:13:59Z</time>
      </trkpt>
      <trkpt lat="36.4497170" lon="-6.0898090">
        <ele>68.4</ele>
        <time>2023-01-28T09:14:00Z</time>
      </trkpt>
      <trkpt lat="36.4497380" lon="-6.0897720">
        <ele>68.6</ele>
        <time>2023-01-28T09:14:01Z</time>
      </trkpt>
      <trkpt lat="36.4497510" lon="-6.0897320">
        <ele>68.6</ele>
        <time>2023-01-28T09:14:02Z</time>
      </trkpt>
      <trkpt lat="36.4497720" lon="-6.0896900">
        <ele>68.4</ele>
        <time>2023-01-28T09:14:03Z</time>
      </trkpt>
      <trkpt lat="36.4498050" lon="-6.0896450">
        <ele>68.4</ele>
        <time>2023-01-28T09:14:04Z</time>
      </trkpt>
      <trkpt lat="36.4498360" lon="-6.0896080">
        <ele>68.6</ele>
        <time>2023-01-28T09:14:05Z</time>
      </trkpt>
      <trkpt lat="36.4498690" lon="-6.0895660">
        <ele>68.4</ele>
        <time>2023-01-28T09:14:06Z</time>
      </trkpt>
      <trkpt lat="36.4498980" lon="-6.0895240">
        <ele>68.4</ele>
        <time>2023-01-28T09:14:07Z</time>
      </trkpt>
      <trkpt lat="36.4499330" lon="-6.0894810">
        <ele>68.2</ele>
        <time>2023-01-28T09:14:08Z</time>
      </trkpt>
      <trkpt lat="36.4499590" lon="-6.0894390">
        <ele>68.0</ele>
        <time>2023-01-28T09:14:09Z</time>
      </trkpt>
      <trkpt lat="36.4499880" lon="-6.0893970">
        <ele>68.2</ele>
        <time>2023-01-28T09:14:10Z</time>
      </trkpt>
      <trkpt lat="36.4500340" lon="-6.0893510">
        <ele>68.2</ele>
        <time>2023-01-28T09:14:11Z</time>
      </trkpt>
      <trkpt lat="36.4500620" lon="-6.0893210">
        <ele>68.2</ele>
        <time>2023-01-28T09:14:12Z</time>
      </trkpt>
      <trkpt lat="36.4500760" lon="-6.0892720">
        <ele>68.0</ele>
        <time>2023-01-28T09:14:13Z</time>
      </trkpt>
      <trkpt lat="36.4501310" lon="-6.0892410">
        <ele>68.0</ele>
        <time>2023-01-28T09:14:14Z</time>
      </trkpt>
      <trkpt lat="36.4501590" lon="-6.0892050">
        <ele>67.8</ele>
        <time>2023-01-28T09:14:15Z</time>
      </trkpt>
      <trkpt lat="36.4501790" lon="-6.0891650">
        <ele>67.8</ele>
        <time>2023-01-28T09:14:16Z</time>
      </trkpt>
      <trkpt lat="36.4502200" lon="-6.0891260">
        <ele>67.8</ele>
        <time>2023-01-28T09:14:17Z</time>
      </trkpt>
      <trkpt lat="36.4502540" lon="-6.0890900">
        <ele>67.8</ele>
        <time>2023-01-28T09:14:18Z</time>
      </trkpt>
      <trkpt lat="36.4502970" lon="-6.0890570">
        <ele>67.8</ele>
        <time>2023-01-28T09:14:19Z</time>
      </trkpt>
      <trkpt lat="36.4503240" lon="-6.0890230">
        <ele>67.8</ele>
        <time>2023-01-28T09:14:20Z</time>
      </trkpt>
      <trkpt lat="36.4503420" lon="-6.0889910">
        <ele>67.6</ele>
        <time>2023-01-28T09:14:21Z</time>
      </trkpt>
      <trkpt lat="36.4503700" lon="-6.0889650">
        <ele>67.8</ele>
        <time>2023-01-28T09:14:22Z</time>
      </trkpt>
      <trkpt lat="36.4503890" lon="-6.0889140">
        <ele>67.6</ele>
        <time>2023-01-28T09:14:23Z</time>
      </trkpt>
      <trkpt lat="36.4504080" lon="-6.0888830">
        <ele>67.6</ele>
        <time>2023-01-28T09:14:24Z</time>
      </trkpt>
      <trkpt lat="36.4504400" lon="-6.0888470">
        <ele>67.6</ele>
        <time>2023-01-28T09:14:25Z</time>
      </trkpt>
      <trkpt lat="36.4504530" lon="-6.0888090">
        <ele>67.4</ele>
        <time>2023-01-28T09:14:26Z</time>
      </trkpt>
      <trkpt lat="36.4504690" lon="-6.0887720">
        <ele>67.6</ele>
        <time>2023-01-28T09:14:27Z</time>
      </trkpt>
      <trkpt lat="36.4505000" lon="-6.0887320">
        <ele>67.4</ele>
        <time>2023-01-28T09:14:28Z</time>
      </trkpt>
      <trkpt lat="36.4505250" lon="-6.0886930">
        <ele>67.4</ele>
        <time>2023-01-28T09:14:29Z</time>
      </trkpt>
      <trkpt lat="36.4505630" lon="-6.0886560">
        <ele>67.4</ele>
        <time>2023-01-28T09:14:30Z</time>
      </trkpt>
      <trkpt lat="36.4505910" lon="-6.0886210">
        <ele>67.4</ele>
        <time>2023-01-28T09:14:31Z</time>
      </trkpt>
      <trkpt lat="36.4506280" lon="-6.0885830">
        <ele>67.2</ele>
        <time>2023-01-28T09:14:32Z</time>
      </trkpt>
      <trkpt lat="36.4506700" lon="-6.0885440">
        <ele>67.4</ele>
        <time>2023-01-28T09:14:33Z</time>
      </trkpt>
      <trkpt lat="36.4507050" lon="-6.0885150">
        <ele>67.4</ele>
        <time>2023-01-28T09:14:34Z</time>
      </trkpt>
      <trkpt lat="36.4507410" lon="-6.0884840">
        <ele>67.2</ele>
        <time>2023-01-28T09:14:35Z</time>
      </trkpt>
      <trkpt lat="36.4507680" lon="-6.0884520">
        <ele>67.0</ele>
        <time>2023-01-28T09:14:36Z</time>
      </trkpt>
      <trkpt lat="36.4507950" lon="-6.0884210">
        <ele>67.0</ele>
        <time>2023-01-28T09:14:37Z</time>
      </trkpt>
      <trkpt lat="36.4508290" lon="-6.0883780">
        <ele>67.0</ele>
        <time>2023-01-28T09:14:38Z</time>
      </trkpt>
      <trkpt lat="36.4508710" lon="-6.0883500">
        <ele>67.0</ele>
        <time>2023-01-28T09:14:39Z</time>
      </trkpt>
      <trkpt lat="36.4509080" lon="-6.0883170">
        <ele>66.8</ele>
        <time>2023-01-28T09:14:40Z</time>
      </trkpt>
      <trkpt lat="36.4509350" lon="-6.0882780">
        <ele>67.0</ele>
        <time>2023-01-28T09:14:41Z</time>
      </trkpt>
      <trkpt lat="36.4509650" lon="-6.0882330">
        <ele>67.0</ele>
        <time>2023-01-28T09:14:42Z</time>
      </trkpt>
      <trkpt lat="36.4509910" lon="-6.0881920">
        <ele>67.0</ele>
        <time>2023-01-28T09:14:43Z</time>
      </trkpt>
      <trkpt lat="36.4510150" lon="-6.0881560">
        <ele>67.0</ele>
        <time>2023-01-28T09:14:44Z</time>
      </trkpt>
      <trkpt lat="36.4510530" lon="-6.0881030">
        <ele>67.0</ele>
        <time>2023-01-28T09:14:45Z</time>
      </trkpt>
      <trkpt lat="36.4510920" lon="-6.0880670">
        <ele>67.0</ele>
        <time>2023-01-28T09:14:46Z</time>
      </trkpt>
      <trkpt lat="36.4511190" lon="-6.0880310">
        <ele>67.0</ele>
        <time>2023-01-28T09:14:47Z</time>
      </trkpt>
      <trkpt lat="36.4511480" lon="-6.0879830">
        <ele>67.0</ele>
        <time>2023-01-28T09:14:48Z</time>
      </trkpt>
      <trkpt lat="36.4511740" lon="-6.0879280">
        <ele>67.0</ele>
        <time>2023-01-28T09:14:49Z</time>
      </trkpt>
      <trkpt lat="36.4511930" lon="-6.0878920">
        <ele>66.8</ele>
        <time>2023-01-28T09:14:50Z</time>
      </trkpt>
      <trkpt lat="36.4512110" lon="-6.0878310">
        <ele>67.0</ele>
        <time>2023-01-28T09:14:51Z</time>
      </trkpt>
      <trkpt lat="36.4512350" lon="-6.0877990">
        <ele>67.0</ele>
        <time>2023-01-28T09:14:52Z</time>
      </trkpt>
      <trkpt lat="36.4512600" lon="-6.0877610">
        <ele>66.8</ele>
        <time>2023-01-28T09:14:53Z</time>
      </trkpt>
      <trkpt lat="36.4512810" lon="-6.0877140">
        <ele>66.6</ele>
        <time>2023-01-28T09:14:54Z</time>
      </trkpt>
      <trkpt lat="36.4513030" lon="-6.0876800">
        <ele>66.8</ele>
        <time>2023-01-28T09:14:55Z</time>
      </trkpt>
      <trkpt lat="36.4513290" lon="-6.0876490">
        <ele>66.8</ele>
        <time>2023-01-28T09:14:56Z</time>
      </trkpt>
      <trkpt lat="36.4513610" lon="-6.0876040">
        <ele>66.6</ele>
        <time>2023-01-28T09:14:57Z</time>
      </trkpt>
      <trkpt lat="36.4514030" lon="-6.0875660">
        <ele>66.6</ele>
        <time>2023-01-28T09:14:58Z</time>
      </trkpt>
      <trkpt lat="36.4514390" lon="-6.0875260">
        <ele>66.4</ele>
        <time>2023-01-28T09:14:59Z</time>
      </trkpt>
      <trkpt lat="36.4514510" lon="-6.0874780">
        <ele>66.2</ele>
        <time>2023-01-28T09:15:00Z</time>
      </trkpt>
      <trkpt lat="36.4514980" lon="-6.0874400">
        <ele>66.4</ele>
        <time>2023-01-28T09:15:01Z</time>
      </trkpt>
      <trkpt lat="36.4515410" lon="-6.0873930">
        <ele>66.2</ele>
        <time>2023-01-28T09:15:02Z</time>
      </trkpt>
      <trkpt lat="36.4515780" lon="-6.0873640">
        <ele>66.4</ele>
        <time>2023-01-28T09:15:03Z</time>
      </trkpt>
      <trkpt lat="36.4516030" lon="-6.0873180">
        <ele>66.4</ele>
        <time>2023-01-28T09:15:04Z</time>
      </trkpt>
      <trkpt lat="36.4516190" lon="-6.0872690">
        <ele>66.4</ele>
        <time>2023-01-28T09:15:05Z</time>
      </trkpt>
      <trkpt lat="36.4516600" lon="-6.0872260">
        <ele>66.4</ele>
        <time>2023-01-28T09:15:06Z</time>
      </trkpt>
      <trkpt lat="36.4516920" lon="-6.0871880">
        <ele>66.4</ele>
        <time>2023-01-28T09:15:07Z</time>
      </trkpt>
      <trkpt lat="36.4517370" lon="-6.0871390">
        <ele>66.6</ele>
        <time>2023-01-28T09:15:08Z</time>
      </trkpt>
      <trkpt lat="36.4517580" lon="-6.0870880">
        <ele>66.8</ele>
        <time>2023-01-28T09:15:09Z</time>
      </trkpt>
      <trkpt lat="36.4517920" lon="-6.0870430">
        <ele>66.8</ele>
        <time>2023-01-28T09:15:10Z</time>
      </trkpt>
      <trkpt lat="36.4518220" lon="-6.0869960">
        <ele>66.8</ele>
        <time>2023-01-28T09:15:11Z</time>
      </trkpt>
      <trkpt lat="36.4518360" lon="-6.0869510">
        <ele>67.0</ele>
        <time>2023-01-28T09:15:12Z</time>
      </trkpt>
      <trkpt lat="36.4518600" lon="-6.0869070">
        <ele>66.8</ele>
        <time>2023-01-28T09:15:13Z</time>
      </trkpt>
      <trkpt lat="36.4518930" lon="-6.0868610">
        <ele>66.8</ele>
        <time>2023-01-28T09:15:14Z</time>
      </trkpt>
      <trkpt lat="36.4519080" lon="-6.0868150">
        <ele>66.8</ele>
        <time>2023-01-28T09:15:15Z</time>
      </trkpt>
      <trkpt lat="36.4519570" lon="-6.0867700">
        <ele>67.0</ele>
        <time>2023-01-28T09:15:16Z</time>
      </trkpt>
      <trkpt lat="36.4519850" lon="-6.0867430">
        <ele>67.0</ele>
        <time>2023-01-28T09:15:17Z</time>
      </trkpt>
      <trkpt lat="36.4520270" lon="-6.0867150">
        <ele>67.0</ele>
        <time>2023-01-28T09:15:18Z</time>
      </trkpt>
      <trkpt lat="36.4520510" lon="-6.0866740">
        <ele>66.8</ele>
        <time>2023-01-28T09:15:19Z</time>
      </trkpt>
      <trkpt lat="36.4520790" lon="-6.0866320">
        <ele>66.8</ele>
        <time>2023-01-28T09:15:20Z</time>
      </trkpt>
      <trkpt lat="36.4521100" lon="-6.0865850">
        <ele>66.8</ele>
        <time>2023-01-28T09:15:21Z</time>
      </trkpt>
      <trkpt lat="36.4521440" lon="-6.0865310">
        <ele>67.0</ele>
        <time>2023-01-28T09:15:22Z</time>
      </trkpt>
      <trkpt lat="36.4521680" lon="-6.0864810">
        <ele>67.0</ele>
        <time>2023-01-28T09:15:23Z</time>
      </trkpt>
      <trkpt lat="36.4521930" lon="-6.0864370">
        <ele>66.8</ele>
        <time>2023-01-28T09:15:24Z</time>
      </trkpt>
      <trkpt lat="36.4522200" lon="-6.0864030">
        <ele>66.8</ele>
        <time>2023-01-28T09:15:25Z</time>
      </trkpt>
      <trkpt lat="36.4522500" lon="-6.0863540">
        <ele>66.8</ele>
        <time>2023-01-28T09:15:26Z</time>
      </trkpt>
      <trkpt lat="36.4522870" lon="-6.0863140">
        <ele>66.8</ele>
        <time>2023-01-28T09:15:27Z</time>
      </trkpt>
      <trkpt lat="36.4523180" lon="-6.0862920">
        <ele>66.8</ele>
        <time>2023-01-28T09:15:28Z</time>
      </trkpt>
      <trkpt lat="36.4523390" lon="-6.0862490">
        <ele>66.8</ele>
        <time>2023-01-28T09:15:29Z</time>
      </trkpt>
      <trkpt lat="36.4523730" lon="-6.0862080">
        <ele>66.8</ele>
        <time>2023-01-28T09:15:31Z</time>
      </trkpt>
      <trkpt lat="36.4524320" lon="-6.0861390">
        <ele>66.8</ele>
        <time>2023-01-28T09:15:33Z</time>
      </trkpt>
      <trkpt lat="36.4524920" lon="-6.0860480">
        <ele>67.0</ele>
        <time>2023-01-28T09:15:34Z</time>
      </trkpt>
      <trkpt lat="36.4525250" lon="-6.0860050">
        <ele>67.0</ele>
        <time>2023-01-28T09:15:35Z</time>
      </trkpt>
      <trkpt lat="36.4525630" lon="-6.0859780">
        <ele>67.0</ele>
        <time>2023-01-28T09:15:36Z</time>
      </trkpt>
      <trkpt lat="36.4525880" lon="-6.0859380">
        <ele>66.8</ele>
        <time>2023-01-28T09:15:37Z</time>
      </trkpt>
      <trkpt lat="36.4526220" lon="-6.0859020">
        <ele>66.8</ele>
        <time>2023-01-28T09:15:38Z</time>
      </trkpt>
      <trkpt lat="36.4526400" lon="-6.0858690">
        <ele>66.8</ele>
        <time>2023-01-28T09:15:39Z</time>
      </trkpt>
      <trkpt lat="36.4526690" lon="-6.0858360">
        <ele>66.8</ele>
        <time>2023-01-28T09:15:40Z</time>
      </trkpt>
      <trkpt lat="36.4526870" lon="-6.0857870">
        <ele>66.8</ele>
        <time>2023-01-28T09:15:42Z</time>
      </trkpt>
      <trkpt lat="36.4527430" lon="-6.0857060">
        <ele>66.6</ele>
        <time>2023-01-28T09:15:43Z</time>
      </trkpt>
      <trkpt lat="36.4527760" lon="-6.0856580">
        <ele>66.8</ele>
        <time>2023-01-28T09:15:44Z</time>
      </trkpt>
      <trkpt lat="36.4527920" lon="-6.0856230">
        <ele>66.8</ele>
        <time>2023-01-28T09:15:46Z</time>
      </trkpt>
      <trkpt lat="36.4528490" lon="-6.0855270">
        <ele>66.6</ele>
        <time>2023-01-28T09:15:47Z</time>
      </trkpt>
      <trkpt lat="36.4528670" lon="-6.0854830">
        <ele>66.4</ele>
        <time>2023-01-28T09:15:48Z</time>
      </trkpt>
      <trkpt lat="36.4528880" lon="-6.0854360">
        <ele>66.4</ele>
        <time>2023-01-28T09:15:49Z</time>
      </trkpt>
      <trkpt lat="36.4529090" lon="-6.0853880">
        <ele>66.4</ele>
        <time>2023-01-28T09:15:50Z</time>
      </trkpt>
      <trkpt lat="36.4529250" lon="-6.0853530">
        <ele>66.4</ele>
        <time>2023-01-28T09:15:51Z</time>
      </trkpt>
      <trkpt lat="36.4529480" lon="-6.0853060">
        <ele>66.4</ele>
        <time>2023-01-28T09:15:53Z</time>
      </trkpt>
      <trkpt lat="36.4530080" lon="-6.0852250">
        <ele>66.4</ele>
        <time>2023-01-28T09:15:54Z</time>
      </trkpt>
      <trkpt lat="36.4530340" lon="-6.0851870">
        <ele>66.4</ele>
        <time>2023-01-28T09:15:55Z</time>
      </trkpt>
      <trkpt lat="36.4530660" lon="-6.0851490">
        <ele>66.4</ele>
        <time>2023-01-28T09:15:56Z</time>
      </trkpt>
      <trkpt lat="36.4530970" lon="-6.0851070">
        <ele>66.4</ele>
        <time>2023-01-28T09:15:57Z</time>
      </trkpt>
      <trkpt lat="36.4531290" lon="-6.0850650">
        <ele>66.4</ele>
        <time>2023-01-28T09:15:58Z</time>
      </trkpt>
      <trkpt lat="36.4531440" lon="-6.0850360">
        <ele>66.4</ele>
        <time>2023-01-28T09:15:59Z</time>
      </trkpt>
      <trkpt lat="36.4531640" lon="-6.0849940">
        <ele>66.6</ele>
        <time>2023-01-28T09:16:00Z</time>
      </trkpt>
      <trkpt lat="36.4531980" lon="-6.0849500">
        <ele>66.6</ele>
        <time>2023-01-28T09:16:01Z</time>
      </trkpt>
      <trkpt lat="36.4532180" lon="-6.0849080">
        <ele>66.8</ele>
        <time>2023-01-28T09:16:03Z</time>
      </trkpt>
      <trkpt lat="36.4532770" lon="-6.0848370">
        <ele>66.6</ele>
        <time>2023-01-28T09:16:04Z</time>
      </trkpt>
      <trkpt lat="36.4533100" lon="-6.0847990">
        <ele>66.6</ele>
        <time>2023-01-28T09:16:06Z</time>
      </trkpt>
      <trkpt lat="36.4533770" lon="-6.0847240">
        <ele>66.8</ele>
        <time>2023-01-28T09:16:07Z</time>
      </trkpt>
      <trkpt lat="36.4533990" lon="-6.0846860">
        <ele>66.8</ele>
        <time>2023-01-28T09:16:08Z</time>
      </trkpt>
      <trkpt lat="36.4534230" lon="-6.0846460">
        <ele>66.8</ele>
        <time>2023-01-28T09:16:09Z</time>
      </trkpt>
      <trkpt lat="36.4534590" lon="-6.0846050">
        <ele>66.6</ele>
        <time>2023-01-28T09:16:10Z</time>
      </trkpt>
      <trkpt lat="36.4534960" lon="-6.0845660">
        <ele>66.6</ele>
        <time>2023-01-28T09:16:11Z</time>
      </trkpt>
      <trkpt lat="36.4535250" lon="-6.0845200">
        <ele>66.6</ele>
        <time>2023-01-28T09:16:12Z</time>
      </trkpt>
      <trkpt lat="36.4535620" lon="-6.0844820">
        <ele>66.6</ele>
        <time>2023-01-28T09:16:13Z</time>
      </trkpt>
      <trkpt lat="36.4535720" lon="-6.0844260">
        <ele>66.6</ele>
        <time>2023-01-28T09:16:14Z</time>
      </trkpt>
      <trkpt lat="36.4536000" lon="-6.0843780">
        <ele>66.6</ele>
        <time>2023-01-28T09:16:16Z</time>
      </trkpt>
      <trkpt lat="36.4536610" lon="-6.0843060">
        <ele>66.6</ele>
        <time>2023-01-28T09:16:17Z</time>
      </trkpt>
      <trkpt lat="36.4536900" lon="-6.0842560">
        <ele>66.6</ele>
        <time>2023-01-28T09:16:18Z</time>
      </trkpt>
      <trkpt lat="36.4537080" lon="-6.0842140">
        <ele>66.8</ele>
        <time>2023-01-28T09:16:20Z</time>
      </trkpt>
      <trkpt lat="36.4537540" lon="-6.0841100">
        <ele>66.6</ele>
        <time>2023-01-28T09:16:21Z</time>
      </trkpt>
      <trkpt lat="36.4538020" lon="-6.0840670">
        <ele>66.8</ele>
        <time>2023-01-28T09:16:23Z</time>
      </trkpt>
      <trkpt lat="36.4538460" lon="-6.0840040">
        <ele>66.6</ele>
        <time>2023-01-28T09:16:24Z</time>
      </trkpt>
      <trkpt lat="36.4538750" lon="-6.0839700">
        <ele>67.0</ele>
        <time>2023-01-28T09:16:26Z</time>
      </trkpt>
      <trkpt lat="36.4539690" lon="-6.0838960">
        <ele>66.6</ele>
        <time>2023-01-28T09:16:27Z</time>
      </trkpt>
      <trkpt lat="36.4539930" lon="-6.0838470">
        <ele>66.8</ele>
        <time>2023-01-28T09:16:28Z</time>
      </trkpt>
      <trkpt lat="36.4540190" lon="-6.0837980">
        <ele>66.6</ele>
        <time>2023-01-28T09:16:29Z</time>
      </trkpt>
      <trkpt lat="36.4540460" lon="-6.0837620">
        <ele>66.8</ele>
        <time>2023-01-28T09:16:30Z</time>
      </trkpt>
      <trkpt lat="36.4540620" lon="-6.0837210">
        <ele>66.8</ele>
        <time>2023-01-28T09:16:31Z</time>
      </trkpt>
      <trkpt lat="36.4540710" lon="-6.0836750">
        <ele>66.6</ele>
        <time>2023-01-28T09:16:32Z</time>
      </trkpt>
      <trkpt lat="36.4540840" lon="-6.0836350">
        <ele>66.6</ele>
        <time>2023-01-28T09:16:33Z</time>
      </trkpt>
      <trkpt lat="36.4541040" lon="-6.0835920">
        <ele>66.8</ele>
        <time>2023-01-28T09:16:34Z</time>
      </trkpt>
      <trkpt lat="36.4541280" lon="-6.0835520">
        <ele>66.6</ele>
        <time>2023-01-28T09:16:36Z</time>
      </trkpt>
      <trkpt lat="36.4541870" lon="-6.0834830">
        <ele>66.6</ele>
        <time>2023-01-28T09:16:37Z</time>
      </trkpt>
      <trkpt lat="36.4542270" lon="-6.0834310">
        <ele>66.6</ele>
        <time>2023-01-28T09:16:39Z</time>
      </trkpt>
      <trkpt lat="36.4542800" lon="-6.0833480">
        <ele>66.6</ele>
        <time>2023-01-28T09:16:40Z</time>
      </trkpt>
      <trkpt lat="36.4543060" lon="-6.0833190">
        <ele>66.6</ele>
        <time>2023-01-28T09:16:41Z</time>
      </trkpt>
      <trkpt lat="36.4543330" lon="-6.0832730">
        <ele>66.8</ele>
        <time>2023-01-28T09:16:43Z</time>
      </trkpt>
      <trkpt lat="36.4543870" lon="-6.0832000">
        <ele>66.8</ele>
        <time>2023-01-28T09:16:44Z</time>
      </trkpt>
      <trkpt lat="36.4544170" lon="-6.0831650">
        <ele>67.0</ele>
        <time>2023-01-28T09:16:46Z</time>
      </trkpt>
      <trkpt lat="36.4544370" lon="-6.0831220">
        <ele>67.2</ele>
        <time>2023-01-28T09:16:47Z</time>
      </trkpt>
      <trkpt lat="36.4544600" lon="-6.0830860">
        <ele>67.4</ele>
        <time>2023-01-28T09:16:48Z</time>
      </trkpt>
      <trkpt lat="36.4544870" lon="-6.0830510">
        <ele>67.4</ele>
        <time>2023-01-28T09:16:49Z</time>
      </trkpt>
      <trkpt lat="36.4545160" lon="-6.0830110">
        <ele>67.4</ele>
        <time>2023-01-28T09:16:50Z</time>
      </trkpt>
      <trkpt lat="36.4545490" lon="-6.0829720">
        <ele>67.2</ele>
        <time>2023-01-28T09:16:51Z</time>
      </trkpt>
      <trkpt lat="36.4545610" lon="-6.0829290">
        <ele>67.0</ele>
        <time>2023-01-28T09:16:52Z</time>
      </trkpt>
      <trkpt lat="36.4545910" lon="-6.0828910">
        <ele>67.0</ele>
        <time>2023-01-28T09:16:53Z</time>
      </trkpt>
      <trkpt lat="36.4546230" lon="-6.0828410">
        <ele>67.0</ele>
        <time>2023-01-28T09:16:54Z</time>
      </trkpt>
      <trkpt lat="36.4546560" lon="-6.0828200">
        <ele>66.8</ele>
        <time>2023-01-28T09:16:55Z</time>
      </trkpt>
      <trkpt lat="36.4546820" lon="-6.0827800">
        <ele>66.8</ele>
        <time>2023-01-28T09:16:56Z</time>
      </trkpt>
      <trkpt lat="36.4547070" lon="-6.0827450">
        <ele>66.8</ele>
        <time>2023-01-28T09:16:57Z</time>
      </trkpt>
      <trkpt lat="36.4547190" lon="-6.0827040">
        <ele>67.0</ele>
        <time>2023-01-28T09:16:58Z</time>
      </trkpt>
      <trkpt lat="36.4547300" lon="-6.0826640">
        <ele>67.0</ele>
        <time>2023-01-28T09:16:59Z</time>
      </trkpt>
      <trkpt lat="36.4547540" lon="-6.0826280">
        <ele>67.0</ele>
        <time>2023-01-28T09:17:00Z</time>
      </trkpt>
      <trkpt lat="36.4547810" lon="-6.0825920">
        <ele>67.0</ele>
        <time>2023-01-28T09:17:01Z</time>
      </trkpt>
      <trkpt lat="36.4548260" lon="-6.0825530">
        <ele>67.0</ele>
        <time>2023-01-28T09:17:02Z</time>
      </trkpt>
      <trkpt lat="36.4548570" lon="-6.0825050">
        <ele>67.0</ele>
        <time>2023-01-28T09:17:03Z</time>
      </trkpt>
      <trkpt lat="36.4548790" lon="-6.0824650">
        <ele>67.0</ele>
        <time>2023-01-28T09:17:04Z</time>
      </trkpt>
      <trkpt lat="36.4549070" lon="-6.0824170">
        <ele>67.0</ele>
        <time>2023-01-28T09:17:05Z</time>
      </trkpt>
      <trkpt lat="36.4549330" lon="-6.0823860">
        <ele>67.2</ele>
        <time>2023-01-28T09:17:06Z</time>
      </trkpt>
      <trkpt lat="36.4549470" lon="-6.0823440">
        <ele>67.2</ele>
        <time>2023-01-28T09:17:07Z</time>
      </trkpt>
      <trkpt lat="36.4549710" lon="-6.0823050">
        <ele>67.2</ele>
        <time>2023-01-28T09:17:08Z</time>
      </trkpt>
      <trkpt lat="36.4549910" lon="-6.0822820">
        <ele>67.0</ele>
        <time>2023-01-28T09:17:09Z</time>
      </trkpt>
      <trkpt lat="36.4550140" lon="-6.0822440">
        <ele>67.0</ele>
        <time>2023-01-28T09:17:10Z</time>
      </trkpt>
      <trkpt lat="36.4550530" lon="-6.0821940">
        <ele>67.2</ele>
        <time>2023-01-28T09:17:11Z</time>
      </trkpt>
      <trkpt lat="36.4550680" lon="-6.0821800">
        <ele>67.4</ele>
        <time>2023-01-28T09:17:12Z</time>
      </trkpt>
      <trkpt lat="36.4550830" lon="-6.0821400">
        <ele>67.4</ele>
        <time>2023-01-28T09:17:13Z</time>
      </trkpt>
      <trkpt lat="36.4551070" lon="-6.0821050">
        <ele>67.6</ele>
        <time>2023-01-28T09:17:14Z</time>
      </trkpt>
      <trkpt lat="36.4551340" lon="-6.0820640">
        <ele>67.6</ele>
        <time>2023-01-28T09:17:15Z</time>
      </trkpt>
      <trkpt lat="36.4551720" lon="-6.0820300">
        <ele>67.6</ele>
        <time>2023-01-28T09:17:16Z</time>
      </trkpt>
      <trkpt lat="36.4551840" lon="-6.0819890">
        <ele>67.4</ele>
        <time>2023-01-28T09:17:17Z</time>
      </trkpt>
      <trkpt lat="36.4552090" lon="-6.0819610">
        <ele>67.4</ele>
        <time>2023-01-28T09:17:18Z</time>
      </trkpt>
      <trkpt lat="36.4552350" lon="-6.0819270">
        <ele>67.6</ele>
        <time>2023-01-28T09:17:19Z</time>
      </trkpt>
      <trkpt lat="36.4552470" lon="-6.0818900">
        <ele>67.6</ele>
        <time>2023-01-28T09:17:20Z</time>
      </trkpt>
      <trkpt lat="36.4552740" lon="-6.0818580">
        <ele>67.6</ele>
        <time>2023-01-28T09:17:21Z</time>
      </trkpt>
      <trkpt lat="36.4552970" lon="-6.0818210">
        <ele>67.6</ele>
        <time>2023-01-28T09:17:22Z</time>
      </trkpt>
      <trkpt lat="36.4553190" lon="-6.0817830">
        <ele>67.6</ele>
        <time>2023-01-28T09:17:23Z</time>
      </trkpt>
      <trkpt lat="36.4553360" lon="-6.0817490">
        <ele>67.6</ele>
        <time>2023-01-28T09:17:24Z</time>
      </trkpt>
      <trkpt lat="36.4553650" lon="-6.0817200">
        <ele>67.6</ele>
        <time>2023-01-28T09:17:25Z</time>
      </trkpt>
      <trkpt lat="36.4553930" lon="-6.0816830">
        <ele>67.8</ele>
        <time>2023-01-28T09:17:26Z</time>
      </trkpt>
      <trkpt lat="36.4554170" lon="-6.0816530">
        <ele>68.0</ele>
        <time>2023-01-28T09:17:27Z</time>
      </trkpt>
      <trkpt lat="36.4554350" lon="-6.0816250">
        <ele>67.8</ele>
        <time>2023-01-28T09:17:28Z</time>
      </trkpt>
      <trkpt lat="36.4554630" lon="-6.0816010">
        <ele>67.8</ele>
        <time>2023-01-28T09:17:29Z</time>
      </trkpt>
      <trkpt lat="36.4554680" lon="-6.0815570">
        <ele>67.6</ele>
        <time>2023-01-28T09:17:30Z</time>
      </trkpt>
      <trkpt lat="36.4554670" lon="-6.0815410">
        <ele>67.8</ele>
        <time>2023-01-28T09:17:31Z</time>
      </trkpt>
      <trkpt lat="36.4554660" lon="-6.0815100">
        <ele>68.0</ele>
        <time>2023-01-28T09:17:32Z</time>
      </trkpt>
      <trkpt lat="36.4554750" lon="-6.0814970">
        <ele>67.8</ele>
        <time>2023-01-28T09:17:33Z</time>
      </trkpt>
      <trkpt lat="36.4554630" lon="-6.0814910">
        <ele>67.8</ele>
        <time>2023-01-28T09:17:34Z</time>
      </trkpt>
      <trkpt lat="36.4554580" lon="-6.0814830">
        <ele>67.8</ele>
        <time>2023-01-28T09:17:35Z</time>
      </trkpt>
      <trkpt lat="36.4554340" lon="-6.0814730">
        <ele>67.8</ele>
        <time>2023-01-28T09:17:36Z</time>
      </trkpt>
      <trkpt lat="36.4554160" lon="-6.0814650">
        <ele>67.8</ele>
        <time>2023-01-28T09:17:37Z</time>
      </trkpt>
      <trkpt lat="36.4554070" lon="-6.0814790">
        <ele>67.6</ele>
        <time>2023-01-28T09:17:38Z</time>
      </trkpt>
      <trkpt lat="36.4553970" lon="-6.0814860">
        <ele>67.6</ele>
        <time>2023-01-28T09:17:39Z</time>
      </trkpt>
      <trkpt lat="36.4553740" lon="-6.0814840">
        <ele>67.6</ele>
        <time>2023-01-28T09:17:40Z</time>
      </trkpt>
      <trkpt lat="36.4553490" lon="-6.0814860">
        <ele>67.6</ele>
        <time>2023-01-28T09:17:41Z</time>
      </trkpt>
      <trkpt lat="36.4553230" lon="-6.0814800">
        <ele>67.8</ele>
        <time>2023-01-28T09:17:42Z</time>
      </trkpt>
      <trkpt lat="36.4552940" lon="-6.0814820">
        <ele>67.8</ele>
        <time>2023-01-28T09:17:43Z</time>
      </trkpt>
      <trkpt lat="36.4552780" lon="-6.0814930">
        <ele>68.0</ele>
        <time>2023-01-28T09:17:44Z</time>
      </trkpt>
      <trkpt lat="36.4552620" lon="-6.0814960">
        <ele>68.0</ele>
        <time>2023-01-28T09:17:45Z</time>
      </trkpt>
      <trkpt lat="36.4552480" lon="-6.0815020">
        <ele>68.0</ele>
        <time>2023-01-28T09:17:46Z</time>
      </trkpt>
      <trkpt lat="36.4552090" lon="-6.0814830">
        <ele>68.0</ele>
        <time>2023-01-28T09:17:47Z</time>
      </trkpt>
      <trkpt lat="36.4551810" lon="-6.0814890">
        <ele>68.0</ele>
        <time>2023-01-28T09:17:48Z</time>
      </trkpt>
      <trkpt lat="36.4551580" lon="-6.0814870">
        <ele>67.8</ele>
        <time>2023-01-28T09:17:49Z</time>
      </trkpt>
      <trkpt lat="36.4551380" lon="-6.0814890">
        <ele>67.8</ele>
        <time>2023-01-28T09:17:50Z</time>
      </trkpt>
      <trkpt lat="36.4551130" lon="-6.0814800">
        <ele>67.8</ele>
        <time>2023-01-28T09:17:51Z</time>
      </trkpt>
      <trkpt lat="36.4550760" lon="-6.0814660">
        <ele>67.6</ele>
        <time>2023-01-28T09:17:52Z</time>
      </trkpt>
      <trkpt lat="36.4550460" lon="-6.0814640">
        <ele>67.6</ele>
        <time>2023-01-28T09:17:53Z</time>
      </trkpt>
      <trkpt lat="36.4550110" lon="-6.0814720">
        <ele>67.6</ele>
        <time>2023-01-28T09:17:54Z</time>
      </trkpt>
      <trkpt lat="36.4549690" lon="-6.0814660">
        <ele>67.6</ele>
        <time>2023-01-28T09:17:55Z</time>
      </trkpt>
      <trkpt lat="36.4549380" lon="-6.0814540">
        <ele>67.6</ele>
        <time>2023-01-28T09:17:56Z</time>
      </trkpt>
      <trkpt lat="36.4549040" lon="-6.0814530">
        <ele>67.4</ele>
        <time>2023-01-28T09:17:57Z</time>
      </trkpt>
      <trkpt lat="36.4548670" lon="-6.0814680">
        <ele>67.4</ele>
        <time>2023-01-28T09:17:58Z</time>
      </trkpt>
      <trkpt lat="36.4548320" lon="-6.0814790">
        <ele>67.4</ele>
        <time>2023-01-28T09:17:59Z</time>
      </trkpt>
      <trkpt lat="36.4547980" lon="-6.0814840">
        <ele>67.2</ele>
        <time>2023-01-28T09:18:00Z</time>
      </trkpt>
      <trkpt lat="36.4547610" lon="-6.0814990">
        <ele>67.2</ele>
        <time>2023-01-28T09:18:01Z</time>
      </trkpt>
      <trkpt lat="36.4547190" lon="-6.0815050">
        <ele>67.2</ele>
        <time>2023-01-28T09:18:02Z</time>
      </trkpt>
      <trkpt lat="36.4546860" lon="-6.0815290">
        <ele>66.8</ele>
        <time>2023-01-28T09:18:03Z</time>
      </trkpt>
      <trkpt lat="36.4546470" lon="-6.0815270">
        <ele>66.8</ele>
        <time>2023-01-28T09:18:04Z</time>
      </trkpt>
      <trkpt lat="36.4546050" lon="-6.0815320">
        <ele>66.6</ele>
        <time>2023-01-28T09:18:05Z</time>
      </trkpt>
      <trkpt lat="36.4545510" lon="-6.0815450">
        <ele>66.4</ele>
        <time>2023-01-28T09:18:06Z</time>
      </trkpt>
      <trkpt lat="36.4545070" lon="-6.0815470">
        <ele>66.2</ele>
        <time>2023-01-28T09:18:07Z</time>
      </trkpt>
      <trkpt lat="36.4544600" lon="-6.0815650">
        <ele>66.0</ele>
        <time>2023-01-28T09:18:08Z</time>
      </trkpt>
      <trkpt lat="36.4544100" lon="-6.0815730">
        <ele>66.0</ele>
        <time>2023-01-28T09:18:09Z</time>
      </trkpt>
      <trkpt lat="36.4543640" lon="-6.0815880">
        <ele>65.8</ele>
        <time>2023-01-28T09:18:10Z</time>
      </trkpt>
      <trkpt lat="36.4543190" lon="-6.0816000">
        <ele>65.6</ele>
        <time>2023-01-28T09:18:11Z</time>
      </trkpt>
      <trkpt lat="36.4542790" lon="-6.0816240">
        <ele>65.6</ele>
        <time>2023-01-28T09:18:12Z</time>
      </trkpt>
      <trkpt lat="36.4542260" lon="-6.0816420">
        <ele>65.4</ele>
        <time>2023-01-28T09:18:13Z</time>
      </trkpt>
      <trkpt lat="36.4541770" lon="-6.0816480">
        <ele>65.4</ele>
        <time>2023-01-28T09:18:14Z</time>
      </trkpt>
      <trkpt lat="36.4541290" lon="-6.0816560">
        <ele>65.2</ele>
        <time>2023-01-28T09:18:15Z</time>
      </trkpt>
      <trkpt lat="36.4540700" lon="-6.0816500">
        <ele>65.2</ele>
        <time>2023-01-28T09:18:16Z</time>
      </trkpt>
      <trkpt lat="36.4540220" lon="-6.0816550">
        <ele>65.2</ele>
        <time>2023-01-28T09:18:17Z</time>
      </trkpt>
      <trkpt lat="36.4539750" lon="-6.0816810">
        <ele>65.0</ele>
        <time>2023-01-28T09:18:18Z</time>
      </trkpt>
      <trkpt lat="36.4539270" lon="-6.0816970">
        <ele>65.0</ele>
        <time>2023-01-28T09:18:19Z</time>
      </trkpt>
      <trkpt lat="36.4538860" lon="-6.0817000">
        <ele>64.8</ele>
        <time>2023-01-28T09:18:20Z</time>
      </trkpt>
      <trkpt lat="36.4538320" lon="-6.0817050">
        <ele>64.6</ele>
        <time>2023-01-28T09:18:21Z</time>
      </trkpt>
      <trkpt lat="36.4537830" lon="-6.0817120">
        <ele>64.4</ele>
        <time>2023-01-28T09:18:22Z</time>
      </trkpt>
      <trkpt lat="36.4537300" lon="-6.0817160">
        <ele>64.2</ele>
        <time>2023-01-28T09:18:23Z</time>
      </trkpt>
      <trkpt lat="36.4536880" lon="-6.0817360">
        <ele>64.2</ele>
        <time>2023-01-28T09:18:24Z</time>
      </trkpt>
      <trkpt lat="36.4536430" lon="-6.0817590">
        <ele>64.0</ele>
        <time>2023-01-28T09:18:25Z</time>
      </trkpt>
      <trkpt lat="36.4535850" lon="-6.0817570">
        <ele>64.0</ele>
        <time>2023-01-28T09:18:26Z</time>
      </trkpt>
      <trkpt lat="36.4535210" lon="-6.0817550">
        <ele>64.0</ele>
        <time>2023-01-28T09:18:27Z</time>
      </trkpt>
      <trkpt lat="36.4534910" lon="-6.0817660">
        <ele>64.0</ele>
        <time>2023-01-28T09:18:28Z</time>
      </trkpt>
      <trkpt lat="36.4534430" lon="-6.0817820">
        <ele>64.0</ele>
        <time>2023-01-28T09:18:29Z</time>
      </trkpt>
      <trkpt lat="36.4533910" lon="-6.0818040">
        <ele>64.0</ele>
        <time>2023-01-28T09:18:30Z</time>
      </trkpt>
      <trkpt lat="36.4533390" lon="-6.0818140">
        <ele>64.0</ele>
        <time>2023-01-28T09:18:31Z</time>
      </trkpt>
      <trkpt lat="36.4532900" lon="-6.0818170">
        <ele>64.0</ele>
        <time>2023-01-28T09:18:32Z</time>
      </trkpt>
      <trkpt lat="36.4532410" lon="-6.0818190">
        <ele>64.0</ele>
        <time>2023-01-28T09:18:33Z</time>
      </trkpt>
      <trkpt lat="36.4531880" lon="-6.0818190">
        <ele>64.0</ele>
        <time>2023-01-28T09:18:34Z</time>
      </trkpt>
      <trkpt lat="36.4531370" lon="-6.0818290">
        <ele>63.8</ele>
        <time>2023-01-28T09:18:35Z</time>
      </trkpt>
      <trkpt lat="36.4530780" lon="-6.0818360">
        <ele>63.4</ele>
        <time>2023-01-28T09:18:36Z</time>
      </trkpt>
      <trkpt lat="36.4530250" lon="-6.0818320">
        <ele>63.2</ele>
        <time>2023-01-28T09:18:37Z</time>
      </trkpt>
      <trkpt lat="36.4529630" lon="-6.0818380">
        <ele>63.2</ele>
        <time>2023-01-28T09:18:38Z</time>
      </trkpt>
      <trkpt lat="36.4528980" lon="-6.0818270">
        <ele>63.0</ele>
        <time>2023-01-28T09:18:39Z</time>
      </trkpt>
      <trkpt lat="36.4528460" lon="-6.0818250">
        <ele>62.8</ele>
        <time>2023-01-28T09:18:40Z</time>
      </trkpt>
      <trkpt lat="36.4527860" lon="-6.0818100">
        <ele>62.6</ele>
        <time>2023-01-28T09:18:41Z</time>
      </trkpt>
      <trkpt lat="36.4527320" lon="-6.0818330">
        <ele>62.4</ele>
        <time>2023-01-28T09:18:42Z</time>
      </trkpt>
      <trkpt lat="36.4526800" lon="-6.0818380">
        <ele>62.2</ele>
        <time>2023-01-28T09:18:43Z</time>
      </trkpt>
      <trkpt lat="36.4526240" lon="-6.0818190">
        <ele>62.0</ele>
        <time>2023-01-28T09:18:44Z</time>
      </trkpt>
      <trkpt lat="36.4525580" lon="-6.0817960">
        <ele>62.0</ele>
        <time>2023-01-28T09:18:45Z</time>
      </trkpt>
      <trkpt lat="36.4525010" lon="-6.0817930">
        <ele>61.6</ele>
        <time>2023-01-28T09:18:46Z</time>
      </trkpt>
      <trkpt lat="36.4524370" lon="-6.0817930">
        <ele>61.6</ele>
        <time>2023-01-28T09:18:47Z</time>
      </trkpt>
      <trkpt lat="36.4523730" lon="-6.0817930">
        <ele>61.2</ele>
        <time>2023-01-28T09:18:48Z</time>
      </trkpt>
      <trkpt lat="36.4523030" lon="-6.0817860">
        <ele>61.0</ele>
        <time>2023-01-28T09:18:49Z</time>
      </trkpt>
      <trkpt lat="36.4522400" lon="-6.0817900">
        <ele>60.8</ele>
        <time>2023-01-28T09:18:50Z</time>
      </trkpt>
      <trkpt lat="36.4521760" lon="-6.0817870">
        <ele>60.8</ele>
        <time>2023-01-28T09:18:51Z</time>
      </trkpt>
      <trkpt lat="36.4521190" lon="-6.0817790">
        <ele>60.6</ele>
        <time>2023-01-28T09:18:52Z</time>
      </trkpt>
      <trkpt lat="36.4520550" lon="-6.0817740">
        <ele>60.6</ele>
        <time>2023-01-28T09:18:53Z</time>
      </trkpt>
      <trkpt lat="36.4519840" lon="-6.0817630">
        <ele>60.2</ele>
        <time>2023-01-28T09:18:54Z</time>
      </trkpt>
      <trkpt lat="36.4519230" lon="-6.0817410">
        <ele>60.0</ele>
        <time>2023-01-28T09:18:55Z</time>
      </trkpt>
      <trkpt lat="36.4518620" lon="-6.0817210">
        <ele>60.2</ele>
        <time>2023-01-28T09:18:56Z</time>
      </trkpt>
      <trkpt lat="36.4518030" lon="-6.0816950">
        <ele>59.8</ele>
        <time>2023-01-28T09:18:57Z</time>
      </trkpt>
      <trkpt lat="36.4517500" lon="-6.0816650">
        <ele>59.8</ele>
        <time>2023-01-28T09:18:58Z</time>
      </trkpt>
      <trkpt lat="36.4517000" lon="-6.0816470">
        <ele>59.4</ele>
        <time>2023-01-28T09:18:59Z</time>
      </trkpt>
      <trkpt lat="36.4516460" lon="-6.0816260">
        <ele>59.4</ele>
        <time>2023-01-28T09:19:00Z</time>
      </trkpt>
      <trkpt lat="36.4516000" lon="-6.0816030">
        <ele>59.6</ele>
        <time>2023-01-28T09:19:01Z</time>
      </trkpt>
      <trkpt lat="36.4515580" lon="-6.0815890">
        <ele>59.6</ele>
        <time>2023-01-28T09:19:02Z</time>
      </trkpt>
      <trkpt lat="36.4515010" lon="-6.0815750">
        <ele>59.4</ele>
        <time>2023-01-28T09:19:03Z</time>
      </trkpt>
      <trkpt lat="36.4514480" lon="-6.0815540">
        <ele>59.4</ele>
        <time>2023-01-28T09:19:04Z</time>
      </trkpt>
      <trkpt lat="36.4514030" lon="-6.0815350">
        <ele>59.4</ele>
        <time>2023-01-28T09:19:05Z</time>
      </trkpt>
      <trkpt lat="36.4513530" lon="-6.0815110">
        <ele>59.4</ele>
        <time>2023-01-28T09:19:06Z</time>
      </trkpt>
      <trkpt lat="36.4513090" lon="-6.0814910">
        <ele>59.4</ele>
        <time>2023-01-28T09:19:07Z</time>
      </trkpt>
      <trkpt lat="36.4512640" lon="-6.0814640">
        <ele>59.2</ele>
        <time>2023-01-28T09:19:08Z</time>
      </trkpt>
      <trkpt lat="36.4512080" lon="-6.0814160">
        <ele>59.0</ele>
        <time>2023-01-28T09:19:09Z</time>
      </trkpt>
      <trkpt lat="36.4511530" lon="-6.0813920">
        <ele>58.6</ele>
        <time>2023-01-28T09:19:10Z</time>
      </trkpt>
      <trkpt lat="36.4510960" lon="-6.0813660">
        <ele>58.6</ele>
        <time>2023-01-28T09:19:11Z</time>
      </trkpt>
      <trkpt lat="36.4510370" lon="-6.0813400">
        <ele>58.4</ele>
        <time>2023-01-28T09:19:12Z</time>
      </trkpt>
      <trkpt lat="36.4509830" lon="-6.0813290">
        <ele>58.8</ele>
        <time>2023-01-28T09:19:13Z</time>
      </trkpt>
      <trkpt lat="36.4509450" lon="-6.0813110">
        <ele>59.2</ele>
        <time>2023-01-28T09:19:14Z</time>
      </trkpt>
      <trkpt lat="36.4508950" lon="-6.0812940">
        <ele>59.2</ele>
        <time>2023-01-28T09:19:15Z</time>
      </trkpt>
      <trkpt lat="36.4508440" lon="-6.0812680">
        <ele>59.0</ele>
        <time>2023-01-28T09:19:16Z</time>
      </trkpt>
      <trkpt lat="36.4507920" lon="-6.0812550">
        <ele>58.6</ele>
        <time>2023-01-28T09:19:17Z</time>
      </trkpt>
      <trkpt lat="36.4507420" lon="-6.0812490">
        <ele>58.0</ele>
        <time>2023-01-28T09:19:18Z</time>
      </trkpt>
      <trkpt lat="36.4506880" lon="-6.0812510">
        <ele>57.2</ele>
        <time>2023-01-28T09:19:19Z</time>
      </trkpt>
      <trkpt lat="36.4506300" lon="-6.0812420">
        <ele>56.6</ele>
        <time>2023-01-28T09:19:20Z</time>
      </trkpt>
      <trkpt lat="36.4505670" lon="-6.0812290">
        <ele>55.8</ele>
        <time>2023-01-28T09:19:21Z</time>
      </trkpt>
      <trkpt lat="36.4505090" lon="-6.0812060">
        <ele>55.0</ele>
        <time>2023-01-28T09:19:22Z</time>
      </trkpt>
      <trkpt lat="36.4504540" lon="-6.0811960">
        <ele>54.2</ele>
        <time>2023-01-28T09:19:23Z</time>
      </trkpt>
      <trkpt lat="36.4503970" lon="-6.0811690">
        <ele>53.6</ele>
        <time>2023-01-28T09:19:24Z</time>
      </trkpt>
      <trkpt lat="36.4503410" lon="-6.0811240">
        <ele>52.6</ele>
        <time>2023-01-28T09:19:25Z</time>
      </trkpt>
      <trkpt lat="36.4502780" lon="-6.0810810">
        <ele>51.6</ele>
        <time>2023-01-28T09:19:26Z</time>
      </trkpt>
      <trkpt lat="36.4502150" lon="-6.0810360">
        <ele>51.2</ele>
        <time>2023-01-28T09:19:27Z</time>
      </trkpt>
      <trkpt lat="36.4501490" lon="-6.0809940">
        <ele>51.2</ele>
        <time>2023-01-28T09:19:28Z</time>
      </trkpt>
      <trkpt lat="36.4500910" lon="-6.0809420">
        <ele>51.4</ele>
        <time>2023-01-28T09:19:29Z</time>
      </trkpt>
      <trkpt lat="36.4500310" lon="-6.0809000">
        <ele>51.2</ele>
        <time>2023-01-28T09:19:30Z</time>
      </trkpt>
      <trkpt lat="36.4499710" lon="-6.0808700">
        <ele>50.8</ele>
        <time>2023-01-28T09:19:31Z</time>
      </trkpt>
      <trkpt lat="36.4499040" lon="-6.0808320">
        <ele>50.4</ele>
        <time>2023-01-28T09:19:32Z</time>
      </trkpt>
      <trkpt lat="36.4498340" lon="-6.0807820">
        <ele>50.2</ele>
        <time>2023-01-28T09:19:33Z</time>
      </trkpt>
      <trkpt lat="36.4497710" lon="-6.0807380">
        <ele>50.0</ele>
        <time>2023-01-28T09:19:34Z</time>
      </trkpt>
      <trkpt lat="36.4497020" lon="-6.0806960">
        <ele>49.6</ele>
        <time>2023-01-28T09:19:35Z</time>
      </trkpt>
      <trkpt lat="36.4496420" lon="-6.0806480">
        <ele>49.2</ele>
        <time>2023-01-28T09:19:36Z</time>
      </trkpt>
      <trkpt lat="36.4495710" lon="-6.0806190">
        <ele>49.0</ele>
        <time>2023-01-28T09:19:37Z</time>
      </trkpt>
      <trkpt lat="36.4495040" lon="-6.0805710">
        <ele>48.8</ele>
        <time>2023-01-28T09:19:38Z</time>
      </trkpt>
      <trkpt lat="36.4494330" lon="-6.0805330">
        <ele>48.6</ele>
        <time>2023-01-28T09:19:39Z</time>
      </trkpt>
      <trkpt lat="36.4493710" lon="-6.0804860">
        <ele>48.4</ele>
        <time>2023-01-28T09:19:40Z</time>
      </trkpt>
      <trkpt lat="36.4493040" lon="-6.0804510">
        <ele>48.4</ele>
        <time>2023-01-28T09:19:41Z</time>
      </trkpt>
      <trkpt lat="36.4492380" lon="-6.0804210">
        <ele>48.0</ele>
        <time>2023-01-28T09:19:42Z</time>
      </trkpt>
      <trkpt lat="36.4491790" lon="-6.0803940">
        <ele>48.0</ele>
        <time>2023-01-28T09:19:43Z</time>
      </trkpt>
      <trkpt lat="36.4491180" lon="-6.0803690">
        <ele>47.8</ele>
        <time>2023-01-28T09:19:44Z</time>
      </trkpt>
      <trkpt lat="36.4490680" lon="-6.0803310">
        <ele>47.6</ele>
        <time>2023-01-28T09:19:45Z</time>
      </trkpt>
      <trkpt lat="36.4490230" lon="-6.0802850">
        <ele>47.6</ele>
        <time>2023-01-28T09:19:46Z</time>
      </trkpt>
      <trkpt lat="36.4489750" lon="-6.0802420">
        <ele>48.0</ele>
        <time>2023-01-28T09:19:47Z</time>
      </trkpt>
      <trkpt lat="36.4489410" lon="-6.0801880">
        <ele>48.0</ele>
        <time>2023-01-28T09:19:48Z</time>
      </trkpt>
      <trkpt lat="36.4488960" lon="-6.0801510">
        <ele>47.6</ele>
        <time>2023-01-28T09:19:49Z</time>
      </trkpt>
      <trkpt lat="36.4488510" lon="-6.0800860">
        <ele>47.4</ele>
        <time>2023-01-28T09:19:50Z</time>
      </trkpt>
      <trkpt lat="36.4488100" lon="-6.0800530">
        <ele>47.2</ele>
        <time>2023-01-28T09:19:51Z</time>
      </trkpt>
      <trkpt lat="36.4487640" lon="-6.0800240">
        <ele>47.4</ele>
        <time>2023-01-28T09:19:52Z</time>
      </trkpt>
      <trkpt lat="36.4487110" lon="-6.0799940">
        <ele>47.4</ele>
        <time>2023-01-28T09:19:53Z</time>
      </trkpt>
      <trkpt lat="36.4486650" lon="-6.0799710">
        <ele>47.2</ele>
        <time>2023-01-28T09:19:54Z</time>
      </trkpt>
      <trkpt lat="36.4486040" lon="-6.0799380">
        <ele>47.2</ele>
        <time>2023-01-28T09:19:55Z</time>
      </trkpt>
      <trkpt lat="36.4485410" lon="-6.0799380">
        <ele>47.2</ele>
        <time>2023-01-28T09:19:56Z</time>
      </trkpt>
      <trkpt lat="36.4484750" lon="-6.0799140">
        <ele>47.0</ele>
        <time>2023-01-28T09:19:57Z</time>
      </trkpt>
      <trkpt lat="36.4484160" lon="-6.0799120">
        <ele>46.6</ele>
        <time>2023-01-28T09:19:58Z</time>
      </trkpt>
      <trkpt lat="36.4483550" lon="-6.0798990">
        <ele>46.4</ele>
        <time>2023-01-28T09:19:59Z</time>
      </trkpt>
      <trkpt lat="36.4483010" lon="-6.0799030">
        <ele>46.2</ele>
        <time>2023-01-28T09:20:00Z</time>
      </trkpt>
      <trkpt lat="36.4482390" lon="-6.0798910">
        <ele>45.8</ele>
        <time>2023-01-28T09:20:01Z</time>
      </trkpt>
      <trkpt lat="36.4481850" lon="-6.0799030">
        <ele>45.8</ele>
        <time>2023-01-28T09:20:02Z</time>
      </trkpt>
      <trkpt lat="36.4481250" lon="-6.0799090">
        <ele>45.6</ele>
        <time>2023-01-28T09:20:03Z</time>
      </trkpt>
      <trkpt lat="36.4480640" lon="-6.0799110">
        <ele>45.2</ele>
        <time>2023-01-28T09:20:04Z</time>
      </trkpt>
      <trkpt lat="36.4479980" lon="-6.0799080">
        <ele>44.8</ele>
        <time>2023-01-28T09:20:05Z</time>
      </trkpt>
      <trkpt lat="36.4479370" lon="-6.0799060">
        <ele>44.6</ele>
        <time>2023-01-28T09:20:06Z</time>
      </trkpt>
      <trkpt lat="36.4478630" lon="-6.0798930">
        <ele>44.6</ele>
        <time>2023-01-28T09:20:07Z</time>
      </trkpt>
      <trkpt lat="36.4477970" lon="-6.0798790">
        <ele>44.6</ele>
        <time>2023-01-28T09:20:08Z</time>
      </trkpt>
      <trkpt lat="36.4477310" lon="-6.0798550">
        <ele>44.4</ele>
        <time>2023-01-28T09:20:09Z</time>
      </trkpt>
      <trkpt lat="36.4476710" lon="-6.0798380">
        <ele>44.2</ele>
        <time>2023-01-28T09:20:10Z</time>
      </trkpt>
      <trkpt lat="36.4476160" lon="-6.0798110">
        <ele>44.2</ele>
        <time>2023-01-28T09:20:11Z</time>
      </trkpt>
      <trkpt lat="36.4475530" lon="-6.0797800">
        <ele>44.2</ele>
        <time>2023-01-28T09:20:12Z</time>
      </trkpt>
      <trkpt lat="36.4474890" lon="-6.0797550">
        <ele>44.2</ele>
        <time>2023-01-28T09:20:13Z</time>
      </trkpt>
      <trkpt lat="36.4474240" lon="-6.0797150">
        <ele>44.0</ele>
        <time>2023-01-28T09:20:14Z</time>
      </trkpt>
      <trkpt lat="36.4473670" lon="-6.0796680">
        <ele>44.0</ele>
        <time>2023-01-28T09:20:15Z</time>
      </trkpt>
      <trkpt lat="36.4473150" lon="-6.0796190">
        <ele>43.8</ele>
        <time>2023-01-28T09:20:16Z</time>
      </trkpt>
      <trkpt lat="36.4472610" lon="-6.0795550">
        <ele>43.8</ele>
        <time>2023-01-28T09:20:17Z</time>
      </trkpt>
      <trkpt lat="36.4472080" lon="-6.0795000">
        <ele>43.8</ele>
        <time>2023-01-28T09:20:18Z</time>
      </trkpt>
      <trkpt lat="36.4471550" lon="-6.0794640">
        <ele>44.0</ele>
        <time>2023-01-28T09:20:19Z</time>
      </trkpt>
      <trkpt lat="36.4471020" lon="-6.0794330">
        <ele>44.0</ele>
        <time>2023-01-28T09:20:20Z</time>
      </trkpt>
      <trkpt lat="36.4470490" lon="-6.0794160">
        <ele>44.0</ele>
        <time>2023-01-28T09:20:21Z</time>
      </trkpt>
      <trkpt lat="36.4469900" lon="-6.0793890">
        <ele>44.0</ele>
        <time>2023-01-28T09:20:22Z</time>
      </trkpt>
      <trkpt lat="36.4469330" lon="-6.0793830">
        <ele>44.0</ele>
        <time>2023-01-28T09:20:23Z</time>
      </trkpt>
      <trkpt lat="36.4468750" lon="-6.0793730">
        <ele>44.2</ele>
        <time>2023-01-28T09:20:24Z</time>
      </trkpt>
      <trkpt lat="36.4468260" lon="-6.0793540">
        <ele>44.0</ele>
        <time>2023-01-28T09:20:25Z</time>
      </trkpt>
      <trkpt lat="36.4467660" lon="-6.0793220">
        <ele>44.0</ele>
        <time>2023-01-28T09:20:26Z</time>
      </trkpt>
      <trkpt lat="36.4467110" lon="-6.0793230">
        <ele>44.0</ele>
        <time>2023-01-28T09:20:27Z</time>
      </trkpt>
      <trkpt lat="36.4466500" lon="-6.0793230">
        <ele>44.0</ele>
        <time>2023-01-28T09:20:28Z</time>
      </trkpt>
      <trkpt lat="36.4465950" lon="-6.0792970">
        <ele>43.8</ele>
        <time>2023-01-28T09:20:29Z</time>
      </trkpt>
      <trkpt lat="36.4465430" lon="-6.0792840">
        <ele>43.6</ele>
        <time>2023-01-28T09:20:30Z</time>
      </trkpt>
      <trkpt lat="36.4464860" lon="-6.0792620">
        <ele>43.6</ele>
        <time>2023-01-28T09:20:31Z</time>
      </trkpt>
      <trkpt lat="36.4464160" lon="-6.0792500">
        <ele>43.4</ele>
        <time>2023-01-28T09:20:32Z</time>
      </trkpt>
      <trkpt lat="36.4463670" lon="-6.0792450">
        <ele>43.4</ele>
        <time>2023-01-28T09:20:33Z</time>
      </trkpt>
      <trkpt lat="36.4463020" lon="-6.0792270">
        <ele>43.4</ele>
        <time>2023-01-28T09:20:34Z</time>
      </trkpt>
      <trkpt lat="36.4462350" lon="-6.0792120">
        <ele>43.2</ele>
        <time>2023-01-28T09:20:35Z</time>
      </trkpt>
      <trkpt lat="36.4461730" lon="-6.0791920">
        <ele>43.2</ele>
        <time>2023-01-28T09:20:36Z</time>
      </trkpt>
      <trkpt lat="36.4461120" lon="-6.0791810">
        <ele>43.2</ele>
        <time>2023-01-28T09:20:37Z</time>
      </trkpt>
      <trkpt lat="36.4460500" lon="-6.0791560">
        <ele>43.6</ele>
        <time>2023-01-28T09:20:38Z</time>
      </trkpt>
      <trkpt lat="36.4459930" lon="-6.0791390">
        <ele>43.4</ele>
        <time>2023-01-28T09:20:39Z</time>
      </trkpt>
      <trkpt lat="36.4459250" lon="-6.0791160">
        <ele>43.2</ele>
        <time>2023-01-28T09:20:40Z</time>
      </trkpt>
      <trkpt lat="36.4458530" lon="-6.0790990">
        <ele>43.4</ele>
        <time>2023-01-28T09:20:41Z</time>
      </trkpt>
      <trkpt lat="36.4457830" lon="-6.0790760">
        <ele>43.6</ele>
        <time>2023-01-28T09:20:42Z</time>
      </trkpt>
      <trkpt lat="36.4457150" lon="-6.0790410">
        <ele>44.0</ele>
        <time>2023-01-28T09:20:43Z</time>
      </trkpt>
      <trkpt lat="36.4456570" lon="-6.0790190">
        <ele>44.6</ele>
        <time>2023-01-28T09:20:44Z</time>
      </trkpt>
      <trkpt lat="36.4455990" lon="-6.0790030">
        <ele>45.4</ele>
        <time>2023-01-28T09:20:45Z</time>
      </trkpt>
      <trkpt lat="36.4455480" lon="-6.0789940">
        <ele>46.2</ele>
        <time>2023-01-28T09:20:46Z</time>
      </trkpt>
      <trkpt lat="36.4455000" lon="-6.0789790">
        <ele>46.6</ele>
        <time>2023-01-28T09:20:47Z</time>
      </trkpt>
      <trkpt lat="36.4454540" lon="-6.0789830">
        <ele>46.6</ele>
        <time>2023-01-28T09:20:48Z</time>
      </trkpt>
      <trkpt lat="36.4454070" lon="-6.0789810">
        <ele>46.8</ele>
        <time>2023-01-28T09:20:49Z</time>
      </trkpt>
      <trkpt lat="36.4453640" lon="-6.0789750">
        <ele>47.0</ele>
        <time>2023-01-28T09:20:50Z</time>
      </trkpt>
      <trkpt lat="36.4453130" lon="-6.0789610">
        <ele>46.6</ele>
        <time>2023-01-28T09:20:51Z</time>
      </trkpt>
      <trkpt lat="36.4452730" lon="-6.0789670">
        <ele>46.2</ele>
        <time>2023-01-28T09:20:52Z</time>
      </trkpt>
      <trkpt lat="36.4452200" lon="-6.0789830">
        <ele>45.6</ele>
        <time>2023-01-28T09:20:53Z</time>
      </trkpt>
      <trkpt lat="36.4451680" lon="-6.0790080">
        <ele>45.0</ele>
        <time>2023-01-28T09:20:54Z</time>
      </trkpt>
      <trkpt lat="36.4451080" lon="-6.0790040">
        <ele>44.4</ele>
        <time>2023-01-28T09:20:55Z</time>
      </trkpt>
      <trkpt lat="36.4450410" lon="-6.0790000">
        <ele>43.6</ele>
        <time>2023-01-28T09:20:56Z</time>
      </trkpt>
      <trkpt lat="36.4449800" lon="-6.0789980">
        <ele>43.2</ele>
        <time>2023-01-28T09:20:57Z</time>
      </trkpt>
      <trkpt lat="36.4449120" lon="-6.0789850">
        <ele>43.0</ele>
        <time>2023-01-28T09:20:58Z</time>
      </trkpt>
      <trkpt lat="36.4448470" lon="-6.0789680">
        <ele>43.2</ele>
        <time>2023-01-28T09:20:59Z</time>
      </trkpt>
      <trkpt lat="36.4447920" lon="-6.0789450">
        <ele>43.4</ele>
        <time>2023-01-28T09:21:00Z</time>
      </trkpt>
      <trkpt lat="36.4447480" lon="-6.0789280">
        <ele>43.8</ele>
        <time>2023-01-28T09:21:01Z</time>
      </trkpt>
      <trkpt lat="36.4447030" lon="-6.0789080">
        <ele>43.8</ele>
        <time>2023-01-28T09:21:02Z</time>
      </trkpt>
      <trkpt lat="36.4446540" lon="-6.0789020">
        <ele>43.8</ele>
        <time>2023-01-28T09:21:03Z</time>
      </trkpt>
      <trkpt lat="36.4446070" lon="-6.0789040">
        <ele>43.6</ele>
        <time>2023-01-28T09:21:04Z</time>
      </trkpt>
      <trkpt lat="36.4445590" lon="-6.0788980">
        <ele>43.4</ele>
        <time>2023-01-28T09:21:05Z</time>
      </trkpt>
      <trkpt lat="36.4444940" lon="-6.0788840">
        <ele>43.2</ele>
        <time>2023-01-28T09:21:06Z</time>
      </trkpt>
      <trkpt lat="36.4444520" lon="-6.0788940">
        <ele>43.4</ele>
        <time>2023-01-28T09:21:07Z</time>
      </trkpt>
      <trkpt lat="36.4444140" lon="-6.0789000">
        <ele>43.6</ele>
        <time>2023-01-28T09:21:08Z</time>
      </trkpt>
      <trkpt lat="36.4443720" lon="-6.0788950">
        <ele>43.6</ele>
        <time>2023-01-28T09:21:09Z</time>
      </trkpt>
      <trkpt lat="36.4443420" lon="-6.0788990">
        <ele>44.0</ele>
        <time>2023-01-28T09:21:10Z</time>
      </trkpt>
      <trkpt lat="36.4443030" lon="-6.0788920">
        <ele>44.2</ele>
        <time>2023-01-28T09:21:11Z</time>
      </trkpt>
      <trkpt lat="36.4442600" lon="-6.0788770">
        <ele>44.4</ele>
        <time>2023-01-28T09:21:12Z</time>
      </trkpt>
      <trkpt lat="36.4442230" lon="-6.0788590">
        <ele>44.8</ele>
        <time>2023-01-28T09:21:13Z</time>
      </trkpt>
      <trkpt lat="36.4441900" lon="-6.0788500">
        <ele>45.0</ele>
        <time>2023-01-28T09:21:14Z</time>
      </trkpt>
      <trkpt lat="36.4441600" lon="-6.0788400">
        <ele>45.4</ele>
        <time>2023-01-28T09:21:15Z</time>
      </trkpt>
      <trkpt lat="36.4441200" lon="-6.0788280">
        <ele>45.4</ele>
        <time>2023-01-28T09:21:16Z</time>
      </trkpt>
      <trkpt lat="36.4440880" lon="-6.0788170">
        <ele>45.8</ele>
        <time>2023-01-28T09:21:17Z</time>
      </trkpt>
      <trkpt lat="36.4440460" lon="-6.0788030">
        <ele>45.8</ele>
        <time>2023-01-28T09:21:18Z</time>
      </trkpt>
      <trkpt lat="36.4440060" lon="-6.0788020">
        <ele>45.8</ele>
        <time>2023-01-28T09:21:19Z</time>
      </trkpt>
      <trkpt lat="36.4439610" lon="-6.0787890">
        <ele>45.8</ele>
        <time>2023-01-28T09:21:20Z</time>
      </trkpt>
      <trkpt lat="36.4439110" lon="-6.0787810">
        <ele>45.8</ele>
        <time>2023-01-28T09:21:21Z</time>
      </trkpt>
      <trkpt lat="36.4438670" lon="-6.0787640">
        <ele>45.8</ele>
        <time>2023-01-28T09:21:22Z</time>
      </trkpt>
      <trkpt lat="36.4438280" lon="-6.0787670">
        <ele>45.6</ele>
        <time>2023-01-28T09:21:23Z</time>
      </trkpt>
      <trkpt lat="36.4437860" lon="-6.0787440">
        <ele>45.6</ele>
        <time>2023-01-28T09:21:24Z</time>
      </trkpt>
      <trkpt lat="36.4437500" lon="-6.0787410">
        <ele>45.4</ele>
        <time>2023-01-28T09:21:25Z</time>
      </trkpt>
      <trkpt lat="36.4437070" lon="-6.0787160">
        <ele>45.4</ele>
        <time>2023-01-28T09:21:26Z</time>
      </trkpt>
      <trkpt lat="36.4436600" lon="-6.0787080">
        <ele>45.6</ele>
        <time>2023-01-28T09:21:27Z</time>
      </trkpt>
      <trkpt lat="36.4436160" lon="-6.0787110">
        <ele>45.8</ele>
        <time>2023-01-28T09:21:28Z</time>
      </trkpt>
      <trkpt lat="36.4435770" lon="-6.0787130">
        <ele>45.8</ele>
        <time>2023-01-28T09:21:29Z</time>
      </trkpt>
      <trkpt lat="36.4435340" lon="-6.0787070">
        <ele>45.8</ele>
        <time>2023-01-28T09:21:30Z</time>
      </trkpt>
      <trkpt lat="36.4434910" lon="-6.0787090">
        <ele>45.8</ele>
        <time>2023-01-28T09:21:31Z</time>
      </trkpt>
      <trkpt lat="36.4434390" lon="-6.0787000">
        <ele>45.8</ele>
        <time>2023-01-28T09:21:32Z</time>
      </trkpt>
      <trkpt lat="36.4433880" lon="-6.0786720">
        <ele>45.8</ele>
        <time>2023-01-28T09:21:33Z</time>
      </trkpt>
      <trkpt lat="36.4433540" lon="-6.0786550">
        <ele>46.0</ele>
        <time>2023-01-28T09:21:34Z</time>
      </trkpt>
      <trkpt lat="36.4433080" lon="-6.0786390">
        <ele>45.8</ele>
        <time>2023-01-28T09:21:35Z</time>
      </trkpt>
      <trkpt lat="36.4432610" lon="-6.0786420">
        <ele>45.8</ele>
        <time>2023-01-28T09:21:36Z</time>
      </trkpt>
      <trkpt lat="36.4432180" lon="-6.0786230">
        <ele>45.8</ele>
        <time>2023-01-28T09:21:37Z</time>
      </trkpt>
      <trkpt lat="36.4431680" lon="-6.0786140">
        <ele>45.6</ele>
        <time>2023-01-28T09:21:38Z</time>
      </trkpt>
      <trkpt lat="36.4431150" lon="-6.0786030">
        <ele>45.4</ele>
        <time>2023-01-28T09:21:39Z</time>
      </trkpt>
      <trkpt lat="36.4430650" lon="-6.0785890">
        <ele>45.2</ele>
        <time>2023-01-28T09:21:40Z</time>
      </trkpt>
      <trkpt lat="36.4430050" lon="-6.0785760">
        <ele>45.0</ele>
        <time>2023-01-28T09:21:41Z</time>
      </trkpt>
      <trkpt lat="36.4429530" lon="-6.0785640">
        <ele>44.6</ele>
        <time>2023-01-28T09:21:42Z</time>
      </trkpt>
      <trkpt lat="36.4429030" lon="-6.0785470">
        <ele>44.2</ele>
        <time>2023-01-28T09:21:43Z</time>
      </trkpt>
      <trkpt lat="36.4428700" lon="-6.0785490">
        <ele>44.0</ele>
        <time>2023-01-28T09:21:44Z</time>
      </trkpt>
      <trkpt lat="36.4428380" lon="-6.0785490">
        <ele>43.8</ele>
        <time>2023-01-28T09:21:45Z</time>
      </trkpt>
      <trkpt lat="36.4428170" lon="-6.0785440">
        <ele>43.8</ele>
        <time>2023-01-28T09:21:46Z</time>
      </trkpt>
      <trkpt lat="36.4428060" lon="-6.0785520">
        <ele>43.8</ele>
        <time>2023-01-28T09:21:47Z</time>
      </trkpt>
      <trkpt lat="36.4428060" lon="-6.0785450">
        <ele>43.8</ele>
        <time>2023-01-28T09:21:48Z</time>
      </trkpt>
      <trkpt lat="36.4428100" lon="-6.0785420">
        <ele>43.8</ele>
        <time>2023-01-28T09:21:49Z</time>
      </trkpt>
      <trkpt lat="36.4428150" lon="-6.0785370">
        <ele>43.8</ele>
        <time>2023-01-28T09:21:50Z</time>
      </trkpt>
      <trkpt lat="36.4428260" lon="-6.0785370">
        <ele>44.2</ele>
        <time>2023-01-28T09:21:51Z</time>
      </trkpt>
      <trkpt lat="36.4428370" lon="-6.0785480">
        <ele>43.8</ele>
        <time>2023-01-28T09:21:52Z</time>
      </trkpt>
      <trkpt lat="36.4428380" lon="-6.0785490">
        <ele>43.8</ele>
        <time>2023-01-28T09:21:53Z</time>
      </trkpt>
      <trkpt lat="36.4428450" lon="-6.0785490">
        <ele>43.8</ele>
        <time>2023-01-28T09:21:54Z</time>
      </trkpt>
      <trkpt lat="36.4428510" lon="-6.0785640">
        <ele>43.8</ele>
        <time>2023-01-28T09:21:55Z</time>
      </trkpt>
      <trkpt lat="36.4428590" lon="-6.0785710">
        <ele>43.8</ele>
        <time>2023-01-28T09:21:56Z</time>
      </trkpt>
      <trkpt lat="36.4428570" lon="-6.0785690">
        <ele>43.8</ele>
        <time>2023-01-28T09:21:57Z</time>
      </trkpt>
      <trkpt lat="36.4428590" lon="-6.0785700">
        <ele>43.8</ele>
        <time>2023-01-28T09:21:58Z</time>
      </trkpt>
      <trkpt lat="36.4428590" lon="-6.0785690">
        <ele>43.8</ele>
        <time>2023-01-28T09:21:59Z</time>
      </trkpt>
      <trkpt lat="36.4428530" lon="-6.0785990">
        <ele>43.6</ele>
        <time>2023-01-28T09:22:00Z</time>
      </trkpt>
      <trkpt lat="36.4428570" lon="-6.0785880">
        <ele>43.6</ele>
        <time>2023-01-28T09:22:01Z</time>
      </trkpt>
      <trkpt lat="36.4428550" lon="-6.0785930">
        <ele>43.4</ele>
        <time>2023-01-28T09:22:02Z</time>
      </trkpt>
      <trkpt lat="36.4428520" lon="-6.0786030">
        <ele>44.0</ele>
        <time>2023-01-28T09:22:03Z</time>
      </trkpt>
      <trkpt lat="36.4428610" lon="-6.0785940">
        <ele>44.0</ele>
        <time>2023-01-28T09:22:04Z</time>
      </trkpt>
      <trkpt lat="36.4428800" lon="-6.0785950">
        <ele>43.8</ele>
        <time>2023-01-28T09:22:05Z</time>
      </trkpt>
      <trkpt lat="36.4429020" lon="-6.0785960">
        <ele>43.8</ele>
        <time>2023-01-28T09:22:06Z</time>
      </trkpt>
      <trkpt lat="36.4429200" lon="-6.0785920">
        <ele>44.0</ele>
        <time>2023-01-28T09:22:07Z</time>
      </trkpt>
      <trkpt lat="36.4429300" lon="-6.0785950">
        <ele>44.0</ele>
        <time>2023-01-28T09:22:08Z</time>
      </trkpt>
      <trkpt lat="36.4429440" lon="-6.0785910">
        <ele>44.0</ele>
        <time>2023-01-28T09:22:09Z</time>
      </trkpt>
      <trkpt lat="36.4429590" lon="-6.0785960">
        <ele>43.8</ele>
        <time>2023-01-28T09:22:10Z</time>
      </trkpt>
      <trkpt lat="36.4429720" lon="-6.0785910">
        <ele>44.0</ele>
        <time>2023-01-28T09:22:11Z</time>
      </trkpt>
      <trkpt lat="36.4429830" lon="-6.0786060">
        <ele>44.0</ele>
        <time>2023-01-28T09:22:12Z</time>
      </trkpt>
      <trkpt lat="36.4429910" lon="-6.0786230">
        <ele>44.2</ele>
        <time>2023-01-28T09:22:13Z</time>
      </trkpt>
      <trkpt lat="36.4430000" lon="-6.0786230">
        <ele>44.4</ele>
        <time>2023-01-28T09:22:14Z</time>
      </trkpt>
      <trkpt lat="36.4430140" lon="-6.0786170">
        <ele>44.4</ele>
        <time>2023-01-28T09:22:15Z</time>
      </trkpt>
      <trkpt lat="36.4430240" lon="-6.0786300">
        <ele>44.4</ele>
        <time>2023-01-28T09:22:16Z</time>
      </trkpt>
      <trkpt lat="36.4430350" lon="-6.0786420">
        <ele>44.4</ele>
        <time>2023-01-28T09:22:17Z</time>
      </trkpt>
      <trkpt lat="36.4430290" lon="-6.0786550">
        <ele>44.4</ele>
        <time>2023-01-28T09:22:18Z</time>
      </trkpt>
      <trkpt lat="36.4430170" lon="-6.0786740">
        <ele>44.6</ele>
        <time>2023-01-28T09:22:19Z</time>
      </trkpt>
      <trkpt lat="36.4430080" lon="-6.0786860">
        <ele>44.6</ele>
        <time>2023-01-28T09:22:20Z</time>
      </trkpt>
      <trkpt lat="36.4429970" lon="-6.0786900">
        <ele>44.2</ele>
        <time>2023-01-28T09:22:21Z</time>
      </trkpt>
      <trkpt lat="36.4429750" lon="-6.0787150">
        <ele>44.2</ele>
        <time>2023-01-28T09:22:22Z</time>
      </trkpt>
      <trkpt lat="36.4429630" lon="-6.0787180">
        <ele>44.4</ele>
        <time>2023-01-28T09:22:23Z</time>
      </trkpt>
      <trkpt lat="36.4429470" lon="-6.0787270">
        <ele>44.6</ele>
        <time>2023-01-28T09:22:24Z</time>
      </trkpt>
      <trkpt lat="36.4429290" lon="-6.0787260">
        <ele>44.6</ele>
        <time>2023-01-28T09:22:25Z</time>
      </trkpt>
      <trkpt lat="36.4429160" lon="-6.0787520">
        <ele>44.4</ele>
        <time>2023-01-28T09:22:26Z</time>
      </trkpt>
      <trkpt lat="36.4429040" lon="-6.0787570">
        <ele>44.4</ele>
        <time>2023-01-28T09:22:27Z</time>
      </trkpt>
      <trkpt lat="36.4428800" lon="-6.0787680">
        <ele>44.4</ele>
        <time>2023-01-28T09:22:28Z</time>
      </trkpt>
      <trkpt lat="36.4428730" lon="-6.0787860">
        <ele>44.4</ele>
        <time>2023-01-28T09:22:29Z</time>
      </trkpt>
      <trkpt lat="36.4428650" lon="-6.0787950">
        <ele>44.4</ele>
        <time>2023-01-28T09:22:30Z</time>
      </trkpt>
      <trkpt lat="36.4428610" lon="-6.0787950">
        <ele>44.6</ele>
        <time>2023-01-28T09:22:31Z</time>
      </trkpt>
      <trkpt lat="36.4428530" lon="-6.0788000">
        <ele>44.6</ele>
        <time>2023-01-28T09:22:32Z</time>
      </trkpt>
      <trkpt lat="36.4428470" lon="-6.0787940">
        <ele>44.8</ele>
        <time>2023-01-28T09:22:33Z</time>
      </trkpt>
      <trkpt lat="36.4428520" lon="-6.0787820">
        <ele>44.8</ele>
        <time>2023-01-28T09:22:34Z</time>
      </trkpt>
      <trkpt lat="36.4428470" lon="-6.0787780">
        <ele>44.8</ele>
        <time>2023-01-28T09:22:35Z</time>
      </trkpt>
      <trkpt lat="36.4428610" lon="-6.0787860">
        <ele>44.8</ele>
        <time>2023-01-28T09:22:36Z</time>
      </trkpt>
      <trkpt lat="36.4428530" lon="-6.0787830">
        <ele>44.8</ele>
        <time>2023-01-28T09:22:37Z</time>
      </trkpt>
      <trkpt lat="36.4428510" lon="-6.0787730">
        <ele>44.8</ele>
        <time>2023-01-28T09:22:38Z</time>
      </trkpt>
      <trkpt lat="36.4428510" lon="-6.0787680">
        <ele>44.8</ele>
        <time>2023-01-28T09:22:40Z</time>
      </trkpt>
      <trkpt lat="36.4428560" lon="-6.0787790">
        <ele>44.6</ele>
        <time>2023-01-28T09:22:41Z</time>
      </trkpt>
      <trkpt lat="36.4428700" lon="-6.0787890">
        <ele>44.4</ele>
        <time>2023-01-28T09:22:42Z</time>
      </trkpt>
      <trkpt lat="36.4428680" lon="-6.0787980">
        <ele>44.4</ele>
        <time>2023-01-28T09:22:43Z</time>
      </trkpt>
      <trkpt lat="36.4428600" lon="-6.0788040">
        <ele>44.4</ele>
        <time>2023-01-28T09:22:44Z</time>
      </trkpt>
      <trkpt lat="36.4428540" lon="-6.0787880">
        <ele>44.6</ele>
        <time>2023-01-28T09:22:45Z</time>
      </trkpt>
      <trkpt lat="36.4428410" lon="-6.0787670">
        <ele>44.6</ele>
        <time>2023-01-28T09:22:46Z</time>
      </trkpt>
      <trkpt lat="36.4428430" lon="-6.0787520">
        <ele>44.6</ele>
        <time>2023-01-28T09:22:47Z</time>
      </trkpt>
      <trkpt lat="36.4428430" lon="-6.0787480">
        <ele>44.8</ele>
        <time>2023-01-28T09:22:48Z</time>
      </trkpt>
      <trkpt lat="36.4428820" lon="-6.0787760">
        <ele>44.0</ele>
        <time>2023-01-28T09:29:35Z</time>
      </trkpt>
      <trkpt lat="36.4428830" lon="-6.0787790">
        <ele>43.8</ele>
        <time>2023-01-28T09:29:36Z</time>
      </trkpt>
      <trkpt lat="36.4428880" lon="-6.0787800">
        <ele>44.0</ele>
        <time>2023-01-28T09:29:37Z</time>
      </trkpt>
      <trkpt lat="36.4428920" lon="-6.0787820">
        <ele>44.2</ele>
        <time>2023-01-28T09:29:38Z</time>
      </trkpt>
      <trkpt lat="36.4428970" lon="-6.0787820">
        <ele>44.6</ele>
        <time>2023-01-28T09:29:39Z</time>
      </trkpt>
      <trkpt lat="36.4428970" lon="-6.0787830">
        <ele>44.2</ele>
        <time>2023-01-28T09:29:40Z</time>
      </trkpt>
      <trkpt lat="36.4429020" lon="-6.0787810">
        <ele>44.2</ele>
        <time>2023-01-28T09:29:41Z</time>
      </trkpt>
      <trkpt lat="36.4428980" lon="-6.0787730">
        <ele>44.2</ele>
        <time>2023-01-28T09:29:42Z</time>
      </trkpt>
      <trkpt lat="36.4429190" lon="-6.0787670">
        <ele>44.2</ele>
        <time>2023-01-28T09:29:43Z</time>
      </trkpt>
      <trkpt lat="36.4429200" lon="-6.0787630">
        <ele>44.0</ele>
        <time>2023-01-28T09:29:44Z</time>
      </trkpt>
      <trkpt lat="36.4429440" lon="-6.0787460">
        <ele>44.0</ele>
        <time>2023-01-28T09:29:45Z</time>
      </trkpt>
      <trkpt lat="36.4429560" lon="-6.0787290">
        <ele>44.2</ele>
        <time>2023-01-28T09:29:46Z</time>
      </trkpt>
      <trkpt lat="36.4429650" lon="-6.0787280">
        <ele>44.2</ele>
        <time>2023-01-28T09:29:47Z</time>
      </trkpt>
      <trkpt lat="36.4429680" lon="-6.0787320">
        <ele>44.0</ele>
        <time>2023-01-28T09:29:48Z</time>
      </trkpt>
      <trkpt lat="36.4429520" lon="-6.0787560">
        <ele>44.2</ele>
        <time>2023-01-28T09:29:54Z</time>
      </trkpt>
      <trkpt lat="36.4429510" lon="-6.0787600">
        <ele>44.2</ele>
        <time>2023-01-28T09:29:55Z</time>
      </trkpt>
      <trkpt lat="36.4429500" lon="-6.0787620">
        <ele>44.2</ele>
        <time>2023-01-28T09:29:56Z</time>
      </trkpt>
      <trkpt lat="36.4429470" lon="-6.0787620">
        <ele>44.2</ele>
        <time>2023-01-28T09:29:57Z</time>
      </trkpt>
      <trkpt lat="36.4429450" lon="-6.0787600">
        <ele>44.4</ele>
        <time>2023-01-28T09:29:58Z</time>
      </trkpt>
      <trkpt lat="36.4429430" lon="-6.0787600">
        <ele>44.4</ele>
        <time>2023-01-28T09:29:59Z</time>
      </trkpt>
      <trkpt lat="36.4429440" lon="-6.0787600">
        <ele>44.4</ele>
        <time>2023-01-28T09:30:00Z</time>
      </trkpt>
      <trkpt lat="36.4429450" lon="-6.0787570">
        <ele>44.2</ele>
        <time>2023-01-28T09:30:01Z</time>
      </trkpt>
      <trkpt lat="36.4429490" lon="-6.0787540">
        <ele>44.2</ele>
        <time>2023-01-28T09:30:02Z</time>
      </trkpt>
      <trkpt lat="36.4429520" lon="-6.0787500">
        <ele>44.0</ele>
        <time>2023-01-28T09:30:03Z</time>
      </trkpt>
      <trkpt lat="36.4429550" lon="-6.0787460">
        <ele>44.0</ele>
        <time>2023-01-28T09:30:04Z</time>
      </trkpt>
      <trkpt lat="36.4429580" lon="-6.0787420">
        <ele>43.8</ele>
        <time>2023-01-28T09:30:05Z</time>
      </trkpt>
      <trkpt lat="36.4429600" lon="-6.0787340">
        <ele>43.8</ele>
        <time>2023-01-28T09:30:06Z</time>
      </trkpt>
      <trkpt lat="36.4429640" lon="-6.0787280">
        <ele>43.8</ele>
        <time>2023-01-28T09:30:07Z</time>
      </trkpt>
      <trkpt lat="36.4429680" lon="-6.0787230">
        <ele>43.8</ele>
        <time>2023-01-28T09:30:08Z</time>
      </trkpt>
      <trkpt lat="36.4429710" lon="-6.0787180">
        <ele>43.6</ele>
        <time>2023-01-28T09:30:09Z</time>
      </trkpt>
      <trkpt lat="36.4429730" lon="-6.0787120">
        <ele>43.6</ele>
        <time>2023-01-28T09:30:10Z</time>
      </trkpt>
      <trkpt lat="36.4429770" lon="-6.0787070">
        <ele>43.4</ele>
        <time>2023-01-28T09:30:11Z</time>
      </trkpt>
      <trkpt lat="36.4429800" lon="-6.0787030">
        <ele>44.0</ele>
        <time>2023-01-28T09:30:12Z</time>
      </trkpt>
      <trkpt lat="36.4429830" lon="-6.0786980">
        <ele>44.8</ele>
        <time>2023-01-28T09:30:13Z</time>
      </trkpt>
      <trkpt lat="36.4429870" lon="-6.0786930">
        <ele>44.2</ele>
        <time>2023-01-28T09:30:14Z</time>
      </trkpt>
      <trkpt lat="36.4429890" lon="-6.0786880">
        <ele>43.8</ele>
        <time>2023-01-28T09:30:15Z</time>
      </trkpt>
      <trkpt lat="36.4429900" lon="-6.0786820">
        <ele>43.8</ele>
        <time>2023-01-28T09:30:16Z</time>
      </trkpt>
      <trkpt lat="36.4429920" lon="-6.0786780">
        <ele>44.2</ele>
        <time>2023-01-28T09:30:17Z</time>
      </trkpt>
      <trkpt lat="36.4429940" lon="-6.0786750">
        <ele>44.2</ele>
        <time>2023-01-28T09:30:18Z</time>
      </trkpt>
      <trkpt lat="36.4429960" lon="-6.0786740">
        <ele>43.6</ele>
        <time>2023-01-28T09:30:19Z</time>
      </trkpt>
      <trkpt lat="36.4429960" lon="-6.0786740">
        <ele>43.6</ele>
        <time>2023-01-28T09:30:20Z</time>
      </trkpt>
      <trkpt lat="36.4429950" lon="-6.0786740">
        <ele>43.8</ele>
        <time>2023-01-28T09:30:21Z</time>
      </trkpt>
      <trkpt lat="36.4429940" lon="-6.0786740">
        <ele>43.8</ele>
        <time>2023-01-28T09:30:22Z</time>
      </trkpt>
      <trkpt lat="36.4429910" lon="-6.0786730">
        <ele>44.0</ele>
        <time>2023-01-28T09:30:23Z</time>
      </trkpt>
      <trkpt lat="36.4429910" lon="-6.0786720">
        <ele>43.8</ele>
        <time>2023-01-28T09:30:24Z</time>
      </trkpt>
      <trkpt lat="36.4429910" lon="-6.0786720">
        <ele>43.6</ele>
        <time>2023-01-28T09:30:25Z</time>
      </trkpt>
      <trkpt lat="36.4429920" lon="-6.0786720">
        <ele>43.6</ele>
        <time>2023-01-28T09:30:26Z</time>
      </trkpt>
      <trkpt lat="36.4429930" lon="-6.0786720">
        <ele>43.8</ele>
        <time>2023-01-28T09:30:27Z</time>
      </trkpt>
      <trkpt lat="36.4429930" lon="-6.0786700">
        <ele>43.8</ele>
        <time>2023-01-28T09:30:28Z</time>
      </trkpt>
      <trkpt lat="36.4429940" lon="-6.0786700">
        <ele>44.0</ele>
        <time>2023-01-28T09:30:29Z</time>
      </trkpt>
      <trkpt lat="36.4429960" lon="-6.0786680">
        <ele>43.8</ele>
        <time>2023-01-28T09:30:30Z</time>
      </trkpt>
      <trkpt lat="36.4429980" lon="-6.0786650">
        <ele>44.0</ele>
        <time>2023-01-28T09:30:31Z</time>
      </trkpt>
      <trkpt lat="36.4429990" lon="-6.0786610">
        <ele>43.8</ele>
        <time>2023-01-28T09:30:32Z</time>
      </trkpt>
      <trkpt lat="36.4430160" lon="-6.0786540">
        <ele>43.8</ele>
        <time>2023-01-28T09:30:35Z</time>
      </trkpt>
      <trkpt lat="36.4430130" lon="-6.0786480">
        <ele>44.0</ele>
        <time>2023-01-28T09:30:36Z</time>
      </trkpt>
      <trkpt lat="36.4430050" lon="-6.0786470">
        <ele>44.0</ele>
        <time>2023-01-28T09:30:37Z</time>
      </trkpt>
      <trkpt lat="36.4430050" lon="-6.0786510">
        <ele>44.0</ele>
        <time>2023-01-28T09:30:38Z</time>
      </trkpt>
      <trkpt lat="36.4429920" lon="-6.0786470">
        <ele>43.8</ele>
        <time>2023-01-28T09:30:39Z</time>
      </trkpt>
      <trkpt lat="36.4429920" lon="-6.0786460">
        <ele>43.8</ele>
        <time>2023-01-28T09:30:40Z</time>
      </trkpt>
      <trkpt lat="36.4429820" lon="-6.0786430">
        <ele>44.2</ele>
        <time>2023-01-28T09:30:41Z</time>
      </trkpt>
      <trkpt lat="36.4429710" lon="-6.0786400">
        <ele>44.8</ele>
        <time>2023-01-28T09:30:42Z</time>
      </trkpt>
      <trkpt lat="36.4429690" lon="-6.0786340">
        <ele>44.6</ele>
        <time>2023-01-28T09:30:43Z</time>
      </trkpt>
      <trkpt lat="36.4429620" lon="-6.0786190">
        <ele>44.6</ele>
        <time>2023-01-28T09:30:44Z</time>
      </trkpt>
      <trkpt lat="36.4429610" lon="-6.0786180">
        <ele>44.6</ele>
        <time>2023-01-28T09:30:45Z</time>
      </trkpt>
      <trkpt lat="36.4429600" lon="-6.0786100">
        <ele>44.2</ele>
        <time>2023-01-28T09:30:46Z</time>
      </trkpt>
      <trkpt lat="36.4429590" lon="-6.0786110">
        <ele>44.0</ele>
        <time>2023-01-28T09:30:47Z</time>
      </trkpt>
      <trkpt lat="36.4429630" lon="-6.0786080">
        <ele>44.0</ele>
        <time>2023-01-28T09:30:48Z</time>
      </trkpt>
      <trkpt lat="36.4429580" lon="-6.0786020">
        <ele>44.0</ele>
        <time>2023-01-28T09:30:49Z</time>
      </trkpt>
      <trkpt lat="36.4429580" lon="-6.0786100">
        <ele>43.6</ele>
        <time>2023-01-28T09:30:50Z</time>
      </trkpt>
      <trkpt lat="36.4429510" lon="-6.0786020">
        <ele>43.6</ele>
        <time>2023-01-28T09:30:51Z</time>
      </trkpt>
      <trkpt lat="36.4429360" lon="-6.0785920">
        <ele>43.6</ele>
        <time>2023-01-28T09:31:10Z</time>
      </trkpt>
      <trkpt lat="36.4429430" lon="-6.0786150">
        <ele>43.6</ele>
        <time>2023-01-28T09:31:11Z</time>
      </trkpt>
      <trkpt lat="36.4429460" lon="-6.0786220">
        <ele>43.6</ele>
        <time>2023-01-28T09:31:12Z</time>
      </trkpt>
      <trkpt lat="36.4429400" lon="-6.0786200">
        <ele>43.6</ele>
        <time>2023-01-28T09:31:13Z</time>
      </trkpt>
      <trkpt lat="36.4429460" lon="-6.0786140">
        <ele>43.6</ele>
        <time>2023-01-28T09:31:14Z</time>
      </trkpt>
      <trkpt lat="36.4429570" lon="-6.0786150">
        <ele>43.6</ele>
        <time>2023-01-28T09:31:15Z</time>
      </trkpt>
      <trkpt lat="36.4429680" lon="-6.0786230">
        <ele>43.6</ele>
        <time>2023-01-28T09:31:16Z</time>
      </trkpt>
      <trkpt lat="36.4429720" lon="-6.0786240">
        <ele>43.6</ele>
        <time>2023-01-28T09:31:17Z</time>
      </trkpt>
      <trkpt lat="36.4429680" lon="-6.0786200">
        <ele>43.6</ele>
        <time>2023-01-28T09:31:18Z</time>
      </trkpt>
      <trkpt lat="36.4429800" lon="-6.0786310">
        <ele>43.6</ele>
        <time>2023-01-28T09:31:19Z</time>
      </trkpt>
      <trkpt lat="36.4429790" lon="-6.0786370">
        <ele>43.4</ele>
        <time>2023-01-28T09:31:20Z</time>
      </trkpt>
      <trkpt lat="36.4429520" lon="-6.0786340">
        <ele>43.4</ele>
        <time>2023-01-28T09:31:22Z</time>
      </trkpt>
      <trkpt lat="36.4429300" lon="-6.0786140">
        <ele>43.2</ele>
        <time>2023-01-28T09:31:23Z</time>
      </trkpt>
      <trkpt lat="36.4429180" lon="-6.0786110">
        <ele>43.2</ele>
        <time>2023-01-28T09:31:24Z</time>
      </trkpt>
      <trkpt lat="36.4429130" lon="-6.0786050">
        <ele>43.0</ele>
        <time>2023-01-28T09:31:25Z</time>
      </trkpt>
      <trkpt lat="36.4428880" lon="-6.0785970">
        <ele>43.0</ele>
        <time>2023-01-28T09:31:26Z</time>
      </trkpt>
      <trkpt lat="36.4428670" lon="-6.0785880">
        <ele>42.8</ele>
        <time>2023-01-28T09:31:27Z</time>
      </trkpt>
      <trkpt lat="36.4428330" lon="-6.0785720">
        <ele>42.8</ele>
        <time>2023-01-28T09:31:28Z</time>
      </trkpt>
      <trkpt lat="36.4428100" lon="-6.0785650">
        <ele>42.6</ele>
        <time>2023-01-28T09:31:29Z</time>
      </trkpt>
      <trkpt lat="36.4427870" lon="-6.0785500">
        <ele>42.6</ele>
        <time>2023-01-28T09:31:30Z</time>
      </trkpt>
      <trkpt lat="36.4427580" lon="-6.0785490">
        <ele>42.6</ele>
        <time>2023-01-28T09:31:31Z</time>
      </trkpt>
      <trkpt lat="36.4427260" lon="-6.0785390">
        <ele>42.6</ele>
        <time>2023-01-28T09:31:32Z</time>
      </trkpt>
      <trkpt lat="36.4426980" lon="-6.0785330">
        <ele>42.4</ele>
        <time>2023-01-28T09:31:33Z</time>
      </trkpt>
      <trkpt lat="36.4426590" lon="-6.0785200">
        <ele>42.4</ele>
        <time>2023-01-28T09:31:34Z</time>
      </trkpt>
      <trkpt lat="36.4426260" lon="-6.0785170">
        <ele>42.4</ele>
        <time>2023-01-28T09:31:35Z</time>
      </trkpt>
      <trkpt lat="36.4426040" lon="-6.0785210">
        <ele>42.4</ele>
        <time>2023-01-28T09:31:36Z</time>
      </trkpt>
      <trkpt lat="36.4425810" lon="-6.0785250">
        <ele>42.6</ele>
        <time>2023-01-28T09:31:37Z</time>
      </trkpt>
      <trkpt lat="36.4425700" lon="-6.0785220">
        <ele>43.0</ele>
        <time>2023-01-28T09:31:38Z</time>
      </trkpt>
      <trkpt lat="36.4425460" lon="-6.0785250">
        <ele>43.0</ele>
        <time>2023-01-28T09:31:39Z</time>
      </trkpt>
      <trkpt lat="36.4425270" lon="-6.0785170">
        <ele>43.0</ele>
        <time>2023-01-28T09:31:40Z</time>
      </trkpt>
      <trkpt lat="36.4424930" lon="-6.0784940">
        <ele>42.8</ele>
        <time>2023-01-28T09:31:41Z</time>
      </trkpt>
      <trkpt lat="36.4424640" lon="-6.0784830">
        <ele>42.8</ele>
        <time>2023-01-28T09:31:42Z</time>
      </trkpt>
      <trkpt lat="36.4424470" lon="-6.0784810">
        <ele>42.6</ele>
        <time>2023-01-28T09:31:43Z</time>
      </trkpt>
      <trkpt lat="36.4424210" lon="-6.0784730">
        <ele>42.6</ele>
        <time>2023-01-28T09:31:44Z</time>
      </trkpt>
      <trkpt lat="36.4424090" lon="-6.0784700">
        <ele>42.8</ele>
        <time>2023-01-28T09:31:45Z</time>
      </trkpt>
      <trkpt lat="36.4423960" lon="-6.0784750">
        <ele>42.6</ele>
        <time>2023-01-28T09:31:46Z</time>
      </trkpt>
      <trkpt lat="36.4423820" lon="-6.0784710">
        <ele>42.6</ele>
        <time>2023-01-28T09:31:47Z</time>
      </trkpt>
      <trkpt lat="36.4423630" lon="-6.0784580">
        <ele>42.6</ele>
        <time>2023-01-28T09:31:48Z</time>
      </trkpt>
      <trkpt lat="36.4423330" lon="-6.0784390">
        <ele>42.6</ele>
        <time>2023-01-28T09:31:49Z</time>
      </trkpt>
      <trkpt lat="36.4422900" lon="-6.0784280">
        <ele>42.6</ele>
        <time>2023-01-28T09:31:50Z</time>
      </trkpt>
      <trkpt lat="36.4422760" lon="-6.0784270">
        <ele>42.6</ele>
        <time>2023-01-28T09:31:51Z</time>
      </trkpt>
      <trkpt lat="36.4422650" lon="-6.0784380">
        <ele>42.4</ele>
        <time>2023-01-28T09:31:52Z</time>
      </trkpt>
      <trkpt lat="36.4422480" lon="-6.0784390">
        <ele>42.6</ele>
        <time>2023-01-28T09:31:53Z</time>
      </trkpt>
      <trkpt lat="36.4422300" lon="-6.0784330">
        <ele>42.6</ele>
        <time>2023-01-28T09:31:54Z</time>
      </trkpt>
      <trkpt lat="36.4422160" lon="-6.0784300">
        <ele>42.8</ele>
        <time>2023-01-28T09:31:55Z</time>
      </trkpt>
      <trkpt lat="36.4421970" lon="-6.0784180">
        <ele>42.8</ele>
        <time>2023-01-28T09:31:56Z</time>
      </trkpt>
      <trkpt lat="36.4421700" lon="-6.0784130">
        <ele>42.8</ele>
        <time>2023-01-28T09:31:57Z</time>
      </trkpt>
      <trkpt lat="36.4421530" lon="-6.0784140">
        <ele>42.8</ele>
        <time>2023-01-28T09:31:58Z</time>
      </trkpt>
      <trkpt lat="36.4421270" lon="-6.0784120">
        <ele>42.6</ele>
        <time>2023-01-28T09:31:59Z</time>
      </trkpt>
      <trkpt lat="36.4421080" lon="-6.0784100">
        <ele>42.6</ele>
        <time>2023-01-28T09:32:00Z</time>
      </trkpt>
      <trkpt lat="36.4420900" lon="-6.0784000">
        <ele>42.4</ele>
        <time>2023-01-28T09:32:01Z</time>
      </trkpt>
      <trkpt lat="36.4420660" lon="-6.0783970">
        <ele>42.4</ele>
        <time>2023-01-28T09:32:02Z</time>
      </trkpt>
      <trkpt lat="36.4420360" lon="-6.0783940">
        <ele>42.4</ele>
        <time>2023-01-28T09:32:03Z</time>
      </trkpt>
      <trkpt lat="36.4420110" lon="-6.0783970">
        <ele>42.2</ele>
        <time>2023-01-28T09:32:04Z</time>
      </trkpt>
      <trkpt lat="36.4419760" lon="-6.0783910">
        <ele>42.2</ele>
        <time>2023-01-28T09:32:05Z</time>
      </trkpt>
      <trkpt lat="36.4419440" lon="-6.0783770">
        <ele>42.4</ele>
        <time>2023-01-28T09:32:06Z</time>
      </trkpt>
      <trkpt lat="36.4419100" lon="-6.0783690">
        <ele>42.4</ele>
        <time>2023-01-28T09:32:07Z</time>
      </trkpt>
      <trkpt lat="36.4418710" lon="-6.0783520">
        <ele>42.6</ele>
        <time>2023-01-28T09:32:08Z</time>
      </trkpt>
      <trkpt lat="36.4418390" lon="-6.0783390">
        <ele>42.8</ele>
        <time>2023-01-28T09:32:09Z</time>
      </trkpt>
      <trkpt lat="36.4418040" lon="-6.0783280">
        <ele>42.6</ele>
        <time>2023-01-28T09:32:10Z</time>
      </trkpt>
      <trkpt lat="36.4417760" lon="-6.0783220">
        <ele>42.6</ele>
        <time>2023-01-28T09:32:11Z</time>
      </trkpt>
      <trkpt lat="36.4417510" lon="-6.0783390">
        <ele>42.6</ele>
        <time>2023-01-28T09:32:12Z</time>
      </trkpt>
      <trkpt lat="36.4417130" lon="-6.0783220">
        <ele>42.6</ele>
        <time>2023-01-28T09:32:13Z</time>
      </trkpt>
      <trkpt lat="36.4416810" lon="-6.0783230">
        <ele>42.4</ele>
        <time>2023-01-28T09:32:14Z</time>
      </trkpt>
      <trkpt lat="36.4416510" lon="-6.0783090">
        <ele>42.4</ele>
        <time>2023-01-28T09:32:15Z</time>
      </trkpt>
      <trkpt lat="36.4416110" lon="-6.0782910">
        <ele>42.4</ele>
        <time>2023-01-28T09:32:16Z</time>
      </trkpt>
      <trkpt lat="36.4415910" lon="-6.0782800">
        <ele>42.4</ele>
        <time>2023-01-28T09:32:17Z</time>
      </trkpt>
      <trkpt lat="36.4415670" lon="-6.0782810">
        <ele>42.2</ele>
        <time>2023-01-28T09:32:18Z</time>
      </trkpt>
      <trkpt lat="36.4415200" lon="-6.0782670">
        <ele>42.2</ele>
        <time>2023-01-28T09:32:19Z</time>
      </trkpt>
      <trkpt lat="36.4414840" lon="-6.0782620">
        <ele>42.2</ele>
        <time>2023-01-28T09:32:20Z</time>
      </trkpt>
      <trkpt lat="36.4414530" lon="-6.0782460">
        <ele>42.2</ele>
        <time>2023-01-28T09:32:21Z</time>
      </trkpt>
      <trkpt lat="36.4414220" lon="-6.0782330">
        <ele>42.2</ele>
        <time>2023-01-28T09:32:22Z</time>
      </trkpt>
      <trkpt lat="36.4413840" lon="-6.0782190">
        <ele>42.2</ele>
        <time>2023-01-28T09:32:23Z</time>
      </trkpt>
      <trkpt lat="36.4413490" lon="-6.0782050">
        <ele>42.4</ele>
        <time>2023-01-28T09:32:24Z</time>
      </trkpt>
      <trkpt lat="36.4413170" lon="-6.0781990">
        <ele>42.4</ele>
        <time>2023-01-28T09:32:25Z</time>
      </trkpt>
      <trkpt lat="36.4412790" lon="-6.0781730">
        <ele>42.6</ele>
        <time>2023-01-28T09:32:26Z</time>
      </trkpt>
      <trkpt lat="36.4412460" lon="-6.0781590">
        <ele>42.4</ele>
        <time>2023-01-28T09:32:27Z</time>
      </trkpt>
      <trkpt lat="36.4411960" lon="-6.0781420">
        <ele>42.4</ele>
        <time>2023-01-28T09:32:28Z</time>
      </trkpt>
      <trkpt lat="36.4411590" lon="-6.0781380">
        <ele>42.2</ele>
        <time>2023-01-28T09:32:29Z</time>
      </trkpt>
      <trkpt lat="36.4411210" lon="-6.0781510">
        <ele>42.0</ele>
        <time>2023-01-28T09:32:30Z</time>
      </trkpt>
      <trkpt lat="36.4410760" lon="-6.0781450">
        <ele>42.2</ele>
        <time>2023-01-28T09:32:31Z</time>
      </trkpt>
      <trkpt lat="36.4410410" lon="-6.0781480">
        <ele>42.2</ele>
        <time>2023-01-28T09:32:32Z</time>
      </trkpt>
      <trkpt lat="36.4410060" lon="-6.0781470">
        <ele>42.2</ele>
        <time>2023-01-28T09:32:33Z</time>
      </trkpt>
      <trkpt lat="36.4409690" lon="-6.0781400">
        <ele>42.4</ele>
        <time>2023-01-28T09:32:34Z</time>
      </trkpt>
      <trkpt lat="36.4409230" lon="-6.0781250">
        <ele>42.4</ele>
        <time>2023-01-28T09:32:35Z</time>
      </trkpt>
      <trkpt lat="36.4408790" lon="-6.0781210">
        <ele>42.0</ele>
        <time>2023-01-28T09:32:36Z</time>
      </trkpt>
      <trkpt lat="36.4408330" lon="-6.0780980">
        <ele>41.6</ele>
        <time>2023-01-28T09:32:37Z</time>
      </trkpt>
      <trkpt lat="36.4407920" lon="-6.0780830">
        <ele>41.6</ele>
        <time>2023-01-28T09:32:38Z</time>
      </trkpt>
      <trkpt lat="36.4407540" lon="-6.0780630">
        <ele>41.6</ele>
        <time>2023-01-28T09:32:39Z</time>
      </trkpt>
      <trkpt lat="36.4407090" lon="-6.0780480">
        <ele>41.6</ele>
        <time>2023-01-28T09:32:40Z</time>
      </trkpt>
      <trkpt lat="36.4406670" lon="-6.0780260">
        <ele>41.6</ele>
        <time>2023-01-28T09:32:41Z</time>
      </trkpt>
      <trkpt lat="36.4406280" lon="-6.0780040">
        <ele>41.4</ele>
        <time>2023-01-28T09:32:42Z</time>
      </trkpt>
      <trkpt lat="36.4405930" lon="-6.0779960">
        <ele>41.6</ele>
        <time>2023-01-28T09:32:43Z</time>
      </trkpt>
      <trkpt lat="36.4405580" lon="-6.0779830">
        <ele>41.6</ele>
        <time>2023-01-28T09:32:44Z</time>
      </trkpt>
      <trkpt lat="36.4405200" lon="-6.0779700">
        <ele>41.6</ele>
        <time>2023-01-28T09:32:45Z</time>
      </trkpt>
      <trkpt lat="36.4404820" lon="-6.0779440">
        <ele>41.6</ele>
        <time>2023-01-28T09:32:46Z</time>
      </trkpt>
      <trkpt lat="36.4404400" lon="-6.0779210">
        <ele>41.4</ele>
        <time>2023-01-28T09:32:47Z</time>
      </trkpt>
      <trkpt lat="36.4403980" lon="-6.0778990">
        <ele>41.4</ele>
        <time>2023-01-28T09:32:48Z</time>
      </trkpt>
      <trkpt lat="36.4403620" lon="-6.0778840">
        <ele>41.4</ele>
        <time>2023-01-28T09:32:49Z</time>
      </trkpt>
      <trkpt lat="36.4403140" lon="-6.0778690">
        <ele>41.4</ele>
        <time>2023-01-28T09:32:50Z</time>
      </trkpt>
      <trkpt lat="36.4402690" lon="-6.0778590">
        <ele>41.4</ele>
        <time>2023-01-28T09:32:51Z</time>
      </trkpt>
      <trkpt lat="36.4402290" lon="-6.0778590">
        <ele>41.4</ele>
        <time>2023-01-28T09:32:52Z</time>
      </trkpt>
      <trkpt lat="36.4401840" lon="-6.0778500">
        <ele>41.2</ele>
        <time>2023-01-28T09:32:53Z</time>
      </trkpt>
      <trkpt lat="36.4401360" lon="-6.0778310">
        <ele>41.2</ele>
        <time>2023-01-28T09:32:54Z</time>
      </trkpt>
      <trkpt lat="36.4400940" lon="-6.0778230">
        <ele>41.4</ele>
        <time>2023-01-28T09:32:55Z</time>
      </trkpt>
      <trkpt lat="36.4400530" lon="-6.0778190">
        <ele>41.6</ele>
        <time>2023-01-28T09:32:56Z</time>
      </trkpt>
      <trkpt lat="36.4400070" lon="-6.0778140">
        <ele>41.8</ele>
        <time>2023-01-28T09:32:57Z</time>
      </trkpt>
      <trkpt lat="36.4399710" lon="-6.0778120">
        <ele>42.0</ele>
        <time>2023-01-28T09:32:58Z</time>
      </trkpt>
      <trkpt lat="36.4399320" lon="-6.0778080">
        <ele>42.0</ele>
        <time>2023-01-28T09:32:59Z</time>
      </trkpt>
      <trkpt lat="36.4398930" lon="-6.0778060">
        <ele>42.0</ele>
        <time>2023-01-28T09:33:00Z</time>
      </trkpt>
      <trkpt lat="36.4398460" lon="-6.0778010">
        <ele>41.8</ele>
        <time>2023-01-28T09:33:01Z</time>
      </trkpt>
      <trkpt lat="36.4398030" lon="-6.0778000">
        <ele>41.8</ele>
        <time>2023-01-28T09:33:02Z</time>
      </trkpt>
      <trkpt lat="36.4397560" lon="-6.0777920">
        <ele>41.6</ele>
        <time>2023-01-28T09:33:03Z</time>
      </trkpt>
      <trkpt lat="36.4397040" lon="-6.0777790">
        <ele>41.2</ele>
        <time>2023-01-28T09:33:04Z</time>
      </trkpt>
      <trkpt lat="36.4396560" lon="-6.0777570">
        <ele>40.8</ele>
        <time>2023-01-28T09:33:05Z</time>
      </trkpt>
      <trkpt lat="36.4396040" lon="-6.0777210">
        <ele>40.8</ele>
        <time>2023-01-28T09:33:06Z</time>
      </trkpt>
      <trkpt lat="36.4395590" lon="-6.0776950">
        <ele>40.8</ele>
        <time>2023-01-28T09:33:07Z</time>
      </trkpt>
      <trkpt lat="36.4395140" lon="-6.0776640">
        <ele>40.8</ele>
        <time>2023-01-28T09:33:08Z</time>
      </trkpt>
      <trkpt lat="36.4394810" lon="-6.0776420">
        <ele>41.0</ele>
        <time>2023-01-28T09:33:09Z</time>
      </trkpt>
      <trkpt lat="36.4394410" lon="-6.0776140">
        <ele>41.2</ele>
        <time>2023-01-28T09:33:10Z</time>
      </trkpt>
      <trkpt lat="36.4393980" lon="-6.0775870">
        <ele>41.2</ele>
        <time>2023-01-28T09:33:11Z</time>
      </trkpt>
      <trkpt lat="36.4393510" lon="-6.0775580">
        <ele>41.0</ele>
        <time>2023-01-28T09:33:12Z</time>
      </trkpt>
      <trkpt lat="36.4393050" lon="-6.0775430">
        <ele>41.0</ele>
        <time>2023-01-28T09:33:13Z</time>
      </trkpt>
      <trkpt lat="36.4392590" lon="-6.0775280">
        <ele>40.6</ele>
        <time>2023-01-28T09:33:14Z</time>
      </trkpt>
      <trkpt lat="36.4392090" lon="-6.0775130">
        <ele>40.4</ele>
        <time>2023-01-28T09:33:15Z</time>
      </trkpt>
      <trkpt lat="36.4391590" lon="-6.0774940">
        <ele>40.2</ele>
        <time>2023-01-28T09:33:16Z</time>
      </trkpt>
      <trkpt lat="36.4391040" lon="-6.0774830">
        <ele>40.2</ele>
        <time>2023-01-28T09:33:17Z</time>
      </trkpt>
      <trkpt lat="36.4390560" lon="-6.0774730">
        <ele>40.2</ele>
        <time>2023-01-28T09:33:18Z</time>
      </trkpt>
      <trkpt lat="36.4390100" lon="-6.0774640">
        <ele>40.4</ele>
        <time>2023-01-28T09:33:19Z</time>
      </trkpt>
      <trkpt lat="36.4389660" lon="-6.0774590">
        <ele>40.4</ele>
        <time>2023-01-28T09:33:20Z</time>
      </trkpt>
      <trkpt lat="36.4389210" lon="-6.0774640">
        <ele>40.2</ele>
        <time>2023-01-28T09:33:21Z</time>
      </trkpt>
      <trkpt lat="36.4388730" lon="-6.0774570">
        <ele>40.4</ele>
        <time>2023-01-28T09:33:22Z</time>
      </trkpt>
      <trkpt lat="36.4388260" lon="-6.0774530">
        <ele>40.4</ele>
        <time>2023-01-28T09:33:23Z</time>
      </trkpt>
      <trkpt lat="36.4387780" lon="-6.0774490">
        <ele>40.4</ele>
        <time>2023-01-28T09:33:24Z</time>
      </trkpt>
      <trkpt lat="36.4387330" lon="-6.0774440">
        <ele>40.4</ele>
        <time>2023-01-28T09:33:25Z</time>
      </trkpt>
      <trkpt lat="36.4386840" lon="-6.0774360">
        <ele>40.2</ele>
        <time>2023-01-28T09:33:26Z</time>
      </trkpt>
      <trkpt lat="36.4386350" lon="-6.0774330">
        <ele>40.2</ele>
        <time>2023-01-28T09:33:27Z</time>
      </trkpt>
      <trkpt lat="36.4385860" lon="-6.0774270">
        <ele>40.4</ele>
        <time>2023-01-28T09:33:28Z</time>
      </trkpt>
      <trkpt lat="36.4385380" lon="-6.0774070">
        <ele>40.4</ele>
        <time>2023-01-28T09:33:29Z</time>
      </trkpt>
      <trkpt lat="36.4384930" lon="-6.0773880">
        <ele>40.2</ele>
        <time>2023-01-28T09:33:30Z</time>
      </trkpt>
      <trkpt lat="36.4384510" lon="-6.0773560">
        <ele>40.4</ele>
        <time>2023-01-28T09:33:31Z</time>
      </trkpt>
      <trkpt lat="36.4384080" lon="-6.0773360">
        <ele>40.4</ele>
        <time>2023-01-28T09:33:32Z</time>
      </trkpt>
      <trkpt lat="36.4383630" lon="-6.0773070">
        <ele>40.6</ele>
        <time>2023-01-28T09:33:33Z</time>
      </trkpt>
      <trkpt lat="36.4383220" lon="-6.0772730">
        <ele>40.6</ele>
        <time>2023-01-28T09:33:34Z</time>
      </trkpt>
      <trkpt lat="36.4382820" lon="-6.0772380">
        <ele>40.6</ele>
        <time>2023-01-28T09:33:35Z</time>
      </trkpt>
      <trkpt lat="36.4382410" lon="-6.0771980">
        <ele>40.6</ele>
        <time>2023-01-28T09:33:36Z</time>
      </trkpt>
      <trkpt lat="36.4382000" lon="-6.0771680">
        <ele>40.2</ele>
        <time>2023-01-28T09:33:37Z</time>
      </trkpt>
      <trkpt lat="36.4381530" lon="-6.0771240">
        <ele>39.6</ele>
        <time>2023-01-28T09:33:38Z</time>
      </trkpt>
      <trkpt lat="36.4381040" lon="-6.0770750">
        <ele>39.2</ele>
        <time>2023-01-28T09:33:39Z</time>
      </trkpt>
      <trkpt lat="36.4380600" lon="-6.0770370">
        <ele>39.6</ele>
        <time>2023-01-28T09:33:40Z</time>
      </trkpt>
      <trkpt lat="36.4380120" lon="-6.0770090">
        <ele>39.6</ele>
        <time>2023-01-28T09:33:41Z</time>
      </trkpt>
      <trkpt lat="36.4379630" lon="-6.0769780">
        <ele>39.4</ele>
        <time>2023-01-28T09:33:42Z</time>
      </trkpt>
      <trkpt lat="36.4379160" lon="-6.0769480">
        <ele>39.0</ele>
        <time>2023-01-28T09:33:43Z</time>
      </trkpt>
      <trkpt lat="36.4378580" lon="-6.0769210">
        <ele>38.8</ele>
        <time>2023-01-28T09:33:44Z</time>
      </trkpt>
      <trkpt lat="36.4378070" lon="-6.0768900">
        <ele>39.2</ele>
        <time>2023-01-28T09:33:45Z</time>
      </trkpt>
      <trkpt lat="36.4377600" lon="-6.0768590">
        <ele>38.8</ele>
        <time>2023-01-28T09:33:46Z</time>
      </trkpt>
      <trkpt lat="36.4377110" lon="-6.0768310">
        <ele>38.4</ele>
        <time>2023-01-28T09:33:47Z</time>
      </trkpt>
      <trkpt lat="36.4376610" lon="-6.0767970">
        <ele>38.4</ele>
        <time>2023-01-28T09:33:48Z</time>
      </trkpt>
      <trkpt lat="36.4376180" lon="-6.0767630">
        <ele>38.4</ele>
        <time>2023-01-28T09:33:49Z</time>
      </trkpt>
      <trkpt lat="36.4375680" lon="-6.0767270">
        <ele>37.8</ele>
        <time>2023-01-28T09:33:50Z</time>
      </trkpt>
      <trkpt lat="36.4375180" lon="-6.0766810">
        <ele>37.4</ele>
        <time>2023-01-28T09:33:51Z</time>
      </trkpt>
      <trkpt lat="36.4374670" lon="-6.0766360">
        <ele>37.4</ele>
        <time>2023-01-28T09:33:52Z</time>
      </trkpt>
      <trkpt lat="36.4374140" lon="-6.0765900">
        <ele>36.8</ele>
        <time>2023-01-28T09:33:53Z</time>
      </trkpt>
      <trkpt lat="36.4373490" lon="-6.0765300">
        <ele>36.0</ele>
        <time>2023-01-28T09:33:54Z</time>
      </trkpt>
      <trkpt lat="36.4372880" lon="-6.0764700">
        <ele>35.2</ele>
        <time>2023-01-28T09:33:55Z</time>
      </trkpt>
      <trkpt lat="36.4372300" lon="-6.0764040">
        <ele>35.0</ele>
        <time>2023-01-28T09:33:56Z</time>
      </trkpt>
      <trkpt lat="36.4371780" lon="-6.0763320">
        <ele>34.6</ele>
        <time>2023-01-28T09:33:57Z</time>
      </trkpt>
      <trkpt lat="36.4371270" lon="-6.0762600">
        <ele>34.8</ele>
        <time>2023-01-28T09:33:58Z</time>
      </trkpt>
      <trkpt lat="36.4370760" lon="-6.0761870">
        <ele>34.6</ele>
        <time>2023-01-28T09:33:59Z</time>
      </trkpt>
      <trkpt lat="36.4370350" lon="-6.0761150">
        <ele>34.2</ele>
        <time>2023-01-28T09:34:00Z</time>
      </trkpt>
      <trkpt lat="36.4369990" lon="-6.0760370">
        <ele>34.2</ele>
        <time>2023-01-28T09:34:01Z</time>
      </trkpt>
      <trkpt lat="36.4369540" lon="-6.0759580">
        <ele>33.6</ele>
        <time>2023-01-28T09:34:02Z</time>
      </trkpt>
      <trkpt lat="36.4369130" lon="-6.0758840">
        <ele>33.2</ele>
        <time>2023-01-28T09:34:03Z</time>
      </trkpt>
      <trkpt lat="36.4368740" lon="-6.0758190">
        <ele>32.8</ele>
        <time>2023-01-28T09:34:04Z</time>
      </trkpt>
      <trkpt lat="36.4368320" lon="-6.0757440">
        <ele>33.0</ele>
        <time>2023-01-28T09:34:05Z</time>
      </trkpt>
      <trkpt lat="36.4367980" lon="-6.0756740">
        <ele>33.0</ele>
        <time>2023-01-28T09:34:06Z</time>
      </trkpt>
      <trkpt lat="36.4367620" lon="-6.0756050">
        <ele>32.4</ele>
        <time>2023-01-28T09:34:07Z</time>
      </trkpt>
      <trkpt lat="36.4367320" lon="-6.0755400">
        <ele>31.6</ele>
        <time>2023-01-28T09:34:08Z</time>
      </trkpt>
      <trkpt lat="36.4367000" lon="-6.0754740">
        <ele>31.0</ele>
        <time>2023-01-28T09:34:09Z</time>
      </trkpt>
      <trkpt lat="36.4366670" lon="-6.0754090">
        <ele>30.4</ele>
        <time>2023-01-28T09:34:10Z</time>
      </trkpt>
      <trkpt lat="36.4366350" lon="-6.0753570">
        <ele>29.8</ele>
        <time>2023-01-28T09:34:11Z</time>
      </trkpt>
      <trkpt lat="36.4365910" lon="-6.0753050">
        <ele>29.6</ele>
        <time>2023-01-28T09:34:12Z</time>
      </trkpt>
      <trkpt lat="36.4365470" lon="-6.0752670">
        <ele>29.4</ele>
        <time>2023-01-28T09:34:13Z</time>
      </trkpt>
      <trkpt lat="36.4365010" lon="-6.0752340">
        <ele>29.4</ele>
        <time>2023-01-28T09:34:14Z</time>
      </trkpt>
      <trkpt lat="36.4364440" lon="-6.0752050">
        <ele>29.0</ele>
        <time>2023-01-28T09:34:15Z</time>
      </trkpt>
      <trkpt lat="36.4363870" lon="-6.0751740">
        <ele>28.6</ele>
        <time>2023-01-28T09:34:16Z</time>
      </trkpt>
      <trkpt lat="36.4363260" lon="-6.0751510">
        <ele>28.2</ele>
        <time>2023-01-28T09:34:17Z</time>
      </trkpt>
      <trkpt lat="36.4362580" lon="-6.0751360">
        <ele>28.0</ele>
        <time>2023-01-28T09:34:18Z</time>
      </trkpt>
      <trkpt lat="36.4361920" lon="-6.0751140">
        <ele>27.8</ele>
        <time>2023-01-28T09:34:19Z</time>
      </trkpt>
      <trkpt lat="36.4361240" lon="-6.0750890">
        <ele>27.6</ele>
        <time>2023-01-28T09:34:20Z</time>
      </trkpt>
      <trkpt lat="36.4360580" lon="-6.0750670">
        <ele>27.6</ele>
        <time>2023-01-28T09:34:21Z</time>
      </trkpt>
      <trkpt lat="36.4359830" lon="-6.0750400">
        <ele>27.2</ele>
        <time>2023-01-28T09:34:22Z</time>
      </trkpt>
      <trkpt lat="36.4359100" lon="-6.0750180">
        <ele>27.0</ele>
        <time>2023-01-28T09:34:23Z</time>
      </trkpt>
      <trkpt lat="36.4358370" lon="-6.0749890">
        <ele>26.8</ele>
        <time>2023-01-28T09:34:24Z</time>
      </trkpt>
      <trkpt lat="36.4357670" lon="-6.0749750">
        <ele>26.8</ele>
        <time>2023-01-28T09:34:25Z</time>
      </trkpt>
      <trkpt lat="36.4356990" lon="-6.0749560">
        <ele>26.6</ele>
        <time>2023-01-28T09:34:26Z</time>
      </trkpt>
      <trkpt lat="36.4356200" lon="-6.0749360">
        <ele>26.4</ele>
        <time>2023-01-28T09:34:27Z</time>
      </trkpt>
      <trkpt lat="36.4355430" lon="-6.0749130">
        <ele>26.2</ele>
        <time>2023-01-28T09:34:28Z</time>
      </trkpt>
      <trkpt lat="36.4354720" lon="-6.0749000">
        <ele>26.0</ele>
        <time>2023-01-28T09:34:29Z</time>
      </trkpt>
      <trkpt lat="36.4353970" lon="-6.0748860">
        <ele>25.8</ele>
        <time>2023-01-28T09:34:30Z</time>
      </trkpt>
      <trkpt lat="36.4353230" lon="-6.0748730">
        <ele>25.6</ele>
        <time>2023-01-28T09:34:31Z</time>
      </trkpt>
      <trkpt lat="36.4352440" lon="-6.0748530">
        <ele>25.4</ele>
        <time>2023-01-28T09:34:32Z</time>
      </trkpt>
      <trkpt lat="36.4351740" lon="-6.0748300">
        <ele>25.2</ele>
        <time>2023-01-28T09:34:33Z</time>
      </trkpt>
      <trkpt lat="36.4351060" lon="-6.0748150">
        <ele>25.0</ele>
        <time>2023-01-28T09:34:34Z</time>
      </trkpt>
      <trkpt lat="36.4350300" lon="-6.0747880">
        <ele>24.8</ele>
        <time>2023-01-28T09:34:35Z</time>
      </trkpt>
      <trkpt lat="36.4349590" lon="-6.0747600">
        <ele>24.8</ele>
        <time>2023-01-28T09:34:36Z</time>
      </trkpt>
      <trkpt lat="36.4348930" lon="-6.0747370">
        <ele>24.8</ele>
        <time>2023-01-28T09:34:37Z</time>
      </trkpt>
      <trkpt lat="36.4348260" lon="-6.0747130">
        <ele>24.6</ele>
        <time>2023-01-28T09:34:38Z</time>
      </trkpt>
      <trkpt lat="36.4347580" lon="-6.0746900">
        <ele>24.4</ele>
        <time>2023-01-28T09:34:39Z</time>
      </trkpt>
      <trkpt lat="36.4346930" lon="-6.0746840">
        <ele>24.2</ele>
        <time>2023-01-28T09:34:40Z</time>
      </trkpt>
      <trkpt lat="36.4346170" lon="-6.0746680">
        <ele>24.2</ele>
        <time>2023-01-28T09:34:41Z</time>
      </trkpt>
      <trkpt lat="36.4345520" lon="-6.0746430">
        <ele>24.2</ele>
        <time>2023-01-28T09:34:42Z</time>
      </trkpt>
      <trkpt lat="36.4344810" lon="-6.0746230">
        <ele>24.2</ele>
        <time>2023-01-28T09:34:43Z</time>
      </trkpt>
      <trkpt lat="36.4344100" lon="-6.0746000">
        <ele>23.8</ele>
        <time>2023-01-28T09:34:44Z</time>
      </trkpt>
      <trkpt lat="36.4343390" lon="-6.0745750">
        <ele>23.6</ele>
        <time>2023-01-28T09:34:45Z</time>
      </trkpt>
      <trkpt lat="36.4342640" lon="-6.0745550">
        <ele>23.8</ele>
        <time>2023-01-28T09:34:46Z</time>
      </trkpt>
      <trkpt lat="36.4341900" lon="-6.0745320">
        <ele>23.6</ele>
        <time>2023-01-28T09:34:47Z</time>
      </trkpt>
      <trkpt lat="36.4341170" lon="-6.0745190">
        <ele>23.4</ele>
        <time>2023-01-28T09:34:48Z</time>
      </trkpt>
      <trkpt lat="36.4340490" lon="-6.0745080">
        <ele>23.4</ele>
        <time>2023-01-28T09:34:49Z</time>
      </trkpt>
      <trkpt lat="36.4339770" lon="-6.0745000">
        <ele>23.4</ele>
        <time>2023-01-28T09:34:50Z</time>
      </trkpt>
      <trkpt lat="36.4339060" lon="-6.0744950">
        <ele>23.2</ele>
        <time>2023-01-28T09:34:51Z</time>
      </trkpt>
      <trkpt lat="36.4338380" lon="-6.0744910">
        <ele>23.0</ele>
        <time>2023-01-28T09:34:52Z</time>
      </trkpt>
      <trkpt lat="36.4337690" lon="-6.0744900">
        <ele>23.0</ele>
        <time>2023-01-28T09:34:53Z</time>
      </trkpt>
      <trkpt lat="36.4336970" lon="-6.0744830">
        <ele>23.0</ele>
        <time>2023-01-28T09:34:54Z</time>
      </trkpt>
      <trkpt lat="36.4336280" lon="-6.0744800">
        <ele>22.8</ele>
        <time>2023-01-28T09:34:55Z</time>
      </trkpt>
      <trkpt lat="36.4335610" lon="-6.0744760">
        <ele>22.6</ele>
        <time>2023-01-28T09:34:56Z</time>
      </trkpt>
      <trkpt lat="36.4334870" lon="-6.0744650">
        <ele>22.6</ele>
        <time>2023-01-28T09:34:57Z</time>
      </trkpt>
      <trkpt lat="36.4334180" lon="-6.0744630">
        <ele>22.4</ele>
        <time>2023-01-28T09:34:58Z</time>
      </trkpt>
      <trkpt lat="36.4333450" lon="-6.0744520">
        <ele>22.2</ele>
        <time>2023-01-28T09:34:59Z</time>
      </trkpt>
      <trkpt lat="36.4332760" lon="-6.0744560">
        <ele>22.0</ele>
        <time>2023-01-28T09:35:00Z</time>
      </trkpt>
      <trkpt lat="36.4332080" lon="-6.0744500">
        <ele>22.0</ele>
        <time>2023-01-28T09:35:01Z</time>
      </trkpt>
      <trkpt lat="36.4331380" lon="-6.0744400">
        <ele>22.0</ele>
        <time>2023-01-28T09:35:02Z</time>
      </trkpt>
      <trkpt lat="36.4330630" lon="-6.0744320">
        <ele>22.0</ele>
        <time>2023-01-28T09:35:03Z</time>
      </trkpt>
      <trkpt lat="36.4329900" lon="-6.0744280">
        <ele>21.8</ele>
        <time>2023-01-28T09:35:04Z</time>
      </trkpt>
      <trkpt lat="36.4329200" lon="-6.0744300">
        <ele>21.8</ele>
        <time>2023-01-28T09:35:05Z</time>
      </trkpt>
      <trkpt lat="36.4328470" lon="-6.0744280">
        <ele>21.6</ele>
        <time>2023-01-28T09:35:06Z</time>
      </trkpt>
      <trkpt lat="36.4327740" lon="-6.0744220">
        <ele>21.6</ele>
        <time>2023-01-28T09:35:07Z</time>
      </trkpt>
      <trkpt lat="36.4327040" lon="-6.0744200">
        <ele>21.4</ele>
        <time>2023-01-28T09:35:08Z</time>
      </trkpt>
      <trkpt lat="36.4326390" lon="-6.0744110">
        <ele>21.4</ele>
        <time>2023-01-28T09:35:09Z</time>
      </trkpt>
      <trkpt lat="36.4325710" lon="-6.0744040">
        <ele>21.2</ele>
        <time>2023-01-28T09:35:10Z</time>
      </trkpt>
      <trkpt lat="36.4324990" lon="-6.0743920">
        <ele>21.2</ele>
        <time>2023-01-28T09:35:11Z</time>
      </trkpt>
      <trkpt lat="36.4324270" lon="-6.0743880">
        <ele>21.2</ele>
        <time>2023-01-28T09:35:12Z</time>
      </trkpt>
      <trkpt lat="36.4323570" lon="-6.0743850">
        <ele>21.0</ele>
        <time>2023-01-28T09:35:13Z</time>
      </trkpt>
      <trkpt lat="36.4322890" lon="-6.0743740">
        <ele>20.8</ele>
        <time>2023-01-28T09:35:14Z</time>
      </trkpt>
      <trkpt lat="36.4322160" lon="-6.0743750">
        <ele>20.6</ele>
        <time>2023-01-28T09:35:15Z</time>
      </trkpt>
      <trkpt lat="36.4321530" lon="-6.0743770">
        <ele>20.4</ele>
        <time>2023-01-28T09:35:16Z</time>
      </trkpt>
      <trkpt lat="36.4320830" lon="-6.0743750">
        <ele>20.2</ele>
        <time>2023-01-28T09:35:17Z</time>
      </trkpt>
      <trkpt lat="36.4320110" lon="-6.0743690">
        <ele>20.2</ele>
        <time>2023-01-28T09:35:18Z</time>
      </trkpt>
      <trkpt lat="36.4319320" lon="-6.0743580">
        <ele>20.2</ele>
        <time>2023-01-28T09:35:19Z</time>
      </trkpt>
      <trkpt lat="36.4318600" lon="-6.0743510">
        <ele>20.0</ele>
        <time>2023-01-28T09:35:20Z</time>
      </trkpt>
      <trkpt lat="36.4317860" lon="-6.0743400">
        <ele>20.0</ele>
        <time>2023-01-28T09:35:21Z</time>
      </trkpt>
      <trkpt lat="36.4317140" lon="-6.0743340">
        <ele>20.0</ele>
        <time>2023-01-28T09:35:22Z</time>
      </trkpt>
      <trkpt lat="36.4316500" lon="-6.0743310">
        <ele>19.8</ele>
        <time>2023-01-28T09:35:23Z</time>
      </trkpt>
      <trkpt lat="36.4315830" lon="-6.0743250">
        <ele>19.6</ele>
        <time>2023-01-28T09:35:24Z</time>
      </trkpt>
      <trkpt lat="36.4315180" lon="-6.0743190">
        <ele>19.6</ele>
        <time>2023-01-28T09:35:25Z</time>
      </trkpt>
      <trkpt lat="36.4314520" lon="-6.0743120">
        <ele>19.6</ele>
        <time>2023-01-28T09:35:26Z</time>
      </trkpt>
      <trkpt lat="36.4313820" lon="-6.0743120">
        <ele>19.8</ele>
        <time>2023-01-28T09:35:27Z</time>
      </trkpt>
      <trkpt lat="36.4313160" lon="-6.0743060">
        <ele>19.6</ele>
        <time>2023-01-28T09:35:28Z</time>
      </trkpt>
      <trkpt lat="36.4312540" lon="-6.0743090">
        <ele>19.6</ele>
        <time>2023-01-28T09:35:29Z</time>
      </trkpt>
      <trkpt lat="36.4311900" lon="-6.0743110">
        <ele>19.6</ele>
        <time>2023-01-28T09:35:30Z</time>
      </trkpt>
      <trkpt lat="36.4311280" lon="-6.0743140">
        <ele>19.4</ele>
        <time>2023-01-28T09:35:31Z</time>
      </trkpt>
      <trkpt lat="36.4310620" lon="-6.0743100">
        <ele>19.2</ele>
        <time>2023-01-28T09:35:32Z</time>
      </trkpt>
      <trkpt lat="36.4309940" lon="-6.0743030">
        <ele>19.2</ele>
        <time>2023-01-28T09:35:33Z</time>
      </trkpt>
      <trkpt lat="36.4309210" lon="-6.0742970">
        <ele>19.0</ele>
        <time>2023-01-28T09:35:34Z</time>
      </trkpt>
      <trkpt lat="36.4308490" lon="-6.0742950">
        <ele>19.0</ele>
        <time>2023-01-28T09:35:35Z</time>
      </trkpt>
      <trkpt lat="36.4307810" lon="-6.0742920">
        <ele>19.0</ele>
        <time>2023-01-28T09:35:36Z</time>
      </trkpt>
      <trkpt lat="36.4307110" lon="-6.0742840">
        <ele>18.8</ele>
        <time>2023-01-28T09:35:37Z</time>
      </trkpt>
      <trkpt lat="36.4306460" lon="-6.0742820">
        <ele>18.8</ele>
        <time>2023-01-28T09:35:38Z</time>
      </trkpt>
      <trkpt lat="36.4305810" lon="-6.0742790">
        <ele>18.6</ele>
        <time>2023-01-28T09:35:39Z</time>
      </trkpt>
      <trkpt lat="36.4305140" lon="-6.0742730">
        <ele>18.4</ele>
        <time>2023-01-28T09:35:40Z</time>
      </trkpt>
      <trkpt lat="36.4304420" lon="-6.0742560">
        <ele>18.8</ele>
        <time>2023-01-28T09:35:41Z</time>
      </trkpt>
      <trkpt lat="36.4303720" lon="-6.0742350">
        <ele>18.8</ele>
        <time>2023-01-28T09:35:42Z</time>
      </trkpt>
      <trkpt lat="36.4303040" lon="-6.0742140">
        <ele>18.6</ele>
        <time>2023-01-28T09:35:43Z</time>
      </trkpt>
      <trkpt lat="36.4302400" lon="-6.0741960">
        <ele>18.6</ele>
        <time>2023-01-28T09:35:44Z</time>
      </trkpt>
      <trkpt lat="36.4301740" lon="-6.0741720">
        <ele>18.6</ele>
        <time>2023-01-28T09:35:45Z</time>
      </trkpt>
      <trkpt lat="36.4301140" lon="-6.0741520">
        <ele>18.6</ele>
        <time>2023-01-28T09:35:46Z</time>
      </trkpt>
      <trkpt lat="36.4300560" lon="-6.0741370">
        <ele>18.6</ele>
        <time>2023-01-28T09:35:47Z</time>
      </trkpt>
      <trkpt lat="36.4299990" lon="-6.0741240">
        <ele>19.0</ele>
        <time>2023-01-28T09:35:48Z</time>
      </trkpt>
      <trkpt lat="36.4299430" lon="-6.0741050">
        <ele>19.4</ele>
        <time>2023-01-28T09:35:49Z</time>
      </trkpt>
      <trkpt lat="36.4298870" lon="-6.0740900">
        <ele>19.6</ele>
        <time>2023-01-28T09:35:50Z</time>
      </trkpt>
      <trkpt lat="36.4298370" lon="-6.0740830">
        <ele>20.0</ele>
        <time>2023-01-28T09:35:51Z</time>
      </trkpt>
      <trkpt lat="36.4297900" lon="-6.0740730">
        <ele>20.0</ele>
        <time>2023-01-28T09:35:52Z</time>
      </trkpt>
      <trkpt lat="36.4297450" lon="-6.0740730">
        <ele>20.2</ele>
        <time>2023-01-28T09:35:53Z</time>
      </trkpt>
      <trkpt lat="36.4296900" lon="-6.0740660">
        <ele>20.2</ele>
        <time>2023-01-28T09:35:54Z</time>
      </trkpt>
      <trkpt lat="36.4296400" lon="-6.0740670">
        <ele>20.0</ele>
        <time>2023-01-28T09:35:55Z</time>
      </trkpt>
      <trkpt lat="36.4295820" lon="-6.0740710">
        <ele>19.8</ele>
        <time>2023-01-28T09:35:56Z</time>
      </trkpt>
      <trkpt lat="36.4295230" lon="-6.0740810">
        <ele>19.4</ele>
        <time>2023-01-28T09:35:57Z</time>
      </trkpt>
      <trkpt lat="36.4294630" lon="-6.0740850">
        <ele>19.2</ele>
        <time>2023-01-28T09:35:58Z</time>
      </trkpt>
      <trkpt lat="36.4293980" lon="-6.0740830">
        <ele>19.0</ele>
        <time>2023-01-28T09:35:59Z</time>
      </trkpt>
      <trkpt lat="36.4293370" lon="-6.0740920">
        <ele>18.6</ele>
        <time>2023-01-28T09:36:00Z</time>
      </trkpt>
      <trkpt lat="36.4292680" lon="-6.0741010">
        <ele>18.4</ele>
        <time>2023-01-28T09:36:01Z</time>
      </trkpt>
      <trkpt lat="36.4292010" lon="-6.0740920">
        <ele>18.2</ele>
        <time>2023-01-28T09:36:02Z</time>
      </trkpt>
      <trkpt lat="36.4291350" lon="-6.0740880">
        <ele>18.0</ele>
        <time>2023-01-28T09:36:03Z</time>
      </trkpt>
      <trkpt lat="36.4290700" lon="-6.0740830">
        <ele>18.2</ele>
        <time>2023-01-28T09:36:04Z</time>
      </trkpt>
      <trkpt lat="36.4290040" lon="-6.0740760">
        <ele>17.8</ele>
        <time>2023-01-28T09:36:05Z</time>
      </trkpt>
      <trkpt lat="36.4289380" lon="-6.0740680">
        <ele>17.8</ele>
        <time>2023-01-28T09:36:06Z</time>
      </trkpt>
      <trkpt lat="36.4288720" lon="-6.0740670">
        <ele>17.6</ele>
        <time>2023-01-28T09:36:07Z</time>
      </trkpt>
      <trkpt lat="36.4288030" lon="-6.0740550">
        <ele>17.4</ele>
        <time>2023-01-28T09:36:08Z</time>
      </trkpt>
      <trkpt lat="36.4287370" lon="-6.0740380">
        <ele>17.4</ele>
        <time>2023-01-28T09:36:09Z</time>
      </trkpt>
      <trkpt lat="36.4286710" lon="-6.0740200">
        <ele>17.2</ele>
        <time>2023-01-28T09:36:10Z</time>
      </trkpt>
      <trkpt lat="36.4286050" lon="-6.0740090">
        <ele>17.0</ele>
        <time>2023-01-28T09:36:11Z</time>
      </trkpt>
      <trkpt lat="36.4285420" lon="-6.0740020">
        <ele>17.0</ele>
        <time>2023-01-28T09:36:12Z</time>
      </trkpt>
      <trkpt lat="36.4284750" lon="-6.0739900">
        <ele>17.0</ele>
        <time>2023-01-28T09:36:13Z</time>
      </trkpt>
      <trkpt lat="36.4284100" lon="-6.0739850">
        <ele>16.8</ele>
        <time>2023-01-28T09:36:14Z</time>
      </trkpt>
      <trkpt lat="36.4283400" lon="-6.0739700">
        <ele>16.8</ele>
        <time>2023-01-28T09:36:15Z</time>
      </trkpt>
      <trkpt lat="36.4282770" lon="-6.0739730">
        <ele>16.8</ele>
        <time>2023-01-28T09:36:16Z</time>
      </trkpt>
      <trkpt lat="36.4282140" lon="-6.0739700">
        <ele>16.6</ele>
        <time>2023-01-28T09:36:17Z</time>
      </trkpt>
      <trkpt lat="36.4281490" lon="-6.0739700">
        <ele>16.6</ele>
        <time>2023-01-28T09:36:18Z</time>
      </trkpt>
      <trkpt lat="36.4280850" lon="-6.0739580">
        <ele>16.2</ele>
        <time>2023-01-28T09:36:19Z</time>
      </trkpt>
      <trkpt lat="36.4280160" lon="-6.0739500">
        <ele>16.2</ele>
        <time>2023-01-28T09:36:20Z</time>
      </trkpt>
      <trkpt lat="36.4279490" lon="-6.0739390">
        <ele>16.2</ele>
        <time>2023-01-28T09:36:21Z</time>
      </trkpt>
      <trkpt lat="36.4278790" lon="-6.0739200">
        <ele>16.0</ele>
        <time>2023-01-28T09:36:22Z</time>
      </trkpt>
      <trkpt lat="36.4278160" lon="-6.0739000">
        <ele>15.8</ele>
        <time>2023-01-28T09:36:23Z</time>
      </trkpt>
      <trkpt lat="36.4277510" lon="-6.0738830">
        <ele>15.6</ele>
        <time>2023-01-28T09:36:24Z</time>
      </trkpt>
      <trkpt lat="36.4276880" lon="-6.0738690">
        <ele>15.4</ele>
        <time>2023-01-28T09:36:25Z</time>
      </trkpt>
      <trkpt lat="36.4276250" lon="-6.0738530">
        <ele>15.2</ele>
        <time>2023-01-28T09:36:26Z</time>
      </trkpt>
      <trkpt lat="36.4275580" lon="-6.0738330">
        <ele>15.2</ele>
        <time>2023-01-28T09:36:27Z</time>
      </trkpt>
      <trkpt lat="36.4274910" lon="-6.0738210">
        <ele>15.2</ele>
        <time>2023-01-28T09:36:28Z</time>
      </trkpt>
      <trkpt lat="36.4274230" lon="-6.0737990">
        <ele>15.2</ele>
        <time>2023-01-28T09:36:29Z</time>
      </trkpt>
      <trkpt lat="36.4273570" lon="-6.0737860">
        <ele>15.0</ele>
        <time>2023-01-28T09:36:30Z</time>
      </trkpt>
      <trkpt lat="36.4272880" lon="-6.0737650">
        <ele>14.6</ele>
        <time>2023-01-28T09:36:31Z</time>
      </trkpt>
      <trkpt lat="36.4272210" lon="-6.0737550">
        <ele>14.4</ele>
        <time>2023-01-28T09:36:32Z</time>
      </trkpt>
      <trkpt lat="36.4271540" lon="-6.0737430">
        <ele>14.0</ele>
        <time>2023-01-28T09:36:33Z</time>
      </trkpt>
      <trkpt lat="36.4270840" lon="-6.0737410">
        <ele>13.8</ele>
        <time>2023-01-28T09:36:34Z</time>
      </trkpt>
      <trkpt lat="36.4270210" lon="-6.0737380">
        <ele>13.8</ele>
        <time>2023-01-28T09:36:35Z</time>
      </trkpt>
      <trkpt lat="36.4269570" lon="-6.0737300">
        <ele>13.4</ele>
        <time>2023-01-28T09:36:36Z</time>
      </trkpt>
      <trkpt lat="36.4268910" lon="-6.0737280">
        <ele>13.2</ele>
        <time>2023-01-28T09:36:37Z</time>
      </trkpt>
      <trkpt lat="36.4268210" lon="-6.0737160">
        <ele>13.2</ele>
        <time>2023-01-28T09:36:38Z</time>
      </trkpt>
      <trkpt lat="36.4267540" lon="-6.0736980">
        <ele>13.2</ele>
        <time>2023-01-28T09:36:39Z</time>
      </trkpt>
      <trkpt lat="36.4266900" lon="-6.0736820">
        <ele>13.0</ele>
        <time>2023-01-28T09:36:40Z</time>
      </trkpt>
      <trkpt lat="36.4266300" lon="-6.0736670">
        <ele>13.0</ele>
        <time>2023-01-28T09:36:41Z</time>
      </trkpt>
      <trkpt lat="36.4265640" lon="-6.0736640">
        <ele>12.4</ele>
        <time>2023-01-28T09:36:42Z</time>
      </trkpt>
      <trkpt lat="36.4264940" lon="-6.0736520">
        <ele>12.2</ele>
        <time>2023-01-28T09:36:43Z</time>
      </trkpt>
      <trkpt lat="36.4264200" lon="-6.0736360">
        <ele>12.0</ele>
        <time>2023-01-28T09:36:44Z</time>
      </trkpt>
      <trkpt lat="36.4263410" lon="-6.0736370">
        <ele>11.4</ele>
        <time>2023-01-28T09:36:45Z</time>
      </trkpt>
      <trkpt lat="36.4262570" lon="-6.0736290">
        <ele>10.6</ele>
        <time>2023-01-28T09:36:46Z</time>
      </trkpt>
      <trkpt lat="36.4261730" lon="-6.0736230">
        <ele>10.4</ele>
        <time>2023-01-28T09:36:47Z</time>
      </trkpt>
      <trkpt lat="36.4260850" lon="-6.0736230">
        <ele>10.4</ele>
        <time>2023-01-28T09:36:48Z</time>
      </trkpt>
      <trkpt lat="36.4260040" lon="-6.0736270">
        <ele>10.2</ele>
        <time>2023-01-28T09:36:49Z</time>
      </trkpt>
      <trkpt lat="36.4259230" lon="-6.0736190">
        <ele>10.0</ele>
        <time>2023-01-28T09:36:50Z</time>
      </trkpt>
      <trkpt lat="36.4258420" lon="-6.0736090">
        <ele>10.0</ele>
        <time>2023-01-28T09:36:51Z</time>
      </trkpt>
      <trkpt lat="36.4257620" lon="-6.0735960">
        <ele>9.8</ele>
        <time>2023-01-28T09:36:52Z</time>
      </trkpt>
      <trkpt lat="36.4256780" lon="-6.0735870">
        <ele>9.8</ele>
        <time>2023-01-28T09:36:53Z</time>
      </trkpt>
      <trkpt lat="36.4255930" lon="-6.0735710">
        <ele>10.0</ele>
        <time>2023-01-28T09:36:54Z</time>
      </trkpt>
      <trkpt lat="36.4255060" lon="-6.0735540">
        <ele>10.0</ele>
        <time>2023-01-28T09:36:55Z</time>
      </trkpt>
      <trkpt lat="36.4254190" lon="-6.0735340">
        <ele>10.2</ele>
        <time>2023-01-28T09:36:56Z</time>
      </trkpt>
      <trkpt lat="36.4253370" lon="-6.0735180">
        <ele>10.4</ele>
        <time>2023-01-28T09:36:57Z</time>
      </trkpt>
      <trkpt lat="36.4252600" lon="-6.0735050">
        <ele>10.4</ele>
        <time>2023-01-28T09:36:58Z</time>
      </trkpt>
      <trkpt lat="36.4251820" lon="-6.0734860">
        <ele>10.6</ele>
        <time>2023-01-28T09:36:59Z</time>
      </trkpt>
      <trkpt lat="36.4250970" lon="-6.0734660">
        <ele>10.6</ele>
        <time>2023-01-28T09:37:00Z</time>
      </trkpt>
      <trkpt lat="36.4250130" lon="-6.0734460">
        <ele>11.0</ele>
        <time>2023-01-28T09:37:01Z</time>
      </trkpt>
      <trkpt lat="36.4249350" lon="-6.0734290">
        <ele>11.0</ele>
        <time>2023-01-28T09:37:02Z</time>
      </trkpt>
      <trkpt lat="36.4248520" lon="-6.0734090">
        <ele>10.8</ele>
        <time>2023-01-28T09:37:03Z</time>
      </trkpt>
      <trkpt lat="36.4247680" lon="-6.0734000">
        <ele>10.6</ele>
        <time>2023-01-28T09:37:04Z</time>
      </trkpt>
      <trkpt lat="36.4246910" lon="-6.0733750">
        <ele>11.4</ele>
        <time>2023-01-28T09:37:05Z</time>
      </trkpt>
      <trkpt lat="36.4246200" lon="-6.0733600">
        <ele>12.2</ele>
        <time>2023-01-28T09:37:06Z</time>
      </trkpt>
      <trkpt lat="36.4245600" lon="-6.0733450">
        <ele>13.0</ele>
        <time>2023-01-28T09:37:07Z</time>
      </trkpt>
      <trkpt lat="36.4245110" lon="-6.0733380">
        <ele>13.6</ele>
        <time>2023-01-28T09:37:08Z</time>
      </trkpt>
      <trkpt lat="36.4244830" lon="-6.0733390">
        <ele>14.2</ele>
        <time>2023-01-28T09:37:09Z</time>
      </trkpt>
      <trkpt lat="36.4244520" lon="-6.0733410">
        <ele>14.6</ele>
        <time>2023-01-28T09:37:10Z</time>
      </trkpt>
      <trkpt lat="36.4244130" lon="-6.0733370">
        <ele>15.4</ele>
        <time>2023-01-28T09:37:11Z</time>
      </trkpt>
      <trkpt lat="36.4243910" lon="-6.0733290">
        <ele>16.0</ele>
        <time>2023-01-28T09:37:12Z</time>
      </trkpt>
      <trkpt lat="36.4243760" lon="-6.0733260">
        <ele>16.4</ele>
        <time>2023-01-28T09:37:13Z</time>
      </trkpt>
      <trkpt lat="36.4243590" lon="-6.0733200">
        <ele>16.8</ele>
        <time>2023-01-28T09:37:14Z</time>
      </trkpt>
      <trkpt lat="36.4243410" lon="-6.0733200">
        <ele>17.2</ele>
        <time>2023-01-28T09:37:15Z</time>
      </trkpt>
      <trkpt lat="36.4243290" lon="-6.0733220">
        <ele>17.6</ele>
        <time>2023-01-28T09:37:16Z</time>
      </trkpt>
      <trkpt lat="36.4243170" lon="-6.0733140">
        <ele>18.0</ele>
        <time>2023-01-28T09:37:17Z</time>
      </trkpt>
      <trkpt lat="36.4243020" lon="-6.0733110">
        <ele>18.2</ele>
        <time>2023-01-28T09:37:18Z</time>
      </trkpt>
      <trkpt lat="36.4242850" lon="-6.0733070">
        <ele>18.4</ele>
        <time>2023-01-28T09:37:19Z</time>
      </trkpt>
      <trkpt lat="36.4242670" lon="-6.0733110">
        <ele>18.6</ele>
        <time>2023-01-28T09:37:20Z</time>
      </trkpt>
      <trkpt lat="36.4242490" lon="-6.0733060">
        <ele>19.0</ele>
        <time>2023-01-28T09:37:21Z</time>
      </trkpt>
      <trkpt lat="36.4242390" lon="-6.0733080">
        <ele>19.2</ele>
        <time>2023-01-28T09:37:22Z</time>
      </trkpt>
      <trkpt lat="36.4242240" lon="-6.0733110">
        <ele>19.2</ele>
        <time>2023-01-28T09:37:23Z</time>
      </trkpt>
      <trkpt lat="36.4242110" lon="-6.0733200">
        <ele>19.4</ele>
        <time>2023-01-28T09:37:24Z</time>
      </trkpt>
      <trkpt lat="36.4241870" lon="-6.0733280">
        <ele>19.6</ele>
        <time>2023-01-28T09:37:25Z</time>
      </trkpt>
      <trkpt lat="36.4241500" lon="-6.0733150">
        <ele>19.8</ele>
        <time>2023-01-28T09:37:26Z</time>
      </trkpt>
      <trkpt lat="36.4241370" lon="-6.0733110">
        <ele>19.8</ele>
        <time>2023-01-28T09:37:27Z</time>
      </trkpt>
      <trkpt lat="36.4241150" lon="-6.0733140">
        <ele>20.0</ele>
        <time>2023-01-28T09:37:28Z</time>
      </trkpt>
      <trkpt lat="36.4240950" lon="-6.0733130">
        <ele>20.0</ele>
        <time>2023-01-28T09:37:29Z</time>
      </trkpt>
      <trkpt lat="36.4240800" lon="-6.0733070">
        <ele>20.2</ele>
        <time>2023-01-28T09:37:30Z</time>
      </trkpt>
      <trkpt lat="36.4240590" lon="-6.0733170">
        <ele>20.2</ele>
        <time>2023-01-28T09:37:31Z</time>
      </trkpt>
      <trkpt lat="36.4240360" lon="-6.0733080">
        <ele>20.2</ele>
        <time>2023-01-28T09:37:32Z</time>
      </trkpt>
      <trkpt lat="36.4240190" lon="-6.0733080">
        <ele>20.2</ele>
        <time>2023-01-28T09:37:33Z</time>
      </trkpt>
      <trkpt lat="36.4239980" lon="-6.0733030">
        <ele>20.2</ele>
        <time>2023-01-28T09:37:34Z</time>
      </trkpt>
      <trkpt lat="36.4239740" lon="-6.0733020">
        <ele>20.2</ele>
        <time>2023-01-28T09:37:35Z</time>
      </trkpt>
      <trkpt lat="36.4239510" lon="-6.0732930">
        <ele>20.0</ele>
        <time>2023-01-28T09:37:36Z</time>
      </trkpt>
      <trkpt lat="36.4239290" lon="-6.0732970">
        <ele>19.8</ele>
        <time>2023-01-28T09:37:37Z</time>
      </trkpt>
      <trkpt lat="36.4239040" lon="-6.0733080">
        <ele>19.8</ele>
        <time>2023-01-28T09:37:38Z</time>
      </trkpt>
      <trkpt lat="36.4238830" lon="-6.0733060">
        <ele>19.8</ele>
        <time>2023-01-28T09:37:39Z</time>
      </trkpt>
      <trkpt lat="36.4238580" lon="-6.0733010">
        <ele>19.6</ele>
        <time>2023-01-28T09:37:40Z</time>
      </trkpt>
      <trkpt lat="36.4238350" lon="-6.0732950">
        <ele>19.6</ele>
        <time>2023-01-28T09:37:41Z</time>
      </trkpt>
      <trkpt lat="36.4238030" lon="-6.0732800">
        <ele>19.4</ele>
        <time>2023-01-28T09:37:42Z</time>
      </trkpt>
      <trkpt lat="36.4237730" lon="-6.0732700">
        <ele>19.2</ele>
        <time>2023-01-28T09:37:43Z</time>
      </trkpt>
      <trkpt lat="36.4237420" lon="-6.0732640">
        <ele>19.0</ele>
        <time>2023-01-28T09:37:44Z</time>
      </trkpt>
      <trkpt lat="36.4236950" lon="-6.0732490">
        <ele>18.6</ele>
        <time>2023-01-28T09:37:45Z</time>
      </trkpt>
      <trkpt lat="36.4236510" lon="-6.0732330">
        <ele>18.4</ele>
        <time>2023-01-28T09:37:46Z</time>
      </trkpt>
      <trkpt lat="36.4236080" lon="-6.0732260">
        <ele>18.0</ele>
        <time>2023-01-28T09:37:47Z</time>
      </trkpt>
      <trkpt lat="36.4235700" lon="-6.0732200">
        <ele>18.2</ele>
        <time>2023-01-28T09:37:48Z</time>
      </trkpt>
      <trkpt lat="36.4235270" lon="-6.0732140">
        <ele>18.4</ele>
        <time>2023-01-28T09:37:49Z</time>
      </trkpt>
      <trkpt lat="36.4234920" lon="-6.0732040">
        <ele>18.4</ele>
        <time>2023-01-28T09:37:50Z</time>
      </trkpt>
      <trkpt lat="36.4234620" lon="-6.0731930">
        <ele>18.4</ele>
        <time>2023-01-28T09:37:51Z</time>
      </trkpt>
      <trkpt lat="36.4234320" lon="-6.0731800">
        <ele>18.2</ele>
        <time>2023-01-28T09:37:52Z</time>
      </trkpt>
      <trkpt lat="36.4233960" lon="-6.0731690">
        <ele>17.8</ele>
        <time>2023-01-28T09:37:53Z</time>
      </trkpt>
      <trkpt lat="36.4233510" lon="-6.0731530">
        <ele>17.2</ele>
        <time>2023-01-28T09:37:54Z</time>
      </trkpt>
      <trkpt lat="36.4232990" lon="-6.0731390">
        <ele>16.6</ele>
        <time>2023-01-28T09:37:55Z</time>
      </trkpt>
      <trkpt lat="36.4232440" lon="-6.0731280">
        <ele>16.0</ele>
        <time>2023-01-28T09:37:56Z</time>
      </trkpt>
      <trkpt lat="36.4231830" lon="-6.0731190">
        <ele>15.8</ele>
        <time>2023-01-28T09:37:57Z</time>
      </trkpt>
      <trkpt lat="36.4231220" lon="-6.0731270">
        <ele>15.2</ele>
        <time>2023-01-28T09:37:58Z</time>
      </trkpt>
      <trkpt lat="36.4230660" lon="-6.0731500">
        <ele>14.8</ele>
        <time>2023-01-28T09:37:59Z</time>
      </trkpt>
      <trkpt lat="36.4230030" lon="-6.0731640">
        <ele>14.4</ele>
        <time>2023-01-28T09:38:00Z</time>
      </trkpt>
      <trkpt lat="36.4229440" lon="-6.0731890">
        <ele>14.2</ele>
        <time>2023-01-28T09:38:01Z</time>
      </trkpt>
      <trkpt lat="36.4228830" lon="-6.0731970">
        <ele>13.8</ele>
        <time>2023-01-28T09:38:02Z</time>
      </trkpt>
      <trkpt lat="36.4228180" lon="-6.0732080">
        <ele>13.6</ele>
        <time>2023-01-28T09:38:03Z</time>
      </trkpt>
      <trkpt lat="36.4227540" lon="-6.0732110">
        <ele>13.2</ele>
        <time>2023-01-28T09:38:04Z</time>
      </trkpt>
      <trkpt lat="36.4226910" lon="-6.0732110">
        <ele>13.0</ele>
        <time>2023-01-28T09:38:05Z</time>
      </trkpt>
      <trkpt lat="36.4226240" lon="-6.0731980">
        <ele>12.6</ele>
        <time>2023-01-28T09:38:06Z</time>
      </trkpt>
      <trkpt lat="36.4225580" lon="-6.0731870">
        <ele>12.4</ele>
        <time>2023-01-28T09:38:07Z</time>
      </trkpt>
      <trkpt lat="36.4224910" lon="-6.0731710">
        <ele>11.8</ele>
        <time>2023-01-28T09:38:08Z</time>
      </trkpt>
      <trkpt lat="36.4224200" lon="-6.0731560">
        <ele>11.6</ele>
        <time>2023-01-28T09:38:09Z</time>
      </trkpt>
      <trkpt lat="36.4223510" lon="-6.0731310">
        <ele>11.0</ele>
        <time>2023-01-28T09:38:10Z</time>
      </trkpt>
      <trkpt lat="36.4222850" lon="-6.0731050">
        <ele>10.2</ele>
        <time>2023-01-28T09:38:11Z</time>
      </trkpt>
      <trkpt lat="36.4222140" lon="-6.0730700">
        <ele>9.8</ele>
        <time>2023-01-28T09:38:12Z</time>
      </trkpt>
      <trkpt lat="36.4221480" lon="-6.0730380">
        <ele>9.4</ele>
        <time>2023-01-28T09:38:13Z</time>
      </trkpt>
      <trkpt lat="36.4220790" lon="-6.0729970">
        <ele>9.2</ele>
        <time>2023-01-28T09:38:14Z</time>
      </trkpt>
      <trkpt lat="36.4220150" lon="-6.0729560">
        <ele>9.0</ele>
        <time>2023-01-28T09:38:15Z</time>
      </trkpt>
      <trkpt lat="36.4219480" lon="-6.0729180">
        <ele>8.8</ele>
        <time>2023-01-28T09:38:16Z</time>
      </trkpt>
      <trkpt lat="36.4218800" lon="-6.0728820">
        <ele>8.8</ele>
        <time>2023-01-28T09:38:17Z</time>
      </trkpt>
      <trkpt lat="36.4218070" lon="-6.0728410">
        <ele>8.4</ele>
        <time>2023-01-28T09:38:18Z</time>
      </trkpt>
      <trkpt lat="36.4217360" lon="-6.0728020">
        <ele>8.6</ele>
        <time>2023-01-28T09:38:19Z</time>
      </trkpt>
      <trkpt lat="36.4216630" lon="-6.0727650">
        <ele>8.4</ele>
        <time>2023-01-28T09:38:20Z</time>
      </trkpt>
      <trkpt lat="36.4215910" lon="-6.0727230">
        <ele>8.2</ele>
        <time>2023-01-28T09:38:21Z</time>
      </trkpt>
      <trkpt lat="36.4215240" lon="-6.0726910">
        <ele>8.2</ele>
        <time>2023-01-28T09:38:22Z</time>
      </trkpt>
      <trkpt lat="36.4214610" lon="-6.0726610">
        <ele>8.2</ele>
        <time>2023-01-28T09:38:23Z</time>
      </trkpt>
      <trkpt lat="36.4213990" lon="-6.0726270">
        <ele>7.6</ele>
        <time>2023-01-28T09:38:24Z</time>
      </trkpt>
      <trkpt lat="36.4213350" lon="-6.0725990">
        <ele>7.6</ele>
        <time>2023-01-28T09:38:25Z</time>
      </trkpt>
      <trkpt lat="36.4212730" lon="-6.0725780">
        <ele>7.8</ele>
        <time>2023-01-28T09:38:26Z</time>
      </trkpt>
      <trkpt lat="36.4212100" lon="-6.0725510">
        <ele>7.8</ele>
        <time>2023-01-28T09:38:27Z</time>
      </trkpt>
      <trkpt lat="36.4211510" lon="-6.0725200">
        <ele>8.0</ele>
        <time>2023-01-28T09:38:28Z</time>
      </trkpt>
      <trkpt lat="36.4210950" lon="-6.0724980">
        <ele>8.0</ele>
        <time>2023-01-28T09:38:29Z</time>
      </trkpt>
      <trkpt lat="36.4210450" lon="-6.0724880">
        <ele>8.0</ele>
        <time>2023-01-28T09:38:30Z</time>
      </trkpt>
      <trkpt lat="36.4209980" lon="-6.0724630">
        <ele>8.2</ele>
        <time>2023-01-28T09:38:31Z</time>
      </trkpt>
      <trkpt lat="36.4209470" lon="-6.0724370">
        <ele>8.4</ele>
        <time>2023-01-28T09:38:32Z</time>
      </trkpt>
      <trkpt lat="36.4209050" lon="-6.0724200">
        <ele>8.6</ele>
        <time>2023-01-28T09:38:33Z</time>
      </trkpt>
      <trkpt lat="36.4208660" lon="-6.0724050">
        <ele>8.6</ele>
        <time>2023-01-28T09:38:34Z</time>
      </trkpt>
      <trkpt lat="36.4208230" lon="-6.0723800">
        <ele>8.8</ele>
        <time>2023-01-28T09:38:35Z</time>
      </trkpt>
      <trkpt lat="36.4207850" lon="-6.0723680">
        <ele>8.8</ele>
        <time>2023-01-28T09:38:36Z</time>
      </trkpt>
      <trkpt lat="36.4207530" lon="-6.0723440">
        <ele>8.8</ele>
        <time>2023-01-28T09:38:37Z</time>
      </trkpt>
      <trkpt lat="36.4207160" lon="-6.0723210">
        <ele>8.6</ele>
        <time>2023-01-28T09:38:38Z</time>
      </trkpt>
      <trkpt lat="36.4206790" lon="-6.0722970">
        <ele>8.6</ele>
        <time>2023-01-28T09:38:39Z</time>
      </trkpt>
      <trkpt lat="36.4206430" lon="-6.0722740">
        <ele>8.4</ele>
        <time>2023-01-28T09:38:40Z</time>
      </trkpt>
      <trkpt lat="36.4206090" lon="-6.0722560">
        <ele>8.2</ele>
        <time>2023-01-28T09:38:41Z</time>
      </trkpt>
      <trkpt lat="36.4205650" lon="-6.0722240">
        <ele>8.2</ele>
        <time>2023-01-28T09:38:42Z</time>
      </trkpt>
      <trkpt lat="36.4205230" lon="-6.0721940">
        <ele>7.8</ele>
        <time>2023-01-28T09:38:43Z</time>
      </trkpt>
      <trkpt lat="36.4204740" lon="-6.0721520">
        <ele>7.4</ele>
        <time>2023-01-28T09:38:44Z</time>
      </trkpt>
      <trkpt lat="36.4204320" lon="-6.0721170">
        <ele>7.2</ele>
        <time>2023-01-28T09:38:45Z</time>
      </trkpt>
      <trkpt lat="36.4203920" lon="-6.0720810">
        <ele>7.0</ele>
        <time>2023-01-28T09:38:46Z</time>
      </trkpt>
      <trkpt lat="36.4203490" lon="-6.0720380">
        <ele>6.6</ele>
        <time>2023-01-28T09:38:47Z</time>
      </trkpt>
      <trkpt lat="36.4203130" lon="-6.0719900">
        <ele>6.8</ele>
        <time>2023-01-28T09:38:48Z</time>
      </trkpt>
      <trkpt lat="36.4202750" lon="-6.0719430">
        <ele>7.0</ele>
        <time>2023-01-28T09:38:49Z</time>
      </trkpt>
      <trkpt lat="36.4202380" lon="-6.0718900">
        <ele>7.0</ele>
        <time>2023-01-28T09:38:50Z</time>
      </trkpt>
      <trkpt lat="36.4201980" lon="-6.0718490">
        <ele>7.0</ele>
        <time>2023-01-28T09:38:51Z</time>
      </trkpt>
      <trkpt lat="36.4201610" lon="-6.0718160">
        <ele>7.0</ele>
        <time>2023-01-28T09:38:52Z</time>
      </trkpt>
      <trkpt lat="36.4201250" lon="-6.0717690">
        <ele>7.0</ele>
        <time>2023-01-28T09:38:53Z</time>
      </trkpt>
      <trkpt lat="36.4200890" lon="-6.0717310">
        <ele>7.2</ele>
        <time>2023-01-28T09:38:54Z</time>
      </trkpt>
      <trkpt lat="36.4200520" lon="-6.0716870">
        <ele>7.0</ele>
        <time>2023-01-28T09:38:55Z</time>
      </trkpt>
      <trkpt lat="36.4200110" lon="-6.0716480">
        <ele>7.0</ele>
        <time>2023-01-28T09:38:56Z</time>
      </trkpt>
      <trkpt lat="36.4199690" lon="-6.0716110">
        <ele>6.8</ele>
        <time>2023-01-28T09:38:57Z</time>
      </trkpt>
      <trkpt lat="36.4199350" lon="-6.0715820">
        <ele>6.8</ele>
        <time>2023-01-28T09:38:58Z</time>
      </trkpt>
      <trkpt lat="36.4199010" lon="-6.0715450">
        <ele>6.4</ele>
        <time>2023-01-28T09:38:59Z</time>
      </trkpt>
      <trkpt lat="36.4198600" lon="-6.0715080">
        <ele>6.4</ele>
        <time>2023-01-28T09:39:00Z</time>
      </trkpt>
      <trkpt lat="36.4198260" lon="-6.0714690">
        <ele>6.2</ele>
        <time>2023-01-28T09:39:01Z</time>
      </trkpt>
      <trkpt lat="36.4197890" lon="-6.0714350">
        <ele>6.0</ele>
        <time>2023-01-28T09:39:02Z</time>
      </trkpt>
      <trkpt lat="36.4197550" lon="-6.0713970">
        <ele>6.0</ele>
        <time>2023-01-28T09:39:03Z</time>
      </trkpt>
      <trkpt lat="36.4197130" lon="-6.0713600">
        <ele>6.2</ele>
        <time>2023-01-28T09:39:04Z</time>
      </trkpt>
      <trkpt lat="36.4196700" lon="-6.0713280">
        <ele>6.4</ele>
        <time>2023-01-28T09:39:05Z</time>
      </trkpt>
      <trkpt lat="36.4196330" lon="-6.0712960">
        <ele>7.2</ele>
        <time>2023-01-28T09:39:06Z</time>
      </trkpt>
      <trkpt lat="36.4195960" lon="-6.0712650">
        <ele>7.4</ele>
        <time>2023-01-28T09:39:07Z</time>
      </trkpt>
      <trkpt lat="36.4195670" lon="-6.0712310">
        <ele>7.4</ele>
        <time>2023-01-28T09:39:08Z</time>
      </trkpt>
      <trkpt lat="36.4195370" lon="-6.0712000">
        <ele>7.2</ele>
        <time>2023-01-28T09:39:09Z</time>
      </trkpt>
      <trkpt lat="36.4195060" lon="-6.0711710">
        <ele>7.2</ele>
        <time>2023-01-28T09:39:10Z</time>
      </trkpt>
      <trkpt lat="36.4194740" lon="-6.0711410">
        <ele>7.4</ele>
        <time>2023-01-28T09:39:11Z</time>
      </trkpt>
      <trkpt lat="36.4194420" lon="-6.0711220">
        <ele>7.4</ele>
        <time>2023-01-28T09:39:12Z</time>
      </trkpt>
      <trkpt lat="36.4194110" lon="-6.0711000">
        <ele>7.2</ele>
        <time>2023-01-28T09:39:13Z</time>
      </trkpt>
      <trkpt lat="36.4193780" lon="-6.0710750">
        <ele>7.4</ele>
        <time>2023-01-28T09:39:14Z</time>
      </trkpt>
      <trkpt lat="36.4193600" lon="-6.0710600">
        <ele>7.6</ele>
        <time>2023-01-28T09:39:15Z</time>
      </trkpt>
      <trkpt lat="36.4193420" lon="-6.0710460">
        <ele>7.8</ele>
        <time>2023-01-28T09:39:16Z</time>
      </trkpt>
      <trkpt lat="36.4193270" lon="-6.0710280">
        <ele>8.0</ele>
        <time>2023-01-28T09:39:17Z</time>
      </trkpt>
      <trkpt lat="36.4193090" lon="-6.0710130">
        <ele>8.4</ele>
        <time>2023-01-28T09:39:18Z</time>
      </trkpt>
      <trkpt lat="36.4192970" lon="-6.0710120">
        <ele>8.6</ele>
        <time>2023-01-28T09:39:19Z</time>
      </trkpt>
      <trkpt lat="36.4192750" lon="-6.0709930">
        <ele>8.6</ele>
        <time>2023-01-28T09:39:20Z</time>
      </trkpt>
      <trkpt lat="36.4192660" lon="-6.0709840">
        <ele>9.6</ele>
        <time>2023-01-28T09:39:21Z</time>
      </trkpt>
      <trkpt lat="36.4192510" lon="-6.0709700">
        <ele>9.6</ele>
        <time>2023-01-28T09:39:22Z</time>
      </trkpt>
      <trkpt lat="36.4192360" lon="-6.0709620">
        <ele>9.4</ele>
        <time>2023-01-28T09:39:23Z</time>
      </trkpt>
      <trkpt lat="36.4192310" lon="-6.0709630">
        <ele>9.4</ele>
        <time>2023-01-28T09:39:24Z</time>
      </trkpt>
      <trkpt lat="36.4192260" lon="-6.0709650">
        <ele>9.4</ele>
        <time>2023-01-28T09:39:25Z</time>
      </trkpt>
      <trkpt lat="36.4192290" lon="-6.0709700">
        <ele>9.2</ele>
        <time>2023-01-28T09:39:26Z</time>
      </trkpt>
      <trkpt lat="36.4192310" lon="-6.0709700">
        <ele>9.4</ele>
        <time>2023-01-28T09:39:27Z</time>
      </trkpt>
      <trkpt lat="36.4192240" lon="-6.0709680">
        <ele>9.2</ele>
        <time>2023-01-28T09:39:28Z</time>
      </trkpt>
      <trkpt lat="36.4192280" lon="-6.0709640">
        <ele>9.2</ele>
        <time>2023-01-28T09:39:29Z</time>
      </trkpt>
      <trkpt lat="36.4192310" lon="-6.0709630">
        <ele>9.2</ele>
        <time>2023-01-28T09:39:30Z</time>
      </trkpt>
      <trkpt lat="36.4192310" lon="-6.0709620">
        <ele>9.0</ele>
        <time>2023-01-28T09:39:31Z</time>
      </trkpt>
      <trkpt lat="36.4192320" lon="-6.0709590">
        <ele>9.0</ele>
        <time>2023-01-28T09:39:32Z</time>
      </trkpt>
      <trkpt lat="36.4192360" lon="-6.0709640">
        <ele>9.0</ele>
        <time>2023-01-28T09:39:33Z</time>
      </trkpt>
      <trkpt lat="36.4192300" lon="-6.0709530">
        <ele>9.0</ele>
        <time>2023-01-28T09:39:34Z</time>
      </trkpt>
      <trkpt lat="36.4192320" lon="-6.0709570">
        <ele>9.2</ele>
        <time>2023-01-28T09:39:35Z</time>
      </trkpt>
      <trkpt lat="36.4192350" lon="-6.0709630">
        <ele>9.2</ele>
        <time>2023-01-28T09:39:36Z</time>
      </trkpt>
      <trkpt lat="36.4192310" lon="-6.0709590">
        <ele>9.0</ele>
        <time>2023-01-28T09:39:37Z</time>
      </trkpt>
      <trkpt lat="36.4192210" lon="-6.0709590">
        <ele>8.8</ele>
        <time>2023-01-28T09:39:41Z</time>
      </trkpt>
      <trkpt lat="36.4192110" lon="-6.0709520">
        <ele>9.0</ele>
        <time>2023-01-28T09:39:42Z</time>
      </trkpt>
      <trkpt lat="36.4191990" lon="-6.0709500">
        <ele>9.2</ele>
        <time>2023-01-28T09:39:43Z</time>
      </trkpt>
      <trkpt lat="36.4191830" lon="-6.0709410">
        <ele>9.2</ele>
        <time>2023-01-28T09:39:44Z</time>
      </trkpt>
      <trkpt lat="36.4191700" lon="-6.0709200">
        <ele>9.4</ele>
        <time>2023-01-28T09:39:45Z</time>
      </trkpt>
      <trkpt lat="36.4191590" lon="-6.0708940">
        <ele>9.2</ele>
        <time>2023-01-28T09:39:46Z</time>
      </trkpt>
      <trkpt lat="36.4191380" lon="-6.0708500">
        <ele>9.2</ele>
        <time>2023-01-28T09:39:47Z</time>
      </trkpt>
      <trkpt lat="36.4191290" lon="-6.0708340">
        <ele>9.2</ele>
        <time>2023-01-28T09:39:48Z</time>
      </trkpt>
      <trkpt lat="36.4191090" lon="-6.0707990">
        <ele>9.2</ele>
        <time>2023-01-28T09:39:49Z</time>
      </trkpt>
      <trkpt lat="36.4190920" lon="-6.0707720">
        <ele>9.2</ele>
        <time>2023-01-28T09:39:50Z</time>
      </trkpt>
      <trkpt lat="36.4190670" lon="-6.0707480">
        <ele>8.8</ele>
        <time>2023-01-28T09:39:51Z</time>
      </trkpt>
      <trkpt lat="36.4190400" lon="-6.0707290">
        <ele>8.8</ele>
        <time>2023-01-28T09:39:52Z</time>
      </trkpt>
      <trkpt lat="36.4190060" lon="-6.0707170">
        <ele>8.6</ele>
        <time>2023-01-28T09:39:53Z</time>
      </trkpt>
      <trkpt lat="36.4189650" lon="-6.0707040">
        <ele>8.2</ele>
        <time>2023-01-28T09:39:54Z</time>
      </trkpt>
      <trkpt lat="36.4189230" lon="-6.0706910">
        <ele>8.0</ele>
        <time>2023-01-28T09:39:55Z</time>
      </trkpt>
      <trkpt lat="36.4188820" lon="-6.0706750">
        <ele>8.0</ele>
        <time>2023-01-28T09:39:56Z</time>
      </trkpt>
      <trkpt lat="36.4188390" lon="-6.0706730">
        <ele>8.0</ele>
        <time>2023-01-28T09:39:57Z</time>
      </trkpt>
      <trkpt lat="36.4187920" lon="-6.0706630">
        <ele>8.0</ele>
        <time>2023-01-28T09:39:58Z</time>
      </trkpt>
      <trkpt lat="36.4187510" lon="-6.0706560">
        <ele>8.2</ele>
        <time>2023-01-28T09:39:59Z</time>
      </trkpt>
      <trkpt lat="36.4187120" lon="-6.0706510">
        <ele>8.2</ele>
        <time>2023-01-28T09:40:00Z</time>
      </trkpt>
      <trkpt lat="36.4186780" lon="-6.0706360">
        <ele>8.2</ele>
        <time>2023-01-28T09:40:01Z</time>
      </trkpt>
      <trkpt lat="36.4186440" lon="-6.0706300">
        <ele>8.2</ele>
        <time>2023-01-28T09:40:02Z</time>
      </trkpt>
      <trkpt lat="36.4186100" lon="-6.0706380">
        <ele>8.2</ele>
        <time>2023-01-28T09:40:03Z</time>
      </trkpt>
      <trkpt lat="36.4185750" lon="-6.0706330">
        <ele>8.4</ele>
        <time>2023-01-28T09:40:04Z</time>
      </trkpt>
      <trkpt lat="36.4185420" lon="-6.0706410">
        <ele>8.4</ele>
        <time>2023-01-28T09:40:05Z</time>
      </trkpt>
      <trkpt lat="36.4185070" lon="-6.0706350">
        <ele>8.4</ele>
        <time>2023-01-28T09:40:06Z</time>
      </trkpt>
      <trkpt lat="36.4184720" lon="-6.0706330">
        <ele>8.4</ele>
        <time>2023-01-28T09:40:07Z</time>
      </trkpt>
      <trkpt lat="36.4184340" lon="-6.0706270">
        <ele>8.4</ele>
        <time>2023-01-28T09:40:08Z</time>
      </trkpt>
      <trkpt lat="36.4183950" lon="-6.0706210">
        <ele>8.6</ele>
        <time>2023-01-28T09:40:09Z</time>
      </trkpt>
      <trkpt lat="36.4183550" lon="-6.0706140">
        <ele>8.8</ele>
        <time>2023-01-28T09:40:10Z</time>
      </trkpt>
      <trkpt lat="36.4183200" lon="-6.0706200">
        <ele>8.8</ele>
        <time>2023-01-28T09:40:11Z</time>
      </trkpt>
      <trkpt lat="36.4182790" lon="-6.0706170">
        <ele>8.8</ele>
        <time>2023-01-28T09:40:12Z</time>
      </trkpt>
      <trkpt lat="36.4182420" lon="-6.0706110">
        <ele>8.8</ele>
        <time>2023-01-28T09:40:13Z</time>
      </trkpt>
      <trkpt lat="36.4182010" lon="-6.0706080">
        <ele>8.8</ele>
        <time>2023-01-28T09:40:14Z</time>
      </trkpt>
      <trkpt lat="36.4181620" lon="-6.0706030">
        <ele>9.0</ele>
        <time>2023-01-28T09:40:15Z</time>
      </trkpt>
      <trkpt lat="36.4181260" lon="-6.0706030">
        <ele>8.8</ele>
        <time>2023-01-28T09:40:16Z</time>
      </trkpt>
      <trkpt lat="36.4180870" lon="-6.0706090">
        <ele>9.0</ele>
        <time>2023-01-28T09:40:17Z</time>
      </trkpt>
      <trkpt lat="36.4180510" lon="-6.0706120">
        <ele>9.0</ele>
        <time>2023-01-28T09:40:18Z</time>
      </trkpt>
      <trkpt lat="36.4180090" lon="-6.0706010">
        <ele>8.8</ele>
        <time>2023-01-28T09:40:19Z</time>
      </trkpt>
      <trkpt lat="36.4179720" lon="-6.0705900">
        <ele>8.8</ele>
        <time>2023-01-28T09:40:20Z</time>
      </trkpt>
      <trkpt lat="36.4179320" lon="-6.0705750">
        <ele>8.6</ele>
        <time>2023-01-28T09:40:21Z</time>
      </trkpt>
      <trkpt lat="36.4178930" lon="-6.0705670">
        <ele>8.6</ele>
        <time>2023-01-28T09:40:22Z</time>
      </trkpt>
      <trkpt lat="36.4178470" lon="-6.0705550">
        <ele>8.4</ele>
        <time>2023-01-28T09:40:23Z</time>
      </trkpt>
      <trkpt lat="36.4178040" lon="-6.0705500">
        <ele>8.2</ele>
        <time>2023-01-28T09:40:24Z</time>
      </trkpt>
      <trkpt lat="36.4177610" lon="-6.0705370">
        <ele>8.2</ele>
        <time>2023-01-28T09:40:25Z</time>
      </trkpt>
      <trkpt lat="36.4177150" lon="-6.0705310">
        <ele>8.2</ele>
        <time>2023-01-28T09:40:26Z</time>
      </trkpt>
      <trkpt lat="36.4176740" lon="-6.0705280">
        <ele>8.4</ele>
        <time>2023-01-28T09:40:27Z</time>
      </trkpt>
      <trkpt lat="36.4176290" lon="-6.0705210">
        <ele>8.2</ele>
        <time>2023-01-28T09:40:28Z</time>
      </trkpt>
      <trkpt lat="36.4175820" lon="-6.0705180">
        <ele>8.0</ele>
        <time>2023-01-28T09:40:29Z</time>
      </trkpt>
      <trkpt lat="36.4175300" lon="-6.0705080">
        <ele>7.6</ele>
        <time>2023-01-28T09:40:30Z</time>
      </trkpt>
      <trkpt lat="36.4174780" lon="-6.0705000">
        <ele>7.6</ele>
        <time>2023-01-28T09:40:31Z</time>
      </trkpt>
      <trkpt lat="36.4174210" lon="-6.0704820">
        <ele>7.4</ele>
        <time>2023-01-28T09:40:32Z</time>
      </trkpt>
      <trkpt lat="36.4173700" lon="-6.0704620">
        <ele>7.2</ele>
        <time>2023-01-28T09:40:33Z</time>
      </trkpt>
      <trkpt lat="36.4173180" lon="-6.0704510">
        <ele>7.0</ele>
        <time>2023-01-28T09:40:34Z</time>
      </trkpt>
      <trkpt lat="36.4172620" lon="-6.0704350">
        <ele>6.8</ele>
        <time>2023-01-28T09:40:35Z</time>
      </trkpt>
      <trkpt lat="36.4172090" lon="-6.0704240">
        <ele>6.4</ele>
        <time>2023-01-28T09:40:36Z</time>
      </trkpt>
      <trkpt lat="36.4171550" lon="-6.0704080">
        <ele>6.2</ele>
        <time>2023-01-28T09:40:37Z</time>
      </trkpt>
      <trkpt lat="36.4170980" lon="-6.0703950">
        <ele>6.2</ele>
        <time>2023-01-28T09:40:38Z</time>
      </trkpt>
      <trkpt lat="36.4170380" lon="-6.0703820">
        <ele>5.8</ele>
        <time>2023-01-28T09:40:39Z</time>
      </trkpt>
      <trkpt lat="36.4169770" lon="-6.0703610">
        <ele>5.6</ele>
        <time>2023-01-28T09:40:40Z</time>
      </trkpt>
      <trkpt lat="36.4169170" lon="-6.0703400">
        <ele>5.6</ele>
        <time>2023-01-28T09:40:41Z</time>
      </trkpt>
      <trkpt lat="36.4168600" lon="-6.0703160">
        <ele>5.4</ele>
        <time>2023-01-28T09:40:42Z</time>
      </trkpt>
      <trkpt lat="36.4168070" lon="-6.0702890">
        <ele>5.4</ele>
        <time>2023-01-28T09:40:43Z</time>
      </trkpt>
      <trkpt lat="36.4167580" lon="-6.0702670">
        <ele>5.6</ele>
        <time>2023-01-28T09:40:44Z</time>
      </trkpt>
      <trkpt lat="36.4167140" lon="-6.0702510">
        <ele>5.8</ele>
        <time>2023-01-28T09:40:45Z</time>
      </trkpt>
      <trkpt lat="36.4166680" lon="-6.0702350">
        <ele>5.8</ele>
        <time>2023-01-28T09:40:46Z</time>
      </trkpt>
      <trkpt lat="36.4166200" lon="-6.0702130">
        <ele>6.0</ele>
        <time>2023-01-28T09:40:47Z</time>
      </trkpt>
      <trkpt lat="36.4165740" lon="-6.0701910">
        <ele>5.8</ele>
        <time>2023-01-28T09:40:48Z</time>
      </trkpt>
      <trkpt lat="36.4165210" lon="-6.0701630">
        <ele>5.8</ele>
        <time>2023-01-28T09:40:49Z</time>
      </trkpt>
      <trkpt lat="36.4164710" lon="-6.0701320">
        <ele>5.8</ele>
        <time>2023-01-28T09:40:50Z</time>
      </trkpt>
      <trkpt lat="36.4164180" lon="-6.0701070">
        <ele>5.6</ele>
        <time>2023-01-28T09:40:51Z</time>
      </trkpt>
      <trkpt lat="36.4163730" lon="-6.0700810">
        <ele>5.4</ele>
        <time>2023-01-28T09:40:52Z</time>
      </trkpt>
      <trkpt lat="36.4163270" lon="-6.0700560">
        <ele>5.4</ele>
        <time>2023-01-28T09:40:53Z</time>
      </trkpt>
      <trkpt lat="36.4162750" lon="-6.0700300">
        <ele>5.6</ele>
        <time>2023-01-28T09:40:54Z</time>
      </trkpt>
      <trkpt lat="36.4162140" lon="-6.0699990">
        <ele>5.4</ele>
        <time>2023-01-28T09:40:55Z</time>
      </trkpt>
      <trkpt lat="36.4161610" lon="-6.0699650">
        <ele>5.6</ele>
        <time>2023-01-28T09:40:56Z</time>
      </trkpt>
      <trkpt lat="36.4161120" lon="-6.0699540">
        <ele>5.6</ele>
        <time>2023-01-28T09:40:57Z</time>
      </trkpt>
      <trkpt lat="36.4160630" lon="-6.0699340">
        <ele>5.4</ele>
        <time>2023-01-28T09:40:58Z</time>
      </trkpt>
      <trkpt lat="36.4160070" lon="-6.0699140">
        <ele>5.2</ele>
        <time>2023-01-28T09:40:59Z</time>
      </trkpt>
      <trkpt lat="36.4159550" lon="-6.0698990">
        <ele>5.2</ele>
        <time>2023-01-28T09:41:00Z</time>
      </trkpt>
      <trkpt lat="36.4159020" lon="-6.0698820">
        <ele>5.2</ele>
        <time>2023-01-28T09:41:01Z</time>
      </trkpt>
      <trkpt lat="36.4158530" lon="-6.0698710">
        <ele>5.0</ele>
        <time>2023-01-28T09:41:02Z</time>
      </trkpt>
      <trkpt lat="36.4157990" lon="-6.0698610">
        <ele>5.0</ele>
        <time>2023-01-28T09:41:03Z</time>
      </trkpt>
      <trkpt lat="36.4157440" lon="-6.0698460">
        <ele>4.8</ele>
        <time>2023-01-28T09:41:04Z</time>
      </trkpt>
      <trkpt lat="36.4156920" lon="-6.0698300">
        <ele>4.6</ele>
        <time>2023-01-28T09:41:05Z</time>
      </trkpt>
      <trkpt lat="36.4156380" lon="-6.0698170">
        <ele>4.4</ele>
        <time>2023-01-28T09:41:06Z</time>
      </trkpt>
      <trkpt lat="36.4155750" lon="-6.0697970">
        <ele>4.4</ele>
        <time>2023-01-28T09:41:07Z</time>
      </trkpt>
      <trkpt lat="36.4155150" lon="-6.0697830">
        <ele>4.2</ele>
        <time>2023-01-28T09:41:08Z</time>
      </trkpt>
      <trkpt lat="36.4154660" lon="-6.0697680">
        <ele>4.2</ele>
        <time>2023-01-28T09:41:09Z</time>
      </trkpt>
      <trkpt lat="36.4154150" lon="-6.0697440">
        <ele>4.4</ele>
        <time>2023-01-28T09:41:10Z</time>
      </trkpt>
      <trkpt lat="36.4153590" lon="-6.0697140">
        <ele>4.4</ele>
        <time>2023-01-28T09:41:11Z</time>
      </trkpt>
      <trkpt lat="36.4153060" lon="-6.0696840">
        <ele>4.4</ele>
        <time>2023-01-28T09:41:12Z</time>
      </trkpt>
      <trkpt lat="36.4152620" lon="-6.0696470">
        <ele>4.6</ele>
        <time>2023-01-28T09:41:13Z</time>
      </trkpt>
      <trkpt lat="36.4152140" lon="-6.0695990">
        <ele>4.6</ele>
        <time>2023-01-28T09:41:14Z</time>
      </trkpt>
      <trkpt lat="36.4151740" lon="-6.0695700">
        <ele>4.6</ele>
        <time>2023-01-28T09:41:15Z</time>
      </trkpt>
      <trkpt lat="36.4151250" lon="-6.0695410">
        <ele>4.6</ele>
        <time>2023-01-28T09:41:16Z</time>
      </trkpt>
      <trkpt lat="36.4150780" lon="-6.0695120">
        <ele>4.6</ele>
        <time>2023-01-28T09:41:17Z</time>
      </trkpt>
      <trkpt lat="36.4150250" lon="-6.0694840">
        <ele>4.4</ele>
        <time>2023-01-28T09:41:18Z</time>
      </trkpt>
      <trkpt lat="36.4149780" lon="-6.0694510">
        <ele>4.6</ele>
        <time>2023-01-28T09:41:19Z</time>
      </trkpt>
      <trkpt lat="36.4149310" lon="-6.0694220">
        <ele>4.6</ele>
        <time>2023-01-28T09:41:20Z</time>
      </trkpt>
      <trkpt lat="36.4148840" lon="-6.0693920">
        <ele>4.4</ele>
        <time>2023-01-28T09:41:21Z</time>
      </trkpt>
      <trkpt lat="36.4148330" lon="-6.0693680">
        <ele>4.6</ele>
        <time>2023-01-28T09:41:22Z</time>
      </trkpt>
      <trkpt lat="36.4147840" lon="-6.0693340">
        <ele>4.6</ele>
        <time>2023-01-28T09:41:23Z</time>
      </trkpt>
      <trkpt lat="36.4147430" lon="-6.0693020">
        <ele>4.6</ele>
        <time>2023-01-28T09:41:24Z</time>
      </trkpt>
      <trkpt lat="36.4147010" lon="-6.0692770">
        <ele>4.6</ele>
        <time>2023-01-28T09:41:25Z</time>
      </trkpt>
      <trkpt lat="36.4146530" lon="-6.0692430">
        <ele>4.6</ele>
        <time>2023-01-28T09:41:26Z</time>
      </trkpt>
      <trkpt lat="36.4146050" lon="-6.0692170">
        <ele>4.8</ele>
        <time>2023-01-28T09:41:27Z</time>
      </trkpt>
      <trkpt lat="36.4145570" lon="-6.0691880">
        <ele>4.8</ele>
        <time>2023-01-28T09:41:28Z</time>
      </trkpt>
      <trkpt lat="36.4145140" lon="-6.0691580">
        <ele>5.0</ele>
        <time>2023-01-28T09:41:29Z</time>
      </trkpt>
      <trkpt lat="36.4144750" lon="-6.0691230">
        <ele>5.0</ele>
        <time>2023-01-28T09:41:30Z</time>
      </trkpt>
      <trkpt lat="36.4144340" lon="-6.0690930">
        <ele>4.8</ele>
        <time>2023-01-28T09:41:31Z</time>
      </trkpt>
      <trkpt lat="36.4143880" lon="-6.0690600">
        <ele>4.8</ele>
        <time>2023-01-28T09:41:32Z</time>
      </trkpt>
      <trkpt lat="36.4143440" lon="-6.0690240">
        <ele>4.8</ele>
        <time>2023-01-28T09:41:33Z</time>
      </trkpt>
      <trkpt lat="36.4142980" lon="-6.0689910">
        <ele>4.6</ele>
        <time>2023-01-28T09:41:34Z</time>
      </trkpt>
      <trkpt lat="36.4142600" lon="-6.0689660">
        <ele>4.6</ele>
        <time>2023-01-28T09:41:35Z</time>
      </trkpt>
      <trkpt lat="36.4142130" lon="-6.0689280">
        <ele>5.0</ele>
        <time>2023-01-28T09:41:36Z</time>
      </trkpt>
      <trkpt lat="36.4141700" lon="-6.0688900">
        <ele>5.0</ele>
        <time>2023-01-28T09:41:37Z</time>
      </trkpt>
      <trkpt lat="36.4141240" lon="-6.0688590">
        <ele>5.0</ele>
        <time>2023-01-28T09:41:38Z</time>
      </trkpt>
      <trkpt lat="36.4140770" lon="-6.0688280">
        <ele>5.0</ele>
        <time>2023-01-28T09:41:39Z</time>
      </trkpt>
      <trkpt lat="36.4140330" lon="-6.0687980">
        <ele>5.6</ele>
        <time>2023-01-28T09:41:40Z</time>
      </trkpt>
      <trkpt lat="36.4139920" lon="-6.0687590">
        <ele>5.8</ele>
        <time>2023-01-28T09:41:41Z</time>
      </trkpt>
      <trkpt lat="36.4139480" lon="-6.0687300">
        <ele>6.0</ele>
        <time>2023-01-28T09:41:42Z</time>
      </trkpt>
      <trkpt lat="36.4139120" lon="-6.0687040">
        <ele>6.4</ele>
        <time>2023-01-28T09:41:43Z</time>
      </trkpt>
      <trkpt lat="36.4138830" lon="-6.0686720">
        <ele>6.6</ele>
        <time>2023-01-28T09:41:44Z</time>
      </trkpt>
      <trkpt lat="36.4138520" lon="-6.0686450">
        <ele>7.0</ele>
        <time>2023-01-28T09:41:45Z</time>
      </trkpt>
      <trkpt lat="36.4138180" lon="-6.0686180">
        <ele>7.0</ele>
        <time>2023-01-28T09:41:46Z</time>
      </trkpt>
      <trkpt lat="36.4137850" lon="-6.0685970">
        <ele>7.4</ele>
        <time>2023-01-28T09:41:47Z</time>
      </trkpt>
      <trkpt lat="36.4137550" lon="-6.0685690">
        <ele>7.6</ele>
        <time>2023-01-28T09:41:48Z</time>
      </trkpt>
      <trkpt lat="36.4137240" lon="-6.0685470">
        <ele>7.8</ele>
        <time>2023-01-28T09:41:49Z</time>
      </trkpt>
      <trkpt lat="36.4136940" lon="-6.0685190">
        <ele>8.0</ele>
        <time>2023-01-28T09:41:50Z</time>
      </trkpt>
      <trkpt lat="36.4136590" lon="-6.0684880">
        <ele>8.0</ele>
        <time>2023-01-28T09:41:51Z</time>
      </trkpt>
      <trkpt lat="36.4136200" lon="-6.0684590">
        <ele>8.0</ele>
        <time>2023-01-28T09:41:52Z</time>
      </trkpt>
      <trkpt lat="36.4135890" lon="-6.0684320">
        <ele>8.0</ele>
        <time>2023-01-28T09:41:53Z</time>
      </trkpt>
      <trkpt lat="36.4135580" lon="-6.0684050">
        <ele>8.0</ele>
        <time>2023-01-28T09:41:54Z</time>
      </trkpt>
      <trkpt lat="36.4135270" lon="-6.0683840">
        <ele>8.0</ele>
        <time>2023-01-28T09:41:55Z</time>
      </trkpt>
      <trkpt lat="36.4134960" lon="-6.0683620">
        <ele>8.2</ele>
        <time>2023-01-28T09:41:56Z</time>
      </trkpt>
      <trkpt lat="36.4134670" lon="-6.0683440">
        <ele>8.2</ele>
        <time>2023-01-28T09:41:57Z</time>
      </trkpt>
      <trkpt lat="36.4134310" lon="-6.0683210">
        <ele>8.4</ele>
        <time>2023-01-28T09:41:58Z</time>
      </trkpt>
      <trkpt lat="36.4134030" lon="-6.0682930">
        <ele>8.4</ele>
        <time>2023-01-28T09:41:59Z</time>
      </trkpt>
      <trkpt lat="36.4133790" lon="-6.0682690">
        <ele>8.6</ele>
        <time>2023-01-28T09:42:00Z</time>
      </trkpt>
      <trkpt lat="36.4133490" lon="-6.0682450">
        <ele>8.8</ele>
        <time>2023-01-28T09:42:01Z</time>
      </trkpt>
      <trkpt lat="36.4133160" lon="-6.0682230">
        <ele>9.0</ele>
        <time>2023-01-28T09:42:02Z</time>
      </trkpt>
      <trkpt lat="36.4132940" lon="-6.0681960">
        <ele>9.0</ele>
        <time>2023-01-28T09:42:03Z</time>
      </trkpt>
      <trkpt lat="36.4132630" lon="-6.0681750">
        <ele>9.2</ele>
        <time>2023-01-28T09:42:04Z</time>
      </trkpt>
      <trkpt lat="36.4132390" lon="-6.0681520">
        <ele>9.4</ele>
        <time>2023-01-28T09:42:05Z</time>
      </trkpt>
      <trkpt lat="36.4132120" lon="-6.0681320">
        <ele>9.4</ele>
        <time>2023-01-28T09:42:06Z</time>
      </trkpt>
      <trkpt lat="36.4131860" lon="-6.0681090">
        <ele>9.6</ele>
        <time>2023-01-28T09:42:07Z</time>
      </trkpt>
      <trkpt lat="36.4131590" lon="-6.0680840">
        <ele>9.6</ele>
        <time>2023-01-28T09:42:08Z</time>
      </trkpt>
      <trkpt lat="36.4131330" lon="-6.0680610">
        <ele>9.8</ele>
        <time>2023-01-28T09:42:09Z</time>
      </trkpt>
      <trkpt lat="36.4131010" lon="-6.0680380">
        <ele>10.0</ele>
        <time>2023-01-28T09:42:10Z</time>
      </trkpt>
      <trkpt lat="36.4130720" lon="-6.0680160">
        <ele>10.0</ele>
        <time>2023-01-28T09:42:11Z</time>
      </trkpt>
      <trkpt lat="36.4130370" lon="-6.0679940">
        <ele>10.4</ele>
        <time>2023-01-28T09:42:12Z</time>
      </trkpt>
      <trkpt lat="36.4130070" lon="-6.0679690">
        <ele>10.4</ele>
        <time>2023-01-28T09:42:13Z</time>
      </trkpt>
      <trkpt lat="36.4129760" lon="-6.0679420">
        <ele>10.6</ele>
        <time>2023-01-28T09:42:14Z</time>
      </trkpt>
      <trkpt lat="36.4129450" lon="-6.0679190">
        <ele>10.6</ele>
        <time>2023-01-28T09:42:15Z</time>
      </trkpt>
      <trkpt lat="36.4129260" lon="-6.0678960">
        <ele>11.0</ele>
        <time>2023-01-28T09:42:16Z</time>
      </trkpt>
      <trkpt lat="36.4128980" lon="-6.0678700">
        <ele>11.2</ele>
        <time>2023-01-28T09:42:17Z</time>
      </trkpt>
      <trkpt lat="36.4128660" lon="-6.0678520">
        <ele>11.4</ele>
        <time>2023-01-28T09:42:18Z</time>
      </trkpt>
      <trkpt lat="36.4128380" lon="-6.0678310">
        <ele>11.6</ele>
        <time>2023-01-28T09:42:19Z</time>
      </trkpt>
      <trkpt lat="36.4128070" lon="-6.0678100">
        <ele>11.6</ele>
        <time>2023-01-28T09:42:20Z</time>
      </trkpt>
      <trkpt lat="36.4127750" lon="-6.0677830">
        <ele>11.8</ele>
        <time>2023-01-28T09:42:21Z</time>
      </trkpt>
      <trkpt lat="36.4127480" lon="-6.0677590">
        <ele>12.0</ele>
        <time>2023-01-28T09:42:22Z</time>
      </trkpt>
      <trkpt lat="36.4127280" lon="-6.0677350">
        <ele>12.0</ele>
        <time>2023-01-28T09:42:23Z</time>
      </trkpt>
      <trkpt lat="36.4127040" lon="-6.0677100">
        <ele>12.2</ele>
        <time>2023-01-28T09:42:24Z</time>
      </trkpt>
      <trkpt lat="36.4126780" lon="-6.0676850">
        <ele>12.4</ele>
        <time>2023-01-28T09:42:25Z</time>
      </trkpt>
      <trkpt lat="36.4126610" lon="-6.0676610">
        <ele>12.6</ele>
        <time>2023-01-28T09:42:26Z</time>
      </trkpt>
      <trkpt lat="36.4126280" lon="-6.0676320">
        <ele>12.8</ele>
        <time>2023-01-28T09:42:27Z</time>
      </trkpt>
      <trkpt lat="36.4125970" lon="-6.0676110">
        <ele>12.8</ele>
        <time>2023-01-28T09:42:28Z</time>
      </trkpt>
      <trkpt lat="36.4125620" lon="-6.0675870">
        <ele>12.8</ele>
        <time>2023-01-28T09:42:29Z</time>
      </trkpt>
      <trkpt lat="36.4125340" lon="-6.0675580">
        <ele>13.0</ele>
        <time>2023-01-28T09:42:30Z</time>
      </trkpt>
      <trkpt lat="36.4125130" lon="-6.0675300">
        <ele>13.0</ele>
        <time>2023-01-28T09:42:31Z</time>
      </trkpt>
      <trkpt lat="36.4124930" lon="-6.0675020">
        <ele>13.2</ele>
        <time>2023-01-28T09:42:32Z</time>
      </trkpt>
      <trkpt lat="36.4124540" lon="-6.0674700">
        <ele>13.2</ele>
        <time>2023-01-28T09:42:33Z</time>
      </trkpt>
      <trkpt lat="36.4124270" lon="-6.0674390">
        <ele>13.0</ele>
        <time>2023-01-28T09:42:34Z</time>
      </trkpt>
      <trkpt lat="36.4123920" lon="-6.0674040">
        <ele>12.8</ele>
        <time>2023-01-28T09:42:35Z</time>
      </trkpt>
      <trkpt lat="36.4123640" lon="-6.0673740">
        <ele>12.8</ele>
        <time>2023-01-28T09:42:36Z</time>
      </trkpt>
      <trkpt lat="36.4123250" lon="-6.0673360">
        <ele>13.0</ele>
        <time>2023-01-28T09:42:37Z</time>
      </trkpt>
      <trkpt lat="36.4122880" lon="-6.0673040">
        <ele>12.6</ele>
        <time>2023-01-28T09:42:38Z</time>
      </trkpt>
      <trkpt lat="36.4122450" lon="-6.0672620">
        <ele>12.4</ele>
        <time>2023-01-28T09:42:39Z</time>
      </trkpt>
      <trkpt lat="36.4122020" lon="-6.0672270">
        <ele>12.0</ele>
        <time>2023-01-28T09:42:40Z</time>
      </trkpt>
      <trkpt lat="36.4121600" lon="-6.0671920">
        <ele>11.8</ele>
        <time>2023-01-28T09:42:41Z</time>
      </trkpt>
      <trkpt lat="36.4121210" lon="-6.0671570">
        <ele>11.8</ele>
        <time>2023-01-28T09:42:42Z</time>
      </trkpt>
      <trkpt lat="36.4120810" lon="-6.0671140">
        <ele>11.6</ele>
        <time>2023-01-28T09:42:43Z</time>
      </trkpt>
      <trkpt lat="36.4120370" lon="-6.0670710">
        <ele>11.6</ele>
        <time>2023-01-28T09:42:44Z</time>
      </trkpt>
      <trkpt lat="36.4119940" lon="-6.0670260">
        <ele>11.2</ele>
        <time>2023-01-28T09:42:45Z</time>
      </trkpt>
      <trkpt lat="36.4119460" lon="-6.0669860">
        <ele>11.0</ele>
        <time>2023-01-28T09:42:46Z</time>
      </trkpt>
      <trkpt lat="36.4119000" lon="-6.0669390">
        <ele>10.8</ele>
        <time>2023-01-28T09:42:47Z</time>
      </trkpt>
      <trkpt lat="36.4118480" lon="-6.0668890">
        <ele>10.4</ele>
        <time>2023-01-28T09:42:48Z</time>
      </trkpt>
      <trkpt lat="36.4117930" lon="-6.0668390">
        <ele>10.4</ele>
        <time>2023-01-28T09:42:49Z</time>
      </trkpt>
      <trkpt lat="36.4117430" lon="-6.0667970">
        <ele>10.2</ele>
        <time>2023-01-28T09:42:50Z</time>
      </trkpt>
      <trkpt lat="36.4116950" lon="-6.0667550">
        <ele>10.2</ele>
        <time>2023-01-28T09:42:51Z</time>
      </trkpt>
      <trkpt lat="36.4116440" lon="-6.0667060">
        <ele>10.0</ele>
        <time>2023-01-28T09:42:52Z</time>
      </trkpt>
      <trkpt lat="36.4115890" lon="-6.0666630">
        <ele>10.4</ele>
        <time>2023-01-28T09:42:53Z</time>
      </trkpt>
      <trkpt lat="36.4115370" lon="-6.0666160">
        <ele>10.4</ele>
        <time>2023-01-28T09:42:54Z</time>
      </trkpt>
      <trkpt lat="36.4114910" lon="-6.0665730">
        <ele>9.8</ele>
        <time>2023-01-28T09:42:55Z</time>
      </trkpt>
      <trkpt lat="36.4114360" lon="-6.0665210">
        <ele>9.6</ele>
        <time>2023-01-28T09:42:56Z</time>
      </trkpt>
      <trkpt lat="36.4113940" lon="-6.0664800">
        <ele>9.2</ele>
        <time>2023-01-28T09:42:57Z</time>
      </trkpt>
      <trkpt lat="36.4113480" lon="-6.0664400">
        <ele>9.4</ele>
        <time>2023-01-28T09:42:58Z</time>
      </trkpt>
      <trkpt lat="36.4112980" lon="-6.0663940">
        <ele>8.6</ele>
        <time>2023-01-28T09:42:59Z</time>
      </trkpt>
      <trkpt lat="36.4112540" lon="-6.0663500">
        <ele>8.8</ele>
        <time>2023-01-28T09:43:00Z</time>
      </trkpt>
      <trkpt lat="36.4112050" lon="-6.0663020">
        <ele>9.0</ele>
        <time>2023-01-28T09:43:01Z</time>
      </trkpt>
      <trkpt lat="36.4111490" lon="-6.0662560">
        <ele>9.2</ele>
        <time>2023-01-28T09:43:02Z</time>
      </trkpt>
      <trkpt lat="36.4111050" lon="-6.0662160">
        <ele>8.6</ele>
        <time>2023-01-28T09:43:03Z</time>
      </trkpt>
      <trkpt lat="36.4110560" lon="-6.0661700">
        <ele>9.0</ele>
        <time>2023-01-28T09:43:04Z</time>
      </trkpt>
      <trkpt lat="36.4110080" lon="-6.0661180">
        <ele>9.6</ele>
        <time>2023-01-28T09:43:05Z</time>
      </trkpt>
      <trkpt lat="36.4109660" lon="-6.0660740">
        <ele>9.6</ele>
        <time>2023-01-28T09:43:06Z</time>
      </trkpt>
      <trkpt lat="36.4109160" lon="-6.0660280">
        <ele>9.2</ele>
        <time>2023-01-28T09:43:07Z</time>
      </trkpt>
      <trkpt lat="36.4108650" lon="-6.0659850">
        <ele>9.2</ele>
        <time>2023-01-28T09:43:08Z</time>
      </trkpt>
      <trkpt lat="36.4108120" lon="-6.0659410">
        <ele>9.0</ele>
        <time>2023-01-28T09:43:09Z</time>
      </trkpt>
      <trkpt lat="36.4107610" lon="-6.0659010">
        <ele>9.2</ele>
        <time>2023-01-28T09:43:10Z</time>
      </trkpt>
      <trkpt lat="36.4107160" lon="-6.0658500">
        <ele>9.4</ele>
        <time>2023-01-28T09:43:11Z</time>
      </trkpt>
      <trkpt lat="36.4106630" lon="-6.0657970">
        <ele>9.4</ele>
        <time>2023-01-28T09:43:12Z</time>
      </trkpt>
      <trkpt lat="36.4106080" lon="-6.0657450">
        <ele>9.2</ele>
        <time>2023-01-28T09:43:13Z</time>
      </trkpt>
      <trkpt lat="36.4105560" lon="-6.0657020">
        <ele>9.0</ele>
        <time>2023-01-28T09:43:14Z</time>
      </trkpt>
      <trkpt lat="36.4105090" lon="-6.0656570">
        <ele>8.4</ele>
        <time>2023-01-28T09:43:15Z</time>
      </trkpt>
      <trkpt lat="36.4104590" lon="-6.0656120">
        <ele>8.4</ele>
        <time>2023-01-28T09:43:16Z</time>
      </trkpt>
      <trkpt lat="36.4104130" lon="-6.0655720">
        <ele>9.2</ele>
        <time>2023-01-28T09:43:17Z</time>
      </trkpt>
      <trkpt lat="36.4103680" lon="-6.0655280">
        <ele>8.8</ele>
        <time>2023-01-28T09:43:18Z</time>
      </trkpt>
      <trkpt lat="36.4103230" lon="-6.0654980">
        <ele>8.4</ele>
        <time>2023-01-28T09:43:19Z</time>
      </trkpt>
      <trkpt lat="36.4102740" lon="-6.0654560">
        <ele>9.0</ele>
        <time>2023-01-28T09:43:20Z</time>
      </trkpt>
      <trkpt lat="36.4102310" lon="-6.0654190">
        <ele>9.0</ele>
        <time>2023-01-28T09:43:21Z</time>
      </trkpt>
      <trkpt lat="36.4101860" lon="-6.0653740">
        <ele>8.8</ele>
        <time>2023-01-28T09:43:22Z</time>
      </trkpt>
      <trkpt lat="36.4101410" lon="-6.0653300">
        <ele>8.8</ele>
        <time>2023-01-28T09:43:23Z</time>
      </trkpt>
      <trkpt lat="36.4100890" lon="-6.0652760">
        <ele>8.8</ele>
        <time>2023-01-28T09:43:24Z</time>
      </trkpt>
      <trkpt lat="36.4100450" lon="-6.0652420">
        <ele>8.8</ele>
        <time>2023-01-28T09:43:25Z</time>
      </trkpt>
      <trkpt lat="36.4100030" lon="-6.0652090">
        <ele>8.8</ele>
        <time>2023-01-28T09:43:26Z</time>
      </trkpt>
      <trkpt lat="36.4099610" lon="-6.0651740">
        <ele>9.0</ele>
        <time>2023-01-28T09:43:27Z</time>
      </trkpt>
      <trkpt lat="36.4099100" lon="-6.0651320">
        <ele>9.0</ele>
        <time>2023-01-28T09:43:28Z</time>
      </trkpt>
      <trkpt lat="36.4098630" lon="-6.0650970">
        <ele>9.0</ele>
        <time>2023-01-28T09:43:29Z</time>
      </trkpt>
      <trkpt lat="36.4098230" lon="-6.0650490">
        <ele>9.4</ele>
        <time>2023-01-28T09:43:30Z</time>
      </trkpt>
      <trkpt lat="36.4097930" lon="-6.0650080">
        <ele>9.4</ele>
        <time>2023-01-28T09:43:31Z</time>
      </trkpt>
      <trkpt lat="36.4097510" lon="-6.0649700">
        <ele>9.6</ele>
        <time>2023-01-28T09:43:32Z</time>
      </trkpt>
      <trkpt lat="36.4097110" lon="-6.0649310">
        <ele>10.0</ele>
        <time>2023-01-28T09:43:33Z</time>
      </trkpt>
      <trkpt lat="36.4096790" lon="-6.0649020">
        <ele>10.0</ele>
        <time>2023-01-28T09:43:34Z</time>
      </trkpt>
      <trkpt lat="36.4096460" lon="-6.0648790">
        <ele>10.0</ele>
        <time>2023-01-28T09:43:35Z</time>
      </trkpt>
      <trkpt lat="36.4096140" lon="-6.0648550">
        <ele>10.0</ele>
        <time>2023-01-28T09:43:36Z</time>
      </trkpt>
      <trkpt lat="36.4095780" lon="-6.0648260">
        <ele>10.0</ele>
        <time>2023-01-28T09:43:37Z</time>
      </trkpt>
      <trkpt lat="36.4095450" lon="-6.0647940">
        <ele>10.2</ele>
        <time>2023-01-28T09:43:38Z</time>
      </trkpt>
      <trkpt lat="36.4095120" lon="-6.0647600">
        <ele>9.6</ele>
        <time>2023-01-28T09:43:39Z</time>
      </trkpt>
      <trkpt lat="36.4094730" lon="-6.0647280">
        <ele>9.8</ele>
        <time>2023-01-28T09:43:40Z</time>
      </trkpt>
      <trkpt lat="36.4094460" lon="-6.0646990">
        <ele>10.4</ele>
        <time>2023-01-28T09:43:41Z</time>
      </trkpt>
      <trkpt lat="36.4094140" lon="-6.0646660">
        <ele>10.6</ele>
        <time>2023-01-28T09:43:42Z</time>
      </trkpt>
      <trkpt lat="36.4093720" lon="-6.0646240">
        <ele>10.8</ele>
        <time>2023-01-28T09:43:43Z</time>
      </trkpt>
      <trkpt lat="36.4093380" lon="-6.0645850">
        <ele>10.8</ele>
        <time>2023-01-28T09:43:44Z</time>
      </trkpt>
      <trkpt lat="36.4092960" lon="-6.0645500">
        <ele>10.4</ele>
        <time>2023-01-28T09:43:45Z</time>
      </trkpt>
      <trkpt lat="36.4092580" lon="-6.0645160">
        <ele>10.8</ele>
        <time>2023-01-28T09:43:46Z</time>
      </trkpt>
      <trkpt lat="36.4092250" lon="-6.0644830">
        <ele>10.6</ele>
        <time>2023-01-28T09:43:47Z</time>
      </trkpt>
      <trkpt lat="36.4091900" lon="-6.0644440">
        <ele>10.6</ele>
        <time>2023-01-28T09:43:48Z</time>
      </trkpt>
      <trkpt lat="36.4091560" lon="-6.0644200">
        <ele>11.6</ele>
        <time>2023-01-28T09:43:49Z</time>
      </trkpt>
      <trkpt lat="36.4091280" lon="-6.0643850">
        <ele>11.8</ele>
        <time>2023-01-28T09:43:50Z</time>
      </trkpt>
      <trkpt lat="36.4090970" lon="-6.0643490">
        <ele>11.6</ele>
        <time>2023-01-28T09:43:51Z</time>
      </trkpt>
      <trkpt lat="36.4090630" lon="-6.0643100">
        <ele>11.0</ele>
        <time>2023-01-28T09:43:52Z</time>
      </trkpt>
      <trkpt lat="36.4090270" lon="-6.0642760">
        <ele>10.6</ele>
        <time>2023-01-28T09:43:53Z</time>
      </trkpt>
      <trkpt lat="36.4089890" lon="-6.0642440">
        <ele>11.2</ele>
        <time>2023-01-28T09:43:54Z</time>
      </trkpt>
      <trkpt lat="36.4089610" lon="-6.0642140">
        <ele>11.4</ele>
        <time>2023-01-28T09:43:55Z</time>
      </trkpt>
      <trkpt lat="36.4089310" lon="-6.0641700">
        <ele>11.4</ele>
        <time>2023-01-28T09:43:56Z</time>
      </trkpt>
      <trkpt lat="36.4088950" lon="-6.0641390">
        <ele>11.2</ele>
        <time>2023-01-28T09:43:57Z</time>
      </trkpt>
      <trkpt lat="36.4088650" lon="-6.0641030">
        <ele>11.4</ele>
        <time>2023-01-28T09:43:58Z</time>
      </trkpt>
      <trkpt lat="36.4088310" lon="-6.0640670">
        <ele>12.0</ele>
        <time>2023-01-28T09:43:59Z</time>
      </trkpt>
      <trkpt lat="36.4088030" lon="-6.0640430">
        <ele>12.0</ele>
        <time>2023-01-28T09:44:00Z</time>
      </trkpt>
      <trkpt lat="36.4087670" lon="-6.0639990">
        <ele>12.2</ele>
        <time>2023-01-28T09:44:01Z</time>
      </trkpt>
      <trkpt lat="36.4087400" lon="-6.0639760">
        <ele>12.8</ele>
        <time>2023-01-28T09:44:02Z</time>
      </trkpt>
      <trkpt lat="36.4087060" lon="-6.0639480">
        <ele>12.6</ele>
        <time>2023-01-28T09:44:03Z</time>
      </trkpt>
      <trkpt lat="36.4086800" lon="-6.0639200">
        <ele>12.4</ele>
        <time>2023-01-28T09:44:04Z</time>
      </trkpt>
      <trkpt lat="36.4086540" lon="-6.0638910">
        <ele>12.4</ele>
        <time>2023-01-28T09:44:05Z</time>
      </trkpt>
      <trkpt lat="36.4086340" lon="-6.0638730">
        <ele>12.8</ele>
        <time>2023-01-28T09:44:06Z</time>
      </trkpt>
      <trkpt lat="36.4086090" lon="-6.0638640">
        <ele>12.6</ele>
        <time>2023-01-28T09:44:07Z</time>
      </trkpt>
      <trkpt lat="36.4085850" lon="-6.0638640">
        <ele>12.4</ele>
        <time>2023-01-28T09:44:08Z</time>
      </trkpt>
      <trkpt lat="36.4085650" lon="-6.0638830">
        <ele>12.2</ele>
        <time>2023-01-28T09:44:09Z</time>
      </trkpt>
      <trkpt lat="36.4085510" lon="-6.0639020">
        <ele>12.2</ele>
        <time>2023-01-28T09:44:10Z</time>
      </trkpt>
      <trkpt lat="36.4085370" lon="-6.0639380">
        <ele>12.6</ele>
        <time>2023-01-28T09:44:11Z</time>
      </trkpt>
      <trkpt lat="36.4085220" lon="-6.0639780">
        <ele>12.6</ele>
        <time>2023-01-28T09:44:12Z</time>
      </trkpt>
      <trkpt lat="36.4085070" lon="-6.0640250">
        <ele>12.6</ele>
        <time>2023-01-28T09:44:13Z</time>
      </trkpt>
      <trkpt lat="36.4084910" lon="-6.0640570">
        <ele>12.2</ele>
        <time>2023-01-28T09:44:14Z</time>
      </trkpt>
      <trkpt lat="36.4084770" lon="-6.0640880">
        <ele>12.2</ele>
        <time>2023-01-28T09:44:15Z</time>
      </trkpt>
      <trkpt lat="36.4084600" lon="-6.0641250">
        <ele>12.2</ele>
        <time>2023-01-28T09:44:16Z</time>
      </trkpt>
      <trkpt lat="36.4084410" lon="-6.0641620">
        <ele>12.6</ele>
        <time>2023-01-28T09:44:17Z</time>
      </trkpt>
      <trkpt lat="36.4084200" lon="-6.0642090">
        <ele>12.4</ele>
        <time>2023-01-28T09:44:18Z</time>
      </trkpt>
      <trkpt lat="36.4083980" lon="-6.0642500">
        <ele>12.4</ele>
        <time>2023-01-28T09:44:19Z</time>
      </trkpt>
      <trkpt lat="36.4083820" lon="-6.0642940">
        <ele>12.6</ele>
        <time>2023-01-28T09:44:20Z</time>
      </trkpt>
      <trkpt lat="36.4083660" lon="-6.0643400">
        <ele>12.6</ele>
        <time>2023-01-28T09:44:21Z</time>
      </trkpt>
      <trkpt lat="36.4083510" lon="-6.0643940">
        <ele>12.4</ele>
        <time>2023-01-28T09:44:22Z</time>
      </trkpt>
      <trkpt lat="36.4083310" lon="-6.0644470">
        <ele>12.4</ele>
        <time>2023-01-28T09:44:23Z</time>
      </trkpt>
      <trkpt lat="36.4083100" lon="-6.0645020">
        <ele>12.0</ele>
        <time>2023-01-28T09:44:24Z</time>
      </trkpt>
      <trkpt lat="36.4082880" lon="-6.0645590">
        <ele>11.4</ele>
        <time>2023-01-28T09:44:25Z</time>
      </trkpt>
      <trkpt lat="36.4082740" lon="-6.0646160">
        <ele>11.2</ele>
        <time>2023-01-28T09:44:26Z</time>
      </trkpt>
      <trkpt lat="36.4082520" lon="-6.0646780">
        <ele>11.6</ele>
        <time>2023-01-28T09:44:27Z</time>
      </trkpt>
      <trkpt lat="36.4082330" lon="-6.0647230">
        <ele>11.6</ele>
        <time>2023-01-28T09:44:28Z</time>
      </trkpt>
      <trkpt lat="36.4082150" lon="-6.0647820">
        <ele>11.6</ele>
        <time>2023-01-28T09:44:29Z</time>
      </trkpt>
      <trkpt lat="36.4081960" lon="-6.0648380">
        <ele>11.2</ele>
        <time>2023-01-28T09:44:30Z</time>
      </trkpt>
      <trkpt lat="36.4081750" lon="-6.0648940">
        <ele>11.4</ele>
        <time>2023-01-28T09:44:31Z</time>
      </trkpt>
      <trkpt lat="36.4081590" lon="-6.0649440">
        <ele>11.4</ele>
        <time>2023-01-28T09:44:32Z</time>
      </trkpt>
      <trkpt lat="36.4081430" lon="-6.0650020">
        <ele>11.6</ele>
        <time>2023-01-28T09:44:33Z</time>
      </trkpt>
      <trkpt lat="36.4081210" lon="-6.0650570">
        <ele>11.6</ele>
        <time>2023-01-28T09:44:34Z</time>
      </trkpt>
      <trkpt lat="36.4081030" lon="-6.0651000">
        <ele>11.6</ele>
        <time>2023-01-28T09:44:35Z</time>
      </trkpt>
      <trkpt lat="36.4080790" lon="-6.0651460">
        <ele>11.8</ele>
        <time>2023-01-28T09:44:36Z</time>
      </trkpt>
      <trkpt lat="36.4080570" lon="-6.0651920">
        <ele>11.6</ele>
        <time>2023-01-28T09:44:37Z</time>
      </trkpt>
      <trkpt lat="36.4080380" lon="-6.0652410">
        <ele>11.6</ele>
        <time>2023-01-28T09:44:38Z</time>
      </trkpt>
      <trkpt lat="36.4080130" lon="-6.0652830">
        <ele>11.6</ele>
        <time>2023-01-28T09:44:39Z</time>
      </trkpt>
      <trkpt lat="36.4079900" lon="-6.0653340">
        <ele>11.8</ele>
        <time>2023-01-28T09:44:40Z</time>
      </trkpt>
      <trkpt lat="36.4079750" lon="-6.0653810">
        <ele>11.8</ele>
        <time>2023-01-28T09:44:41Z</time>
      </trkpt>
      <trkpt lat="36.4079530" lon="-6.0654380">
        <ele>12.0</ele>
        <time>2023-01-28T09:44:42Z</time>
      </trkpt>
      <trkpt lat="36.4079280" lon="-6.0654870">
        <ele>11.8</ele>
        <time>2023-01-28T09:44:43Z</time>
      </trkpt>
      <trkpt lat="36.4079000" lon="-6.0655400">
        <ele>11.8</ele>
        <time>2023-01-28T09:44:44Z</time>
      </trkpt>
      <trkpt lat="36.4078710" lon="-6.0655890">
        <ele>11.8</ele>
        <time>2023-01-28T09:44:45Z</time>
      </trkpt>
      <trkpt lat="36.4078550" lon="-6.0656430">
        <ele>11.8</ele>
        <time>2023-01-28T09:44:46Z</time>
      </trkpt>
      <trkpt lat="36.4078290" lon="-6.0656870">
        <ele>11.8</ele>
        <time>2023-01-28T09:44:47Z</time>
      </trkpt>
      <trkpt lat="36.4078010" lon="-6.0657340">
        <ele>11.8</ele>
        <time>2023-01-28T09:44:48Z</time>
      </trkpt>
      <trkpt lat="36.4077730" lon="-6.0657740">
        <ele>11.6</ele>
        <time>2023-01-28T09:44:49Z</time>
      </trkpt>
      <trkpt lat="36.4077460" lon="-6.0658250">
        <ele>11.6</ele>
        <time>2023-01-28T09:44:50Z</time>
      </trkpt>
      <trkpt lat="36.4077180" lon="-6.0658730">
        <ele>11.4</ele>
        <time>2023-01-28T09:44:51Z</time>
      </trkpt>
      <trkpt lat="36.4076870" lon="-6.0659170">
        <ele>11.6</ele>
        <time>2023-01-28T09:44:52Z</time>
      </trkpt>
      <trkpt lat="36.4076720" lon="-6.0659620">
        <ele>11.6</ele>
        <time>2023-01-28T09:44:53Z</time>
      </trkpt>
      <trkpt lat="36.4076460" lon="-6.0660150">
        <ele>11.4</ele>
        <time>2023-01-28T09:44:54Z</time>
      </trkpt>
      <trkpt lat="36.4076210" lon="-6.0660630">
        <ele>11.4</ele>
        <time>2023-01-28T09:44:55Z</time>
      </trkpt>
      <trkpt lat="36.4075920" lon="-6.0661070">
        <ele>11.4</ele>
        <time>2023-01-28T09:44:56Z</time>
      </trkpt>
      <trkpt lat="36.4075650" lon="-6.0661530">
        <ele>11.4</ele>
        <time>2023-01-28T09:44:57Z</time>
      </trkpt>
      <trkpt lat="36.4075400" lon="-6.0661960">
        <ele>11.6</ele>
        <time>2023-01-28T09:44:58Z</time>
      </trkpt>
      <trkpt lat="36.4075180" lon="-6.0662460">
        <ele>11.6</ele>
        <time>2023-01-28T09:44:59Z</time>
      </trkpt>
      <trkpt lat="36.4074960" lon="-6.0662920">
        <ele>11.6</ele>
        <time>2023-01-28T09:45:00Z</time>
      </trkpt>
      <trkpt lat="36.4074690" lon="-6.0663400">
        <ele>11.6</ele>
        <time>2023-01-28T09:45:01Z</time>
      </trkpt>
      <trkpt lat="36.4074370" lon="-6.0663870">
        <ele>11.8</ele>
        <time>2023-01-28T09:45:02Z</time>
      </trkpt>
      <trkpt lat="36.4074060" lon="-6.0664360">
        <ele>11.8</ele>
        <time>2023-01-28T09:45:03Z</time>
      </trkpt>
      <trkpt lat="36.4073880" lon="-6.0664840">
        <ele>11.8</ele>
        <time>2023-01-28T09:45:04Z</time>
      </trkpt>
      <trkpt lat="36.4073680" lon="-6.0665340">
        <ele>11.8</ele>
        <time>2023-01-28T09:45:05Z</time>
      </trkpt>
      <trkpt lat="36.4073390" lon="-6.0665750">
        <ele>11.8</ele>
        <time>2023-01-28T09:45:06Z</time>
      </trkpt>
      <trkpt lat="36.4073180" lon="-6.0666290">
        <ele>11.8</ele>
        <time>2023-01-28T09:45:07Z</time>
      </trkpt>
      <trkpt lat="36.4072900" lon="-6.0666760">
        <ele>11.8</ele>
        <time>2023-01-28T09:45:08Z</time>
      </trkpt>
      <trkpt lat="36.4072650" lon="-6.0667180">
        <ele>11.4</ele>
        <time>2023-01-28T09:45:09Z</time>
      </trkpt>
      <trkpt lat="36.4072420" lon="-6.0667580">
        <ele>11.4</ele>
        <time>2023-01-28T09:45:10Z</time>
      </trkpt>
      <trkpt lat="36.4072170" lon="-6.0668030">
        <ele>11.6</ele>
        <time>2023-01-28T09:45:11Z</time>
      </trkpt>
      <trkpt lat="36.4071860" lon="-6.0668490">
        <ele>11.6</ele>
        <time>2023-01-28T09:45:12Z</time>
      </trkpt>
      <trkpt lat="36.4071500" lon="-6.0668880">
        <ele>11.6</ele>
        <time>2023-01-28T09:45:13Z</time>
      </trkpt>
      <trkpt lat="36.4071170" lon="-6.0669280">
        <ele>11.6</ele>
        <time>2023-01-28T09:45:14Z</time>
      </trkpt>
      <trkpt lat="36.4070880" lon="-6.0669670">
        <ele>11.6</ele>
        <time>2023-01-28T09:45:15Z</time>
      </trkpt>
      <trkpt lat="36.4070620" lon="-6.0670120">
        <ele>11.6</ele>
        <time>2023-01-28T09:45:16Z</time>
      </trkpt>
      <trkpt lat="36.4070290" lon="-6.0670490">
        <ele>11.6</ele>
        <time>2023-01-28T09:45:17Z</time>
      </trkpt>
      <trkpt lat="36.4070000" lon="-6.0670970">
        <ele>11.6</ele>
        <time>2023-01-28T09:45:18Z</time>
      </trkpt>
      <trkpt lat="36.4069750" lon="-6.0671380">
        <ele>11.4</ele>
        <time>2023-01-28T09:45:19Z</time>
      </trkpt>
      <trkpt lat="36.4069360" lon="-6.0671720">
        <ele>11.4</ele>
        <time>2023-01-28T09:45:20Z</time>
      </trkpt>
      <trkpt lat="36.4068990" lon="-6.0671990">
        <ele>11.4</ele>
        <time>2023-01-28T09:45:21Z</time>
      </trkpt>
      <trkpt lat="36.4068670" lon="-6.0672350">
        <ele>11.4</ele>
        <time>2023-01-28T09:45:22Z</time>
      </trkpt>
      <trkpt lat="36.4068340" lon="-6.0672590">
        <ele>11.6</ele>
        <time>2023-01-28T09:45:23Z</time>
      </trkpt>
      <trkpt lat="36.4068040" lon="-6.0672710">
        <ele>11.6</ele>
        <time>2023-01-28T09:45:24Z</time>
      </trkpt>
      <trkpt lat="36.4067810" lon="-6.0672860">
        <ele>11.6</ele>
        <time>2023-01-28T09:45:25Z</time>
      </trkpt>
      <trkpt lat="36.4067640" lon="-6.0673180">
        <ele>11.6</ele>
        <time>2023-01-28T09:45:26Z</time>
      </trkpt>
      <trkpt lat="36.4067530" lon="-6.0673500">
        <ele>12.0</ele>
        <time>2023-01-28T09:45:27Z</time>
      </trkpt>
      <trkpt lat="36.4067460" lon="-6.0673850">
        <ele>11.8</ele>
        <time>2023-01-28T09:45:28Z</time>
      </trkpt>
      <trkpt lat="36.4067380" lon="-6.0674200">
        <ele>12.0</ele>
        <time>2023-01-28T09:45:29Z</time>
      </trkpt>
      <trkpt lat="36.4067460" lon="-6.0674620">
        <ele>12.0</ele>
        <time>2023-01-28T09:45:30Z</time>
      </trkpt>
      <trkpt lat="36.4067490" lon="-6.0675030">
        <ele>12.2</ele>
        <time>2023-01-28T09:45:31Z</time>
      </trkpt>
      <trkpt lat="36.4067560" lon="-6.0675500">
        <ele>12.0</ele>
        <time>2023-01-28T09:45:32Z</time>
      </trkpt>
      <trkpt lat="36.4067560" lon="-6.0675940">
        <ele>12.0</ele>
        <time>2023-01-28T09:45:33Z</time>
      </trkpt>
      <trkpt lat="36.4067580" lon="-6.0676390">
        <ele>12.4</ele>
        <time>2023-01-28T09:45:34Z</time>
      </trkpt>
      <trkpt lat="36.4067660" lon="-6.0676830">
        <ele>12.8</ele>
        <time>2023-01-28T09:45:35Z</time>
      </trkpt>
      <trkpt lat="36.4067800" lon="-6.0677350">
        <ele>12.8</ele>
        <time>2023-01-28T09:45:36Z</time>
      </trkpt>
      <trkpt lat="36.4067950" lon="-6.0677870">
        <ele>12.6</ele>
        <time>2023-01-28T09:45:37Z</time>
      </trkpt>
      <trkpt lat="36.4068070" lon="-6.0678350">
        <ele>12.8</ele>
        <time>2023-01-28T09:45:38Z</time>
      </trkpt>
      <trkpt lat="36.4068250" lon="-6.0678750">
        <ele>12.6</ele>
        <time>2023-01-28T09:45:39Z</time>
      </trkpt>
      <trkpt lat="36.4068410" lon="-6.0679210">
        <ele>12.6</ele>
        <time>2023-01-28T09:45:40Z</time>
      </trkpt>
      <trkpt lat="36.4068600" lon="-6.0679640">
        <ele>13.0</ele>
        <time>2023-01-28T09:45:41Z</time>
      </trkpt>
      <trkpt lat="36.4068750" lon="-6.0680050">
        <ele>12.8</ele>
        <time>2023-01-28T09:45:42Z</time>
      </trkpt>
      <trkpt lat="36.4068880" lon="-6.0680510">
        <ele>13.0</ele>
        <time>2023-01-28T09:45:43Z</time>
      </trkpt>
      <trkpt lat="36.4068980" lon="-6.0680940">
        <ele>13.0</ele>
        <time>2023-01-28T09:45:44Z</time>
      </trkpt>
      <trkpt lat="36.4069110" lon="-6.0681410">
        <ele>12.6</ele>
        <time>2023-01-28T09:45:45Z</time>
      </trkpt>
      <trkpt lat="36.4069220" lon="-6.0681920">
        <ele>12.8</ele>
        <time>2023-01-28T09:45:46Z</time>
      </trkpt>
      <trkpt lat="36.4069340" lon="-6.0682480">
        <ele>12.8</ele>
        <time>2023-01-28T09:45:47Z</time>
      </trkpt>
      <trkpt lat="36.4069500" lon="-6.0682970">
        <ele>12.6</ele>
        <time>2023-01-28T09:45:48Z</time>
      </trkpt>
      <trkpt lat="36.4069570" lon="-6.0683420">
        <ele>12.6</ele>
        <time>2023-01-28T09:45:49Z</time>
      </trkpt>
      <trkpt lat="36.4069620" lon="-6.0683800">
        <ele>12.6</ele>
        <time>2023-01-28T09:45:50Z</time>
      </trkpt>
      <trkpt lat="36.4069710" lon="-6.0684340">
        <ele>12.8</ele>
        <time>2023-01-28T09:45:51Z</time>
      </trkpt>
      <trkpt lat="36.4069800" lon="-6.0684830">
        <ele>12.8</ele>
        <time>2023-01-28T09:45:52Z</time>
      </trkpt>
      <trkpt lat="36.4069890" lon="-6.0685280">
        <ele>13.0</ele>
        <time>2023-01-28T09:45:53Z</time>
      </trkpt>
      <trkpt lat="36.4069980" lon="-6.0685720">
        <ele>13.4</ele>
        <time>2023-01-28T09:45:54Z</time>
      </trkpt>
      <trkpt lat="36.4070080" lon="-6.0686150">
        <ele>13.6</ele>
        <time>2023-01-28T09:45:55Z</time>
      </trkpt>
      <trkpt lat="36.4070150" lon="-6.0686610">
        <ele>13.2</ele>
        <time>2023-01-28T09:45:56Z</time>
      </trkpt>
      <trkpt lat="36.4070230" lon="-6.0687140">
        <ele>13.2</ele>
        <time>2023-01-28T09:45:57Z</time>
      </trkpt>
      <trkpt lat="36.4070330" lon="-6.0687650">
        <ele>13.2</ele>
        <time>2023-01-28T09:45:58Z</time>
      </trkpt>
      <trkpt lat="36.4070410" lon="-6.0688100">
        <ele>13.4</ele>
        <time>2023-01-28T09:45:59Z</time>
      </trkpt>
      <trkpt lat="36.4070510" lon="-6.0688510">
        <ele>13.6</ele>
        <time>2023-01-28T09:46:00Z</time>
      </trkpt>
      <trkpt lat="36.4070650" lon="-6.0688900">
        <ele>13.6</ele>
        <time>2023-01-28T09:46:01Z</time>
      </trkpt>
      <trkpt lat="36.4070820" lon="-6.0689340">
        <ele>13.4</ele>
        <time>2023-01-28T09:46:02Z</time>
      </trkpt>
      <trkpt lat="36.4070930" lon="-6.0689760">
        <ele>13.4</ele>
        <time>2023-01-28T09:46:03Z</time>
      </trkpt>
      <trkpt lat="36.4071010" lon="-6.0690190">
        <ele>13.6</ele>
        <time>2023-01-28T09:46:04Z</time>
      </trkpt>
      <trkpt lat="36.4071070" lon="-6.0690740">
        <ele>13.8</ele>
        <time>2023-01-28T09:46:05Z</time>
      </trkpt>
      <trkpt lat="36.4071080" lon="-6.0691150">
        <ele>13.6</ele>
        <time>2023-01-28T09:46:06Z</time>
      </trkpt>
      <trkpt lat="36.4071130" lon="-6.0691610">
        <ele>13.8</ele>
        <time>2023-01-28T09:46:07Z</time>
      </trkpt>
      <trkpt lat="36.4071230" lon="-6.0692120">
        <ele>13.8</ele>
        <time>2023-01-28T09:46:08Z</time>
      </trkpt>
      <trkpt lat="36.4071240" lon="-6.0692510">
        <ele>14.0</ele>
        <time>2023-01-28T09:46:09Z</time>
      </trkpt>
      <trkpt lat="36.4071300" lon="-6.0692980">
        <ele>13.8</ele>
        <time>2023-01-28T09:46:10Z</time>
      </trkpt>
      <trkpt lat="36.4071430" lon="-6.0693550">
        <ele>13.8</ele>
        <time>2023-01-28T09:46:11Z</time>
      </trkpt>
      <trkpt lat="36.4071550" lon="-6.0693980">
        <ele>13.8</ele>
        <time>2023-01-28T09:46:12Z</time>
      </trkpt>
      <trkpt lat="36.4071680" lon="-6.0694230">
        <ele>14.0</ele>
        <time>2023-01-28T09:46:14Z</time>
      </trkpt>
      <trkpt lat="36.4071880" lon="-6.0695100">
        <ele>14.0</ele>
        <time>2023-01-28T09:46:15Z</time>
      </trkpt>
      <trkpt lat="36.4071940" lon="-6.0695560">
        <ele>13.8</ele>
        <time>2023-01-28T09:46:17Z</time>
      </trkpt>
      <trkpt lat="36.4072130" lon="-6.0696500">
        <ele>14.0</ele>
        <time>2023-01-28T09:46:18Z</time>
      </trkpt>
      <trkpt lat="36.4072240" lon="-6.0696980">
        <ele>14.4</ele>
        <time>2023-01-28T09:46:20Z</time>
      </trkpt>
      <trkpt lat="36.4072440" lon="-6.0697870">
        <ele>14.4</ele>
        <time>2023-01-28T09:46:21Z</time>
      </trkpt>
      <trkpt lat="36.4072530" lon="-6.0698320">
        <ele>14.8</ele>
        <time>2023-01-28T09:46:22Z</time>
      </trkpt>
      <trkpt lat="36.4072630" lon="-6.0698740">
        <ele>15.0</ele>
        <time>2023-01-28T09:46:23Z</time>
      </trkpt>
      <trkpt lat="36.4072640" lon="-6.0699140">
        <ele>14.8</ele>
        <time>2023-01-28T09:46:24Z</time>
      </trkpt>
      <trkpt lat="36.4072740" lon="-6.0699570">
        <ele>14.8</ele>
        <time>2023-01-28T09:46:25Z</time>
      </trkpt>
      <trkpt lat="36.4072830" lon="-6.0700000">
        <ele>14.8</ele>
        <time>2023-01-28T09:46:27Z</time>
      </trkpt>
      <trkpt lat="36.4072860" lon="-6.0700840">
        <ele>15.0</ele>
        <time>2023-01-28T09:46:28Z</time>
      </trkpt>
      <trkpt lat="36.4073100" lon="-6.0701690">
        <ele>15.0</ele>
        <time>2023-01-28T09:46:30Z</time>
      </trkpt>
      <trkpt lat="36.4073230" lon="-6.0702120">
        <ele>15.0</ele>
        <time>2023-01-28T09:46:31Z</time>
      </trkpt>
      <trkpt lat="36.4073330" lon="-6.0702520">
        <ele>15.2</ele>
        <time>2023-01-28T09:46:32Z</time>
      </trkpt>
      <trkpt lat="36.4073440" lon="-6.0703000">
        <ele>15.2</ele>
        <time>2023-01-28T09:46:33Z</time>
      </trkpt>
      <trkpt lat="36.4073540" lon="-6.0703500">
        <ele>15.2</ele>
        <time>2023-01-28T09:46:34Z</time>
      </trkpt>
      <trkpt lat="36.4073690" lon="-6.0703910">
        <ele>15.2</ele>
        <time>2023-01-28T09:46:35Z</time>
      </trkpt>
      <trkpt lat="36.4073760" lon="-6.0704370">
        <ele>15.8</ele>
        <time>2023-01-28T09:46:36Z</time>
      </trkpt>
      <trkpt lat="36.4073800" lon="-6.0704790">
        <ele>16.0</ele>
        <time>2023-01-28T09:46:37Z</time>
      </trkpt>
      <trkpt lat="36.4073910" lon="-6.0705240">
        <ele>16.0</ele>
        <time>2023-01-28T09:46:39Z</time>
      </trkpt>
      <trkpt lat="36.4074100" lon="-6.0705990">
        <ele>15.8</ele>
        <time>2023-01-28T09:46:40Z</time>
      </trkpt>
      <trkpt lat="36.4074190" lon="-6.0706310">
        <ele>16.0</ele>
        <time>2023-01-28T09:46:42Z</time>
      </trkpt>
      <trkpt lat="36.4074320" lon="-6.0706970">
        <ele>16.2</ele>
        <time>2023-01-28T09:46:43Z</time>
      </trkpt>
      <trkpt lat="36.4074600" lon="-6.0707750">
        <ele>16.4</ele>
        <time>2023-01-28T09:46:45Z</time>
      </trkpt>
      <trkpt lat="36.4074670" lon="-6.0708180">
        <ele>16.6</ele>
        <time>2023-01-28T09:46:46Z</time>
      </trkpt>
      <trkpt lat="36.4074730" lon="-6.0708550">
        <ele>16.8</ele>
        <time>2023-01-28T09:46:48Z</time>
      </trkpt>
      <trkpt lat="36.4074890" lon="-6.0709330">
        <ele>17.0</ele>
        <time>2023-01-28T09:46:49Z</time>
      </trkpt>
      <trkpt lat="36.4074990" lon="-6.0710130">
        <ele>17.4</ele>
        <time>2023-01-28T09:46:51Z</time>
      </trkpt>
      <trkpt lat="36.4075060" lon="-6.0710490">
        <ele>17.8</ele>
        <time>2023-01-28T09:46:52Z</time>
      </trkpt>
      <trkpt lat="36.4075110" lon="-6.0710870">
        <ele>17.8</ele>
        <time>2023-01-28T09:46:54Z</time>
      </trkpt>
      <trkpt lat="36.4075240" lon="-6.0711630">
        <ele>17.8</ele>
        <time>2023-01-28T09:46:55Z</time>
      </trkpt>
      <trkpt lat="36.4075330" lon="-6.0712010">
        <ele>18.0</ele>
        <time>2023-01-28T09:46:57Z</time>
      </trkpt>
      <trkpt lat="36.4075510" lon="-6.0712800">
        <ele>18.4</ele>
        <time>2023-01-28T09:46:58Z</time>
      </trkpt>
      <trkpt lat="36.4075620" lon="-6.0713140">
        <ele>18.6</ele>
        <time>2023-01-28T09:47:00Z</time>
      </trkpt>
      <trkpt lat="36.4075740" lon="-6.0713710">
        <ele>18.8</ele>
        <time>2023-01-28T09:47:01Z</time>
      </trkpt>
      <trkpt lat="36.4075850" lon="-6.0714390">
        <ele>19.0</ele>
        <time>2023-01-28T09:47:03Z</time>
      </trkpt>
      <trkpt lat="36.4075910" lon="-6.0714690">
        <ele>19.2</ele>
        <time>2023-01-28T09:47:04Z</time>
      </trkpt>
      <trkpt lat="36.4076000" lon="-6.0714990">
        <ele>19.2</ele>
        <time>2023-01-28T09:47:05Z</time>
      </trkpt>
      <trkpt lat="36.4076060" lon="-6.0715310">
        <ele>19.2</ele>
        <time>2023-01-28T09:47:06Z</time>
      </trkpt>
      <trkpt lat="36.4076170" lon="-6.0715670">
        <ele>19.6</ele>
        <time>2023-01-28T09:47:07Z</time>
      </trkpt>
      <trkpt lat="36.4076330" lon="-6.0716410">
        <ele>19.6</ele>
        <time>2023-01-28T09:47:09Z</time>
      </trkpt>
      <trkpt lat="36.4076370" lon="-6.0716790">
        <ele>20.0</ele>
        <time>2023-01-28T09:47:10Z</time>
      </trkpt>
      <trkpt lat="36.4076380" lon="-6.0717170">
        <ele>19.8</ele>
        <time>2023-01-28T09:47:12Z</time>
      </trkpt>
      <trkpt lat="36.4076460" lon="-6.0718070">
        <ele>20.4</ele>
        <time>2023-01-28T09:47:13Z</time>
      </trkpt>
      <trkpt lat="36.4076550" lon="-6.0718350">
        <ele>20.8</ele>
        <time>2023-01-28T09:47:15Z</time>
      </trkpt>
      <trkpt lat="36.4076620" lon="-6.0719210">
        <ele>20.6</ele>
        <time>2023-01-28T09:47:16Z</time>
      </trkpt>
      <trkpt lat="36.4076770" lon="-6.0720100">
        <ele>20.8</ele>
        <time>2023-01-28T09:47:18Z</time>
      </trkpt>
      <trkpt lat="36.4076830" lon="-6.0720500">
        <ele>20.6</ele>
        <time>2023-01-28T09:47:19Z</time>
      </trkpt>
      <trkpt lat="36.4076950" lon="-6.0720870">
        <ele>20.8</ele>
        <time>2023-01-28T09:47:21Z</time>
      </trkpt>
      <trkpt lat="36.4077150" lon="-6.0721660">
        <ele>20.8</ele>
        <time>2023-01-28T09:47:22Z</time>
      </trkpt>
      <trkpt lat="36.4077180" lon="-6.0722080">
        <ele>21.0</ele>
        <time>2023-01-28T09:47:23Z</time>
      </trkpt>
      <trkpt lat="36.4077180" lon="-6.0722430">
        <ele>21.2</ele>
        <time>2023-01-28T09:47:24Z</time>
      </trkpt>
      <trkpt lat="36.4077220" lon="-6.0722840">
        <ele>20.8</ele>
        <time>2023-01-28T09:47:25Z</time>
      </trkpt>
      <trkpt lat="36.4077240" lon="-6.0723230">
        <ele>21.2</ele>
        <time>2023-01-28T09:47:27Z</time>
      </trkpt>
      <trkpt lat="36.4077410" lon="-6.0724050">
        <ele>21.0</ele>
        <time>2023-01-28T09:47:28Z</time>
      </trkpt>
      <trkpt lat="36.4077460" lon="-6.0724440">
        <ele>20.8</ele>
        <time>2023-01-28T09:47:29Z</time>
      </trkpt>
      <trkpt lat="36.4077540" lon="-6.0724890">
        <ele>20.6</ele>
        <time>2023-01-28T09:47:30Z</time>
      </trkpt>
      <trkpt lat="36.4077590" lon="-6.0725290">
        <ele>21.0</ele>
        <time>2023-01-28T09:47:32Z</time>
      </trkpt>
      <trkpt lat="36.4077630" lon="-6.0725650">
        <ele>21.0</ele>
        <time>2023-01-28T09:47:33Z</time>
      </trkpt>
      <trkpt lat="36.4077740" lon="-6.0726550">
        <ele>20.8</ele>
        <time>2023-01-28T09:47:35Z</time>
      </trkpt>
      <trkpt lat="36.4077810" lon="-6.0726970">
        <ele>21.0</ele>
        <time>2023-01-28T09:47:36Z</time>
      </trkpt>
      <trkpt lat="36.4077760" lon="-6.0727900">
        <ele>21.4</ele>
        <time>2023-01-28T09:47:37Z</time>
      </trkpt>
      <trkpt lat="36.4077730" lon="-6.0728330">
        <ele>21.2</ele>
        <time>2023-01-28T09:47:39Z</time>
      </trkpt>
      <trkpt lat="36.4077670" lon="-6.0729410">
        <ele>21.6</ele>
        <time>2023-01-28T09:47:41Z</time>
      </trkpt>
      <trkpt lat="36.4077680" lon="-6.0729890">
        <ele>21.6</ele>
        <time>2023-01-28T09:47:42Z</time>
      </trkpt>
      <trkpt lat="36.4077700" lon="-6.0730370">
        <ele>21.4</ele>
        <time>2023-01-28T09:47:43Z</time>
      </trkpt>
      <trkpt lat="36.4077640" lon="-6.0730860">
        <ele>21.2</ele>
        <time>2023-01-28T09:47:44Z</time>
      </trkpt>
      <trkpt lat="36.4077600" lon="-6.0731420">
        <ele>21.2</ele>
        <time>2023-01-28T09:47:45Z</time>
      </trkpt>
      <trkpt lat="36.4077550" lon="-6.0731890">
        <ele>20.8</ele>
        <time>2023-01-28T09:47:46Z</time>
      </trkpt>
      <trkpt lat="36.4077410" lon="-6.0732340">
        <ele>20.6</ele>
        <time>2023-01-28T09:47:47Z</time>
      </trkpt>
      <trkpt lat="36.4077420" lon="-6.0732950">
        <ele>20.4</ele>
        <time>2023-01-28T09:47:48Z</time>
      </trkpt>
      <trkpt lat="36.4077430" lon="-6.0733460">
        <ele>20.4</ele>
        <time>2023-01-28T09:47:49Z</time>
      </trkpt>
      <trkpt lat="36.4077510" lon="-6.0734030">
        <ele>21.0</ele>
        <time>2023-01-28T09:47:50Z</time>
      </trkpt>
      <trkpt lat="36.4077560" lon="-6.0734590">
        <ele>21.2</ele>
        <time>2023-01-28T09:47:51Z</time>
      </trkpt>
      <trkpt lat="36.4077630" lon="-6.0735130">
        <ele>20.8</ele>
        <time>2023-01-28T09:47:52Z</time>
      </trkpt>
      <trkpt lat="36.4077660" lon="-6.0735600">
        <ele>20.8</ele>
        <time>2023-01-28T09:47:53Z</time>
      </trkpt>
      <trkpt lat="36.4077650" lon="-6.0736000">
        <ele>20.6</ele>
        <time>2023-01-28T09:47:54Z</time>
      </trkpt>
      <trkpt lat="36.4077680" lon="-6.0736510">
        <ele>20.4</ele>
        <time>2023-01-28T09:47:55Z</time>
      </trkpt>
      <trkpt lat="36.4077680" lon="-6.0736880">
        <ele>20.6</ele>
        <time>2023-01-28T09:47:56Z</time>
      </trkpt>
      <trkpt lat="36.4077730" lon="-6.0737400">
        <ele>21.0</ele>
        <time>2023-01-28T09:47:57Z</time>
      </trkpt>
      <trkpt lat="36.4077750" lon="-6.0737870">
        <ele>21.4</ele>
        <time>2023-01-28T09:47:58Z</time>
      </trkpt>
      <trkpt lat="36.4077870" lon="-6.0738370">
        <ele>21.2</ele>
        <time>2023-01-28T09:47:59Z</time>
      </trkpt>
      <trkpt lat="36.4077900" lon="-6.0738860">
        <ele>21.6</ele>
        <time>2023-01-28T09:48:00Z</time>
      </trkpt>
      <trkpt lat="36.4077890" lon="-6.0739400">
        <ele>21.6</ele>
        <time>2023-01-28T09:48:01Z</time>
      </trkpt>
      <trkpt lat="36.4078000" lon="-6.0739910">
        <ele>21.4</ele>
        <time>2023-01-28T09:48:02Z</time>
      </trkpt>
      <trkpt lat="36.4078090" lon="-6.0740470">
        <ele>21.6</ele>
        <time>2023-01-28T09:48:03Z</time>
      </trkpt>
      <trkpt lat="36.4078130" lon="-6.0740910">
        <ele>21.4</ele>
        <time>2023-01-28T09:48:04Z</time>
      </trkpt>
      <trkpt lat="36.4078240" lon="-6.0741450">
        <ele>21.2</ele>
        <time>2023-01-28T09:48:05Z</time>
      </trkpt>
      <trkpt lat="36.4078300" lon="-6.0741990">
        <ele>21.2</ele>
        <time>2023-01-28T09:48:06Z</time>
      </trkpt>
      <trkpt lat="36.4078310" lon="-6.0742440">
        <ele>21.2</ele>
        <time>2023-01-28T09:48:07Z</time>
      </trkpt>
      <trkpt lat="36.4078310" lon="-6.0742930">
        <ele>21.4</ele>
        <time>2023-01-28T09:48:08Z</time>
      </trkpt>
      <trkpt lat="36.4078420" lon="-6.0743500">
        <ele>21.4</ele>
        <time>2023-01-28T09:48:09Z</time>
      </trkpt>
      <trkpt lat="36.4078460" lon="-6.0744040">
        <ele>21.2</ele>
        <time>2023-01-28T09:48:10Z</time>
      </trkpt>
      <trkpt lat="36.4078570" lon="-6.0744510">
        <ele>21.0</ele>
        <time>2023-01-28T09:48:11Z</time>
      </trkpt>
      <trkpt lat="36.4078670" lon="-6.0745090">
        <ele>21.0</ele>
        <time>2023-01-28T09:48:12Z</time>
      </trkpt>
      <trkpt lat="36.4078750" lon="-6.0745670">
        <ele>21.2</ele>
        <time>2023-01-28T09:48:13Z</time>
      </trkpt>
      <trkpt lat="36.4078770" lon="-6.0746190">
        <ele>21.2</ele>
        <time>2023-01-28T09:48:14Z</time>
      </trkpt>
      <trkpt lat="36.4078780" lon="-6.0746650">
        <ele>21.0</ele>
        <time>2023-01-28T09:48:15Z</time>
      </trkpt>
      <trkpt lat="36.4078830" lon="-6.0747140">
        <ele>21.2</ele>
        <time>2023-01-28T09:48:16Z</time>
      </trkpt>
      <trkpt lat="36.4078880" lon="-6.0747620">
        <ele>21.2</ele>
        <time>2023-01-28T09:48:17Z</time>
      </trkpt>
      <trkpt lat="36.4078920" lon="-6.0748090">
        <ele>21.0</ele>
        <time>2023-01-28T09:48:18Z</time>
      </trkpt>
      <trkpt lat="36.4078980" lon="-6.0748520">
        <ele>20.6</ele>
        <time>2023-01-28T09:48:19Z</time>
      </trkpt>
      <trkpt lat="36.4079050" lon="-6.0749010">
        <ele>20.2</ele>
        <time>2023-01-28T09:48:20Z</time>
      </trkpt>
      <trkpt lat="36.4079040" lon="-6.0749510">
        <ele>20.0</ele>
        <time>2023-01-28T09:48:21Z</time>
      </trkpt>
      <trkpt lat="36.4079130" lon="-6.0750120">
        <ele>19.8</ele>
        <time>2023-01-28T09:48:22Z</time>
      </trkpt>
      <trkpt lat="36.4079200" lon="-6.0750730">
        <ele>19.6</ele>
        <time>2023-01-28T09:48:23Z</time>
      </trkpt>
      <trkpt lat="36.4079170" lon="-6.0751460">
        <ele>19.2</ele>
        <time>2023-01-28T09:48:24Z</time>
      </trkpt>
      <trkpt lat="36.4079250" lon="-6.0752070">
        <ele>18.6</ele>
        <time>2023-01-28T09:48:25Z</time>
      </trkpt>
      <trkpt lat="36.4079320" lon="-6.0752800">
        <ele>18.2</ele>
        <time>2023-01-28T09:48:26Z</time>
      </trkpt>
      <trkpt lat="36.4079300" lon="-6.0753430">
        <ele>17.4</ele>
        <time>2023-01-28T09:48:27Z</time>
      </trkpt>
      <trkpt lat="36.4079400" lon="-6.0754220">
        <ele>17.0</ele>
        <time>2023-01-28T09:48:28Z</time>
      </trkpt>
      <trkpt lat="36.4079400" lon="-6.0755000">
        <ele>16.4</ele>
        <time>2023-01-28T09:48:29Z</time>
      </trkpt>
      <trkpt lat="36.4079460" lon="-6.0755780">
        <ele>15.6</ele>
        <time>2023-01-28T09:48:30Z</time>
      </trkpt>
      <trkpt lat="36.4079490" lon="-6.0756600">
        <ele>14.6</ele>
        <time>2023-01-28T09:48:31Z</time>
      </trkpt>
      <trkpt lat="36.4079470" lon="-6.0757430">
        <ele>14.2</ele>
        <time>2023-01-28T09:48:32Z</time>
      </trkpt>
      <trkpt lat="36.4079480" lon="-6.0758320">
        <ele>14.2</ele>
        <time>2023-01-28T09:48:33Z</time>
      </trkpt>
      <trkpt lat="36.4079550" lon="-6.0759320">
        <ele>14.0</ele>
        <time>2023-01-28T09:48:34Z</time>
      </trkpt>
      <trkpt lat="36.4079610" lon="-6.0760210">
        <ele>13.6</ele>
        <time>2023-01-28T09:48:35Z</time>
      </trkpt>
      <trkpt lat="36.4079610" lon="-6.0761180">
        <ele>12.6</ele>
        <time>2023-01-28T09:48:36Z</time>
      </trkpt>
      <trkpt lat="36.4079520" lon="-6.0762260">
        <ele>12.0</ele>
        <time>2023-01-28T09:48:37Z</time>
      </trkpt>
      <trkpt lat="36.4079510" lon="-6.0763270">
        <ele>11.8</ele>
        <time>2023-01-28T09:48:38Z</time>
      </trkpt>
      <trkpt lat="36.4079460" lon="-6.0764250">
        <ele>11.4</ele>
        <time>2023-01-28T09:48:39Z</time>
      </trkpt>
      <trkpt lat="36.4079360" lon="-6.0765160">
        <ele>11.2</ele>
        <time>2023-01-28T09:48:40Z</time>
      </trkpt>
      <trkpt lat="36.4079310" lon="-6.0766140">
        <ele>10.8</ele>
        <time>2023-01-28T09:48:41Z</time>
      </trkpt>
      <trkpt lat="36.4079260" lon="-6.0767170">
        <ele>10.4</ele>
        <time>2023-01-28T09:48:42Z</time>
      </trkpt>
      <trkpt lat="36.4079260" lon="-6.0768130">
        <ele>10.4</ele>
        <time>2023-01-28T09:48:43Z</time>
      </trkpt>
      <trkpt lat="36.4079200" lon="-6.0769120">
        <ele>10.0</ele>
        <time>2023-01-28T09:48:44Z</time>
      </trkpt>
      <trkpt lat="36.4079180" lon="-6.0770100">
        <ele>9.8</ele>
        <time>2023-01-28T09:48:45Z</time>
      </trkpt>
      <trkpt lat="36.4079130" lon="-6.0771070">
        <ele>9.8</ele>
        <time>2023-01-28T09:48:46Z</time>
      </trkpt>
      <trkpt lat="36.4079070" lon="-6.0772060">
        <ele>9.4</ele>
        <time>2023-01-28T09:48:47Z</time>
      </trkpt>
      <trkpt lat="36.4078990" lon="-6.0772980">
        <ele>9.0</ele>
        <time>2023-01-28T09:48:48Z</time>
      </trkpt>
      <trkpt lat="36.4078870" lon="-6.0774020">
        <ele>8.8</ele>
        <time>2023-01-28T09:48:49Z</time>
      </trkpt>
      <trkpt lat="36.4078790" lon="-6.0775030">
        <ele>8.6</ele>
        <time>2023-01-28T09:48:50Z</time>
      </trkpt>
      <trkpt lat="36.4078700" lon="-6.0776050">
        <ele>8.8</ele>
        <time>2023-01-28T09:48:51Z</time>
      </trkpt>
      <trkpt lat="36.4078520" lon="-6.0776940">
        <ele>8.6</ele>
        <time>2023-01-28T09:48:52Z</time>
      </trkpt>
      <trkpt lat="36.4078310" lon="-6.0777850">
        <ele>8.2</ele>
        <time>2023-01-28T09:48:53Z</time>
      </trkpt>
      <trkpt lat="36.4078190" lon="-6.0778800">
        <ele>7.8</ele>
        <time>2023-01-28T09:48:54Z</time>
      </trkpt>
      <trkpt lat="36.4078040" lon="-6.0779700">
        <ele>7.6</ele>
        <time>2023-01-28T09:48:55Z</time>
      </trkpt>
      <trkpt lat="36.4077910" lon="-6.0780610">
        <ele>7.4</ele>
        <time>2023-01-28T09:48:56Z</time>
      </trkpt>
      <trkpt lat="36.4077800" lon="-6.0781520">
        <ele>7.2</ele>
        <time>2023-01-28T09:48:57Z</time>
      </trkpt>
      <trkpt lat="36.4077690" lon="-6.0782370">
        <ele>7.0</ele>
        <time>2023-01-28T09:48:58Z</time>
      </trkpt>
      <trkpt lat="36.4077610" lon="-6.0783220">
        <ele>7.0</ele>
        <time>2023-01-28T09:48:59Z</time>
      </trkpt>
      <trkpt lat="36.4077510" lon="-6.0784130">
        <ele>6.8</ele>
        <time>2023-01-28T09:49:00Z</time>
      </trkpt>
      <trkpt lat="36.4077450" lon="-6.0784940">
        <ele>6.8</ele>
        <time>2023-01-28T09:49:01Z</time>
      </trkpt>
      <trkpt lat="36.4077430" lon="-6.0785870">
        <ele>6.8</ele>
        <time>2023-01-28T09:49:02Z</time>
      </trkpt>
      <trkpt lat="36.4077430" lon="-6.0786760">
        <ele>6.4</ele>
        <time>2023-01-28T09:49:03Z</time>
      </trkpt>
      <trkpt lat="36.4077440" lon="-6.0787730">
        <ele>6.4</ele>
        <time>2023-01-28T09:49:04Z</time>
      </trkpt>
      <trkpt lat="36.4077350" lon="-6.0788390">
        <ele>6.2</ele>
        <time>2023-01-28T09:49:05Z</time>
      </trkpt>
      <trkpt lat="36.4077330" lon="-6.0789260">
        <ele>6.0</ele>
        <time>2023-01-28T09:49:06Z</time>
      </trkpt>
      <trkpt lat="36.4077360" lon="-6.0790120">
        <ele>5.8</ele>
        <time>2023-01-28T09:49:07Z</time>
      </trkpt>
      <trkpt lat="36.4077410" lon="-6.0790910">
        <ele>5.6</ele>
        <time>2023-01-28T09:49:08Z</time>
      </trkpt>
      <trkpt lat="36.4077520" lon="-6.0791680">
        <ele>5.6</ele>
        <time>2023-01-28T09:49:09Z</time>
      </trkpt>
      <trkpt lat="36.4077580" lon="-6.0792420">
        <ele>5.6</ele>
        <time>2023-01-28T09:49:10Z</time>
      </trkpt>
      <trkpt lat="36.4077570" lon="-6.0793060">
        <ele>6.0</ele>
        <time>2023-01-28T09:49:11Z</time>
      </trkpt>
      <trkpt lat="36.4077570" lon="-6.0793690">
        <ele>5.8</ele>
        <time>2023-01-28T09:49:12Z</time>
      </trkpt>
      <trkpt lat="36.4077620" lon="-6.0794460">
        <ele>5.4</ele>
        <time>2023-01-28T09:49:13Z</time>
      </trkpt>
      <trkpt lat="36.4077630" lon="-6.0795190">
        <ele>5.8</ele>
        <time>2023-01-28T09:49:14Z</time>
      </trkpt>
      <trkpt lat="36.4077590" lon="-6.0795960">
        <ele>5.2</ele>
        <time>2023-01-28T09:49:15Z</time>
      </trkpt>
      <trkpt lat="36.4077550" lon="-6.0796600">
        <ele>5.0</ele>
        <time>2023-01-28T09:49:16Z</time>
      </trkpt>
      <trkpt lat="36.4077540" lon="-6.0797390">
        <ele>4.8</ele>
        <time>2023-01-28T09:49:17Z</time>
      </trkpt>
      <trkpt lat="36.4077460" lon="-6.0798100">
        <ele>4.8</ele>
        <time>2023-01-28T09:49:18Z</time>
      </trkpt>
      <trkpt lat="36.4077380" lon="-6.0798820">
        <ele>5.0</ele>
        <time>2023-01-28T09:49:19Z</time>
      </trkpt>
      <trkpt lat="36.4077350" lon="-6.0799560">
        <ele>5.0</ele>
        <time>2023-01-28T09:49:20Z</time>
      </trkpt>
      <trkpt lat="36.4077250" lon="-6.0800340">
        <ele>5.0</ele>
        <time>2023-01-28T09:49:21Z</time>
      </trkpt>
      <trkpt lat="36.4077130" lon="-6.0801030">
        <ele>5.0</ele>
        <time>2023-01-28T09:49:22Z</time>
      </trkpt>
      <trkpt lat="36.4076980" lon="-6.0801800">
        <ele>4.6</ele>
        <time>2023-01-28T09:49:23Z</time>
      </trkpt>
      <trkpt lat="36.4076840" lon="-6.0802610">
        <ele>4.6</ele>
        <time>2023-01-28T09:49:24Z</time>
      </trkpt>
      <trkpt lat="36.4076710" lon="-6.0803340">
        <ele>4.6</ele>
        <time>2023-01-28T09:49:25Z</time>
      </trkpt>
      <trkpt lat="36.4076570" lon="-6.0804140">
        <ele>4.4</ele>
        <time>2023-01-28T09:49:26Z</time>
      </trkpt>
      <trkpt lat="36.4076540" lon="-6.0804970">
        <ele>4.4</ele>
        <time>2023-01-28T09:49:27Z</time>
      </trkpt>
      <trkpt lat="36.4076390" lon="-6.0805740">
        <ele>4.4</ele>
        <time>2023-01-28T09:49:28Z</time>
      </trkpt>
      <trkpt lat="36.4076230" lon="-6.0806520">
        <ele>4.2</ele>
        <time>2023-01-28T09:49:29Z</time>
      </trkpt>
      <trkpt lat="36.4076130" lon="-6.0807240">
        <ele>4.0</ele>
        <time>2023-01-28T09:49:30Z</time>
      </trkpt>
      <trkpt lat="36.4076010" lon="-6.0808040">
        <ele>3.8</ele>
        <time>2023-01-28T09:49:31Z</time>
      </trkpt>
      <trkpt lat="36.4075920" lon="-6.0808810">
        <ele>3.8</ele>
        <time>2023-01-28T09:49:32Z</time>
      </trkpt>
      <trkpt lat="36.4075850" lon="-6.0809590">
        <ele>3.6</ele>
        <time>2023-01-28T09:49:33Z</time>
      </trkpt>
      <trkpt lat="36.4075790" lon="-6.0810260">
        <ele>3.4</ele>
        <time>2023-01-28T09:49:34Z</time>
      </trkpt>
      <trkpt lat="36.4075660" lon="-6.0810940">
        <ele>3.6</ele>
        <time>2023-01-28T09:49:35Z</time>
      </trkpt>
      <trkpt lat="36.4075530" lon="-6.0811570">
        <ele>3.4</ele>
        <time>2023-01-28T09:49:36Z</time>
      </trkpt>
      <trkpt lat="36.4075450" lon="-6.0812290">
        <ele>3.6</ele>
        <time>2023-01-28T09:49:37Z</time>
      </trkpt>
      <trkpt lat="36.4075330" lon="-6.0812990">
        <ele>3.4</ele>
        <time>2023-01-28T09:49:38Z</time>
      </trkpt>
      <trkpt lat="36.4075260" lon="-6.0813700">
        <ele>3.2</ele>
        <time>2023-01-28T09:49:39Z</time>
      </trkpt>
      <trkpt lat="36.4075180" lon="-6.0814430">
        <ele>3.0</ele>
        <time>2023-01-28T09:49:40Z</time>
      </trkpt>
      <trkpt lat="36.4075120" lon="-6.0815150">
        <ele>3.0</ele>
        <time>2023-01-28T09:49:41Z</time>
      </trkpt>
      <trkpt lat="36.4074970" lon="-6.0815810">
        <ele>3.0</ele>
        <time>2023-01-28T09:49:42Z</time>
      </trkpt>
      <trkpt lat="36.4074850" lon="-6.0816560">
        <ele>2.8</ele>
        <time>2023-01-28T09:49:43Z</time>
      </trkpt>
      <trkpt lat="36.4074800" lon="-6.0817390">
        <ele>2.8</ele>
        <time>2023-01-28T09:49:44Z</time>
      </trkpt>
      <trkpt lat="36.4074710" lon="-6.0818170">
        <ele>2.8</ele>
        <time>2023-01-28T09:49:45Z</time>
      </trkpt>
      <trkpt lat="36.4074600" lon="-6.0818900">
        <ele>2.8</ele>
        <time>2023-01-28T09:49:46Z</time>
      </trkpt>
      <trkpt lat="36.4074490" lon="-6.0819640">
        <ele>3.0</ele>
        <time>2023-01-28T09:49:47Z</time>
      </trkpt>
      <trkpt lat="36.4074340" lon="-6.0820330">
        <ele>2.8</ele>
        <time>2023-01-28T09:49:48Z</time>
      </trkpt>
      <trkpt lat="36.4074200" lon="-6.0821030">
        <ele>2.8</ele>
        <time>2023-01-28T09:49:49Z</time>
      </trkpt>
      <trkpt lat="36.4074060" lon="-6.0821650">
        <ele>2.6</ele>
        <time>2023-01-28T09:49:50Z</time>
      </trkpt>
      <trkpt lat="36.4073950" lon="-6.0822350">
        <ele>3.0</ele>
        <time>2023-01-28T09:49:51Z</time>
      </trkpt>
      <trkpt lat="36.4073870" lon="-6.0822970">
        <ele>3.0</ele>
        <time>2023-01-28T09:49:52Z</time>
      </trkpt>
      <trkpt lat="36.4073760" lon="-6.0823670">
        <ele>3.0</ele>
        <time>2023-01-28T09:49:53Z</time>
      </trkpt>
      <trkpt lat="36.4073660" lon="-6.0824300">
        <ele>2.8</ele>
        <time>2023-01-28T09:49:54Z</time>
      </trkpt>
      <trkpt lat="36.4073620" lon="-6.0824970">
        <ele>2.6</ele>
        <time>2023-01-28T09:49:55Z</time>
      </trkpt>
      <trkpt lat="36.4073500" lon="-6.0825590">
        <ele>2.4</ele>
        <time>2023-01-28T09:49:56Z</time>
      </trkpt>
      <trkpt lat="36.4073410" lon="-6.0826230">
        <ele>2.4</ele>
        <time>2023-01-28T09:49:57Z</time>
      </trkpt>
      <trkpt lat="36.4073260" lon="-6.0826820">
        <ele>2.6</ele>
        <time>2023-01-28T09:49:58Z</time>
      </trkpt>
      <trkpt lat="36.4073150" lon="-6.0827400">
        <ele>2.4</ele>
        <time>2023-01-28T09:49:59Z</time>
      </trkpt>
      <trkpt lat="36.4073060" lon="-6.0828140">
        <ele>2.2</ele>
        <time>2023-01-28T09:50:00Z</time>
      </trkpt>
      <trkpt lat="36.4072930" lon="-6.0828850">
        <ele>2.2</ele>
        <time>2023-01-28T09:50:01Z</time>
      </trkpt>
      <trkpt lat="36.4072820" lon="-6.0829500">
        <ele>2.2</ele>
        <time>2023-01-28T09:50:02Z</time>
      </trkpt>
      <trkpt lat="36.4072720" lon="-6.0830120">
        <ele>2.2</ele>
        <time>2023-01-28T09:50:03Z</time>
      </trkpt>
      <trkpt lat="36.4072660" lon="-6.0830750">
        <ele>2.0</ele>
        <time>2023-01-28T09:50:04Z</time>
      </trkpt>
      <trkpt lat="36.4072590" lon="-6.0831420">
        <ele>2.0</ele>
        <time>2023-01-28T09:50:05Z</time>
      </trkpt>
      <trkpt lat="36.4072580" lon="-6.0832030">
        <ele>2.2</ele>
        <time>2023-01-28T09:50:06Z</time>
      </trkpt>
      <trkpt lat="36.4072580" lon="-6.0832640">
        <ele>2.4</ele>
        <time>2023-01-28T09:50:07Z</time>
      </trkpt>
      <trkpt lat="36.4072570" lon="-6.0833200">
        <ele>2.2</ele>
        <time>2023-01-28T09:50:08Z</time>
      </trkpt>
      <trkpt lat="36.4072560" lon="-6.0833740">
        <ele>2.2</ele>
        <time>2023-01-28T09:50:09Z</time>
      </trkpt>
      <trkpt lat="36.4072500" lon="-6.0834230">
        <ele>2.0</ele>
        <time>2023-01-28T09:50:10Z</time>
      </trkpt>
      <trkpt lat="36.4072440" lon="-6.0834740">
        <ele>2.0</ele>
        <time>2023-01-28T09:50:11Z</time>
      </trkpt>
      <trkpt lat="36.4072400" lon="-6.0835310">
        <ele>2.2</ele>
        <time>2023-01-28T09:50:12Z</time>
      </trkpt>
      <trkpt lat="36.4072390" lon="-6.0835790">
        <ele>2.2</ele>
        <time>2023-01-28T09:50:13Z</time>
      </trkpt>
      <trkpt lat="36.4072350" lon="-6.0836280">
        <ele>2.4</ele>
        <time>2023-01-28T09:50:14Z</time>
      </trkpt>
      <trkpt lat="36.4072200" lon="-6.0836880">
        <ele>2.6</ele>
        <time>2023-01-28T09:50:15Z</time>
      </trkpt>
      <trkpt lat="36.4072100" lon="-6.0837540">
        <ele>2.2</ele>
        <time>2023-01-28T09:50:16Z</time>
      </trkpt>
      <trkpt lat="36.4071960" lon="-6.0838170">
        <ele>2.0</ele>
        <time>2023-01-28T09:50:17Z</time>
      </trkpt>
      <trkpt lat="36.4071850" lon="-6.0838940">
        <ele>2.0</ele>
        <time>2023-01-28T09:50:18Z</time>
      </trkpt>
      <trkpt lat="36.4071740" lon="-6.0839650">
        <ele>1.8</ele>
        <time>2023-01-28T09:50:19Z</time>
      </trkpt>
      <trkpt lat="36.4071700" lon="-6.0840460">
        <ele>1.8</ele>
        <time>2023-01-28T09:50:20Z</time>
      </trkpt>
      <trkpt lat="36.4071550" lon="-6.0841110">
        <ele>1.8</ele>
        <time>2023-01-28T09:50:21Z</time>
      </trkpt>
      <trkpt lat="36.4071470" lon="-6.0841680">
        <ele>1.8</ele>
        <time>2023-01-28T09:50:22Z</time>
      </trkpt>
      <trkpt lat="36.4071390" lon="-6.0842380">
        <ele>1.8</ele>
        <time>2023-01-28T09:50:23Z</time>
      </trkpt>
      <trkpt lat="36.4071310" lon="-6.0843060">
        <ele>1.8</ele>
        <time>2023-01-28T09:50:24Z</time>
      </trkpt>
      <trkpt lat="36.4071280" lon="-6.0843700">
        <ele>1.8</ele>
        <time>2023-01-28T09:50:25Z</time>
      </trkpt>
      <trkpt lat="36.4071230" lon="-6.0844350">
        <ele>1.8</ele>
        <time>2023-01-28T09:50:26Z</time>
      </trkpt>
      <trkpt lat="36.4071190" lon="-6.0844970">
        <ele>1.8</ele>
        <time>2023-01-28T09:50:27Z</time>
      </trkpt>
      <trkpt lat="36.4071160" lon="-6.0845640">
        <ele>1.6</ele>
        <time>2023-01-28T09:50:28Z</time>
      </trkpt>
      <trkpt lat="36.4071060" lon="-6.0846270">
        <ele>1.8</ele>
        <time>2023-01-28T09:50:29Z</time>
      </trkpt>
      <trkpt lat="36.4071070" lon="-6.0846890">
        <ele>1.8</ele>
        <time>2023-01-28T09:50:30Z</time>
      </trkpt>
      <trkpt lat="36.4071090" lon="-6.0847600">
        <ele>1.8</ele>
        <time>2023-01-28T09:50:31Z</time>
      </trkpt>
      <trkpt lat="36.4071150" lon="-6.0848120">
        <ele>1.8</ele>
        <time>2023-01-28T09:50:32Z</time>
      </trkpt>
      <trkpt lat="36.4071210" lon="-6.0848720">
        <ele>1.8</ele>
        <time>2023-01-28T09:50:33Z</time>
      </trkpt>
      <trkpt lat="36.4071310" lon="-6.0849270">
        <ele>1.8</ele>
        <time>2023-01-28T09:50:34Z</time>
      </trkpt>
      <trkpt lat="36.4071420" lon="-6.0849830">
        <ele>1.6</ele>
        <time>2023-01-28T09:50:35Z</time>
      </trkpt>
      <trkpt lat="36.4071580" lon="-6.0850350">
        <ele>1.8</ele>
        <time>2023-01-28T09:50:36Z</time>
      </trkpt>
      <trkpt lat="36.4071780" lon="-6.0850820">
        <ele>1.8</ele>
        <time>2023-01-28T09:50:37Z</time>
      </trkpt>
      <trkpt lat="36.4071950" lon="-6.0851280">
        <ele>1.8</ele>
        <time>2023-01-28T09:50:38Z</time>
      </trkpt>
      <trkpt lat="36.4072120" lon="-6.0851810">
        <ele>2.2</ele>
        <time>2023-01-28T09:50:39Z</time>
      </trkpt>
      <trkpt lat="36.4072320" lon="-6.0852300">
        <ele>2.0</ele>
        <time>2023-01-28T09:50:40Z</time>
      </trkpt>
      <trkpt lat="36.4072550" lon="-6.0852790">
        <ele>2.6</ele>
        <time>2023-01-28T09:50:41Z</time>
      </trkpt>
      <trkpt lat="36.4072700" lon="-6.0853260">
        <ele>3.2</ele>
        <time>2023-01-28T09:50:42Z</time>
      </trkpt>
      <trkpt lat="36.4072860" lon="-6.0853730">
        <ele>3.0</ele>
        <time>2023-01-28T09:50:43Z</time>
      </trkpt>
      <trkpt lat="36.4072990" lon="-6.0854110">
        <ele>2.6</ele>
        <time>2023-01-28T09:50:44Z</time>
      </trkpt>
      <trkpt lat="36.4073120" lon="-6.0854700">
        <ele>2.6</ele>
        <time>2023-01-28T09:50:45Z</time>
      </trkpt>
      <trkpt lat="36.4073130" lon="-6.0855270">
        <ele>2.2</ele>
        <time>2023-01-28T09:50:46Z</time>
      </trkpt>
      <trkpt lat="36.4073200" lon="-6.0855840">
        <ele>2.2</ele>
        <time>2023-01-28T09:50:47Z</time>
      </trkpt>
      <trkpt lat="36.4073170" lon="-6.0856280">
        <ele>2.0</ele>
        <time>2023-01-28T09:50:48Z</time>
      </trkpt>
      <trkpt lat="36.4073130" lon="-6.0856770">
        <ele>2.0</ele>
        <time>2023-01-28T09:50:49Z</time>
      </trkpt>
      <trkpt lat="36.4073150" lon="-6.0857250">
        <ele>2.0</ele>
        <time>2023-01-28T09:50:50Z</time>
      </trkpt>
      <trkpt lat="36.4073130" lon="-6.0857780">
        <ele>1.8</ele>
        <time>2023-01-28T09:50:51Z</time>
      </trkpt>
      <trkpt lat="36.4073090" lon="-6.0858330">
        <ele>1.8</ele>
        <time>2023-01-28T09:50:52Z</time>
      </trkpt>
      <trkpt lat="36.4073030" lon="-6.0858810">
        <ele>1.8</ele>
        <time>2023-01-28T09:50:53Z</time>
      </trkpt>
      <trkpt lat="36.4072980" lon="-6.0859310">
        <ele>2.0</ele>
        <time>2023-01-28T09:50:54Z</time>
      </trkpt>
      <trkpt lat="36.4072950" lon="-6.0859880">
        <ele>2.2</ele>
        <time>2023-01-28T09:50:55Z</time>
      </trkpt>
      <trkpt lat="36.4072890" lon="-6.0860370">
        <ele>2.0</ele>
        <time>2023-01-28T09:50:56Z</time>
      </trkpt>
      <trkpt lat="36.4072810" lon="-6.0860950">
        <ele>1.6</ele>
        <time>2023-01-28T09:50:57Z</time>
      </trkpt>
      <trkpt lat="36.4072730" lon="-6.0861430">
        <ele>1.4</ele>
        <time>2023-01-28T09:50:58Z</time>
      </trkpt>
      <trkpt lat="36.4072660" lon="-6.0862110">
        <ele>1.2</ele>
        <time>2023-01-28T09:50:59Z</time>
      </trkpt>
      <trkpt lat="36.4072580" lon="-6.0862780">
        <ele>1.0</ele>
        <time>2023-01-28T09:51:00Z</time>
      </trkpt>
      <trkpt lat="36.4072450" lon="-6.0863330">
        <ele>1.2</ele>
        <time>2023-01-28T09:51:01Z</time>
      </trkpt>
      <trkpt lat="36.4072370" lon="-6.0863920">
        <ele>1.2</ele>
        <time>2023-01-28T09:51:02Z</time>
      </trkpt>
      <trkpt lat="36.4072300" lon="-6.0864530">
        <ele>1.2</ele>
        <time>2023-01-28T09:51:03Z</time>
      </trkpt>
      <trkpt lat="36.4072210" lon="-6.0865160">
        <ele>1.2</ele>
        <time>2023-01-28T09:51:04Z</time>
      </trkpt>
      <trkpt lat="36.4072060" lon="-6.0865790">
        <ele>1.0</ele>
        <time>2023-01-28T09:51:05Z</time>
      </trkpt>
      <trkpt lat="36.4071950" lon="-6.0866430">
        <ele>1.2</ele>
        <time>2023-01-28T09:51:06Z</time>
      </trkpt>
      <trkpt lat="36.4071840" lon="-6.0867060">
        <ele>1.2</ele>
        <time>2023-01-28T09:51:07Z</time>
      </trkpt>
      <trkpt lat="36.4071730" lon="-6.0867620">
        <ele>1.4</ele>
        <time>2023-01-28T09:51:08Z</time>
      </trkpt>
      <trkpt lat="36.4071630" lon="-6.0868220">
        <ele>1.2</ele>
        <time>2023-01-28T09:51:09Z</time>
      </trkpt>
      <trkpt lat="36.4071540" lon="-6.0868790">
        <ele>1.0</ele>
        <time>2023-01-28T09:51:10Z</time>
      </trkpt>
      <trkpt lat="36.4071390" lon="-6.0869310">
        <ele>0.8</ele>
        <time>2023-01-28T09:51:11Z</time>
      </trkpt>
      <trkpt lat="36.4071300" lon="-6.0869930">
        <ele>1.0</ele>
        <time>2023-01-28T09:51:12Z</time>
      </trkpt>
      <trkpt lat="36.4071290" lon="-6.0870520">
        <ele>1.0</ele>
        <time>2023-01-28T09:51:13Z</time>
      </trkpt>
      <trkpt lat="36.4071210" lon="-6.0871130">
        <ele>1.0</ele>
        <time>2023-01-28T09:51:14Z</time>
      </trkpt>
      <trkpt lat="36.4071250" lon="-6.0871730">
        <ele>0.8</ele>
        <time>2023-01-28T09:51:15Z</time>
      </trkpt>
      <trkpt lat="36.4071320" lon="-6.0872440">
        <ele>0.8</ele>
        <time>2023-01-28T09:51:16Z</time>
      </trkpt>
      <trkpt lat="36.4071330" lon="-6.0873020">
        <ele>1.0</ele>
        <time>2023-01-28T09:51:17Z</time>
      </trkpt>
      <trkpt lat="36.4071400" lon="-6.0873660">
        <ele>1.0</ele>
        <time>2023-01-28T09:51:18Z</time>
      </trkpt>
      <trkpt lat="36.4071550" lon="-6.0874270">
        <ele>0.8</ele>
        <time>2023-01-28T09:51:19Z</time>
      </trkpt>
      <trkpt lat="36.4071640" lon="-6.0874930">
        <ele>0.8</ele>
        <time>2023-01-28T09:51:20Z</time>
      </trkpt>
      <trkpt lat="36.4071720" lon="-6.0875560">
        <ele>0.8</ele>
        <time>2023-01-28T09:51:21Z</time>
      </trkpt>
      <trkpt lat="36.4071860" lon="-6.0876070">
        <ele>0.8</ele>
        <time>2023-01-28T09:51:22Z</time>
      </trkpt>
      <trkpt lat="36.4071930" lon="-6.0876590">
        <ele>0.8</ele>
        <time>2023-01-28T09:51:23Z</time>
      </trkpt>
      <trkpt lat="36.4072000" lon="-6.0877160">
        <ele>0.8</ele>
        <time>2023-01-28T09:51:24Z</time>
      </trkpt>
      <trkpt lat="36.4072100" lon="-6.0877710">
        <ele>0.8</ele>
        <time>2023-01-28T09:51:25Z</time>
      </trkpt>
      <trkpt lat="36.4072140" lon="-6.0878260">
        <ele>0.8</ele>
        <time>2023-01-28T09:51:26Z</time>
      </trkpt>
      <trkpt lat="36.4072200" lon="-6.0878780">
        <ele>0.6</ele>
        <time>2023-01-28T09:51:27Z</time>
      </trkpt>
      <trkpt lat="36.4072310" lon="-6.0879320">
        <ele>0.6</ele>
        <time>2023-01-28T09:51:28Z</time>
      </trkpt>
      <trkpt lat="36.4072420" lon="-6.0879950">
        <ele>0.6</ele>
        <time>2023-01-28T09:51:29Z</time>
      </trkpt>
      <trkpt lat="36.4072500" lon="-6.0880620">
        <ele>0.8</ele>
        <time>2023-01-28T09:51:30Z</time>
      </trkpt>
      <trkpt lat="36.4072570" lon="-6.0881200">
        <ele>1.0</ele>
        <time>2023-01-28T09:51:31Z</time>
      </trkpt>
      <trkpt lat="36.4072620" lon="-6.0881740">
        <ele>1.0</ele>
        <time>2023-01-28T09:51:32Z</time>
      </trkpt>
      <trkpt lat="36.4072550" lon="-6.0882330">
        <ele>1.2</ele>
        <time>2023-01-28T09:51:33Z</time>
      </trkpt>
      <trkpt lat="36.4072560" lon="-6.0882920">
        <ele>1.2</ele>
        <time>2023-01-28T09:51:34Z</time>
      </trkpt>
      <trkpt lat="36.4072530" lon="-6.0883420">
        <ele>1.2</ele>
        <time>2023-01-28T09:51:35Z</time>
      </trkpt>
      <trkpt lat="36.4072520" lon="-6.0884050">
        <ele>1.0</ele>
        <time>2023-01-28T09:51:36Z</time>
      </trkpt>
      <trkpt lat="36.4072640" lon="-6.0884690">
        <ele>1.0</ele>
        <time>2023-01-28T09:51:37Z</time>
      </trkpt>
      <trkpt lat="36.4072710" lon="-6.0885360">
        <ele>1.0</ele>
        <time>2023-01-28T09:51:38Z</time>
      </trkpt>
      <trkpt lat="36.4072730" lon="-6.0886020">
        <ele>0.8</ele>
        <time>2023-01-28T09:51:39Z</time>
      </trkpt>
      <trkpt lat="36.4072790" lon="-6.0886740">
        <ele>0.6</ele>
        <time>2023-01-28T09:51:40Z</time>
      </trkpt>
      <trkpt lat="36.4072790" lon="-6.0887480">
        <ele>0.6</ele>
        <time>2023-01-28T09:51:41Z</time>
      </trkpt>
      <trkpt lat="36.4072830" lon="-6.0888210">
        <ele>0.4</ele>
        <time>2023-01-28T09:51:42Z</time>
      </trkpt>
      <trkpt lat="36.4072800" lon="-6.0889020">
        <ele>0.4</ele>
        <time>2023-01-28T09:51:43Z</time>
      </trkpt>
      <trkpt lat="36.4072760" lon="-6.0889690">
        <ele>0.6</ele>
        <time>2023-01-28T09:51:44Z</time>
      </trkpt>
      <trkpt lat="36.4072730" lon="-6.0890420">
        <ele>0.6</ele>
        <time>2023-01-28T09:51:45Z</time>
      </trkpt>
      <trkpt lat="36.4072630" lon="-6.0891100">
        <ele>0.4</ele>
        <time>2023-01-28T09:51:46Z</time>
      </trkpt>
      <trkpt lat="36.4072630" lon="-6.0891720">
        <ele>0.6</ele>
        <time>2023-01-28T09:51:47Z</time>
      </trkpt>
      <trkpt lat="36.4072670" lon="-6.0892400">
        <ele>0.6</ele>
        <time>2023-01-28T09:51:48Z</time>
      </trkpt>
      <trkpt lat="36.4072690" lon="-6.0893000">
        <ele>0.6</ele>
        <time>2023-01-28T09:51:49Z</time>
      </trkpt>
      <trkpt lat="36.4072680" lon="-6.0893590">
        <ele>0.4</ele>
        <time>2023-01-28T09:51:50Z</time>
      </trkpt>
      <trkpt lat="36.4072640" lon="-6.0894290">
        <ele>0.4</ele>
        <time>2023-01-28T09:51:51Z</time>
      </trkpt>
      <trkpt lat="36.4072620" lon="-6.0894950">
        <ele>0.2</ele>
        <time>2023-01-28T09:51:52Z</time>
      </trkpt>
      <trkpt lat="36.4072730" lon="-6.0895470">
        <ele>0.2</ele>
        <time>2023-01-28T09:51:53Z</time>
      </trkpt>
      <trkpt lat="36.4072750" lon="-6.0896110">
        <ele>0.2</ele>
        <time>2023-01-28T09:51:54Z</time>
      </trkpt>
      <trkpt lat="36.4072710" lon="-6.0896750">
        <ele>0.4</ele>
        <time>2023-01-28T09:51:55Z</time>
      </trkpt>
      <trkpt lat="36.4072640" lon="-6.0897420">
        <ele>0.2</ele>
        <time>2023-01-28T09:51:56Z</time>
      </trkpt>
      <trkpt lat="36.4072690" lon="-6.0897940">
        <ele>0.2</ele>
        <time>2023-01-28T09:51:57Z</time>
      </trkpt>
      <trkpt lat="36.4072690" lon="-6.0898470">
        <ele>0.2</ele>
        <time>2023-01-28T09:51:58Z</time>
      </trkpt>
      <trkpt lat="36.4072710" lon="-6.0899060">
        <ele>0.0</ele>
        <time>2023-01-28T09:51:59Z</time>
      </trkpt>
      <trkpt lat="36.4072720" lon="-6.0899670">
        <ele>0.0</ele>
        <time>2023-01-28T09:52:00Z</time>
      </trkpt>
      <trkpt lat="36.4072740" lon="-6.0900360">
        <ele>0.2</ele>
        <time>2023-01-28T09:52:01Z</time>
      </trkpt>
      <trkpt lat="36.4072760" lon="-6.0900940">
        <ele>0.2</ele>
        <time>2023-01-28T09:52:02Z</time>
      </trkpt>
      <trkpt lat="36.4072770" lon="-6.0901680">
        <ele>0.2</ele>
        <time>2023-01-28T09:52:03Z</time>
      </trkpt>
      <trkpt lat="36.4072760" lon="-6.0902370">
        <ele>0.2</ele>
        <time>2023-01-28T09:52:04Z</time>
      </trkpt>
      <trkpt lat="36.4072810" lon="-6.0902940">
        <ele>0.2</ele>
        <time>2023-01-28T09:52:05Z</time>
      </trkpt>
      <trkpt lat="36.4072900" lon="-6.0903500">
        <ele>0.2</ele>
        <time>2023-01-28T09:52:06Z</time>
      </trkpt>
      <trkpt lat="36.4072960" lon="-6.0904100">
        <ele>0.0</ele>
        <time>2023-01-28T09:52:07Z</time>
      </trkpt>
      <trkpt lat="36.4072990" lon="-6.0904680">
        <ele>0.2</ele>
        <time>2023-01-28T09:52:08Z</time>
      </trkpt>
      <trkpt lat="36.4072990" lon="-6.0905350">
        <ele>0.2</ele>
        <time>2023-01-28T09:52:09Z</time>
      </trkpt>
      <trkpt lat="36.4073010" lon="-6.0905970">
        <ele>0.0</ele>
        <time>2023-01-28T09:52:10Z</time>
      </trkpt>
      <trkpt lat="36.4073040" lon="-6.0906590">
        <ele>-0.2</ele>
        <time>2023-01-28T09:52:11Z</time>
      </trkpt>
      <trkpt lat="36.4072980" lon="-6.0907330">
        <ele>-0.2</ele>
        <time>2023-01-28T09:52:12Z</time>
      </trkpt>
      <trkpt lat="36.4072910" lon="-6.0907890">
        <ele>0.0</ele>
        <time>2023-01-28T09:52:13Z</time>
      </trkpt>
      <trkpt lat="36.4072820" lon="-6.0908610">
        <ele>0.2</ele>
        <time>2023-01-28T09:52:14Z</time>
      </trkpt>
      <trkpt lat="36.4072700" lon="-6.0909250">
        <ele>0.2</ele>
        <time>2023-01-28T09:52:15Z</time>
      </trkpt>
      <trkpt lat="36.4072650" lon="-6.0909880">
        <ele>0.0</ele>
        <time>2023-01-28T09:52:16Z</time>
      </trkpt>
      <trkpt lat="36.4072570" lon="-6.0910440">
        <ele>0.0</ele>
        <time>2023-01-28T09:52:17Z</time>
      </trkpt>
      <trkpt lat="36.4072540" lon="-6.0911090">
        <ele>-0.2</ele>
        <time>2023-01-28T09:52:18Z</time>
      </trkpt>
      <trkpt lat="36.4072600" lon="-6.0911740">
        <ele>-0.2</ele>
        <time>2023-01-28T09:52:19Z</time>
      </trkpt>
      <trkpt lat="36.4072660" lon="-6.0912360">
        <ele>-0.2</ele>
        <time>2023-01-28T09:52:20Z</time>
      </trkpt>
      <trkpt lat="36.4072710" lon="-6.0912930">
        <ele>-0.2</ele>
        <time>2023-01-28T09:52:21Z</time>
      </trkpt>
      <trkpt lat="36.4072730" lon="-6.0913490">
        <ele>-0.4</ele>
        <time>2023-01-28T09:52:22Z</time>
      </trkpt>
      <trkpt lat="36.4072760" lon="-6.0914180">
        <ele>-0.6</ele>
        <time>2023-01-28T09:52:23Z</time>
      </trkpt>
      <trkpt lat="36.4072850" lon="-6.0914800">
        <ele>-0.6</ele>
        <time>2023-01-28T09:52:24Z</time>
      </trkpt>
      <trkpt lat="36.4073000" lon="-6.0915440">
        <ele>-0.8</ele>
        <time>2023-01-28T09:52:25Z</time>
      </trkpt>
      <trkpt lat="36.4073210" lon="-6.0915990">
        <ele>-1.0</ele>
        <time>2023-01-28T09:52:26Z</time>
      </trkpt>
      <trkpt lat="36.4073310" lon="-6.0916610">
        <ele>-1.0</ele>
        <time>2023-01-28T09:52:27Z</time>
      </trkpt>
      <trkpt lat="36.4073380" lon="-6.0917220">
        <ele>-1.2</ele>
        <time>2023-01-28T09:52:28Z</time>
      </trkpt>
      <trkpt lat="36.4073420" lon="-6.0917950">
        <ele>-1.4</ele>
        <time>2023-01-28T09:52:29Z</time>
      </trkpt>
      <trkpt lat="36.4073400" lon="-6.0918640">
        <ele>-1.6</ele>
        <time>2023-01-28T09:52:30Z</time>
      </trkpt>
      <trkpt lat="36.4073380" lon="-6.0919380">
        <ele>-1.8</ele>
        <time>2023-01-28T09:52:31Z</time>
      </trkpt>
      <trkpt lat="36.4073320" lon="-6.0920130">
        <ele>-2.2</ele>
        <time>2023-01-28T09:52:32Z</time>
      </trkpt>
      <trkpt lat="36.4073220" lon="-6.0920910">
        <ele>-2.2</ele>
        <time>2023-01-28T09:52:33Z</time>
      </trkpt>
      <trkpt lat="36.4073110" lon="-6.0921610">
        <ele>-2.4</ele>
        <time>2023-01-28T09:52:34Z</time>
      </trkpt>
      <trkpt lat="36.4073000" lon="-6.0922400">
        <ele>-2.0</ele>
        <time>2023-01-28T09:52:35Z</time>
      </trkpt>
      <trkpt lat="36.4072810" lon="-6.0923130">
        <ele>-2.0</ele>
        <time>2023-01-28T09:52:36Z</time>
      </trkpt>
      <trkpt lat="36.4072670" lon="-6.0923820">
        <ele>-1.6</ele>
        <time>2023-01-28T09:52:37Z</time>
      </trkpt>
      <trkpt lat="36.4072570" lon="-6.0924430">
        <ele>-1.0</ele>
        <time>2023-01-28T09:52:38Z</time>
      </trkpt>
      <trkpt lat="36.4072560" lon="-6.0925080">
        <ele>-0.4</ele>
        <time>2023-01-28T09:52:39Z</time>
      </trkpt>
      <trkpt lat="36.4072540" lon="-6.0925620">
        <ele>-0.2</ele>
        <time>2023-01-28T09:52:40Z</time>
      </trkpt>
      <trkpt lat="36.4072530" lon="-6.0926150">
        <ele>0.0</ele>
        <time>2023-01-28T09:52:41Z</time>
      </trkpt>
      <trkpt lat="36.4072520" lon="-6.0926730">
        <ele>0.0</ele>
        <time>2023-01-28T09:52:42Z</time>
      </trkpt>
      <trkpt lat="36.4072530" lon="-6.0927350">
        <ele>0.0</ele>
        <time>2023-01-28T09:52:43Z</time>
      </trkpt>
      <trkpt lat="36.4072480" lon="-6.0927940">
        <ele>0.2</ele>
        <time>2023-01-28T09:52:44Z</time>
      </trkpt>
      <trkpt lat="36.4072430" lon="-6.0928460">
        <ele>0.4</ele>
        <time>2023-01-28T09:52:45Z</time>
      </trkpt>
      <trkpt lat="36.4072430" lon="-6.0929020">
        <ele>0.2</ele>
        <time>2023-01-28T09:52:46Z</time>
      </trkpt>
      <trkpt lat="36.4072530" lon="-6.0929600">
        <ele>0.2</ele>
        <time>2023-01-28T09:52:47Z</time>
      </trkpt>
      <trkpt lat="36.4072520" lon="-6.0930080">
        <ele>0.2</ele>
        <time>2023-01-28T09:52:48Z</time>
      </trkpt>
      <trkpt lat="36.4072560" lon="-6.0930580">
        <ele>0.6</ele>
        <time>2023-01-28T09:52:49Z</time>
      </trkpt>
      <trkpt lat="36.4072580" lon="-6.0931010">
        <ele>0.6</ele>
        <time>2023-01-28T09:52:50Z</time>
      </trkpt>
      <trkpt lat="36.4072530" lon="-6.0931510">
        <ele>0.8</ele>
        <time>2023-01-28T09:52:51Z</time>
      </trkpt>
      <trkpt lat="36.4072560" lon="-6.0932030">
        <ele>0.8</ele>
        <time>2023-01-28T09:52:52Z</time>
      </trkpt>
      <trkpt lat="36.4072580" lon="-6.0932460">
        <ele>0.8</ele>
        <time>2023-01-28T09:52:53Z</time>
      </trkpt>
      <trkpt lat="36.4072590" lon="-6.0933060">
        <ele>1.0</ele>
        <time>2023-01-28T09:52:54Z</time>
      </trkpt>
      <trkpt lat="36.4072630" lon="-6.0933650">
        <ele>0.8</ele>
        <time>2023-01-28T09:52:55Z</time>
      </trkpt>
      <trkpt lat="36.4072620" lon="-6.0934190">
        <ele>0.8</ele>
        <time>2023-01-28T09:52:56Z</time>
      </trkpt>
      <trkpt lat="36.4072650" lon="-6.0934740">
        <ele>0.8</ele>
        <time>2023-01-28T09:52:57Z</time>
      </trkpt>
      <trkpt lat="36.4072690" lon="-6.0935250">
        <ele>0.4</ele>
        <time>2023-01-28T09:52:58Z</time>
      </trkpt>
      <trkpt lat="36.4072830" lon="-6.0935740">
        <ele>0.4</ele>
        <time>2023-01-28T09:52:59Z</time>
      </trkpt>
      <trkpt lat="36.4072870" lon="-6.0936260">
        <ele>0.4</ele>
        <time>2023-01-28T09:53:00Z</time>
      </trkpt>
      <trkpt lat="36.4072940" lon="-6.0936840">
        <ele>0.6</ele>
        <time>2023-01-28T09:53:01Z</time>
      </trkpt>
      <trkpt lat="36.4073030" lon="-6.0937420">
        <ele>0.8</ele>
        <time>2023-01-28T09:53:02Z</time>
      </trkpt>
      <trkpt lat="36.4072940" lon="-6.0938050">
        <ele>0.6</ele>
        <time>2023-01-28T09:53:03Z</time>
      </trkpt>
      <trkpt lat="36.4072820" lon="-6.0938640">
        <ele>0.4</ele>
        <time>2023-01-28T09:53:04Z</time>
      </trkpt>
      <trkpt lat="36.4072700" lon="-6.0939220">
        <ele>0.2</ele>
        <time>2023-01-28T09:53:05Z</time>
      </trkpt>
      <trkpt lat="36.4072600" lon="-6.0939730">
        <ele>1.0</ele>
        <time>2023-01-28T09:53:06Z</time>
      </trkpt>
      <trkpt lat="36.4072650" lon="-6.0940310">
        <ele>1.0</ele>
        <time>2023-01-28T09:53:07Z</time>
      </trkpt>
      <trkpt lat="36.4072670" lon="-6.0940840">
        <ele>0.2</ele>
        <time>2023-01-28T09:53:08Z</time>
      </trkpt>
      <trkpt lat="36.4072790" lon="-6.0941380">
        <ele>0.0</ele>
        <time>2023-01-28T09:53:09Z</time>
      </trkpt>
      <trkpt lat="36.4072930" lon="-6.0941940">
        <ele>0.0</ele>
        <time>2023-01-28T09:53:10Z</time>
      </trkpt>
      <trkpt lat="36.4073070" lon="-6.0942340">
        <ele>0.0</ele>
        <time>2023-01-28T09:53:11Z</time>
      </trkpt>
      <trkpt lat="36.4073220" lon="-6.0942810">
        <ele>0.2</ele>
        <time>2023-01-28T09:53:12Z</time>
      </trkpt>
      <trkpt lat="36.4073340" lon="-6.0943240">
        <ele>0.0</ele>
        <time>2023-01-28T09:53:13Z</time>
      </trkpt>
      <trkpt lat="36.4073500" lon="-6.0943710">
        <ele>0.0</ele>
        <time>2023-01-28T09:53:14Z</time>
      </trkpt>
      <trkpt lat="36.4073600" lon="-6.0944240">
        <ele>0.4</ele>
        <time>2023-01-28T09:53:15Z</time>
      </trkpt>
      <trkpt lat="36.4073750" lon="-6.0944760">
        <ele>0.4</ele>
        <time>2023-01-28T09:53:16Z</time>
      </trkpt>
      <trkpt lat="36.4073870" lon="-6.0945260">
        <ele>0.0</ele>
        <time>2023-01-28T09:53:17Z</time>
      </trkpt>
      <trkpt lat="36.4074030" lon="-6.0945840">
        <ele>-0.2</ele>
        <time>2023-01-28T09:53:18Z</time>
      </trkpt>
      <trkpt lat="36.4074160" lon="-6.0946320">
        <ele>-0.4</ele>
        <time>2023-01-28T09:53:19Z</time>
      </trkpt>
      <trkpt lat="36.4074240" lon="-6.0946890">
        <ele>-0.6</ele>
        <time>2023-01-28T09:53:20Z</time>
      </trkpt>
      <trkpt lat="36.4074410" lon="-6.0947390">
        <ele>-0.8</ele>
        <time>2023-01-28T09:53:21Z</time>
      </trkpt>
      <trkpt lat="36.4074510" lon="-6.0947820">
        <ele>-1.2</ele>
        <time>2023-01-28T09:53:22Z</time>
      </trkpt>
      <trkpt lat="36.4074700" lon="-6.0948320">
        <ele>-1.6</ele>
        <time>2023-01-28T09:53:23Z</time>
      </trkpt>
      <trkpt lat="36.4074840" lon="-6.0948750">
        <ele>-1.2</ele>
        <time>2023-01-28T09:53:24Z</time>
      </trkpt>
      <trkpt lat="36.4074940" lon="-6.0949330">
        <ele>-1.4</ele>
        <time>2023-01-28T09:53:25Z</time>
      </trkpt>
      <trkpt lat="36.4074980" lon="-6.0949790">
        <ele>-1.4</ele>
        <time>2023-01-28T09:53:26Z</time>
      </trkpt>
      <trkpt lat="36.4075100" lon="-6.0950190">
        <ele>-1.2</ele>
        <time>2023-01-28T09:53:27Z</time>
      </trkpt>
      <trkpt lat="36.4075190" lon="-6.0950630">
        <ele>-1.2</ele>
        <time>2023-01-28T09:53:28Z</time>
      </trkpt>
      <trkpt lat="36.4075330" lon="-6.0951060">
        <ele>-0.8</ele>
        <time>2023-01-28T09:53:29Z</time>
      </trkpt>
      <trkpt lat="36.4075340" lon="-6.0951530">
        <ele>-1.0</ele>
        <time>2023-01-28T09:53:30Z</time>
      </trkpt>
      <trkpt lat="36.4075410" lon="-6.0951880">
        <ele>-0.6</ele>
        <time>2023-01-28T09:53:31Z</time>
      </trkpt>
      <trkpt lat="36.4075530" lon="-6.0952340">
        <ele>-0.2</ele>
        <time>2023-01-28T09:53:32Z</time>
      </trkpt>
      <trkpt lat="36.4075570" lon="-6.0952860">
        <ele>0.0</ele>
        <time>2023-01-28T09:53:33Z</time>
      </trkpt>
      <trkpt lat="36.4075600" lon="-6.0953300">
        <ele>0.0</ele>
        <time>2023-01-28T09:53:34Z</time>
      </trkpt>
      <trkpt lat="36.4075590" lon="-6.0953790">
        <ele>0.4</ele>
        <time>2023-01-28T09:53:35Z</time>
      </trkpt>
      <trkpt lat="36.4075600" lon="-6.0954230">
        <ele>0.4</ele>
        <time>2023-01-28T09:53:36Z</time>
      </trkpt>
      <trkpt lat="36.4075530" lon="-6.0954700">
        <ele>0.2</ele>
        <time>2023-01-28T09:53:37Z</time>
      </trkpt>
      <trkpt lat="36.4075430" lon="-6.0955030">
        <ele>0.0</ele>
        <time>2023-01-28T09:53:38Z</time>
      </trkpt>
      <trkpt lat="36.4075330" lon="-6.0955460">
        <ele>0.2</ele>
        <time>2023-01-28T09:53:39Z</time>
      </trkpt>
      <trkpt lat="36.4075150" lon="-6.0955860">
        <ele>0.4</ele>
        <time>2023-01-28T09:53:40Z</time>
      </trkpt>
      <trkpt lat="36.4074980" lon="-6.0956160">
        <ele>0.4</ele>
        <time>2023-01-28T09:53:41Z</time>
      </trkpt>
      <trkpt lat="36.4074760" lon="-6.0956550">
        <ele>0.6</ele>
        <time>2023-01-28T09:53:42Z</time>
      </trkpt>
      <trkpt lat="36.4074490" lon="-6.0957000">
        <ele>0.4</ele>
        <time>2023-01-28T09:53:43Z</time>
      </trkpt>
      <trkpt lat="36.4074190" lon="-6.0957270">
        <ele>0.4</ele>
        <time>2023-01-28T09:53:44Z</time>
      </trkpt>
      <trkpt lat="36.4073920" lon="-6.0957670">
        <ele>0.4</ele>
        <time>2023-01-28T09:53:45Z</time>
      </trkpt>
      <trkpt lat="36.4073570" lon="-6.0958020">
        <ele>0.2</ele>
        <time>2023-01-28T09:53:46Z</time>
      </trkpt>
      <trkpt lat="36.4073280" lon="-6.0958390">
        <ele>0.2</ele>
        <time>2023-01-28T09:53:47Z</time>
      </trkpt>
      <trkpt lat="36.4072910" lon="-6.0958800">
        <ele>0.2</ele>
        <time>2023-01-28T09:53:48Z</time>
      </trkpt>
      <trkpt lat="36.4072450" lon="-6.0959030">
        <ele>0.2</ele>
        <time>2023-01-28T09:53:49Z</time>
      </trkpt>
      <trkpt lat="36.4072010" lon="-6.0959230">
        <ele>0.0</ele>
        <time>2023-01-28T09:53:50Z</time>
      </trkpt>
      <trkpt lat="36.4071660" lon="-6.0959600">
        <ele>0.0</ele>
        <time>2023-01-28T09:53:51Z</time>
      </trkpt>
      <trkpt lat="36.4071210" lon="-6.0959910">
        <ele>0.0</ele>
        <time>2023-01-28T09:53:52Z</time>
      </trkpt>
      <trkpt lat="36.4070690" lon="-6.0960120">
        <ele>-0.2</ele>
        <time>2023-01-28T09:53:53Z</time>
      </trkpt>
      <trkpt lat="36.4070180" lon="-6.0960360">
        <ele>-0.2</ele>
        <time>2023-01-28T09:53:54Z</time>
      </trkpt>
      <trkpt lat="36.4069740" lon="-6.0960630">
        <ele>-0.2</ele>
        <time>2023-01-28T09:53:55Z</time>
      </trkpt>
      <trkpt lat="36.4069340" lon="-6.0960990">
        <ele>-0.4</ele>
        <time>2023-01-28T09:53:56Z</time>
      </trkpt>
      <trkpt lat="36.4068890" lon="-6.0961340">
        <ele>-0.6</ele>
        <time>2023-01-28T09:53:57Z</time>
      </trkpt>
      <trkpt lat="36.4068380" lon="-6.0961640">
        <ele>-0.6</ele>
        <time>2023-01-28T09:53:58Z</time>
      </trkpt>
      <trkpt lat="36.4067910" lon="-6.0961870">
        <ele>-0.8</ele>
        <time>2023-01-28T09:53:59Z</time>
      </trkpt>
      <trkpt lat="36.4067470" lon="-6.0962140">
        <ele>-0.8</ele>
        <time>2023-01-28T09:54:00Z</time>
      </trkpt>
      <trkpt lat="36.4067010" lon="-6.0962450">
        <ele>-0.8</ele>
        <time>2023-01-28T09:54:01Z</time>
      </trkpt>
      <trkpt lat="36.4066580" lon="-6.0962820">
        <ele>-0.8</ele>
        <time>2023-01-28T09:54:02Z</time>
      </trkpt>
      <trkpt lat="36.4066390" lon="-6.0963350">
        <ele>-0.6</ele>
        <time>2023-01-28T09:54:03Z</time>
      </trkpt>
      <trkpt lat="36.4066370" lon="-6.0963950">
        <ele>-0.6</ele>
        <time>2023-01-28T09:54:04Z</time>
      </trkpt>
      <trkpt lat="36.4066360" lon="-6.0964460">
        <ele>-0.4</ele>
        <time>2023-01-28T09:54:05Z</time>
      </trkpt>
      <trkpt lat="36.4066400" lon="-6.0965010">
        <ele>-0.4</ele>
        <time>2023-01-28T09:54:06Z</time>
      </trkpt>
      <trkpt lat="36.4066600" lon="-6.0965480">
        <ele>-0.6</ele>
        <time>2023-01-28T09:54:07Z</time>
      </trkpt>
      <trkpt lat="36.4066780" lon="-6.0966040">
        <ele>-0.4</ele>
        <time>2023-01-28T09:54:08Z</time>
      </trkpt>
      <trkpt lat="36.4067070" lon="-6.0966580">
        <ele>-0.2</ele>
        <time>2023-01-28T09:54:09Z</time>
      </trkpt>
      <trkpt lat="36.4067330" lon="-6.0967080">
        <ele>0.0</ele>
        <time>2023-01-28T09:54:10Z</time>
      </trkpt>
      <trkpt lat="36.4067580" lon="-6.0967670">
        <ele>-0.2</ele>
        <time>2023-01-28T09:54:11Z</time>
      </trkpt>
      <trkpt lat="36.4067770" lon="-6.0968180">
        <ele>-0.4</ele>
        <time>2023-01-28T09:54:12Z</time>
      </trkpt>
      <trkpt lat="36.4067940" lon="-6.0968710">
        <ele>-0.4</ele>
        <time>2023-01-28T09:54:13Z</time>
      </trkpt>
      <trkpt lat="36.4068130" lon="-6.0969290">
        <ele>-0.4</ele>
        <time>2023-01-28T09:54:14Z</time>
      </trkpt>
      <trkpt lat="36.4068370" lon="-6.0969870">
        <ele>-0.4</ele>
        <time>2023-01-28T09:54:15Z</time>
      </trkpt>
      <trkpt lat="36.4068540" lon="-6.0970380">
        <ele>-0.6</ele>
        <time>2023-01-28T09:54:16Z</time>
      </trkpt>
      <trkpt lat="36.4068800" lon="-6.0970900">
        <ele>-0.6</ele>
        <time>2023-01-28T09:54:17Z</time>
      </trkpt>
      <trkpt lat="36.4068980" lon="-6.0971410">
        <ele>-0.6</ele>
        <time>2023-01-28T09:54:18Z</time>
      </trkpt>
      <trkpt lat="36.4069140" lon="-6.0971940">
        <ele>-0.6</ele>
        <time>2023-01-28T09:54:19Z</time>
      </trkpt>
      <trkpt lat="36.4069320" lon="-6.0972540">
        <ele>-0.4</ele>
        <time>2023-01-28T09:54:20Z</time>
      </trkpt>
      <trkpt lat="36.4069470" lon="-6.0973090">
        <ele>-0.6</ele>
        <time>2023-01-28T09:54:21Z</time>
      </trkpt>
      <trkpt lat="36.4069520" lon="-6.0973610">
        <ele>-0.4</ele>
        <time>2023-01-28T09:54:22Z</time>
      </trkpt>
      <trkpt lat="36.4069600" lon="-6.0974190">
        <ele>-0.4</ele>
        <time>2023-01-28T09:54:23Z</time>
      </trkpt>
      <trkpt lat="36.4069580" lon="-6.0974830">
        <ele>-0.2</ele>
        <time>2023-01-28T09:54:24Z</time>
      </trkpt>
      <trkpt lat="36.4069610" lon="-6.0975390">
        <ele>0.0</ele>
        <time>2023-01-28T09:54:25Z</time>
      </trkpt>
      <trkpt lat="36.4069640" lon="-6.0976000">
        <ele>-0.2</ele>
        <time>2023-01-28T09:54:26Z</time>
      </trkpt>
      <trkpt lat="36.4069580" lon="-6.0976550">
        <ele>-0.4</ele>
        <time>2023-01-28T09:54:27Z</time>
      </trkpt>
      <trkpt lat="36.4069410" lon="-6.0977310">
        <ele>-0.4</ele>
        <time>2023-01-28T09:54:28Z</time>
      </trkpt>
      <trkpt lat="36.4069300" lon="-6.0977840">
        <ele>-0.2</ele>
        <time>2023-01-28T09:54:29Z</time>
      </trkpt>
      <trkpt lat="36.4069170" lon="-6.0978310">
        <ele>-0.2</ele>
        <time>2023-01-28T09:54:30Z</time>
      </trkpt>
      <trkpt lat="36.4069090" lon="-6.0978850">
        <ele>-0.2</ele>
        <time>2023-01-28T09:54:31Z</time>
      </trkpt>
      <trkpt lat="36.4068980" lon="-6.0979350">
        <ele>-0.2</ele>
        <time>2023-01-28T09:54:32Z</time>
      </trkpt>
      <trkpt lat="36.4068890" lon="-6.0979880">
        <ele>-0.4</ele>
        <time>2023-01-28T09:54:33Z</time>
      </trkpt>
      <trkpt lat="36.4068830" lon="-6.0980510">
        <ele>-0.4</ele>
        <time>2023-01-28T09:54:34Z</time>
      </trkpt>
      <trkpt lat="36.4068730" lon="-6.0981020">
        <ele>-0.2</ele>
        <time>2023-01-28T09:54:35Z</time>
      </trkpt>
      <trkpt lat="36.4068600" lon="-6.0981560">
        <ele>-0.2</ele>
        <time>2023-01-28T09:54:36Z</time>
      </trkpt>
      <trkpt lat="36.4068460" lon="-6.0982070">
        <ele>0.0</ele>
        <time>2023-01-28T09:54:37Z</time>
      </trkpt>
      <trkpt lat="36.4068370" lon="-6.0982660">
        <ele>-0.2</ele>
        <time>2023-01-28T09:54:38Z</time>
      </trkpt>
      <trkpt lat="36.4068240" lon="-6.0983120">
        <ele>-0.2</ele>
        <time>2023-01-28T09:54:39Z</time>
      </trkpt>
      <trkpt lat="36.4068150" lon="-6.0983550">
        <ele>0.0</ele>
        <time>2023-01-28T09:54:40Z</time>
      </trkpt>
      <trkpt lat="36.4068030" lon="-6.0984000">
        <ele>0.0</ele>
        <time>2023-01-28T09:54:41Z</time>
      </trkpt>
      <trkpt lat="36.4067980" lon="-6.0984530">
        <ele>0.0</ele>
        <time>2023-01-28T09:54:42Z</time>
      </trkpt>
      <trkpt lat="36.4067930" lon="-6.0984980">
        <ele>0.0</ele>
        <time>2023-01-28T09:54:43Z</time>
      </trkpt>
      <trkpt lat="36.4067910" lon="-6.0985430">
        <ele>0.0</ele>
        <time>2023-01-28T09:54:44Z</time>
      </trkpt>
      <trkpt lat="36.4067900" lon="-6.0985900">
        <ele>0.0</ele>
        <time>2023-01-28T09:54:45Z</time>
      </trkpt>
      <trkpt lat="36.4067920" lon="-6.0986370">
        <ele>0.2</ele>
        <time>2023-01-28T09:54:46Z</time>
      </trkpt>
      <trkpt lat="36.4067960" lon="-6.0986820">
        <ele>0.2</ele>
        <time>2023-01-28T09:54:47Z</time>
      </trkpt>
      <trkpt lat="36.4068000" lon="-6.0987280">
        <ele>0.2</ele>
        <time>2023-01-28T09:54:48Z</time>
      </trkpt>
      <trkpt lat="36.4068000" lon="-6.0987800">
        <ele>0.6</ele>
        <time>2023-01-28T09:54:49Z</time>
      </trkpt>
      <trkpt lat="36.4068040" lon="-6.0988250">
        <ele>0.8</ele>
        <time>2023-01-28T09:54:50Z</time>
      </trkpt>
      <trkpt lat="36.4068000" lon="-6.0988760">
        <ele>0.8</ele>
        <time>2023-01-28T09:54:51Z</time>
      </trkpt>
      <trkpt lat="36.4068030" lon="-6.0989220">
        <ele>0.6</ele>
        <time>2023-01-28T09:54:52Z</time>
      </trkpt>
      <trkpt lat="36.4067980" lon="-6.0989690">
        <ele>0.8</ele>
        <time>2023-01-28T09:54:53Z</time>
      </trkpt>
      <trkpt lat="36.4067860" lon="-6.0990120">
        <ele>1.2</ele>
        <time>2023-01-28T09:54:54Z</time>
      </trkpt>
      <trkpt lat="36.4067830" lon="-6.0990570">
        <ele>1.4</ele>
        <time>2023-01-28T09:54:55Z</time>
      </trkpt>
      <trkpt lat="36.4067800" lon="-6.0990980">
        <ele>1.4</ele>
        <time>2023-01-28T09:54:56Z</time>
      </trkpt>
      <trkpt lat="36.4067710" lon="-6.0991360">
        <ele>1.6</ele>
        <time>2023-01-28T09:54:57Z</time>
      </trkpt>
      <trkpt lat="36.4067620" lon="-6.0991810">
        <ele>1.6</ele>
        <time>2023-01-28T09:54:58Z</time>
      </trkpt>
      <trkpt lat="36.4067560" lon="-6.0992210">
        <ele>1.6</ele>
        <time>2023-01-28T09:54:59Z</time>
      </trkpt>
      <trkpt lat="36.4067530" lon="-6.0992640">
        <ele>1.8</ele>
        <time>2023-01-28T09:55:00Z</time>
      </trkpt>
      <trkpt lat="36.4067420" lon="-6.0993040">
        <ele>1.8</ele>
        <time>2023-01-28T09:55:01Z</time>
      </trkpt>
      <trkpt lat="36.4067330" lon="-6.0993450">
        <ele>2.0</ele>
        <time>2023-01-28T09:55:02Z</time>
      </trkpt>
      <trkpt lat="36.4067230" lon="-6.0993950">
        <ele>2.0</ele>
        <time>2023-01-28T09:55:03Z</time>
      </trkpt>
      <trkpt lat="36.4067190" lon="-6.0994400">
        <ele>2.0</ele>
        <time>2023-01-28T09:55:04Z</time>
      </trkpt>
      <trkpt lat="36.4067110" lon="-6.0994870">
        <ele>2.2</ele>
        <time>2023-01-28T09:55:05Z</time>
      </trkpt>
      <trkpt lat="36.4067010" lon="-6.0995450">
        <ele>2.6</ele>
        <time>2023-01-28T09:55:06Z</time>
      </trkpt>
      <trkpt lat="36.4066880" lon="-6.0995990">
        <ele>2.8</ele>
        <time>2023-01-28T09:55:07Z</time>
      </trkpt>
      <trkpt lat="36.4066760" lon="-6.0996570">
        <ele>2.6</ele>
        <time>2023-01-28T09:55:08Z</time>
      </trkpt>
      <trkpt lat="36.4066710" lon="-6.0997070">
        <ele>2.8</ele>
        <time>2023-01-28T09:55:09Z</time>
      </trkpt>
      <trkpt lat="36.4066620" lon="-6.0997570">
        <ele>2.8</ele>
        <time>2023-01-28T09:55:10Z</time>
      </trkpt>
      <trkpt lat="36.4066530" lon="-6.0998050">
        <ele>2.8</ele>
        <time>2023-01-28T09:55:11Z</time>
      </trkpt>
      <trkpt lat="36.4066380" lon="-6.0998460">
        <ele>3.0</ele>
        <time>2023-01-28T09:55:12Z</time>
      </trkpt>
      <trkpt lat="36.4066270" lon="-6.0999010">
        <ele>3.0</ele>
        <time>2023-01-28T09:55:13Z</time>
      </trkpt>
      <trkpt lat="36.4066100" lon="-6.0999550">
        <ele>2.8</ele>
        <time>2023-01-28T09:55:14Z</time>
      </trkpt>
      <trkpt lat="36.4065990" lon="-6.1000080">
        <ele>2.6</ele>
        <time>2023-01-28T09:55:15Z</time>
      </trkpt>
      <trkpt lat="36.4065850" lon="-6.1000580">
        <ele>2.6</ele>
        <time>2023-01-28T09:55:16Z</time>
      </trkpt>
      <trkpt lat="36.4065710" lon="-6.1001130">
        <ele>2.4</ele>
        <time>2023-01-28T09:55:17Z</time>
      </trkpt>
      <trkpt lat="36.4065600" lon="-6.1001590">
        <ele>2.4</ele>
        <time>2023-01-28T09:55:18Z</time>
      </trkpt>
      <trkpt lat="36.4065540" lon="-6.1002130">
        <ele>2.4</ele>
        <time>2023-01-28T09:55:19Z</time>
      </trkpt>
      <trkpt lat="36.4065490" lon="-6.1002660">
        <ele>2.6</ele>
        <time>2023-01-28T09:55:20Z</time>
      </trkpt>
      <trkpt lat="36.4065460" lon="-6.1003140">
        <ele>2.8</ele>
        <time>2023-01-28T09:55:21Z</time>
      </trkpt>
      <trkpt lat="36.4065390" lon="-6.1003550">
        <ele>2.8</ele>
        <time>2023-01-28T09:55:22Z</time>
      </trkpt>
      <trkpt lat="36.4065320" lon="-6.1004110">
        <ele>2.4</ele>
        <time>2023-01-28T09:55:23Z</time>
      </trkpt>
      <trkpt lat="36.4065230" lon="-6.1004640">
        <ele>2.2</ele>
        <time>2023-01-28T09:55:24Z</time>
      </trkpt>
      <trkpt lat="36.4065120" lon="-6.1005120">
        <ele>2.4</ele>
        <time>2023-01-28T09:55:25Z</time>
      </trkpt>
      <trkpt lat="36.4065050" lon="-6.1005600">
        <ele>2.4</ele>
        <time>2023-01-28T09:55:26Z</time>
      </trkpt>
      <trkpt lat="36.4065010" lon="-6.1006270">
        <ele>2.6</ele>
        <time>2023-01-28T09:55:27Z</time>
      </trkpt>
      <trkpt lat="36.4065000" lon="-6.1006720">
        <ele>2.6</ele>
        <time>2023-01-28T09:55:28Z</time>
      </trkpt>
      <trkpt lat="36.4064900" lon="-6.1007330">
        <ele>2.6</ele>
        <time>2023-01-28T09:55:29Z</time>
      </trkpt>
      <trkpt lat="36.4064850" lon="-6.1007810">
        <ele>2.2</ele>
        <time>2023-01-28T09:55:30Z</time>
      </trkpt>
      <trkpt lat="36.4064720" lon="-6.1008290">
        <ele>2.2</ele>
        <time>2023-01-28T09:55:31Z</time>
      </trkpt>
      <trkpt lat="36.4064790" lon="-6.1008830">
        <ele>2.2</ele>
        <time>2023-01-28T09:55:32Z</time>
      </trkpt>
      <trkpt lat="36.4064830" lon="-6.1009440">
        <ele>2.2</ele>
        <time>2023-01-28T09:55:33Z</time>
      </trkpt>
      <trkpt lat="36.4064750" lon="-6.1009900">
        <ele>2.4</ele>
        <time>2023-01-28T09:55:34Z</time>
      </trkpt>
      <trkpt lat="36.4064680" lon="-6.1010390">
        <ele>2.6</ele>
        <time>2023-01-28T09:55:35Z</time>
      </trkpt>
      <trkpt lat="36.4064610" lon="-6.1010870">
        <ele>2.6</ele>
        <time>2023-01-28T09:55:36Z</time>
      </trkpt>
      <trkpt lat="36.4064520" lon="-6.1011410">
        <ele>2.6</ele>
        <time>2023-01-28T09:55:37Z</time>
      </trkpt>
      <trkpt lat="36.4064410" lon="-6.1011960">
        <ele>2.6</ele>
        <time>2023-01-28T09:55:38Z</time>
      </trkpt>
      <trkpt lat="36.4064230" lon="-6.1012490">
        <ele>2.8</ele>
        <time>2023-01-28T09:55:39Z</time>
      </trkpt>
      <trkpt lat="36.4064170" lon="-6.1012990">
        <ele>2.8</ele>
        <time>2023-01-28T09:55:40Z</time>
      </trkpt>
      <trkpt lat="36.4064090" lon="-6.1013550">
        <ele>2.8</ele>
        <time>2023-01-28T09:55:41Z</time>
      </trkpt>
      <trkpt lat="36.4063990" lon="-6.1014110">
        <ele>2.8</ele>
        <time>2023-01-28T09:55:42Z</time>
      </trkpt>
      <trkpt lat="36.4063930" lon="-6.1014640">
        <ele>3.0</ele>
        <time>2023-01-28T09:55:43Z</time>
      </trkpt>
      <trkpt lat="36.4063810" lon="-6.1015240">
        <ele>2.8</ele>
        <time>2023-01-28T09:55:44Z</time>
      </trkpt>
      <trkpt lat="36.4063700" lon="-6.1015790">
        <ele>2.8</ele>
        <time>2023-01-28T09:55:45Z</time>
      </trkpt>
      <trkpt lat="36.4063640" lon="-6.1016370">
        <ele>2.8</ele>
        <time>2023-01-28T09:55:46Z</time>
      </trkpt>
      <trkpt lat="36.4063570" lon="-6.1016890">
        <ele>2.6</ele>
        <time>2023-01-28T09:55:47Z</time>
      </trkpt>
      <trkpt lat="36.4063510" lon="-6.1017440">
        <ele>2.8</ele>
        <time>2023-01-28T09:55:48Z</time>
      </trkpt>
      <trkpt lat="36.4063460" lon="-6.1017900">
        <ele>3.0</ele>
        <time>2023-01-28T09:55:49Z</time>
      </trkpt>
      <trkpt lat="36.4063370" lon="-6.1018380">
        <ele>2.8</ele>
        <time>2023-01-28T09:55:50Z</time>
      </trkpt>
      <trkpt lat="36.4063270" lon="-6.1018920">
        <ele>3.0</ele>
        <time>2023-01-28T09:55:51Z</time>
      </trkpt>
      <trkpt lat="36.4063200" lon="-6.1019400">
        <ele>3.0</ele>
        <time>2023-01-28T09:55:52Z</time>
      </trkpt>
      <trkpt lat="36.4063130" lon="-6.1019930">
        <ele>3.0</ele>
        <time>2023-01-28T09:55:53Z</time>
      </trkpt>
      <trkpt lat="36.4063060" lon="-6.1020420">
        <ele>3.0</ele>
        <time>2023-01-28T09:55:54Z</time>
      </trkpt>
      <trkpt lat="36.4062970" lon="-6.1020990">
        <ele>3.0</ele>
        <time>2023-01-28T09:55:55Z</time>
      </trkpt>
      <trkpt lat="36.4062940" lon="-6.1021580">
        <ele>3.0</ele>
        <time>2023-01-28T09:55:56Z</time>
      </trkpt>
      <trkpt lat="36.4062880" lon="-6.1022150">
        <ele>3.0</ele>
        <time>2023-01-28T09:55:57Z</time>
      </trkpt>
      <trkpt lat="36.4062810" lon="-6.1022740">
        <ele>3.0</ele>
        <time>2023-01-28T09:55:58Z</time>
      </trkpt>
      <trkpt lat="36.4062810" lon="-6.1023300">
        <ele>3.0</ele>
        <time>2023-01-28T09:55:59Z</time>
      </trkpt>
      <trkpt lat="36.4062800" lon="-6.1023810">
        <ele>3.0</ele>
        <time>2023-01-28T09:56:00Z</time>
      </trkpt>
      <trkpt lat="36.4062770" lon="-6.1024350">
        <ele>3.2</ele>
        <time>2023-01-28T09:56:01Z</time>
      </trkpt>
      <trkpt lat="36.4062740" lon="-6.1024890">
        <ele>3.2</ele>
        <time>2023-01-28T09:56:02Z</time>
      </trkpt>
      <trkpt lat="36.4062680" lon="-6.1025420">
        <ele>3.2</ele>
        <time>2023-01-28T09:56:03Z</time>
      </trkpt>
      <trkpt lat="36.4062610" lon="-6.1025960">
        <ele>3.4</ele>
        <time>2023-01-28T09:56:04Z</time>
      </trkpt>
      <trkpt lat="36.4062510" lon="-6.1026380">
        <ele>3.6</ele>
        <time>2023-01-28T09:56:05Z</time>
      </trkpt>
      <trkpt lat="36.4062440" lon="-6.1026910">
        <ele>3.6</ele>
        <time>2023-01-28T09:56:06Z</time>
      </trkpt>
      <trkpt lat="36.4062320" lon="-6.1027390">
        <ele>3.6</ele>
        <time>2023-01-28T09:56:07Z</time>
      </trkpt>
      <trkpt lat="36.4062190" lon="-6.1027890">
        <ele>3.8</ele>
        <time>2023-01-28T09:56:08Z</time>
      </trkpt>
      <trkpt lat="36.4062010" lon="-6.1028360">
        <ele>3.8</ele>
        <time>2023-01-28T09:56:09Z</time>
      </trkpt>
      <trkpt lat="36.4061870" lon="-6.1028840">
        <ele>3.6</ele>
        <time>2023-01-28T09:56:10Z</time>
      </trkpt>
      <trkpt lat="36.4061820" lon="-6.1029270">
        <ele>3.8</ele>
        <time>2023-01-28T09:56:11Z</time>
      </trkpt>
      <trkpt lat="36.4061700" lon="-6.1029770">
        <ele>3.6</ele>
        <time>2023-01-28T09:56:12Z</time>
      </trkpt>
      <trkpt lat="36.4061590" lon="-6.1030230">
        <ele>3.6</ele>
        <time>2023-01-28T09:56:13Z</time>
      </trkpt>
      <trkpt lat="36.4061470" lon="-6.1030650">
        <ele>3.6</ele>
        <time>2023-01-28T09:56:14Z</time>
      </trkpt>
      <trkpt lat="36.4061360" lon="-6.1031040">
        <ele>3.6</ele>
        <time>2023-01-28T09:56:15Z</time>
      </trkpt>
      <trkpt lat="36.4061250" lon="-6.1031450">
        <ele>3.6</ele>
        <time>2023-01-28T09:56:16Z</time>
      </trkpt>
      <trkpt lat="36.4061160" lon="-6.1031990">
        <ele>3.6</ele>
        <time>2023-01-28T09:56:17Z</time>
      </trkpt>
      <trkpt lat="36.4061040" lon="-6.1032530">
        <ele>4.0</ele>
        <time>2023-01-28T09:56:18Z</time>
      </trkpt>
      <trkpt lat="36.4061020" lon="-6.1033090">
        <ele>4.0</ele>
        <time>2023-01-28T09:56:19Z</time>
      </trkpt>
      <trkpt lat="36.4060930" lon="-6.1033580">
        <ele>4.0</ele>
        <time>2023-01-28T09:56:20Z</time>
      </trkpt>
      <trkpt lat="36.4060910" lon="-6.1034040">
        <ele>4.2</ele>
        <time>2023-01-28T09:56:21Z</time>
      </trkpt>
      <trkpt lat="36.4060850" lon="-6.1034550">
        <ele>4.2</ele>
        <time>2023-01-28T09:56:22Z</time>
      </trkpt>
      <trkpt lat="36.4060850" lon="-6.1035090">
        <ele>4.4</ele>
        <time>2023-01-28T09:56:23Z</time>
      </trkpt>
      <trkpt lat="36.4060870" lon="-6.1035570">
        <ele>4.4</ele>
        <time>2023-01-28T09:56:24Z</time>
      </trkpt>
      <trkpt lat="36.4060840" lon="-6.1036150">
        <ele>4.6</ele>
        <time>2023-01-28T09:56:25Z</time>
      </trkpt>
      <trkpt lat="36.4060820" lon="-6.1036620">
        <ele>4.8</ele>
        <time>2023-01-28T09:56:26Z</time>
      </trkpt>
      <trkpt lat="36.4060810" lon="-6.1037130">
        <ele>4.8</ele>
        <time>2023-01-28T09:56:27Z</time>
      </trkpt>
      <trkpt lat="36.4060830" lon="-6.1037610">
        <ele>5.0</ele>
        <time>2023-01-28T09:56:28Z</time>
      </trkpt>
      <trkpt lat="36.4060890" lon="-6.1038030">
        <ele>5.2</ele>
        <time>2023-01-28T09:56:29Z</time>
      </trkpt>
      <trkpt lat="36.4060970" lon="-6.1038480">
        <ele>5.2</ele>
        <time>2023-01-28T09:56:30Z</time>
      </trkpt>
      <trkpt lat="36.4061050" lon="-6.1038940">
        <ele>5.4</ele>
        <time>2023-01-28T09:56:31Z</time>
      </trkpt>
      <trkpt lat="36.4061130" lon="-6.1039470">
        <ele>5.4</ele>
        <time>2023-01-28T09:56:32Z</time>
      </trkpt>
      <trkpt lat="36.4061220" lon="-6.1039940">
        <ele>6.0</ele>
        <time>2023-01-28T09:56:33Z</time>
      </trkpt>
      <trkpt lat="36.4061300" lon="-6.1040360">
        <ele>6.0</ele>
        <time>2023-01-28T09:56:34Z</time>
      </trkpt>
      <trkpt lat="36.4061400" lon="-6.1041010">
        <ele>6.0</ele>
        <time>2023-01-28T09:56:35Z</time>
      </trkpt>
      <trkpt lat="36.4061460" lon="-6.1041200">
        <ele>6.2</ele>
        <time>2023-01-28T09:56:36Z</time>
      </trkpt>
      <trkpt lat="36.4061530" lon="-6.1041630">
        <ele>6.2</ele>
        <time>2023-01-28T09:56:37Z</time>
      </trkpt>
      <trkpt lat="36.4061620" lon="-6.1042040">
        <ele>6.4</ele>
        <time>2023-01-28T09:56:38Z</time>
      </trkpt>
      <trkpt lat="36.4061650" lon="-6.1042400">
        <ele>6.6</ele>
        <time>2023-01-28T09:56:39Z</time>
      </trkpt>
      <trkpt lat="36.4061730" lon="-6.1042790">
        <ele>6.8</ele>
        <time>2023-01-28T09:56:40Z</time>
      </trkpt>
      <trkpt lat="36.4061920" lon="-6.1043150">
        <ele>7.0</ele>
        <time>2023-01-28T09:56:41Z</time>
      </trkpt>
      <trkpt lat="36.4062040" lon="-6.1043530">
        <ele>7.0</ele>
        <time>2023-01-28T09:56:42Z</time>
      </trkpt>
      <trkpt lat="36.4062060" lon="-6.1043910">
        <ele>7.2</ele>
        <time>2023-01-28T09:56:43Z</time>
      </trkpt>
      <trkpt lat="36.4062120" lon="-6.1044160">
        <ele>7.4</ele>
        <time>2023-01-28T09:56:44Z</time>
      </trkpt>
      <trkpt lat="36.4062140" lon="-6.1044440">
        <ele>7.6</ele>
        <time>2023-01-28T09:56:45Z</time>
      </trkpt>
      <trkpt lat="36.4062150" lon="-6.1044810">
        <ele>7.8</ele>
        <time>2023-01-28T09:56:46Z</time>
      </trkpt>
      <trkpt lat="36.4062250" lon="-6.1045180">
        <ele>8.2</ele>
        <time>2023-01-28T09:56:47Z</time>
      </trkpt>
      <trkpt lat="36.4062280" lon="-6.1045580">
        <ele>8.2</ele>
        <time>2023-01-28T09:56:48Z</time>
      </trkpt>
      <trkpt lat="36.4062330" lon="-6.1045920">
        <ele>8.6</ele>
        <time>2023-01-28T09:56:49Z</time>
      </trkpt>
      <trkpt lat="36.4062360" lon="-6.1046310">
        <ele>8.6</ele>
        <time>2023-01-28T09:56:50Z</time>
      </trkpt>
      <trkpt lat="36.4062410" lon="-6.1046550">
        <ele>8.8</ele>
        <time>2023-01-28T09:56:51Z</time>
      </trkpt>
      <trkpt lat="36.4062510" lon="-6.1046740">
        <ele>9.0</ele>
        <time>2023-01-28T09:56:52Z</time>
      </trkpt>
      <trkpt lat="36.4062530" lon="-6.1047090">
        <ele>9.2</ele>
        <time>2023-01-28T09:56:53Z</time>
      </trkpt>
      <trkpt lat="36.4062530" lon="-6.1047500">
        <ele>9.4</ele>
        <time>2023-01-28T09:56:54Z</time>
      </trkpt>
      <trkpt lat="36.4062620" lon="-6.1047860">
        <ele>9.4</ele>
        <time>2023-01-28T09:56:55Z</time>
      </trkpt>
      <trkpt lat="36.4062650" lon="-6.1048180">
        <ele>9.6</ele>
        <time>2023-01-28T09:56:56Z</time>
      </trkpt>
      <trkpt lat="36.4062660" lon="-6.1048600">
        <ele>9.8</ele>
        <time>2023-01-28T09:56:57Z</time>
      </trkpt>
      <trkpt lat="36.4062740" lon="-6.1048910">
        <ele>9.8</ele>
        <time>2023-01-28T09:56:58Z</time>
      </trkpt>
      <trkpt lat="36.4062710" lon="-6.1049290">
        <ele>10.0</ele>
        <time>2023-01-28T09:56:59Z</time>
      </trkpt>
      <trkpt lat="36.4062730" lon="-6.1049640">
        <ele>10.2</ele>
        <time>2023-01-28T09:57:00Z</time>
      </trkpt>
      <trkpt lat="36.4062780" lon="-6.1050030">
        <ele>10.2</ele>
        <time>2023-01-28T09:57:01Z</time>
      </trkpt>
      <trkpt lat="36.4062750" lon="-6.1050410">
        <ele>10.4</ele>
        <time>2023-01-28T09:57:02Z</time>
      </trkpt>
      <trkpt lat="36.4062770" lon="-6.1050810">
        <ele>10.6</ele>
        <time>2023-01-28T09:57:03Z</time>
      </trkpt>
      <trkpt lat="36.4062920" lon="-6.1051250">
        <ele>10.6</ele>
        <time>2023-01-28T09:57:04Z</time>
      </trkpt>
      <trkpt lat="36.4063080" lon="-6.1051610">
        <ele>10.8</ele>
        <time>2023-01-28T09:57:05Z</time>
      </trkpt>
      <trkpt lat="36.4063140" lon="-6.1052020">
        <ele>11.2</ele>
        <time>2023-01-28T09:57:06Z</time>
      </trkpt>
      <trkpt lat="36.4063180" lon="-6.1052380">
        <ele>11.4</ele>
        <time>2023-01-28T09:57:07Z</time>
      </trkpt>
      <trkpt lat="36.4063240" lon="-6.1052680">
        <ele>11.8</ele>
        <time>2023-01-28T09:57:08Z</time>
      </trkpt>
      <trkpt lat="36.4063290" lon="-6.1053110">
        <ele>11.8</ele>
        <time>2023-01-28T09:57:09Z</time>
      </trkpt>
      <trkpt lat="36.4063330" lon="-6.1053480">
        <ele>12.0</ele>
        <time>2023-01-28T09:57:10Z</time>
      </trkpt>
      <trkpt lat="36.4063360" lon="-6.1053780">
        <ele>11.8</ele>
        <time>2023-01-28T09:57:11Z</time>
      </trkpt>
      <trkpt lat="36.4063360" lon="-6.1054170">
        <ele>12.0</ele>
        <time>2023-01-28T09:57:12Z</time>
      </trkpt>
      <trkpt lat="36.4063350" lon="-6.1054410">
        <ele>12.2</ele>
        <time>2023-01-28T09:57:13Z</time>
      </trkpt>
      <trkpt lat="36.4063340" lon="-6.1054760">
        <ele>12.2</ele>
        <time>2023-01-28T09:57:14Z</time>
      </trkpt>
      <trkpt lat="36.4063390" lon="-6.1055210">
        <ele>12.2</ele>
        <time>2023-01-28T09:57:15Z</time>
      </trkpt>
      <trkpt lat="36.4063490" lon="-6.1055500">
        <ele>12.2</ele>
        <time>2023-01-28T09:57:16Z</time>
      </trkpt>
      <trkpt lat="36.4063580" lon="-6.1055910">
        <ele>12.4</ele>
        <time>2023-01-28T09:57:17Z</time>
      </trkpt>
      <trkpt lat="36.4063610" lon="-6.1056350">
        <ele>12.2</ele>
        <time>2023-01-28T09:57:18Z</time>
      </trkpt>
      <trkpt lat="36.4063620" lon="-6.1056750">
        <ele>12.2</ele>
        <time>2023-01-28T09:57:19Z</time>
      </trkpt>
      <trkpt lat="36.4063730" lon="-6.1057110">
        <ele>12.4</ele>
        <time>2023-01-28T09:57:20Z</time>
      </trkpt>
      <trkpt lat="36.4063700" lon="-6.1057420">
        <ele>12.4</ele>
        <time>2023-01-28T09:57:21Z</time>
      </trkpt>
      <trkpt lat="36.4063770" lon="-6.1057700">
        <ele>12.4</ele>
        <time>2023-01-28T09:57:22Z</time>
      </trkpt>
      <trkpt lat="36.4063730" lon="-6.1058080">
        <ele>12.6</ele>
        <time>2023-01-28T09:57:23Z</time>
      </trkpt>
      <trkpt lat="36.4063790" lon="-6.1058480">
        <ele>12.6</ele>
        <time>2023-01-28T09:57:24Z</time>
      </trkpt>
      <trkpt lat="36.4063850" lon="-6.1058850">
        <ele>12.4</ele>
        <time>2023-01-28T09:57:25Z</time>
      </trkpt>
      <trkpt lat="36.4063850" lon="-6.1059170">
        <ele>12.4</ele>
        <time>2023-01-28T09:57:26Z</time>
      </trkpt>
      <trkpt lat="36.4063930" lon="-6.1059480">
        <ele>12.6</ele>
        <time>2023-01-28T09:57:27Z</time>
      </trkpt>
      <trkpt lat="36.4064050" lon="-6.1059880">
        <ele>12.6</ele>
        <time>2023-01-28T09:57:28Z</time>
      </trkpt>
      <trkpt lat="36.4064120" lon="-6.1060310">
        <ele>12.6</ele>
        <time>2023-01-28T09:57:29Z</time>
      </trkpt>
      <trkpt lat="36.4064190" lon="-6.1060700">
        <ele>12.8</ele>
        <time>2023-01-28T09:57:30Z</time>
      </trkpt>
      <trkpt lat="36.4064270" lon="-6.1061140">
        <ele>12.8</ele>
        <time>2023-01-28T09:57:31Z</time>
      </trkpt>
      <trkpt lat="36.4064310" lon="-6.1061530">
        <ele>12.8</ele>
        <time>2023-01-28T09:57:32Z</time>
      </trkpt>
      <trkpt lat="36.4064420" lon="-6.1061970">
        <ele>12.8</ele>
        <time>2023-01-28T09:57:33Z</time>
      </trkpt>
      <trkpt lat="36.4064530" lon="-6.1062380">
        <ele>12.8</ele>
        <time>2023-01-28T09:57:34Z</time>
      </trkpt>
      <trkpt lat="36.4064610" lon="-6.1062840">
        <ele>12.8</ele>
        <time>2023-01-28T09:57:35Z</time>
      </trkpt>
      <trkpt lat="36.4064670" lon="-6.1063290">
        <ele>12.8</ele>
        <time>2023-01-28T09:57:36Z</time>
      </trkpt>
      <trkpt lat="36.4064770" lon="-6.1063680">
        <ele>12.8</ele>
        <time>2023-01-28T09:57:37Z</time>
      </trkpt>
      <trkpt lat="36.4064800" lon="-6.1064110">
        <ele>12.8</ele>
        <time>2023-01-28T09:57:38Z</time>
      </trkpt>
      <trkpt lat="36.4064770" lon="-6.1064540">
        <ele>12.8</ele>
        <time>2023-01-28T09:57:39Z</time>
      </trkpt>
      <trkpt lat="36.4064830" lon="-6.1064890">
        <ele>12.8</ele>
        <time>2023-01-28T09:57:40Z</time>
      </trkpt>
      <trkpt lat="36.4065010" lon="-6.1065280">
        <ele>13.0</ele>
        <time>2023-01-28T09:57:41Z</time>
      </trkpt>
      <trkpt lat="36.4065060" lon="-6.1065720">
        <ele>13.0</ele>
        <time>2023-01-28T09:57:42Z</time>
      </trkpt>
      <trkpt lat="36.4065060" lon="-6.1066110">
        <ele>13.2</ele>
        <time>2023-01-28T09:57:43Z</time>
      </trkpt>
      <trkpt lat="36.4065070" lon="-6.1066540">
        <ele>13.2</ele>
        <time>2023-01-28T09:57:44Z</time>
      </trkpt>
      <trkpt lat="36.4065100" lon="-6.1066960">
        <ele>13.0</ele>
        <time>2023-01-28T09:57:45Z</time>
      </trkpt>
      <trkpt lat="36.4065200" lon="-6.1067380">
        <ele>13.2</ele>
        <time>2023-01-28T09:57:46Z</time>
      </trkpt>
      <trkpt lat="36.4065240" lon="-6.1067900">
        <ele>13.4</ele>
        <time>2023-01-28T09:57:47Z</time>
      </trkpt>
      <trkpt lat="36.4065300" lon="-6.1068250">
        <ele>13.4</ele>
        <time>2023-01-28T09:57:48Z</time>
      </trkpt>
      <trkpt lat="36.4065340" lon="-6.1068760">
        <ele>13.4</ele>
        <time>2023-01-28T09:57:49Z</time>
      </trkpt>
      <trkpt lat="36.4065380" lon="-6.1069120">
        <ele>13.4</ele>
        <time>2023-01-28T09:57:50Z</time>
      </trkpt>
      <trkpt lat="36.4065470" lon="-6.1069500">
        <ele>13.4</ele>
        <time>2023-01-28T09:57:51Z</time>
      </trkpt>
      <trkpt lat="36.4065520" lon="-6.1069930">
        <ele>13.2</ele>
        <time>2023-01-28T09:57:52Z</time>
      </trkpt>
      <trkpt lat="36.4065540" lon="-6.1070350">
        <ele>13.2</ele>
        <time>2023-01-28T09:57:53Z</time>
      </trkpt>
      <trkpt lat="36.4065620" lon="-6.1070750">
        <ele>13.2</ele>
        <time>2023-01-28T09:57:54Z</time>
      </trkpt>
      <trkpt lat="36.4065740" lon="-6.1071180">
        <ele>13.4</ele>
        <time>2023-01-28T09:57:55Z</time>
      </trkpt>
      <trkpt lat="36.4065790" lon="-6.1071650">
        <ele>13.4</ele>
        <time>2023-01-28T09:57:56Z</time>
      </trkpt>
      <trkpt lat="36.4065810" lon="-6.1072180">
        <ele>13.4</ele>
        <time>2023-01-28T09:57:57Z</time>
      </trkpt>
      <trkpt lat="36.4065890" lon="-6.1072600">
        <ele>13.4</ele>
        <time>2023-01-28T09:57:58Z</time>
      </trkpt>
      <trkpt lat="36.4065900" lon="-6.1072950">
        <ele>13.2</ele>
        <time>2023-01-28T09:57:59Z</time>
      </trkpt>
      <trkpt lat="36.4065940" lon="-6.1073410">
        <ele>13.4</ele>
        <time>2023-01-28T09:58:00Z</time>
      </trkpt>
      <trkpt lat="36.4065940" lon="-6.1073970">
        <ele>13.6</ele>
        <time>2023-01-28T09:58:01Z</time>
      </trkpt>
      <trkpt lat="36.4066000" lon="-6.1074530">
        <ele>13.6</ele>
        <time>2023-01-28T09:58:02Z</time>
      </trkpt>
      <trkpt lat="36.4066010" lon="-6.1075030">
        <ele>13.6</ele>
        <time>2023-01-28T09:58:03Z</time>
      </trkpt>
      <trkpt lat="36.4066080" lon="-6.1075410">
        <ele>13.6</ele>
        <time>2023-01-28T09:58:04Z</time>
      </trkpt>
      <trkpt lat="36.4066130" lon="-6.1075790">
        <ele>13.6</ele>
        <time>2023-01-28T09:58:05Z</time>
      </trkpt>
      <trkpt lat="36.4066110" lon="-6.1076170">
        <ele>13.6</ele>
        <time>2023-01-28T09:58:06Z</time>
      </trkpt>
      <trkpt lat="36.4066220" lon="-6.1076500">
        <ele>13.6</ele>
        <time>2023-01-28T09:58:07Z</time>
      </trkpt>
      <trkpt lat="36.4066200" lon="-6.1076890">
        <ele>13.6</ele>
        <time>2023-01-28T09:58:08Z</time>
      </trkpt>
      <trkpt lat="36.4066200" lon="-6.1077450">
        <ele>13.6</ele>
        <time>2023-01-28T09:58:09Z</time>
      </trkpt>
      <trkpt lat="36.4066220" lon="-6.1078000">
        <ele>13.8</ele>
        <time>2023-01-28T09:58:10Z</time>
      </trkpt>
      <trkpt lat="36.4066280" lon="-6.1078420">
        <ele>14.0</ele>
        <time>2023-01-28T09:58:11Z</time>
      </trkpt>
      <trkpt lat="36.4066370" lon="-6.1078890">
        <ele>14.2</ele>
        <time>2023-01-28T09:58:12Z</time>
      </trkpt>
      <trkpt lat="36.4066420" lon="-6.1079290">
        <ele>14.2</ele>
        <time>2023-01-28T09:58:13Z</time>
      </trkpt>
      <trkpt lat="36.4066530" lon="-6.1079720">
        <ele>14.0</ele>
        <time>2023-01-28T09:58:14Z</time>
      </trkpt>
      <trkpt lat="36.4066610" lon="-6.1080140">
        <ele>13.8</ele>
        <time>2023-01-28T09:58:15Z</time>
      </trkpt>
      <trkpt lat="36.4066670" lon="-6.1080650">
        <ele>13.8</ele>
        <time>2023-01-28T09:58:16Z</time>
      </trkpt>
      <trkpt lat="36.4066750" lon="-6.1081090">
        <ele>13.6</ele>
        <time>2023-01-28T09:58:17Z</time>
      </trkpt>
      <trkpt lat="36.4066870" lon="-6.1081490">
        <ele>13.8</ele>
        <time>2023-01-28T09:58:18Z</time>
      </trkpt>
      <trkpt lat="36.4067010" lon="-6.1081880">
        <ele>14.0</ele>
        <time>2023-01-28T09:58:19Z</time>
      </trkpt>
      <trkpt lat="36.4067180" lon="-6.1082280">
        <ele>14.0</ele>
        <time>2023-01-28T09:58:20Z</time>
      </trkpt>
      <trkpt lat="36.4067160" lon="-6.1082830">
        <ele>14.0</ele>
        <time>2023-01-28T09:58:21Z</time>
      </trkpt>
      <trkpt lat="36.4067180" lon="-6.1083270">
        <ele>14.0</ele>
        <time>2023-01-28T09:58:22Z</time>
      </trkpt>
      <trkpt lat="36.4067220" lon="-6.1083720">
        <ele>14.0</ele>
        <time>2023-01-28T09:58:23Z</time>
      </trkpt>
      <trkpt lat="36.4067200" lon="-6.1084290">
        <ele>14.0</ele>
        <time>2023-01-28T09:58:24Z</time>
      </trkpt>
      <trkpt lat="36.4067270" lon="-6.1084690">
        <ele>14.0</ele>
        <time>2023-01-28T09:58:25Z</time>
      </trkpt>
      <trkpt lat="36.4067250" lon="-6.1085130">
        <ele>13.8</ele>
        <time>2023-01-28T09:58:26Z</time>
      </trkpt>
      <trkpt lat="36.4067230" lon="-6.1085550">
        <ele>14.0</ele>
        <time>2023-01-28T09:58:27Z</time>
      </trkpt>
      <trkpt lat="36.4067190" lon="-6.1085960">
        <ele>14.0</ele>
        <time>2023-01-28T09:58:28Z</time>
      </trkpt>
      <trkpt lat="36.4067190" lon="-6.1086410">
        <ele>14.2</ele>
        <time>2023-01-28T09:58:29Z</time>
      </trkpt>
      <trkpt lat="36.4067330" lon="-6.1086860">
        <ele>14.0</ele>
        <time>2023-01-28T09:58:30Z</time>
      </trkpt>
      <trkpt lat="36.4067310" lon="-6.1087390">
        <ele>14.0</ele>
        <time>2023-01-28T09:58:31Z</time>
      </trkpt>
      <trkpt lat="36.4067360" lon="-6.1087800">
        <ele>14.0</ele>
        <time>2023-01-28T09:58:32Z</time>
      </trkpt>
      <trkpt lat="36.4067340" lon="-6.1088440">
        <ele>14.2</ele>
        <time>2023-01-28T09:58:33Z</time>
      </trkpt>
      <trkpt lat="36.4067410" lon="-6.1088950">
        <ele>14.4</ele>
        <time>2023-01-28T09:58:34Z</time>
      </trkpt>
      <trkpt lat="36.4067520" lon="-6.1089450">
        <ele>14.4</ele>
        <time>2023-01-28T09:58:35Z</time>
      </trkpt>
      <trkpt lat="36.4067700" lon="-6.1089820">
        <ele>14.6</ele>
        <time>2023-01-28T09:58:36Z</time>
      </trkpt>
      <trkpt lat="36.4067630" lon="-6.1090350">
        <ele>14.4</ele>
        <time>2023-01-28T09:58:37Z</time>
      </trkpt>
      <trkpt lat="36.4067650" lon="-6.1090810">
        <ele>14.4</ele>
        <time>2023-01-28T09:58:38Z</time>
      </trkpt>
      <trkpt lat="36.4067790" lon="-6.1091290">
        <ele>14.6</ele>
        <time>2023-01-28T09:58:39Z</time>
      </trkpt>
      <trkpt lat="36.4067810" lon="-6.1091720">
        <ele>14.6</ele>
        <time>2023-01-28T09:58:40Z</time>
      </trkpt>
      <trkpt lat="36.4067890" lon="-6.1092150">
        <ele>14.6</ele>
        <time>2023-01-28T09:58:41Z</time>
      </trkpt>
      <trkpt lat="36.4067990" lon="-6.1092600">
        <ele>14.6</ele>
        <time>2023-01-28T09:58:42Z</time>
      </trkpt>
      <trkpt lat="36.4067950" lon="-6.1093060">
        <ele>14.6</ele>
        <time>2023-01-28T09:58:43Z</time>
      </trkpt>
      <trkpt lat="36.4067950" lon="-6.1093470">
        <ele>14.6</ele>
        <time>2023-01-28T09:58:44Z</time>
      </trkpt>
      <trkpt lat="36.4068020" lon="-6.1093960">
        <ele>14.8</ele>
        <time>2023-01-28T09:58:45Z</time>
      </trkpt>
      <trkpt lat="36.4068000" lon="-6.1094420">
        <ele>14.8</ele>
        <time>2023-01-28T09:58:46Z</time>
      </trkpt>
      <trkpt lat="36.4067970" lon="-6.1094890">
        <ele>14.8</ele>
        <time>2023-01-28T09:58:47Z</time>
      </trkpt>
      <trkpt lat="36.4068020" lon="-6.1095340">
        <ele>14.8</ele>
        <time>2023-01-28T09:58:48Z</time>
      </trkpt>
      <trkpt lat="36.4068110" lon="-6.1095710">
        <ele>15.0</ele>
        <time>2023-01-28T09:58:49Z</time>
      </trkpt>
      <trkpt lat="36.4068200" lon="-6.1096190">
        <ele>15.0</ele>
        <time>2023-01-28T09:58:50Z</time>
      </trkpt>
      <trkpt lat="36.4068290" lon="-6.1096640">
        <ele>15.0</ele>
        <time>2023-01-28T09:58:51Z</time>
      </trkpt>
      <trkpt lat="36.4068350" lon="-6.1097060">
        <ele>15.0</ele>
        <time>2023-01-28T09:58:52Z</time>
      </trkpt>
      <trkpt lat="36.4068370" lon="-6.1097500">
        <ele>15.0</ele>
        <time>2023-01-28T09:58:53Z</time>
      </trkpt>
      <trkpt lat="36.4068410" lon="-6.1097890">
        <ele>15.2</ele>
        <time>2023-01-28T09:58:54Z</time>
      </trkpt>
      <trkpt lat="36.4068500" lon="-6.1098340">
        <ele>15.2</ele>
        <time>2023-01-28T09:58:55Z</time>
      </trkpt>
      <trkpt lat="36.4068580" lon="-6.1098760">
        <ele>15.2</ele>
        <time>2023-01-28T09:58:56Z</time>
      </trkpt>
      <trkpt lat="36.4068700" lon="-6.1099110">
        <ele>15.4</ele>
        <time>2023-01-28T09:58:57Z</time>
      </trkpt>
      <trkpt lat="36.4068750" lon="-6.1099560">
        <ele>15.6</ele>
        <time>2023-01-28T09:58:58Z</time>
      </trkpt>
      <trkpt lat="36.4068820" lon="-6.1099940">
        <ele>15.6</ele>
        <time>2023-01-28T09:58:59Z</time>
      </trkpt>
      <trkpt lat="36.4068900" lon="-6.1100340">
        <ele>15.8</ele>
        <time>2023-01-28T09:59:00Z</time>
      </trkpt>
      <trkpt lat="36.4068850" lon="-6.1100770">
        <ele>16.0</ele>
        <time>2023-01-28T09:59:01Z</time>
      </trkpt>
      <trkpt lat="36.4068940" lon="-6.1101100">
        <ele>16.0</ele>
        <time>2023-01-28T09:59:02Z</time>
      </trkpt>
      <trkpt lat="36.4068980" lon="-6.1101540">
        <ele>16.0</ele>
        <time>2023-01-28T09:59:03Z</time>
      </trkpt>
      <trkpt lat="36.4069020" lon="-6.1101950">
        <ele>16.0</ele>
        <time>2023-01-28T09:59:04Z</time>
      </trkpt>
      <trkpt lat="36.4069140" lon="-6.1102380">
        <ele>16.0</ele>
        <time>2023-01-28T09:59:05Z</time>
      </trkpt>
      <trkpt lat="36.4069150" lon="-6.1102820">
        <ele>16.0</ele>
        <time>2023-01-28T09:59:06Z</time>
      </trkpt>
      <trkpt lat="36.4069110" lon="-6.1103260">
        <ele>16.2</ele>
        <time>2023-01-28T09:59:07Z</time>
      </trkpt>
      <trkpt lat="36.4069140" lon="-6.1103710">
        <ele>16.0</ele>
        <time>2023-01-28T09:59:08Z</time>
      </trkpt>
      <trkpt lat="36.4069160" lon="-6.1104110">
        <ele>16.2</ele>
        <time>2023-01-28T09:59:09Z</time>
      </trkpt>
      <trkpt lat="36.4069100" lon="-6.1104540">
        <ele>16.2</ele>
        <time>2023-01-28T09:59:10Z</time>
      </trkpt>
      <trkpt lat="36.4069120" lon="-6.1105000">
        <ele>16.2</ele>
        <time>2023-01-28T09:59:11Z</time>
      </trkpt>
      <trkpt lat="36.4069190" lon="-6.1105400">
        <ele>16.6</ele>
        <time>2023-01-28T09:59:12Z</time>
      </trkpt>
      <trkpt lat="36.4069270" lon="-6.1105860">
        <ele>16.2</ele>
        <time>2023-01-28T09:59:13Z</time>
      </trkpt>
      <trkpt lat="36.4069400" lon="-6.1106300">
        <ele>16.4</ele>
        <time>2023-01-28T09:59:14Z</time>
      </trkpt>
      <trkpt lat="36.4069500" lon="-6.1106690">
        <ele>16.4</ele>
        <time>2023-01-28T09:59:15Z</time>
      </trkpt>
      <trkpt lat="36.4069620" lon="-6.1107120">
        <ele>16.2</ele>
        <time>2023-01-28T09:59:16Z</time>
      </trkpt>
      <trkpt lat="36.4069720" lon="-6.1107590">
        <ele>16.2</ele>
        <time>2023-01-28T09:59:17Z</time>
      </trkpt>
      <trkpt lat="36.4069730" lon="-6.1108000">
        <ele>16.2</ele>
        <time>2023-01-28T09:59:18Z</time>
      </trkpt>
      <trkpt lat="36.4069760" lon="-6.1108380">
        <ele>16.0</ele>
        <time>2023-01-28T09:59:19Z</time>
      </trkpt>
      <trkpt lat="36.4069820" lon="-6.1108790">
        <ele>16.0</ele>
        <time>2023-01-28T09:59:20Z</time>
      </trkpt>
      <trkpt lat="36.4069930" lon="-6.1109290">
        <ele>16.0</ele>
        <time>2023-01-28T09:59:21Z</time>
      </trkpt>
      <trkpt lat="36.4070000" lon="-6.1109800">
        <ele>16.0</ele>
        <time>2023-01-28T09:59:22Z</time>
      </trkpt>
      <trkpt lat="36.4070030" lon="-6.1110250">
        <ele>15.8</ele>
        <time>2023-01-28T09:59:23Z</time>
      </trkpt>
      <trkpt lat="36.4070070" lon="-6.1110740">
        <ele>15.8</ele>
        <time>2023-01-28T09:59:24Z</time>
      </trkpt>
      <trkpt lat="36.4070120" lon="-6.1111250">
        <ele>15.8</ele>
        <time>2023-01-28T09:59:25Z</time>
      </trkpt>
      <trkpt lat="36.4070140" lon="-6.1111680">
        <ele>15.8</ele>
        <time>2023-01-28T09:59:26Z</time>
      </trkpt>
      <trkpt lat="36.4070230" lon="-6.1112140">
        <ele>15.8</ele>
        <time>2023-01-28T09:59:27Z</time>
      </trkpt>
      <trkpt lat="36.4070380" lon="-6.1112540">
        <ele>15.8</ele>
        <time>2023-01-28T09:59:28Z</time>
      </trkpt>
      <trkpt lat="36.4070460" lon="-6.1112990">
        <ele>15.6</ele>
        <time>2023-01-28T09:59:29Z</time>
      </trkpt>
      <trkpt lat="36.4070550" lon="-6.1113360">
        <ele>16.2</ele>
        <time>2023-01-28T09:59:30Z</time>
      </trkpt>
      <trkpt lat="36.4070620" lon="-6.1113780">
        <ele>16.2</ele>
        <time>2023-01-28T09:59:31Z</time>
      </trkpt>
      <trkpt lat="36.4070680" lon="-6.1114110">
        <ele>15.8</ele>
        <time>2023-01-28T09:59:32Z</time>
      </trkpt>
      <trkpt lat="36.4070690" lon="-6.1114450">
        <ele>15.6</ele>
        <time>2023-01-28T09:59:33Z</time>
      </trkpt>
      <trkpt lat="36.4070800" lon="-6.1114900">
        <ele>15.8</ele>
        <time>2023-01-28T09:59:34Z</time>
      </trkpt>
      <trkpt lat="36.4070840" lon="-6.1115320">
        <ele>15.4</ele>
        <time>2023-01-28T09:59:35Z</time>
      </trkpt>
      <trkpt lat="36.4070920" lon="-6.1115790">
        <ele>15.6</ele>
        <time>2023-01-28T09:59:36Z</time>
      </trkpt>
      <trkpt lat="36.4070950" lon="-6.1116270">
        <ele>15.6</ele>
        <time>2023-01-28T09:59:37Z</time>
      </trkpt>
      <trkpt lat="36.4071020" lon="-6.1116660">
        <ele>15.4</ele>
        <time>2023-01-28T09:59:38Z</time>
      </trkpt>
      <trkpt lat="36.4071110" lon="-6.1117140">
        <ele>15.4</ele>
        <time>2023-01-28T09:59:39Z</time>
      </trkpt>
      <trkpt lat="36.4071270" lon="-6.1117590">
        <ele>15.4</ele>
        <time>2023-01-28T09:59:40Z</time>
      </trkpt>
      <trkpt lat="36.4071320" lon="-6.1118030">
        <ele>15.2</ele>
        <time>2023-01-28T09:59:41Z</time>
      </trkpt>
      <trkpt lat="36.4071330" lon="-6.1118500">
        <ele>15.2</ele>
        <time>2023-01-28T09:59:42Z</time>
      </trkpt>
      <trkpt lat="36.4071350" lon="-6.1119050">
        <ele>15.2</ele>
        <time>2023-01-28T09:59:43Z</time>
      </trkpt>
      <trkpt lat="36.4071320" lon="-6.1119570">
        <ele>15.0</ele>
        <time>2023-01-28T09:59:44Z</time>
      </trkpt>
      <trkpt lat="36.4071380" lon="-6.1120210">
        <ele>14.8</ele>
        <time>2023-01-28T09:59:45Z</time>
      </trkpt>
      <trkpt lat="36.4071500" lon="-6.1120750">
        <ele>14.8</ele>
        <time>2023-01-28T09:59:46Z</time>
      </trkpt>
      <trkpt lat="36.4071550" lon="-6.1121330">
        <ele>14.8</ele>
        <time>2023-01-28T09:59:47Z</time>
      </trkpt>
      <trkpt lat="36.4071660" lon="-6.1121820">
        <ele>14.8</ele>
        <time>2023-01-28T09:59:48Z</time>
      </trkpt>
      <trkpt lat="36.4071700" lon="-6.1122350">
        <ele>14.8</ele>
        <time>2023-01-28T09:59:49Z</time>
      </trkpt>
      <trkpt lat="36.4071820" lon="-6.1122790">
        <ele>14.8</ele>
        <time>2023-01-28T09:59:50Z</time>
      </trkpt>
      <trkpt lat="36.4071820" lon="-6.1123260">
        <ele>14.8</ele>
        <time>2023-01-28T09:59:51Z</time>
      </trkpt>
      <trkpt lat="36.4071920" lon="-6.1123760">
        <ele>14.6</ele>
        <time>2023-01-28T09:59:52Z</time>
      </trkpt>
      <trkpt lat="36.4071990" lon="-6.1124330">
        <ele>14.6</ele>
        <time>2023-01-28T09:59:53Z</time>
      </trkpt>
      <trkpt lat="36.4072060" lon="-6.1124850">
        <ele>14.4</ele>
        <time>2023-01-28T09:59:54Z</time>
      </trkpt>
      <trkpt lat="36.4072070" lon="-6.1125320">
        <ele>14.2</ele>
        <time>2023-01-28T09:59:55Z</time>
      </trkpt>
      <trkpt lat="36.4072130" lon="-6.1125730">
        <ele>14.4</ele>
        <time>2023-01-28T09:59:56Z</time>
      </trkpt>
      <trkpt lat="36.4072280" lon="-6.1126170">
        <ele>14.6</ele>
        <time>2023-01-28T09:59:57Z</time>
      </trkpt>
      <trkpt lat="36.4072360" lon="-6.1126660">
        <ele>14.6</ele>
        <time>2023-01-28T09:59:58Z</time>
      </trkpt>
      <trkpt lat="36.4072450" lon="-6.1127180">
        <ele>14.4</ele>
        <time>2023-01-28T09:59:59Z</time>
      </trkpt>
      <trkpt lat="36.4072500" lon="-6.1127740">
        <ele>14.4</ele>
        <time>2023-01-28T10:00:00Z</time>
      </trkpt>
      <trkpt lat="36.4072520" lon="-6.1128320">
        <ele>14.2</ele>
        <time>2023-01-28T10:00:01Z</time>
      </trkpt>
      <trkpt lat="36.4072570" lon="-6.1128860">
        <ele>14.4</ele>
        <time>2023-01-28T10:00:02Z</time>
      </trkpt>
      <trkpt lat="36.4072620" lon="-6.1129400">
        <ele>14.2</ele>
        <time>2023-01-28T10:00:03Z</time>
      </trkpt>
      <trkpt lat="36.4072600" lon="-6.1129930">
        <ele>14.2</ele>
        <time>2023-01-28T10:00:04Z</time>
      </trkpt>
      <trkpt lat="36.4072580" lon="-6.1130430">
        <ele>14.0</ele>
        <time>2023-01-28T10:00:05Z</time>
      </trkpt>
      <trkpt lat="36.4072570" lon="-6.1130930">
        <ele>14.0</ele>
        <time>2023-01-28T10:00:06Z</time>
      </trkpt>
      <trkpt lat="36.4072560" lon="-6.1131420">
        <ele>14.2</ele>
        <time>2023-01-28T10:00:07Z</time>
      </trkpt>
      <trkpt lat="36.4072550" lon="-6.1131910">
        <ele>14.2</ele>
        <time>2023-01-28T10:00:08Z</time>
      </trkpt>
      <trkpt lat="36.4072490" lon="-6.1132400">
        <ele>14.2</ele>
        <time>2023-01-28T10:00:09Z</time>
      </trkpt>
      <trkpt lat="36.4072450" lon="-6.1132880">
        <ele>14.4</ele>
        <time>2023-01-28T10:00:10Z</time>
      </trkpt>
      <trkpt lat="36.4072410" lon="-6.1133370">
        <ele>14.2</ele>
        <time>2023-01-28T10:00:11Z</time>
      </trkpt>
      <trkpt lat="36.4072400" lon="-6.1133850">
        <ele>14.0</ele>
        <time>2023-01-28T10:00:12Z</time>
      </trkpt>
      <trkpt lat="36.4072410" lon="-6.1134320">
        <ele>13.8</ele>
        <time>2023-01-28T10:00:13Z</time>
      </trkpt>
      <trkpt lat="36.4072480" lon="-6.1134790">
        <ele>13.6</ele>
        <time>2023-01-28T10:00:14Z</time>
      </trkpt>
      <trkpt lat="36.4072550" lon="-6.1135280">
        <ele>13.4</ele>
        <time>2023-01-28T10:00:15Z</time>
      </trkpt>
      <trkpt lat="36.4072610" lon="-6.1135780">
        <ele>13.2</ele>
        <time>2023-01-28T10:00:16Z</time>
      </trkpt>
      <trkpt lat="36.4072650" lon="-6.1136270">
        <ele>13.2</ele>
        <time>2023-01-28T10:00:17Z</time>
      </trkpt>
      <trkpt lat="36.4072700" lon="-6.1136760">
        <ele>13.2</ele>
        <time>2023-01-28T10:00:18Z</time>
      </trkpt>
      <trkpt lat="36.4072760" lon="-6.1137240">
        <ele>13.2</ele>
        <time>2023-01-28T10:00:19Z</time>
      </trkpt>
      <trkpt lat="36.4072830" lon="-6.1137710">
        <ele>13.0</ele>
        <time>2023-01-28T10:00:20Z</time>
      </trkpt>
      <trkpt lat="36.4072880" lon="-6.1138150">
        <ele>13.0</ele>
        <time>2023-01-28T10:00:21Z</time>
      </trkpt>
      <trkpt lat="36.4072930" lon="-6.1138600">
        <ele>12.8</ele>
        <time>2023-01-28T10:00:22Z</time>
      </trkpt>
      <trkpt lat="36.4073000" lon="-6.1139060">
        <ele>12.6</ele>
        <time>2023-01-28T10:00:23Z</time>
      </trkpt>
      <trkpt lat="36.4073080" lon="-6.1139510">
        <ele>12.4</ele>
        <time>2023-01-28T10:00:24Z</time>
      </trkpt>
      <trkpt lat="36.4073150" lon="-6.1139930">
        <ele>12.2</ele>
        <time>2023-01-28T10:00:25Z</time>
      </trkpt>
      <trkpt lat="36.4073200" lon="-6.1140360">
        <ele>12.0</ele>
        <time>2023-01-28T10:00:26Z</time>
      </trkpt>
      <trkpt lat="36.4073190" lon="-6.1140790">
        <ele>12.0</ele>
        <time>2023-01-28T10:00:27Z</time>
      </trkpt>
      <trkpt lat="36.4073150" lon="-6.1141190">
        <ele>12.0</ele>
        <time>2023-01-28T10:00:28Z</time>
      </trkpt>
      <trkpt lat="36.4073120" lon="-6.1141570">
        <ele>11.8</ele>
        <time>2023-01-28T10:00:29Z</time>
      </trkpt>
      <trkpt lat="36.4073070" lon="-6.1141940">
        <ele>12.0</ele>
        <time>2023-01-28T10:00:30Z</time>
      </trkpt>
      <trkpt lat="36.4073050" lon="-6.1142310">
        <ele>11.8</ele>
        <time>2023-01-28T10:00:31Z</time>
      </trkpt>
      <trkpt lat="36.4073040" lon="-6.1142730">
        <ele>11.6</ele>
        <time>2023-01-28T10:00:32Z</time>
      </trkpt>
      <trkpt lat="36.4073050" lon="-6.1143140">
        <ele>11.4</ele>
        <time>2023-01-28T10:00:33Z</time>
      </trkpt>
      <trkpt lat="36.4073070" lon="-6.1143530">
        <ele>11.4</ele>
        <time>2023-01-28T10:00:34Z</time>
      </trkpt>
      <trkpt lat="36.4073110" lon="-6.1143890">
        <ele>11.4</ele>
        <time>2023-01-28T10:00:35Z</time>
      </trkpt>
      <trkpt lat="36.4073140" lon="-6.1144290">
        <ele>11.4</ele>
        <time>2023-01-28T10:00:36Z</time>
      </trkpt>
      <trkpt lat="36.4073150" lon="-6.1144680">
        <ele>11.2</ele>
        <time>2023-01-28T10:00:37Z</time>
      </trkpt>
      <trkpt lat="36.4073160" lon="-6.1145020">
        <ele>11.2</ele>
        <time>2023-01-28T10:00:38Z</time>
      </trkpt>
      <trkpt lat="36.4073250" lon="-6.1145380">
        <ele>11.0</ele>
        <time>2023-01-28T10:00:39Z</time>
      </trkpt>
      <trkpt lat="36.4073250" lon="-6.1145780">
        <ele>11.0</ele>
        <time>2023-01-28T10:00:40Z</time>
      </trkpt>
      <trkpt lat="36.4073320" lon="-6.1146130">
        <ele>10.8</ele>
        <time>2023-01-28T10:00:41Z</time>
      </trkpt>
      <trkpt lat="36.4073380" lon="-6.1146520">
        <ele>10.8</ele>
        <time>2023-01-28T10:00:42Z</time>
      </trkpt>
      <trkpt lat="36.4073420" lon="-6.1146990">
        <ele>10.8</ele>
        <time>2023-01-28T10:00:43Z</time>
      </trkpt>
      <trkpt lat="36.4073440" lon="-6.1147530">
        <ele>10.6</ele>
        <time>2023-01-28T10:00:44Z</time>
      </trkpt>
      <trkpt lat="36.4073270" lon="-6.1148140">
        <ele>10.6</ele>
        <time>2023-01-28T10:00:45Z</time>
      </trkpt>
      <trkpt lat="36.4073360" lon="-6.1148650">
        <ele>10.4</ele>
        <time>2023-01-28T10:00:46Z</time>
      </trkpt>
      <trkpt lat="36.4073420" lon="-6.1149200">
        <ele>10.6</ele>
        <time>2023-01-28T10:00:47Z</time>
      </trkpt>
      <trkpt lat="36.4073460" lon="-6.1149750">
        <ele>10.6</ele>
        <time>2023-01-28T10:00:48Z</time>
      </trkpt>
      <trkpt lat="36.4073410" lon="-6.1150250">
        <ele>10.6</ele>
        <time>2023-01-28T10:00:49Z</time>
      </trkpt>
      <trkpt lat="36.4073400" lon="-6.1150750">
        <ele>10.6</ele>
        <time>2023-01-28T10:00:50Z</time>
      </trkpt>
      <trkpt lat="36.4073310" lon="-6.1151300">
        <ele>10.6</ele>
        <time>2023-01-28T10:00:51Z</time>
      </trkpt>
      <trkpt lat="36.4073220" lon="-6.1151820">
        <ele>10.4</ele>
        <time>2023-01-28T10:00:52Z</time>
      </trkpt>
      <trkpt lat="36.4073100" lon="-6.1152290">
        <ele>10.2</ele>
        <time>2023-01-28T10:00:53Z</time>
      </trkpt>
      <trkpt lat="36.4073000" lon="-6.1152810">
        <ele>10.0</ele>
        <time>2023-01-28T10:00:54Z</time>
      </trkpt>
      <trkpt lat="36.4072940" lon="-6.1153350">
        <ele>9.8</ele>
        <time>2023-01-28T10:00:55Z</time>
      </trkpt>
      <trkpt lat="36.4073090" lon="-6.1153860">
        <ele>9.6</ele>
        <time>2023-01-28T10:00:56Z</time>
      </trkpt>
      <trkpt lat="36.4073160" lon="-6.1154360">
        <ele>9.4</ele>
        <time>2023-01-28T10:00:57Z</time>
      </trkpt>
      <trkpt lat="36.4073260" lon="-6.1154870">
        <ele>9.2</ele>
        <time>2023-01-28T10:00:58Z</time>
      </trkpt>
      <trkpt lat="36.4073360" lon="-6.1155400">
        <ele>9.0</ele>
        <time>2023-01-28T10:00:59Z</time>
      </trkpt>
      <trkpt lat="36.4073530" lon="-6.1155960">
        <ele>8.6</ele>
        <time>2023-01-28T10:01:00Z</time>
      </trkpt>
      <trkpt lat="36.4073570" lon="-6.1156560">
        <ele>8.6</ele>
        <time>2023-01-28T10:01:01Z</time>
      </trkpt>
      <trkpt lat="36.4073640" lon="-6.1157170">
        <ele>8.4</ele>
        <time>2023-01-28T10:01:02Z</time>
      </trkpt>
      <trkpt lat="36.4073580" lon="-6.1157810">
        <ele>8.4</ele>
        <time>2023-01-28T10:01:03Z</time>
      </trkpt>
      <trkpt lat="36.4073580" lon="-6.1158350">
        <ele>8.2</ele>
        <time>2023-01-28T10:01:04Z</time>
      </trkpt>
      <trkpt lat="36.4073580" lon="-6.1158930">
        <ele>8.2</ele>
        <time>2023-01-28T10:01:05Z</time>
      </trkpt>
      <trkpt lat="36.4073560" lon="-6.1159540">
        <ele>8.0</ele>
        <time>2023-01-28T10:01:06Z</time>
      </trkpt>
      <trkpt lat="36.4073490" lon="-6.1160140">
        <ele>8.0</ele>
        <time>2023-01-28T10:01:07Z</time>
      </trkpt>
      <trkpt lat="36.4073380" lon="-6.1160690">
        <ele>7.8</ele>
        <time>2023-01-28T10:01:08Z</time>
      </trkpt>
      <trkpt lat="36.4073300" lon="-6.1161220">
        <ele>7.6</ele>
        <time>2023-01-28T10:01:09Z</time>
      </trkpt>
      <trkpt lat="36.4073310" lon="-6.1161780">
        <ele>7.6</ele>
        <time>2023-01-28T10:01:10Z</time>
      </trkpt>
      <trkpt lat="36.4073300" lon="-6.1162270">
        <ele>7.6</ele>
        <time>2023-01-28T10:01:11Z</time>
      </trkpt>
      <trkpt lat="36.4073170" lon="-6.1162680">
        <ele>7.6</ele>
        <time>2023-01-28T10:01:12Z</time>
      </trkpt>
      <trkpt lat="36.4073060" lon="-6.1163140">
        <ele>7.2</ele>
        <time>2023-01-28T10:01:13Z</time>
      </trkpt>
      <trkpt lat="36.4072960" lon="-6.1163600">
        <ele>7.2</ele>
        <time>2023-01-28T10:01:14Z</time>
      </trkpt>
      <trkpt lat="36.4072970" lon="-6.1164090">
        <ele>7.0</ele>
        <time>2023-01-28T10:01:15Z</time>
      </trkpt>
      <trkpt lat="36.4073010" lon="-6.1164520">
        <ele>6.8</ele>
        <time>2023-01-28T10:01:16Z</time>
      </trkpt>
      <trkpt lat="36.4073040" lon="-6.1164900">
        <ele>6.6</ele>
        <time>2023-01-28T10:01:17Z</time>
      </trkpt>
      <trkpt lat="36.4072970" lon="-6.1165230">
        <ele>6.6</ele>
        <time>2023-01-28T10:01:18Z</time>
      </trkpt>
      <trkpt lat="36.4072930" lon="-6.1165570">
        <ele>6.6</ele>
        <time>2023-01-28T10:01:19Z</time>
      </trkpt>
      <trkpt lat="36.4072860" lon="-6.1165890">
        <ele>6.6</ele>
        <time>2023-01-28T10:01:20Z</time>
      </trkpt>
      <trkpt lat="36.4072800" lon="-6.1166280">
        <ele>6.6</ele>
        <time>2023-01-28T10:01:21Z</time>
      </trkpt>
      <trkpt lat="36.4072750" lon="-6.1166670">
        <ele>6.4</ele>
        <time>2023-01-28T10:01:22Z</time>
      </trkpt>
      <trkpt lat="36.4072720" lon="-6.1167090">
        <ele>6.4</ele>
        <time>2023-01-28T10:01:23Z</time>
      </trkpt>
      <trkpt lat="36.4072650" lon="-6.1167490">
        <ele>6.4</ele>
        <time>2023-01-28T10:01:24Z</time>
      </trkpt>
      <trkpt lat="36.4072550" lon="-6.1167890">
        <ele>6.2</ele>
        <time>2023-01-28T10:01:25Z</time>
      </trkpt>
      <trkpt lat="36.4072520" lon="-6.1168260">
        <ele>6.0</ele>
        <time>2023-01-28T10:01:26Z</time>
      </trkpt>
      <trkpt lat="36.4072460" lon="-6.1168550">
        <ele>6.0</ele>
        <time>2023-01-28T10:01:27Z</time>
      </trkpt>
      <trkpt lat="36.4072400" lon="-6.1168860">
        <ele>5.8</ele>
        <time>2023-01-28T10:01:28Z</time>
      </trkpt>
      <trkpt lat="36.4072350" lon="-6.1169110">
        <ele>5.6</ele>
        <time>2023-01-28T10:01:29Z</time>
      </trkpt>
      <trkpt lat="36.4072330" lon="-6.1169460">
        <ele>5.6</ele>
        <time>2023-01-28T10:01:30Z</time>
      </trkpt>
      <trkpt lat="36.4072310" lon="-6.1169730">
        <ele>5.6</ele>
        <time>2023-01-28T10:01:31Z</time>
      </trkpt>
      <trkpt lat="36.4072230" lon="-6.1169900">
        <ele>5.6</ele>
        <time>2023-01-28T10:01:32Z</time>
      </trkpt>
      <trkpt lat="36.4072180" lon="-6.1170260">
        <ele>5.6</ele>
        <time>2023-01-28T10:01:33Z</time>
      </trkpt>
      <trkpt lat="36.4072190" lon="-6.1170600">
        <ele>5.4</ele>
        <time>2023-01-28T10:01:34Z</time>
      </trkpt>
      <trkpt lat="36.4072230" lon="-6.1170970">
        <ele>5.4</ele>
        <time>2023-01-28T10:01:35Z</time>
      </trkpt>
      <trkpt lat="36.4072310" lon="-6.1171400">
        <ele>5.4</ele>
        <time>2023-01-28T10:01:36Z</time>
      </trkpt>
      <trkpt lat="36.4072390" lon="-6.1171740">
        <ele>5.4</ele>
        <time>2023-01-28T10:01:37Z</time>
      </trkpt>
      <trkpt lat="36.4072430" lon="-6.1172060">
        <ele>5.2</ele>
        <time>2023-01-28T10:01:38Z</time>
      </trkpt>
      <trkpt lat="36.4072490" lon="-6.1172470">
        <ele>5.2</ele>
        <time>2023-01-28T10:01:39Z</time>
      </trkpt>
      <trkpt lat="36.4072520" lon="-6.1172840">
        <ele>5.2</ele>
        <time>2023-01-28T10:01:40Z</time>
      </trkpt>
      <trkpt lat="36.4072450" lon="-6.1173130">
        <ele>5.4</ele>
        <time>2023-01-28T10:01:41Z</time>
      </trkpt>
      <trkpt lat="36.4072340" lon="-6.1173380">
        <ele>5.4</ele>
        <time>2023-01-28T10:01:42Z</time>
      </trkpt>
      <trkpt lat="36.4072320" lon="-6.1173690">
        <ele>5.4</ele>
        <time>2023-01-28T10:01:43Z</time>
      </trkpt>
      <trkpt lat="36.4072320" lon="-6.1174080">
        <ele>5.4</ele>
        <time>2023-01-28T10:01:44Z</time>
      </trkpt>
      <trkpt lat="36.4072390" lon="-6.1174440">
        <ele>5.4</ele>
        <time>2023-01-28T10:01:45Z</time>
      </trkpt>
      <trkpt lat="36.4072430" lon="-6.1174810">
        <ele>5.4</ele>
        <time>2023-01-28T10:01:46Z</time>
      </trkpt>
      <trkpt lat="36.4072300" lon="-6.1175080">
        <ele>5.2</ele>
        <time>2023-01-28T10:01:47Z</time>
      </trkpt>
      <trkpt lat="36.4072410" lon="-6.1175530">
        <ele>5.0</ele>
        <time>2023-01-28T10:01:48Z</time>
      </trkpt>
      <trkpt lat="36.4072390" lon="-6.1176000">
        <ele>5.0</ele>
        <time>2023-01-28T10:01:49Z</time>
      </trkpt>
      <trkpt lat="36.4072380" lon="-6.1176370">
        <ele>5.0</ele>
        <time>2023-01-28T10:01:50Z</time>
      </trkpt>
      <trkpt lat="36.4072300" lon="-6.1176790">
        <ele>4.8</ele>
        <time>2023-01-28T10:01:51Z</time>
      </trkpt>
      <trkpt lat="36.4072300" lon="-6.1177260">
        <ele>4.8</ele>
        <time>2023-01-28T10:01:52Z</time>
      </trkpt>
      <trkpt lat="36.4072270" lon="-6.1177730">
        <ele>4.8</ele>
        <time>2023-01-28T10:01:53Z</time>
      </trkpt>
      <trkpt lat="36.4072190" lon="-6.1178090">
        <ele>4.8</ele>
        <time>2023-01-28T10:01:54Z</time>
      </trkpt>
      <trkpt lat="36.4072180" lon="-6.1178640">
        <ele>4.8</ele>
        <time>2023-01-28T10:01:55Z</time>
      </trkpt>
      <trkpt lat="36.4072130" lon="-6.1179080">
        <ele>4.6</ele>
        <time>2023-01-28T10:01:56Z</time>
      </trkpt>
      <trkpt lat="36.4072120" lon="-6.1179500">
        <ele>4.8</ele>
        <time>2023-01-28T10:01:57Z</time>
      </trkpt>
      <trkpt lat="36.4072110" lon="-6.1179890">
        <ele>4.6</ele>
        <time>2023-01-28T10:01:58Z</time>
      </trkpt>
      <trkpt lat="36.4072030" lon="-6.1180350">
        <ele>4.6</ele>
        <time>2023-01-28T10:01:59Z</time>
      </trkpt>
      <trkpt lat="36.4071950" lon="-6.1180770">
        <ele>4.4</ele>
        <time>2023-01-28T10:02:00Z</time>
      </trkpt>
      <trkpt lat="36.4071900" lon="-6.1181170">
        <ele>4.4</ele>
        <time>2023-01-28T10:02:01Z</time>
      </trkpt>
      <trkpt lat="36.4071880" lon="-6.1181650">
        <ele>4.0</ele>
        <time>2023-01-28T10:02:02Z</time>
      </trkpt>
      <trkpt lat="36.4071920" lon="-6.1182060">
        <ele>3.8</ele>
        <time>2023-01-28T10:02:03Z</time>
      </trkpt>
      <trkpt lat="36.4071920" lon="-6.1182530">
        <ele>3.8</ele>
        <time>2023-01-28T10:02:04Z</time>
      </trkpt>
      <trkpt lat="36.4071900" lon="-6.1182990">
        <ele>3.6</ele>
        <time>2023-01-28T10:02:05Z</time>
      </trkpt>
      <trkpt lat="36.4071900" lon="-6.1183490">
        <ele>3.6</ele>
        <time>2023-01-28T10:02:06Z</time>
      </trkpt>
      <trkpt lat="36.4072000" lon="-6.1183990">
        <ele>3.4</ele>
        <time>2023-01-28T10:02:07Z</time>
      </trkpt>
      <trkpt lat="36.4072050" lon="-6.1184440">
        <ele>3.4</ele>
        <time>2023-01-28T10:02:08Z</time>
      </trkpt>
      <trkpt lat="36.4072000" lon="-6.1184770">
        <ele>3.4</ele>
        <time>2023-01-28T10:02:09Z</time>
      </trkpt>
      <trkpt lat="36.4072030" lon="-6.1185140">
        <ele>3.2</ele>
        <time>2023-01-28T10:02:10Z</time>
      </trkpt>
      <trkpt lat="36.4072090" lon="-6.1185630">
        <ele>3.2</ele>
        <time>2023-01-28T10:02:11Z</time>
      </trkpt>
      <trkpt lat="36.4072110" lon="-6.1186030">
        <ele>3.2</ele>
        <time>2023-01-28T10:02:12Z</time>
      </trkpt>
      <trkpt lat="36.4072010" lon="-6.1186400">
        <ele>3.2</ele>
        <time>2023-01-28T10:02:13Z</time>
      </trkpt>
      <trkpt lat="36.4071930" lon="-6.1186760">
        <ele>3.0</ele>
        <time>2023-01-28T10:02:14Z</time>
      </trkpt>
      <trkpt lat="36.4071870" lon="-6.1187120">
        <ele>3.2</ele>
        <time>2023-01-28T10:02:15Z</time>
      </trkpt>
      <trkpt lat="36.4071840" lon="-6.1187360">
        <ele>3.0</ele>
        <time>2023-01-28T10:02:16Z</time>
      </trkpt>
      <trkpt lat="36.4071810" lon="-6.1187650">
        <ele>3.0</ele>
        <time>2023-01-28T10:02:17Z</time>
      </trkpt>
      <trkpt lat="36.4071840" lon="-6.1188040">
        <ele>2.8</ele>
        <time>2023-01-28T10:02:18Z</time>
      </trkpt>
      <trkpt lat="36.4071780" lon="-6.1188390">
        <ele>2.6</ele>
        <time>2023-01-28T10:02:19Z</time>
      </trkpt>
      <trkpt lat="36.4071740" lon="-6.1188760">
        <ele>2.6</ele>
        <time>2023-01-28T10:02:20Z</time>
      </trkpt>
      <trkpt lat="36.4071680" lon="-6.1189080">
        <ele>2.4</ele>
        <time>2023-01-28T10:02:21Z</time>
      </trkpt>
      <trkpt lat="36.4071590" lon="-6.1189350">
        <ele>2.4</ele>
        <time>2023-01-28T10:02:22Z</time>
      </trkpt>
      <trkpt lat="36.4071540" lon="-6.1189720">
        <ele>2.4</ele>
        <time>2023-01-28T10:02:23Z</time>
      </trkpt>
      <trkpt lat="36.4071460" lon="-6.1190030">
        <ele>2.4</ele>
        <time>2023-01-28T10:02:24Z</time>
      </trkpt>
      <trkpt lat="36.4071420" lon="-6.1190350">
        <ele>2.6</ele>
        <time>2023-01-28T10:02:25Z</time>
      </trkpt>
      <trkpt lat="36.4071540" lon="-6.1190810">
        <ele>2.6</ele>
        <time>2023-01-28T10:02:26Z</time>
      </trkpt>
      <trkpt lat="36.4071480" lon="-6.1191130">
        <ele>2.6</ele>
        <time>2023-01-28T10:02:27Z</time>
      </trkpt>
      <trkpt lat="36.4071480" lon="-6.1191420">
        <ele>2.6</ele>
        <time>2023-01-28T10:02:28Z</time>
      </trkpt>
      <trkpt lat="36.4071490" lon="-6.1191800">
        <ele>2.6</ele>
        <time>2023-01-28T10:02:29Z</time>
      </trkpt>
      <trkpt lat="36.4071480" lon="-6.1192110">
        <ele>2.4</ele>
        <time>2023-01-28T10:02:30Z</time>
      </trkpt>
      <trkpt lat="36.4071460" lon="-6.1192420">
        <ele>2.4</ele>
        <time>2023-01-28T10:02:31Z</time>
      </trkpt>
      <trkpt lat="36.4071400" lon="-6.1192760">
        <ele>2.2</ele>
        <time>2023-01-28T10:02:32Z</time>
      </trkpt>
      <trkpt lat="36.4071400" lon="-6.1193080">
        <ele>2.0</ele>
        <time>2023-01-28T10:02:33Z</time>
      </trkpt>
      <trkpt lat="36.4071340" lon="-6.1193360">
        <ele>2.0</ele>
        <time>2023-01-28T10:02:34Z</time>
      </trkpt>
      <trkpt lat="36.4071320" lon="-6.1193780">
        <ele>2.0</ele>
        <time>2023-01-28T10:02:35Z</time>
      </trkpt>
      <trkpt lat="36.4071280" lon="-6.1194110">
        <ele>1.8</ele>
        <time>2023-01-28T10:02:36Z</time>
      </trkpt>
      <trkpt lat="36.4071260" lon="-6.1194480">
        <ele>2.0</ele>
        <time>2023-01-28T10:02:37Z</time>
      </trkpt>
      <trkpt lat="36.4071190" lon="-6.1194850">
        <ele>2.0</ele>
        <time>2023-01-28T10:02:38Z</time>
      </trkpt>
      <trkpt lat="36.4071130" lon="-6.1195170">
        <ele>1.8</ele>
        <time>2023-01-28T10:02:39Z</time>
      </trkpt>
      <trkpt lat="36.4071020" lon="-6.1195510">
        <ele>1.8</ele>
        <time>2023-01-28T10:02:40Z</time>
      </trkpt>
      <trkpt lat="36.4070920" lon="-6.1195910">
        <ele>1.8</ele>
        <time>2023-01-28T10:02:41Z</time>
      </trkpt>
      <trkpt lat="36.4070800" lon="-6.1196250">
        <ele>2.0</ele>
        <time>2023-01-28T10:02:42Z</time>
      </trkpt>
      <trkpt lat="36.4070770" lon="-6.1196610">
        <ele>2.0</ele>
        <time>2023-01-28T10:02:43Z</time>
      </trkpt>
      <trkpt lat="36.4070790" lon="-6.1197030">
        <ele>2.0</ele>
        <time>2023-01-28T10:02:44Z</time>
      </trkpt>
      <trkpt lat="36.4070760" lon="-6.1197360">
        <ele>2.0</ele>
        <time>2023-01-28T10:02:45Z</time>
      </trkpt>
      <trkpt lat="36.4070720" lon="-6.1197750">
        <ele>2.0</ele>
        <time>2023-01-28T10:02:46Z</time>
      </trkpt>
      <trkpt lat="36.4070690" lon="-6.1198040">
        <ele>1.8</ele>
        <time>2023-01-28T10:02:47Z</time>
      </trkpt>
      <trkpt lat="36.4070640" lon="-6.1198400">
        <ele>1.8</ele>
        <time>2023-01-28T10:02:48Z</time>
      </trkpt>
      <trkpt lat="36.4070590" lon="-6.1198730">
        <ele>1.6</ele>
        <time>2023-01-28T10:02:49Z</time>
      </trkpt>
      <trkpt lat="36.4070570" lon="-6.1199060">
        <ele>1.6</ele>
        <time>2023-01-28T10:02:50Z</time>
      </trkpt>
      <trkpt lat="36.4070530" lon="-6.1199370">
        <ele>1.8</ele>
        <time>2023-01-28T10:02:51Z</time>
      </trkpt>
      <trkpt lat="36.4070470" lon="-6.1199830">
        <ele>2.0</ele>
        <time>2023-01-28T10:02:52Z</time>
      </trkpt>
      <trkpt lat="36.4070360" lon="-6.1200180">
        <ele>1.8</ele>
        <time>2023-01-28T10:02:53Z</time>
      </trkpt>
      <trkpt lat="36.4070350" lon="-6.1200620">
        <ele>1.4</ele>
        <time>2023-01-28T10:02:54Z</time>
      </trkpt>
      <trkpt lat="36.4070340" lon="-6.1200930">
        <ele>1.4</ele>
        <time>2023-01-28T10:02:55Z</time>
      </trkpt>
      <trkpt lat="36.4070320" lon="-6.1201320">
        <ele>1.4</ele>
        <time>2023-01-28T10:02:56Z</time>
      </trkpt>
      <trkpt lat="36.4070290" lon="-6.1201690">
        <ele>1.4</ele>
        <time>2023-01-28T10:02:57Z</time>
      </trkpt>
      <trkpt lat="36.4070350" lon="-6.1202070">
        <ele>1.4</ele>
        <time>2023-01-28T10:02:58Z</time>
      </trkpt>
      <trkpt lat="36.4070360" lon="-6.1202490">
        <ele>1.6</ele>
        <time>2023-01-28T10:02:59Z</time>
      </trkpt>
      <trkpt lat="36.4070310" lon="-6.1202910">
        <ele>1.6</ele>
        <time>2023-01-28T10:03:00Z</time>
      </trkpt>
      <trkpt lat="36.4070240" lon="-6.1203230">
        <ele>1.6</ele>
        <time>2023-01-28T10:03:01Z</time>
      </trkpt>
      <trkpt lat="36.4070220" lon="-6.1203710">
        <ele>1.4</ele>
        <time>2023-01-28T10:03:02Z</time>
      </trkpt>
      <trkpt lat="36.4070240" lon="-6.1204140">
        <ele>1.4</ele>
        <time>2023-01-28T10:03:03Z</time>
      </trkpt>
      <trkpt lat="36.4070220" lon="-6.1204520">
        <ele>1.4</ele>
        <time>2023-01-28T10:03:04Z</time>
      </trkpt>
      <trkpt lat="36.4070190" lon="-6.1204840">
        <ele>1.4</ele>
        <time>2023-01-28T10:03:05Z</time>
      </trkpt>
      <trkpt lat="36.4070140" lon="-6.1205290">
        <ele>1.4</ele>
        <time>2023-01-28T10:03:06Z</time>
      </trkpt>
      <trkpt lat="36.4070040" lon="-6.1205810">
        <ele>1.4</ele>
        <time>2023-01-28T10:03:07Z</time>
      </trkpt>
      <trkpt lat="36.4069970" lon="-6.1206260">
        <ele>1.2</ele>
        <time>2023-01-28T10:03:08Z</time>
      </trkpt>
      <trkpt lat="36.4069940" lon="-6.1206730">
        <ele>1.2</ele>
        <time>2023-01-28T10:03:09Z</time>
      </trkpt>
      <trkpt lat="36.4069920" lon="-6.1207160">
        <ele>1.2</ele>
        <time>2023-01-28T10:03:10Z</time>
      </trkpt>
      <trkpt lat="36.4069810" lon="-6.1207540">
        <ele>1.4</ele>
        <time>2023-01-28T10:03:11Z</time>
      </trkpt>
      <trkpt lat="36.4069840" lon="-6.1207930">
        <ele>1.2</ele>
        <time>2023-01-28T10:03:12Z</time>
      </trkpt>
      <trkpt lat="36.4069830" lon="-6.1208370">
        <ele>1.2</ele>
        <time>2023-01-28T10:03:13Z</time>
      </trkpt>
      <trkpt lat="36.4069840" lon="-6.1208830">
        <ele>1.4</ele>
        <time>2023-01-28T10:03:14Z</time>
      </trkpt>
      <trkpt lat="36.4069810" lon="-6.1209260">
        <ele>1.2</ele>
        <time>2023-01-28T10:03:15Z</time>
      </trkpt>
      <trkpt lat="36.4069830" lon="-6.1209620">
        <ele>1.2</ele>
        <time>2023-01-28T10:03:16Z</time>
      </trkpt>
      <trkpt lat="36.4069840" lon="-6.1210120">
        <ele>1.0</ele>
        <time>2023-01-28T10:03:17Z</time>
      </trkpt>
      <trkpt lat="36.4069790" lon="-6.1210560">
        <ele>1.0</ele>
        <time>2023-01-28T10:03:18Z</time>
      </trkpt>
      <trkpt lat="36.4069760" lon="-6.1210920">
        <ele>1.0</ele>
        <time>2023-01-28T10:03:19Z</time>
      </trkpt>
      <trkpt lat="36.4069780" lon="-6.1211390">
        <ele>0.8</ele>
        <time>2023-01-28T10:03:20Z</time>
      </trkpt>
      <trkpt lat="36.4069750" lon="-6.1211740">
        <ele>1.0</ele>
        <time>2023-01-28T10:03:21Z</time>
      </trkpt>
      <trkpt lat="36.4069730" lon="-6.1212160">
        <ele>1.0</ele>
        <time>2023-01-28T10:03:22Z</time>
      </trkpt>
      <trkpt lat="36.4069660" lon="-6.1212460">
        <ele>1.2</ele>
        <time>2023-01-28T10:03:23Z</time>
      </trkpt>
      <trkpt lat="36.4069620" lon="-6.1212870">
        <ele>1.2</ele>
        <time>2023-01-28T10:03:24Z</time>
      </trkpt>
      <trkpt lat="36.4069630" lon="-6.1213340">
        <ele>1.2</ele>
        <time>2023-01-28T10:03:25Z</time>
      </trkpt>
      <trkpt lat="36.4069600" lon="-6.1213630">
        <ele>1.2</ele>
        <time>2023-01-28T10:03:26Z</time>
      </trkpt>
      <trkpt lat="36.4069510" lon="-6.1213980">
        <ele>1.0</ele>
        <time>2023-01-28T10:03:27Z</time>
      </trkpt>
      <trkpt lat="36.4069450" lon="-6.1214350">
        <ele>1.0</ele>
        <time>2023-01-28T10:03:28Z</time>
      </trkpt>
      <trkpt lat="36.4069430" lon="-6.1214770">
        <ele>0.8</ele>
        <time>2023-01-28T10:03:29Z</time>
      </trkpt>
      <trkpt lat="36.4069380" lon="-6.1215190">
        <ele>1.0</ele>
        <time>2023-01-28T10:03:30Z</time>
      </trkpt>
      <trkpt lat="36.4069400" lon="-6.1215570">
        <ele>0.8</ele>
        <time>2023-01-28T10:03:31Z</time>
      </trkpt>
      <trkpt lat="36.4069410" lon="-6.1215940">
        <ele>1.0</ele>
        <time>2023-01-28T10:03:32Z</time>
      </trkpt>
      <trkpt lat="36.4069370" lon="-6.1216340">
        <ele>0.8</ele>
        <time>2023-01-28T10:03:33Z</time>
      </trkpt>
      <trkpt lat="36.4069340" lon="-6.1216650">
        <ele>0.8</ele>
        <time>2023-01-28T10:03:34Z</time>
      </trkpt>
      <trkpt lat="36.4069380" lon="-6.1217010">
        <ele>0.8</ele>
        <time>2023-01-28T10:03:35Z</time>
      </trkpt>
      <trkpt lat="36.4069330" lon="-6.1217330">
        <ele>0.8</ele>
        <time>2023-01-28T10:03:36Z</time>
      </trkpt>
      <trkpt lat="36.4069230" lon="-6.1217620">
        <ele>0.8</ele>
        <time>2023-01-28T10:03:37Z</time>
      </trkpt>
      <trkpt lat="36.4069180" lon="-6.1217920">
        <ele>0.8</ele>
        <time>2023-01-28T10:03:38Z</time>
      </trkpt>
      <trkpt lat="36.4069190" lon="-6.1218230">
        <ele>0.8</ele>
        <time>2023-01-28T10:03:39Z</time>
      </trkpt>
      <trkpt lat="36.4069180" lon="-6.1218530">
        <ele>1.0</ele>
        <time>2023-01-28T10:03:40Z</time>
      </trkpt>
      <trkpt lat="36.4069140" lon="-6.1218850">
        <ele>0.8</ele>
        <time>2023-01-28T10:03:41Z</time>
      </trkpt>
      <trkpt lat="36.4069150" lon="-6.1219200">
        <ele>1.0</ele>
        <time>2023-01-28T10:03:42Z</time>
      </trkpt>
      <trkpt lat="36.4069160" lon="-6.1219530">
        <ele>1.0</ele>
        <time>2023-01-28T10:03:43Z</time>
      </trkpt>
      <trkpt lat="36.4069160" lon="-6.1219780">
        <ele>1.0</ele>
        <time>2023-01-28T10:03:44Z</time>
      </trkpt>
      <trkpt lat="36.4069160" lon="-6.1220070">
        <ele>1.0</ele>
        <time>2023-01-28T10:03:45Z</time>
      </trkpt>
      <trkpt lat="36.4069080" lon="-6.1220320">
        <ele>1.2</ele>
        <time>2023-01-28T10:03:46Z</time>
      </trkpt>
      <trkpt lat="36.4068980" lon="-6.1220500">
        <ele>1.0</ele>
        <time>2023-01-28T10:03:47Z</time>
      </trkpt>
      <trkpt lat="36.4068870" lon="-6.1220720">
        <ele>1.2</ele>
        <time>2023-01-28T10:03:48Z</time>
      </trkpt>
      <trkpt lat="36.4068760" lon="-6.1220850">
        <ele>1.0</ele>
        <time>2023-01-28T10:03:49Z</time>
      </trkpt>
      <trkpt lat="36.4068650" lon="-6.1221040">
        <ele>1.2</ele>
        <time>2023-01-28T10:03:50Z</time>
      </trkpt>
      <trkpt lat="36.4068500" lon="-6.1221280">
        <ele>1.2</ele>
        <time>2023-01-28T10:03:51Z</time>
      </trkpt>
      <trkpt lat="36.4068360" lon="-6.1221580">
        <ele>1.4</ele>
        <time>2023-01-28T10:03:52Z</time>
      </trkpt>
      <trkpt lat="36.4068200" lon="-6.1221800">
        <ele>1.2</ele>
        <time>2023-01-28T10:03:53Z</time>
      </trkpt>
      <trkpt lat="36.4068050" lon="-6.1221990">
        <ele>1.2</ele>
        <time>2023-01-28T10:03:54Z</time>
      </trkpt>
      <trkpt lat="36.4067850" lon="-6.1222170">
        <ele>1.2</ele>
        <time>2023-01-28T10:03:55Z</time>
      </trkpt>
      <trkpt lat="36.4067750" lon="-6.1222350">
        <ele>1.4</ele>
        <time>2023-01-28T10:03:56Z</time>
      </trkpt>
      <trkpt lat="36.4067600" lon="-6.1222650">
        <ele>1.4</ele>
        <time>2023-01-28T10:03:57Z</time>
      </trkpt>
      <trkpt lat="36.4067420" lon="-6.1222890">
        <ele>1.4</ele>
        <time>2023-01-28T10:03:58Z</time>
      </trkpt>
      <trkpt lat="36.4067180" lon="-6.1223110">
        <ele>1.6</ele>
        <time>2023-01-28T10:03:59Z</time>
      </trkpt>
      <trkpt lat="36.4067030" lon="-6.1223430">
        <ele>1.6</ele>
        <time>2023-01-28T10:04:00Z</time>
      </trkpt>
      <trkpt lat="36.4066830" lon="-6.1223700">
        <ele>1.6</ele>
        <time>2023-01-28T10:04:01Z</time>
      </trkpt>
      <trkpt lat="36.4066610" lon="-6.1224020">
        <ele>1.6</ele>
        <time>2023-01-28T10:04:02Z</time>
      </trkpt>
      <trkpt lat="36.4066490" lon="-6.1224420">
        <ele>1.6</ele>
        <time>2023-01-28T10:04:03Z</time>
      </trkpt>
      <trkpt lat="36.4066350" lon="-6.1224800">
        <ele>1.6</ele>
        <time>2023-01-28T10:04:04Z</time>
      </trkpt>
      <trkpt lat="36.4066260" lon="-6.1225160">
        <ele>1.6</ele>
        <time>2023-01-28T10:04:05Z</time>
      </trkpt>
      <trkpt lat="36.4066100" lon="-6.1225500">
        <ele>1.8</ele>
        <time>2023-01-28T10:04:06Z</time>
      </trkpt>
      <trkpt lat="36.4065950" lon="-6.1225850">
        <ele>1.6</ele>
        <time>2023-01-28T10:04:07Z</time>
      </trkpt>
      <trkpt lat="36.4065810" lon="-6.1226260">
        <ele>1.8</ele>
        <time>2023-01-28T10:04:08Z</time>
      </trkpt>
      <trkpt lat="36.4065650" lon="-6.1226530">
        <ele>1.6</ele>
        <time>2023-01-28T10:04:09Z</time>
      </trkpt>
      <trkpt lat="36.4065460" lon="-6.1226870">
        <ele>2.0</ele>
        <time>2023-01-28T10:04:10Z</time>
      </trkpt>
      <trkpt lat="36.4065290" lon="-6.1227210">
        <ele>1.8</ele>
        <time>2023-01-28T10:04:11Z</time>
      </trkpt>
      <trkpt lat="36.4065130" lon="-6.1227510">
        <ele>1.8</ele>
        <time>2023-01-28T10:04:12Z</time>
      </trkpt>
      <trkpt lat="36.4064900" lon="-6.1227830">
        <ele>2.0</ele>
        <time>2023-01-28T10:04:13Z</time>
      </trkpt>
      <trkpt lat="36.4064630" lon="-6.1227970">
        <ele>2.2</ele>
        <time>2023-01-28T10:04:14Z</time>
      </trkpt>
      <trkpt lat="36.4064430" lon="-6.1228150">
        <ele>2.2</ele>
        <time>2023-01-28T10:04:15Z</time>
      </trkpt>
      <trkpt lat="36.4064170" lon="-6.1228230">
        <ele>2.0</ele>
        <time>2023-01-28T10:04:16Z</time>
      </trkpt>
      <trkpt lat="36.4063890" lon="-6.1228280">
        <ele>2.0</ele>
        <time>2023-01-28T10:04:17Z</time>
      </trkpt>
      <trkpt lat="36.4063520" lon="-6.1228240">
        <ele>2.2</ele>
        <time>2023-01-28T10:04:18Z</time>
      </trkpt>
      <trkpt lat="36.4063260" lon="-6.1228200">
        <ele>2.2</ele>
        <time>2023-01-28T10:04:19Z</time>
      </trkpt>
      <trkpt lat="36.4062990" lon="-6.1228080">
        <ele>2.2</ele>
        <time>2023-01-28T10:04:20Z</time>
      </trkpt>
      <trkpt lat="36.4062760" lon="-6.1227970">
        <ele>2.4</ele>
        <time>2023-01-28T10:04:21Z</time>
      </trkpt>
      <trkpt lat="36.4062560" lon="-6.1227680">
        <ele>2.6</ele>
        <time>2023-01-28T10:04:22Z</time>
      </trkpt>
      <trkpt lat="36.4062420" lon="-6.1227380">
        <ele>2.8</ele>
        <time>2023-01-28T10:04:23Z</time>
      </trkpt>
      <trkpt lat="36.4062300" lon="-6.1227020">
        <ele>2.8</ele>
        <time>2023-01-28T10:04:24Z</time>
      </trkpt>
      <trkpt lat="36.4062230" lon="-6.1226660">
        <ele>3.2</ele>
        <time>2023-01-28T10:04:25Z</time>
      </trkpt>
      <trkpt lat="36.4062100" lon="-6.1226490">
        <ele>3.4</ele>
        <time>2023-01-28T10:04:26Z</time>
      </trkpt>
      <trkpt lat="36.4061940" lon="-6.1226300">
        <ele>4.0</ele>
        <time>2023-01-28T10:04:27Z</time>
      </trkpt>
      <trkpt lat="36.4061870" lon="-6.1226210">
        <ele>4.2</ele>
        <time>2023-01-28T10:04:28Z</time>
      </trkpt>
      <trkpt lat="36.4061790" lon="-6.1226060">
        <ele>4.6</ele>
        <time>2023-01-28T10:04:29Z</time>
      </trkpt>
      <trkpt lat="36.4061610" lon="-6.1225910">
        <ele>4.8</ele>
        <time>2023-01-28T10:04:30Z</time>
      </trkpt>
      <trkpt lat="36.4061500" lon="-6.1225770">
        <ele>4.8</ele>
        <time>2023-01-28T10:04:31Z</time>
      </trkpt>
      <trkpt lat="36.4061400" lon="-6.1225650">
        <ele>4.8</ele>
        <time>2023-01-28T10:04:32Z</time>
      </trkpt>
      <trkpt lat="36.4061290" lon="-6.1225560">
        <ele>4.6</ele>
        <time>2023-01-28T10:04:33Z</time>
      </trkpt>
      <trkpt lat="36.4061100" lon="-6.1225560">
        <ele>4.8</ele>
        <time>2023-01-28T10:04:34Z</time>
      </trkpt>
      <trkpt lat="36.4060880" lon="-6.1225550">
        <ele>5.0</ele>
        <time>2023-01-28T10:04:35Z</time>
      </trkpt>
      <trkpt lat="36.4060680" lon="-6.1225610">
        <ele>5.2</ele>
        <time>2023-01-28T10:04:36Z</time>
      </trkpt>
      <trkpt lat="36.4060520" lon="-6.1225750">
        <ele>5.4</ele>
        <time>2023-01-28T10:04:37Z</time>
      </trkpt>
      <trkpt lat="36.4060360" lon="-6.1225860">
        <ele>6.0</ele>
        <time>2023-01-28T10:04:38Z</time>
      </trkpt>
      <trkpt lat="36.4060370" lon="-6.1226120">
        <ele>6.8</ele>
        <time>2023-01-28T10:04:39Z</time>
      </trkpt>
      <trkpt lat="36.4060230" lon="-6.1226300">
        <ele>6.6</ele>
        <time>2023-01-28T10:04:40Z</time>
      </trkpt>
      <trkpt lat="36.4060210" lon="-6.1226570">
        <ele>6.8</ele>
        <time>2023-01-28T10:04:41Z</time>
      </trkpt>
      <trkpt lat="36.4060180" lon="-6.1226840">
        <ele>6.6</ele>
        <time>2023-01-28T10:04:42Z</time>
      </trkpt>
      <trkpt lat="36.4060180" lon="-6.1227180">
        <ele>6.8</ele>
        <time>2023-01-28T10:04:43Z</time>
      </trkpt>
      <trkpt lat="36.4060250" lon="-6.1227540">
        <ele>6.8</ele>
        <time>2023-01-28T10:04:44Z</time>
      </trkpt>
      <trkpt lat="36.4060280" lon="-6.1227840">
        <ele>7.0</ele>
        <time>2023-01-28T10:04:45Z</time>
      </trkpt>
      <trkpt lat="36.4060240" lon="-6.1228300">
        <ele>7.2</ele>
        <time>2023-01-28T10:04:46Z</time>
      </trkpt>
      <trkpt lat="36.4060270" lon="-6.1228670">
        <ele>7.4</ele>
        <time>2023-01-28T10:04:47Z</time>
      </trkpt>
      <trkpt lat="36.4060280" lon="-6.1229060">
        <ele>7.6</ele>
        <time>2023-01-28T10:04:48Z</time>
      </trkpt>
      <trkpt lat="36.4060280" lon="-6.1229450">
        <ele>7.6</ele>
        <time>2023-01-28T10:04:49Z</time>
      </trkpt>
      <trkpt lat="36.4060360" lon="-6.1229750">
        <ele>8.0</ele>
        <time>2023-01-28T10:04:50Z</time>
      </trkpt>
      <trkpt lat="36.4060410" lon="-6.1230120">
        <ele>8.0</ele>
        <time>2023-01-28T10:04:51Z</time>
      </trkpt>
      <trkpt lat="36.4060470" lon="-6.1230480">
        <ele>8.2</ele>
        <time>2023-01-28T10:04:52Z</time>
      </trkpt>
      <trkpt lat="36.4060510" lon="-6.1230870">
        <ele>8.4</ele>
        <time>2023-01-28T10:04:53Z</time>
      </trkpt>
      <trkpt lat="36.4060530" lon="-6.1231290">
        <ele>8.6</ele>
        <time>2023-01-28T10:04:54Z</time>
      </trkpt>
      <trkpt lat="36.4060560" lon="-6.1231710">
        <ele>8.8</ele>
        <time>2023-01-28T10:04:55Z</time>
      </trkpt>
      <trkpt lat="36.4060620" lon="-6.1232040">
        <ele>9.0</ele>
        <time>2023-01-28T10:04:56Z</time>
      </trkpt>
      <trkpt lat="36.4060740" lon="-6.1232350">
        <ele>9.2</ele>
        <time>2023-01-28T10:04:57Z</time>
      </trkpt>
      <trkpt lat="36.4060870" lon="-6.1232800">
        <ele>9.4</ele>
        <time>2023-01-28T10:04:58Z</time>
      </trkpt>
      <trkpt lat="36.4061040" lon="-6.1233170">
        <ele>9.8</ele>
        <time>2023-01-28T10:04:59Z</time>
      </trkpt>
      <trkpt lat="36.4061150" lon="-6.1233620">
        <ele>9.8</ele>
        <time>2023-01-28T10:05:00Z</time>
      </trkpt>
      <trkpt lat="36.4061310" lon="-6.1234030">
        <ele>9.8</ele>
        <time>2023-01-28T10:05:01Z</time>
      </trkpt>
      <trkpt lat="36.4061430" lon="-6.1234420">
        <ele>10.0</ele>
        <time>2023-01-28T10:05:02Z</time>
      </trkpt>
      <trkpt lat="36.4061620" lon="-6.1234750">
        <ele>10.0</ele>
        <time>2023-01-28T10:05:03Z</time>
      </trkpt>
      <trkpt lat="36.4061800" lon="-6.1235150">
        <ele>10.2</ele>
        <time>2023-01-28T10:05:04Z</time>
      </trkpt>
      <trkpt lat="36.4061950" lon="-6.1235570">
        <ele>10.2</ele>
        <time>2023-01-28T10:05:05Z</time>
      </trkpt>
      <trkpt lat="36.4062150" lon="-6.1236030">
        <ele>10.2</ele>
        <time>2023-01-28T10:05:06Z</time>
      </trkpt>
      <trkpt lat="36.4062240" lon="-6.1236420">
        <ele>10.2</ele>
        <time>2023-01-28T10:05:07Z</time>
      </trkpt>
      <trkpt lat="36.4062390" lon="-6.1236920">
        <ele>10.2</ele>
        <time>2023-01-28T10:05:08Z</time>
      </trkpt>
      <trkpt lat="36.4062540" lon="-6.1237380">
        <ele>10.0</ele>
        <time>2023-01-28T10:05:09Z</time>
      </trkpt>
      <trkpt lat="36.4062760" lon="-6.1237780">
        <ele>9.8</ele>
        <time>2023-01-28T10:05:10Z</time>
      </trkpt>
      <trkpt lat="36.4063020" lon="-6.1238160">
        <ele>9.6</ele>
        <time>2023-01-28T10:05:11Z</time>
      </trkpt>
      <trkpt lat="36.4063240" lon="-6.1238550">
        <ele>9.6</ele>
        <time>2023-01-28T10:05:12Z</time>
      </trkpt>
      <trkpt lat="36.4063490" lon="-6.1239040">
        <ele>9.4</ele>
        <time>2023-01-28T10:05:13Z</time>
      </trkpt>
      <trkpt lat="36.4063640" lon="-6.1239620">
        <ele>9.2</ele>
        <time>2023-01-28T10:05:14Z</time>
      </trkpt>
      <trkpt lat="36.4063780" lon="-6.1240280">
        <ele>9.2</ele>
        <time>2023-01-28T10:05:15Z</time>
      </trkpt>
      <trkpt lat="36.4064050" lon="-6.1240780">
        <ele>9.0</ele>
        <time>2023-01-28T10:05:16Z</time>
      </trkpt>
      <trkpt lat="36.4064270" lon="-6.1241360">
        <ele>8.8</ele>
        <time>2023-01-28T10:05:17Z</time>
      </trkpt>
      <trkpt lat="36.4064480" lon="-6.1241940">
        <ele>8.6</ele>
        <time>2023-01-28T10:05:18Z</time>
      </trkpt>
      <trkpt lat="36.4064620" lon="-6.1242690">
        <ele>8.0</ele>
        <time>2023-01-28T10:05:19Z</time>
      </trkpt>
      <trkpt lat="36.4064840" lon="-6.1243350">
        <ele>7.6</ele>
        <time>2023-01-28T10:05:20Z</time>
      </trkpt>
      <trkpt lat="36.4065010" lon="-6.1244090">
        <ele>7.0</ele>
        <time>2023-01-28T10:05:21Z</time>
      </trkpt>
      <trkpt lat="36.4065260" lon="-6.1244810">
        <ele>6.6</ele>
        <time>2023-01-28T10:05:22Z</time>
      </trkpt>
      <trkpt lat="36.4065520" lon="-6.1245560">
        <ele>6.2</ele>
        <time>2023-01-28T10:05:23Z</time>
      </trkpt>
      <trkpt lat="36.4065730" lon="-6.1246390">
        <ele>5.6</ele>
        <time>2023-01-28T10:05:24Z</time>
      </trkpt>
      <trkpt lat="36.4066000" lon="-6.1247220">
        <ele>5.0</ele>
        <time>2023-01-28T10:05:25Z</time>
      </trkpt>
      <trkpt lat="36.4066340" lon="-6.1248090">
        <ele>4.4</ele>
        <time>2023-01-28T10:05:26Z</time>
      </trkpt>
      <trkpt lat="36.4066640" lon="-6.1249030">
        <ele>4.0</ele>
        <time>2023-01-28T10:05:27Z</time>
      </trkpt>
      <trkpt lat="36.4066950" lon="-6.1249950">
        <ele>3.0</ele>
        <time>2023-01-28T10:05:28Z</time>
      </trkpt>
      <trkpt lat="36.4067240" lon="-6.1250940">
        <ele>2.8</ele>
        <time>2023-01-28T10:05:29Z</time>
      </trkpt>
      <trkpt lat="36.4067460" lon="-6.1252020">
        <ele>1.8</ele>
        <time>2023-01-28T10:05:30Z</time>
      </trkpt>
      <trkpt lat="36.4067680" lon="-6.1253040">
        <ele>1.2</ele>
        <time>2023-01-28T10:05:31Z</time>
      </trkpt>
      <trkpt lat="36.4067970" lon="-6.1254120">
        <ele>0.6</ele>
        <time>2023-01-28T10:05:32Z</time>
      </trkpt>
      <trkpt lat="36.4068220" lon="-6.1255170">
        <ele>0.0</ele>
        <time>2023-01-28T10:05:33Z</time>
      </trkpt>
      <trkpt lat="36.4068430" lon="-6.1256280">
        <ele>-0.4</ele>
        <time>2023-01-28T10:05:34Z</time>
      </trkpt>
      <trkpt lat="36.4068730" lon="-6.1257380">
        <ele>-0.6</ele>
        <time>2023-01-28T10:05:35Z</time>
      </trkpt>
      <trkpt lat="36.4069000" lon="-6.1258450">
        <ele>-0.8</ele>
        <time>2023-01-28T10:05:36Z</time>
      </trkpt>
      <trkpt lat="36.4069260" lon="-6.1259440">
        <ele>-1.0</ele>
        <time>2023-01-28T10:05:37Z</time>
      </trkpt>
      <trkpt lat="36.4069470" lon="-6.1260530">
        <ele>-1.2</ele>
        <time>2023-01-28T10:05:38Z</time>
      </trkpt>
      <trkpt lat="36.4069800" lon="-6.1261500">
        <ele>-1.4</ele>
        <time>2023-01-28T10:05:39Z</time>
      </trkpt>
      <trkpt lat="36.4070090" lon="-6.1262570">
        <ele>-1.4</ele>
        <time>2023-01-28T10:05:40Z</time>
      </trkpt>
      <trkpt lat="36.4070350" lon="-6.1263500">
        <ele>-1.4</ele>
        <time>2023-01-28T10:05:41Z</time>
      </trkpt>
      <trkpt lat="36.4070590" lon="-6.1264420">
        <ele>-1.4</ele>
        <time>2023-01-28T10:05:42Z</time>
      </trkpt>
      <trkpt lat="36.4070890" lon="-6.1265280">
        <ele>-1.4</ele>
        <time>2023-01-28T10:05:43Z</time>
      </trkpt>
      <trkpt lat="36.4071120" lon="-6.1266110">
        <ele>-1.6</ele>
        <time>2023-01-28T10:05:44Z</time>
      </trkpt>
      <trkpt lat="36.4071350" lon="-6.1267060">
        <ele>-1.8</ele>
        <time>2023-01-28T10:05:45Z</time>
      </trkpt>
      <trkpt lat="36.4071620" lon="-6.1267940">
        <ele>-2.0</ele>
        <time>2023-01-28T10:05:46Z</time>
      </trkpt>
      <trkpt lat="36.4071850" lon="-6.1268820">
        <ele>-2.2</ele>
        <time>2023-01-28T10:05:47Z</time>
      </trkpt>
      <trkpt lat="36.4072100" lon="-6.1269720">
        <ele>-2.6</ele>
        <time>2023-01-28T10:05:48Z</time>
      </trkpt>
      <trkpt lat="36.4072250" lon="-6.1270620">
        <ele>-2.8</ele>
        <time>2023-01-28T10:05:49Z</time>
      </trkpt>
      <trkpt lat="36.4072560" lon="-6.1271470">
        <ele>-3.0</ele>
        <time>2023-01-28T10:05:50Z</time>
      </trkpt>
      <trkpt lat="36.4072770" lon="-6.1272400">
        <ele>-3.2</ele>
        <time>2023-01-28T10:05:51Z</time>
      </trkpt>
      <trkpt lat="36.4072950" lon="-6.1273320">
        <ele>-3.4</ele>
        <time>2023-01-28T10:05:52Z</time>
      </trkpt>
      <trkpt lat="36.4073150" lon="-6.1274100">
        <ele>-3.4</ele>
        <time>2023-01-28T10:05:53Z</time>
      </trkpt>
      <trkpt lat="36.4073380" lon="-6.1274920">
        <ele>-3.4</ele>
        <time>2023-01-28T10:05:54Z</time>
      </trkpt>
      <trkpt lat="36.4073530" lon="-6.1275720">
        <ele>-3.4</ele>
        <time>2023-01-28T10:05:55Z</time>
      </trkpt>
      <trkpt lat="36.4073690" lon="-6.1276570">
        <ele>-3.2</ele>
        <time>2023-01-28T10:05:56Z</time>
      </trkpt>
      <trkpt lat="36.4073900" lon="-6.1277390">
        <ele>-3.2</ele>
        <time>2023-01-28T10:05:57Z</time>
      </trkpt>
      <trkpt lat="36.4074080" lon="-6.1278120">
        <ele>-3.2</ele>
        <time>2023-01-28T10:05:58Z</time>
      </trkpt>
      <trkpt lat="36.4074280" lon="-6.1278830">
        <ele>-3.4</ele>
        <time>2023-01-28T10:05:59Z</time>
      </trkpt>
      <trkpt lat="36.4074580" lon="-6.1279560">
        <ele>-3.4</ele>
        <time>2023-01-28T10:06:00Z</time>
      </trkpt>
      <trkpt lat="36.4074730" lon="-6.1280330">
        <ele>-3.6</ele>
        <time>2023-01-28T10:06:01Z</time>
      </trkpt>
      <trkpt lat="36.4074820" lon="-6.1281090">
        <ele>-3.6</ele>
        <time>2023-01-28T10:06:02Z</time>
      </trkpt>
      <trkpt lat="36.4075010" lon="-6.1281840">
        <ele>-3.6</ele>
        <time>2023-01-28T10:06:03Z</time>
      </trkpt>
      <trkpt lat="36.4075200" lon="-6.1282590">
        <ele>-3.6</ele>
        <time>2023-01-28T10:06:04Z</time>
      </trkpt>
      <trkpt lat="36.4075500" lon="-6.1283290">
        <ele>-3.6</ele>
        <time>2023-01-28T10:06:05Z</time>
      </trkpt>
      <trkpt lat="36.4075730" lon="-6.1284060">
        <ele>-3.8</ele>
        <time>2023-01-28T10:06:06Z</time>
      </trkpt>
      <trkpt lat="36.4075950" lon="-6.1284830">
        <ele>-3.8</ele>
        <time>2023-01-28T10:06:07Z</time>
      </trkpt>
      <trkpt lat="36.4076210" lon="-6.1285610">
        <ele>-3.6</ele>
        <time>2023-01-28T10:06:08Z</time>
      </trkpt>
      <trkpt lat="36.4076400" lon="-6.1286380">
        <ele>-3.6</ele>
        <time>2023-01-28T10:06:09Z</time>
      </trkpt>
      <trkpt lat="36.4076500" lon="-6.1287140">
        <ele>-3.8</ele>
        <time>2023-01-28T10:06:10Z</time>
      </trkpt>
      <trkpt lat="36.4076670" lon="-6.1287850">
        <ele>-3.8</ele>
        <time>2023-01-28T10:06:11Z</time>
      </trkpt>
      <trkpt lat="36.4076840" lon="-6.1288630">
        <ele>-3.8</ele>
        <time>2023-01-28T10:06:12Z</time>
      </trkpt>
      <trkpt lat="36.4076970" lon="-6.1289370">
        <ele>-3.8</ele>
        <time>2023-01-28T10:06:13Z</time>
      </trkpt>
      <trkpt lat="36.4077120" lon="-6.1290080">
        <ele>-4.0</ele>
        <time>2023-01-28T10:06:14Z</time>
      </trkpt>
      <trkpt lat="36.4077260" lon="-6.1290800">
        <ele>-4.0</ele>
        <time>2023-01-28T10:06:15Z</time>
      </trkpt>
      <trkpt lat="36.4077400" lon="-6.1291590">
        <ele>-4.0</ele>
        <time>2023-01-28T10:06:16Z</time>
      </trkpt>
      <trkpt lat="36.4077600" lon="-6.1292370">
        <ele>-4.2</ele>
        <time>2023-01-28T10:06:17Z</time>
      </trkpt>
      <trkpt lat="36.4077730" lon="-6.1293140">
        <ele>-4.0</ele>
        <time>2023-01-28T10:06:18Z</time>
      </trkpt>
      <trkpt lat="36.4077840" lon="-6.1293880">
        <ele>-4.0</ele>
        <time>2023-01-28T10:06:19Z</time>
      </trkpt>
      <trkpt lat="36.4077980" lon="-6.1294600">
        <ele>-4.0</ele>
        <time>2023-01-28T10:06:20Z</time>
      </trkpt>
      <trkpt lat="36.4078110" lon="-6.1295300">
        <ele>-3.8</ele>
        <time>2023-01-28T10:06:21Z</time>
      </trkpt>
      <trkpt lat="36.4078200" lon="-6.1296000">
        <ele>-3.8</ele>
        <time>2023-01-28T10:06:22Z</time>
      </trkpt>
      <trkpt lat="36.4078330" lon="-6.1296800">
        <ele>-3.8</ele>
        <time>2023-01-28T10:06:23Z</time>
      </trkpt>
      <trkpt lat="36.4078370" lon="-6.1297520">
        <ele>-3.8</ele>
        <time>2023-01-28T10:06:24Z</time>
      </trkpt>
      <trkpt lat="36.4078520" lon="-6.1298240">
        <ele>-4.0</ele>
        <time>2023-01-28T10:06:25Z</time>
      </trkpt>
      <trkpt lat="36.4078660" lon="-6.1299000">
        <ele>-4.0</ele>
        <time>2023-01-28T10:06:26Z</time>
      </trkpt>
      <trkpt lat="36.4078780" lon="-6.1299810">
        <ele>-4.0</ele>
        <time>2023-01-28T10:06:27Z</time>
      </trkpt>
      <trkpt lat="36.4078790" lon="-6.1300480">
        <ele>-4.0</ele>
        <time>2023-01-28T10:06:28Z</time>
      </trkpt>
      <trkpt lat="36.4078880" lon="-6.1301240">
        <ele>-4.0</ele>
        <time>2023-01-28T10:06:29Z</time>
      </trkpt>
      <trkpt lat="36.4079010" lon="-6.1302030">
        <ele>-4.0</ele>
        <time>2023-01-28T10:06:30Z</time>
      </trkpt>
      <trkpt lat="36.4079110" lon="-6.1302880">
        <ele>-3.8</ele>
        <time>2023-01-28T10:06:31Z</time>
      </trkpt>
      <trkpt lat="36.4079270" lon="-6.1303690">
        <ele>-3.4</ele>
        <time>2023-01-28T10:06:32Z</time>
      </trkpt>
      <trkpt lat="36.4079500" lon="-6.1304490">
        <ele>-3.8</ele>
        <time>2023-01-28T10:06:33Z</time>
      </trkpt>
      <trkpt lat="36.4079700" lon="-6.1305270">
        <ele>-4.2</ele>
        <time>2023-01-28T10:06:34Z</time>
      </trkpt>
      <trkpt lat="36.4079830" lon="-6.1306040">
        <ele>-4.4</ele>
        <time>2023-01-28T10:06:35Z</time>
      </trkpt>
      <trkpt lat="36.4079950" lon="-6.1306830">
        <ele>-4.2</ele>
        <time>2023-01-28T10:06:36Z</time>
      </trkpt>
      <trkpt lat="36.4080100" lon="-6.1307690">
        <ele>-4.6</ele>
        <time>2023-01-28T10:06:37Z</time>
      </trkpt>
      <trkpt lat="36.4080190" lon="-6.1308550">
        <ele>-4.8</ele>
        <time>2023-01-28T10:06:38Z</time>
      </trkpt>
      <trkpt lat="36.4080240" lon="-6.1309370">
        <ele>-5.0</ele>
        <time>2023-01-28T10:06:39Z</time>
      </trkpt>
      <trkpt lat="36.4080340" lon="-6.1310210">
        <ele>-5.0</ele>
        <time>2023-01-28T10:06:40Z</time>
      </trkpt>
      <trkpt lat="36.4080410" lon="-6.1311110">
        <ele>-4.4</ele>
        <time>2023-01-28T10:06:41Z</time>
      </trkpt>
      <trkpt lat="36.4080540" lon="-6.1311940">
        <ele>-4.4</ele>
        <time>2023-01-28T10:06:42Z</time>
      </trkpt>
      <trkpt lat="36.4080690" lon="-6.1312740">
        <ele>-4.6</ele>
        <time>2023-01-28T10:06:43Z</time>
      </trkpt>
      <trkpt lat="36.4080850" lon="-6.1313560">
        <ele>-4.8</ele>
        <time>2023-01-28T10:06:44Z</time>
      </trkpt>
      <trkpt lat="36.4080970" lon="-6.1314330">
        <ele>-4.8</ele>
        <time>2023-01-28T10:06:45Z</time>
      </trkpt>
      <trkpt lat="36.4081120" lon="-6.1315160">
        <ele>-4.8</ele>
        <time>2023-01-28T10:06:46Z</time>
      </trkpt>
      <trkpt lat="36.4081220" lon="-6.1316010">
        <ele>-5.0</ele>
        <time>2023-01-28T10:06:47Z</time>
      </trkpt>
      <trkpt lat="36.4081310" lon="-6.1316700">
        <ele>-5.0</ele>
        <time>2023-01-28T10:06:48Z</time>
      </trkpt>
      <trkpt lat="36.4081460" lon="-6.1317390">
        <ele>-4.8</ele>
        <time>2023-01-28T10:06:49Z</time>
      </trkpt>
      <trkpt lat="36.4081500" lon="-6.1318210">
        <ele>-4.8</ele>
        <time>2023-01-28T10:06:50Z</time>
      </trkpt>
      <trkpt lat="36.4081640" lon="-6.1318980">
        <ele>-4.6</ele>
        <time>2023-01-28T10:06:51Z</time>
      </trkpt>
      <trkpt lat="36.4081690" lon="-6.1319840">
        <ele>-4.8</ele>
        <time>2023-01-28T10:06:52Z</time>
      </trkpt>
      <trkpt lat="36.4081740" lon="-6.1320720">
        <ele>-4.8</ele>
        <time>2023-01-28T10:06:53Z</time>
      </trkpt>
      <trkpt lat="36.4081870" lon="-6.1321540">
        <ele>-4.6</ele>
        <time>2023-01-28T10:06:54Z</time>
      </trkpt>
      <trkpt lat="36.4081940" lon="-6.1322290">
        <ele>-4.6</ele>
        <time>2023-01-28T10:06:55Z</time>
      </trkpt>
      <trkpt lat="36.4082120" lon="-6.1323130">
        <ele>-4.8</ele>
        <time>2023-01-28T10:06:56Z</time>
      </trkpt>
      <trkpt lat="36.4082240" lon="-6.1323910">
        <ele>-4.8</ele>
        <time>2023-01-28T10:06:57Z</time>
      </trkpt>
      <trkpt lat="36.4082380" lon="-6.1324650">
        <ele>-4.8</ele>
        <time>2023-01-28T10:06:58Z</time>
      </trkpt>
      <trkpt lat="36.4082490" lon="-6.1325490">
        <ele>-5.0</ele>
        <time>2023-01-28T10:06:59Z</time>
      </trkpt>
      <trkpt lat="36.4082650" lon="-6.1326350">
        <ele>-4.8</ele>
        <time>2023-01-28T10:07:00Z</time>
      </trkpt>
      <trkpt lat="36.4082730" lon="-6.1327120">
        <ele>-4.8</ele>
        <time>2023-01-28T10:07:01Z</time>
      </trkpt>
      <trkpt lat="36.4082800" lon="-6.1327900">
        <ele>-4.6</ele>
        <time>2023-01-28T10:07:02Z</time>
      </trkpt>
      <trkpt lat="36.4082930" lon="-6.1328610">
        <ele>-4.6</ele>
        <time>2023-01-28T10:07:03Z</time>
      </trkpt>
      <trkpt lat="36.4082950" lon="-6.1329420">
        <ele>-4.4</ele>
        <time>2023-01-28T10:07:04Z</time>
      </trkpt>
      <trkpt lat="36.4083060" lon="-6.1330140">
        <ele>-4.2</ele>
        <time>2023-01-28T10:07:05Z</time>
      </trkpt>
      <trkpt lat="36.4083110" lon="-6.1330790">
        <ele>-3.8</ele>
        <time>2023-01-28T10:07:06Z</time>
      </trkpt>
      <trkpt lat="36.4083240" lon="-6.1331370">
        <ele>-3.6</ele>
        <time>2023-01-28T10:07:07Z</time>
      </trkpt>
      <trkpt lat="36.4083310" lon="-6.1331990">
        <ele>-3.4</ele>
        <time>2023-01-28T10:07:08Z</time>
      </trkpt>
      <trkpt lat="36.4083370" lon="-6.1332610">
        <ele>-3.2</ele>
        <time>2023-01-28T10:07:09Z</time>
      </trkpt>
      <trkpt lat="36.4083440" lon="-6.1333170">
        <ele>-2.8</ele>
        <time>2023-01-28T10:07:10Z</time>
      </trkpt>
      <trkpt lat="36.4083540" lon="-6.1333630">
        <ele>-2.6</ele>
        <time>2023-01-28T10:07:11Z</time>
      </trkpt>
      <trkpt lat="36.4083560" lon="-6.1334130">
        <ele>-2.6</ele>
        <time>2023-01-28T10:07:12Z</time>
      </trkpt>
      <trkpt lat="36.4083670" lon="-6.1334640">
        <ele>-2.6</ele>
        <time>2023-01-28T10:07:13Z</time>
      </trkpt>
      <trkpt lat="36.4083720" lon="-6.1335170">
        <ele>-2.8</ele>
        <time>2023-01-28T10:07:14Z</time>
      </trkpt>
      <trkpt lat="36.4083780" lon="-6.1335740">
        <ele>-2.6</ele>
        <time>2023-01-28T10:07:15Z</time>
      </trkpt>
      <trkpt lat="36.4083860" lon="-6.1336210">
        <ele>-2.8</ele>
        <time>2023-01-28T10:07:16Z</time>
      </trkpt>
      <trkpt lat="36.4083930" lon="-6.1336720">
        <ele>-3.0</ele>
        <time>2023-01-28T10:07:17Z</time>
      </trkpt>
      <trkpt lat="36.4083990" lon="-6.1337200">
        <ele>-3.2</ele>
        <time>2023-01-28T10:07:18Z</time>
      </trkpt>
      <trkpt lat="36.4083990" lon="-6.1337690">
        <ele>-3.2</ele>
        <time>2023-01-28T10:07:19Z</time>
      </trkpt>
      <trkpt lat="36.4084130" lon="-6.1338140">
        <ele>-3.4</ele>
        <time>2023-01-28T10:07:20Z</time>
      </trkpt>
      <trkpt lat="36.4084470" lon="-6.1338520">
        <ele>-3.4</ele>
        <time>2023-01-28T10:07:21Z</time>
      </trkpt>
      <trkpt lat="36.4084840" lon="-6.1338730">
        <ele>-3.8</ele>
        <time>2023-01-28T10:07:22Z</time>
      </trkpt>
      <trkpt lat="36.4085130" lon="-6.1339110">
        <ele>-4.2</ele>
        <time>2023-01-28T10:07:23Z</time>
      </trkpt>
      <trkpt lat="36.4085390" lon="-6.1339580">
        <ele>-4.0</ele>
        <time>2023-01-28T10:07:24Z</time>
      </trkpt>
      <trkpt lat="36.4085610" lon="-6.1339880">
        <ele>-4.4</ele>
        <time>2023-01-28T10:07:25Z</time>
      </trkpt>
      <trkpt lat="36.4085650" lon="-6.1340430">
        <ele>-4.6</ele>
        <time>2023-01-28T10:07:26Z</time>
      </trkpt>
      <trkpt lat="36.4085690" lon="-6.1340960">
        <ele>-4.2</ele>
        <time>2023-01-28T10:07:27Z</time>
      </trkpt>
      <trkpt lat="36.4085780" lon="-6.1341530">
        <ele>-4.2</ele>
        <time>2023-01-28T10:07:28Z</time>
      </trkpt>
      <trkpt lat="36.4085910" lon="-6.1342120">
        <ele>-4.6</ele>
        <time>2023-01-28T10:07:29Z</time>
      </trkpt>
      <trkpt lat="36.4086060" lon="-6.1342720">
        <ele>-4.6</ele>
        <time>2023-01-28T10:07:30Z</time>
      </trkpt>
      <trkpt lat="36.4086190" lon="-6.1343260">
        <ele>-4.8</ele>
        <time>2023-01-28T10:07:31Z</time>
      </trkpt>
      <trkpt lat="36.4086260" lon="-6.1343900">
        <ele>-4.6</ele>
        <time>2023-01-28T10:07:32Z</time>
      </trkpt>
      <trkpt lat="36.4086350" lon="-6.1344430">
        <ele>-4.6</ele>
        <time>2023-01-28T10:07:33Z</time>
      </trkpt>
      <trkpt lat="36.4086590" lon="-6.1344950">
        <ele>-4.4</ele>
        <time>2023-01-28T10:07:34Z</time>
      </trkpt>
      <trkpt lat="36.4086680" lon="-6.1345400">
        <ele>-4.0</ele>
        <time>2023-01-28T10:07:35Z</time>
      </trkpt>
      <trkpt lat="36.4086770" lon="-6.1345920">
        <ele>-3.6</ele>
        <time>2023-01-28T10:07:36Z</time>
      </trkpt>
      <trkpt lat="36.4086850" lon="-6.1346400">
        <ele>-4.0</ele>
        <time>2023-01-28T10:07:37Z</time>
      </trkpt>
      <trkpt lat="36.4086940" lon="-6.1346810">
        <ele>-4.4</ele>
        <time>2023-01-28T10:07:38Z</time>
      </trkpt>
      <trkpt lat="36.4087110" lon="-6.1347250">
        <ele>-4.4</ele>
        <time>2023-01-28T10:07:39Z</time>
      </trkpt>
      <trkpt lat="36.4087380" lon="-6.1347530">
        <ele>-4.4</ele>
        <time>2023-01-28T10:07:40Z</time>
      </trkpt>
      <trkpt lat="36.4087640" lon="-6.1347610">
        <ele>-4.6</ele>
        <time>2023-01-28T10:07:41Z</time>
      </trkpt>
      <trkpt lat="36.4087920" lon="-6.1347580">
        <ele>-4.6</ele>
        <time>2023-01-28T10:07:42Z</time>
      </trkpt>
      <trkpt lat="36.4088210" lon="-6.1347500">
        <ele>-4.8</ele>
        <time>2023-01-28T10:07:43Z</time>
      </trkpt>
      <trkpt lat="36.4088480" lon="-6.1347560">
        <ele>-4.8</ele>
        <time>2023-01-28T10:07:44Z</time>
      </trkpt>
      <trkpt lat="36.4088760" lon="-6.1347700">
        <ele>-4.8</ele>
        <time>2023-01-28T10:07:45Z</time>
      </trkpt>
      <trkpt lat="36.4088900" lon="-6.1348030">
        <ele>-5.0</ele>
        <time>2023-01-28T10:07:46Z</time>
      </trkpt>
      <trkpt lat="36.4089040" lon="-6.1348360">
        <ele>-5.0</ele>
        <time>2023-01-28T10:07:47Z</time>
      </trkpt>
      <trkpt lat="36.4089080" lon="-6.1348840">
        <ele>-5.0</ele>
        <time>2023-01-28T10:07:48Z</time>
      </trkpt>
      <trkpt lat="36.4089180" lon="-6.1349320">
        <ele>-5.0</ele>
        <time>2023-01-28T10:07:49Z</time>
      </trkpt>
      <trkpt lat="36.4089400" lon="-6.1349740">
        <ele>-5.2</ele>
        <time>2023-01-28T10:07:50Z</time>
      </trkpt>
      <trkpt lat="36.4089620" lon="-6.1350140">
        <ele>-5.2</ele>
        <time>2023-01-28T10:07:51Z</time>
      </trkpt>
      <trkpt lat="36.4089860" lon="-6.1350570">
        <ele>-5.2</ele>
        <time>2023-01-28T10:07:52Z</time>
      </trkpt>
      <trkpt lat="36.4090110" lon="-6.1351120">
        <ele>-5.2</ele>
        <time>2023-01-28T10:07:53Z</time>
      </trkpt>
      <trkpt lat="36.4090410" lon="-6.1351530">
        <ele>-5.2</ele>
        <time>2023-01-28T10:07:54Z</time>
      </trkpt>
      <trkpt lat="36.4090670" lon="-6.1352030">
        <ele>-5.2</ele>
        <time>2023-01-28T10:07:55Z</time>
      </trkpt>
      <trkpt lat="36.4090910" lon="-6.1352440">
        <ele>-5.2</ele>
        <time>2023-01-28T10:07:56Z</time>
      </trkpt>
      <trkpt lat="36.4091160" lon="-6.1352930">
        <ele>-5.2</ele>
        <time>2023-01-28T10:07:57Z</time>
      </trkpt>
      <trkpt lat="36.4091410" lon="-6.1353390">
        <ele>-5.2</ele>
        <time>2023-01-28T10:07:58Z</time>
      </trkpt>
      <trkpt lat="36.4091680" lon="-6.1353790">
        <ele>-5.2</ele>
        <time>2023-01-28T10:07:59Z</time>
      </trkpt>
      <trkpt lat="36.4091930" lon="-6.1354280">
        <ele>-5.2</ele>
        <time>2023-01-28T10:08:00Z</time>
      </trkpt>
      <trkpt lat="36.4092040" lon="-6.1354650">
        <ele>-5.0</ele>
        <time>2023-01-28T10:08:01Z</time>
      </trkpt>
      <trkpt lat="36.4092260" lon="-6.1355080">
        <ele>-4.8</ele>
        <time>2023-01-28T10:08:02Z</time>
      </trkpt>
      <trkpt lat="36.4092470" lon="-6.1355530">
        <ele>-4.8</ele>
        <time>2023-01-28T10:08:03Z</time>
      </trkpt>
      <trkpt lat="36.4092660" lon="-6.1355880">
        <ele>-4.6</ele>
        <time>2023-01-28T10:08:04Z</time>
      </trkpt>
      <trkpt lat="36.4092910" lon="-6.1356270">
        <ele>-4.6</ele>
        <time>2023-01-28T10:08:05Z</time>
      </trkpt>
      <trkpt lat="36.4093150" lon="-6.1356590">
        <ele>-4.4</ele>
        <time>2023-01-28T10:08:06Z</time>
      </trkpt>
      <trkpt lat="36.4093440" lon="-6.1356760">
        <ele>-4.2</ele>
        <time>2023-01-28T10:08:07Z</time>
      </trkpt>
      <trkpt lat="36.4093730" lon="-6.1356990">
        <ele>-4.2</ele>
        <time>2023-01-28T10:08:08Z</time>
      </trkpt>
      <trkpt lat="36.4094020" lon="-6.1357100">
        <ele>-4.2</ele>
        <time>2023-01-28T10:08:09Z</time>
      </trkpt>
      <trkpt lat="36.4094360" lon="-6.1357120">
        <ele>-4.2</ele>
        <time>2023-01-28T10:08:10Z</time>
      </trkpt>
      <trkpt lat="36.4094700" lon="-6.1357140">
        <ele>-4.2</ele>
        <time>2023-01-28T10:08:11Z</time>
      </trkpt>
      <trkpt lat="36.4095040" lon="-6.1357190">
        <ele>-4.4</ele>
        <time>2023-01-28T10:08:12Z</time>
      </trkpt>
      <trkpt lat="36.4095340" lon="-6.1357200">
        <ele>-4.4</ele>
        <time>2023-01-28T10:08:13Z</time>
      </trkpt>
      <trkpt lat="36.4095720" lon="-6.1357200">
        <ele>-4.2</ele>
        <time>2023-01-28T10:08:14Z</time>
      </trkpt>
      <trkpt lat="36.4096050" lon="-6.1357160">
        <ele>-4.2</ele>
        <time>2023-01-28T10:08:15Z</time>
      </trkpt>
      <trkpt lat="36.4096460" lon="-6.1357070">
        <ele>-4.2</ele>
        <time>2023-01-28T10:08:16Z</time>
      </trkpt>
      <trkpt lat="36.4096820" lon="-6.1357030">
        <ele>-4.2</ele>
        <time>2023-01-28T10:08:17Z</time>
      </trkpt>
      <trkpt lat="36.4097140" lon="-6.1357060">
        <ele>-4.2</ele>
        <time>2023-01-28T10:08:18Z</time>
      </trkpt>
      <trkpt lat="36.4097470" lon="-6.1357010">
        <ele>-4.2</ele>
        <time>2023-01-28T10:08:19Z</time>
      </trkpt>
      <trkpt lat="36.4097840" lon="-6.1357000">
        <ele>-4.0</ele>
        <time>2023-01-28T10:08:20Z</time>
      </trkpt>
      <trkpt lat="36.4098240" lon="-6.1357030">
        <ele>-4.0</ele>
        <time>2023-01-28T10:08:21Z</time>
      </trkpt>
      <trkpt lat="36.4098620" lon="-6.1357000">
        <ele>-3.8</ele>
        <time>2023-01-28T10:08:22Z</time>
      </trkpt>
      <trkpt lat="36.4098970" lon="-6.1356990">
        <ele>-3.8</ele>
        <time>2023-01-28T10:08:23Z</time>
      </trkpt>
      <trkpt lat="36.4099380" lon="-6.1356930">
        <ele>-3.6</ele>
        <time>2023-01-28T10:08:24Z</time>
      </trkpt>
      <trkpt lat="36.4099740" lon="-6.1356840">
        <ele>-3.6</ele>
        <time>2023-01-28T10:08:25Z</time>
      </trkpt>
      <trkpt lat="36.4100110" lon="-6.1356780">
        <ele>-3.6</ele>
        <time>2023-01-28T10:08:26Z</time>
      </trkpt>
      <trkpt lat="36.4100550" lon="-6.1356780">
        <ele>-3.6</ele>
        <time>2023-01-28T10:08:27Z</time>
      </trkpt>
      <trkpt lat="36.4100920" lon="-6.1356810">
        <ele>-3.4</ele>
        <time>2023-01-28T10:08:28Z</time>
      </trkpt>
      <trkpt lat="36.4101300" lon="-6.1356850">
        <ele>-3.4</ele>
        <time>2023-01-28T10:08:29Z</time>
      </trkpt>
      <trkpt lat="36.4101660" lon="-6.1356850">
        <ele>-3.4</ele>
        <time>2023-01-28T10:08:30Z</time>
      </trkpt>
      <trkpt lat="36.4102050" lon="-6.1356850">
        <ele>-3.2</ele>
        <time>2023-01-28T10:08:31Z</time>
      </trkpt>
      <trkpt lat="36.4102450" lon="-6.1356860">
        <ele>-3.2</ele>
        <time>2023-01-28T10:08:32Z</time>
      </trkpt>
      <trkpt lat="36.4102840" lon="-6.1356820">
        <ele>-3.4</ele>
        <time>2023-01-28T10:08:33Z</time>
      </trkpt>
      <trkpt lat="36.4103160" lon="-6.1356840">
        <ele>-3.4</ele>
        <time>2023-01-28T10:08:34Z</time>
      </trkpt>
      <trkpt lat="36.4103590" lon="-6.1356800">
        <ele>-3.4</ele>
        <time>2023-01-28T10:08:35Z</time>
      </trkpt>
      <trkpt lat="36.4103950" lon="-6.1356760">
        <ele>-3.6</ele>
        <time>2023-01-28T10:08:36Z</time>
      </trkpt>
      <trkpt lat="36.4104350" lon="-6.1356740">
        <ele>-3.6</ele>
        <time>2023-01-28T10:08:37Z</time>
      </trkpt>
      <trkpt lat="36.4104740" lon="-6.1356760">
        <ele>-3.4</ele>
        <time>2023-01-28T10:08:38Z</time>
      </trkpt>
      <trkpt lat="36.4105140" lon="-6.1356760">
        <ele>-3.6</ele>
        <time>2023-01-28T10:08:39Z</time>
      </trkpt>
      <trkpt lat="36.4105590" lon="-6.1356790">
        <ele>-3.6</ele>
        <time>2023-01-28T10:08:40Z</time>
      </trkpt>
      <trkpt lat="36.4106070" lon="-6.1356700">
        <ele>-3.2</ele>
        <time>2023-01-28T10:08:41Z</time>
      </trkpt>
      <trkpt lat="36.4106490" lon="-6.1356750">
        <ele>-3.2</ele>
        <time>2023-01-28T10:08:42Z</time>
      </trkpt>
      <trkpt lat="36.4106860" lon="-6.1356710">
        <ele>-3.4</ele>
        <time>2023-01-28T10:08:43Z</time>
      </trkpt>
      <trkpt lat="36.4107260" lon="-6.1356720">
        <ele>-3.6</ele>
        <time>2023-01-28T10:08:44Z</time>
      </trkpt>
      <trkpt lat="36.4107690" lon="-6.1356680">
        <ele>-3.6</ele>
        <time>2023-01-28T10:08:45Z</time>
      </trkpt>
      <trkpt lat="36.4108060" lon="-6.1356700">
        <ele>-3.6</ele>
        <time>2023-01-28T10:08:46Z</time>
      </trkpt>
      <trkpt lat="36.4108470" lon="-6.1356750">
        <ele>-3.8</ele>
        <time>2023-01-28T10:08:47Z</time>
      </trkpt>
      <trkpt lat="36.4108850" lon="-6.1356740">
        <ele>-3.8</ele>
        <time>2023-01-28T10:08:48Z</time>
      </trkpt>
      <trkpt lat="36.4109330" lon="-6.1356750">
        <ele>-3.6</ele>
        <time>2023-01-28T10:08:49Z</time>
      </trkpt>
      <trkpt lat="36.4109790" lon="-6.1356760">
        <ele>-3.8</ele>
        <time>2023-01-28T10:08:50Z</time>
      </trkpt>
      <trkpt lat="36.4110220" lon="-6.1356770">
        <ele>-3.8</ele>
        <time>2023-01-28T10:08:51Z</time>
      </trkpt>
      <trkpt lat="36.4110650" lon="-6.1356750">
        <ele>-4.0</ele>
        <time>2023-01-28T10:08:52Z</time>
      </trkpt>
      <trkpt lat="36.4111100" lon="-6.1356670">
        <ele>-4.0</ele>
        <time>2023-01-28T10:08:53Z</time>
      </trkpt>
      <trkpt lat="36.4111510" lon="-6.1356640">
        <ele>-4.2</ele>
        <time>2023-01-28T10:08:54Z</time>
      </trkpt>
      <trkpt lat="36.4111960" lon="-6.1356570">
        <ele>-3.6</ele>
        <time>2023-01-28T10:08:55Z</time>
      </trkpt>
      <trkpt lat="36.4112390" lon="-6.1356490">
        <ele>-3.4</ele>
        <time>2023-01-28T10:08:56Z</time>
      </trkpt>
      <trkpt lat="36.4112830" lon="-6.1356540">
        <ele>-3.6</ele>
        <time>2023-01-28T10:08:57Z</time>
      </trkpt>
      <trkpt lat="36.4113240" lon="-6.1356640">
        <ele>-3.8</ele>
        <time>2023-01-28T10:08:58Z</time>
      </trkpt>
      <trkpt lat="36.4113580" lon="-6.1356820">
        <ele>-3.8</ele>
        <time>2023-01-28T10:08:59Z</time>
      </trkpt>
      <trkpt lat="36.4113850" lon="-6.1357250">
        <ele>-3.6</ele>
        <time>2023-01-28T10:09:00Z</time>
      </trkpt>
      <trkpt lat="36.4113890" lon="-6.1357700">
        <ele>-3.6</ele>
        <time>2023-01-28T10:09:01Z</time>
      </trkpt>
      <trkpt lat="36.4113880" lon="-6.1358260">
        <ele>-3.8</ele>
        <time>2023-01-28T10:09:02Z</time>
      </trkpt>
      <trkpt lat="36.4113940" lon="-6.1358700">
        <ele>-3.8</ele>
        <time>2023-01-28T10:09:03Z</time>
      </trkpt>
      <trkpt lat="36.4113980" lon="-6.1359240">
        <ele>-3.8</ele>
        <time>2023-01-28T10:09:04Z</time>
      </trkpt>
      <trkpt lat="36.4113990" lon="-6.1359750">
        <ele>-3.8</ele>
        <time>2023-01-28T10:09:05Z</time>
      </trkpt>
      <trkpt lat="36.4113980" lon="-6.1360230">
        <ele>-3.8</ele>
        <time>2023-01-28T10:09:06Z</time>
      </trkpt>
      <trkpt lat="36.4114010" lon="-6.1360710">
        <ele>-3.8</ele>
        <time>2023-01-28T10:09:07Z</time>
      </trkpt>
      <trkpt lat="36.4114020" lon="-6.1361150">
        <ele>-3.8</ele>
        <time>2023-01-28T10:09:08Z</time>
      </trkpt>
      <trkpt lat="36.4114090" lon="-6.1361700">
        <ele>-4.0</ele>
        <time>2023-01-28T10:09:09Z</time>
      </trkpt>
      <trkpt lat="36.4114170" lon="-6.1362140">
        <ele>-4.0</ele>
        <time>2023-01-28T10:09:10Z</time>
      </trkpt>
      <trkpt lat="36.4114170" lon="-6.1362550">
        <ele>-3.8</ele>
        <time>2023-01-28T10:09:11Z</time>
      </trkpt>
      <trkpt lat="36.4114200" lon="-6.1363030">
        <ele>-3.6</ele>
        <time>2023-01-28T10:09:12Z</time>
      </trkpt>
      <trkpt lat="36.4114250" lon="-6.1363510">
        <ele>-3.6</ele>
        <time>2023-01-28T10:09:13Z</time>
      </trkpt>
      <trkpt lat="36.4114300" lon="-6.1363950">
        <ele>-3.6</ele>
        <time>2023-01-28T10:09:14Z</time>
      </trkpt>
      <trkpt lat="36.4114380" lon="-6.1364360">
        <ele>-3.6</ele>
        <time>2023-01-28T10:09:15Z</time>
      </trkpt>
      <trkpt lat="36.4114350" lon="-6.1364860">
        <ele>-3.4</ele>
        <time>2023-01-28T10:09:16Z</time>
      </trkpt>
      <trkpt lat="36.4114310" lon="-6.1365210">
        <ele>-3.6</ele>
        <time>2023-01-28T10:09:17Z</time>
      </trkpt>
      <trkpt lat="36.4114290" lon="-6.1365510">
        <ele>-3.6</ele>
        <time>2023-01-28T10:09:18Z</time>
      </trkpt>
      <trkpt lat="36.4114360" lon="-6.1365830">
        <ele>-3.6</ele>
        <time>2023-01-28T10:09:19Z</time>
      </trkpt>
      <trkpt lat="36.4114400" lon="-6.1366280">
        <ele>-3.4</ele>
        <time>2023-01-28T10:09:20Z</time>
      </trkpt>
      <trkpt lat="36.4114400" lon="-6.1366640">
        <ele>-3.4</ele>
        <time>2023-01-28T10:09:21Z</time>
      </trkpt>
      <trkpt lat="36.4114420" lon="-6.1367060">
        <ele>-3.4</ele>
        <time>2023-01-28T10:09:22Z</time>
      </trkpt>
      <trkpt lat="36.4114420" lon="-6.1367460">
        <ele>-3.2</ele>
        <time>2023-01-28T10:09:23Z</time>
      </trkpt>
      <trkpt lat="36.4114400" lon="-6.1367870">
        <ele>-3.2</ele>
        <time>2023-01-28T10:09:24Z</time>
      </trkpt>
      <trkpt lat="36.4114410" lon="-6.1368190">
        <ele>-3.2</ele>
        <time>2023-01-28T10:09:25Z</time>
      </trkpt>
      <trkpt lat="36.4114400" lon="-6.1368580">
        <ele>-3.0</ele>
        <time>2023-01-28T10:09:26Z</time>
      </trkpt>
      <trkpt lat="36.4114450" lon="-6.1368950">
        <ele>-3.0</ele>
        <time>2023-01-28T10:09:27Z</time>
      </trkpt>
      <trkpt lat="36.4114450" lon="-6.1369320">
        <ele>-3.0</ele>
        <time>2023-01-28T10:09:28Z</time>
      </trkpt>
      <trkpt lat="36.4114420" lon="-6.1369800">
        <ele>-2.6</ele>
        <time>2023-01-28T10:09:29Z</time>
      </trkpt>
      <trkpt lat="36.4114490" lon="-6.1370230">
        <ele>-2.6</ele>
        <time>2023-01-28T10:09:30Z</time>
      </trkpt>
      <trkpt lat="36.4114490" lon="-6.1370620">
        <ele>-2.4</ele>
        <time>2023-01-28T10:09:31Z</time>
      </trkpt>
      <trkpt lat="36.4114500" lon="-6.1371130">
        <ele>-2.4</ele>
        <time>2023-01-28T10:09:32Z</time>
      </trkpt>
      <trkpt lat="36.4114540" lon="-6.1371500">
        <ele>-2.2</ele>
        <time>2023-01-28T10:09:33Z</time>
      </trkpt>
      <trkpt lat="36.4114590" lon="-6.1371950">
        <ele>-2.2</ele>
        <time>2023-01-28T10:09:34Z</time>
      </trkpt>
      <trkpt lat="36.4114510" lon="-6.1372240">
        <ele>-2.2</ele>
        <time>2023-01-28T10:09:35Z</time>
      </trkpt>
      <trkpt lat="36.4114510" lon="-6.1372670">
        <ele>-2.2</ele>
        <time>2023-01-28T10:09:36Z</time>
      </trkpt>
      <trkpt lat="36.4114410" lon="-6.1372990">
        <ele>-2.0</ele>
        <time>2023-01-28T10:09:37Z</time>
      </trkpt>
      <trkpt lat="36.4114470" lon="-6.1373460">
        <ele>-2.0</ele>
        <time>2023-01-28T10:09:38Z</time>
      </trkpt>
      <trkpt lat="36.4114510" lon="-6.1373860">
        <ele>-2.0</ele>
        <time>2023-01-28T10:09:39Z</time>
      </trkpt>
      <trkpt lat="36.4114460" lon="-6.1374280">
        <ele>-2.0</ele>
        <time>2023-01-28T10:09:40Z</time>
      </trkpt>
      <trkpt lat="36.4114520" lon="-6.1374780">
        <ele>-1.6</ele>
        <time>2023-01-28T10:09:41Z</time>
      </trkpt>
      <trkpt lat="36.4114480" lon="-6.1375480">
        <ele>-1.2</ele>
        <time>2023-01-28T10:09:42Z</time>
      </trkpt>
      <trkpt lat="36.4114480" lon="-6.1375700">
        <ele>-1.0</ele>
        <time>2023-01-28T10:09:43Z</time>
      </trkpt>
      <trkpt lat="36.4114440" lon="-6.1376030">
        <ele>-1.0</ele>
        <time>2023-01-28T10:09:44Z</time>
      </trkpt>
      <trkpt lat="36.4114450" lon="-6.1376430">
        <ele>-1.2</ele>
        <time>2023-01-28T10:09:45Z</time>
      </trkpt>
      <trkpt lat="36.4114440" lon="-6.1376750">
        <ele>-1.2</ele>
        <time>2023-01-28T10:09:46Z</time>
      </trkpt>
      <trkpt lat="36.4114510" lon="-6.1377170">
        <ele>-1.4</ele>
        <time>2023-01-28T10:09:47Z</time>
      </trkpt>
      <trkpt lat="36.4114630" lon="-6.1377580">
        <ele>-2.0</ele>
        <time>2023-01-28T10:09:48Z</time>
      </trkpt>
      <trkpt lat="36.4114780" lon="-6.1377970">
        <ele>-2.0</ele>
        <time>2023-01-28T10:09:49Z</time>
      </trkpt>
      <trkpt lat="36.4114930" lon="-6.1378440">
        <ele>-1.8</ele>
        <time>2023-01-28T10:09:50Z</time>
      </trkpt>
      <trkpt lat="36.4115150" lon="-6.1378850">
        <ele>-2.0</ele>
        <time>2023-01-28T10:09:51Z</time>
      </trkpt>
      <trkpt lat="36.4115340" lon="-6.1379260">
        <ele>-1.8</ele>
        <time>2023-01-28T10:09:52Z</time>
      </trkpt>
      <trkpt lat="36.4115460" lon="-6.1379710">
        <ele>-2.2</ele>
        <time>2023-01-28T10:09:53Z</time>
      </trkpt>
      <trkpt lat="36.4115540" lon="-6.1380200">
        <ele>-2.0</ele>
        <time>2023-01-28T10:09:54Z</time>
      </trkpt>
      <trkpt lat="36.4115540" lon="-6.1380710">
        <ele>-1.8</ele>
        <time>2023-01-28T10:09:55Z</time>
      </trkpt>
      <trkpt lat="36.4115440" lon="-6.1381150">
        <ele>-2.0</ele>
        <time>2023-01-28T10:09:56Z</time>
      </trkpt>
      <trkpt lat="36.4115260" lon="-6.1381600">
        <ele>-2.0</ele>
        <time>2023-01-28T10:09:57Z</time>
      </trkpt>
      <trkpt lat="36.4115160" lon="-6.1381960">
        <ele>-1.6</ele>
        <time>2023-01-28T10:09:58Z</time>
      </trkpt>
      <trkpt lat="36.4114980" lon="-6.1382370">
        <ele>-1.4</ele>
        <time>2023-01-28T10:09:59Z</time>
      </trkpt>
      <trkpt lat="36.4114890" lon="-6.1382920">
        <ele>-1.6</ele>
        <time>2023-01-28T10:10:00Z</time>
      </trkpt>
      <trkpt lat="36.4114770" lon="-6.1383440">
        <ele>-1.8</ele>
        <time>2023-01-28T10:10:01Z</time>
      </trkpt>
      <trkpt lat="36.4114670" lon="-6.1384010">
        <ele>-2.0</ele>
        <time>2023-01-28T10:10:02Z</time>
      </trkpt>
      <trkpt lat="36.4114660" lon="-6.1384530">
        <ele>-2.0</ele>
        <time>2023-01-28T10:10:03Z</time>
      </trkpt>
      <trkpt lat="36.4114630" lon="-6.1385030">
        <ele>-2.2</ele>
        <time>2023-01-28T10:10:04Z</time>
      </trkpt>
      <trkpt lat="36.4114610" lon="-6.1385520">
        <ele>-2.4</ele>
        <time>2023-01-28T10:10:05Z</time>
      </trkpt>
      <trkpt lat="36.4114600" lon="-6.1386020">
        <ele>-2.4</ele>
        <time>2023-01-28T10:10:06Z</time>
      </trkpt>
      <trkpt lat="36.4114640" lon="-6.1386570">
        <ele>-2.6</ele>
        <time>2023-01-28T10:10:07Z</time>
      </trkpt>
      <trkpt lat="36.4114660" lon="-6.1387070">
        <ele>-2.8</ele>
        <time>2023-01-28T10:10:08Z</time>
      </trkpt>
      <trkpt lat="36.4114670" lon="-6.1387500">
        <ele>-2.8</ele>
        <time>2023-01-28T10:10:09Z</time>
      </trkpt>
      <trkpt lat="36.4114730" lon="-6.1387940">
        <ele>-2.8</ele>
        <time>2023-01-28T10:10:10Z</time>
      </trkpt>
      <trkpt lat="36.4114870" lon="-6.1388330">
        <ele>-2.8</ele>
        <time>2023-01-28T10:10:11Z</time>
      </trkpt>
      <trkpt lat="36.4115030" lon="-6.1388720">
        <ele>-2.8</ele>
        <time>2023-01-28T10:10:12Z</time>
      </trkpt>
      <trkpt lat="36.4115280" lon="-6.1389210">
        <ele>-3.0</ele>
        <time>2023-01-28T10:10:13Z</time>
      </trkpt>
      <trkpt lat="36.4115620" lon="-6.1389620">
        <ele>-3.0</ele>
        <time>2023-01-28T10:10:14Z</time>
      </trkpt>
      <trkpt lat="36.4115870" lon="-6.1390080">
        <ele>-3.0</ele>
        <time>2023-01-28T10:10:15Z</time>
      </trkpt>
      <trkpt lat="36.4116140" lon="-6.1390420">
        <ele>-3.0</ele>
        <time>2023-01-28T10:10:16Z</time>
      </trkpt>
      <trkpt lat="36.4116470" lon="-6.1390870">
        <ele>-3.2</ele>
        <time>2023-01-28T10:10:17Z</time>
      </trkpt>
      <trkpt lat="36.4116720" lon="-6.1391260">
        <ele>-3.2</ele>
        <time>2023-01-28T10:10:18Z</time>
      </trkpt>
      <trkpt lat="36.4117010" lon="-6.1391720">
        <ele>-3.0</ele>
        <time>2023-01-28T10:10:19Z</time>
      </trkpt>
      <trkpt lat="36.4117240" lon="-6.1392090">
        <ele>-3.0</ele>
        <time>2023-01-28T10:10:20Z</time>
      </trkpt>
      <trkpt lat="36.4117520" lon="-6.1392460">
        <ele>-3.2</ele>
        <time>2023-01-28T10:10:21Z</time>
      </trkpt>
      <trkpt lat="36.4117890" lon="-6.1392850">
        <ele>-3.4</ele>
        <time>2023-01-28T10:10:22Z</time>
      </trkpt>
      <trkpt lat="36.4118210" lon="-6.1393320">
        <ele>-3.2</ele>
        <time>2023-01-28T10:10:23Z</time>
      </trkpt>
      <trkpt lat="36.4118430" lon="-6.1393820">
        <ele>-3.2</ele>
        <time>2023-01-28T10:10:24Z</time>
      </trkpt>
      <trkpt lat="36.4118670" lon="-6.1394430">
        <ele>-3.2</ele>
        <time>2023-01-28T10:10:25Z</time>
      </trkpt>
      <trkpt lat="36.4118880" lon="-6.1394930">
        <ele>-3.2</ele>
        <time>2023-01-28T10:10:26Z</time>
      </trkpt>
      <trkpt lat="36.4119150" lon="-6.1395410">
        <ele>-3.0</ele>
        <time>2023-01-28T10:10:27Z</time>
      </trkpt>
      <trkpt lat="36.4119400" lon="-6.1395790">
        <ele>-3.0</ele>
        <time>2023-01-28T10:10:28Z</time>
      </trkpt>
      <trkpt lat="36.4119700" lon="-6.1396140">
        <ele>-3.2</ele>
        <time>2023-01-28T10:10:29Z</time>
      </trkpt>
      <trkpt lat="36.4119930" lon="-6.1396600">
        <ele>-3.2</ele>
        <time>2023-01-28T10:10:30Z</time>
      </trkpt>
      <trkpt lat="36.4120160" lon="-6.1397180">
        <ele>-3.4</ele>
        <time>2023-01-28T10:10:31Z</time>
      </trkpt>
      <trkpt lat="36.4120300" lon="-6.1397810">
        <ele>-3.4</ele>
        <time>2023-01-28T10:10:32Z</time>
      </trkpt>
      <trkpt lat="36.4120530" lon="-6.1398310">
        <ele>-3.4</ele>
        <time>2023-01-28T10:10:33Z</time>
      </trkpt>
      <trkpt lat="36.4120900" lon="-6.1398690">
        <ele>-3.2</ele>
        <time>2023-01-28T10:10:34Z</time>
      </trkpt>
      <trkpt lat="36.4121240" lon="-6.1399100">
        <ele>-3.4</ele>
        <time>2023-01-28T10:10:35Z</time>
      </trkpt>
      <trkpt lat="36.4121650" lon="-6.1399220">
        <ele>-3.6</ele>
        <time>2023-01-28T10:10:36Z</time>
      </trkpt>
      <trkpt lat="36.4122050" lon="-6.1399390">
        <ele>-3.6</ele>
        <time>2023-01-28T10:10:37Z</time>
      </trkpt>
      <trkpt lat="36.4122470" lon="-6.1399420">
        <ele>-3.8</ele>
        <time>2023-01-28T10:10:38Z</time>
      </trkpt>
      <trkpt lat="36.4122980" lon="-6.1399330">
        <ele>-3.8</ele>
        <time>2023-01-28T10:10:39Z</time>
      </trkpt>
      <trkpt lat="36.4123500" lon="-6.1399290">
        <ele>-3.6</ele>
        <time>2023-01-28T10:10:40Z</time>
      </trkpt>
      <trkpt lat="36.4124040" lon="-6.1399200">
        <ele>-3.8</ele>
        <time>2023-01-28T10:10:41Z</time>
      </trkpt>
      <trkpt lat="36.4124530" lon="-6.1399120">
        <ele>-4.0</ele>
        <time>2023-01-28T10:10:42Z</time>
      </trkpt>
      <trkpt lat="36.4125000" lon="-6.1399050">
        <ele>-4.0</ele>
        <time>2023-01-28T10:10:43Z</time>
      </trkpt>
      <trkpt lat="36.4125410" lon="-6.1398950">
        <ele>-4.2</ele>
        <time>2023-01-28T10:10:44Z</time>
      </trkpt>
      <trkpt lat="36.4125890" lon="-6.1398790">
        <ele>-4.2</ele>
        <time>2023-01-28T10:10:45Z</time>
      </trkpt>
      <trkpt lat="36.4126370" lon="-6.1398690">
        <ele>-4.2</ele>
        <time>2023-01-28T10:10:46Z</time>
      </trkpt>
      <trkpt lat="36.4126760" lon="-6.1398590">
        <ele>-4.4</ele>
        <time>2023-01-28T10:10:47Z</time>
      </trkpt>
      <trkpt lat="36.4127190" lon="-6.1398470">
        <ele>-4.6</ele>
        <time>2023-01-28T10:10:48Z</time>
      </trkpt>
      <trkpt lat="36.4127620" lon="-6.1398490">
        <ele>-4.6</ele>
        <time>2023-01-28T10:10:49Z</time>
      </trkpt>
      <trkpt lat="36.4128120" lon="-6.1398490">
        <ele>-4.8</ele>
        <time>2023-01-28T10:10:50Z</time>
      </trkpt>
      <trkpt lat="36.4128570" lon="-6.1398590">
        <ele>-5.0</ele>
        <time>2023-01-28T10:10:51Z</time>
      </trkpt>
      <trkpt lat="36.4129070" lon="-6.1398890">
        <ele>-5.0</ele>
        <time>2023-01-28T10:10:52Z</time>
      </trkpt>
      <trkpt lat="36.4129560" lon="-6.1399250">
        <ele>-5.0</ele>
        <time>2023-01-28T10:10:53Z</time>
      </trkpt>
      <trkpt lat="36.4129980" lon="-6.1399660">
        <ele>-5.0</ele>
        <time>2023-01-28T10:10:54Z</time>
      </trkpt>
      <trkpt lat="36.4130580" lon="-6.1399950">
        <ele>-5.0</ele>
        <time>2023-01-28T10:10:55Z</time>
      </trkpt>
      <trkpt lat="36.4131020" lon="-6.1400370">
        <ele>-5.0</ele>
        <time>2023-01-28T10:10:56Z</time>
      </trkpt>
      <trkpt lat="36.4131420" lon="-6.1400760">
        <ele>-5.4</ele>
        <time>2023-01-28T10:10:57Z</time>
      </trkpt>
      <trkpt lat="36.4131830" lon="-6.1401040">
        <ele>-5.4</ele>
        <time>2023-01-28T10:10:58Z</time>
      </trkpt>
      <trkpt lat="36.4132260" lon="-6.1401290">
        <ele>-5.6</ele>
        <time>2023-01-28T10:10:59Z</time>
      </trkpt>
      <trkpt lat="36.4132490" lon="-6.1401690">
        <ele>-5.6</ele>
        <time>2023-01-28T10:11:00Z</time>
      </trkpt>
      <trkpt lat="36.4132950" lon="-6.1402020">
        <ele>-5.6</ele>
        <time>2023-01-28T10:11:01Z</time>
      </trkpt>
      <trkpt lat="36.4133420" lon="-6.1402350">
        <ele>-5.4</ele>
        <time>2023-01-28T10:11:02Z</time>
      </trkpt>
      <trkpt lat="36.4133880" lon="-6.1402670">
        <ele>-5.6</ele>
        <time>2023-01-28T10:11:03Z</time>
      </trkpt>
      <trkpt lat="36.4134370" lon="-6.1402950">
        <ele>-5.6</ele>
        <time>2023-01-28T10:11:04Z</time>
      </trkpt>
      <trkpt lat="36.4134840" lon="-6.1403260">
        <ele>-5.4</ele>
        <time>2023-01-28T10:11:05Z</time>
      </trkpt>
      <trkpt lat="36.4135230" lon="-6.1403460">
        <ele>-5.4</ele>
        <time>2023-01-28T10:11:06Z</time>
      </trkpt>
      <trkpt lat="36.4135720" lon="-6.1403590">
        <ele>-5.4</ele>
        <time>2023-01-28T10:11:07Z</time>
      </trkpt>
      <trkpt lat="36.4136210" lon="-6.1403860">
        <ele>-5.4</ele>
        <time>2023-01-28T10:11:08Z</time>
      </trkpt>
      <trkpt lat="36.4136630" lon="-6.1404030">
        <ele>-5.4</ele>
        <time>2023-01-28T10:11:09Z</time>
      </trkpt>
      <trkpt lat="36.4137030" lon="-6.1404330">
        <ele>-5.2</ele>
        <time>2023-01-28T10:11:10Z</time>
      </trkpt>
      <trkpt lat="36.4137440" lon="-6.1404530">
        <ele>-5.2</ele>
        <time>2023-01-28T10:11:11Z</time>
      </trkpt>
      <trkpt lat="36.4137780" lon="-6.1404850">
        <ele>-5.2</ele>
        <time>2023-01-28T10:11:12Z</time>
      </trkpt>
      <trkpt lat="36.4138190" lon="-6.1404880">
        <ele>-5.2</ele>
        <time>2023-01-28T10:11:13Z</time>
      </trkpt>
      <trkpt lat="36.4138610" lon="-6.1404700">
        <ele>-5.2</ele>
        <time>2023-01-28T10:11:14Z</time>
      </trkpt>
      <trkpt lat="36.4138930" lon="-6.1404730">
        <ele>-5.2</ele>
        <time>2023-01-28T10:11:15Z</time>
      </trkpt>
      <trkpt lat="36.4139340" lon="-6.1404590">
        <ele>-5.2</ele>
        <time>2023-01-28T10:11:16Z</time>
      </trkpt>
      <trkpt lat="36.4139750" lon="-6.1404410">
        <ele>-5.2</ele>
        <time>2023-01-28T10:11:17Z</time>
      </trkpt>
      <trkpt lat="36.4140110" lon="-6.1404250">
        <ele>-5.0</ele>
        <time>2023-01-28T10:11:18Z</time>
      </trkpt>
      <trkpt lat="36.4140480" lon="-6.1404030">
        <ele>-4.8</ele>
        <time>2023-01-28T10:11:19Z</time>
      </trkpt>
      <trkpt lat="36.4140750" lon="-6.1403750">
        <ele>-4.6</ele>
        <time>2023-01-28T10:11:20Z</time>
      </trkpt>
      <trkpt lat="36.4141040" lon="-6.1403620">
        <ele>-4.6</ele>
        <time>2023-01-28T10:11:21Z</time>
      </trkpt>
      <trkpt lat="36.4141410" lon="-6.1403440">
        <ele>-4.8</ele>
        <time>2023-01-28T10:11:22Z</time>
      </trkpt>
      <trkpt lat="36.4141710" lon="-6.1403450">
        <ele>-4.8</ele>
        <time>2023-01-28T10:11:23Z</time>
      </trkpt>
      <trkpt lat="36.4141930" lon="-6.1403520">
        <ele>-4.8</ele>
        <time>2023-01-28T10:11:24Z</time>
      </trkpt>
      <trkpt lat="36.4142230" lon="-6.1403560">
        <ele>-4.4</ele>
        <time>2023-01-28T10:11:25Z</time>
      </trkpt>
      <trkpt lat="36.4142570" lon="-6.1403650">
        <ele>-4.2</ele>
        <time>2023-01-28T10:11:26Z</time>
      </trkpt>
      <trkpt lat="36.4142960" lon="-6.1403830">
        <ele>-4.4</ele>
        <time>2023-01-28T10:11:27Z</time>
      </trkpt>
      <trkpt lat="36.4143340" lon="-6.1404160">
        <ele>-4.4</ele>
        <time>2023-01-28T10:11:28Z</time>
      </trkpt>
      <trkpt lat="36.4143690" lon="-6.1404420">
        <ele>-4.0</ele>
        <time>2023-01-28T10:11:29Z</time>
      </trkpt>
      <trkpt lat="36.4144060" lon="-6.1404740">
        <ele>-4.2</ele>
        <time>2023-01-28T10:11:30Z</time>
      </trkpt>
      <trkpt lat="36.4144390" lon="-6.1404940">
        <ele>-4.4</ele>
        <time>2023-01-28T10:11:31Z</time>
      </trkpt>
      <trkpt lat="36.4144760" lon="-6.1405280">
        <ele>-4.4</ele>
        <time>2023-01-28T10:11:32Z</time>
      </trkpt>
      <trkpt lat="36.4145170" lon="-6.1405480">
        <ele>-4.6</ele>
        <time>2023-01-28T10:11:33Z</time>
      </trkpt>
      <trkpt lat="36.4145520" lon="-6.1405800">
        <ele>-4.8</ele>
        <time>2023-01-28T10:11:34Z</time>
      </trkpt>
      <trkpt lat="36.4145890" lon="-6.1406090">
        <ele>-4.8</ele>
        <time>2023-01-28T10:11:35Z</time>
      </trkpt>
      <trkpt lat="36.4146270" lon="-6.1406320">
        <ele>-5.2</ele>
        <time>2023-01-28T10:11:36Z</time>
      </trkpt>
      <trkpt lat="36.4146740" lon="-6.1406530">
        <ele>-5.6</ele>
        <time>2023-01-28T10:11:37Z</time>
      </trkpt>
      <trkpt lat="36.4147170" lon="-6.1406770">
        <ele>-5.8</ele>
        <time>2023-01-28T10:11:38Z</time>
      </trkpt>
      <trkpt lat="36.4147690" lon="-6.1406980">
        <ele>-6.0</ele>
        <time>2023-01-28T10:11:39Z</time>
      </trkpt>
      <trkpt lat="36.4148180" lon="-6.1407250">
        <ele>-6.0</ele>
        <time>2023-01-28T10:11:40Z</time>
      </trkpt>
      <trkpt lat="36.4148690" lon="-6.1407540">
        <ele>-6.0</ele>
        <time>2023-01-28T10:11:41Z</time>
      </trkpt>
      <trkpt lat="36.4149150" lon="-6.1407830">
        <ele>-5.8</ele>
        <time>2023-01-28T10:11:42Z</time>
      </trkpt>
      <trkpt lat="36.4149580" lon="-6.1408140">
        <ele>-6.4</ele>
        <time>2023-01-28T10:11:43Z</time>
      </trkpt>
      <trkpt lat="36.4149980" lon="-6.1408430">
        <ele>-6.4</ele>
        <time>2023-01-28T10:11:44Z</time>
      </trkpt>
      <trkpt lat="36.4150350" lon="-6.1408790">
        <ele>-6.4</ele>
        <time>2023-01-28T10:11:45Z</time>
      </trkpt>
      <trkpt lat="36.4150760" lon="-6.1409140">
        <ele>-6.6</ele>
        <time>2023-01-28T10:11:46Z</time>
      </trkpt>
      <trkpt lat="36.4151190" lon="-6.1409550">
        <ele>-6.6</ele>
        <time>2023-01-28T10:11:47Z</time>
      </trkpt>
      <trkpt lat="36.4151590" lon="-6.1409880">
        <ele>-6.6</ele>
        <time>2023-01-28T10:11:48Z</time>
      </trkpt>
      <trkpt lat="36.4151920" lon="-6.1410190">
        <ele>-6.4</ele>
        <time>2023-01-28T10:11:49Z</time>
      </trkpt>
      <trkpt lat="36.4152290" lon="-6.1410510">
        <ele>-6.6</ele>
        <time>2023-01-28T10:11:50Z</time>
      </trkpt>
      <trkpt lat="36.4152670" lon="-6.1410790">
        <ele>-6.6</ele>
        <time>2023-01-28T10:11:51Z</time>
      </trkpt>
      <trkpt lat="36.4153030" lon="-6.1411150">
        <ele>-6.6</ele>
        <time>2023-01-28T10:11:52Z</time>
      </trkpt>
      <trkpt lat="36.4153420" lon="-6.1411420">
        <ele>-6.8</ele>
        <time>2023-01-28T10:11:53Z</time>
      </trkpt>
      <trkpt lat="36.4153820" lon="-6.1411660">
        <ele>-6.8</ele>
        <time>2023-01-28T10:11:54Z</time>
      </trkpt>
      <trkpt lat="36.4154260" lon="-6.1411980">
        <ele>-6.8</ele>
        <time>2023-01-28T10:11:55Z</time>
      </trkpt>
      <trkpt lat="36.4154680" lon="-6.1412200">
        <ele>-6.8</ele>
        <time>2023-01-28T10:11:56Z</time>
      </trkpt>
      <trkpt lat="36.4154990" lon="-6.1412510">
        <ele>-6.8</ele>
        <time>2023-01-28T10:11:57Z</time>
      </trkpt>
      <trkpt lat="36.4155400" lon="-6.1412790">
        <ele>-6.8</ele>
        <time>2023-01-28T10:11:58Z</time>
      </trkpt>
      <trkpt lat="36.4155780" lon="-6.1413080">
        <ele>-6.8</ele>
        <time>2023-01-28T10:11:59Z</time>
      </trkpt>
      <trkpt lat="36.4156160" lon="-6.1413320">
        <ele>-6.6</ele>
        <time>2023-01-28T10:12:00Z</time>
      </trkpt>
      <trkpt lat="36.4156470" lon="-6.1413640">
        <ele>-6.6</ele>
        <time>2023-01-28T10:12:01Z</time>
      </trkpt>
      <trkpt lat="36.4156830" lon="-6.1413940">
        <ele>-6.4</ele>
        <time>2023-01-28T10:12:02Z</time>
      </trkpt>
      <trkpt lat="36.4157230" lon="-6.1414210">
        <ele>-6.4</ele>
        <time>2023-01-28T10:12:03Z</time>
      </trkpt>
      <trkpt lat="36.4157600" lon="-6.1414500">
        <ele>-6.4</ele>
        <time>2023-01-28T10:12:04Z</time>
      </trkpt>
      <trkpt lat="36.4157940" lon="-6.1414740">
        <ele>-6.4</ele>
        <time>2023-01-28T10:12:05Z</time>
      </trkpt>
      <trkpt lat="36.4158320" lon="-6.1415120">
        <ele>-6.2</ele>
        <time>2023-01-28T10:12:06Z</time>
      </trkpt>
      <trkpt lat="36.4158690" lon="-6.1415450">
        <ele>-6.2</ele>
        <time>2023-01-28T10:12:07Z</time>
      </trkpt>
      <trkpt lat="36.4159070" lon="-6.1415750">
        <ele>-6.0</ele>
        <time>2023-01-28T10:12:08Z</time>
      </trkpt>
      <trkpt lat="36.4159460" lon="-6.1416180">
        <ele>-6.2</ele>
        <time>2023-01-28T10:12:09Z</time>
      </trkpt>
      <trkpt lat="36.4159800" lon="-6.1416560">
        <ele>-6.2</ele>
        <time>2023-01-28T10:12:10Z</time>
      </trkpt>
      <trkpt lat="36.4160130" lon="-6.1416990">
        <ele>-6.2</ele>
        <time>2023-01-28T10:12:11Z</time>
      </trkpt>
      <trkpt lat="36.4160500" lon="-6.1417390">
        <ele>-6.0</ele>
        <time>2023-01-28T10:12:12Z</time>
      </trkpt>
      <trkpt lat="36.4160780" lon="-6.1417770">
        <ele>-5.8</ele>
        <time>2023-01-28T10:12:13Z</time>
      </trkpt>
      <trkpt lat="36.4161050" lon="-6.1418040">
        <ele>-5.6</ele>
        <time>2023-01-28T10:12:14Z</time>
      </trkpt>
      <trkpt lat="36.4161310" lon="-6.1418380">
        <ele>-5.4</ele>
        <time>2023-01-28T10:12:15Z</time>
      </trkpt>
      <trkpt lat="36.4161600" lon="-6.1418770">
        <ele>-5.2</ele>
        <time>2023-01-28T10:12:16Z</time>
      </trkpt>
      <trkpt lat="36.4161830" lon="-6.1419080">
        <ele>-5.0</ele>
        <time>2023-01-28T10:12:17Z</time>
      </trkpt>
      <trkpt lat="36.4162070" lon="-6.1419360">
        <ele>-4.8</ele>
        <time>2023-01-28T10:12:18Z</time>
      </trkpt>
      <trkpt lat="36.4162270" lon="-6.1419580">
        <ele>-4.6</ele>
        <time>2023-01-28T10:12:19Z</time>
      </trkpt>
      <trkpt lat="36.4162430" lon="-6.1419870">
        <ele>-4.4</ele>
        <time>2023-01-28T10:12:20Z</time>
      </trkpt>
      <trkpt lat="36.4162610" lon="-6.1420100">
        <ele>-4.2</ele>
        <time>2023-01-28T10:12:21Z</time>
      </trkpt>
      <trkpt lat="36.4162780" lon="-6.1420280">
        <ele>-4.0</ele>
        <time>2023-01-28T10:12:22Z</time>
      </trkpt>
      <trkpt lat="36.4162900" lon="-6.1420450">
        <ele>-4.0</ele>
        <time>2023-01-28T10:12:23Z</time>
      </trkpt>
      <trkpt lat="36.4163110" lon="-6.1420700">
        <ele>-4.2</ele>
        <time>2023-01-28T10:12:24Z</time>
      </trkpt>
      <trkpt lat="36.4163330" lon="-6.1420880">
        <ele>-4.4</ele>
        <time>2023-01-28T10:12:25Z</time>
      </trkpt>
      <trkpt lat="36.4163590" lon="-6.1421070">
        <ele>-4.6</ele>
        <time>2023-01-28T10:12:26Z</time>
      </trkpt>
      <trkpt lat="36.4163880" lon="-6.1421350">
        <ele>-4.8</ele>
        <time>2023-01-28T10:12:27Z</time>
      </trkpt>
      <trkpt lat="36.4164250" lon="-6.1421770">
        <ele>-5.2</ele>
        <time>2023-01-28T10:12:28Z</time>
      </trkpt>
      <trkpt lat="36.4164610" lon="-6.1422190">
        <ele>-5.6</ele>
        <time>2023-01-28T10:12:29Z</time>
      </trkpt>
      <trkpt lat="36.4164900" lon="-6.1422650">
        <ele>-6.0</ele>
        <time>2023-01-28T10:12:30Z</time>
      </trkpt>
      <trkpt lat="36.4165250" lon="-6.1423170">
        <ele>-6.2</ele>
        <time>2023-01-28T10:12:31Z</time>
      </trkpt>
      <trkpt lat="36.4165600" lon="-6.1423740">
        <ele>-6.4</ele>
        <time>2023-01-28T10:12:32Z</time>
      </trkpt>
      <trkpt lat="36.4165880" lon="-6.1424310">
        <ele>-6.4</ele>
        <time>2023-01-28T10:12:33Z</time>
      </trkpt>
      <trkpt lat="36.4166170" lon="-6.1424840">
        <ele>-6.4</ele>
        <time>2023-01-28T10:12:34Z</time>
      </trkpt>
      <trkpt lat="36.4166540" lon="-6.1425250">
        <ele>-6.2</ele>
        <time>2023-01-28T10:12:35Z</time>
      </trkpt>
      <trkpt lat="36.4166920" lon="-6.1425770">
        <ele>-6.2</ele>
        <time>2023-01-28T10:12:36Z</time>
      </trkpt>
      <trkpt lat="36.4167210" lon="-6.1426320">
        <ele>-6.2</ele>
        <time>2023-01-28T10:12:37Z</time>
      </trkpt>
      <trkpt lat="36.4167510" lon="-6.1426790">
        <ele>-6.2</ele>
        <time>2023-01-28T10:12:38Z</time>
      </trkpt>
      <trkpt lat="36.4167840" lon="-6.1427170">
        <ele>-6.2</ele>
        <time>2023-01-28T10:12:39Z</time>
      </trkpt>
      <trkpt lat="36.4168110" lon="-6.1427650">
        <ele>-6.4</ele>
        <time>2023-01-28T10:12:40Z</time>
      </trkpt>
      <trkpt lat="36.4168420" lon="-6.1428020">
        <ele>-6.4</ele>
        <time>2023-01-28T10:12:41Z</time>
      </trkpt>
      <trkpt lat="36.4168690" lon="-6.1428380">
        <ele>-6.4</ele>
        <time>2023-01-28T10:12:42Z</time>
      </trkpt>
      <trkpt lat="36.4169030" lon="-6.1428790">
        <ele>-6.4</ele>
        <time>2023-01-28T10:12:43Z</time>
      </trkpt>
      <trkpt lat="36.4169300" lon="-6.1429200">
        <ele>-6.6</ele>
        <time>2023-01-28T10:12:44Z</time>
      </trkpt>
      <trkpt lat="36.4169590" lon="-6.1429630">
        <ele>-6.6</ele>
        <time>2023-01-28T10:12:45Z</time>
      </trkpt>
      <trkpt lat="36.4169980" lon="-6.1430030">
        <ele>-6.4</ele>
        <time>2023-01-28T10:12:46Z</time>
      </trkpt>
      <trkpt lat="36.4170210" lon="-6.1430370">
        <ele>-6.2</ele>
        <time>2023-01-28T10:12:47Z</time>
      </trkpt>
      <trkpt lat="36.4170550" lon="-6.1430650">
        <ele>-6.0</ele>
        <time>2023-01-28T10:12:48Z</time>
      </trkpt>
      <trkpt lat="36.4170780" lon="-6.1430990">
        <ele>-5.8</ele>
        <time>2023-01-28T10:12:49Z</time>
      </trkpt>
      <trkpt lat="36.4171020" lon="-6.1431310">
        <ele>-5.8</ele>
        <time>2023-01-28T10:12:50Z</time>
      </trkpt>
      <trkpt lat="36.4171270" lon="-6.1431580">
        <ele>-5.8</ele>
        <time>2023-01-28T10:12:51Z</time>
      </trkpt>
      <trkpt lat="36.4171550" lon="-6.1431860">
        <ele>-5.8</ele>
        <time>2023-01-28T10:12:52Z</time>
      </trkpt>
      <trkpt lat="36.4171840" lon="-6.1432160">
        <ele>-5.6</ele>
        <time>2023-01-28T10:12:53Z</time>
      </trkpt>
      <trkpt lat="36.4172200" lon="-6.1432320">
        <ele>-5.2</ele>
        <time>2023-01-28T10:12:54Z</time>
      </trkpt>
      <trkpt lat="36.4172580" lon="-6.1432440">
        <ele>-5.0</ele>
        <time>2023-01-28T10:12:55Z</time>
      </trkpt>
      <trkpt lat="36.4172920" lon="-6.1432730">
        <ele>-5.0</ele>
        <time>2023-01-28T10:12:56Z</time>
      </trkpt>
      <trkpt lat="36.4173240" lon="-6.1432960">
        <ele>-4.8</ele>
        <time>2023-01-28T10:12:57Z</time>
      </trkpt>
      <trkpt lat="36.4173520" lon="-6.1433220">
        <ele>-4.8</ele>
        <time>2023-01-28T10:12:58Z</time>
      </trkpt>
      <trkpt lat="36.4173830" lon="-6.1433460">
        <ele>-5.0</ele>
        <time>2023-01-28T10:12:59Z</time>
      </trkpt>
      <trkpt lat="36.4174180" lon="-6.1433770">
        <ele>-5.0</ele>
        <time>2023-01-28T10:13:00Z</time>
      </trkpt>
      <trkpt lat="36.4174520" lon="-6.1434020">
        <ele>-4.8</ele>
        <time>2023-01-28T10:13:01Z</time>
      </trkpt>
      <trkpt lat="36.4174770" lon="-6.1434230">
        <ele>-4.6</ele>
        <time>2023-01-28T10:13:02Z</time>
      </trkpt>
      <trkpt lat="36.4175180" lon="-6.1434530">
        <ele>-4.8</ele>
        <time>2023-01-28T10:13:03Z</time>
      </trkpt>
      <trkpt lat="36.4175560" lon="-6.1434860">
        <ele>-4.8</ele>
        <time>2023-01-28T10:13:04Z</time>
      </trkpt>
      <trkpt lat="36.4175890" lon="-6.1435070">
        <ele>-5.0</ele>
        <time>2023-01-28T10:13:05Z</time>
      </trkpt>
      <trkpt lat="36.4176310" lon="-6.1435320">
        <ele>-5.0</ele>
        <time>2023-01-28T10:13:06Z</time>
      </trkpt>
      <trkpt lat="36.4176670" lon="-6.1435590">
        <ele>-5.2</ele>
        <time>2023-01-28T10:13:07Z</time>
      </trkpt>
      <trkpt lat="36.4176950" lon="-6.1435830">
        <ele>-5.0</ele>
        <time>2023-01-28T10:13:08Z</time>
      </trkpt>
      <trkpt lat="36.4177300" lon="-6.1436080">
        <ele>-5.0</ele>
        <time>2023-01-28T10:13:09Z</time>
      </trkpt>
      <trkpt lat="36.4177590" lon="-6.1436200">
        <ele>-5.2</ele>
        <time>2023-01-28T10:13:10Z</time>
      </trkpt>
      <trkpt lat="36.4177920" lon="-6.1436380">
        <ele>-5.2</ele>
        <time>2023-01-28T10:13:11Z</time>
      </trkpt>
      <trkpt lat="36.4178340" lon="-6.1436610">
        <ele>-5.2</ele>
        <time>2023-01-28T10:13:12Z</time>
      </trkpt>
      <trkpt lat="36.4178720" lon="-6.1436910">
        <ele>-5.0</ele>
        <time>2023-01-28T10:13:13Z</time>
      </trkpt>
      <trkpt lat="36.4179150" lon="-6.1437210">
        <ele>-5.2</ele>
        <time>2023-01-28T10:13:14Z</time>
      </trkpt>
      <trkpt lat="36.4179500" lon="-6.1437440">
        <ele>-5.2</ele>
        <time>2023-01-28T10:13:15Z</time>
      </trkpt>
      <trkpt lat="36.4179820" lon="-6.1437630">
        <ele>-5.2</ele>
        <time>2023-01-28T10:13:16Z</time>
      </trkpt>
      <trkpt lat="36.4180360" lon="-6.1437720">
        <ele>-5.2</ele>
        <time>2023-01-28T10:13:17Z</time>
      </trkpt>
      <trkpt lat="36.4180940" lon="-6.1437910">
        <ele>-5.2</ele>
        <time>2023-01-28T10:13:18Z</time>
      </trkpt>
      <trkpt lat="36.4181430" lon="-6.1438020">
        <ele>-5.2</ele>
        <time>2023-01-28T10:13:19Z</time>
      </trkpt>
      <trkpt lat="36.4181830" lon="-6.1438120">
        <ele>-5.2</ele>
        <time>2023-01-28T10:13:20Z</time>
      </trkpt>
      <trkpt lat="36.4182230" lon="-6.1438290">
        <ele>-5.2</ele>
        <time>2023-01-28T10:13:21Z</time>
      </trkpt>
      <trkpt lat="36.4182660" lon="-6.1438440">
        <ele>-5.2</ele>
        <time>2023-01-28T10:13:22Z</time>
      </trkpt>
      <trkpt lat="36.4183050" lon="-6.1438630">
        <ele>-5.2</ele>
        <time>2023-01-28T10:13:23Z</time>
      </trkpt>
      <trkpt lat="36.4183470" lon="-6.1438880">
        <ele>-5.4</ele>
        <time>2023-01-28T10:13:24Z</time>
      </trkpt>
      <trkpt lat="36.4183960" lon="-6.1439080">
        <ele>-5.4</ele>
        <time>2023-01-28T10:13:25Z</time>
      </trkpt>
      <trkpt lat="36.4184360" lon="-6.1439340">
        <ele>-5.2</ele>
        <time>2023-01-28T10:13:26Z</time>
      </trkpt>
      <trkpt lat="36.4184790" lon="-6.1439480">
        <ele>-5.2</ele>
        <time>2023-01-28T10:13:27Z</time>
      </trkpt>
      <trkpt lat="36.4185140" lon="-6.1439680">
        <ele>-5.2</ele>
        <time>2023-01-28T10:13:28Z</time>
      </trkpt>
      <trkpt lat="36.4185510" lon="-6.1439880">
        <ele>-5.2</ele>
        <time>2023-01-28T10:13:29Z</time>
      </trkpt>
      <trkpt lat="36.4185920" lon="-6.1440050">
        <ele>-5.2</ele>
        <time>2023-01-28T10:13:30Z</time>
      </trkpt>
      <trkpt lat="36.4186400" lon="-6.1440210">
        <ele>-5.4</ele>
        <time>2023-01-28T10:13:31Z</time>
      </trkpt>
      <trkpt lat="36.4186900" lon="-6.1440470">
        <ele>-5.4</ele>
        <time>2023-01-28T10:13:32Z</time>
      </trkpt>
      <trkpt lat="36.4187380" lon="-6.1440660">
        <ele>-5.4</ele>
        <time>2023-01-28T10:13:33Z</time>
      </trkpt>
      <trkpt lat="36.4187880" lon="-6.1440860">
        <ele>-5.2</ele>
        <time>2023-01-28T10:13:34Z</time>
      </trkpt>
      <trkpt lat="36.4188320" lon="-6.1441080">
        <ele>-4.8</ele>
        <time>2023-01-28T10:13:35Z</time>
      </trkpt>
      <trkpt lat="36.4188770" lon="-6.1441340">
        <ele>-4.6</ele>
        <time>2023-01-28T10:13:36Z</time>
      </trkpt>
      <trkpt lat="36.4189120" lon="-6.1441510">
        <ele>-4.4</ele>
        <time>2023-01-28T10:13:37Z</time>
      </trkpt>
      <trkpt lat="36.4189600" lon="-6.1441710">
        <ele>-4.2</ele>
        <time>2023-01-28T10:13:38Z</time>
      </trkpt>
      <trkpt lat="36.4190050" lon="-6.1441920">
        <ele>-4.0</ele>
        <time>2023-01-28T10:13:39Z</time>
      </trkpt>
      <trkpt lat="36.4190490" lon="-6.1442110">
        <ele>-3.8</ele>
        <time>2023-01-28T10:13:40Z</time>
      </trkpt>
      <trkpt lat="36.4190900" lon="-6.1442260">
        <ele>-3.6</ele>
        <time>2023-01-28T10:13:41Z</time>
      </trkpt>
      <trkpt lat="36.4191330" lon="-6.1442460">
        <ele>-3.4</ele>
        <time>2023-01-28T10:13:42Z</time>
      </trkpt>
      <trkpt lat="36.4191670" lon="-6.1442640">
        <ele>-3.2</ele>
        <time>2023-01-28T10:13:43Z</time>
      </trkpt>
      <trkpt lat="36.4191950" lon="-6.1442870">
        <ele>-3.0</ele>
        <time>2023-01-28T10:13:44Z</time>
      </trkpt>
      <trkpt lat="36.4192190" lon="-6.1442990">
        <ele>-3.0</ele>
        <time>2023-01-28T10:13:45Z</time>
      </trkpt>
      <trkpt lat="36.4192490" lon="-6.1443140">
        <ele>-2.8</ele>
        <time>2023-01-28T10:13:46Z</time>
      </trkpt>
      <trkpt lat="36.4192700" lon="-6.1443270">
        <ele>-2.8</ele>
        <time>2023-01-28T10:13:47Z</time>
      </trkpt>
      <trkpt lat="36.4192830" lon="-6.1443350">
        <ele>-2.8</ele>
        <time>2023-01-28T10:13:48Z</time>
      </trkpt>
      <trkpt lat="36.4192900" lon="-6.1443510">
        <ele>-2.8</ele>
        <time>2023-01-28T10:13:49Z</time>
      </trkpt>
      <trkpt lat="36.4192860" lon="-6.1443680">
        <ele>-2.6</ele>
        <time>2023-01-28T10:13:50Z</time>
      </trkpt>
      <trkpt lat="36.4192780" lon="-6.1443820">
        <ele>-2.6</ele>
        <time>2023-01-28T10:13:51Z</time>
      </trkpt>
      <trkpt lat="36.4192750" lon="-6.1443890">
        <ele>-2.6</ele>
        <time>2023-01-28T10:13:52Z</time>
      </trkpt>
      <trkpt lat="36.4192760" lon="-6.1444040">
        <ele>-2.8</ele>
        <time>2023-01-28T10:13:53Z</time>
      </trkpt>
      <trkpt lat="36.4192990" lon="-6.1444180">
        <ele>-2.8</ele>
        <time>2023-01-28T10:13:54Z</time>
      </trkpt>
      <trkpt lat="36.4193220" lon="-6.1444350">
        <ele>-2.8</ele>
        <time>2023-01-28T10:13:55Z</time>
      </trkpt>
      <trkpt lat="36.4193490" lon="-6.1444530">
        <ele>-2.8</ele>
        <time>2023-01-28T10:13:56Z</time>
      </trkpt>
      <trkpt lat="36.4193700" lon="-6.1444740">
        <ele>-2.6</ele>
        <time>2023-01-28T10:13:57Z</time>
      </trkpt>
      <trkpt lat="36.4193910" lon="-6.1444750">
        <ele>-2.4</ele>
        <time>2023-01-28T10:13:58Z</time>
      </trkpt>
      <trkpt lat="36.4194150" lon="-6.1444990">
        <ele>-2.4</ele>
        <time>2023-01-28T10:13:59Z</time>
      </trkpt>
      <trkpt lat="36.4194400" lon="-6.1445150">
        <ele>-2.4</ele>
        <time>2023-01-28T10:14:00Z</time>
      </trkpt>
      <trkpt lat="36.4194690" lon="-6.1445340">
        <ele>-2.4</ele>
        <time>2023-01-28T10:14:01Z</time>
      </trkpt>
      <trkpt lat="36.4195030" lon="-6.1445460">
        <ele>-2.6</ele>
        <time>2023-01-28T10:14:02Z</time>
      </trkpt>
      <trkpt lat="36.4195340" lon="-6.1445540">
        <ele>-2.6</ele>
        <time>2023-01-28T10:14:03Z</time>
      </trkpt>
      <trkpt lat="36.4195680" lon="-6.1445550">
        <ele>-2.6</ele>
        <time>2023-01-28T10:14:04Z</time>
      </trkpt>
      <trkpt lat="36.4196070" lon="-6.1445470">
        <ele>-2.6</ele>
        <time>2023-01-28T10:14:05Z</time>
      </trkpt>
      <trkpt lat="36.4196340" lon="-6.1445460">
        <ele>-2.6</ele>
        <time>2023-01-28T10:14:06Z</time>
      </trkpt>
      <trkpt lat="36.4196700" lon="-6.1445460">
        <ele>-2.6</ele>
        <time>2023-01-28T10:14:07Z</time>
      </trkpt>
      <trkpt lat="36.4196990" lon="-6.1445600">
        <ele>-2.4</ele>
        <time>2023-01-28T10:14:08Z</time>
      </trkpt>
      <trkpt lat="36.4197420" lon="-6.1445680">
        <ele>-2.4</ele>
        <time>2023-01-28T10:14:09Z</time>
      </trkpt>
      <trkpt lat="36.4197870" lon="-6.1445820">
        <ele>-2.4</ele>
        <time>2023-01-28T10:14:10Z</time>
      </trkpt>
      <trkpt lat="36.4198240" lon="-6.1445910">
        <ele>-2.6</ele>
        <time>2023-01-28T10:14:11Z</time>
      </trkpt>
      <trkpt lat="36.4198570" lon="-6.1445990">
        <ele>-2.6</ele>
        <time>2023-01-28T10:14:12Z</time>
      </trkpt>
      <trkpt lat="36.4198980" lon="-6.1446060">
        <ele>-2.2</ele>
        <time>2023-01-28T10:14:13Z</time>
      </trkpt>
      <trkpt lat="36.4199260" lon="-6.1446220">
        <ele>-2.0</ele>
        <time>2023-01-28T10:14:14Z</time>
      </trkpt>
      <trkpt lat="36.4199690" lon="-6.1446180">
        <ele>-2.0</ele>
        <time>2023-01-28T10:14:15Z</time>
      </trkpt>
      <trkpt lat="36.4199970" lon="-6.1446350">
        <ele>-1.8</ele>
        <time>2023-01-28T10:14:16Z</time>
      </trkpt>
      <trkpt lat="36.4200350" lon="-6.1446390">
        <ele>-1.6</ele>
        <time>2023-01-28T10:14:17Z</time>
      </trkpt>
      <trkpt lat="36.4200740" lon="-6.1446410">
        <ele>-1.4</ele>
        <time>2023-01-28T10:14:18Z</time>
      </trkpt>
      <trkpt lat="36.4201150" lon="-6.1446420">
        <ele>-1.4</ele>
        <time>2023-01-28T10:14:19Z</time>
      </trkpt>
      <trkpt lat="36.4201530" lon="-6.1446470">
        <ele>-1.2</ele>
        <time>2023-01-28T10:14:20Z</time>
      </trkpt>
      <trkpt lat="36.4201950" lon="-6.1446420">
        <ele>-1.4</ele>
        <time>2023-01-28T10:14:21Z</time>
      </trkpt>
      <trkpt lat="36.4202440" lon="-6.1446350">
        <ele>-1.6</ele>
        <time>2023-01-28T10:14:22Z</time>
      </trkpt>
      <trkpt lat="36.4202850" lon="-6.1446350">
        <ele>-1.6</ele>
        <time>2023-01-28T10:14:23Z</time>
      </trkpt>
      <trkpt lat="36.4203080" lon="-6.1446350">
        <ele>-1.4</ele>
        <time>2023-01-28T10:14:24Z</time>
      </trkpt>
      <trkpt lat="36.4203350" lon="-6.1446270">
        <ele>-1.4</ele>
        <time>2023-01-28T10:14:25Z</time>
      </trkpt>
      <trkpt lat="36.4203550" lon="-6.1446300">
        <ele>-1.4</ele>
        <time>2023-01-28T10:14:26Z</time>
      </trkpt>
      <trkpt lat="36.4203750" lon="-6.1446280">
        <ele>-1.6</ele>
        <time>2023-01-28T10:14:27Z</time>
      </trkpt>
      <trkpt lat="36.4204000" lon="-6.1446300">
        <ele>-1.6</ele>
        <time>2023-01-28T10:14:28Z</time>
      </trkpt>
      <trkpt lat="36.4204260" lon="-6.1446300">
        <ele>-1.6</ele>
        <time>2023-01-28T10:14:29Z</time>
      </trkpt>
      <trkpt lat="36.4204490" lon="-6.1446290">
        <ele>-1.4</ele>
        <time>2023-01-28T10:14:30Z</time>
      </trkpt>
      <trkpt lat="36.4204820" lon="-6.1446290">
        <ele>-1.4</ele>
        <time>2023-01-28T10:14:31Z</time>
      </trkpt>
      <trkpt lat="36.4205110" lon="-6.1446270">
        <ele>-1.4</ele>
        <time>2023-01-28T10:14:32Z</time>
      </trkpt>
      <trkpt lat="36.4205450" lon="-6.1446220">
        <ele>-1.2</ele>
        <time>2023-01-28T10:14:33Z</time>
      </trkpt>
      <trkpt lat="36.4205890" lon="-6.1446130">
        <ele>-1.4</ele>
        <time>2023-01-28T10:14:34Z</time>
      </trkpt>
      <trkpt lat="36.4206270" lon="-6.1446120">
        <ele>-1.4</ele>
        <time>2023-01-28T10:14:35Z</time>
      </trkpt>
      <trkpt lat="36.4206680" lon="-6.1446110">
        <ele>-1.4</ele>
        <time>2023-01-28T10:14:36Z</time>
      </trkpt>
      <trkpt lat="36.4207080" lon="-6.1446070">
        <ele>-1.4</ele>
        <time>2023-01-28T10:14:37Z</time>
      </trkpt>
      <trkpt lat="36.4207370" lon="-6.1446130">
        <ele>-1.4</ele>
        <time>2023-01-28T10:14:38Z</time>
      </trkpt>
      <trkpt lat="36.4207670" lon="-6.1446120">
        <ele>-1.4</ele>
        <time>2023-01-28T10:14:39Z</time>
      </trkpt>
      <trkpt lat="36.4208070" lon="-6.1446150">
        <ele>-1.4</ele>
        <time>2023-01-28T10:14:40Z</time>
      </trkpt>
      <trkpt lat="36.4208450" lon="-6.1446250">
        <ele>-1.2</ele>
        <time>2023-01-28T10:14:41Z</time>
      </trkpt>
      <trkpt lat="36.4208780" lon="-6.1446270">
        <ele>-1.2</ele>
        <time>2023-01-28T10:14:42Z</time>
      </trkpt>
      <trkpt lat="36.4209260" lon="-6.1446200">
        <ele>-1.0</ele>
        <time>2023-01-28T10:14:43Z</time>
      </trkpt>
      <trkpt lat="36.4209630" lon="-6.1446210">
        <ele>-0.8</ele>
        <time>2023-01-28T10:14:44Z</time>
      </trkpt>
      <trkpt lat="36.4209980" lon="-6.1446180">
        <ele>-0.6</ele>
        <time>2023-01-28T10:14:45Z</time>
      </trkpt>
      <trkpt lat="36.4210150" lon="-6.1446330">
        <ele>-0.8</ele>
        <time>2023-01-28T10:14:46Z</time>
      </trkpt>
      <trkpt lat="36.4210380" lon="-6.1446350">
        <ele>-1.0</ele>
        <time>2023-01-28T10:14:47Z</time>
      </trkpt>
      <trkpt lat="36.4210630" lon="-6.1446440">
        <ele>-1.0</ele>
        <time>2023-01-28T10:14:48Z</time>
      </trkpt>
      <trkpt lat="36.4210870" lon="-6.1446540">
        <ele>-1.2</ele>
        <time>2023-01-28T10:14:49Z</time>
      </trkpt>
      <trkpt lat="36.4211070" lon="-6.1446530">
        <ele>-1.2</ele>
        <time>2023-01-28T10:14:50Z</time>
      </trkpt>
      <trkpt lat="36.4211360" lon="-6.1446450">
        <ele>-1.2</ele>
        <time>2023-01-28T10:14:51Z</time>
      </trkpt>
      <trkpt lat="36.4211630" lon="-6.1446280">
        <ele>-1.2</ele>
        <time>2023-01-28T10:14:52Z</time>
      </trkpt>
      <trkpt lat="36.4211880" lon="-6.1446150">
        <ele>-1.0</ele>
        <time>2023-01-28T10:14:53Z</time>
      </trkpt>
      <trkpt lat="36.4212240" lon="-6.1445970">
        <ele>-1.0</ele>
        <time>2023-01-28T10:14:54Z</time>
      </trkpt>
      <trkpt lat="36.4212510" lon="-6.1445970">
        <ele>-0.6</ele>
        <time>2023-01-28T10:14:55Z</time>
      </trkpt>
      <trkpt lat="36.4212790" lon="-6.1445950">
        <ele>-0.2</ele>
        <time>2023-01-28T10:14:56Z</time>
      </trkpt>
      <trkpt lat="36.4213090" lon="-6.1445860">
        <ele>0.0</ele>
        <time>2023-01-28T10:14:57Z</time>
      </trkpt>
      <trkpt lat="36.4213350" lon="-6.1445810">
        <ele>0.0</ele>
        <time>2023-01-28T10:14:58Z</time>
      </trkpt>
      <trkpt lat="36.4213620" lon="-6.1445800">
        <ele>0.0</ele>
        <time>2023-01-28T10:14:59Z</time>
      </trkpt>
      <trkpt lat="36.4213930" lon="-6.1445930">
        <ele>0.0</ele>
        <time>2023-01-28T10:15:00Z</time>
      </trkpt>
      <trkpt lat="36.4214220" lon="-6.1446130">
        <ele>0.0</ele>
        <time>2023-01-28T10:15:01Z</time>
      </trkpt>
      <trkpt lat="36.4214540" lon="-6.1446270">
        <ele>0.2</ele>
        <time>2023-01-28T10:15:02Z</time>
      </trkpt>
      <trkpt lat="36.4214800" lon="-6.1446400">
        <ele>0.2</ele>
        <time>2023-01-28T10:15:03Z</time>
      </trkpt>
      <trkpt lat="36.4215070" lon="-6.1446430">
        <ele>0.2</ele>
        <time>2023-01-28T10:15:04Z</time>
      </trkpt>
      <trkpt lat="36.4215240" lon="-6.1446490">
        <ele>0.0</ele>
        <time>2023-01-28T10:15:05Z</time>
      </trkpt>
      <trkpt lat="36.4215610" lon="-6.1446590">
        <ele>0.0</ele>
        <time>2023-01-28T10:15:06Z</time>
      </trkpt>
      <trkpt lat="36.4215950" lon="-6.1446780">
        <ele>0.0</ele>
        <time>2023-01-28T10:15:07Z</time>
      </trkpt>
      <trkpt lat="36.4216270" lon="-6.1446890">
        <ele>-0.2</ele>
        <time>2023-01-28T10:15:08Z</time>
      </trkpt>
      <trkpt lat="36.4216570" lon="-6.1447010">
        <ele>-0.2</ele>
        <time>2023-01-28T10:15:09Z</time>
      </trkpt>
      <trkpt lat="36.4216890" lon="-6.1447020">
        <ele>-0.4</ele>
        <time>2023-01-28T10:15:10Z</time>
      </trkpt>
      <trkpt lat="36.4217150" lon="-6.1447020">
        <ele>-0.4</ele>
        <time>2023-01-28T10:15:11Z</time>
      </trkpt>
      <trkpt lat="36.4217510" lon="-6.1446990">
        <ele>-0.4</ele>
        <time>2023-01-28T10:15:12Z</time>
      </trkpt>
      <trkpt lat="36.4217930" lon="-6.1447010">
        <ele>-0.2</ele>
        <time>2023-01-28T10:15:13Z</time>
      </trkpt>
      <trkpt lat="36.4218300" lon="-6.1447100">
        <ele>0.0</ele>
        <time>2023-01-28T10:15:14Z</time>
      </trkpt>
      <trkpt lat="36.4218570" lon="-6.1447160">
        <ele>0.0</ele>
        <time>2023-01-28T10:15:15Z</time>
      </trkpt>
      <trkpt lat="36.4218910" lon="-6.1447280">
        <ele>0.2</ele>
        <time>2023-01-28T10:15:16Z</time>
      </trkpt>
      <trkpt lat="36.4219350" lon="-6.1447280">
        <ele>0.2</ele>
        <time>2023-01-28T10:15:17Z</time>
      </trkpt>
      <trkpt lat="36.4219690" lon="-6.1447270">
        <ele>0.2</ele>
        <time>2023-01-28T10:15:18Z</time>
      </trkpt>
      <trkpt lat="36.4220170" lon="-6.1447140">
        <ele>0.0</ele>
        <time>2023-01-28T10:15:19Z</time>
      </trkpt>
      <trkpt lat="36.4220750" lon="-6.1446960">
        <ele>0.0</ele>
        <time>2023-01-28T10:15:20Z</time>
      </trkpt>
      <trkpt lat="36.4221250" lon="-6.1447050">
        <ele>-0.2</ele>
        <time>2023-01-28T10:15:21Z</time>
      </trkpt>
      <trkpt lat="36.4221670" lon="-6.1447090">
        <ele>-0.2</ele>
        <time>2023-01-28T10:15:22Z</time>
      </trkpt>
      <trkpt lat="36.4222140" lon="-6.1447170">
        <ele>-0.4</ele>
        <time>2023-01-28T10:15:23Z</time>
      </trkpt>
      <trkpt lat="36.4222360" lon="-6.1447230">
        <ele>-0.6</ele>
        <time>2023-01-28T10:15:24Z</time>
      </trkpt>
      <trkpt lat="36.4222760" lon="-6.1447210">
        <ele>-1.0</ele>
        <time>2023-01-28T10:15:25Z</time>
      </trkpt>
      <trkpt lat="36.4223210" lon="-6.1447160">
        <ele>-1.2</ele>
        <time>2023-01-28T10:15:26Z</time>
      </trkpt>
      <trkpt lat="36.4223610" lon="-6.1447060">
        <ele>-1.4</ele>
        <time>2023-01-28T10:15:27Z</time>
      </trkpt>
      <trkpt lat="36.4224150" lon="-6.1446840">
        <ele>-1.4</ele>
        <time>2023-01-28T10:15:28Z</time>
      </trkpt>
      <trkpt lat="36.4224670" lon="-6.1446800">
        <ele>-1.4</ele>
        <time>2023-01-28T10:15:29Z</time>
      </trkpt>
      <trkpt lat="36.4225170" lon="-6.1446920">
        <ele>-1.4</ele>
        <time>2023-01-28T10:15:30Z</time>
      </trkpt>
      <trkpt lat="36.4225780" lon="-6.1446850">
        <ele>-1.4</ele>
        <time>2023-01-28T10:15:31Z</time>
      </trkpt>
      <trkpt lat="36.4226190" lon="-6.1446910">
        <ele>-1.6</ele>
        <time>2023-01-28T10:15:32Z</time>
      </trkpt>
      <trkpt lat="36.4226720" lon="-6.1446900">
        <ele>-1.8</ele>
        <time>2023-01-28T10:15:33Z</time>
      </trkpt>
      <trkpt lat="36.4227210" lon="-6.1446890">
        <ele>-2.0</ele>
        <time>2023-01-28T10:15:34Z</time>
      </trkpt>
      <trkpt lat="36.4227590" lon="-6.1447020">
        <ele>-2.2</ele>
        <time>2023-01-28T10:15:35Z</time>
      </trkpt>
      <trkpt lat="36.4228020" lon="-6.1446950">
        <ele>-2.2</ele>
        <time>2023-01-28T10:15:36Z</time>
      </trkpt>
      <trkpt lat="36.4228370" lon="-6.1447220">
        <ele>-2.2</ele>
        <time>2023-01-28T10:15:37Z</time>
      </trkpt>
      <trkpt lat="36.4228830" lon="-6.1447290">
        <ele>-2.4</ele>
        <time>2023-01-28T10:15:38Z</time>
      </trkpt>
      <trkpt lat="36.4229430" lon="-6.1447050">
        <ele>-2.2</ele>
        <time>2023-01-28T10:15:39Z</time>
      </trkpt>
      <trkpt lat="36.4229810" lon="-6.1447050">
        <ele>-2.2</ele>
        <time>2023-01-28T10:15:40Z</time>
      </trkpt>
      <trkpt lat="36.4230360" lon="-6.1447020">
        <ele>-2.0</ele>
        <time>2023-01-28T10:15:41Z</time>
      </trkpt>
      <trkpt lat="36.4230890" lon="-6.1446930">
        <ele>-2.2</ele>
        <time>2023-01-28T10:15:42Z</time>
      </trkpt>
      <trkpt lat="36.4231470" lon="-6.1446870">
        <ele>-2.2</ele>
        <time>2023-01-28T10:15:43Z</time>
      </trkpt>
      <trkpt lat="36.4231940" lon="-6.1446900">
        <ele>-2.2</ele>
        <time>2023-01-28T10:15:44Z</time>
      </trkpt>
      <trkpt lat="36.4232410" lon="-6.1446890">
        <ele>-2.2</ele>
        <time>2023-01-28T10:15:45Z</time>
      </trkpt>
      <trkpt lat="36.4232850" lon="-6.1447010">
        <ele>-2.2</ele>
        <time>2023-01-28T10:15:46Z</time>
      </trkpt>
      <trkpt lat="36.4233260" lon="-6.1447120">
        <ele>-2.2</ele>
        <time>2023-01-28T10:15:47Z</time>
      </trkpt>
      <trkpt lat="36.4233590" lon="-6.1447140">
        <ele>-2.4</ele>
        <time>2023-01-28T10:15:48Z</time>
      </trkpt>
      <trkpt lat="36.4234070" lon="-6.1447090">
        <ele>-2.6</ele>
        <time>2023-01-28T10:15:49Z</time>
      </trkpt>
      <trkpt lat="36.4234490" lon="-6.1447090">
        <ele>-2.6</ele>
        <time>2023-01-28T10:15:50Z</time>
      </trkpt>
      <trkpt lat="36.4235030" lon="-6.1446890">
        <ele>-2.6</ele>
        <time>2023-01-28T10:15:51Z</time>
      </trkpt>
      <trkpt lat="36.4235450" lon="-6.1446900">
        <ele>-2.8</ele>
        <time>2023-01-28T10:15:52Z</time>
      </trkpt>
      <trkpt lat="36.4235830" lon="-6.1446910">
        <ele>-2.6</ele>
        <time>2023-01-28T10:15:53Z</time>
      </trkpt>
      <trkpt lat="36.4236250" lon="-6.1446920">
        <ele>-2.6</ele>
        <time>2023-01-28T10:15:54Z</time>
      </trkpt>
      <trkpt lat="36.4236550" lon="-6.1447000">
        <ele>-2.8</ele>
        <time>2023-01-28T10:15:55Z</time>
      </trkpt>
      <trkpt lat="36.4237050" lon="-6.1446880">
        <ele>-3.0</ele>
        <time>2023-01-28T10:15:56Z</time>
      </trkpt>
      <trkpt lat="36.4237480" lon="-6.1446990">
        <ele>-3.0</ele>
        <time>2023-01-28T10:15:57Z</time>
      </trkpt>
      <trkpt lat="36.4237920" lon="-6.1447020">
        <ele>-3.0</ele>
        <time>2023-01-28T10:15:58Z</time>
      </trkpt>
      <trkpt lat="36.4238230" lon="-6.1447290">
        <ele>-3.0</ele>
        <time>2023-01-28T10:15:59Z</time>
      </trkpt>
      <trkpt lat="36.4238700" lon="-6.1447480">
        <ele>-3.0</ele>
        <time>2023-01-28T10:16:00Z</time>
      </trkpt>
      <trkpt lat="36.4239170" lon="-6.1447580">
        <ele>-3.0</ele>
        <time>2023-01-28T10:16:01Z</time>
      </trkpt>
      <trkpt lat="36.4239660" lon="-6.1447620">
        <ele>-3.2</ele>
        <time>2023-01-28T10:16:02Z</time>
      </trkpt>
      <trkpt lat="36.4240210" lon="-6.1447400">
        <ele>-3.2</ele>
        <time>2023-01-28T10:16:03Z</time>
      </trkpt>
      <trkpt lat="36.4240600" lon="-6.1447420">
        <ele>-3.2</ele>
        <time>2023-01-28T10:16:04Z</time>
      </trkpt>
      <trkpt lat="36.4240940" lon="-6.1447420">
        <ele>-3.2</ele>
        <time>2023-01-28T10:16:05Z</time>
      </trkpt>
      <trkpt lat="36.4241350" lon="-6.1447540">
        <ele>-3.2</ele>
        <time>2023-01-28T10:16:06Z</time>
      </trkpt>
      <trkpt lat="36.4241870" lon="-6.1447550">
        <ele>-3.2</ele>
        <time>2023-01-28T10:16:07Z</time>
      </trkpt>
      <trkpt lat="36.4242410" lon="-6.1447510">
        <ele>-3.0</ele>
        <time>2023-01-28T10:16:08Z</time>
      </trkpt>
      <trkpt lat="36.4242930" lon="-6.1447400">
        <ele>-3.0</ele>
        <time>2023-01-28T10:16:09Z</time>
      </trkpt>
      <trkpt lat="36.4243330" lon="-6.1447360">
        <ele>-3.0</ele>
        <time>2023-01-28T10:16:10Z</time>
      </trkpt>
      <trkpt lat="36.4243820" lon="-6.1447380">
        <ele>-2.8</ele>
        <time>2023-01-28T10:16:11Z</time>
      </trkpt>
      <trkpt lat="36.4244290" lon="-6.1447290">
        <ele>-3.0</ele>
        <time>2023-01-28T10:16:12Z</time>
      </trkpt>
      <trkpt lat="36.4244750" lon="-6.1447130">
        <ele>-3.2</ele>
        <time>2023-01-28T10:16:13Z</time>
      </trkpt>
      <trkpt lat="36.4245270" lon="-6.1446900">
        <ele>-3.4</ele>
        <time>2023-01-28T10:16:14Z</time>
      </trkpt>
      <trkpt lat="36.4245770" lon="-6.1446770">
        <ele>-3.4</ele>
        <time>2023-01-28T10:16:15Z</time>
      </trkpt>
      <trkpt lat="36.4246290" lon="-6.1446650">
        <ele>-3.4</ele>
        <time>2023-01-28T10:16:16Z</time>
      </trkpt>
      <trkpt lat="36.4246890" lon="-6.1446450">
        <ele>-3.4</ele>
        <time>2023-01-28T10:16:17Z</time>
      </trkpt>
      <trkpt lat="36.4247390" lon="-6.1446300">
        <ele>-3.4</ele>
        <time>2023-01-28T10:16:18Z</time>
      </trkpt>
      <trkpt lat="36.4247870" lon="-6.1446090">
        <ele>-3.6</ele>
        <time>2023-01-28T10:16:19Z</time>
      </trkpt>
      <trkpt lat="36.4248350" lon="-6.1445800">
        <ele>-3.6</ele>
        <time>2023-01-28T10:16:20Z</time>
      </trkpt>
      <trkpt lat="36.4248800" lon="-6.1445700">
        <ele>-3.8</ele>
        <time>2023-01-28T10:16:21Z</time>
      </trkpt>
      <trkpt lat="36.4249250" lon="-6.1445570">
        <ele>-3.6</ele>
        <time>2023-01-28T10:16:22Z</time>
      </trkpt>
      <trkpt lat="36.4249820" lon="-6.1445410">
        <ele>-3.8</ele>
        <time>2023-01-28T10:16:23Z</time>
      </trkpt>
      <trkpt lat="36.4250330" lon="-6.1445300">
        <ele>-3.8</ele>
        <time>2023-01-28T10:16:24Z</time>
      </trkpt>
      <trkpt lat="36.4250670" lon="-6.1445280">
        <ele>-4.0</ele>
        <time>2023-01-28T10:16:25Z</time>
      </trkpt>
      <trkpt lat="36.4251140" lon="-6.1445180">
        <ele>-4.0</ele>
        <time>2023-01-28T10:16:26Z</time>
      </trkpt>
      <trkpt lat="36.4251570" lon="-6.1445030">
        <ele>-4.0</ele>
        <time>2023-01-28T10:16:27Z</time>
      </trkpt>
      <trkpt lat="36.4251990" lon="-6.1444890">
        <ele>-3.8</ele>
        <time>2023-01-28T10:16:28Z</time>
      </trkpt>
      <trkpt lat="36.4252460" lon="-6.1444810">
        <ele>-3.8</ele>
        <time>2023-01-28T10:16:29Z</time>
      </trkpt>
      <trkpt lat="36.4252980" lon="-6.1444750">
        <ele>-4.0</ele>
        <time>2023-01-28T10:16:30Z</time>
      </trkpt>
      <trkpt lat="36.4253520" lon="-6.1444580">
        <ele>-4.0</ele>
        <time>2023-01-28T10:16:31Z</time>
      </trkpt>
      <trkpt lat="36.4254050" lon="-6.1444490">
        <ele>-4.2</ele>
        <time>2023-01-28T10:16:32Z</time>
      </trkpt>
      <trkpt lat="36.4254590" lon="-6.1444170">
        <ele>-4.0</ele>
        <time>2023-01-28T10:16:33Z</time>
      </trkpt>
      <trkpt lat="36.4255080" lon="-6.1443920">
        <ele>-4.0</ele>
        <time>2023-01-28T10:16:34Z</time>
      </trkpt>
      <trkpt lat="36.4255680" lon="-6.1443750">
        <ele>-4.0</ele>
        <time>2023-01-28T10:16:35Z</time>
      </trkpt>
      <trkpt lat="36.4256200" lon="-6.1443640">
        <ele>-4.0</ele>
        <time>2023-01-28T10:16:36Z</time>
      </trkpt>
      <trkpt lat="36.4256520" lon="-6.1443590">
        <ele>-4.2</ele>
        <time>2023-01-28T10:16:37Z</time>
      </trkpt>
      <trkpt lat="36.4256910" lon="-6.1443410">
        <ele>-4.0</ele>
        <time>2023-01-28T10:16:38Z</time>
      </trkpt>
      <trkpt lat="36.4257170" lon="-6.1443460">
        <ele>-4.0</ele>
        <time>2023-01-28T10:16:39Z</time>
      </trkpt>
      <trkpt lat="36.4257260" lon="-6.1443220">
        <ele>-4.0</ele>
        <time>2023-01-28T10:16:40Z</time>
      </trkpt>
      <trkpt lat="36.4257400" lon="-6.1443060">
        <ele>-4.0</ele>
        <time>2023-01-28T10:16:41Z</time>
      </trkpt>
      <trkpt lat="36.4257550" lon="-6.1442920">
        <ele>-4.0</ele>
        <time>2023-01-28T10:16:42Z</time>
      </trkpt>
      <trkpt lat="36.4257500" lon="-6.1442820">
        <ele>-4.0</ele>
        <time>2023-01-28T10:16:43Z</time>
      </trkpt>
      <trkpt lat="36.4257490" lon="-6.1442770">
        <ele>-4.2</ele>
        <time>2023-01-28T10:16:44Z</time>
      </trkpt>
      <trkpt lat="36.4257460" lon="-6.1442840">
        <ele>-4.0</ele>
        <time>2023-01-28T10:16:45Z</time>
      </trkpt>
      <trkpt lat="36.4257510" lon="-6.1443010">
        <ele>-4.0</ele>
        <time>2023-01-28T10:16:46Z</time>
      </trkpt>
      <trkpt lat="36.4257490" lon="-6.1442950">
        <ele>-4.0</ele>
        <time>2023-01-28T10:16:47Z</time>
      </trkpt>
      <trkpt lat="36.4257520" lon="-6.1442980">
        <ele>-4.2</ele>
        <time>2023-01-28T10:16:48Z</time>
      </trkpt>
      <trkpt lat="36.4257460" lon="-6.1442840">
        <ele>-4.2</ele>
        <time>2023-01-28T10:16:49Z</time>
      </trkpt>
      <trkpt lat="36.4257440" lon="-6.1442720">
        <ele>-4.2</ele>
        <time>2023-01-28T10:16:50Z</time>
      </trkpt>
      <trkpt lat="36.4257420" lon="-6.1442550">
        <ele>-4.2</ele>
        <time>2023-01-28T10:16:51Z</time>
      </trkpt>
      <trkpt lat="36.4257740" lon="-6.1442500">
        <ele>-4.0</ele>
        <time>2023-01-28T10:16:55Z</time>
      </trkpt>
      <trkpt lat="36.4258010" lon="-6.1442400">
        <ele>-4.0</ele>
        <time>2023-01-28T10:16:56Z</time>
      </trkpt>
      <trkpt lat="36.4258290" lon="-6.1442410">
        <ele>-4.0</ele>
        <time>2023-01-28T10:16:57Z</time>
      </trkpt>
      <trkpt lat="36.4258470" lon="-6.1442540">
        <ele>-3.8</ele>
        <time>2023-01-28T10:16:58Z</time>
      </trkpt>
      <trkpt lat="36.4258790" lon="-6.1442880">
        <ele>-3.8</ele>
        <time>2023-01-28T10:16:59Z</time>
      </trkpt>
      <trkpt lat="36.4258790" lon="-6.1442880">
        <ele>-3.8</ele>
        <time>2023-01-28T10:17:00Z</time>
      </trkpt>
      <trkpt lat="36.4259120" lon="-6.1442930">
        <ele>-4.0</ele>
        <time>2023-01-28T10:17:01Z</time>
      </trkpt>
      <trkpt lat="36.4259450" lon="-6.1443000">
        <ele>-4.2</ele>
        <time>2023-01-28T10:17:02Z</time>
      </trkpt>
      <trkpt lat="36.4259890" lon="-6.1442880">
        <ele>-4.2</ele>
        <time>2023-01-28T10:17:03Z</time>
      </trkpt>
      <trkpt lat="36.4260200" lon="-6.1443060">
        <ele>-4.4</ele>
        <time>2023-01-28T10:17:04Z</time>
      </trkpt>
      <trkpt lat="36.4260570" lon="-6.1443090">
        <ele>-4.4</ele>
        <time>2023-01-28T10:17:05Z</time>
      </trkpt>
      <trkpt lat="36.4260990" lon="-6.1442950">
        <ele>-4.4</ele>
        <time>2023-01-28T10:17:06Z</time>
      </trkpt>
      <trkpt lat="36.4261510" lon="-6.1442730">
        <ele>-4.2</ele>
        <time>2023-01-28T10:17:07Z</time>
      </trkpt>
      <trkpt lat="36.4261980" lon="-6.1442710">
        <ele>-4.0</ele>
        <time>2023-01-28T10:17:08Z</time>
      </trkpt>
      <trkpt lat="36.4262450" lon="-6.1442520">
        <ele>-3.8</ele>
        <time>2023-01-28T10:17:09Z</time>
      </trkpt>
      <trkpt lat="36.4263040" lon="-6.1442270">
        <ele>-3.2</ele>
        <time>2023-01-28T10:17:10Z</time>
      </trkpt>
      <trkpt lat="36.4263620" lon="-6.1442000">
        <ele>-3.4</ele>
        <time>2023-01-28T10:17:11Z</time>
      </trkpt>
      <trkpt lat="36.4264240" lon="-6.1441920">
        <ele>-3.4</ele>
        <time>2023-01-28T10:17:12Z</time>
      </trkpt>
      <trkpt lat="36.4264700" lon="-6.1441660">
        <ele>-3.6</ele>
        <time>2023-01-28T10:17:13Z</time>
      </trkpt>
      <trkpt lat="36.4264970" lon="-6.1441590">
        <ele>-3.8</ele>
        <time>2023-01-28T10:17:14Z</time>
      </trkpt>
      <trkpt lat="36.4265420" lon="-6.1441590">
        <ele>-4.0</ele>
        <time>2023-01-28T10:17:15Z</time>
      </trkpt>
      <trkpt lat="36.4265670" lon="-6.1441640">
        <ele>-4.0</ele>
        <time>2023-01-28T10:17:16Z</time>
      </trkpt>
      <trkpt lat="36.4266040" lon="-6.1441620">
        <ele>-4.2</ele>
        <time>2023-01-28T10:17:17Z</time>
      </trkpt>
      <trkpt lat="36.4266370" lon="-6.1441610">
        <ele>-4.4</ele>
        <time>2023-01-28T10:17:18Z</time>
      </trkpt>
      <trkpt lat="36.4266880" lon="-6.1441460">
        <ele>-4.4</ele>
        <time>2023-01-28T10:17:19Z</time>
      </trkpt>
      <trkpt lat="36.4267410" lon="-6.1441290">
        <ele>-4.6</ele>
        <time>2023-01-28T10:17:20Z</time>
      </trkpt>
      <trkpt lat="36.4267900" lon="-6.1441160">
        <ele>-4.6</ele>
        <time>2023-01-28T10:17:21Z</time>
      </trkpt>
      <trkpt lat="36.4268420" lon="-6.1440950">
        <ele>-4.4</ele>
        <time>2023-01-28T10:17:22Z</time>
      </trkpt>
      <trkpt lat="36.4268940" lon="-6.1440760">
        <ele>-4.4</ele>
        <time>2023-01-28T10:17:23Z</time>
      </trkpt>
      <trkpt lat="36.4269350" lon="-6.1440540">
        <ele>-4.4</ele>
        <time>2023-01-28T10:17:24Z</time>
      </trkpt>
      <trkpt lat="36.4269770" lon="-6.1440220">
        <ele>-4.2</ele>
        <time>2023-01-28T10:17:25Z</time>
      </trkpt>
      <trkpt lat="36.4270310" lon="-6.1439940">
        <ele>-4.2</ele>
        <time>2023-01-28T10:17:26Z</time>
      </trkpt>
      <trkpt lat="36.4270860" lon="-6.1439800">
        <ele>-4.2</ele>
        <time>2023-01-28T10:17:27Z</time>
      </trkpt>
      <trkpt lat="36.4271350" lon="-6.1439520">
        <ele>-4.4</ele>
        <time>2023-01-28T10:17:28Z</time>
      </trkpt>
      <trkpt lat="36.4271780" lon="-6.1439280">
        <ele>-4.4</ele>
        <time>2023-01-28T10:17:29Z</time>
      </trkpt>
      <trkpt lat="36.4272320" lon="-6.1439010">
        <ele>-4.4</ele>
        <time>2023-01-28T10:17:30Z</time>
      </trkpt>
      <trkpt lat="36.4272830" lon="-6.1438830">
        <ele>-4.4</ele>
        <time>2023-01-28T10:17:31Z</time>
      </trkpt>
      <trkpt lat="36.4273300" lon="-6.1438580">
        <ele>-4.4</ele>
        <time>2023-01-28T10:17:32Z</time>
      </trkpt>
      <trkpt lat="36.4273850" lon="-6.1438360">
        <ele>-4.2</ele>
        <time>2023-01-28T10:17:33Z</time>
      </trkpt>
      <trkpt lat="36.4274320" lon="-6.1438270">
        <ele>-4.4</ele>
        <time>2023-01-28T10:17:34Z</time>
      </trkpt>
      <trkpt lat="36.4274840" lon="-6.1438010">
        <ele>-4.6</ele>
        <time>2023-01-28T10:17:35Z</time>
      </trkpt>
      <trkpt lat="36.4275330" lon="-6.1437810">
        <ele>-4.8</ele>
        <time>2023-01-28T10:17:36Z</time>
      </trkpt>
      <trkpt lat="36.4275880" lon="-6.1437560">
        <ele>-4.8</ele>
        <time>2023-01-28T10:17:37Z</time>
      </trkpt>
      <trkpt lat="36.4276260" lon="-6.1437430">
        <ele>-4.8</ele>
        <time>2023-01-28T10:17:38Z</time>
      </trkpt>
      <trkpt lat="36.4276790" lon="-6.1437280">
        <ele>-4.8</ele>
        <time>2023-01-28T10:17:39Z</time>
      </trkpt>
      <trkpt lat="36.4277310" lon="-6.1437060">
        <ele>-4.8</ele>
        <time>2023-01-28T10:17:40Z</time>
      </trkpt>
      <trkpt lat="36.4277820" lon="-6.1436940">
        <ele>-4.8</ele>
        <time>2023-01-28T10:17:41Z</time>
      </trkpt>
      <trkpt lat="36.4278280" lon="-6.1436760">
        <ele>-5.0</ele>
        <time>2023-01-28T10:17:42Z</time>
      </trkpt>
      <trkpt lat="36.4278760" lon="-6.1436610">
        <ele>-5.0</ele>
        <time>2023-01-28T10:17:43Z</time>
      </trkpt>
      <trkpt lat="36.4279430" lon="-6.1436360">
        <ele>-5.2</ele>
        <time>2023-01-28T10:17:44Z</time>
      </trkpt>
      <trkpt lat="36.4279950" lon="-6.1436120">
        <ele>-5.0</ele>
        <time>2023-01-28T10:17:45Z</time>
      </trkpt>
      <trkpt lat="36.4280400" lon="-6.1435940">
        <ele>-5.0</ele>
        <time>2023-01-28T10:17:46Z</time>
      </trkpt>
      <trkpt lat="36.4280930" lon="-6.1435690">
        <ele>-5.0</ele>
        <time>2023-01-28T10:17:47Z</time>
      </trkpt>
      <trkpt lat="36.4281450" lon="-6.1435340">
        <ele>-5.0</ele>
        <time>2023-01-28T10:17:48Z</time>
      </trkpt>
      <trkpt lat="36.4281820" lon="-6.1435010">
        <ele>-5.0</ele>
        <time>2023-01-28T10:17:49Z</time>
      </trkpt>
      <trkpt lat="36.4282250" lon="-6.1434690">
        <ele>-5.0</ele>
        <time>2023-01-28T10:17:50Z</time>
      </trkpt>
      <trkpt lat="36.4282760" lon="-6.1434410">
        <ele>-5.2</ele>
        <time>2023-01-28T10:17:51Z</time>
      </trkpt>
      <trkpt lat="36.4283310" lon="-6.1434270">
        <ele>-5.2</ele>
        <time>2023-01-28T10:17:52Z</time>
      </trkpt>
      <trkpt lat="36.4284340" lon="-6.1433750">
        <ele>-5.4</ele>
        <time>2023-01-28T10:17:53Z</time>
      </trkpt>
      <trkpt lat="36.4284340" lon="-6.1433750">
        <ele>-5.2</ele>
        <time>2023-01-28T10:17:54Z</time>
      </trkpt>
      <trkpt lat="36.4285100" lon="-6.1433250">
        <ele>-5.2</ele>
        <time>2023-01-28T10:17:55Z</time>
      </trkpt>
      <trkpt lat="36.4285100" lon="-6.1433250">
        <ele>-5.2</ele>
        <time>2023-01-28T10:17:56Z</time>
      </trkpt>
      <trkpt lat="36.4285490" lon="-6.1432960">
        <ele>-5.2</ele>
        <time>2023-01-28T10:17:57Z</time>
      </trkpt>
      <trkpt lat="36.4285950" lon="-6.1432790">
        <ele>-5.2</ele>
        <time>2023-01-28T10:17:58Z</time>
      </trkpt>
      <trkpt lat="36.4286470" lon="-6.1432490">
        <ele>-5.2</ele>
        <time>2023-01-28T10:17:59Z</time>
      </trkpt>
      <trkpt lat="36.4287060" lon="-6.1432110">
        <ele>-5.2</ele>
        <time>2023-01-28T10:18:00Z</time>
      </trkpt>
      <trkpt lat="36.4287540" lon="-6.1431860">
        <ele>-5.2</ele>
        <time>2023-01-28T10:18:01Z</time>
      </trkpt>
      <trkpt lat="36.4287930" lon="-6.1431680">
        <ele>-5.0</ele>
        <time>2023-01-28T10:18:02Z</time>
      </trkpt>
      <trkpt lat="36.4288390" lon="-6.1431530">
        <ele>-5.2</ele>
        <time>2023-01-28T10:18:03Z</time>
      </trkpt>
      <trkpt lat="36.4288790" lon="-6.1431340">
        <ele>-5.0</ele>
        <time>2023-01-28T10:18:04Z</time>
      </trkpt>
      <trkpt lat="36.4289180" lon="-6.1431160">
        <ele>-5.0</ele>
        <time>2023-01-28T10:18:05Z</time>
      </trkpt>
      <trkpt lat="36.4289540" lon="-6.1430950">
        <ele>-5.0</ele>
        <time>2023-01-28T10:18:06Z</time>
      </trkpt>
      <trkpt lat="36.4289890" lon="-6.1430750">
        <ele>-4.8</ele>
        <time>2023-01-28T10:18:07Z</time>
      </trkpt>
      <trkpt lat="36.4290200" lon="-6.1430690">
        <ele>-4.8</ele>
        <time>2023-01-28T10:18:08Z</time>
      </trkpt>
      <trkpt lat="36.4290500" lon="-6.1430530">
        <ele>-4.6</ele>
        <time>2023-01-28T10:18:09Z</time>
      </trkpt>
      <trkpt lat="36.4290840" lon="-6.1430420">
        <ele>-4.6</ele>
        <time>2023-01-28T10:18:10Z</time>
      </trkpt>
      <trkpt lat="36.4291160" lon="-6.1430210">
        <ele>-4.8</ele>
        <time>2023-01-28T10:18:11Z</time>
      </trkpt>
      <trkpt lat="36.4291410" lon="-6.1430140">
        <ele>-4.8</ele>
        <time>2023-01-28T10:18:12Z</time>
      </trkpt>
      <trkpt lat="36.4291780" lon="-6.1429980">
        <ele>-5.0</ele>
        <time>2023-01-28T10:18:13Z</time>
      </trkpt>
      <trkpt lat="36.4292170" lon="-6.1429910">
        <ele>-5.2</ele>
        <time>2023-01-28T10:18:14Z</time>
      </trkpt>
      <trkpt lat="36.4292470" lon="-6.1429810">
        <ele>-5.2</ele>
        <time>2023-01-28T10:18:15Z</time>
      </trkpt>
      <trkpt lat="36.4292800" lon="-6.1429760">
        <ele>-5.4</ele>
        <time>2023-01-28T10:18:16Z</time>
      </trkpt>
      <trkpt lat="36.4293160" lon="-6.1429550">
        <ele>-5.2</ele>
        <time>2023-01-28T10:18:17Z</time>
      </trkpt>
      <trkpt lat="36.4293160" lon="-6.1429550">
        <ele>-5.2</ele>
        <time>2023-01-28T10:18:18Z</time>
      </trkpt>
      <trkpt lat="36.4293330" lon="-6.1429510">
        <ele>-5.2</ele>
        <time>2023-01-28T10:18:19Z</time>
      </trkpt>
      <trkpt lat="36.4293450" lon="-6.1429370">
        <ele>-5.4</ele>
        <time>2023-01-28T10:18:20Z</time>
      </trkpt>
      <trkpt lat="36.4293450" lon="-6.1429300">
        <ele>-5.4</ele>
        <time>2023-01-28T10:18:21Z</time>
      </trkpt>
      <trkpt lat="36.4293480" lon="-6.1429350">
        <ele>-5.2</ele>
        <time>2023-01-28T10:18:22Z</time>
      </trkpt>
      <trkpt lat="36.4293540" lon="-6.1429360">
        <ele>-5.2</ele>
        <time>2023-01-28T10:18:23Z</time>
      </trkpt>
      <trkpt lat="36.4293560" lon="-6.1429340">
        <ele>-5.0</ele>
        <time>2023-01-28T10:18:24Z</time>
      </trkpt>
      <trkpt lat="36.4293580" lon="-6.1429280">
        <ele>-5.0</ele>
        <time>2023-01-28T10:18:25Z</time>
      </trkpt>
      <trkpt lat="36.4293640" lon="-6.1429200">
        <ele>-5.0</ele>
        <time>2023-01-28T10:18:26Z</time>
      </trkpt>
      <trkpt lat="36.4293650" lon="-6.1429190">
        <ele>-5.2</ele>
        <time>2023-01-28T10:18:27Z</time>
      </trkpt>
      <trkpt lat="36.4293620" lon="-6.1429220">
        <ele>-5.2</ele>
        <time>2023-01-28T10:18:28Z</time>
      </trkpt>
      <trkpt lat="36.4293570" lon="-6.1429200">
        <ele>-5.4</ele>
        <time>2023-01-28T10:18:29Z</time>
      </trkpt>
      <trkpt lat="36.4293520" lon="-6.1429220">
        <ele>-5.2</ele>
        <time>2023-01-28T10:18:30Z</time>
      </trkpt>
      <trkpt lat="36.4293560" lon="-6.1429250">
        <ele>-5.2</ele>
        <time>2023-01-28T10:18:31Z</time>
      </trkpt>
      <trkpt lat="36.4293640" lon="-6.1429210">
        <ele>-5.4</ele>
        <time>2023-01-28T10:18:32Z</time>
      </trkpt>
      <trkpt lat="36.4293790" lon="-6.1429220">
        <ele>-5.2</ele>
        <time>2023-01-28T10:18:33Z</time>
      </trkpt>
      <trkpt lat="36.4294010" lon="-6.1429130">
        <ele>-5.2</ele>
        <time>2023-01-28T10:18:34Z</time>
      </trkpt>
      <trkpt lat="36.4294230" lon="-6.1429100">
        <ele>-5.4</ele>
        <time>2023-01-28T10:18:35Z</time>
      </trkpt>
      <trkpt lat="36.4294490" lon="-6.1428840">
        <ele>-5.2</ele>
        <time>2023-01-28T10:18:36Z</time>
      </trkpt>
      <trkpt lat="36.4294910" lon="-6.1428700">
        <ele>-5.2</ele>
        <time>2023-01-28T10:18:37Z</time>
      </trkpt>
      <trkpt lat="36.4295320" lon="-6.1428610">
        <ele>-5.2</ele>
        <time>2023-01-28T10:18:38Z</time>
      </trkpt>
      <trkpt lat="36.4295560" lon="-6.1428700">
        <ele>-5.4</ele>
        <time>2023-01-28T10:18:39Z</time>
      </trkpt>
      <trkpt lat="36.4296030" lon="-6.1428620">
        <ele>-5.4</ele>
        <time>2023-01-28T10:18:40Z</time>
      </trkpt>
      <trkpt lat="36.4296470" lon="-6.1428580">
        <ele>-5.4</ele>
        <time>2023-01-28T10:18:41Z</time>
      </trkpt>
      <trkpt lat="36.4297040" lon="-6.1428590">
        <ele>-5.6</ele>
        <time>2023-01-28T10:18:42Z</time>
      </trkpt>
      <trkpt lat="36.4297560" lon="-6.1428650">
        <ele>-5.6</ele>
        <time>2023-01-28T10:18:43Z</time>
      </trkpt>
      <trkpt lat="36.4298020" lon="-6.1428780">
        <ele>-5.8</ele>
        <time>2023-01-28T10:18:44Z</time>
      </trkpt>
      <trkpt lat="36.4298480" lon="-6.1428790">
        <ele>-5.8</ele>
        <time>2023-01-28T10:18:45Z</time>
      </trkpt>
      <trkpt lat="36.4299500" lon="-6.1428880">
        <ele>-5.8</ele>
        <time>2023-01-28T10:18:46Z</time>
      </trkpt>
      <trkpt lat="36.4299500" lon="-6.1428880">
        <ele>-5.8</ele>
        <time>2023-01-28T10:18:47Z</time>
      </trkpt>
      <trkpt lat="36.4300050" lon="-6.1428940">
        <ele>-6.0</ele>
        <time>2023-01-28T10:18:48Z</time>
      </trkpt>
      <trkpt lat="36.4301060" lon="-6.1428850">
        <ele>-5.6</ele>
        <time>2023-01-28T10:18:49Z</time>
      </trkpt>
      <trkpt lat="36.4301060" lon="-6.1428850">
        <ele>-5.4</ele>
        <time>2023-01-28T10:18:50Z</time>
      </trkpt>
      <trkpt lat="36.4302050" lon="-6.1429070">
        <ele>-5.6</ele>
        <time>2023-01-28T10:18:51Z</time>
      </trkpt>
      <trkpt lat="36.4302050" lon="-6.1429070">
        <ele>-6.2</ele>
        <time>2023-01-28T10:18:52Z</time>
      </trkpt>
      <trkpt lat="36.4302560" lon="-6.1429130">
        <ele>-6.2</ele>
        <time>2023-01-28T10:18:53Z</time>
      </trkpt>
      <trkpt lat="36.4303030" lon="-6.1429250">
        <ele>-6.0</ele>
        <time>2023-01-28T10:18:54Z</time>
      </trkpt>
      <trkpt lat="36.4303790" lon="-6.1429640">
        <ele>-6.0</ele>
        <time>2023-01-28T10:18:55Z</time>
      </trkpt>
      <trkpt lat="36.4303790" lon="-6.1429640">
        <ele>-6.2</ele>
        <time>2023-01-28T10:18:56Z</time>
      </trkpt>
      <trkpt lat="36.4304150" lon="-6.1429770">
        <ele>-5.8</ele>
        <time>2023-01-28T10:18:57Z</time>
      </trkpt>
      <trkpt lat="36.4304660" lon="-6.1429870">
        <ele>-6.0</ele>
        <time>2023-01-28T10:18:58Z</time>
      </trkpt>
      <trkpt lat="36.4305690" lon="-6.1430140">
        <ele>-6.2</ele>
        <time>2023-01-28T10:18:59Z</time>
      </trkpt>
      <trkpt lat="36.4305690" lon="-6.1430140">
        <ele>-6.2</ele>
        <time>2023-01-28T10:19:00Z</time>
      </trkpt>
      <trkpt lat="36.4306210" lon="-6.1430300">
        <ele>-6.2</ele>
        <time>2023-01-28T10:19:01Z</time>
      </trkpt>
      <trkpt lat="36.4306750" lon="-6.1430440">
        <ele>-6.2</ele>
        <time>2023-01-28T10:19:02Z</time>
      </trkpt>
      <trkpt lat="36.4307250" lon="-6.1430660">
        <ele>-6.2</ele>
        <time>2023-01-28T10:19:03Z</time>
      </trkpt>
      <trkpt lat="36.4307730" lon="-6.1430870">
        <ele>-6.2</ele>
        <time>2023-01-28T10:19:04Z</time>
      </trkpt>
      <trkpt lat="36.4308220" lon="-6.1431120">
        <ele>-6.2</ele>
        <time>2023-01-28T10:19:05Z</time>
      </trkpt>
      <trkpt lat="36.4308690" lon="-6.1431360">
        <ele>-6.2</ele>
        <time>2023-01-28T10:19:06Z</time>
      </trkpt>
      <trkpt lat="36.4309250" lon="-6.1431560">
        <ele>-6.4</ele>
        <time>2023-01-28T10:19:07Z</time>
      </trkpt>
      <trkpt lat="36.4310300" lon="-6.1431930">
        <ele>-6.4</ele>
        <time>2023-01-28T10:19:08Z</time>
      </trkpt>
      <trkpt lat="36.4310300" lon="-6.1431930">
        <ele>-6.4</ele>
        <time>2023-01-28T10:19:09Z</time>
      </trkpt>
      <trkpt lat="36.4311340" lon="-6.1432130">
        <ele>-6.4</ele>
        <time>2023-01-28T10:19:10Z</time>
      </trkpt>
      <trkpt lat="36.4311870" lon="-6.1432250">
        <ele>-6.2</ele>
        <time>2023-01-28T10:19:11Z</time>
      </trkpt>
      <trkpt lat="36.4311870" lon="-6.1432250">
        <ele>-6.0</ele>
        <time>2023-01-28T10:19:12Z</time>
      </trkpt>
      <trkpt lat="36.4312970" lon="-6.1432590">
        <ele>-5.8</ele>
        <time>2023-01-28T10:19:13Z</time>
      </trkpt>
      <trkpt lat="36.4313450" lon="-6.1432880">
        <ele>-5.8</ele>
        <time>2023-01-28T10:19:14Z</time>
      </trkpt>
      <trkpt lat="36.4313450" lon="-6.1432880">
        <ele>-5.6</ele>
        <time>2023-01-28T10:19:15Z</time>
      </trkpt>
      <trkpt lat="36.4313930" lon="-6.1433000">
        <ele>-5.6</ele>
        <time>2023-01-28T10:19:16Z</time>
      </trkpt>
      <trkpt lat="36.4314960" lon="-6.1433410">
        <ele>-5.6</ele>
        <time>2023-01-28T10:19:17Z</time>
      </trkpt>
      <trkpt lat="36.4315410" lon="-6.1433560">
        <ele>-5.4</ele>
        <time>2023-01-28T10:19:18Z</time>
      </trkpt>
      <trkpt lat="36.4315410" lon="-6.1433560">
        <ele>-5.4</ele>
        <time>2023-01-28T10:19:19Z</time>
      </trkpt>
      <trkpt lat="36.4316350" lon="-6.1433930">
        <ele>-5.4</ele>
        <time>2023-01-28T10:19:20Z</time>
      </trkpt>
      <trkpt lat="36.4316350" lon="-6.1433930">
        <ele>-5.4</ele>
        <time>2023-01-28T10:19:21Z</time>
      </trkpt>
      <trkpt lat="36.4317300" lon="-6.1434340">
        <ele>-5.2</ele>
        <time>2023-01-28T10:19:22Z</time>
      </trkpt>
      <trkpt lat="36.4317300" lon="-6.1434340">
        <ele>-5.0</ele>
        <time>2023-01-28T10:19:23Z</time>
      </trkpt>
      <trkpt lat="36.4318220" lon="-6.1434850">
        <ele>-5.4</ele>
        <time>2023-01-28T10:19:24Z</time>
      </trkpt>
      <trkpt lat="36.4318220" lon="-6.1434850">
        <ele>-5.6</ele>
        <time>2023-01-28T10:19:25Z</time>
      </trkpt>
      <trkpt lat="36.4318560" lon="-6.1435210">
        <ele>-5.4</ele>
        <time>2023-01-28T10:19:26Z</time>
      </trkpt>
      <trkpt lat="36.4319160" lon="-6.1436150">
        <ele>-5.2</ele>
        <time>2023-01-28T10:19:27Z</time>
      </trkpt>
      <trkpt lat="36.4319160" lon="-6.1436150">
        <ele>-5.2</ele>
        <time>2023-01-28T10:19:28Z</time>
      </trkpt>
      <trkpt lat="36.4319480" lon="-6.1437090">
        <ele>-5.2</ele>
        <time>2023-01-28T10:19:29Z</time>
      </trkpt>
      <trkpt lat="36.4319540" lon="-6.1437590">
        <ele>-5.4</ele>
        <time>2023-01-28T10:19:30Z</time>
      </trkpt>
      <trkpt lat="36.4319540" lon="-6.1437590">
        <ele>-5.6</ele>
        <time>2023-01-28T10:19:31Z</time>
      </trkpt>
      <trkpt lat="36.4319690" lon="-6.1438560">
        <ele>-5.6</ele>
        <time>2023-01-28T10:19:32Z</time>
      </trkpt>
      <trkpt lat="36.4319840" lon="-6.1439080">
        <ele>-5.6</ele>
        <time>2023-01-28T10:19:33Z</time>
      </trkpt>
      <trkpt lat="36.4320200" lon="-6.1439480">
        <ele>-5.8</ele>
        <time>2023-01-28T10:19:34Z</time>
      </trkpt>
      <trkpt lat="36.4320580" lon="-6.1439810">
        <ele>-6.0</ele>
        <time>2023-01-28T10:19:35Z</time>
      </trkpt>
      <trkpt lat="36.4321030" lon="-6.1439930">
        <ele>-6.2</ele>
        <time>2023-01-28T10:19:36Z</time>
      </trkpt>
      <trkpt lat="36.4321500" lon="-6.1440070">
        <ele>-6.2</ele>
        <time>2023-01-28T10:19:37Z</time>
      </trkpt>
      <trkpt lat="36.4321500" lon="-6.1440070">
        <ele>-6.2</ele>
        <time>2023-01-28T10:19:38Z</time>
      </trkpt>
      <trkpt lat="36.4322450" lon="-6.1440310">
        <ele>-6.4</ele>
        <time>2023-01-28T10:19:39Z</time>
      </trkpt>
      <trkpt lat="36.4322880" lon="-6.1440380">
        <ele>-6.4</ele>
        <time>2023-01-28T10:19:40Z</time>
      </trkpt>
      <trkpt lat="36.4323290" lon="-6.1440400">
        <ele>-6.6</ele>
        <time>2023-01-28T10:19:41Z</time>
      </trkpt>
      <trkpt lat="36.4323700" lon="-6.1440550">
        <ele>-6.6</ele>
        <time>2023-01-28T10:19:42Z</time>
      </trkpt>
      <trkpt lat="36.4324130" lon="-6.1440670">
        <ele>-6.6</ele>
        <time>2023-01-28T10:19:43Z</time>
      </trkpt>
      <trkpt lat="36.4324590" lon="-6.1440920">
        <ele>-6.6</ele>
        <time>2023-01-28T10:19:44Z</time>
      </trkpt>
      <trkpt lat="36.4324590" lon="-6.1440920">
        <ele>-6.8</ele>
        <time>2023-01-28T10:19:45Z</time>
      </trkpt>
      <trkpt lat="36.4325500" lon="-6.1441210">
        <ele>-6.8</ele>
        <time>2023-01-28T10:19:46Z</time>
      </trkpt>
      <trkpt lat="36.4325940" lon="-6.1441410">
        <ele>-7.0</ele>
        <time>2023-01-28T10:19:47Z</time>
      </trkpt>
      <trkpt lat="36.4326360" lon="-6.1441610">
        <ele>-6.8</ele>
        <time>2023-01-28T10:19:48Z</time>
      </trkpt>
      <trkpt lat="36.4326360" lon="-6.1441610">
        <ele>-6.8</ele>
        <time>2023-01-28T10:19:49Z</time>
      </trkpt>
      <trkpt lat="36.4326830" lon="-6.1441660">
        <ele>-6.8</ele>
        <time>2023-01-28T10:19:50Z</time>
      </trkpt>
      <trkpt lat="36.4327690" lon="-6.1441980">
        <ele>-6.8</ele>
        <time>2023-01-28T10:19:51Z</time>
      </trkpt>
      <trkpt lat="36.4328060" lon="-6.1442140">
        <ele>-7.0</ele>
        <time>2023-01-28T10:19:52Z</time>
      </trkpt>
      <trkpt lat="36.4328460" lon="-6.1442310">
        <ele>-6.8</ele>
        <time>2023-01-28T10:19:53Z</time>
      </trkpt>
      <trkpt lat="36.4328830" lon="-6.1442430">
        <ele>-6.8</ele>
        <time>2023-01-28T10:19:54Z</time>
      </trkpt>
      <trkpt lat="36.4329180" lon="-6.1442620">
        <ele>-7.0</ele>
        <time>2023-01-28T10:19:55Z</time>
      </trkpt>
      <trkpt lat="36.4329550" lon="-6.1442750">
        <ele>-7.0</ele>
        <time>2023-01-28T10:19:56Z</time>
      </trkpt>
      <trkpt lat="36.4329900" lon="-6.1442760">
        <ele>-7.0</ele>
        <time>2023-01-28T10:19:57Z</time>
      </trkpt>
      <trkpt lat="36.4329900" lon="-6.1442760">
        <ele>-7.0</ele>
        <time>2023-01-28T10:19:58Z</time>
      </trkpt>
      <trkpt lat="36.4330570" lon="-6.1442790">
        <ele>-7.0</ele>
        <time>2023-01-28T10:19:59Z</time>
      </trkpt>
      <trkpt lat="36.4330570" lon="-6.1442790">
        <ele>-7.0</ele>
        <time>2023-01-28T10:20:00Z</time>
      </trkpt>
      <trkpt lat="36.4331330" lon="-6.1442540">
        <ele>-6.8</ele>
        <time>2023-01-28T10:20:01Z</time>
      </trkpt>
      <trkpt lat="36.4331640" lon="-6.1442360">
        <ele>-6.8</ele>
        <time>2023-01-28T10:20:02Z</time>
      </trkpt>
      <trkpt lat="36.4331980" lon="-6.1442280">
        <ele>-6.8</ele>
        <time>2023-01-28T10:20:03Z</time>
      </trkpt>
      <trkpt lat="36.4331980" lon="-6.1442280">
        <ele>-6.6</ele>
        <time>2023-01-28T10:20:04Z</time>
      </trkpt>
      <trkpt lat="36.4332700" lon="-6.1442180">
        <ele>-6.6</ele>
        <time>2023-01-28T10:20:05Z</time>
      </trkpt>
      <trkpt lat="36.4333090" lon="-6.1442050">
        <ele>-6.6</ele>
        <time>2023-01-28T10:20:06Z</time>
      </trkpt>
      <trkpt lat="36.4333480" lon="-6.1442020">
        <ele>-6.6</ele>
        <time>2023-01-28T10:20:07Z</time>
      </trkpt>
      <trkpt lat="36.4333870" lon="-6.1441990">
        <ele>-6.6</ele>
        <time>2023-01-28T10:20:08Z</time>
      </trkpt>
      <trkpt lat="36.4334220" lon="-6.1442010">
        <ele>-6.6</ele>
        <time>2023-01-28T10:20:09Z</time>
      </trkpt>
      <trkpt lat="36.4334690" lon="-6.1441970">
        <ele>-6.6</ele>
        <time>2023-01-28T10:20:10Z</time>
      </trkpt>
      <trkpt lat="36.4335100" lon="-6.1442010">
        <ele>-6.6</ele>
        <time>2023-01-28T10:20:11Z</time>
      </trkpt>
      <trkpt lat="36.4335540" lon="-6.1441950">
        <ele>-6.6</ele>
        <time>2023-01-28T10:20:12Z</time>
      </trkpt>
      <trkpt lat="36.4335970" lon="-6.1441870">
        <ele>-6.6</ele>
        <time>2023-01-28T10:20:13Z</time>
      </trkpt>
      <trkpt lat="36.4335970" lon="-6.1441870">
        <ele>-6.6</ele>
        <time>2023-01-28T10:20:14Z</time>
      </trkpt>
      <trkpt lat="36.4336920" lon="-6.1441690">
        <ele>-6.6</ele>
        <time>2023-01-28T10:20:15Z</time>
      </trkpt>
      <trkpt lat="36.4337420" lon="-6.1441580">
        <ele>-6.6</ele>
        <time>2023-01-28T10:20:16Z</time>
      </trkpt>
      <trkpt lat="36.4337890" lon="-6.1441440">
        <ele>-6.8</ele>
        <time>2023-01-28T10:20:17Z</time>
      </trkpt>
      <trkpt lat="36.4338310" lon="-6.1441360">
        <ele>-6.8</ele>
        <time>2023-01-28T10:20:18Z</time>
      </trkpt>
      <trkpt lat="36.4338310" lon="-6.1441360">
        <ele>-6.6</ele>
        <time>2023-01-28T10:20:19Z</time>
      </trkpt>
      <trkpt lat="36.4339170" lon="-6.1441340">
        <ele>-6.6</ele>
        <time>2023-01-28T10:20:20Z</time>
      </trkpt>
      <trkpt lat="36.4339170" lon="-6.1441340">
        <ele>-6.4</ele>
        <time>2023-01-28T10:20:21Z</time>
      </trkpt>
      <trkpt lat="36.4340010" lon="-6.1441320">
        <ele>-6.4</ele>
        <time>2023-01-28T10:20:22Z</time>
      </trkpt>
      <trkpt lat="36.4340510" lon="-6.1441260">
        <ele>-6.6</ele>
        <time>2023-01-28T10:20:23Z</time>
      </trkpt>
      <trkpt lat="36.4340920" lon="-6.1441270">
        <ele>-6.6</ele>
        <time>2023-01-28T10:20:24Z</time>
      </trkpt>
      <trkpt lat="36.4341410" lon="-6.1441270">
        <ele>-6.6</ele>
        <time>2023-01-28T10:20:25Z</time>
      </trkpt>
      <trkpt lat="36.4341860" lon="-6.1441270">
        <ele>-6.6</ele>
        <time>2023-01-28T10:20:26Z</time>
      </trkpt>
      <trkpt lat="36.4342370" lon="-6.1441370">
        <ele>-6.8</ele>
        <time>2023-01-28T10:20:27Z</time>
      </trkpt>
      <trkpt lat="36.4342860" lon="-6.1441240">
        <ele>-6.8</ele>
        <time>2023-01-28T10:20:28Z</time>
      </trkpt>
      <trkpt lat="36.4343330" lon="-6.1441200">
        <ele>-6.4</ele>
        <time>2023-01-28T10:20:29Z</time>
      </trkpt>
      <trkpt lat="36.4343690" lon="-6.1441230">
        <ele>-6.6</ele>
        <time>2023-01-28T10:20:30Z</time>
      </trkpt>
      <trkpt lat="36.4344160" lon="-6.1441240">
        <ele>-6.6</ele>
        <time>2023-01-28T10:20:31Z</time>
      </trkpt>
      <trkpt lat="36.4344570" lon="-6.1441250">
        <ele>-6.6</ele>
        <time>2023-01-28T10:20:32Z</time>
      </trkpt>
      <trkpt lat="36.4345040" lon="-6.1441240">
        <ele>-6.6</ele>
        <time>2023-01-28T10:20:33Z</time>
      </trkpt>
      <trkpt lat="36.4345420" lon="-6.1441330">
        <ele>-6.6</ele>
        <time>2023-01-28T10:20:34Z</time>
      </trkpt>
      <trkpt lat="36.4345960" lon="-6.1441270">
        <ele>-6.6</ele>
        <time>2023-01-28T10:20:35Z</time>
      </trkpt>
      <trkpt lat="36.4346440" lon="-6.1441350">
        <ele>-6.8</ele>
        <time>2023-01-28T10:20:36Z</time>
      </trkpt>
      <trkpt lat="36.4346870" lon="-6.1441390">
        <ele>-6.6</ele>
        <time>2023-01-28T10:20:37Z</time>
      </trkpt>
      <trkpt lat="36.4347340" lon="-6.1441490">
        <ele>-6.6</ele>
        <time>2023-01-28T10:20:38Z</time>
      </trkpt>
      <trkpt lat="36.4347820" lon="-6.1441480">
        <ele>-6.6</ele>
        <time>2023-01-28T10:20:39Z</time>
      </trkpt>
      <trkpt lat="36.4348280" lon="-6.1441580">
        <ele>-6.4</ele>
        <time>2023-01-28T10:20:40Z</time>
      </trkpt>
      <trkpt lat="36.4348690" lon="-6.1441750">
        <ele>-6.6</ele>
        <time>2023-01-28T10:20:41Z</time>
      </trkpt>
      <trkpt lat="36.4349170" lon="-6.1441800">
        <ele>-6.6</ele>
        <time>2023-01-28T10:20:42Z</time>
      </trkpt>
      <trkpt lat="36.4349640" lon="-6.1441890">
        <ele>-6.6</ele>
        <time>2023-01-28T10:20:43Z</time>
      </trkpt>
      <trkpt lat="36.4350050" lon="-6.1442100">
        <ele>-6.6</ele>
        <time>2023-01-28T10:20:44Z</time>
      </trkpt>
      <trkpt lat="36.4350430" lon="-6.1442190">
        <ele>-6.6</ele>
        <time>2023-01-28T10:20:45Z</time>
      </trkpt>
      <trkpt lat="36.4350850" lon="-6.1442300">
        <ele>-6.6</ele>
        <time>2023-01-28T10:20:46Z</time>
      </trkpt>
      <trkpt lat="36.4351280" lon="-6.1442360">
        <ele>-6.6</ele>
        <time>2023-01-28T10:20:47Z</time>
      </trkpt>
      <trkpt lat="36.4351700" lon="-6.1442480">
        <ele>-6.6</ele>
        <time>2023-01-28T10:20:48Z</time>
      </trkpt>
      <trkpt lat="36.4352100" lon="-6.1442640">
        <ele>-6.8</ele>
        <time>2023-01-28T10:20:49Z</time>
      </trkpt>
      <trkpt lat="36.4352520" lon="-6.1442750">
        <ele>-6.8</ele>
        <time>2023-01-28T10:20:50Z</time>
      </trkpt>
      <trkpt lat="36.4352900" lon="-6.1442680">
        <ele>-6.8</ele>
        <time>2023-01-28T10:20:51Z</time>
      </trkpt>
      <trkpt lat="36.4352900" lon="-6.1442680">
        <ele>-6.8</ele>
        <time>2023-01-28T10:20:52Z</time>
      </trkpt>
      <trkpt lat="36.4353740" lon="-6.1442840">
        <ele>-6.6</ele>
        <time>2023-01-28T10:20:53Z</time>
      </trkpt>
      <trkpt lat="36.4354230" lon="-6.1442820">
        <ele>-6.6</ele>
        <time>2023-01-28T10:20:54Z</time>
      </trkpt>
      <trkpt lat="36.4354680" lon="-6.1442980">
        <ele>-6.6</ele>
        <time>2023-01-28T10:20:55Z</time>
      </trkpt>
      <trkpt lat="36.4355060" lon="-6.1443070">
        <ele>-6.8</ele>
        <time>2023-01-28T10:20:56Z</time>
      </trkpt>
      <trkpt lat="36.4355470" lon="-6.1443150">
        <ele>-6.8</ele>
        <time>2023-01-28T10:20:57Z</time>
      </trkpt>
      <trkpt lat="36.4355790" lon="-6.1443250">
        <ele>-6.8</ele>
        <time>2023-01-28T10:20:58Z</time>
      </trkpt>
      <trkpt lat="36.4356170" lon="-6.1443330">
        <ele>-6.6</ele>
        <time>2023-01-28T10:20:59Z</time>
      </trkpt>
      <trkpt lat="36.4356570" lon="-6.1443470">
        <ele>-6.6</ele>
        <time>2023-01-28T10:21:00Z</time>
      </trkpt>
      <trkpt lat="36.4356950" lon="-6.1443500">
        <ele>-6.8</ele>
        <time>2023-01-28T10:21:01Z</time>
      </trkpt>
      <trkpt lat="36.4357310" lon="-6.1443610">
        <ele>-6.8</ele>
        <time>2023-01-28T10:21:02Z</time>
      </trkpt>
      <trkpt lat="36.4357780" lon="-6.1443640">
        <ele>-6.8</ele>
        <time>2023-01-28T10:21:03Z</time>
      </trkpt>
      <trkpt lat="36.4358200" lon="-6.1443630">
        <ele>-6.8</ele>
        <time>2023-01-28T10:21:04Z</time>
      </trkpt>
      <trkpt lat="36.4358590" lon="-6.1443680">
        <ele>-6.6</ele>
        <time>2023-01-28T10:21:05Z</time>
      </trkpt>
      <trkpt lat="36.4358990" lon="-6.1443640">
        <ele>-6.6</ele>
        <time>2023-01-28T10:21:06Z</time>
      </trkpt>
      <trkpt lat="36.4359420" lon="-6.1443690">
        <ele>-6.8</ele>
        <time>2023-01-28T10:21:07Z</time>
      </trkpt>
      <trkpt lat="36.4359800" lon="-6.1443730">
        <ele>-6.6</ele>
        <time>2023-01-28T10:21:08Z</time>
      </trkpt>
      <trkpt lat="36.4360270" lon="-6.1443760">
        <ele>-6.8</ele>
        <time>2023-01-28T10:21:09Z</time>
      </trkpt>
      <trkpt lat="36.4360690" lon="-6.1443790">
        <ele>-6.6</ele>
        <time>2023-01-28T10:21:10Z</time>
      </trkpt>
      <trkpt lat="36.4361060" lon="-6.1443920">
        <ele>-6.8</ele>
        <time>2023-01-28T10:21:11Z</time>
      </trkpt>
      <trkpt lat="36.4361520" lon="-6.1443960">
        <ele>-6.8</ele>
        <time>2023-01-28T10:21:12Z</time>
      </trkpt>
      <trkpt lat="36.4361960" lon="-6.1444120">
        <ele>-6.8</ele>
        <time>2023-01-28T10:21:13Z</time>
      </trkpt>
      <trkpt lat="36.4362370" lon="-6.1444100">
        <ele>-6.8</ele>
        <time>2023-01-28T10:21:14Z</time>
      </trkpt>
      <trkpt lat="36.4362880" lon="-6.1444140">
        <ele>-6.8</ele>
        <time>2023-01-28T10:21:15Z</time>
      </trkpt>
      <trkpt lat="36.4363330" lon="-6.1444080">
        <ele>-6.8</ele>
        <time>2023-01-28T10:21:16Z</time>
      </trkpt>
      <trkpt lat="36.4363800" lon="-6.1444090">
        <ele>-6.8</ele>
        <time>2023-01-28T10:21:17Z</time>
      </trkpt>
      <trkpt lat="36.4364250" lon="-6.1444170">
        <ele>-6.8</ele>
        <time>2023-01-28T10:21:18Z</time>
      </trkpt>
      <trkpt lat="36.4364690" lon="-6.1444230">
        <ele>-6.8</ele>
        <time>2023-01-28T10:21:19Z</time>
      </trkpt>
      <trkpt lat="36.4365170" lon="-6.1444280">
        <ele>-6.8</ele>
        <time>2023-01-28T10:21:20Z</time>
      </trkpt>
      <trkpt lat="36.4365630" lon="-6.1444230">
        <ele>-6.8</ele>
        <time>2023-01-28T10:21:21Z</time>
      </trkpt>
      <trkpt lat="36.4366040" lon="-6.1444180">
        <ele>-6.8</ele>
        <time>2023-01-28T10:21:22Z</time>
      </trkpt>
      <trkpt lat="36.4366510" lon="-6.1444310">
        <ele>-6.8</ele>
        <time>2023-01-28T10:21:23Z</time>
      </trkpt>
      <trkpt lat="36.4366950" lon="-6.1444280">
        <ele>-7.0</ele>
        <time>2023-01-28T10:21:24Z</time>
      </trkpt>
      <trkpt lat="36.4367400" lon="-6.1444270">
        <ele>-7.0</ele>
        <time>2023-01-28T10:21:25Z</time>
      </trkpt>
      <trkpt lat="36.4367890" lon="-6.1444290">
        <ele>-6.8</ele>
        <time>2023-01-28T10:21:26Z</time>
      </trkpt>
      <trkpt lat="36.4368460" lon="-6.1444250">
        <ele>-6.8</ele>
        <time>2023-01-28T10:21:27Z</time>
      </trkpt>
      <trkpt lat="36.4368850" lon="-6.1444290">
        <ele>-6.8</ele>
        <time>2023-01-28T10:21:28Z</time>
      </trkpt>
      <trkpt lat="36.4369330" lon="-6.1444230">
        <ele>-6.8</ele>
        <time>2023-01-28T10:21:29Z</time>
      </trkpt>
      <trkpt lat="36.4369890" lon="-6.1444240">
        <ele>-6.8</ele>
        <time>2023-01-28T10:21:30Z</time>
      </trkpt>
      <trkpt lat="36.4370440" lon="-6.1444300">
        <ele>-6.8</ele>
        <time>2023-01-28T10:21:31Z</time>
      </trkpt>
      <trkpt lat="36.4370900" lon="-6.1444350">
        <ele>-7.0</ele>
        <time>2023-01-28T10:21:32Z</time>
      </trkpt>
      <trkpt lat="36.4371360" lon="-6.1444450">
        <ele>-7.0</ele>
        <time>2023-01-28T10:21:33Z</time>
      </trkpt>
      <trkpt lat="36.4371800" lon="-6.1444590">
        <ele>-7.0</ele>
        <time>2023-01-28T10:21:34Z</time>
      </trkpt>
      <trkpt lat="36.4372200" lon="-6.1444760">
        <ele>-7.0</ele>
        <time>2023-01-28T10:21:35Z</time>
      </trkpt>
      <trkpt lat="36.4372660" lon="-6.1444860">
        <ele>-7.0</ele>
        <time>2023-01-28T10:21:36Z</time>
      </trkpt>
      <trkpt lat="36.4373090" lon="-6.1444940">
        <ele>-7.0</ele>
        <time>2023-01-28T10:21:37Z</time>
      </trkpt>
      <trkpt lat="36.4373590" lon="-6.1445050">
        <ele>-7.0</ele>
        <time>2023-01-28T10:21:38Z</time>
      </trkpt>
      <trkpt lat="36.4374110" lon="-6.1445140">
        <ele>-7.0</ele>
        <time>2023-01-28T10:21:39Z</time>
      </trkpt>
      <trkpt lat="36.4374520" lon="-6.1445240">
        <ele>-7.0</ele>
        <time>2023-01-28T10:21:40Z</time>
      </trkpt>
      <trkpt lat="36.4375090" lon="-6.1445280">
        <ele>-7.2</ele>
        <time>2023-01-28T10:21:41Z</time>
      </trkpt>
      <trkpt lat="36.4375540" lon="-6.1445350">
        <ele>-7.2</ele>
        <time>2023-01-28T10:21:42Z</time>
      </trkpt>
      <trkpt lat="36.4376040" lon="-6.1445360">
        <ele>-7.2</ele>
        <time>2023-01-28T10:21:43Z</time>
      </trkpt>
      <trkpt lat="36.4376460" lon="-6.1445380">
        <ele>-7.0</ele>
        <time>2023-01-28T10:21:44Z</time>
      </trkpt>
      <trkpt lat="36.4377030" lon="-6.1445360">
        <ele>-7.0</ele>
        <time>2023-01-28T10:21:45Z</time>
      </trkpt>
      <trkpt lat="36.4377440" lon="-6.1445500">
        <ele>-7.0</ele>
        <time>2023-01-28T10:21:46Z</time>
      </trkpt>
      <trkpt lat="36.4377920" lon="-6.1445430">
        <ele>-6.8</ele>
        <time>2023-01-28T10:21:47Z</time>
      </trkpt>
      <trkpt lat="36.4378430" lon="-6.1445470">
        <ele>-7.0</ele>
        <time>2023-01-28T10:21:48Z</time>
      </trkpt>
      <trkpt lat="36.4378920" lon="-6.1445560">
        <ele>-7.2</ele>
        <time>2023-01-28T10:21:49Z</time>
      </trkpt>
      <trkpt lat="36.4379430" lon="-6.1445670">
        <ele>-7.2</ele>
        <time>2023-01-28T10:21:50Z</time>
      </trkpt>
      <trkpt lat="36.4379830" lon="-6.1445690">
        <ele>-7.2</ele>
        <time>2023-01-28T10:21:51Z</time>
      </trkpt>
      <trkpt lat="36.4380230" lon="-6.1445790">
        <ele>-7.2</ele>
        <time>2023-01-28T10:21:52Z</time>
      </trkpt>
      <trkpt lat="36.4380750" lon="-6.1445850">
        <ele>-7.0</ele>
        <time>2023-01-28T10:21:53Z</time>
      </trkpt>
      <trkpt lat="36.4381290" lon="-6.1445920">
        <ele>-7.0</ele>
        <time>2023-01-28T10:21:54Z</time>
      </trkpt>
      <trkpt lat="36.4381810" lon="-6.1445970">
        <ele>-7.0</ele>
        <time>2023-01-28T10:21:55Z</time>
      </trkpt>
      <trkpt lat="36.4382240" lon="-6.1446000">
        <ele>-7.0</ele>
        <time>2023-01-28T10:21:56Z</time>
      </trkpt>
      <trkpt lat="36.4382720" lon="-6.1446020">
        <ele>-7.2</ele>
        <time>2023-01-28T10:21:57Z</time>
      </trkpt>
      <trkpt lat="36.4383240" lon="-6.1446050">
        <ele>-7.2</ele>
        <time>2023-01-28T10:21:58Z</time>
      </trkpt>
      <trkpt lat="36.4383700" lon="-6.1446100">
        <ele>-7.2</ele>
        <time>2023-01-28T10:21:59Z</time>
      </trkpt>
      <trkpt lat="36.4384190" lon="-6.1446110">
        <ele>-7.4</ele>
        <time>2023-01-28T10:22:00Z</time>
      </trkpt>
      <trkpt lat="36.4384660" lon="-6.1446180">
        <ele>-7.2</ele>
        <time>2023-01-28T10:22:01Z</time>
      </trkpt>
      <trkpt lat="36.4384990" lon="-6.1446250">
        <ele>-7.0</ele>
        <time>2023-01-28T10:22:02Z</time>
      </trkpt>
      <trkpt lat="36.4385500" lon="-6.1446260">
        <ele>-6.8</ele>
        <time>2023-01-28T10:22:03Z</time>
      </trkpt>
      <trkpt lat="36.4386020" lon="-6.1446210">
        <ele>-7.0</ele>
        <time>2023-01-28T10:22:04Z</time>
      </trkpt>
      <trkpt lat="36.4386530" lon="-6.1446270">
        <ele>-7.4</ele>
        <time>2023-01-28T10:22:05Z</time>
      </trkpt>
      <trkpt lat="36.4386980" lon="-6.1446240">
        <ele>-7.4</ele>
        <time>2023-01-28T10:22:06Z</time>
      </trkpt>
      <trkpt lat="36.4387460" lon="-6.1446160">
        <ele>-7.4</ele>
        <time>2023-01-28T10:22:07Z</time>
      </trkpt>
      <trkpt lat="36.4387930" lon="-6.1446160">
        <ele>-7.4</ele>
        <time>2023-01-28T10:22:08Z</time>
      </trkpt>
      <trkpt lat="36.4388410" lon="-6.1446130">
        <ele>-7.2</ele>
        <time>2023-01-28T10:22:09Z</time>
      </trkpt>
      <trkpt lat="36.4388910" lon="-6.1446030">
        <ele>-7.2</ele>
        <time>2023-01-28T10:22:10Z</time>
      </trkpt>
      <trkpt lat="36.4389290" lon="-6.1445990">
        <ele>-7.2</ele>
        <time>2023-01-28T10:22:11Z</time>
      </trkpt>
      <trkpt lat="36.4389710" lon="-6.1445930">
        <ele>-7.2</ele>
        <time>2023-01-28T10:22:12Z</time>
      </trkpt>
      <trkpt lat="36.4390150" lon="-6.1445860">
        <ele>-7.0</ele>
        <time>2023-01-28T10:22:13Z</time>
      </trkpt>
      <trkpt lat="36.4390480" lon="-6.1445810">
        <ele>-7.0</ele>
        <time>2023-01-28T10:22:14Z</time>
      </trkpt>
      <trkpt lat="36.4390990" lon="-6.1445780">
        <ele>-7.0</ele>
        <time>2023-01-28T10:22:15Z</time>
      </trkpt>
      <trkpt lat="36.4391540" lon="-6.1445700">
        <ele>-7.0</ele>
        <time>2023-01-28T10:22:16Z</time>
      </trkpt>
      <trkpt lat="36.4391900" lon="-6.1445720">
        <ele>-7.2</ele>
        <time>2023-01-28T10:22:17Z</time>
      </trkpt>
      <trkpt lat="36.4392400" lon="-6.1445680">
        <ele>-7.2</ele>
        <time>2023-01-28T10:22:18Z</time>
      </trkpt>
      <trkpt lat="36.4392880" lon="-6.1445640">
        <ele>-7.2</ele>
        <time>2023-01-28T10:22:19Z</time>
      </trkpt>
      <trkpt lat="36.4393360" lon="-6.1445590">
        <ele>-7.4</ele>
        <time>2023-01-28T10:22:20Z</time>
      </trkpt>
      <trkpt lat="36.4393760" lon="-6.1445790">
        <ele>-7.8</ele>
        <time>2023-01-28T10:22:21Z</time>
      </trkpt>
      <trkpt lat="36.4394150" lon="-6.1446110">
        <ele>-7.8</ele>
        <time>2023-01-28T10:22:22Z</time>
      </trkpt>
      <trkpt lat="36.4394680" lon="-6.1446480">
        <ele>-7.8</ele>
        <time>2023-01-28T10:22:23Z</time>
      </trkpt>
      <trkpt lat="36.4395090" lon="-6.1446790">
        <ele>-8.0</ele>
        <time>2023-01-28T10:22:24Z</time>
      </trkpt>
      <trkpt lat="36.4395600" lon="-6.1447080">
        <ele>-8.2</ele>
        <time>2023-01-28T10:22:25Z</time>
      </trkpt>
      <trkpt lat="36.4396000" lon="-6.1447480">
        <ele>-8.2</ele>
        <time>2023-01-28T10:22:26Z</time>
      </trkpt>
      <trkpt lat="36.4396440" lon="-6.1447720">
        <ele>-8.2</ele>
        <time>2023-01-28T10:22:27Z</time>
      </trkpt>
      <trkpt lat="36.4396820" lon="-6.1447970">
        <ele>-7.8</ele>
        <time>2023-01-28T10:22:28Z</time>
      </trkpt>
      <trkpt lat="36.4397190" lon="-6.1448100">
        <ele>-7.8</ele>
        <time>2023-01-28T10:22:29Z</time>
      </trkpt>
      <trkpt lat="36.4397540" lon="-6.1448140">
        <ele>-8.0</ele>
        <time>2023-01-28T10:22:30Z</time>
      </trkpt>
      <trkpt lat="36.4397950" lon="-6.1448160">
        <ele>-8.2</ele>
        <time>2023-01-28T10:22:31Z</time>
      </trkpt>
      <trkpt lat="36.4398390" lon="-6.1448190">
        <ele>-8.4</ele>
        <time>2023-01-28T10:22:32Z</time>
      </trkpt>
      <trkpt lat="36.4398810" lon="-6.1448050">
        <ele>-8.4</ele>
        <time>2023-01-28T10:22:33Z</time>
      </trkpt>
      <trkpt lat="36.4399160" lon="-6.1448020">
        <ele>-8.2</ele>
        <time>2023-01-28T10:22:34Z</time>
      </trkpt>
      <trkpt lat="36.4399620" lon="-6.1447800">
        <ele>-8.0</ele>
        <time>2023-01-28T10:22:35Z</time>
      </trkpt>
      <trkpt lat="36.4400090" lon="-6.1447530">
        <ele>-8.0</ele>
        <time>2023-01-28T10:22:36Z</time>
      </trkpt>
      <trkpt lat="36.4400530" lon="-6.1447160">
        <ele>-8.2</ele>
        <time>2023-01-28T10:22:37Z</time>
      </trkpt>
      <trkpt lat="36.4400890" lon="-6.1446830">
        <ele>-8.0</ele>
        <time>2023-01-28T10:22:38Z</time>
      </trkpt>
      <trkpt lat="36.4401320" lon="-6.1446550">
        <ele>-7.8</ele>
        <time>2023-01-28T10:22:39Z</time>
      </trkpt>
      <trkpt lat="36.4401690" lon="-6.1446270">
        <ele>-7.8</ele>
        <time>2023-01-28T10:22:40Z</time>
      </trkpt>
      <trkpt lat="36.4402060" lon="-6.1446020">
        <ele>-7.4</ele>
        <time>2023-01-28T10:22:41Z</time>
      </trkpt>
      <trkpt lat="36.4402370" lon="-6.1445930">
        <ele>-7.2</ele>
        <time>2023-01-28T10:22:42Z</time>
      </trkpt>
      <trkpt lat="36.4402660" lon="-6.1445940">
        <ele>-7.0</ele>
        <time>2023-01-28T10:22:43Z</time>
      </trkpt>
      <trkpt lat="36.4403010" lon="-6.1445910">
        <ele>-7.0</ele>
        <time>2023-01-28T10:22:44Z</time>
      </trkpt>
      <trkpt lat="36.4403360" lon="-6.1445890">
        <ele>-7.0</ele>
        <time>2023-01-28T10:22:45Z</time>
      </trkpt>
      <trkpt lat="36.4403730" lon="-6.1445900">
        <ele>-7.0</ele>
        <time>2023-01-28T10:22:46Z</time>
      </trkpt>
      <trkpt lat="36.4404140" lon="-6.1445940">
        <ele>-7.2</ele>
        <time>2023-01-28T10:22:47Z</time>
      </trkpt>
      <trkpt lat="36.4404500" lon="-6.1446050">
        <ele>-7.2</ele>
        <time>2023-01-28T10:22:48Z</time>
      </trkpt>
      <trkpt lat="36.4404960" lon="-6.1446030">
        <ele>-7.0</ele>
        <time>2023-01-28T10:22:49Z</time>
      </trkpt>
      <trkpt lat="36.4405390" lon="-6.1446080">
        <ele>-7.0</ele>
        <time>2023-01-28T10:22:50Z</time>
      </trkpt>
      <trkpt lat="36.4405840" lon="-6.1446110">
        <ele>-6.8</ele>
        <time>2023-01-28T10:22:51Z</time>
      </trkpt>
      <trkpt lat="36.4406210" lon="-6.1446110">
        <ele>-6.8</ele>
        <time>2023-01-28T10:22:52Z</time>
      </trkpt>
      <trkpt lat="36.4406590" lon="-6.1446120">
        <ele>-6.6</ele>
        <time>2023-01-28T10:22:53Z</time>
      </trkpt>
      <trkpt lat="36.4407040" lon="-6.1446090">
        <ele>-6.8</ele>
        <time>2023-01-28T10:22:54Z</time>
      </trkpt>
      <trkpt lat="36.4407470" lon="-6.1446100">
        <ele>-6.8</ele>
        <time>2023-01-28T10:22:55Z</time>
      </trkpt>
      <trkpt lat="36.4407870" lon="-6.1446060">
        <ele>-6.8</ele>
        <time>2023-01-28T10:22:56Z</time>
      </trkpt>
      <trkpt lat="36.4408250" lon="-6.1446040">
        <ele>-6.8</ele>
        <time>2023-01-28T10:22:57Z</time>
      </trkpt>
      <trkpt lat="36.4408590" lon="-6.1446060">
        <ele>-7.0</ele>
        <time>2023-01-28T10:22:58Z</time>
      </trkpt>
      <trkpt lat="36.4408980" lon="-6.1446100">
        <ele>-7.0</ele>
        <time>2023-01-28T10:22:59Z</time>
      </trkpt>
      <trkpt lat="36.4409360" lon="-6.1446080">
        <ele>-7.0</ele>
        <time>2023-01-28T10:23:00Z</time>
      </trkpt>
      <trkpt lat="36.4409770" lon="-6.1446080">
        <ele>-7.0</ele>
        <time>2023-01-28T10:23:01Z</time>
      </trkpt>
      <trkpt lat="36.4410200" lon="-6.1446020">
        <ele>-7.2</ele>
        <time>2023-01-28T10:23:02Z</time>
      </trkpt>
      <trkpt lat="36.4410630" lon="-6.1445990">
        <ele>-7.6</ele>
        <time>2023-01-28T10:23:03Z</time>
      </trkpt>
      <trkpt lat="36.4411090" lon="-6.1446010">
        <ele>-7.8</ele>
        <time>2023-01-28T10:23:04Z</time>
      </trkpt>
      <trkpt lat="36.4411620" lon="-6.1446060">
        <ele>-8.0</ele>
        <time>2023-01-28T10:23:05Z</time>
      </trkpt>
      <trkpt lat="36.4412110" lon="-6.1446110">
        <ele>-8.2</ele>
        <time>2023-01-28T10:23:06Z</time>
      </trkpt>
      <trkpt lat="36.4412650" lon="-6.1446100">
        <ele>-8.4</ele>
        <time>2023-01-28T10:23:07Z</time>
      </trkpt>
      <trkpt lat="36.4413120" lon="-6.1446140">
        <ele>-8.6</ele>
        <time>2023-01-28T10:23:08Z</time>
      </trkpt>
      <trkpt lat="36.4413640" lon="-6.1446160">
        <ele>-8.6</ele>
        <time>2023-01-28T10:23:09Z</time>
      </trkpt>
      <trkpt lat="36.4414100" lon="-6.1446100">
        <ele>-8.4</ele>
        <time>2023-01-28T10:23:10Z</time>
      </trkpt>
      <trkpt lat="36.4414540" lon="-6.1446120">
        <ele>-8.4</ele>
        <time>2023-01-28T10:23:11Z</time>
      </trkpt>
      <trkpt lat="36.4415080" lon="-6.1446160">
        <ele>-8.4</ele>
        <time>2023-01-28T10:23:12Z</time>
      </trkpt>
      <trkpt lat="36.4415570" lon="-6.1446210">
        <ele>-8.4</ele>
        <time>2023-01-28T10:23:13Z</time>
      </trkpt>
      <trkpt lat="36.4415970" lon="-6.1446320">
        <ele>-8.6</ele>
        <time>2023-01-28T10:23:14Z</time>
      </trkpt>
      <trkpt lat="36.4416450" lon="-6.1446310">
        <ele>-8.6</ele>
        <time>2023-01-28T10:23:15Z</time>
      </trkpt>
      <trkpt lat="36.4416930" lon="-6.1446260">
        <ele>-8.4</ele>
        <time>2023-01-28T10:23:16Z</time>
      </trkpt>
      <trkpt lat="36.4417320" lon="-6.1446280">
        <ele>-8.6</ele>
        <time>2023-01-28T10:23:17Z</time>
      </trkpt>
      <trkpt lat="36.4417800" lon="-6.1446310">
        <ele>-8.6</ele>
        <time>2023-01-28T10:23:18Z</time>
      </trkpt>
      <trkpt lat="36.4418250" lon="-6.1446370">
        <ele>-8.4</ele>
        <time>2023-01-28T10:23:19Z</time>
      </trkpt>
      <trkpt lat="36.4418710" lon="-6.1446320">
        <ele>-8.4</ele>
        <time>2023-01-28T10:23:20Z</time>
      </trkpt>
      <trkpt lat="36.4419130" lon="-6.1446380">
        <ele>-8.4</ele>
        <time>2023-01-28T10:23:21Z</time>
      </trkpt>
      <trkpt lat="36.4419590" lon="-6.1446400">
        <ele>-8.4</ele>
        <time>2023-01-28T10:23:22Z</time>
      </trkpt>
      <trkpt lat="36.4420140" lon="-6.1446490">
        <ele>-8.2</ele>
        <time>2023-01-28T10:23:23Z</time>
      </trkpt>
      <trkpt lat="36.4420580" lon="-6.1446560">
        <ele>-8.2</ele>
        <time>2023-01-28T10:23:24Z</time>
      </trkpt>
      <trkpt lat="36.4421020" lon="-6.1446670">
        <ele>-8.4</ele>
        <time>2023-01-28T10:23:25Z</time>
      </trkpt>
      <trkpt lat="36.4421500" lon="-6.1446810">
        <ele>-8.4</ele>
        <time>2023-01-28T10:23:26Z</time>
      </trkpt>
      <trkpt lat="36.4421950" lon="-6.1446930">
        <ele>-8.4</ele>
        <time>2023-01-28T10:23:27Z</time>
      </trkpt>
      <trkpt lat="36.4422410" lon="-6.1447070">
        <ele>-8.4</ele>
        <time>2023-01-28T10:23:28Z</time>
      </trkpt>
      <trkpt lat="36.4422860" lon="-6.1447180">
        <ele>-8.2</ele>
        <time>2023-01-28T10:23:29Z</time>
      </trkpt>
      <trkpt lat="36.4423400" lon="-6.1447280">
        <ele>-8.2</ele>
        <time>2023-01-28T10:23:30Z</time>
      </trkpt>
      <trkpt lat="36.4423910" lon="-6.1447490">
        <ele>-8.4</ele>
        <time>2023-01-28T10:23:31Z</time>
      </trkpt>
      <trkpt lat="36.4424410" lon="-6.1447710">
        <ele>-8.4</ele>
        <time>2023-01-28T10:23:32Z</time>
      </trkpt>
      <trkpt lat="36.4424910" lon="-6.1447890">
        <ele>-8.4</ele>
        <time>2023-01-28T10:23:33Z</time>
      </trkpt>
      <trkpt lat="36.4425350" lon="-6.1448100">
        <ele>-8.4</ele>
        <time>2023-01-28T10:23:34Z</time>
      </trkpt>
      <trkpt lat="36.4425810" lon="-6.1448240">
        <ele>-8.4</ele>
        <time>2023-01-28T10:23:35Z</time>
      </trkpt>
      <trkpt lat="36.4426300" lon="-6.1448480">
        <ele>-8.4</ele>
        <time>2023-01-28T10:23:36Z</time>
      </trkpt>
      <trkpt lat="36.4426750" lon="-6.1448640">
        <ele>-8.4</ele>
        <time>2023-01-28T10:23:37Z</time>
      </trkpt>
      <trkpt lat="36.4427110" lon="-6.1448900">
        <ele>-8.4</ele>
        <time>2023-01-28T10:23:38Z</time>
      </trkpt>
      <trkpt lat="36.4427600" lon="-6.1449120">
        <ele>-8.4</ele>
        <time>2023-01-28T10:23:39Z</time>
      </trkpt>
      <trkpt lat="36.4428000" lon="-6.1449390">
        <ele>-8.4</ele>
        <time>2023-01-28T10:23:40Z</time>
      </trkpt>
      <trkpt lat="36.4428450" lon="-6.1449630">
        <ele>-8.4</ele>
        <time>2023-01-28T10:23:41Z</time>
      </trkpt>
      <trkpt lat="36.4428850" lon="-6.1449960">
        <ele>-8.2</ele>
        <time>2023-01-28T10:23:42Z</time>
      </trkpt>
      <trkpt lat="36.4429310" lon="-6.1450280">
        <ele>-8.2</ele>
        <time>2023-01-28T10:23:43Z</time>
      </trkpt>
      <trkpt lat="36.4429670" lon="-6.1450640">
        <ele>-8.2</ele>
        <time>2023-01-28T10:23:44Z</time>
      </trkpt>
      <trkpt lat="36.4430050" lon="-6.1451010">
        <ele>-8.4</ele>
        <time>2023-01-28T10:23:45Z</time>
      </trkpt>
      <trkpt lat="36.4430400" lon="-6.1451380">
        <ele>-8.2</ele>
        <time>2023-01-28T10:23:46Z</time>
      </trkpt>
      <trkpt lat="36.4430830" lon="-6.1451700">
        <ele>-8.2</ele>
        <time>2023-01-28T10:23:47Z</time>
      </trkpt>
      <trkpt lat="36.4431240" lon="-6.1452010">
        <ele>-8.2</ele>
        <time>2023-01-28T10:23:48Z</time>
      </trkpt>
      <trkpt lat="36.4431560" lon="-6.1452400">
        <ele>-8.2</ele>
        <time>2023-01-28T10:23:49Z</time>
      </trkpt>
      <trkpt lat="36.4431920" lon="-6.1452810">
        <ele>-8.0</ele>
        <time>2023-01-28T10:23:50Z</time>
      </trkpt>
      <trkpt lat="36.4432340" lon="-6.1453150">
        <ele>-8.2</ele>
        <time>2023-01-28T10:23:51Z</time>
      </trkpt>
      <trkpt lat="36.4432740" lon="-6.1453530">
        <ele>-8.0</ele>
        <time>2023-01-28T10:23:52Z</time>
      </trkpt>
      <trkpt lat="36.4433110" lon="-6.1453930">
        <ele>-8.2</ele>
        <time>2023-01-28T10:23:53Z</time>
      </trkpt>
      <trkpt lat="36.4433510" lon="-6.1454290">
        <ele>-8.2</ele>
        <time>2023-01-28T10:23:54Z</time>
      </trkpt>
      <trkpt lat="36.4433860" lon="-6.1454610">
        <ele>-8.2</ele>
        <time>2023-01-28T10:23:55Z</time>
      </trkpt>
      <trkpt lat="36.4434240" lon="-6.1454940">
        <ele>-8.2</ele>
        <time>2023-01-28T10:23:56Z</time>
      </trkpt>
      <trkpt lat="36.4434660" lon="-6.1455240">
        <ele>-8.2</ele>
        <time>2023-01-28T10:23:57Z</time>
      </trkpt>
      <trkpt lat="36.4435050" lon="-6.1455610">
        <ele>-8.2</ele>
        <time>2023-01-28T10:23:58Z</time>
      </trkpt>
      <trkpt lat="36.4435420" lon="-6.1455940">
        <ele>-8.2</ele>
        <time>2023-01-28T10:23:59Z</time>
      </trkpt>
      <trkpt lat="36.4435870" lon="-6.1456230">
        <ele>-8.2</ele>
        <time>2023-01-28T10:24:00Z</time>
      </trkpt>
      <trkpt lat="36.4436280" lon="-6.1456630">
        <ele>-8.2</ele>
        <time>2023-01-28T10:24:01Z</time>
      </trkpt>
      <trkpt lat="36.4436660" lon="-6.1456950">
        <ele>-8.2</ele>
        <time>2023-01-28T10:24:02Z</time>
      </trkpt>
      <trkpt lat="36.4437040" lon="-6.1457260">
        <ele>-8.2</ele>
        <time>2023-01-28T10:24:03Z</time>
      </trkpt>
      <trkpt lat="36.4437410" lon="-6.1457650">
        <ele>-8.0</ele>
        <time>2023-01-28T10:24:04Z</time>
      </trkpt>
      <trkpt lat="36.4437790" lon="-6.1457980">
        <ele>-8.2</ele>
        <time>2023-01-28T10:24:05Z</time>
      </trkpt>
      <trkpt lat="36.4438130" lon="-6.1458290">
        <ele>-8.2</ele>
        <time>2023-01-28T10:24:06Z</time>
      </trkpt>
      <trkpt lat="36.4438530" lon="-6.1458550">
        <ele>-8.2</ele>
        <time>2023-01-28T10:24:07Z</time>
      </trkpt>
      <trkpt lat="36.4438960" lon="-6.1458840">
        <ele>-8.2</ele>
        <time>2023-01-28T10:24:08Z</time>
      </trkpt>
      <trkpt lat="36.4439330" lon="-6.1459180">
        <ele>-8.2</ele>
        <time>2023-01-28T10:24:09Z</time>
      </trkpt>
      <trkpt lat="36.4439730" lon="-6.1459530">
        <ele>-8.2</ele>
        <time>2023-01-28T10:24:10Z</time>
      </trkpt>
      <trkpt lat="36.4440160" lon="-6.1459880">
        <ele>-8.2</ele>
        <time>2023-01-28T10:24:11Z</time>
      </trkpt>
      <trkpt lat="36.4440580" lon="-6.1460260">
        <ele>-8.2</ele>
        <time>2023-01-28T10:24:12Z</time>
      </trkpt>
      <trkpt lat="36.4440930" lon="-6.1460650">
        <ele>-8.2</ele>
        <time>2023-01-28T10:24:13Z</time>
      </trkpt>
      <trkpt lat="36.4441340" lon="-6.1461000">
        <ele>-8.2</ele>
        <time>2023-01-28T10:24:14Z</time>
      </trkpt>
      <trkpt lat="36.4441720" lon="-6.1461330">
        <ele>-8.0</ele>
        <time>2023-01-28T10:24:15Z</time>
      </trkpt>
      <trkpt lat="36.4442090" lon="-6.1461710">
        <ele>-8.2</ele>
        <time>2023-01-28T10:24:16Z</time>
      </trkpt>
      <trkpt lat="36.4442490" lon="-6.1462080">
        <ele>-8.2</ele>
        <time>2023-01-28T10:24:17Z</time>
      </trkpt>
      <trkpt lat="36.4442920" lon="-6.1462360">
        <ele>-8.2</ele>
        <time>2023-01-28T10:24:18Z</time>
      </trkpt>
      <trkpt lat="36.4443310" lon="-6.1462680">
        <ele>-8.2</ele>
        <time>2023-01-28T10:24:19Z</time>
      </trkpt>
      <trkpt lat="36.4443670" lon="-6.1463020">
        <ele>-8.4</ele>
        <time>2023-01-28T10:24:20Z</time>
      </trkpt>
      <trkpt lat="36.4444080" lon="-6.1463360">
        <ele>-8.2</ele>
        <time>2023-01-28T10:24:21Z</time>
      </trkpt>
      <trkpt lat="36.4444510" lon="-6.1463690">
        <ele>-8.2</ele>
        <time>2023-01-28T10:24:22Z</time>
      </trkpt>
      <trkpt lat="36.4444860" lon="-6.1464030">
        <ele>-8.2</ele>
        <time>2023-01-28T10:24:23Z</time>
      </trkpt>
      <trkpt lat="36.4445230" lon="-6.1464320">
        <ele>-8.4</ele>
        <time>2023-01-28T10:24:24Z</time>
      </trkpt>
      <trkpt lat="36.4445630" lon="-6.1464670">
        <ele>-8.4</ele>
        <time>2023-01-28T10:24:25Z</time>
      </trkpt>
      <trkpt lat="36.4445990" lon="-6.1465050">
        <ele>-8.4</ele>
        <time>2023-01-28T10:24:26Z</time>
      </trkpt>
      <trkpt lat="36.4446380" lon="-6.1465340">
        <ele>-8.4</ele>
        <time>2023-01-28T10:24:27Z</time>
      </trkpt>
      <trkpt lat="36.4446720" lon="-6.1465660">
        <ele>-8.4</ele>
        <time>2023-01-28T10:24:28Z</time>
      </trkpt>
      <trkpt lat="36.4447100" lon="-6.1466030">
        <ele>-8.4</ele>
        <time>2023-01-28T10:24:29Z</time>
      </trkpt>
      <trkpt lat="36.4447540" lon="-6.1466440">
        <ele>-8.4</ele>
        <time>2023-01-28T10:24:30Z</time>
      </trkpt>
      <trkpt lat="36.4447930" lon="-6.1466830">
        <ele>-8.4</ele>
        <time>2023-01-28T10:24:31Z</time>
      </trkpt>
      <trkpt lat="36.4448300" lon="-6.1467200">
        <ele>-8.2</ele>
        <time>2023-01-28T10:24:32Z</time>
      </trkpt>
      <trkpt lat="36.4448660" lon="-6.1467490">
        <ele>-8.2</ele>
        <time>2023-01-28T10:24:33Z</time>
      </trkpt>
      <trkpt lat="36.4449090" lon="-6.1467800">
        <ele>-8.2</ele>
        <time>2023-01-28T10:24:34Z</time>
      </trkpt>
      <trkpt lat="36.4449470" lon="-6.1468160">
        <ele>-8.2</ele>
        <time>2023-01-28T10:24:35Z</time>
      </trkpt>
      <trkpt lat="36.4449920" lon="-6.1468540">
        <ele>-8.2</ele>
        <time>2023-01-28T10:24:36Z</time>
      </trkpt>
      <trkpt lat="36.4450370" lon="-6.1468830">
        <ele>-8.2</ele>
        <time>2023-01-28T10:24:37Z</time>
      </trkpt>
      <trkpt lat="36.4450750" lon="-6.1469210">
        <ele>-8.2</ele>
        <time>2023-01-28T10:24:38Z</time>
      </trkpt>
      <trkpt lat="36.4451150" lon="-6.1469600">
        <ele>-8.2</ele>
        <time>2023-01-28T10:24:39Z</time>
      </trkpt>
      <trkpt lat="36.4451540" lon="-6.1470000">
        <ele>-8.2</ele>
        <time>2023-01-28T10:24:40Z</time>
      </trkpt>
      <trkpt lat="36.4451850" lon="-6.1470380">
        <ele>-8.2</ele>
        <time>2023-01-28T10:24:41Z</time>
      </trkpt>
      <trkpt lat="36.4452230" lon="-6.1470720">
        <ele>-8.2</ele>
        <time>2023-01-28T10:24:42Z</time>
      </trkpt>
      <trkpt lat="36.4452650" lon="-6.1471040">
        <ele>-8.2</ele>
        <time>2023-01-28T10:24:43Z</time>
      </trkpt>
      <trkpt lat="36.4452960" lon="-6.1471450">
        <ele>-8.4</ele>
        <time>2023-01-28T10:24:44Z</time>
      </trkpt>
      <trkpt lat="36.4453310" lon="-6.1471740">
        <ele>-8.4</ele>
        <time>2023-01-28T10:24:45Z</time>
      </trkpt>
      <trkpt lat="36.4453690" lon="-6.1472060">
        <ele>-8.4</ele>
        <time>2023-01-28T10:24:46Z</time>
      </trkpt>
      <trkpt lat="36.4454080" lon="-6.1472320">
        <ele>-8.4</ele>
        <time>2023-01-28T10:24:47Z</time>
      </trkpt>
      <trkpt lat="36.4454490" lon="-6.1472600">
        <ele>-8.4</ele>
        <time>2023-01-28T10:24:48Z</time>
      </trkpt>
      <trkpt lat="36.4454980" lon="-6.1472840">
        <ele>-8.4</ele>
        <time>2023-01-28T10:24:49Z</time>
      </trkpt>
      <trkpt lat="36.4455380" lon="-6.1473150">
        <ele>-8.4</ele>
        <time>2023-01-28T10:24:50Z</time>
      </trkpt>
      <trkpt lat="36.4455820" lon="-6.1473380">
        <ele>-8.2</ele>
        <time>2023-01-28T10:24:51Z</time>
      </trkpt>
      <trkpt lat="36.4456180" lon="-6.1473670">
        <ele>-8.2</ele>
        <time>2023-01-28T10:24:52Z</time>
      </trkpt>
      <trkpt lat="36.4456590" lon="-6.1474010">
        <ele>-8.2</ele>
        <time>2023-01-28T10:24:53Z</time>
      </trkpt>
      <trkpt lat="36.4457000" lon="-6.1474400">
        <ele>-8.2</ele>
        <time>2023-01-28T10:24:54Z</time>
      </trkpt>
      <trkpt lat="36.4457410" lon="-6.1474670">
        <ele>-8.2</ele>
        <time>2023-01-28T10:24:55Z</time>
      </trkpt>
      <trkpt lat="36.4457770" lon="-6.1475000">
        <ele>-8.2</ele>
        <time>2023-01-28T10:24:56Z</time>
      </trkpt>
      <trkpt lat="36.4458170" lon="-6.1475330">
        <ele>-8.2</ele>
        <time>2023-01-28T10:24:57Z</time>
      </trkpt>
      <trkpt lat="36.4458550" lon="-6.1475680">
        <ele>-8.0</ele>
        <time>2023-01-28T10:24:58Z</time>
      </trkpt>
      <trkpt lat="36.4458970" lon="-6.1476070">
        <ele>-8.0</ele>
        <time>2023-01-28T10:24:59Z</time>
      </trkpt>
      <trkpt lat="36.4459380" lon="-6.1476480">
        <ele>-8.0</ele>
        <time>2023-01-28T10:25:00Z</time>
      </trkpt>
      <trkpt lat="36.4459740" lon="-6.1476790">
        <ele>-8.2</ele>
        <time>2023-01-28T10:25:01Z</time>
      </trkpt>
      <trkpt lat="36.4460160" lon="-6.1477070">
        <ele>-8.2</ele>
        <time>2023-01-28T10:25:02Z</time>
      </trkpt>
      <trkpt lat="36.4460580" lon="-6.1477410">
        <ele>-8.4</ele>
        <time>2023-01-28T10:25:03Z</time>
      </trkpt>
      <trkpt lat="36.4461020" lon="-6.1477660">
        <ele>-8.2</ele>
        <time>2023-01-28T10:25:04Z</time>
      </trkpt>
      <trkpt lat="36.4461380" lon="-6.1478010">
        <ele>-8.2</ele>
        <time>2023-01-28T10:25:05Z</time>
      </trkpt>
      <trkpt lat="36.4461770" lon="-6.1478330">
        <ele>-8.2</ele>
        <time>2023-01-28T10:25:06Z</time>
      </trkpt>
      <trkpt lat="36.4462140" lon="-6.1478650">
        <ele>-8.2</ele>
        <time>2023-01-28T10:25:07Z</time>
      </trkpt>
      <trkpt lat="36.4462540" lon="-6.1478970">
        <ele>-8.2</ele>
        <time>2023-01-28T10:25:08Z</time>
      </trkpt>
      <trkpt lat="36.4462960" lon="-6.1479300">
        <ele>-8.0</ele>
        <time>2023-01-28T10:25:09Z</time>
      </trkpt>
      <trkpt lat="36.4463340" lon="-6.1479790">
        <ele>-8.2</ele>
        <time>2023-01-28T10:25:10Z</time>
      </trkpt>
      <trkpt lat="36.4463760" lon="-6.1480040">
        <ele>-8.2</ele>
        <time>2023-01-28T10:25:11Z</time>
      </trkpt>
      <trkpt lat="36.4464130" lon="-6.1480370">
        <ele>-8.2</ele>
        <time>2023-01-28T10:25:12Z</time>
      </trkpt>
      <trkpt lat="36.4464520" lon="-6.1480690">
        <ele>-8.2</ele>
        <time>2023-01-28T10:25:13Z</time>
      </trkpt>
      <trkpt lat="36.4464860" lon="-6.1480990">
        <ele>-8.2</ele>
        <time>2023-01-28T10:25:14Z</time>
      </trkpt>
      <trkpt lat="36.4465250" lon="-6.1481310">
        <ele>-8.0</ele>
        <time>2023-01-28T10:25:15Z</time>
      </trkpt>
      <trkpt lat="36.4465620" lon="-6.1481620">
        <ele>-8.2</ele>
        <time>2023-01-28T10:25:16Z</time>
      </trkpt>
      <trkpt lat="36.4466030" lon="-6.1481950">
        <ele>-8.2</ele>
        <time>2023-01-28T10:25:17Z</time>
      </trkpt>
      <trkpt lat="36.4466440" lon="-6.1482330">
        <ele>-8.2</ele>
        <time>2023-01-28T10:25:18Z</time>
      </trkpt>
      <trkpt lat="36.4466860" lon="-6.1482720">
        <ele>-8.2</ele>
        <time>2023-01-28T10:25:19Z</time>
      </trkpt>
      <trkpt lat="36.4467230" lon="-6.1483010">
        <ele>-8.2</ele>
        <time>2023-01-28T10:25:20Z</time>
      </trkpt>
      <trkpt lat="36.4467600" lon="-6.1483400">
        <ele>-8.2</ele>
        <time>2023-01-28T10:25:21Z</time>
      </trkpt>
      <trkpt lat="36.4467980" lon="-6.1483710">
        <ele>-8.0</ele>
        <time>2023-01-28T10:25:22Z</time>
      </trkpt>
      <trkpt lat="36.4468350" lon="-6.1483920">
        <ele>-8.2</ele>
        <time>2023-01-28T10:25:23Z</time>
      </trkpt>
      <trkpt lat="36.4468770" lon="-6.1484230">
        <ele>-8.2</ele>
        <time>2023-01-28T10:25:24Z</time>
      </trkpt>
      <trkpt lat="36.4469150" lon="-6.1484550">
        <ele>-8.2</ele>
        <time>2023-01-28T10:25:25Z</time>
      </trkpt>
      <trkpt lat="36.4469490" lon="-6.1484800">
        <ele>-8.2</ele>
        <time>2023-01-28T10:25:26Z</time>
      </trkpt>
      <trkpt lat="36.4469830" lon="-6.1485080">
        <ele>-8.2</ele>
        <time>2023-01-28T10:25:27Z</time>
      </trkpt>
      <trkpt lat="36.4470220" lon="-6.1485410">
        <ele>-8.0</ele>
        <time>2023-01-28T10:25:28Z</time>
      </trkpt>
      <trkpt lat="36.4470610" lon="-6.1485770">
        <ele>-8.2</ele>
        <time>2023-01-28T10:25:29Z</time>
      </trkpt>
      <trkpt lat="36.4470990" lon="-6.1486050">
        <ele>-8.0</ele>
        <time>2023-01-28T10:25:30Z</time>
      </trkpt>
      <trkpt lat="36.4471370" lon="-6.1486350">
        <ele>-8.2</ele>
        <time>2023-01-28T10:25:31Z</time>
      </trkpt>
      <trkpt lat="36.4471740" lon="-6.1486710">
        <ele>-8.2</ele>
        <time>2023-01-28T10:25:32Z</time>
      </trkpt>
      <trkpt lat="36.4472080" lon="-6.1487100">
        <ele>-8.0</ele>
        <time>2023-01-28T10:25:33Z</time>
      </trkpt>
      <trkpt lat="36.4472430" lon="-6.1487430">
        <ele>-8.0</ele>
        <time>2023-01-28T10:25:34Z</time>
      </trkpt>
      <trkpt lat="36.4472840" lon="-6.1487740">
        <ele>-8.0</ele>
        <time>2023-01-28T10:25:35Z</time>
      </trkpt>
      <trkpt lat="36.4473210" lon="-6.1488160">
        <ele>-8.0</ele>
        <time>2023-01-28T10:25:36Z</time>
      </trkpt>
      <trkpt lat="36.4473520" lon="-6.1488560">
        <ele>-7.8</ele>
        <time>2023-01-28T10:25:37Z</time>
      </trkpt>
      <trkpt lat="36.4473880" lon="-6.1488910">
        <ele>-8.0</ele>
        <time>2023-01-28T10:25:38Z</time>
      </trkpt>
      <trkpt lat="36.4474240" lon="-6.1489270">
        <ele>-8.0</ele>
        <time>2023-01-28T10:25:39Z</time>
      </trkpt>
      <trkpt lat="36.4474630" lon="-6.1489660">
        <ele>-8.0</ele>
        <time>2023-01-28T10:25:40Z</time>
      </trkpt>
      <trkpt lat="36.4474930" lon="-6.1490030">
        <ele>-8.0</ele>
        <time>2023-01-28T10:25:41Z</time>
      </trkpt>
      <trkpt lat="36.4475330" lon="-6.1490350">
        <ele>-8.0</ele>
        <time>2023-01-28T10:25:42Z</time>
      </trkpt>
      <trkpt lat="36.4475730" lon="-6.1490730">
        <ele>-8.0</ele>
        <time>2023-01-28T10:25:43Z</time>
      </trkpt>
      <trkpt lat="36.4476060" lon="-6.1491030">
        <ele>-8.0</ele>
        <time>2023-01-28T10:25:44Z</time>
      </trkpt>
      <trkpt lat="36.4476460" lon="-6.1491310">
        <ele>-8.2</ele>
        <time>2023-01-28T10:25:45Z</time>
      </trkpt>
      <trkpt lat="36.4476910" lon="-6.1491660">
        <ele>-8.0</ele>
        <time>2023-01-28T10:25:46Z</time>
      </trkpt>
      <trkpt lat="36.4477260" lon="-6.1492030">
        <ele>-8.0</ele>
        <time>2023-01-28T10:25:47Z</time>
      </trkpt>
      <trkpt lat="36.4477610" lon="-6.1492360">
        <ele>-8.0</ele>
        <time>2023-01-28T10:25:48Z</time>
      </trkpt>
      <trkpt lat="36.4477970" lon="-6.1492660">
        <ele>-8.2</ele>
        <time>2023-01-28T10:25:49Z</time>
      </trkpt>
      <trkpt lat="36.4478330" lon="-6.1493000">
        <ele>-8.0</ele>
        <time>2023-01-28T10:25:50Z</time>
      </trkpt>
      <trkpt lat="36.4478690" lon="-6.1493370">
        <ele>-7.8</ele>
        <time>2023-01-28T10:25:51Z</time>
      </trkpt>
      <trkpt lat="36.4479010" lon="-6.1493660">
        <ele>-7.6</ele>
        <time>2023-01-28T10:25:52Z</time>
      </trkpt>
      <trkpt lat="36.4479420" lon="-6.1493890">
        <ele>-7.6</ele>
        <time>2023-01-28T10:25:53Z</time>
      </trkpt>
      <trkpt lat="36.4479790" lon="-6.1494160">
        <ele>-8.0</ele>
        <time>2023-01-28T10:25:54Z</time>
      </trkpt>
      <trkpt lat="36.4480110" lon="-6.1494460">
        <ele>-8.0</ele>
        <time>2023-01-28T10:25:55Z</time>
      </trkpt>
      <trkpt lat="36.4480500" lon="-6.1494710">
        <ele>-8.0</ele>
        <time>2023-01-28T10:25:56Z</time>
      </trkpt>
      <trkpt lat="36.4480840" lon="-6.1495090">
        <ele>-8.0</ele>
        <time>2023-01-28T10:25:57Z</time>
      </trkpt>
      <trkpt lat="36.4481180" lon="-6.1495380">
        <ele>-8.0</ele>
        <time>2023-01-28T10:25:58Z</time>
      </trkpt>
      <trkpt lat="36.4481550" lon="-6.1495690">
        <ele>-8.0</ele>
        <time>2023-01-28T10:25:59Z</time>
      </trkpt>
      <trkpt lat="36.4481900" lon="-6.1495980">
        <ele>-8.0</ele>
        <time>2023-01-28T10:26:00Z</time>
      </trkpt>
      <trkpt lat="36.4482220" lon="-6.1496360">
        <ele>-8.0</ele>
        <time>2023-01-28T10:26:01Z</time>
      </trkpt>
      <trkpt lat="36.4482630" lon="-6.1496710">
        <ele>-7.8</ele>
        <time>2023-01-28T10:26:02Z</time>
      </trkpt>
      <trkpt lat="36.4482940" lon="-6.1497040">
        <ele>-7.8</ele>
        <time>2023-01-28T10:26:03Z</time>
      </trkpt>
      <trkpt lat="36.4483310" lon="-6.1497360">
        <ele>-7.6</ele>
        <time>2023-01-28T10:26:04Z</time>
      </trkpt>
      <trkpt lat="36.4483640" lon="-6.1497710">
        <ele>-7.8</ele>
        <time>2023-01-28T10:26:05Z</time>
      </trkpt>
      <trkpt lat="36.4484020" lon="-6.1498030">
        <ele>-7.4</ele>
        <time>2023-01-28T10:26:06Z</time>
      </trkpt>
      <trkpt lat="36.4484360" lon="-6.1498310">
        <ele>-7.4</ele>
        <time>2023-01-28T10:26:07Z</time>
      </trkpt>
      <trkpt lat="36.4484660" lon="-6.1498610">
        <ele>-7.6</ele>
        <time>2023-01-28T10:26:08Z</time>
      </trkpt>
      <trkpt lat="36.4485020" lon="-6.1498920">
        <ele>-7.8</ele>
        <time>2023-01-28T10:26:09Z</time>
      </trkpt>
      <trkpt lat="36.4485360" lon="-6.1499220">
        <ele>-7.8</ele>
        <time>2023-01-28T10:26:10Z</time>
      </trkpt>
      <trkpt lat="36.4485820" lon="-6.1499520">
        <ele>-7.8</ele>
        <time>2023-01-28T10:26:11Z</time>
      </trkpt>
      <trkpt lat="36.4486240" lon="-6.1499910">
        <ele>-8.0</ele>
        <time>2023-01-28T10:26:12Z</time>
      </trkpt>
      <trkpt lat="36.4486570" lon="-6.1500150">
        <ele>-7.8</ele>
        <time>2023-01-28T10:26:13Z</time>
      </trkpt>
      <trkpt lat="36.4486940" lon="-6.1500520">
        <ele>-8.0</ele>
        <time>2023-01-28T10:26:14Z</time>
      </trkpt>
      <trkpt lat="36.4487310" lon="-6.1500930">
        <ele>-8.0</ele>
        <time>2023-01-28T10:26:15Z</time>
      </trkpt>
      <trkpt lat="36.4487690" lon="-6.1501260">
        <ele>-8.0</ele>
        <time>2023-01-28T10:26:16Z</time>
      </trkpt>
      <trkpt lat="36.4488070" lon="-6.1501570">
        <ele>-7.8</ele>
        <time>2023-01-28T10:26:17Z</time>
      </trkpt>
      <trkpt lat="36.4488410" lon="-6.1501960">
        <ele>-7.8</ele>
        <time>2023-01-28T10:26:18Z</time>
      </trkpt>
      <trkpt lat="36.4488840" lon="-6.1502340">
        <ele>-7.8</ele>
        <time>2023-01-28T10:26:19Z</time>
      </trkpt>
      <trkpt lat="36.4489240" lon="-6.1502660">
        <ele>-7.8</ele>
        <time>2023-01-28T10:26:20Z</time>
      </trkpt>
      <trkpt lat="36.4489660" lon="-6.1503070">
        <ele>-7.6</ele>
        <time>2023-01-28T10:26:21Z</time>
      </trkpt>
      <trkpt lat="36.4490020" lon="-6.1503450">
        <ele>-7.8</ele>
        <time>2023-01-28T10:26:22Z</time>
      </trkpt>
      <trkpt lat="36.4490520" lon="-6.1503710">
        <ele>-7.8</ele>
        <time>2023-01-28T10:26:23Z</time>
      </trkpt>
      <trkpt lat="36.4490980" lon="-6.1504010">
        <ele>-7.6</ele>
        <time>2023-01-28T10:26:24Z</time>
      </trkpt>
      <trkpt lat="36.4491400" lon="-6.1504410">
        <ele>-7.8</ele>
        <time>2023-01-28T10:26:25Z</time>
      </trkpt>
      <trkpt lat="36.4491850" lon="-6.1504820">
        <ele>-7.8</ele>
        <time>2023-01-28T10:26:26Z</time>
      </trkpt>
      <trkpt lat="36.4492320" lon="-6.1505130">
        <ele>-8.0</ele>
        <time>2023-01-28T10:26:27Z</time>
      </trkpt>
      <trkpt lat="36.4492740" lon="-6.1505440">
        <ele>-7.8</ele>
        <time>2023-01-28T10:26:28Z</time>
      </trkpt>
      <trkpt lat="36.4493170" lon="-6.1505800">
        <ele>-7.8</ele>
        <time>2023-01-28T10:26:29Z</time>
      </trkpt>
      <trkpt lat="36.4493600" lon="-6.1506170">
        <ele>-7.8</ele>
        <time>2023-01-28T10:26:30Z</time>
      </trkpt>
      <trkpt lat="36.4493950" lon="-6.1506520">
        <ele>-8.0</ele>
        <time>2023-01-28T10:26:31Z</time>
      </trkpt>
      <trkpt lat="36.4494360" lon="-6.1506820">
        <ele>-8.0</ele>
        <time>2023-01-28T10:26:32Z</time>
      </trkpt>
      <trkpt lat="36.4494730" lon="-6.1507140">
        <ele>-7.8</ele>
        <time>2023-01-28T10:26:33Z</time>
      </trkpt>
      <trkpt lat="36.4495170" lon="-6.1507450">
        <ele>-7.8</ele>
        <time>2023-01-28T10:26:34Z</time>
      </trkpt>
      <trkpt lat="36.4495620" lon="-6.1507780">
        <ele>-8.0</ele>
        <time>2023-01-28T10:26:35Z</time>
      </trkpt>
      <trkpt lat="36.4496070" lon="-6.1508180">
        <ele>-8.0</ele>
        <time>2023-01-28T10:26:36Z</time>
      </trkpt>
      <trkpt lat="36.4496460" lon="-6.1508560">
        <ele>-8.0</ele>
        <time>2023-01-28T10:26:37Z</time>
      </trkpt>
      <trkpt lat="36.4496760" lon="-6.1508950">
        <ele>-8.0</ele>
        <time>2023-01-28T10:26:38Z</time>
      </trkpt>
      <trkpt lat="36.4497140" lon="-6.1509300">
        <ele>-8.0</ele>
        <time>2023-01-28T10:26:39Z</time>
      </trkpt>
      <trkpt lat="36.4497560" lon="-6.1509600">
        <ele>-8.0</ele>
        <time>2023-01-28T10:26:40Z</time>
      </trkpt>
      <trkpt lat="36.4497950" lon="-6.1509980">
        <ele>-7.6</ele>
        <time>2023-01-28T10:26:41Z</time>
      </trkpt>
      <trkpt lat="36.4498380" lon="-6.1510400">
        <ele>-7.4</ele>
        <time>2023-01-28T10:26:42Z</time>
      </trkpt>
      <trkpt lat="36.4498760" lon="-6.1510730">
        <ele>-7.8</ele>
        <time>2023-01-28T10:26:43Z</time>
      </trkpt>
      <trkpt lat="36.4499140" lon="-6.1511100">
        <ele>-8.0</ele>
        <time>2023-01-28T10:26:44Z</time>
      </trkpt>
      <trkpt lat="36.4499560" lon="-6.1511420">
        <ele>-8.0</ele>
        <time>2023-01-28T10:26:45Z</time>
      </trkpt>
      <trkpt lat="36.4499960" lon="-6.1511790">
        <ele>-8.0</ele>
        <time>2023-01-28T10:26:46Z</time>
      </trkpt>
      <trkpt lat="36.4500390" lon="-6.1512110">
        <ele>-8.0</ele>
        <time>2023-01-28T10:26:47Z</time>
      </trkpt>
      <trkpt lat="36.4500790" lon="-6.1512520">
        <ele>-8.0</ele>
        <time>2023-01-28T10:26:48Z</time>
      </trkpt>
      <trkpt lat="36.4501200" lon="-6.1512820">
        <ele>-7.8</ele>
        <time>2023-01-28T10:26:49Z</time>
      </trkpt>
      <trkpt lat="36.4501560" lon="-6.1513250">
        <ele>-7.8</ele>
        <time>2023-01-28T10:26:50Z</time>
      </trkpt>
      <trkpt lat="36.4501990" lon="-6.1513570">
        <ele>-7.8</ele>
        <time>2023-01-28T10:26:51Z</time>
      </trkpt>
      <trkpt lat="36.4502480" lon="-6.1513940">
        <ele>-7.8</ele>
        <time>2023-01-28T10:26:52Z</time>
      </trkpt>
      <trkpt lat="36.4502900" lon="-6.1514290">
        <ele>-7.8</ele>
        <time>2023-01-28T10:26:53Z</time>
      </trkpt>
      <trkpt lat="36.4503330" lon="-6.1514670">
        <ele>-7.8</ele>
        <time>2023-01-28T10:26:54Z</time>
      </trkpt>
      <trkpt lat="36.4503730" lon="-6.1515120">
        <ele>-7.6</ele>
        <time>2023-01-28T10:26:55Z</time>
      </trkpt>
      <trkpt lat="36.4504170" lon="-6.1515460">
        <ele>-7.6</ele>
        <time>2023-01-28T10:26:56Z</time>
      </trkpt>
      <trkpt lat="36.4504560" lon="-6.1515770">
        <ele>-7.6</ele>
        <time>2023-01-28T10:26:57Z</time>
      </trkpt>
      <trkpt lat="36.4504970" lon="-6.1516110">
        <ele>-7.4</ele>
        <time>2023-01-28T10:26:58Z</time>
      </trkpt>
      <trkpt lat="36.4505350" lon="-6.1516500">
        <ele>-7.6</ele>
        <time>2023-01-28T10:26:59Z</time>
      </trkpt>
      <trkpt lat="36.4505660" lon="-6.1516900">
        <ele>-7.8</ele>
        <time>2023-01-28T10:27:00Z</time>
      </trkpt>
      <trkpt lat="36.4506020" lon="-6.1517300">
        <ele>-7.6</ele>
        <time>2023-01-28T10:27:01Z</time>
      </trkpt>
      <trkpt lat="36.4506320" lon="-6.1517650">
        <ele>-7.2</ele>
        <time>2023-01-28T10:27:02Z</time>
      </trkpt>
      <trkpt lat="36.4506660" lon="-6.1518070">
        <ele>-7.6</ele>
        <time>2023-01-28T10:27:03Z</time>
      </trkpt>
      <trkpt lat="36.4507010" lon="-6.1518460">
        <ele>-7.8</ele>
        <time>2023-01-28T10:27:04Z</time>
      </trkpt>
      <trkpt lat="36.4507430" lon="-6.1518850">
        <ele>-7.8</ele>
        <time>2023-01-28T10:27:05Z</time>
      </trkpt>
      <trkpt lat="36.4507720" lon="-6.1519210">
        <ele>-7.6</ele>
        <time>2023-01-28T10:27:06Z</time>
      </trkpt>
      <trkpt lat="36.4508020" lon="-6.1519580">
        <ele>-7.6</ele>
        <time>2023-01-28T10:27:07Z</time>
      </trkpt>
      <trkpt lat="36.4508370" lon="-6.1519940">
        <ele>-7.6</ele>
        <time>2023-01-28T10:27:08Z</time>
      </trkpt>
      <trkpt lat="36.4508740" lon="-6.1520330">
        <ele>-7.6</ele>
        <time>2023-01-28T10:27:09Z</time>
      </trkpt>
      <trkpt lat="36.4509070" lon="-6.1520680">
        <ele>-7.8</ele>
        <time>2023-01-28T10:27:10Z</time>
      </trkpt>
      <trkpt lat="36.4509400" lon="-6.1520940">
        <ele>-8.0</ele>
        <time>2023-01-28T10:27:11Z</time>
      </trkpt>
      <trkpt lat="36.4509760" lon="-6.1521250">
        <ele>-8.0</ele>
        <time>2023-01-28T10:27:12Z</time>
      </trkpt>
      <trkpt lat="36.4510100" lon="-6.1521650">
        <ele>-8.0</ele>
        <time>2023-01-28T10:27:13Z</time>
      </trkpt>
      <trkpt lat="36.4510430" lon="-6.1522060">
        <ele>-7.8</ele>
        <time>2023-01-28T10:27:14Z</time>
      </trkpt>
      <trkpt lat="36.4510690" lon="-6.1522470">
        <ele>-7.6</ele>
        <time>2023-01-28T10:27:15Z</time>
      </trkpt>
      <trkpt lat="36.4510940" lon="-6.1522920">
        <ele>-7.6</ele>
        <time>2023-01-28T10:27:16Z</time>
      </trkpt>
      <trkpt lat="36.4511260" lon="-6.1523310">
        <ele>-7.6</ele>
        <time>2023-01-28T10:27:17Z</time>
      </trkpt>
      <trkpt lat="36.4511500" lon="-6.1523760">
        <ele>-7.8</ele>
        <time>2023-01-28T10:27:18Z</time>
      </trkpt>
      <trkpt lat="36.4511720" lon="-6.1524210">
        <ele>-7.6</ele>
        <time>2023-01-28T10:27:19Z</time>
      </trkpt>
      <trkpt lat="36.4512040" lon="-6.1524660">
        <ele>-7.4</ele>
        <time>2023-01-28T10:27:20Z</time>
      </trkpt>
      <trkpt lat="36.4512370" lon="-6.1525120">
        <ele>-7.2</ele>
        <time>2023-01-28T10:27:21Z</time>
      </trkpt>
      <trkpt lat="36.4512730" lon="-6.1525570">
        <ele>-7.0</ele>
        <time>2023-01-28T10:27:22Z</time>
      </trkpt>
      <trkpt lat="36.4513060" lon="-6.1526010">
        <ele>-7.2</ele>
        <time>2023-01-28T10:27:23Z</time>
      </trkpt>
      <trkpt lat="36.4513360" lon="-6.1526460">
        <ele>-7.4</ele>
        <time>2023-01-28T10:27:24Z</time>
      </trkpt>
      <trkpt lat="36.4513620" lon="-6.1526950">
        <ele>-7.6</ele>
        <time>2023-01-28T10:27:25Z</time>
      </trkpt>
      <trkpt lat="36.4513920" lon="-6.1527400">
        <ele>-7.6</ele>
        <time>2023-01-28T10:27:26Z</time>
      </trkpt>
      <trkpt lat="36.4514170" lon="-6.1527830">
        <ele>-7.8</ele>
        <time>2023-01-28T10:27:27Z</time>
      </trkpt>
      <trkpt lat="36.4514430" lon="-6.1528280">
        <ele>-7.8</ele>
        <time>2023-01-28T10:27:28Z</time>
      </trkpt>
      <trkpt lat="36.4514620" lon="-6.1528710">
        <ele>-7.6</ele>
        <time>2023-01-28T10:27:29Z</time>
      </trkpt>
      <trkpt lat="36.4514810" lon="-6.1529180">
        <ele>-7.6</ele>
        <time>2023-01-28T10:27:30Z</time>
      </trkpt>
      <trkpt lat="36.4515000" lon="-6.1529630">
        <ele>-7.6</ele>
        <time>2023-01-28T10:27:31Z</time>
      </trkpt>
      <trkpt lat="36.4515200" lon="-6.1530060">
        <ele>-7.4</ele>
        <time>2023-01-28T10:27:32Z</time>
      </trkpt>
      <trkpt lat="36.4515430" lon="-6.1530450">
        <ele>-7.6</ele>
        <time>2023-01-28T10:27:33Z</time>
      </trkpt>
      <trkpt lat="36.4515670" lon="-6.1530830">
        <ele>-7.6</ele>
        <time>2023-01-28T10:27:34Z</time>
      </trkpt>
      <trkpt lat="36.4515890" lon="-6.1531400">
        <ele>-7.6</ele>
        <time>2023-01-28T10:27:35Z</time>
      </trkpt>
      <trkpt lat="36.4516150" lon="-6.1531820">
        <ele>-7.4</ele>
        <time>2023-01-28T10:27:36Z</time>
      </trkpt>
      <trkpt lat="36.4516440" lon="-6.1532160">
        <ele>-7.6</ele>
        <time>2023-01-28T10:27:37Z</time>
      </trkpt>
      <trkpt lat="36.4516710" lon="-6.1532620">
        <ele>-7.8</ele>
        <time>2023-01-28T10:27:38Z</time>
      </trkpt>
      <trkpt lat="36.4516920" lon="-6.1533090">
        <ele>-7.8</ele>
        <time>2023-01-28T10:27:39Z</time>
      </trkpt>
      <trkpt lat="36.4517160" lon="-6.1533510">
        <ele>-7.8</ele>
        <time>2023-01-28T10:27:40Z</time>
      </trkpt>
      <trkpt lat="36.4517360" lon="-6.1533880">
        <ele>-7.4</ele>
        <time>2023-01-28T10:27:41Z</time>
      </trkpt>
      <trkpt lat="36.4517630" lon="-6.1534220">
        <ele>-7.4</ele>
        <time>2023-01-28T10:27:42Z</time>
      </trkpt>
      <trkpt lat="36.4517890" lon="-6.1534650">
        <ele>-7.6</ele>
        <time>2023-01-28T10:27:43Z</time>
      </trkpt>
      <trkpt lat="36.4518180" lon="-6.1535100">
        <ele>-7.8</ele>
        <time>2023-01-28T10:27:44Z</time>
      </trkpt>
      <trkpt lat="36.4518450" lon="-6.1535520">
        <ele>-7.8</ele>
        <time>2023-01-28T10:27:45Z</time>
      </trkpt>
      <trkpt lat="36.4518740" lon="-6.1535910">
        <ele>-7.8</ele>
        <time>2023-01-28T10:27:46Z</time>
      </trkpt>
      <trkpt lat="36.4518970" lon="-6.1536350">
        <ele>-7.8</ele>
        <time>2023-01-28T10:27:47Z</time>
      </trkpt>
      <trkpt lat="36.4519250" lon="-6.1536800">
        <ele>-7.8</ele>
        <time>2023-01-28T10:27:48Z</time>
      </trkpt>
      <trkpt lat="36.4519530" lon="-6.1537230">
        <ele>-7.8</ele>
        <time>2023-01-28T10:27:49Z</time>
      </trkpt>
      <trkpt lat="36.4519820" lon="-6.1537560">
        <ele>-7.6</ele>
        <time>2023-01-28T10:27:50Z</time>
      </trkpt>
      <trkpt lat="36.4520120" lon="-6.1537980">
        <ele>-7.6</ele>
        <time>2023-01-28T10:27:51Z</time>
      </trkpt>
      <trkpt lat="36.4520390" lon="-6.1538410">
        <ele>-7.6</ele>
        <time>2023-01-28T10:27:52Z</time>
      </trkpt>
      <trkpt lat="36.4520650" lon="-6.1538780">
        <ele>-7.8</ele>
        <time>2023-01-28T10:27:53Z</time>
      </trkpt>
      <trkpt lat="36.4520930" lon="-6.1539200">
        <ele>-7.6</ele>
        <time>2023-01-28T10:27:54Z</time>
      </trkpt>
      <trkpt lat="36.4521200" lon="-6.1539640">
        <ele>-7.6</ele>
        <time>2023-01-28T10:27:55Z</time>
      </trkpt>
      <trkpt lat="36.4521460" lon="-6.1540060">
        <ele>-7.8</ele>
        <time>2023-01-28T10:27:56Z</time>
      </trkpt>
      <trkpt lat="36.4521760" lon="-6.1540440">
        <ele>-7.8</ele>
        <time>2023-01-28T10:27:57Z</time>
      </trkpt>
      <trkpt lat="36.4522110" lon="-6.1540880">
        <ele>-7.6</ele>
        <time>2023-01-28T10:27:58Z</time>
      </trkpt>
      <trkpt lat="36.4522420" lon="-6.1541320">
        <ele>-7.8</ele>
        <time>2023-01-28T10:27:59Z</time>
      </trkpt>
      <trkpt lat="36.4522820" lon="-6.1541660">
        <ele>-7.8</ele>
        <time>2023-01-28T10:28:00Z</time>
      </trkpt>
      <trkpt lat="36.4523150" lon="-6.1541920">
        <ele>-7.8</ele>
        <time>2023-01-28T10:28:01Z</time>
      </trkpt>
      <trkpt lat="36.4523460" lon="-6.1542270">
        <ele>-7.6</ele>
        <time>2023-01-28T10:28:02Z</time>
      </trkpt>
      <trkpt lat="36.4523740" lon="-6.1542720">
        <ele>-7.6</ele>
        <time>2023-01-28T10:28:03Z</time>
      </trkpt>
      <trkpt lat="36.4524050" lon="-6.1543070">
        <ele>-7.8</ele>
        <time>2023-01-28T10:28:04Z</time>
      </trkpt>
      <trkpt lat="36.4524430" lon="-6.1543340">
        <ele>-7.8</ele>
        <time>2023-01-28T10:28:05Z</time>
      </trkpt>
      <trkpt lat="36.4524790" lon="-6.1543800">
        <ele>-7.8</ele>
        <time>2023-01-28T10:28:06Z</time>
      </trkpt>
      <trkpt lat="36.4525120" lon="-6.1544270">
        <ele>-7.8</ele>
        <time>2023-01-28T10:28:07Z</time>
      </trkpt>
      <trkpt lat="36.4525420" lon="-6.1544560">
        <ele>-7.8</ele>
        <time>2023-01-28T10:28:08Z</time>
      </trkpt>
      <trkpt lat="36.4525760" lon="-6.1544970">
        <ele>-7.8</ele>
        <time>2023-01-28T10:28:09Z</time>
      </trkpt>
      <trkpt lat="36.4526120" lon="-6.1545400">
        <ele>-8.0</ele>
        <time>2023-01-28T10:28:10Z</time>
      </trkpt>
      <trkpt lat="36.4526430" lon="-6.1545760">
        <ele>-8.0</ele>
        <time>2023-01-28T10:28:11Z</time>
      </trkpt>
      <trkpt lat="36.4526760" lon="-6.1546090">
        <ele>-8.0</ele>
        <time>2023-01-28T10:28:12Z</time>
      </trkpt>
      <trkpt lat="36.4527140" lon="-6.1546500">
        <ele>-8.2</ele>
        <time>2023-01-28T10:28:13Z</time>
      </trkpt>
      <trkpt lat="36.4527450" lon="-6.1546830">
        <ele>-8.0</ele>
        <time>2023-01-28T10:28:14Z</time>
      </trkpt>
      <trkpt lat="36.4527770" lon="-6.1547090">
        <ele>-7.8</ele>
        <time>2023-01-28T10:28:15Z</time>
      </trkpt>
      <trkpt lat="36.4528200" lon="-6.1547320">
        <ele>-8.0</ele>
        <time>2023-01-28T10:28:16Z</time>
      </trkpt>
      <trkpt lat="36.4528620" lon="-6.1547620">
        <ele>-7.8</ele>
        <time>2023-01-28T10:28:17Z</time>
      </trkpt>
      <trkpt lat="36.4528940" lon="-6.1548000">
        <ele>-7.8</ele>
        <time>2023-01-28T10:28:18Z</time>
      </trkpt>
      <trkpt lat="36.4529330" lon="-6.1548180">
        <ele>-7.8</ele>
        <time>2023-01-28T10:28:19Z</time>
      </trkpt>
      <trkpt lat="36.4529560" lon="-6.1548600">
        <ele>-7.8</ele>
        <time>2023-01-28T10:28:20Z</time>
      </trkpt>
      <trkpt lat="36.4529970" lon="-6.1548980">
        <ele>-7.8</ele>
        <time>2023-01-28T10:28:21Z</time>
      </trkpt>
      <trkpt lat="36.4530390" lon="-6.1549250">
        <ele>-7.8</ele>
        <time>2023-01-28T10:28:22Z</time>
      </trkpt>
      <trkpt lat="36.4530790" lon="-6.1549490">
        <ele>-7.6</ele>
        <time>2023-01-28T10:28:23Z</time>
      </trkpt>
      <trkpt lat="36.4531150" lon="-6.1549730">
        <ele>-7.6</ele>
        <time>2023-01-28T10:28:24Z</time>
      </trkpt>
      <trkpt lat="36.4531600" lon="-6.1549960">
        <ele>-7.8</ele>
        <time>2023-01-28T10:28:25Z</time>
      </trkpt>
      <trkpt lat="36.4532050" lon="-6.1550200">
        <ele>-7.8</ele>
        <time>2023-01-28T10:28:26Z</time>
      </trkpt>
      <trkpt lat="36.4532550" lon="-6.1550490">
        <ele>-7.8</ele>
        <time>2023-01-28T10:28:27Z</time>
      </trkpt>
      <trkpt lat="36.4532720" lon="-6.1550620">
        <ele>-7.8</ele>
        <time>2023-01-28T10:28:28Z</time>
      </trkpt>
      <trkpt lat="36.4533010" lon="-6.1550900">
        <ele>-7.6</ele>
        <time>2023-01-28T10:28:29Z</time>
      </trkpt>
      <trkpt lat="36.4533350" lon="-6.1551080">
        <ele>-7.6</ele>
        <time>2023-01-28T10:28:30Z</time>
      </trkpt>
      <trkpt lat="36.4533760" lon="-6.1551330">
        <ele>-7.8</ele>
        <time>2023-01-28T10:28:31Z</time>
      </trkpt>
      <trkpt lat="36.4534070" lon="-6.1551790">
        <ele>-7.8</ele>
        <time>2023-01-28T10:28:32Z</time>
      </trkpt>
      <trkpt lat="36.4534500" lon="-6.1551910">
        <ele>-8.0</ele>
        <time>2023-01-28T10:28:33Z</time>
      </trkpt>
      <trkpt lat="36.4535010" lon="-6.1552090">
        <ele>-8.0</ele>
        <time>2023-01-28T10:28:34Z</time>
      </trkpt>
      <trkpt lat="36.4535380" lon="-6.1552500">
        <ele>-7.8</ele>
        <time>2023-01-28T10:28:35Z</time>
      </trkpt>
      <trkpt lat="36.4535800" lon="-6.1552850">
        <ele>-7.8</ele>
        <time>2023-01-28T10:28:36Z</time>
      </trkpt>
      <trkpt lat="36.4536190" lon="-6.1553190">
        <ele>-7.8</ele>
        <time>2023-01-28T10:28:37Z</time>
      </trkpt>
      <trkpt lat="36.4536600" lon="-6.1553410">
        <ele>-7.6</ele>
        <time>2023-01-28T10:28:38Z</time>
      </trkpt>
      <trkpt lat="36.4537070" lon="-6.1553710">
        <ele>-7.8</ele>
        <time>2023-01-28T10:28:39Z</time>
      </trkpt>
      <trkpt lat="36.4537540" lon="-6.1553990">
        <ele>-7.8</ele>
        <time>2023-01-28T10:28:40Z</time>
      </trkpt>
      <trkpt lat="36.4537950" lon="-6.1554230">
        <ele>-7.8</ele>
        <time>2023-01-28T10:28:41Z</time>
      </trkpt>
      <trkpt lat="36.4538360" lon="-6.1554420">
        <ele>-7.8</ele>
        <time>2023-01-28T10:28:42Z</time>
      </trkpt>
      <trkpt lat="36.4538770" lon="-6.1554640">
        <ele>-7.8</ele>
        <time>2023-01-28T10:28:43Z</time>
      </trkpt>
      <trkpt lat="36.4539240" lon="-6.1554800">
        <ele>-7.8</ele>
        <time>2023-01-28T10:28:44Z</time>
      </trkpt>
      <trkpt lat="36.4539660" lon="-6.1555020">
        <ele>-7.8</ele>
        <time>2023-01-28T10:28:45Z</time>
      </trkpt>
      <trkpt lat="36.4540090" lon="-6.1555160">
        <ele>-7.6</ele>
        <time>2023-01-28T10:28:46Z</time>
      </trkpt>
      <trkpt lat="36.4540470" lon="-6.1555290">
        <ele>-7.4</ele>
        <time>2023-01-28T10:28:47Z</time>
      </trkpt>
      <trkpt lat="36.4540790" lon="-6.1555450">
        <ele>-7.6</ele>
        <time>2023-01-28T10:28:48Z</time>
      </trkpt>
      <trkpt lat="36.4541190" lon="-6.1555680">
        <ele>-7.6</ele>
        <time>2023-01-28T10:28:49Z</time>
      </trkpt>
      <trkpt lat="36.4541550" lon="-6.1555900">
        <ele>-7.8</ele>
        <time>2023-01-28T10:28:50Z</time>
      </trkpt>
      <trkpt lat="36.4541920" lon="-6.1555950">
        <ele>-8.0</ele>
        <time>2023-01-28T10:28:51Z</time>
      </trkpt>
      <trkpt lat="36.4542250" lon="-6.1556200">
        <ele>-8.0</ele>
        <time>2023-01-28T10:28:52Z</time>
      </trkpt>
      <trkpt lat="36.4542600" lon="-6.1556310">
        <ele>-8.0</ele>
        <time>2023-01-28T10:28:53Z</time>
      </trkpt>
      <trkpt lat="36.4543110" lon="-6.1556520">
        <ele>-7.8</ele>
        <time>2023-01-28T10:28:54Z</time>
      </trkpt>
      <trkpt lat="36.4543340" lon="-6.1556710">
        <ele>-7.8</ele>
        <time>2023-01-28T10:28:55Z</time>
      </trkpt>
      <trkpt lat="36.4543650" lon="-6.1556910">
        <ele>-8.0</ele>
        <time>2023-01-28T10:28:56Z</time>
      </trkpt>
      <trkpt lat="36.4544040" lon="-6.1557240">
        <ele>-7.8</ele>
        <time>2023-01-28T10:28:57Z</time>
      </trkpt>
      <trkpt lat="36.4544380" lon="-6.1557460">
        <ele>-7.8</ele>
        <time>2023-01-28T10:28:58Z</time>
      </trkpt>
      <trkpt lat="36.4544770" lon="-6.1557550">
        <ele>-7.8</ele>
        <time>2023-01-28T10:28:59Z</time>
      </trkpt>
      <trkpt lat="36.4545130" lon="-6.1557680">
        <ele>-7.8</ele>
        <time>2023-01-28T10:29:00Z</time>
      </trkpt>
      <trkpt lat="36.4545530" lon="-6.1557840">
        <ele>-7.8</ele>
        <time>2023-01-28T10:29:01Z</time>
      </trkpt>
      <trkpt lat="36.4545870" lon="-6.1558020">
        <ele>-8.0</ele>
        <time>2023-01-28T10:29:02Z</time>
      </trkpt>
      <trkpt lat="36.4546260" lon="-6.1558300">
        <ele>-8.0</ele>
        <time>2023-01-28T10:29:03Z</time>
      </trkpt>
      <trkpt lat="36.4546650" lon="-6.1558450">
        <ele>-8.0</ele>
        <time>2023-01-28T10:29:04Z</time>
      </trkpt>
      <trkpt lat="36.4546990" lon="-6.1558510">
        <ele>-8.0</ele>
        <time>2023-01-28T10:29:05Z</time>
      </trkpt>
      <trkpt lat="36.4547360" lon="-6.1558700">
        <ele>-8.2</ele>
        <time>2023-01-28T10:29:06Z</time>
      </trkpt>
      <trkpt lat="36.4547800" lon="-6.1558780">
        <ele>-8.0</ele>
        <time>2023-01-28T10:29:07Z</time>
      </trkpt>
      <trkpt lat="36.4548240" lon="-6.1558900">
        <ele>-8.0</ele>
        <time>2023-01-28T10:29:08Z</time>
      </trkpt>
      <trkpt lat="36.4548630" lon="-6.1558830">
        <ele>-7.8</ele>
        <time>2023-01-28T10:29:09Z</time>
      </trkpt>
      <trkpt lat="36.4549120" lon="-6.1558830">
        <ele>-8.0</ele>
        <time>2023-01-28T10:29:10Z</time>
      </trkpt>
      <trkpt lat="36.4549550" lon="-6.1558880">
        <ele>-8.0</ele>
        <time>2023-01-28T10:29:11Z</time>
      </trkpt>
      <trkpt lat="36.4549970" lon="-6.1558990">
        <ele>-8.0</ele>
        <time>2023-01-28T10:29:12Z</time>
      </trkpt>
      <trkpt lat="36.4550450" lon="-6.1559090">
        <ele>-8.0</ele>
        <time>2023-01-28T10:29:13Z</time>
      </trkpt>
      <trkpt lat="36.4550880" lon="-6.1559310">
        <ele>-8.0</ele>
        <time>2023-01-28T10:29:14Z</time>
      </trkpt>
      <trkpt lat="36.4551220" lon="-6.1559360">
        <ele>-8.0</ele>
        <time>2023-01-28T10:29:15Z</time>
      </trkpt>
      <trkpt lat="36.4551590" lon="-6.1559540">
        <ele>-8.0</ele>
        <time>2023-01-28T10:29:16Z</time>
      </trkpt>
      <trkpt lat="36.4551960" lon="-6.1559570">
        <ele>-8.0</ele>
        <time>2023-01-28T10:29:17Z</time>
      </trkpt>
      <trkpt lat="36.4552330" lon="-6.1559700">
        <ele>-8.0</ele>
        <time>2023-01-28T10:29:18Z</time>
      </trkpt>
      <trkpt lat="36.4552700" lon="-6.1559950">
        <ele>-8.0</ele>
        <time>2023-01-28T10:29:19Z</time>
      </trkpt>
      <trkpt lat="36.4553060" lon="-6.1560020">
        <ele>-8.0</ele>
        <time>2023-01-28T10:29:20Z</time>
      </trkpt>
      <trkpt lat="36.4553360" lon="-6.1560110">
        <ele>-8.0</ele>
        <time>2023-01-28T10:29:21Z</time>
      </trkpt>
      <trkpt lat="36.4553800" lon="-6.1560240">
        <ele>-8.0</ele>
        <time>2023-01-28T10:29:22Z</time>
      </trkpt>
      <trkpt lat="36.4554140" lon="-6.1560420">
        <ele>-7.8</ele>
        <time>2023-01-28T10:29:23Z</time>
      </trkpt>
      <trkpt lat="36.4554490" lon="-6.1560650">
        <ele>-8.0</ele>
        <time>2023-01-28T10:29:24Z</time>
      </trkpt>
      <trkpt lat="36.4554870" lon="-6.1560880">
        <ele>-7.8</ele>
        <time>2023-01-28T10:29:25Z</time>
      </trkpt>
      <trkpt lat="36.4555260" lon="-6.1561070">
        <ele>-7.8</ele>
        <time>2023-01-28T10:29:26Z</time>
      </trkpt>
      <trkpt lat="36.4555590" lon="-6.1561260">
        <ele>-7.8</ele>
        <time>2023-01-28T10:29:27Z</time>
      </trkpt>
      <trkpt lat="36.4555930" lon="-6.1561400">
        <ele>-7.8</ele>
        <time>2023-01-28T10:29:28Z</time>
      </trkpt>
      <trkpt lat="36.4556290" lon="-6.1561710">
        <ele>-7.8</ele>
        <time>2023-01-28T10:29:29Z</time>
      </trkpt>
      <trkpt lat="36.4556620" lon="-6.1561850">
        <ele>-8.0</ele>
        <time>2023-01-28T10:29:30Z</time>
      </trkpt>
      <trkpt lat="36.4556950" lon="-6.1562130">
        <ele>-8.2</ele>
        <time>2023-01-28T10:29:31Z</time>
      </trkpt>
      <trkpt lat="36.4557290" lon="-6.1562280">
        <ele>-8.2</ele>
        <time>2023-01-28T10:29:32Z</time>
      </trkpt>
      <trkpt lat="36.4557570" lon="-6.1562580">
        <ele>-8.2</ele>
        <time>2023-01-28T10:29:33Z</time>
      </trkpt>
      <trkpt lat="36.4557950" lon="-6.1562770">
        <ele>-8.2</ele>
        <time>2023-01-28T10:29:34Z</time>
      </trkpt>
      <trkpt lat="36.4558320" lon="-6.1563000">
        <ele>-8.2</ele>
        <time>2023-01-28T10:29:35Z</time>
      </trkpt>
      <trkpt lat="36.4558690" lon="-6.1563320">
        <ele>-8.4</ele>
        <time>2023-01-28T10:29:36Z</time>
      </trkpt>
      <trkpt lat="36.4559060" lon="-6.1563470">
        <ele>-8.2</ele>
        <time>2023-01-28T10:29:37Z</time>
      </trkpt>
      <trkpt lat="36.4559410" lon="-6.1563710">
        <ele>-8.2</ele>
        <time>2023-01-28T10:29:38Z</time>
      </trkpt>
      <trkpt lat="36.4559800" lon="-6.1564040">
        <ele>-8.2</ele>
        <time>2023-01-28T10:29:39Z</time>
      </trkpt>
      <trkpt lat="36.4560190" lon="-6.1564280">
        <ele>-8.0</ele>
        <time>2023-01-28T10:29:40Z</time>
      </trkpt>
      <trkpt lat="36.4560600" lon="-6.1564570">
        <ele>-7.8</ele>
        <time>2023-01-28T10:29:41Z</time>
      </trkpt>
      <trkpt lat="36.4561020" lon="-6.1564940">
        <ele>-8.0</ele>
        <time>2023-01-28T10:29:42Z</time>
      </trkpt>
      <trkpt lat="36.4561450" lon="-6.1565230">
        <ele>-8.0</ele>
        <time>2023-01-28T10:29:43Z</time>
      </trkpt>
      <trkpt lat="36.4561830" lon="-6.1565530">
        <ele>-8.0</ele>
        <time>2023-01-28T10:29:44Z</time>
      </trkpt>
      <trkpt lat="36.4562160" lon="-6.1565900">
        <ele>-8.2</ele>
        <time>2023-01-28T10:29:45Z</time>
      </trkpt>
      <trkpt lat="36.4562500" lon="-6.1566170">
        <ele>-8.4</ele>
        <time>2023-01-28T10:29:46Z</time>
      </trkpt>
      <trkpt lat="36.4562860" lon="-6.1566530">
        <ele>-8.4</ele>
        <time>2023-01-28T10:29:47Z</time>
      </trkpt>
      <trkpt lat="36.4563250" lon="-6.1566750">
        <ele>-8.2</ele>
        <time>2023-01-28T10:29:48Z</time>
      </trkpt>
      <trkpt lat="36.4563660" lon="-6.1567090">
        <ele>-8.2</ele>
        <time>2023-01-28T10:29:49Z</time>
      </trkpt>
      <trkpt lat="36.4564080" lon="-6.1567360">
        <ele>-8.2</ele>
        <time>2023-01-28T10:29:50Z</time>
      </trkpt>
      <trkpt lat="36.4564410" lon="-6.1567640">
        <ele>-8.2</ele>
        <time>2023-01-28T10:29:51Z</time>
      </trkpt>
      <trkpt lat="36.4564820" lon="-6.1567860">
        <ele>-8.0</ele>
        <time>2023-01-28T10:29:52Z</time>
      </trkpt>
      <trkpt lat="36.4565220" lon="-6.1568180">
        <ele>-8.0</ele>
        <time>2023-01-28T10:29:53Z</time>
      </trkpt>
      <trkpt lat="36.4565560" lon="-6.1568620">
        <ele>-8.2</ele>
        <time>2023-01-28T10:29:54Z</time>
      </trkpt>
      <trkpt lat="36.4566000" lon="-6.1568920">
        <ele>-8.2</ele>
        <time>2023-01-28T10:29:55Z</time>
      </trkpt>
      <trkpt lat="36.4566400" lon="-6.1569150">
        <ele>-8.0</ele>
        <time>2023-01-28T10:29:56Z</time>
      </trkpt>
      <trkpt lat="36.4566790" lon="-6.1569380">
        <ele>-8.2</ele>
        <time>2023-01-28T10:29:57Z</time>
      </trkpt>
      <trkpt lat="36.4567120" lon="-6.1569720">
        <ele>-8.2</ele>
        <time>2023-01-28T10:29:58Z</time>
      </trkpt>
      <trkpt lat="36.4567430" lon="-6.1570040">
        <ele>-8.2</ele>
        <time>2023-01-28T10:29:59Z</time>
      </trkpt>
      <trkpt lat="36.4567770" lon="-6.1570350">
        <ele>-8.2</ele>
        <time>2023-01-28T10:30:00Z</time>
      </trkpt>
      <trkpt lat="36.4568080" lon="-6.1570670">
        <ele>-8.2</ele>
        <time>2023-01-28T10:30:01Z</time>
      </trkpt>
      <trkpt lat="36.4568420" lon="-6.1571020">
        <ele>-8.0</ele>
        <time>2023-01-28T10:30:02Z</time>
      </trkpt>
      <trkpt lat="36.4568770" lon="-6.1571300">
        <ele>-8.2</ele>
        <time>2023-01-28T10:30:03Z</time>
      </trkpt>
      <trkpt lat="36.4569130" lon="-6.1571610">
        <ele>-8.2</ele>
        <time>2023-01-28T10:30:04Z</time>
      </trkpt>
      <trkpt lat="36.4569480" lon="-6.1571930">
        <ele>-8.2</ele>
        <time>2023-01-28T10:30:05Z</time>
      </trkpt>
      <trkpt lat="36.4569840" lon="-6.1572230">
        <ele>-8.2</ele>
        <time>2023-01-28T10:30:06Z</time>
      </trkpt>
      <trkpt lat="36.4570180" lon="-6.1572560">
        <ele>-8.2</ele>
        <time>2023-01-28T10:30:07Z</time>
      </trkpt>
      <trkpt lat="36.4570530" lon="-6.1572860">
        <ele>-8.2</ele>
        <time>2023-01-28T10:30:08Z</time>
      </trkpt>
      <trkpt lat="36.4570880" lon="-6.1573190">
        <ele>-8.2</ele>
        <time>2023-01-28T10:30:09Z</time>
      </trkpt>
      <trkpt lat="36.4571220" lon="-6.1573490">
        <ele>-8.2</ele>
        <time>2023-01-28T10:30:10Z</time>
      </trkpt>
      <trkpt lat="36.4571560" lon="-6.1573790">
        <ele>-8.2</ele>
        <time>2023-01-28T10:30:11Z</time>
      </trkpt>
      <trkpt lat="36.4571890" lon="-6.1574100">
        <ele>-8.0</ele>
        <time>2023-01-28T10:30:12Z</time>
      </trkpt>
      <trkpt lat="36.4572230" lon="-6.1574420">
        <ele>-8.0</ele>
        <time>2023-01-28T10:30:13Z</time>
      </trkpt>
      <trkpt lat="36.4572560" lon="-6.1574730">
        <ele>-7.8</ele>
        <time>2023-01-28T10:30:14Z</time>
      </trkpt>
      <trkpt lat="36.4572900" lon="-6.1575030">
        <ele>-8.0</ele>
        <time>2023-01-28T10:30:15Z</time>
      </trkpt>
      <trkpt lat="36.4573250" lon="-6.1575320">
        <ele>-8.2</ele>
        <time>2023-01-28T10:30:16Z</time>
      </trkpt>
      <trkpt lat="36.4573610" lon="-6.1575600">
        <ele>-8.2</ele>
        <time>2023-01-28T10:30:17Z</time>
      </trkpt>
      <trkpt lat="36.4573950" lon="-6.1575930">
        <ele>-8.2</ele>
        <time>2023-01-28T10:30:18Z</time>
      </trkpt>
      <trkpt lat="36.4574290" lon="-6.1576230">
        <ele>-8.2</ele>
        <time>2023-01-28T10:30:19Z</time>
      </trkpt>
      <trkpt lat="36.4574640" lon="-6.1576520">
        <ele>-8.2</ele>
        <time>2023-01-28T10:30:20Z</time>
      </trkpt>
      <trkpt lat="36.4574980" lon="-6.1576840">
        <ele>-8.0</ele>
        <time>2023-01-28T10:30:21Z</time>
      </trkpt>
      <trkpt lat="36.4575330" lon="-6.1577120">
        <ele>-7.6</ele>
        <time>2023-01-28T10:30:22Z</time>
      </trkpt>
      <trkpt lat="36.4575650" lon="-6.1577430">
        <ele>-8.0</ele>
        <time>2023-01-28T10:30:23Z</time>
      </trkpt>
      <trkpt lat="36.4575970" lon="-6.1577740">
        <ele>-8.2</ele>
        <time>2023-01-28T10:30:24Z</time>
      </trkpt>
      <trkpt lat="36.4576320" lon="-6.1578030">
        <ele>-8.2</ele>
        <time>2023-01-28T10:30:25Z</time>
      </trkpt>
      <trkpt lat="36.4576660" lon="-6.1578330">
        <ele>-8.2</ele>
        <time>2023-01-28T10:30:26Z</time>
      </trkpt>
      <trkpt lat="36.4576980" lon="-6.1578640">
        <ele>-8.0</ele>
        <time>2023-01-28T10:30:27Z</time>
      </trkpt>
      <trkpt lat="36.4577310" lon="-6.1578950">
        <ele>-8.0</ele>
        <time>2023-01-28T10:30:28Z</time>
      </trkpt>
      <trkpt lat="36.4577640" lon="-6.1579250">
        <ele>-8.2</ele>
        <time>2023-01-28T10:30:29Z</time>
      </trkpt>
      <trkpt lat="36.4577970" lon="-6.1579550">
        <ele>-8.4</ele>
        <time>2023-01-28T10:30:30Z</time>
      </trkpt>
      <trkpt lat="36.4578300" lon="-6.1579850">
        <ele>-8.0</ele>
        <time>2023-01-28T10:30:31Z</time>
      </trkpt>
      <trkpt lat="36.4578630" lon="-6.1580160">
        <ele>-8.2</ele>
        <time>2023-01-28T10:30:32Z</time>
      </trkpt>
      <trkpt lat="36.4578960" lon="-6.1580470">
        <ele>-8.2</ele>
        <time>2023-01-28T10:30:33Z</time>
      </trkpt>
      <trkpt lat="36.4579290" lon="-6.1580790">
        <ele>-8.2</ele>
        <time>2023-01-28T10:30:34Z</time>
      </trkpt>
      <trkpt lat="36.4579620" lon="-6.1581090">
        <ele>-8.0</ele>
        <time>2023-01-28T10:30:35Z</time>
      </trkpt>
      <trkpt lat="36.4579960" lon="-6.1581400">
        <ele>-8.2</ele>
        <time>2023-01-28T10:30:36Z</time>
      </trkpt>
      <trkpt lat="36.4580300" lon="-6.1581680">
        <ele>-8.2</ele>
        <time>2023-01-28T10:30:37Z</time>
      </trkpt>
      <trkpt lat="36.4580620" lon="-6.1581990">
        <ele>-8.0</ele>
        <time>2023-01-28T10:30:38Z</time>
      </trkpt>
      <trkpt lat="36.4580950" lon="-6.1582280">
        <ele>-8.0</ele>
        <time>2023-01-28T10:30:39Z</time>
      </trkpt>
      <trkpt lat="36.4581290" lon="-6.1582580">
        <ele>-8.0</ele>
        <time>2023-01-28T10:30:40Z</time>
      </trkpt>
      <trkpt lat="36.4581620" lon="-6.1582880">
        <ele>-8.0</ele>
        <time>2023-01-28T10:30:41Z</time>
      </trkpt>
      <trkpt lat="36.4581950" lon="-6.1583180">
        <ele>-8.2</ele>
        <time>2023-01-28T10:30:42Z</time>
      </trkpt>
      <trkpt lat="36.4582270" lon="-6.1583490">
        <ele>-8.4</ele>
        <time>2023-01-28T10:30:43Z</time>
      </trkpt>
      <trkpt lat="36.4582590" lon="-6.1583760">
        <ele>-8.2</ele>
        <time>2023-01-28T10:30:44Z</time>
      </trkpt>
      <trkpt lat="36.4582920" lon="-6.1584050">
        <ele>-8.2</ele>
        <time>2023-01-28T10:30:45Z</time>
      </trkpt>
      <trkpt lat="36.4583240" lon="-6.1584350">
        <ele>-8.2</ele>
        <time>2023-01-28T10:30:46Z</time>
      </trkpt>
      <trkpt lat="36.4583560" lon="-6.1584630">
        <ele>-8.2</ele>
        <time>2023-01-28T10:30:47Z</time>
      </trkpt>
      <trkpt lat="36.4583900" lon="-6.1584890">
        <ele>-8.2</ele>
        <time>2023-01-28T10:30:48Z</time>
      </trkpt>
      <trkpt lat="36.4584210" lon="-6.1585090">
        <ele>-8.0</ele>
        <time>2023-01-28T10:30:49Z</time>
      </trkpt>
      <trkpt lat="36.4584530" lon="-6.1585310">
        <ele>-8.2</ele>
        <time>2023-01-28T10:30:50Z</time>
      </trkpt>
      <trkpt lat="36.4584860" lon="-6.1585620">
        <ele>-8.2</ele>
        <time>2023-01-28T10:30:51Z</time>
      </trkpt>
      <trkpt lat="36.4585200" lon="-6.1585870">
        <ele>-8.4</ele>
        <time>2023-01-28T10:30:52Z</time>
      </trkpt>
      <trkpt lat="36.4585560" lon="-6.1586220">
        <ele>-8.2</ele>
        <time>2023-01-28T10:30:53Z</time>
      </trkpt>
      <trkpt lat="36.4585860" lon="-6.1586430">
        <ele>-8.4</ele>
        <time>2023-01-28T10:30:54Z</time>
      </trkpt>
      <trkpt lat="36.4586100" lon="-6.1586710">
        <ele>-8.4</ele>
        <time>2023-01-28T10:30:55Z</time>
      </trkpt>
      <trkpt lat="36.4586450" lon="-6.1587090">
        <ele>-8.4</ele>
        <time>2023-01-28T10:30:56Z</time>
      </trkpt>
      <trkpt lat="36.4586800" lon="-6.1587430">
        <ele>-8.4</ele>
        <time>2023-01-28T10:30:57Z</time>
      </trkpt>
      <trkpt lat="36.4587160" lon="-6.1587640">
        <ele>-8.4</ele>
        <time>2023-01-28T10:30:58Z</time>
      </trkpt>
      <trkpt lat="36.4587520" lon="-6.1587990">
        <ele>-8.2</ele>
        <time>2023-01-28T10:30:59Z</time>
      </trkpt>
      <trkpt lat="36.4587960" lon="-6.1588360">
        <ele>-8.0</ele>
        <time>2023-01-28T10:31:00Z</time>
      </trkpt>
      <trkpt lat="36.4588370" lon="-6.1588740">
        <ele>-8.0</ele>
        <time>2023-01-28T10:31:01Z</time>
      </trkpt>
      <trkpt lat="36.4588670" lon="-6.1589150">
        <ele>-8.0</ele>
        <time>2023-01-28T10:31:02Z</time>
      </trkpt>
      <trkpt lat="36.4589020" lon="-6.1589610">
        <ele>-8.0</ele>
        <time>2023-01-28T10:31:03Z</time>
      </trkpt>
      <trkpt lat="36.4589430" lon="-6.1589980">
        <ele>-8.2</ele>
        <time>2023-01-28T10:31:04Z</time>
      </trkpt>
      <trkpt lat="36.4589750" lon="-6.1590390">
        <ele>-8.4</ele>
        <time>2023-01-28T10:31:05Z</time>
      </trkpt>
      <trkpt lat="36.4590050" lon="-6.1590670">
        <ele>-8.2</ele>
        <time>2023-01-28T10:31:06Z</time>
      </trkpt>
      <trkpt lat="36.4590450" lon="-6.1591020">
        <ele>-8.2</ele>
        <time>2023-01-28T10:31:07Z</time>
      </trkpt>
      <trkpt lat="36.4590840" lon="-6.1591320">
        <ele>-8.2</ele>
        <time>2023-01-28T10:31:08Z</time>
      </trkpt>
      <trkpt lat="36.4591310" lon="-6.1591530">
        <ele>-8.2</ele>
        <time>2023-01-28T10:31:09Z</time>
      </trkpt>
      <trkpt lat="36.4591730" lon="-6.1591810">
        <ele>-8.2</ele>
        <time>2023-01-28T10:31:10Z</time>
      </trkpt>
      <trkpt lat="36.4592150" lon="-6.1592230">
        <ele>-8.2</ele>
        <time>2023-01-28T10:31:11Z</time>
      </trkpt>
      <trkpt lat="36.4592560" lon="-6.1592610">
        <ele>-8.2</ele>
        <time>2023-01-28T10:31:12Z</time>
      </trkpt>
      <trkpt lat="36.4592950" lon="-6.1593090">
        <ele>-8.2</ele>
        <time>2023-01-28T10:31:13Z</time>
      </trkpt>
      <trkpt lat="36.4593340" lon="-6.1593460">
        <ele>-8.2</ele>
        <time>2023-01-28T10:31:14Z</time>
      </trkpt>
      <trkpt lat="36.4593720" lon="-6.1593880">
        <ele>-8.2</ele>
        <time>2023-01-28T10:31:15Z</time>
      </trkpt>
      <trkpt lat="36.4594160" lon="-6.1594120">
        <ele>-8.2</ele>
        <time>2023-01-28T10:31:16Z</time>
      </trkpt>
      <trkpt lat="36.4594520" lon="-6.1594470">
        <ele>-8.2</ele>
        <time>2023-01-28T10:31:17Z</time>
      </trkpt>
      <trkpt lat="36.4594940" lon="-6.1594820">
        <ele>-8.2</ele>
        <time>2023-01-28T10:31:18Z</time>
      </trkpt>
      <trkpt lat="36.4595320" lon="-6.1595190">
        <ele>-8.4</ele>
        <time>2023-01-28T10:31:19Z</time>
      </trkpt>
      <trkpt lat="36.4595680" lon="-6.1595560">
        <ele>-8.2</ele>
        <time>2023-01-28T10:31:20Z</time>
      </trkpt>
      <trkpt lat="36.4596030" lon="-6.1596010">
        <ele>-8.2</ele>
        <time>2023-01-28T10:31:21Z</time>
      </trkpt>
      <trkpt lat="36.4596450" lon="-6.1596280">
        <ele>-8.0</ele>
        <time>2023-01-28T10:31:22Z</time>
      </trkpt>
      <trkpt lat="36.4596810" lon="-6.1596540">
        <ele>-8.2</ele>
        <time>2023-01-28T10:31:23Z</time>
      </trkpt>
      <trkpt lat="36.4597130" lon="-6.1596970">
        <ele>-8.0</ele>
        <time>2023-01-28T10:31:24Z</time>
      </trkpt>
      <trkpt lat="36.4597520" lon="-6.1597360">
        <ele>-8.0</ele>
        <time>2023-01-28T10:31:25Z</time>
      </trkpt>
      <trkpt lat="36.4597880" lon="-6.1597650">
        <ele>-8.2</ele>
        <time>2023-01-28T10:31:26Z</time>
      </trkpt>
      <trkpt lat="36.4598350" lon="-6.1597960">
        <ele>-8.2</ele>
        <time>2023-01-28T10:31:27Z</time>
      </trkpt>
      <trkpt lat="36.4598740" lon="-6.1598200">
        <ele>-8.0</ele>
        <time>2023-01-28T10:31:28Z</time>
      </trkpt>
      <trkpt lat="36.4599120" lon="-6.1598510">
        <ele>-8.2</ele>
        <time>2023-01-28T10:31:29Z</time>
      </trkpt>
      <trkpt lat="36.4599510" lon="-6.1598940">
        <ele>-8.2</ele>
        <time>2023-01-28T10:31:30Z</time>
      </trkpt>
      <trkpt lat="36.4599870" lon="-6.1599210">
        <ele>-8.2</ele>
        <time>2023-01-28T10:31:31Z</time>
      </trkpt>
      <trkpt lat="36.4600200" lon="-6.1599410">
        <ele>-8.0</ele>
        <time>2023-01-28T10:31:32Z</time>
      </trkpt>
      <trkpt lat="36.4600580" lon="-6.1599790">
        <ele>-8.0</ele>
        <time>2023-01-28T10:31:33Z</time>
      </trkpt>
      <trkpt lat="36.4600970" lon="-6.1600010">
        <ele>-8.0</ele>
        <time>2023-01-28T10:31:34Z</time>
      </trkpt>
      <trkpt lat="36.4601370" lon="-6.1600410">
        <ele>-7.8</ele>
        <time>2023-01-28T10:31:35Z</time>
      </trkpt>
      <trkpt lat="36.4601750" lon="-6.1600920">
        <ele>-8.0</ele>
        <time>2023-01-28T10:31:36Z</time>
      </trkpt>
      <trkpt lat="36.4602100" lon="-6.1601390">
        <ele>-8.0</ele>
        <time>2023-01-28T10:31:37Z</time>
      </trkpt>
      <trkpt lat="36.4602440" lon="-6.1601830">
        <ele>-8.0</ele>
        <time>2023-01-28T10:31:38Z</time>
      </trkpt>
      <trkpt lat="36.4602800" lon="-6.1602120">
        <ele>-8.0</ele>
        <time>2023-01-28T10:31:39Z</time>
      </trkpt>
      <trkpt lat="36.4603130" lon="-6.1602380">
        <ele>-8.0</ele>
        <time>2023-01-28T10:31:40Z</time>
      </trkpt>
      <trkpt lat="36.4603510" lon="-6.1602600">
        <ele>-8.2</ele>
        <time>2023-01-28T10:31:41Z</time>
      </trkpt>
      <trkpt lat="36.4603820" lon="-6.1602990">
        <ele>-8.4</ele>
        <time>2023-01-28T10:31:42Z</time>
      </trkpt>
      <trkpt lat="36.4604230" lon="-6.1603320">
        <ele>-8.2</ele>
        <time>2023-01-28T10:31:43Z</time>
      </trkpt>
      <trkpt lat="36.4604540" lon="-6.1603530">
        <ele>-8.2</ele>
        <time>2023-01-28T10:31:44Z</time>
      </trkpt>
      <trkpt lat="36.4604950" lon="-6.1603830">
        <ele>-8.2</ele>
        <time>2023-01-28T10:31:45Z</time>
      </trkpt>
      <trkpt lat="36.4605280" lon="-6.1604010">
        <ele>-8.2</ele>
        <time>2023-01-28T10:31:46Z</time>
      </trkpt>
      <trkpt lat="36.4605730" lon="-6.1604340">
        <ele>-8.2</ele>
        <time>2023-01-28T10:31:47Z</time>
      </trkpt>
      <trkpt lat="36.4606100" lon="-6.1604580">
        <ele>-8.2</ele>
        <time>2023-01-28T10:31:48Z</time>
      </trkpt>
      <trkpt lat="36.4606610" lon="-6.1604930">
        <ele>-8.2</ele>
        <time>2023-01-28T10:31:49Z</time>
      </trkpt>
      <trkpt lat="36.4607080" lon="-6.1605270">
        <ele>-8.2</ele>
        <time>2023-01-28T10:31:50Z</time>
      </trkpt>
      <trkpt lat="36.4607520" lon="-6.1605670">
        <ele>-8.2</ele>
        <time>2023-01-28T10:31:51Z</time>
      </trkpt>
      <trkpt lat="36.4607920" lon="-6.1606110">
        <ele>-8.2</ele>
        <time>2023-01-28T10:31:52Z</time>
      </trkpt>
      <trkpt lat="36.4608310" lon="-6.1606360">
        <ele>-8.2</ele>
        <time>2023-01-28T10:31:53Z</time>
      </trkpt>
      <trkpt lat="36.4608530" lon="-6.1606810">
        <ele>-8.2</ele>
        <time>2023-01-28T10:31:54Z</time>
      </trkpt>
      <trkpt lat="36.4608820" lon="-6.1607310">
        <ele>-8.4</ele>
        <time>2023-01-28T10:31:55Z</time>
      </trkpt>
      <trkpt lat="36.4609120" lon="-6.1607790">
        <ele>-8.4</ele>
        <time>2023-01-28T10:31:56Z</time>
      </trkpt>
      <trkpt lat="36.4609500" lon="-6.1608270">
        <ele>-8.4</ele>
        <time>2023-01-28T10:31:57Z</time>
      </trkpt>
      <trkpt lat="36.4609870" lon="-6.1608450">
        <ele>-8.2</ele>
        <time>2023-01-28T10:31:58Z</time>
      </trkpt>
      <trkpt lat="36.4610200" lon="-6.1608830">
        <ele>-8.2</ele>
        <time>2023-01-28T10:31:59Z</time>
      </trkpt>
      <trkpt lat="36.4610570" lon="-6.1609050">
        <ele>-8.4</ele>
        <time>2023-01-28T10:32:00Z</time>
      </trkpt>
      <trkpt lat="36.4610970" lon="-6.1609400">
        <ele>-8.4</ele>
        <time>2023-01-28T10:32:01Z</time>
      </trkpt>
      <trkpt lat="36.4611250" lon="-6.1609640">
        <ele>-8.2</ele>
        <time>2023-01-28T10:32:02Z</time>
      </trkpt>
      <trkpt lat="36.4611690" lon="-6.1609810">
        <ele>-8.2</ele>
        <time>2023-01-28T10:32:03Z</time>
      </trkpt>
      <trkpt lat="36.4612070" lon="-6.1610120">
        <ele>-8.4</ele>
        <time>2023-01-28T10:32:04Z</time>
      </trkpt>
      <trkpt lat="36.4612420" lon="-6.1610450">
        <ele>-8.4</ele>
        <time>2023-01-28T10:32:05Z</time>
      </trkpt>
      <trkpt lat="36.4612880" lon="-6.1610790">
        <ele>-8.2</ele>
        <time>2023-01-28T10:32:06Z</time>
      </trkpt>
      <trkpt lat="36.4613270" lon="-6.1611110">
        <ele>-8.2</ele>
        <time>2023-01-28T10:32:07Z</time>
      </trkpt>
      <trkpt lat="36.4613640" lon="-6.1611430">
        <ele>-8.4</ele>
        <time>2023-01-28T10:32:08Z</time>
      </trkpt>
      <trkpt lat="36.4614080" lon="-6.1611640">
        <ele>-8.0</ele>
        <time>2023-01-28T10:32:09Z</time>
      </trkpt>
      <trkpt lat="36.4614420" lon="-6.1611880">
        <ele>-8.0</ele>
        <time>2023-01-28T10:32:10Z</time>
      </trkpt>
      <trkpt lat="36.4614770" lon="-6.1612350">
        <ele>-8.0</ele>
        <time>2023-01-28T10:32:11Z</time>
      </trkpt>
      <trkpt lat="36.4615170" lon="-6.1612670">
        <ele>-8.2</ele>
        <time>2023-01-28T10:32:12Z</time>
      </trkpt>
      <trkpt lat="36.4615520" lon="-6.1612990">
        <ele>-8.2</ele>
        <time>2023-01-28T10:32:13Z</time>
      </trkpt>
      <trkpt lat="36.4615970" lon="-6.1613150">
        <ele>-8.2</ele>
        <time>2023-01-28T10:32:14Z</time>
      </trkpt>
      <trkpt lat="36.4616320" lon="-6.1613590">
        <ele>-8.2</ele>
        <time>2023-01-28T10:32:15Z</time>
      </trkpt>
      <trkpt lat="36.4616830" lon="-6.1613680">
        <ele>-8.4</ele>
        <time>2023-01-28T10:32:16Z</time>
      </trkpt>
      <trkpt lat="36.4617300" lon="-6.1613920">
        <ele>-8.6</ele>
        <time>2023-01-28T10:32:17Z</time>
      </trkpt>
      <trkpt lat="36.4617680" lon="-6.1614310">
        <ele>-8.6</ele>
        <time>2023-01-28T10:32:18Z</time>
      </trkpt>
      <trkpt lat="36.4618180" lon="-6.1614550">
        <ele>-8.6</ele>
        <time>2023-01-28T10:32:19Z</time>
      </trkpt>
      <trkpt lat="36.4618550" lon="-6.1614970">
        <ele>-8.6</ele>
        <time>2023-01-28T10:32:20Z</time>
      </trkpt>
      <trkpt lat="36.4618880" lon="-6.1615330">
        <ele>-8.4</ele>
        <time>2023-01-28T10:32:21Z</time>
      </trkpt>
      <trkpt lat="36.4619230" lon="-6.1615840">
        <ele>-8.4</ele>
        <time>2023-01-28T10:32:22Z</time>
      </trkpt>
      <trkpt lat="36.4619590" lon="-6.1616130">
        <ele>-8.2</ele>
        <time>2023-01-28T10:32:23Z</time>
      </trkpt>
      <trkpt lat="36.4619890" lon="-6.1616550">
        <ele>-8.4</ele>
        <time>2023-01-28T10:32:24Z</time>
      </trkpt>
      <trkpt lat="36.4620360" lon="-6.1616910">
        <ele>-8.4</ele>
        <time>2023-01-28T10:32:25Z</time>
      </trkpt>
      <trkpt lat="36.4620770" lon="-6.1617160">
        <ele>-8.4</ele>
        <time>2023-01-28T10:32:26Z</time>
      </trkpt>
      <trkpt lat="36.4621220" lon="-6.1617460">
        <ele>-8.6</ele>
        <time>2023-01-28T10:32:27Z</time>
      </trkpt>
      <trkpt lat="36.4621610" lon="-6.1617730">
        <ele>-8.4</ele>
        <time>2023-01-28T10:32:28Z</time>
      </trkpt>
      <trkpt lat="36.4621940" lon="-6.1618080">
        <ele>-8.6</ele>
        <time>2023-01-28T10:32:29Z</time>
      </trkpt>
      <trkpt lat="36.4622300" lon="-6.1618290">
        <ele>-8.4</ele>
        <time>2023-01-28T10:32:30Z</time>
      </trkpt>
      <trkpt lat="36.4622760" lon="-6.1618700">
        <ele>-8.4</ele>
        <time>2023-01-28T10:32:31Z</time>
      </trkpt>
      <trkpt lat="36.4623110" lon="-6.1619010">
        <ele>-8.4</ele>
        <time>2023-01-28T10:32:32Z</time>
      </trkpt>
      <trkpt lat="36.4623600" lon="-6.1619310">
        <ele>-8.4</ele>
        <time>2023-01-28T10:32:33Z</time>
      </trkpt>
      <trkpt lat="36.4623900" lon="-6.1619670">
        <ele>-8.4</ele>
        <time>2023-01-28T10:32:34Z</time>
      </trkpt>
      <trkpt lat="36.4624300" lon="-6.1620100">
        <ele>-8.2</ele>
        <time>2023-01-28T10:32:35Z</time>
      </trkpt>
      <trkpt lat="36.4624710" lon="-6.1620490">
        <ele>-8.2</ele>
        <time>2023-01-28T10:32:36Z</time>
      </trkpt>
      <trkpt lat="36.4625050" lon="-6.1620900">
        <ele>-8.2</ele>
        <time>2023-01-28T10:32:37Z</time>
      </trkpt>
      <trkpt lat="36.4625420" lon="-6.1621300">
        <ele>-8.2</ele>
        <time>2023-01-28T10:32:38Z</time>
      </trkpt>
      <trkpt lat="36.4625740" lon="-6.1621680">
        <ele>-8.2</ele>
        <time>2023-01-28T10:32:39Z</time>
      </trkpt>
      <trkpt lat="36.4626160" lon="-6.1621990">
        <ele>-8.2</ele>
        <time>2023-01-28T10:32:40Z</time>
      </trkpt>
      <trkpt lat="36.4626680" lon="-6.1622300">
        <ele>-8.4</ele>
        <time>2023-01-28T10:32:41Z</time>
      </trkpt>
      <trkpt lat="36.4627180" lon="-6.1622600">
        <ele>-8.4</ele>
        <time>2023-01-28T10:32:42Z</time>
      </trkpt>
      <trkpt lat="36.4627590" lon="-6.1622890">
        <ele>-8.2</ele>
        <time>2023-01-28T10:32:43Z</time>
      </trkpt>
      <trkpt lat="36.4628010" lon="-6.1623250">
        <ele>-7.8</ele>
        <time>2023-01-28T10:32:44Z</time>
      </trkpt>
      <trkpt lat="36.4628510" lon="-6.1623470">
        <ele>-8.2</ele>
        <time>2023-01-28T10:32:45Z</time>
      </trkpt>
      <trkpt lat="36.4629050" lon="-6.1623710">
        <ele>-8.4</ele>
        <time>2023-01-28T10:32:46Z</time>
      </trkpt>
      <trkpt lat="36.4629370" lon="-6.1624180">
        <ele>-8.4</ele>
        <time>2023-01-28T10:32:47Z</time>
      </trkpt>
      <trkpt lat="36.4629710" lon="-6.1624530">
        <ele>-8.6</ele>
        <time>2023-01-28T10:32:48Z</time>
      </trkpt>
      <trkpt lat="36.4630110" lon="-6.1625020">
        <ele>-8.6</ele>
        <time>2023-01-28T10:32:49Z</time>
      </trkpt>
      <trkpt lat="36.4630500" lon="-6.1625340">
        <ele>-8.6</ele>
        <time>2023-01-28T10:32:50Z</time>
      </trkpt>
      <trkpt lat="36.4630880" lon="-6.1625750">
        <ele>-8.4</ele>
        <time>2023-01-28T10:32:51Z</time>
      </trkpt>
      <trkpt lat="36.4631310" lon="-6.1626060">
        <ele>-8.4</ele>
        <time>2023-01-28T10:32:52Z</time>
      </trkpt>
      <trkpt lat="36.4631680" lon="-6.1626430">
        <ele>-8.6</ele>
        <time>2023-01-28T10:32:53Z</time>
      </trkpt>
      <trkpt lat="36.4632080" lon="-6.1626830">
        <ele>-8.6</ele>
        <time>2023-01-28T10:32:54Z</time>
      </trkpt>
      <trkpt lat="36.4632450" lon="-6.1627110">
        <ele>-8.6</ele>
        <time>2023-01-28T10:32:55Z</time>
      </trkpt>
      <trkpt lat="36.4632860" lon="-6.1627470">
        <ele>-8.6</ele>
        <time>2023-01-28T10:32:56Z</time>
      </trkpt>
      <trkpt lat="36.4633290" lon="-6.1627630">
        <ele>-8.6</ele>
        <time>2023-01-28T10:32:57Z</time>
      </trkpt>
      <trkpt lat="36.4633620" lon="-6.1627960">
        <ele>-8.6</ele>
        <time>2023-01-28T10:32:58Z</time>
      </trkpt>
      <trkpt lat="36.4634040" lon="-6.1628060">
        <ele>-8.6</ele>
        <time>2023-01-28T10:32:59Z</time>
      </trkpt>
      <trkpt lat="36.4634470" lon="-6.1628380">
        <ele>-8.6</ele>
        <time>2023-01-28T10:33:00Z</time>
      </trkpt>
      <trkpt lat="36.4634790" lon="-6.1628850">
        <ele>-8.6</ele>
        <time>2023-01-28T10:33:01Z</time>
      </trkpt>
      <trkpt lat="36.4635140" lon="-6.1629110">
        <ele>-8.6</ele>
        <time>2023-01-28T10:33:02Z</time>
      </trkpt>
      <trkpt lat="36.4635630" lon="-6.1629270">
        <ele>-8.4</ele>
        <time>2023-01-28T10:33:03Z</time>
      </trkpt>
      <trkpt lat="36.4635960" lon="-6.1629660">
        <ele>-8.4</ele>
        <time>2023-01-28T10:33:04Z</time>
      </trkpt>
      <trkpt lat="36.4636270" lon="-6.1629840">
        <ele>-8.4</ele>
        <time>2023-01-28T10:33:05Z</time>
      </trkpt>
      <trkpt lat="36.4636610" lon="-6.1630170">
        <ele>-8.4</ele>
        <time>2023-01-28T10:33:06Z</time>
      </trkpt>
      <trkpt lat="36.4636970" lon="-6.1630540">
        <ele>-8.4</ele>
        <time>2023-01-28T10:33:07Z</time>
      </trkpt>
      <trkpt lat="36.4637250" lon="-6.1630760">
        <ele>-8.6</ele>
        <time>2023-01-28T10:33:08Z</time>
      </trkpt>
      <trkpt lat="36.4637540" lon="-6.1631070">
        <ele>-8.4</ele>
        <time>2023-01-28T10:33:09Z</time>
      </trkpt>
      <trkpt lat="36.4637860" lon="-6.1631380">
        <ele>-8.6</ele>
        <time>2023-01-28T10:33:10Z</time>
      </trkpt>
      <trkpt lat="36.4638160" lon="-6.1631810">
        <ele>-8.6</ele>
        <time>2023-01-28T10:33:11Z</time>
      </trkpt>
      <trkpt lat="36.4638500" lon="-6.1632110">
        <ele>-8.4</ele>
        <time>2023-01-28T10:33:12Z</time>
      </trkpt>
      <trkpt lat="36.4638900" lon="-6.1632420">
        <ele>-8.6</ele>
        <time>2023-01-28T10:33:13Z</time>
      </trkpt>
      <trkpt lat="36.4639240" lon="-6.1632720">
        <ele>-8.6</ele>
        <time>2023-01-28T10:33:14Z</time>
      </trkpt>
      <trkpt lat="36.4639520" lon="-6.1632970">
        <ele>-8.6</ele>
        <time>2023-01-28T10:33:15Z</time>
      </trkpt>
      <trkpt lat="36.4639860" lon="-6.1633210">
        <ele>-8.4</ele>
        <time>2023-01-28T10:33:16Z</time>
      </trkpt>
      <trkpt lat="36.4640210" lon="-6.1633500">
        <ele>-8.6</ele>
        <time>2023-01-28T10:33:17Z</time>
      </trkpt>
      <trkpt lat="36.4640610" lon="-6.1633810">
        <ele>-8.4</ele>
        <time>2023-01-28T10:33:18Z</time>
      </trkpt>
      <trkpt lat="36.4640930" lon="-6.1634020">
        <ele>-8.6</ele>
        <time>2023-01-28T10:33:19Z</time>
      </trkpt>
      <trkpt lat="36.4641320" lon="-6.1634320">
        <ele>-8.6</ele>
        <time>2023-01-28T10:33:20Z</time>
      </trkpt>
      <trkpt lat="36.4641730" lon="-6.1634630">
        <ele>-8.4</ele>
        <time>2023-01-28T10:33:21Z</time>
      </trkpt>
      <trkpt lat="36.4642040" lon="-6.1634860">
        <ele>-8.6</ele>
        <time>2023-01-28T10:33:22Z</time>
      </trkpt>
      <trkpt lat="36.4642510" lon="-6.1635110">
        <ele>-8.6</ele>
        <time>2023-01-28T10:33:23Z</time>
      </trkpt>
      <trkpt lat="36.4642840" lon="-6.1635360">
        <ele>-8.6</ele>
        <time>2023-01-28T10:33:24Z</time>
      </trkpt>
      <trkpt lat="36.4643230" lon="-6.1635590">
        <ele>-8.6</ele>
        <time>2023-01-28T10:33:25Z</time>
      </trkpt>
      <trkpt lat="36.4643610" lon="-6.1635770">
        <ele>-8.6</ele>
        <time>2023-01-28T10:33:26Z</time>
      </trkpt>
      <trkpt lat="36.4644030" lon="-6.1635980">
        <ele>-8.6</ele>
        <time>2023-01-28T10:33:27Z</time>
      </trkpt>
      <trkpt lat="36.4644310" lon="-6.1636270">
        <ele>-8.6</ele>
        <time>2023-01-28T10:33:28Z</time>
      </trkpt>
      <trkpt lat="36.4644680" lon="-6.1636610">
        <ele>-8.4</ele>
        <time>2023-01-28T10:33:29Z</time>
      </trkpt>
      <trkpt lat="36.4645020" lon="-6.1636970">
        <ele>-8.4</ele>
        <time>2023-01-28T10:33:30Z</time>
      </trkpt>
      <trkpt lat="36.4645330" lon="-6.1637400">
        <ele>-8.4</ele>
        <time>2023-01-28T10:33:31Z</time>
      </trkpt>
      <trkpt lat="36.4645670" lon="-6.1637740">
        <ele>-8.4</ele>
        <time>2023-01-28T10:33:32Z</time>
      </trkpt>
      <trkpt lat="36.4646020" lon="-6.1638130">
        <ele>-8.4</ele>
        <time>2023-01-28T10:33:33Z</time>
      </trkpt>
      <trkpt lat="36.4646430" lon="-6.1638360">
        <ele>-8.2</ele>
        <time>2023-01-28T10:33:34Z</time>
      </trkpt>
      <trkpt lat="36.4646740" lon="-6.1638510">
        <ele>-8.2</ele>
        <time>2023-01-28T10:33:35Z</time>
      </trkpt>
      <trkpt lat="36.4647090" lon="-6.1638750">
        <ele>-8.4</ele>
        <time>2023-01-28T10:33:36Z</time>
      </trkpt>
      <trkpt lat="36.4647460" lon="-6.1639050">
        <ele>-8.4</ele>
        <time>2023-01-28T10:33:37Z</time>
      </trkpt>
      <trkpt lat="36.4647820" lon="-6.1639410">
        <ele>-8.6</ele>
        <time>2023-01-28T10:33:38Z</time>
      </trkpt>
      <trkpt lat="36.4648220" lon="-6.1639670">
        <ele>-8.4</ele>
        <time>2023-01-28T10:33:39Z</time>
      </trkpt>
      <trkpt lat="36.4648560" lon="-6.1639990">
        <ele>-8.4</ele>
        <time>2023-01-28T10:33:40Z</time>
      </trkpt>
      <trkpt lat="36.4648980" lon="-6.1640310">
        <ele>-8.4</ele>
        <time>2023-01-28T10:33:41Z</time>
      </trkpt>
      <trkpt lat="36.4649400" lon="-6.1640590">
        <ele>-8.6</ele>
        <time>2023-01-28T10:33:42Z</time>
      </trkpt>
      <trkpt lat="36.4649740" lon="-6.1641000">
        <ele>-8.6</ele>
        <time>2023-01-28T10:33:43Z</time>
      </trkpt>
      <trkpt lat="36.4650070" lon="-6.1641290">
        <ele>-8.4</ele>
        <time>2023-01-28T10:33:44Z</time>
      </trkpt>
      <trkpt lat="36.4650360" lon="-6.1641590">
        <ele>-8.6</ele>
        <time>2023-01-28T10:33:45Z</time>
      </trkpt>
      <trkpt lat="36.4650710" lon="-6.1641910">
        <ele>-8.6</ele>
        <time>2023-01-28T10:33:46Z</time>
      </trkpt>
      <trkpt lat="36.4651080" lon="-6.1642300">
        <ele>-8.6</ele>
        <time>2023-01-28T10:33:47Z</time>
      </trkpt>
      <trkpt lat="36.4651430" lon="-6.1642550">
        <ele>-8.4</ele>
        <time>2023-01-28T10:33:48Z</time>
      </trkpt>
      <trkpt lat="36.4651730" lon="-6.1642840">
        <ele>-8.4</ele>
        <time>2023-01-28T10:33:49Z</time>
      </trkpt>
      <trkpt lat="36.4652050" lon="-6.1643100">
        <ele>-8.4</ele>
        <time>2023-01-28T10:33:50Z</time>
      </trkpt>
      <trkpt lat="36.4652230" lon="-6.1643510">
        <ele>-8.4</ele>
        <time>2023-01-28T10:33:51Z</time>
      </trkpt>
      <trkpt lat="36.4652600" lon="-6.1643690">
        <ele>-8.6</ele>
        <time>2023-01-28T10:33:52Z</time>
      </trkpt>
      <trkpt lat="36.4652850" lon="-6.1643950">
        <ele>-8.4</ele>
        <time>2023-01-28T10:33:53Z</time>
      </trkpt>
      <trkpt lat="36.4653140" lon="-6.1644260">
        <ele>-8.4</ele>
        <time>2023-01-28T10:33:54Z</time>
      </trkpt>
      <trkpt lat="36.4653340" lon="-6.1644650">
        <ele>-8.4</ele>
        <time>2023-01-28T10:33:55Z</time>
      </trkpt>
      <trkpt lat="36.4653500" lon="-6.1645010">
        <ele>-8.4</ele>
        <time>2023-01-28T10:33:56Z</time>
      </trkpt>
      <trkpt lat="36.4653730" lon="-6.1645550">
        <ele>-8.4</ele>
        <time>2023-01-28T10:33:57Z</time>
      </trkpt>
      <trkpt lat="36.4654010" lon="-6.1645720">
        <ele>-8.6</ele>
        <time>2023-01-28T10:33:58Z</time>
      </trkpt>
      <trkpt lat="36.4654320" lon="-6.1645820">
        <ele>-8.6</ele>
        <time>2023-01-28T10:33:59Z</time>
      </trkpt>
      <trkpt lat="36.4654660" lon="-6.1645770">
        <ele>-8.8</ele>
        <time>2023-01-28T10:34:00Z</time>
      </trkpt>
      <trkpt lat="36.4655020" lon="-6.1645540">
        <ele>-8.8</ele>
        <time>2023-01-28T10:34:01Z</time>
      </trkpt>
      <trkpt lat="36.4655250" lon="-6.1645270">
        <ele>-9.0</ele>
        <time>2023-01-28T10:34:02Z</time>
      </trkpt>
      <trkpt lat="36.4655560" lon="-6.1644990">
        <ele>-9.0</ele>
        <time>2023-01-28T10:34:03Z</time>
      </trkpt>
      <trkpt lat="36.4655810" lon="-6.1644600">
        <ele>-8.8</ele>
        <time>2023-01-28T10:34:04Z</time>
      </trkpt>
      <trkpt lat="36.4655860" lon="-6.1644500">
        <ele>-8.8</ele>
        <time>2023-01-28T10:34:05Z</time>
      </trkpt>
      <trkpt lat="36.4655580" lon="-6.1644080">
        <ele>-8.8</ele>
        <time>2023-01-28T10:34:06Z</time>
      </trkpt>
      <trkpt lat="36.4655370" lon="-6.1643870">
        <ele>-8.6</ele>
        <time>2023-01-28T10:34:07Z</time>
      </trkpt>
      <trkpt lat="36.4655030" lon="-6.1643490">
        <ele>-8.4</ele>
        <time>2023-01-28T10:34:08Z</time>
      </trkpt>
      <trkpt lat="36.4654880" lon="-6.1643410">
        <ele>-8.2</ele>
        <time>2023-01-28T10:34:09Z</time>
      </trkpt>
      <trkpt lat="36.4654660" lon="-6.1643130">
        <ele>-8.0</ele>
        <time>2023-01-28T10:34:10Z</time>
      </trkpt>
      <trkpt lat="36.4654440" lon="-6.1642880">
        <ele>-7.8</ele>
        <time>2023-01-28T10:34:11Z</time>
      </trkpt>
      <trkpt lat="36.4654290" lon="-6.1642630">
        <ele>-7.4</ele>
        <time>2023-01-28T10:34:12Z</time>
      </trkpt>
      <trkpt lat="36.4654030" lon="-6.1642530">
        <ele>-7.4</ele>
        <time>2023-01-28T10:34:13Z</time>
      </trkpt>
      <trkpt lat="36.4653880" lon="-6.1642680">
        <ele>-7.2</ele>
        <time>2023-01-28T10:34:14Z</time>
      </trkpt>
      <trkpt lat="36.4653950" lon="-6.1642940">
        <ele>-7.0</ele>
        <time>2023-01-28T10:34:15Z</time>
      </trkpt>
      <trkpt lat="36.4654170" lon="-6.1643190">
        <ele>-7.0</ele>
        <time>2023-01-28T10:34:16Z</time>
      </trkpt>
      <trkpt lat="36.4654350" lon="-6.1643480">
        <ele>-7.0</ele>
        <time>2023-01-28T10:34:17Z</time>
      </trkpt>
      <trkpt lat="36.4654540" lon="-6.1643650">
        <ele>-6.8</ele>
        <time>2023-01-28T10:34:18Z</time>
      </trkpt>
      <trkpt lat="36.4654820" lon="-6.1643780">
        <ele>-6.4</ele>
        <time>2023-01-28T10:34:19Z</time>
      </trkpt>
      <trkpt lat="36.4655100" lon="-6.1644020">
        <ele>-6.4</ele>
        <time>2023-01-28T10:34:20Z</time>
      </trkpt>
      <trkpt lat="36.4655390" lon="-6.1644280">
        <ele>-6.2</ele>
        <time>2023-01-28T10:34:21Z</time>
      </trkpt>
      <trkpt lat="36.4655530" lon="-6.1644540">
        <ele>-6.0</ele>
        <time>2023-01-28T10:34:22Z</time>
      </trkpt>
      <trkpt lat="36.4655700" lon="-6.1644900">
        <ele>-5.6</ele>
        <time>2023-01-28T10:34:23Z</time>
      </trkpt>
      <trkpt lat="36.4656000" lon="-6.1645120">
        <ele>-5.6</ele>
        <time>2023-01-28T10:34:24Z</time>
      </trkpt>
      <trkpt lat="36.4656300" lon="-6.1645410">
        <ele>-5.4</ele>
        <time>2023-01-28T10:34:25Z</time>
      </trkpt>
      <trkpt lat="36.4656560" lon="-6.1645670">
        <ele>-5.4</ele>
        <time>2023-01-28T10:34:26Z</time>
      </trkpt>
      <trkpt lat="36.4656740" lon="-6.1645790">
        <ele>-5.4</ele>
        <time>2023-01-28T10:34:27Z</time>
      </trkpt>
      <trkpt lat="36.4656830" lon="-6.1646030">
        <ele>-5.2</ele>
        <time>2023-01-28T10:34:28Z</time>
      </trkpt>
      <trkpt lat="36.4656850" lon="-6.1646190">
        <ele>-5.0</ele>
        <time>2023-01-28T10:34:29Z</time>
      </trkpt>
      <trkpt lat="36.4657030" lon="-6.1646230">
        <ele>-5.0</ele>
        <time>2023-01-28T10:34:30Z</time>
      </trkpt>
      <trkpt lat="36.4657210" lon="-6.1646490">
        <ele>-4.8</ele>
        <time>2023-01-28T10:34:31Z</time>
      </trkpt>
      <trkpt lat="36.4657380" lon="-6.1646820">
        <ele>-5.0</ele>
        <time>2023-01-28T10:34:32Z</time>
      </trkpt>
      <trkpt lat="36.4657480" lon="-6.1647060">
        <ele>-4.8</ele>
        <time>2023-01-28T10:34:33Z</time>
      </trkpt>
      <trkpt lat="36.4657740" lon="-6.1647370">
        <ele>-4.8</ele>
        <time>2023-01-28T10:34:34Z</time>
      </trkpt>
      <trkpt lat="36.4658050" lon="-6.1647850">
        <ele>-5.0</ele>
        <time>2023-01-28T10:34:35Z</time>
      </trkpt>
      <trkpt lat="36.4658140" lon="-6.1648030">
        <ele>-5.0</ele>
        <time>2023-01-28T10:34:36Z</time>
      </trkpt>
      <trkpt lat="36.4658430" lon="-6.1648270">
        <ele>-5.0</ele>
        <time>2023-01-28T10:34:37Z</time>
      </trkpt>
      <trkpt lat="36.4658640" lon="-6.1648580">
        <ele>-4.8</ele>
        <time>2023-01-28T10:34:38Z</time>
      </trkpt>
      <trkpt lat="36.4658800" lon="-6.1648890">
        <ele>-4.8</ele>
        <time>2023-01-28T10:34:39Z</time>
      </trkpt>
      <trkpt lat="36.4658960" lon="-6.1649270">
        <ele>-4.8</ele>
        <time>2023-01-28T10:34:40Z</time>
      </trkpt>
      <trkpt lat="36.4659110" lon="-6.1649500">
        <ele>-4.4</ele>
        <time>2023-01-28T10:34:41Z</time>
      </trkpt>
      <trkpt lat="36.4659310" lon="-6.1649730">
        <ele>-4.6</ele>
        <time>2023-01-28T10:34:42Z</time>
      </trkpt>
      <trkpt lat="36.4659460" lon="-6.1649970">
        <ele>-4.8</ele>
        <time>2023-01-28T10:34:43Z</time>
      </trkpt>
      <trkpt lat="36.4659730" lon="-6.1650280">
        <ele>-4.8</ele>
        <time>2023-01-28T10:34:44Z</time>
      </trkpt>
      <trkpt lat="36.4659960" lon="-6.1650700">
        <ele>-4.6</ele>
        <time>2023-01-28T10:34:45Z</time>
      </trkpt>
      <trkpt lat="36.4660190" lon="-6.1651090">
        <ele>-4.6</ele>
        <time>2023-01-28T10:34:46Z</time>
      </trkpt>
      <trkpt lat="36.4660320" lon="-6.1651550">
        <ele>-4.6</ele>
        <time>2023-01-28T10:34:47Z</time>
      </trkpt>
      <trkpt lat="36.4660420" lon="-6.1651790">
        <ele>-5.0</ele>
        <time>2023-01-28T10:34:48Z</time>
      </trkpt>
      <trkpt lat="36.4660720" lon="-6.1652400">
        <ele>-4.6</ele>
        <time>2023-01-28T10:34:49Z</time>
      </trkpt>
      <trkpt lat="36.4660820" lon="-6.1652660">
        <ele>-4.2</ele>
        <time>2023-01-28T10:34:50Z</time>
      </trkpt>
      <trkpt lat="36.4660990" lon="-6.1653040">
        <ele>-4.6</ele>
        <time>2023-01-28T10:34:51Z</time>
      </trkpt>
      <trkpt lat="36.4661140" lon="-6.1653360">
        <ele>-4.6</ele>
        <time>2023-01-28T10:34:52Z</time>
      </trkpt>
      <trkpt lat="36.4661350" lon="-6.1653710">
        <ele>-4.8</ele>
        <time>2023-01-28T10:34:53Z</time>
      </trkpt>
      <trkpt lat="36.4661580" lon="-6.1654120">
        <ele>-4.8</ele>
        <time>2023-01-28T10:34:54Z</time>
      </trkpt>
      <trkpt lat="36.4661730" lon="-6.1654580">
        <ele>-5.0</ele>
        <time>2023-01-28T10:34:55Z</time>
      </trkpt>
      <trkpt lat="36.4661920" lon="-6.1654970">
        <ele>-4.4</ele>
        <time>2023-01-28T10:34:56Z</time>
      </trkpt>
      <trkpt lat="36.4662080" lon="-6.1655350">
        <ele>-4.4</ele>
        <time>2023-01-28T10:34:57Z</time>
      </trkpt>
      <trkpt lat="36.4662200" lon="-6.1655820">
        <ele>-4.2</ele>
        <time>2023-01-28T10:34:58Z</time>
      </trkpt>
      <trkpt lat="36.4662320" lon="-6.1656240">
        <ele>-4.2</ele>
        <time>2023-01-28T10:34:59Z</time>
      </trkpt>
      <trkpt lat="36.4662430" lon="-6.1656750">
        <ele>-4.6</ele>
        <time>2023-01-28T10:35:00Z</time>
      </trkpt>
      <trkpt lat="36.4662580" lon="-6.1657250">
        <ele>-4.8</ele>
        <time>2023-01-28T10:35:01Z</time>
      </trkpt>
      <trkpt lat="36.4662730" lon="-6.1657800">
        <ele>-4.8</ele>
        <time>2023-01-28T10:35:02Z</time>
      </trkpt>
      <trkpt lat="36.4662960" lon="-6.1658380">
        <ele>-5.0</ele>
        <time>2023-01-28T10:35:03Z</time>
      </trkpt>
      <trkpt lat="36.4663090" lon="-6.1658950">
        <ele>-5.4</ele>
        <time>2023-01-28T10:35:04Z</time>
      </trkpt>
      <trkpt lat="36.4663310" lon="-6.1659510">
        <ele>-5.6</ele>
        <time>2023-01-28T10:35:05Z</time>
      </trkpt>
      <trkpt lat="36.4663550" lon="-6.1660050">
        <ele>-5.6</ele>
        <time>2023-01-28T10:35:06Z</time>
      </trkpt>
      <trkpt lat="36.4663740" lon="-6.1660540">
        <ele>-5.6</ele>
        <time>2023-01-28T10:35:07Z</time>
      </trkpt>
      <trkpt lat="36.4663880" lon="-6.1661100">
        <ele>-5.4</ele>
        <time>2023-01-28T10:35:08Z</time>
      </trkpt>
      <trkpt lat="36.4663970" lon="-6.1661710">
        <ele>-5.6</ele>
        <time>2023-01-28T10:35:09Z</time>
      </trkpt>
      <trkpt lat="36.4664010" lon="-6.1662300">
        <ele>-5.8</ele>
        <time>2023-01-28T10:35:10Z</time>
      </trkpt>
      <trkpt lat="36.4664100" lon="-6.1662880">
        <ele>-6.0</ele>
        <time>2023-01-28T10:35:11Z</time>
      </trkpt>
      <trkpt lat="36.4664190" lon="-6.1663470">
        <ele>-6.0</ele>
        <time>2023-01-28T10:35:12Z</time>
      </trkpt>
      <trkpt lat="36.4664280" lon="-6.1664010">
        <ele>-6.4</ele>
        <time>2023-01-28T10:35:13Z</time>
      </trkpt>
      <trkpt lat="36.4664340" lon="-6.1664590">
        <ele>-6.8</ele>
        <time>2023-01-28T10:35:14Z</time>
      </trkpt>
      <trkpt lat="36.4664470" lon="-6.1665110">
        <ele>-7.0</ele>
        <time>2023-01-28T10:35:15Z</time>
      </trkpt>
      <trkpt lat="36.4664600" lon="-6.1665770">
        <ele>-6.8</ele>
        <time>2023-01-28T10:35:16Z</time>
      </trkpt>
      <trkpt lat="36.4664730" lon="-6.1666470">
        <ele>-7.0</ele>
        <time>2023-01-28T10:35:17Z</time>
      </trkpt>
      <trkpt lat="36.4664730" lon="-6.1667160">
        <ele>-7.0</ele>
        <time>2023-01-28T10:35:18Z</time>
      </trkpt>
      <trkpt lat="36.4664850" lon="-6.1667790">
        <ele>-6.8</ele>
        <time>2023-01-28T10:35:19Z</time>
      </trkpt>
      <trkpt lat="36.4664980" lon="-6.1668550">
        <ele>-7.0</ele>
        <time>2023-01-28T10:35:20Z</time>
      </trkpt>
      <trkpt lat="36.4665010" lon="-6.1669150">
        <ele>-7.2</ele>
        <time>2023-01-28T10:35:21Z</time>
      </trkpt>
      <trkpt lat="36.4665040" lon="-6.1669800">
        <ele>-7.2</ele>
        <time>2023-01-28T10:35:22Z</time>
      </trkpt>
      <trkpt lat="36.4665010" lon="-6.1670550">
        <ele>-7.4</ele>
        <time>2023-01-28T10:35:23Z</time>
      </trkpt>
      <trkpt lat="36.4664950" lon="-6.1671190">
        <ele>-7.4</ele>
        <time>2023-01-28T10:35:24Z</time>
      </trkpt>
      <trkpt lat="36.4664960" lon="-6.1671770">
        <ele>-7.6</ele>
        <time>2023-01-28T10:35:25Z</time>
      </trkpt>
      <trkpt lat="36.4665080" lon="-6.1672490">
        <ele>-7.8</ele>
        <time>2023-01-28T10:35:26Z</time>
      </trkpt>
      <trkpt lat="36.4665080" lon="-6.1673250">
        <ele>-7.8</ele>
        <time>2023-01-28T10:35:27Z</time>
      </trkpt>
      <trkpt lat="36.4664990" lon="-6.1673900">
        <ele>-7.8</ele>
        <time>2023-01-28T10:35:28Z</time>
      </trkpt>
      <trkpt lat="36.4664860" lon="-6.1674590">
        <ele>-8.0</ele>
        <time>2023-01-28T10:35:29Z</time>
      </trkpt>
      <trkpt lat="36.4664850" lon="-6.1675320">
        <ele>-7.8</ele>
        <time>2023-01-28T10:35:30Z</time>
      </trkpt>
      <trkpt lat="36.4664730" lon="-6.1675970">
        <ele>-7.8</ele>
        <time>2023-01-28T10:35:31Z</time>
      </trkpt>
      <trkpt lat="36.4664570" lon="-6.1676690">
        <ele>-7.8</ele>
        <time>2023-01-28T10:35:32Z</time>
      </trkpt>
      <trkpt lat="36.4664410" lon="-6.1677460">
        <ele>-7.8</ele>
        <time>2023-01-28T10:35:33Z</time>
      </trkpt>
      <trkpt lat="36.4664330" lon="-6.1678250">
        <ele>-8.0</ele>
        <time>2023-01-28T10:35:34Z</time>
      </trkpt>
      <trkpt lat="36.4664250" lon="-6.1679070">
        <ele>-8.0</ele>
        <time>2023-01-28T10:35:35Z</time>
      </trkpt>
      <trkpt lat="36.4664140" lon="-6.1679950">
        <ele>-8.2</ele>
        <time>2023-01-28T10:35:36Z</time>
      </trkpt>
      <trkpt lat="36.4664030" lon="-6.1680720">
        <ele>-8.2</ele>
        <time>2023-01-28T10:35:37Z</time>
      </trkpt>
      <trkpt lat="36.4663880" lon="-6.1681410">
        <ele>-8.6</ele>
        <time>2023-01-28T10:35:38Z</time>
      </trkpt>
      <trkpt lat="36.4663740" lon="-6.1682130">
        <ele>-8.4</ele>
        <time>2023-01-28T10:35:39Z</time>
      </trkpt>
      <trkpt lat="36.4663690" lon="-6.1682780">
        <ele>-8.4</ele>
        <time>2023-01-28T10:35:40Z</time>
      </trkpt>
      <trkpt lat="36.4663560" lon="-6.1683520">
        <ele>-8.4</ele>
        <time>2023-01-28T10:35:41Z</time>
      </trkpt>
      <trkpt lat="36.4663470" lon="-6.1684130">
        <ele>-8.2</ele>
        <time>2023-01-28T10:35:42Z</time>
      </trkpt>
      <trkpt lat="36.4663330" lon="-6.1684790">
        <ele>-8.2</ele>
        <time>2023-01-28T10:35:43Z</time>
      </trkpt>
      <trkpt lat="36.4663210" lon="-6.1685520">
        <ele>-8.4</ele>
        <time>2023-01-28T10:35:44Z</time>
      </trkpt>
      <trkpt lat="36.4663110" lon="-6.1686180">
        <ele>-8.6</ele>
        <time>2023-01-28T10:35:45Z</time>
      </trkpt>
      <trkpt lat="36.4663040" lon="-6.1686830">
        <ele>-8.8</ele>
        <time>2023-01-28T10:35:46Z</time>
      </trkpt>
      <trkpt lat="36.4662960" lon="-6.1687580">
        <ele>-8.6</ele>
        <time>2023-01-28T10:35:47Z</time>
      </trkpt>
      <trkpt lat="36.4662930" lon="-6.1688320">
        <ele>-8.6</ele>
        <time>2023-01-28T10:35:48Z</time>
      </trkpt>
      <trkpt lat="36.4662760" lon="-6.1689120">
        <ele>-8.8</ele>
        <time>2023-01-28T10:35:49Z</time>
      </trkpt>
      <trkpt lat="36.4662610" lon="-6.1689780">
        <ele>-8.8</ele>
        <time>2023-01-28T10:35:50Z</time>
      </trkpt>
      <trkpt lat="36.4662520" lon="-6.1690510">
        <ele>-8.8</ele>
        <time>2023-01-28T10:35:51Z</time>
      </trkpt>
      <trkpt lat="36.4662490" lon="-6.1691340">
        <ele>-8.6</ele>
        <time>2023-01-28T10:35:52Z</time>
      </trkpt>
      <trkpt lat="36.4662430" lon="-6.1692020">
        <ele>-8.8</ele>
        <time>2023-01-28T10:35:53Z</time>
      </trkpt>
      <trkpt lat="36.4662440" lon="-6.1692670">
        <ele>-8.8</ele>
        <time>2023-01-28T10:35:54Z</time>
      </trkpt>
      <trkpt lat="36.4662470" lon="-6.1693390">
        <ele>-8.8</ele>
        <time>2023-01-28T10:35:55Z</time>
      </trkpt>
      <trkpt lat="36.4662480" lon="-6.1694190">
        <ele>-8.6</ele>
        <time>2023-01-28T10:35:56Z</time>
      </trkpt>
      <trkpt lat="36.4662490" lon="-6.1694990">
        <ele>-8.6</ele>
        <time>2023-01-28T10:35:57Z</time>
      </trkpt>
      <trkpt lat="36.4662510" lon="-6.1695680">
        <ele>-8.6</ele>
        <time>2023-01-28T10:35:58Z</time>
      </trkpt>
      <trkpt lat="36.4662560" lon="-6.1696550">
        <ele>-8.8</ele>
        <time>2023-01-28T10:35:59Z</time>
      </trkpt>
      <trkpt lat="36.4662570" lon="-6.1697240">
        <ele>-8.8</ele>
        <time>2023-01-28T10:36:00Z</time>
      </trkpt>
      <trkpt lat="36.4662550" lon="-6.1697950">
        <ele>-9.0</ele>
        <time>2023-01-28T10:36:01Z</time>
      </trkpt>
      <trkpt lat="36.4662590" lon="-6.1698600">
        <ele>-9.2</ele>
        <time>2023-01-28T10:36:02Z</time>
      </trkpt>
      <trkpt lat="36.4662600" lon="-6.1699180">
        <ele>-9.2</ele>
        <time>2023-01-28T10:36:03Z</time>
      </trkpt>
      <trkpt lat="36.4662560" lon="-6.1699810">
        <ele>-9.0</ele>
        <time>2023-01-28T10:36:04Z</time>
      </trkpt>
      <trkpt lat="36.4662540" lon="-6.1700520">
        <ele>-8.8</ele>
        <time>2023-01-28T10:36:05Z</time>
      </trkpt>
      <trkpt lat="36.4662610" lon="-6.1701170">
        <ele>-9.0</ele>
        <time>2023-01-28T10:36:06Z</time>
      </trkpt>
      <trkpt lat="36.4662620" lon="-6.1701840">
        <ele>-8.8</ele>
        <time>2023-01-28T10:36:07Z</time>
      </trkpt>
      <trkpt lat="36.4662540" lon="-6.1702510">
        <ele>-9.0</ele>
        <time>2023-01-28T10:36:08Z</time>
      </trkpt>
      <trkpt lat="36.4662640" lon="-6.1703210">
        <ele>-8.8</ele>
        <time>2023-01-28T10:36:09Z</time>
      </trkpt>
      <trkpt lat="36.4662700" lon="-6.1703730">
        <ele>-8.8</ele>
        <time>2023-01-28T10:36:10Z</time>
      </trkpt>
      <trkpt lat="36.4662770" lon="-6.1704470">
        <ele>-9.0</ele>
        <time>2023-01-28T10:36:11Z</time>
      </trkpt>
      <trkpt lat="36.4662860" lon="-6.1705080">
        <ele>-8.6</ele>
        <time>2023-01-28T10:36:12Z</time>
      </trkpt>
      <trkpt lat="36.4662920" lon="-6.1705730">
        <ele>-9.0</ele>
        <time>2023-01-28T10:36:13Z</time>
      </trkpt>
      <trkpt lat="36.4662980" lon="-6.1706290">
        <ele>-9.2</ele>
        <time>2023-01-28T10:36:14Z</time>
      </trkpt>
      <trkpt lat="36.4662890" lon="-6.1706840">
        <ele>-9.2</ele>
        <time>2023-01-28T10:36:15Z</time>
      </trkpt>
      <trkpt lat="36.4663010" lon="-6.1707630">
        <ele>-9.2</ele>
        <time>2023-01-28T10:36:16Z</time>
      </trkpt>
      <trkpt lat="36.4663100" lon="-6.1708280">
        <ele>-8.6</ele>
        <time>2023-01-28T10:36:17Z</time>
      </trkpt>
      <trkpt lat="36.4663270" lon="-6.1708980">
        <ele>-9.0</ele>
        <time>2023-01-28T10:36:18Z</time>
      </trkpt>
      <trkpt lat="36.4663450" lon="-6.1709730">
        <ele>-9.6</ele>
        <time>2023-01-28T10:36:19Z</time>
      </trkpt>
      <trkpt lat="36.4663560" lon="-6.1710550">
        <ele>-8.8</ele>
        <time>2023-01-28T10:36:20Z</time>
      </trkpt>
      <trkpt lat="36.4663610" lon="-6.1711320">
        <ele>-8.2</ele>
        <time>2023-01-28T10:36:21Z</time>
      </trkpt>
      <trkpt lat="36.4663750" lon="-6.1711980">
        <ele>-9.4</ele>
        <time>2023-01-28T10:36:22Z</time>
      </trkpt>
      <trkpt lat="36.4663810" lon="-6.1712640">
        <ele>-9.4</ele>
        <time>2023-01-28T10:36:23Z</time>
      </trkpt>
      <trkpt lat="36.4663940" lon="-6.1713350">
        <ele>-9.4</ele>
        <time>2023-01-28T10:36:24Z</time>
      </trkpt>
      <trkpt lat="36.4664190" lon="-6.1714160">
        <ele>-8.8</ele>
        <time>2023-01-28T10:36:25Z</time>
      </trkpt>
      <trkpt lat="36.4664230" lon="-6.1714830">
        <ele>-9.2</ele>
        <time>2023-01-28T10:36:26Z</time>
      </trkpt>
      <trkpt lat="36.4664320" lon="-6.1715470">
        <ele>-9.4</ele>
        <time>2023-01-28T10:36:27Z</time>
      </trkpt>
      <trkpt lat="36.4664390" lon="-6.1716190">
        <ele>-9.4</ele>
        <time>2023-01-28T10:36:28Z</time>
      </trkpt>
      <trkpt lat="36.4664490" lon="-6.1716880">
        <ele>-9.4</ele>
        <time>2023-01-28T10:36:29Z</time>
      </trkpt>
      <trkpt lat="36.4664610" lon="-6.1717630">
        <ele>-9.4</ele>
        <time>2023-01-28T10:36:30Z</time>
      </trkpt>
      <trkpt lat="36.4664770" lon="-6.1718370">
        <ele>-9.2</ele>
        <time>2023-01-28T10:36:31Z</time>
      </trkpt>
      <trkpt lat="36.4664970" lon="-6.1719070">
        <ele>-9.2</ele>
        <time>2023-01-28T10:36:32Z</time>
      </trkpt>
      <trkpt lat="36.4665150" lon="-6.1719720">
        <ele>-9.2</ele>
        <time>2023-01-28T10:36:33Z</time>
      </trkpt>
      <trkpt lat="36.4665330" lon="-6.1720340">
        <ele>-9.4</ele>
        <time>2023-01-28T10:36:34Z</time>
      </trkpt>
      <trkpt lat="36.4665500" lon="-6.1721080">
        <ele>-9.2</ele>
        <time>2023-01-28T10:36:35Z</time>
      </trkpt>
      <trkpt lat="36.4665530" lon="-6.1721600">
        <ele>-9.2</ele>
        <time>2023-01-28T10:36:36Z</time>
      </trkpt>
      <trkpt lat="36.4665680" lon="-6.1722390">
        <ele>-9.0</ele>
        <time>2023-01-28T10:36:37Z</time>
      </trkpt>
      <trkpt lat="36.4665850" lon="-6.1723100">
        <ele>-8.8</ele>
        <time>2023-01-28T10:36:38Z</time>
      </trkpt>
      <trkpt lat="36.4665800" lon="-6.1723670">
        <ele>-8.8</ele>
        <time>2023-01-28T10:36:39Z</time>
      </trkpt>
      <trkpt lat="36.4665880" lon="-6.1724380">
        <ele>-8.6</ele>
        <time>2023-01-28T10:36:40Z</time>
      </trkpt>
      <trkpt lat="36.4665970" lon="-6.1725120">
        <ele>-8.4</ele>
        <time>2023-01-28T10:36:41Z</time>
      </trkpt>
      <trkpt lat="36.4666000" lon="-6.1725810">
        <ele>-7.6</ele>
        <time>2023-01-28T10:36:42Z</time>
      </trkpt>
      <trkpt lat="36.4666060" lon="-6.1726460">
        <ele>-8.2</ele>
        <time>2023-01-28T10:36:43Z</time>
      </trkpt>
      <trkpt lat="36.4666030" lon="-6.1727130">
        <ele>-8.6</ele>
        <time>2023-01-28T10:36:44Z</time>
      </trkpt>
      <trkpt lat="36.4666010" lon="-6.1727760">
        <ele>-8.8</ele>
        <time>2023-01-28T10:36:45Z</time>
      </trkpt>
      <trkpt lat="36.4665920" lon="-6.1728370">
        <ele>-8.8</ele>
        <time>2023-01-28T10:36:46Z</time>
      </trkpt>
      <trkpt lat="36.4665920" lon="-6.1729010">
        <ele>-8.8</ele>
        <time>2023-01-28T10:36:47Z</time>
      </trkpt>
      <trkpt lat="36.4665890" lon="-6.1729560">
        <ele>-8.8</ele>
        <time>2023-01-28T10:36:48Z</time>
      </trkpt>
      <trkpt lat="36.4665900" lon="-6.1730180">
        <ele>-8.4</ele>
        <time>2023-01-28T10:36:49Z</time>
      </trkpt>
      <trkpt lat="36.4665800" lon="-6.1730650">
        <ele>-8.6</ele>
        <time>2023-01-28T10:36:50Z</time>
      </trkpt>
      <trkpt lat="36.4665830" lon="-6.1731210">
        <ele>-9.0</ele>
        <time>2023-01-28T10:36:51Z</time>
      </trkpt>
      <trkpt lat="36.4665780" lon="-6.1731840">
        <ele>-8.8</ele>
        <time>2023-01-28T10:36:52Z</time>
      </trkpt>
      <trkpt lat="36.4665670" lon="-6.1732460">
        <ele>-9.0</ele>
        <time>2023-01-28T10:36:53Z</time>
      </trkpt>
      <trkpt lat="36.4665610" lon="-6.1733130">
        <ele>-9.0</ele>
        <time>2023-01-28T10:36:54Z</time>
      </trkpt>
      <trkpt lat="36.4665520" lon="-6.1733760">
        <ele>-9.0</ele>
        <time>2023-01-28T10:36:55Z</time>
      </trkpt>
      <trkpt lat="36.4665390" lon="-6.1734260">
        <ele>-8.8</ele>
        <time>2023-01-28T10:36:56Z</time>
      </trkpt>
      <trkpt lat="36.4665250" lon="-6.1734970">
        <ele>-9.0</ele>
        <time>2023-01-28T10:36:57Z</time>
      </trkpt>
      <trkpt lat="36.4665170" lon="-6.1735620">
        <ele>-9.0</ele>
        <time>2023-01-28T10:36:58Z</time>
      </trkpt>
      <trkpt lat="36.4665060" lon="-6.1736380">
        <ele>-9.0</ele>
        <time>2023-01-28T10:36:59Z</time>
      </trkpt>
      <trkpt lat="36.4664920" lon="-6.1737120">
        <ele>-9.0</ele>
        <time>2023-01-28T10:37:00Z</time>
      </trkpt>
      <trkpt lat="36.4664770" lon="-6.1737900">
        <ele>-9.0</ele>
        <time>2023-01-28T10:37:01Z</time>
      </trkpt>
      <trkpt lat="36.4664580" lon="-6.1738670">
        <ele>-9.0</ele>
        <time>2023-01-28T10:37:02Z</time>
      </trkpt>
      <trkpt lat="36.4664530" lon="-6.1739260">
        <ele>-9.2</ele>
        <time>2023-01-28T10:37:03Z</time>
      </trkpt>
      <trkpt lat="36.4664470" lon="-6.1739980">
        <ele>-9.2</ele>
        <time>2023-01-28T10:37:04Z</time>
      </trkpt>
      <trkpt lat="36.4664420" lon="-6.1740700">
        <ele>-9.0</ele>
        <time>2023-01-28T10:37:05Z</time>
      </trkpt>
      <trkpt lat="36.4664380" lon="-6.1741450">
        <ele>-9.0</ele>
        <time>2023-01-28T10:37:06Z</time>
      </trkpt>
      <trkpt lat="36.4664340" lon="-6.1742070">
        <ele>-9.0</ele>
        <time>2023-01-28T10:37:07Z</time>
      </trkpt>
      <trkpt lat="36.4664290" lon="-6.1742710">
        <ele>-9.2</ele>
        <time>2023-01-28T10:37:08Z</time>
      </trkpt>
      <trkpt lat="36.4664210" lon="-6.1743310">
        <ele>-9.2</ele>
        <time>2023-01-28T10:37:09Z</time>
      </trkpt>
      <trkpt lat="36.4664140" lon="-6.1743990">
        <ele>-9.2</ele>
        <time>2023-01-28T10:37:10Z</time>
      </trkpt>
      <trkpt lat="36.4664180" lon="-6.1744780">
        <ele>-9.2</ele>
        <time>2023-01-28T10:37:11Z</time>
      </trkpt>
      <trkpt lat="36.4664270" lon="-6.1745560">
        <ele>-9.4</ele>
        <time>2023-01-28T10:37:12Z</time>
      </trkpt>
      <trkpt lat="36.4664340" lon="-6.1746250">
        <ele>-9.4</ele>
        <time>2023-01-28T10:37:13Z</time>
      </trkpt>
      <trkpt lat="36.4664380" lon="-6.1747020">
        <ele>-9.4</ele>
        <time>2023-01-28T10:37:14Z</time>
      </trkpt>
      <trkpt lat="36.4664420" lon="-6.1747690">
        <ele>-9.4</ele>
        <time>2023-01-28T10:37:15Z</time>
      </trkpt>
      <trkpt lat="36.4664500" lon="-6.1748350">
        <ele>-9.2</ele>
        <time>2023-01-28T10:37:16Z</time>
      </trkpt>
      <trkpt lat="36.4664630" lon="-6.1749040">
        <ele>-9.2</ele>
        <time>2023-01-28T10:37:17Z</time>
      </trkpt>
      <trkpt lat="36.4664750" lon="-6.1749730">
        <ele>-9.2</ele>
        <time>2023-01-28T10:37:18Z</time>
      </trkpt>
      <trkpt lat="36.4664920" lon="-6.1750400">
        <ele>-9.2</ele>
        <time>2023-01-28T10:37:19Z</time>
      </trkpt>
      <trkpt lat="36.4665130" lon="-6.1751070">
        <ele>-9.0</ele>
        <time>2023-01-28T10:37:20Z</time>
      </trkpt>
      <trkpt lat="36.4665380" lon="-6.1751780">
        <ele>-8.8</ele>
        <time>2023-01-28T10:37:21Z</time>
      </trkpt>
      <trkpt lat="36.4665600" lon="-6.1752480">
        <ele>-8.6</ele>
        <time>2023-01-28T10:37:22Z</time>
      </trkpt>
      <trkpt lat="36.4665730" lon="-6.1753040">
        <ele>-8.4</ele>
        <time>2023-01-28T10:37:23Z</time>
      </trkpt>
      <trkpt lat="36.4665930" lon="-6.1753580">
        <ele>-8.2</ele>
        <time>2023-01-28T10:37:24Z</time>
      </trkpt>
      <trkpt lat="36.4666060" lon="-6.1754150">
        <ele>-8.4</ele>
        <time>2023-01-28T10:37:25Z</time>
      </trkpt>
      <trkpt lat="36.4666150" lon="-6.1754660">
        <ele>-8.6</ele>
        <time>2023-01-28T10:37:26Z</time>
      </trkpt>
      <trkpt lat="36.4666270" lon="-6.1755170">
        <ele>-8.6</ele>
        <time>2023-01-28T10:37:27Z</time>
      </trkpt>
      <trkpt lat="36.4666410" lon="-6.1755720">
        <ele>-8.8</ele>
        <time>2023-01-28T10:37:28Z</time>
      </trkpt>
      <trkpt lat="36.4666510" lon="-6.1756320">
        <ele>-8.8</ele>
        <time>2023-01-28T10:37:29Z</time>
      </trkpt>
      <trkpt lat="36.4666700" lon="-6.1756920">
        <ele>-9.0</ele>
        <time>2023-01-28T10:37:30Z</time>
      </trkpt>
      <trkpt lat="36.4666880" lon="-6.1757580">
        <ele>-9.0</ele>
        <time>2023-01-28T10:37:31Z</time>
      </trkpt>
      <trkpt lat="36.4667010" lon="-6.1758110">
        <ele>-8.8</ele>
        <time>2023-01-28T10:37:32Z</time>
      </trkpt>
      <trkpt lat="36.4667120" lon="-6.1758770">
        <ele>-8.8</ele>
        <time>2023-01-28T10:37:33Z</time>
      </trkpt>
      <trkpt lat="36.4667230" lon="-6.1759380">
        <ele>-8.8</ele>
        <time>2023-01-28T10:37:34Z</time>
      </trkpt>
      <trkpt lat="36.4667330" lon="-6.1759880">
        <ele>-8.4</ele>
        <time>2023-01-28T10:37:35Z</time>
      </trkpt>
      <trkpt lat="36.4667420" lon="-6.1760560">
        <ele>-8.4</ele>
        <time>2023-01-28T10:37:36Z</time>
      </trkpt>
      <trkpt lat="36.4667570" lon="-6.1761130">
        <ele>-8.8</ele>
        <time>2023-01-28T10:37:37Z</time>
      </trkpt>
      <trkpt lat="36.4667690" lon="-6.1761710">
        <ele>-9.2</ele>
        <time>2023-01-28T10:37:38Z</time>
      </trkpt>
      <trkpt lat="36.4667850" lon="-6.1762420">
        <ele>-9.4</ele>
        <time>2023-01-28T10:37:39Z</time>
      </trkpt>
      <trkpt lat="36.4667970" lon="-6.1763040">
        <ele>-9.4</ele>
        <time>2023-01-28T10:37:40Z</time>
      </trkpt>
      <trkpt lat="36.4668180" lon="-6.1763630">
        <ele>-9.4</ele>
        <time>2023-01-28T10:37:41Z</time>
      </trkpt>
      <trkpt lat="36.4668420" lon="-6.1764340">
        <ele>-9.4</ele>
        <time>2023-01-28T10:37:42Z</time>
      </trkpt>
      <trkpt lat="36.4668700" lon="-6.1764850">
        <ele>-9.4</ele>
        <time>2023-01-28T10:37:43Z</time>
      </trkpt>
      <trkpt lat="36.4668790" lon="-6.1765470">
        <ele>-9.4</ele>
        <time>2023-01-28T10:37:44Z</time>
      </trkpt>
      <trkpt lat="36.4668980" lon="-6.1766000">
        <ele>-9.4</ele>
        <time>2023-01-28T10:37:45Z</time>
      </trkpt>
      <trkpt lat="36.4669240" lon="-6.1766630">
        <ele>-9.2</ele>
        <time>2023-01-28T10:37:46Z</time>
      </trkpt>
      <trkpt lat="36.4669500" lon="-6.1767220">
        <ele>-9.2</ele>
        <time>2023-01-28T10:37:47Z</time>
      </trkpt>
      <trkpt lat="36.4669660" lon="-6.1767680">
        <ele>-9.2</ele>
        <time>2023-01-28T10:37:48Z</time>
      </trkpt>
      <trkpt lat="36.4669870" lon="-6.1768200">
        <ele>-9.0</ele>
        <time>2023-01-28T10:37:49Z</time>
      </trkpt>
      <trkpt lat="36.4670080" lon="-6.1768610">
        <ele>-9.2</ele>
        <time>2023-01-28T10:37:50Z</time>
      </trkpt>
      <trkpt lat="36.4670410" lon="-6.1769110">
        <ele>-9.2</ele>
        <time>2023-01-28T10:37:51Z</time>
      </trkpt>
      <trkpt lat="36.4670740" lon="-6.1769680">
        <ele>-9.4</ele>
        <time>2023-01-28T10:37:52Z</time>
      </trkpt>
      <trkpt lat="36.4670960" lon="-6.1770270">
        <ele>-9.4</ele>
        <time>2023-01-28T10:37:53Z</time>
      </trkpt>
      <trkpt lat="36.4671250" lon="-6.1770760">
        <ele>-8.8</ele>
        <time>2023-01-28T10:37:54Z</time>
      </trkpt>
      <trkpt lat="36.4671540" lon="-6.1771220">
        <ele>-8.8</ele>
        <time>2023-01-28T10:37:55Z</time>
      </trkpt>
      <trkpt lat="36.4671900" lon="-6.1771710">
        <ele>-9.0</ele>
        <time>2023-01-28T10:37:56Z</time>
      </trkpt>
      <trkpt lat="36.4672180" lon="-6.1772040">
        <ele>-9.0</ele>
        <time>2023-01-28T10:37:57Z</time>
      </trkpt>
      <trkpt lat="36.4672520" lon="-6.1772540">
        <ele>-9.2</ele>
        <time>2023-01-28T10:37:58Z</time>
      </trkpt>
      <trkpt lat="36.4672950" lon="-6.1773020">
        <ele>-9.2</ele>
        <time>2023-01-28T10:37:59Z</time>
      </trkpt>
      <trkpt lat="36.4673320" lon="-6.1773490">
        <ele>-9.0</ele>
        <time>2023-01-28T10:38:00Z</time>
      </trkpt>
      <trkpt lat="36.4673730" lon="-6.1773840">
        <ele>-9.2</ele>
        <time>2023-01-28T10:38:01Z</time>
      </trkpt>
      <trkpt lat="36.4674140" lon="-6.1774210">
        <ele>-9.2</ele>
        <time>2023-01-28T10:38:02Z</time>
      </trkpt>
      <trkpt lat="36.4674550" lon="-6.1774610">
        <ele>-9.0</ele>
        <time>2023-01-28T10:38:03Z</time>
      </trkpt>
      <trkpt lat="36.4674980" lon="-6.1775120">
        <ele>-9.0</ele>
        <time>2023-01-28T10:38:04Z</time>
      </trkpt>
      <trkpt lat="36.4675420" lon="-6.1775520">
        <ele>-9.0</ele>
        <time>2023-01-28T10:38:05Z</time>
      </trkpt>
      <trkpt lat="36.4675840" lon="-6.1775820">
        <ele>-9.0</ele>
        <time>2023-01-28T10:38:06Z</time>
      </trkpt>
      <trkpt lat="36.4676340" lon="-6.1776060">
        <ele>-9.0</ele>
        <time>2023-01-28T10:38:07Z</time>
      </trkpt>
      <trkpt lat="36.4676640" lon="-6.1776360">
        <ele>-8.4</ele>
        <time>2023-01-28T10:38:08Z</time>
      </trkpt>
      <trkpt lat="36.4676830" lon="-6.1776890">
        <ele>-8.0</ele>
        <time>2023-01-28T10:38:09Z</time>
      </trkpt>
      <trkpt lat="36.4676900" lon="-6.1777270">
        <ele>-7.6</ele>
        <time>2023-01-28T10:38:10Z</time>
      </trkpt>
      <trkpt lat="36.4676930" lon="-6.1777700">
        <ele>-7.4</ele>
        <time>2023-01-28T10:38:11Z</time>
      </trkpt>
      <trkpt lat="36.4676900" lon="-6.1778160">
        <ele>-7.8</ele>
        <time>2023-01-28T10:38:12Z</time>
      </trkpt>
      <trkpt lat="36.4677000" lon="-6.1778630">
        <ele>-7.6</ele>
        <time>2023-01-28T10:38:13Z</time>
      </trkpt>
      <trkpt lat="36.4677030" lon="-6.1778990">
        <ele>-7.2</ele>
        <time>2023-01-28T10:38:14Z</time>
      </trkpt>
      <trkpt lat="36.4677070" lon="-6.1779390">
        <ele>-7.6</ele>
        <time>2023-01-28T10:38:15Z</time>
      </trkpt>
      <trkpt lat="36.4677060" lon="-6.1779890">
        <ele>-8.2</ele>
        <time>2023-01-28T10:38:16Z</time>
      </trkpt>
      <trkpt lat="36.4677080" lon="-6.1780360">
        <ele>-8.4</ele>
        <time>2023-01-28T10:38:17Z</time>
      </trkpt>
      <trkpt lat="36.4677150" lon="-6.1780920">
        <ele>-8.6</ele>
        <time>2023-01-28T10:38:18Z</time>
      </trkpt>
      <trkpt lat="36.4677140" lon="-6.1781510">
        <ele>-9.2</ele>
        <time>2023-01-28T10:38:19Z</time>
      </trkpt>
      <trkpt lat="36.4677290" lon="-6.1782180">
        <ele>-9.2</ele>
        <time>2023-01-28T10:38:20Z</time>
      </trkpt>
      <trkpt lat="36.4677330" lon="-6.1782800">
        <ele>-9.0</ele>
        <time>2023-01-28T10:38:21Z</time>
      </trkpt>
      <trkpt lat="36.4677470" lon="-6.1783460">
        <ele>-9.2</ele>
        <time>2023-01-28T10:38:22Z</time>
      </trkpt>
      <trkpt lat="36.4677470" lon="-6.1784050">
        <ele>-9.4</ele>
        <time>2023-01-28T10:38:23Z</time>
      </trkpt>
      <trkpt lat="36.4677560" lon="-6.1784750">
        <ele>-9.4</ele>
        <time>2023-01-28T10:38:24Z</time>
      </trkpt>
      <trkpt lat="36.4677590" lon="-6.1785310">
        <ele>-9.0</ele>
        <time>2023-01-28T10:38:25Z</time>
      </trkpt>
      <trkpt lat="36.4677640" lon="-6.1785870">
        <ele>-8.6</ele>
        <time>2023-01-28T10:38:26Z</time>
      </trkpt>
      <trkpt lat="36.4677720" lon="-6.1786490">
        <ele>-9.2</ele>
        <time>2023-01-28T10:38:27Z</time>
      </trkpt>
      <trkpt lat="36.4677810" lon="-6.1787090">
        <ele>-9.2</ele>
        <time>2023-01-28T10:38:28Z</time>
      </trkpt>
      <trkpt lat="36.4677850" lon="-6.1787620">
        <ele>-9.6</ele>
        <time>2023-01-28T10:38:29Z</time>
      </trkpt>
      <trkpt lat="36.4677870" lon="-6.1788240">
        <ele>-9.6</ele>
        <time>2023-01-28T10:38:30Z</time>
      </trkpt>
      <trkpt lat="36.4677980" lon="-6.1788880">
        <ele>-9.4</ele>
        <time>2023-01-28T10:38:31Z</time>
      </trkpt>
      <trkpt lat="36.4677990" lon="-6.1789370">
        <ele>-9.6</ele>
        <time>2023-01-28T10:38:32Z</time>
      </trkpt>
      <trkpt lat="36.4678060" lon="-6.1789960">
        <ele>-9.2</ele>
        <time>2023-01-28T10:38:33Z</time>
      </trkpt>
      <trkpt lat="36.4678170" lon="-6.1790550">
        <ele>-9.0</ele>
        <time>2023-01-28T10:38:34Z</time>
      </trkpt>
      <trkpt lat="36.4678170" lon="-6.1791090">
        <ele>-9.2</ele>
        <time>2023-01-28T10:38:35Z</time>
      </trkpt>
      <trkpt lat="36.4678180" lon="-6.1791720">
        <ele>-9.0</ele>
        <time>2023-01-28T10:38:36Z</time>
      </trkpt>
      <trkpt lat="36.4678170" lon="-6.1792230">
        <ele>-8.6</ele>
        <time>2023-01-28T10:38:37Z</time>
      </trkpt>
      <trkpt lat="36.4678240" lon="-6.1792800">
        <ele>-9.0</ele>
        <time>2023-01-28T10:38:38Z</time>
      </trkpt>
      <trkpt lat="36.4678310" lon="-6.1793490">
        <ele>-8.8</ele>
        <time>2023-01-28T10:38:39Z</time>
      </trkpt>
      <trkpt lat="36.4678340" lon="-6.1794110">
        <ele>-8.6</ele>
        <time>2023-01-28T10:38:40Z</time>
      </trkpt>
      <trkpt lat="36.4678280" lon="-6.1794750">
        <ele>-9.2</ele>
        <time>2023-01-28T10:38:41Z</time>
      </trkpt>
      <trkpt lat="36.4678330" lon="-6.1795430">
        <ele>-9.2</ele>
        <time>2023-01-28T10:38:42Z</time>
      </trkpt>
      <trkpt lat="36.4678320" lon="-6.1796150">
        <ele>-9.2</ele>
        <time>2023-01-28T10:38:43Z</time>
      </trkpt>
      <trkpt lat="36.4678350" lon="-6.1796860">
        <ele>-9.0</ele>
        <time>2023-01-28T10:38:44Z</time>
      </trkpt>
      <trkpt lat="36.4678330" lon="-6.1797480">
        <ele>-9.2</ele>
        <time>2023-01-28T10:38:45Z</time>
      </trkpt>
      <trkpt lat="36.4678320" lon="-6.1798080">
        <ele>-9.2</ele>
        <time>2023-01-28T10:38:46Z</time>
      </trkpt>
      <trkpt lat="36.4678380" lon="-6.1798770">
        <ele>-9.2</ele>
        <time>2023-01-28T10:38:47Z</time>
      </trkpt>
      <trkpt lat="36.4678490" lon="-6.1799490">
        <ele>-9.2</ele>
        <time>2023-01-28T10:38:48Z</time>
      </trkpt>
      <trkpt lat="36.4678600" lon="-6.1800110">
        <ele>-9.0</ele>
        <time>2023-01-28T10:38:49Z</time>
      </trkpt>
      <trkpt lat="36.4678640" lon="-6.1800590">
        <ele>-8.4</ele>
        <time>2023-01-28T10:38:50Z</time>
      </trkpt>
      <trkpt lat="36.4678760" lon="-6.1801190">
        <ele>-8.4</ele>
        <time>2023-01-28T10:38:51Z</time>
      </trkpt>
      <trkpt lat="36.4678880" lon="-6.1801830">
        <ele>-8.6</ele>
        <time>2023-01-28T10:38:52Z</time>
      </trkpt>
      <trkpt lat="36.4678990" lon="-6.1802460">
        <ele>-8.8</ele>
        <time>2023-01-28T10:38:53Z</time>
      </trkpt>
      <trkpt lat="36.4679160" lon="-6.1803150">
        <ele>-8.8</ele>
        <time>2023-01-28T10:38:54Z</time>
      </trkpt>
      <trkpt lat="36.4679230" lon="-6.1803790">
        <ele>-8.8</ele>
        <time>2023-01-28T10:38:55Z</time>
      </trkpt>
      <trkpt lat="36.4679330" lon="-6.1804500">
        <ele>-9.0</ele>
        <time>2023-01-28T10:38:56Z</time>
      </trkpt>
      <trkpt lat="36.4679400" lon="-6.1805170">
        <ele>-9.0</ele>
        <time>2023-01-28T10:38:57Z</time>
      </trkpt>
      <trkpt lat="36.4679490" lon="-6.1805880">
        <ele>-9.0</ele>
        <time>2023-01-28T10:38:58Z</time>
      </trkpt>
      <trkpt lat="36.4679600" lon="-6.1806530">
        <ele>-9.0</ele>
        <time>2023-01-28T10:38:59Z</time>
      </trkpt>
      <trkpt lat="36.4679740" lon="-6.1807220">
        <ele>-9.2</ele>
        <time>2023-01-28T10:39:00Z</time>
      </trkpt>
      <trkpt lat="36.4679840" lon="-6.1807910">
        <ele>-9.2</ele>
        <time>2023-01-28T10:39:01Z</time>
      </trkpt>
      <trkpt lat="36.4679880" lon="-6.1808550">
        <ele>-9.2</ele>
        <time>2023-01-28T10:39:02Z</time>
      </trkpt>
      <trkpt lat="36.4680030" lon="-6.1809220">
        <ele>-9.4</ele>
        <time>2023-01-28T10:39:03Z</time>
      </trkpt>
      <trkpt lat="36.4680160" lon="-6.1809780">
        <ele>-9.4</ele>
        <time>2023-01-28T10:39:04Z</time>
      </trkpt>
      <trkpt lat="36.4680300" lon="-6.1810390">
        <ele>-9.2</ele>
        <time>2023-01-28T10:39:05Z</time>
      </trkpt>
      <trkpt lat="36.4680490" lon="-6.1811130">
        <ele>-8.8</ele>
        <time>2023-01-28T10:39:06Z</time>
      </trkpt>
      <trkpt lat="36.4680620" lon="-6.1811830">
        <ele>-9.0</ele>
        <time>2023-01-28T10:39:07Z</time>
      </trkpt>
      <trkpt lat="36.4680760" lon="-6.1812570">
        <ele>-9.2</ele>
        <time>2023-01-28T10:39:08Z</time>
      </trkpt>
      <trkpt lat="36.4680910" lon="-6.1813280">
        <ele>-9.2</ele>
        <time>2023-01-28T10:39:09Z</time>
      </trkpt>
      <trkpt lat="36.4681150" lon="-6.1813990">
        <ele>-9.2</ele>
        <time>2023-01-28T10:39:10Z</time>
      </trkpt>
      <trkpt lat="36.4681310" lon="-6.1814790">
        <ele>-9.2</ele>
        <time>2023-01-28T10:39:11Z</time>
      </trkpt>
      <trkpt lat="36.4681440" lon="-6.1815510">
        <ele>-9.2</ele>
        <time>2023-01-28T10:39:12Z</time>
      </trkpt>
      <trkpt lat="36.4681550" lon="-6.1816260">
        <ele>-9.2</ele>
        <time>2023-01-28T10:39:13Z</time>
      </trkpt>
      <trkpt lat="36.4681750" lon="-6.1816950">
        <ele>-9.2</ele>
        <time>2023-01-28T10:39:14Z</time>
      </trkpt>
      <trkpt lat="36.4681850" lon="-6.1817380">
        <ele>-9.2</ele>
        <time>2023-01-28T10:39:15Z</time>
      </trkpt>
      <trkpt lat="36.4682120" lon="-6.1818080">
        <ele>-9.2</ele>
        <time>2023-01-28T10:39:16Z</time>
      </trkpt>
      <trkpt lat="36.4682410" lon="-6.1818830">
        <ele>-9.2</ele>
        <time>2023-01-28T10:39:17Z</time>
      </trkpt>
      <trkpt lat="36.4682630" lon="-6.1819330">
        <ele>-9.2</ele>
        <time>2023-01-28T10:39:18Z</time>
      </trkpt>
      <trkpt lat="36.4682800" lon="-6.1819910">
        <ele>-9.2</ele>
        <time>2023-01-28T10:39:19Z</time>
      </trkpt>
      <trkpt lat="36.4683040" lon="-6.1820480">
        <ele>-9.0</ele>
        <time>2023-01-28T10:39:20Z</time>
      </trkpt>
      <trkpt lat="36.4683230" lon="-6.1821190">
        <ele>-9.0</ele>
        <time>2023-01-28T10:39:21Z</time>
      </trkpt>
      <trkpt lat="36.4683390" lon="-6.1821750">
        <ele>-9.0</ele>
        <time>2023-01-28T10:39:22Z</time>
      </trkpt>
      <trkpt lat="36.4683620" lon="-6.1822320">
        <ele>-9.0</ele>
        <time>2023-01-28T10:39:23Z</time>
      </trkpt>
      <trkpt lat="36.4683830" lon="-6.1822800">
        <ele>-8.6</ele>
        <time>2023-01-28T10:39:24Z</time>
      </trkpt>
      <trkpt lat="36.4684250" lon="-6.1823400">
        <ele>-8.8</ele>
        <time>2023-01-28T10:39:25Z</time>
      </trkpt>
      <trkpt lat="36.4684420" lon="-6.1823920">
        <ele>-8.8</ele>
        <time>2023-01-28T10:39:26Z</time>
      </trkpt>
      <trkpt lat="36.4684720" lon="-6.1824530">
        <ele>-8.6</ele>
        <time>2023-01-28T10:39:27Z</time>
      </trkpt>
      <trkpt lat="36.4685000" lon="-6.1825150">
        <ele>-8.4</ele>
        <time>2023-01-28T10:39:28Z</time>
      </trkpt>
      <trkpt lat="36.4685250" lon="-6.1825740">
        <ele>-8.2</ele>
        <time>2023-01-28T10:39:29Z</time>
      </trkpt>
      <trkpt lat="36.4685350" lon="-6.1826330">
        <ele>-7.4</ele>
        <time>2023-01-28T10:39:30Z</time>
      </trkpt>
      <trkpt lat="36.4685580" lon="-6.1826800">
        <ele>-7.4</ele>
        <time>2023-01-28T10:39:31Z</time>
      </trkpt>
      <trkpt lat="36.4685800" lon="-6.1827380">
        <ele>-7.4</ele>
        <time>2023-01-28T10:39:32Z</time>
      </trkpt>
      <trkpt lat="36.4686110" lon="-6.1827870">
        <ele>-6.6</ele>
        <time>2023-01-28T10:39:33Z</time>
      </trkpt>
      <trkpt lat="36.4686370" lon="-6.1828570">
        <ele>-6.8</ele>
        <time>2023-01-28T10:39:34Z</time>
      </trkpt>
      <trkpt lat="36.4686570" lon="-6.1829100">
        <ele>-6.8</ele>
        <time>2023-01-28T10:39:35Z</time>
      </trkpt>
      <trkpt lat="36.4686710" lon="-6.1829560">
        <ele>-6.0</ele>
        <time>2023-01-28T10:39:36Z</time>
      </trkpt>
      <trkpt lat="36.4686950" lon="-6.1830100">
        <ele>-5.0</ele>
        <time>2023-01-28T10:39:37Z</time>
      </trkpt>
      <trkpt lat="36.4687040" lon="-6.1830530">
        <ele>-4.6</ele>
        <time>2023-01-28T10:39:38Z</time>
      </trkpt>
      <trkpt lat="36.4687290" lon="-6.1831000">
        <ele>-5.0</ele>
        <time>2023-01-28T10:39:39Z</time>
      </trkpt>
      <trkpt lat="36.4687530" lon="-6.1831580">
        <ele>-4.8</ele>
        <time>2023-01-28T10:39:40Z</time>
      </trkpt>
      <trkpt lat="36.4687680" lon="-6.1831970">
        <ele>-4.4</ele>
        <time>2023-01-28T10:39:41Z</time>
      </trkpt>
      <trkpt lat="36.4687890" lon="-6.1832450">
        <ele>-4.4</ele>
        <time>2023-01-28T10:39:42Z</time>
      </trkpt>
      <trkpt lat="36.4688040" lon="-6.1832900">
        <ele>-4.0</ele>
        <time>2023-01-28T10:39:43Z</time>
      </trkpt>
      <trkpt lat="36.4688130" lon="-6.1833380">
        <ele>-4.0</ele>
        <time>2023-01-28T10:39:44Z</time>
      </trkpt>
      <trkpt lat="36.4688320" lon="-6.1833690">
        <ele>-4.6</ele>
        <time>2023-01-28T10:39:45Z</time>
      </trkpt>
      <trkpt lat="36.4688430" lon="-6.1834120">
        <ele>-4.2</ele>
        <time>2023-01-28T10:39:46Z</time>
      </trkpt>
      <trkpt lat="36.4688610" lon="-6.1834450">
        <ele>-4.2</ele>
        <time>2023-01-28T10:39:47Z</time>
      </trkpt>
      <trkpt lat="36.4688760" lon="-6.1834710">
        <ele>-3.2</ele>
        <time>2023-01-28T10:39:48Z</time>
      </trkpt>
      <trkpt lat="36.4688800" lon="-6.1834990">
        <ele>-2.2</ele>
        <time>2023-01-28T10:39:49Z</time>
      </trkpt>
      <trkpt lat="36.4688890" lon="-6.1835260">
        <ele>-2.8</ele>
        <time>2023-01-28T10:39:50Z</time>
      </trkpt>
      <trkpt lat="36.4689070" lon="-6.1835700">
        <ele>-3.4</ele>
        <time>2023-01-28T10:39:51Z</time>
      </trkpt>
      <trkpt lat="36.4689240" lon="-6.1836080">
        <ele>-3.8</ele>
        <time>2023-01-28T10:39:52Z</time>
      </trkpt>
      <trkpt lat="36.4689370" lon="-6.1836510">
        <ele>-4.0</ele>
        <time>2023-01-28T10:39:53Z</time>
      </trkpt>
      <trkpt lat="36.4689440" lon="-6.1836790">
        <ele>-3.8</ele>
        <time>2023-01-28T10:39:54Z</time>
      </trkpt>
      <trkpt lat="36.4689600" lon="-6.1837170">
        <ele>-3.8</ele>
        <time>2023-01-28T10:39:55Z</time>
      </trkpt>
      <trkpt lat="36.4689850" lon="-6.1837560">
        <ele>-3.0</ele>
        <time>2023-01-28T10:39:56Z</time>
      </trkpt>
      <trkpt lat="36.4690040" lon="-6.1837940">
        <ele>-3.4</ele>
        <time>2023-01-28T10:39:57Z</time>
      </trkpt>
      <trkpt lat="36.4690220" lon="-6.1838190">
        <ele>-3.4</ele>
        <time>2023-01-28T10:39:58Z</time>
      </trkpt>
      <trkpt lat="36.4690440" lon="-6.1838610">
        <ele>-3.4</ele>
        <time>2023-01-28T10:39:59Z</time>
      </trkpt>
      <trkpt lat="36.4690560" lon="-6.1838910">
        <ele>-3.4</ele>
        <time>2023-01-28T10:40:00Z</time>
      </trkpt>
      <trkpt lat="36.4690730" lon="-6.1839420">
        <ele>-3.2</ele>
        <time>2023-01-28T10:40:01Z</time>
      </trkpt>
      <trkpt lat="36.4690920" lon="-6.1839810">
        <ele>-3.2</ele>
        <time>2023-01-28T10:40:02Z</time>
      </trkpt>
      <trkpt lat="36.4691080" lon="-6.1840130">
        <ele>-3.4</ele>
        <time>2023-01-28T10:40:03Z</time>
      </trkpt>
      <trkpt lat="36.4691220" lon="-6.1840560">
        <ele>-3.4</ele>
        <time>2023-01-28T10:40:04Z</time>
      </trkpt>
      <trkpt lat="36.4691470" lon="-6.1840960">
        <ele>-3.0</ele>
        <time>2023-01-28T10:40:05Z</time>
      </trkpt>
      <trkpt lat="36.4691610" lon="-6.1841350">
        <ele>-3.0</ele>
        <time>2023-01-28T10:40:06Z</time>
      </trkpt>
      <trkpt lat="36.4691780" lon="-6.1841770">
        <ele>-3.2</ele>
        <time>2023-01-28T10:40:07Z</time>
      </trkpt>
      <trkpt lat="36.4691990" lon="-6.1842170">
        <ele>-3.4</ele>
        <time>2023-01-28T10:40:08Z</time>
      </trkpt>
      <trkpt lat="36.4692180" lon="-6.1842580">
        <ele>-3.0</ele>
        <time>2023-01-28T10:40:09Z</time>
      </trkpt>
      <trkpt lat="36.4692250" lon="-6.1842920">
        <ele>-3.0</ele>
        <time>2023-01-28T10:40:10Z</time>
      </trkpt>
      <trkpt lat="36.4692280" lon="-6.1843360">
        <ele>-2.8</ele>
        <time>2023-01-28T10:40:11Z</time>
      </trkpt>
      <trkpt lat="36.4692470" lon="-6.1843700">
        <ele>-2.8</ele>
        <time>2023-01-28T10:40:12Z</time>
      </trkpt>
      <trkpt lat="36.4692660" lon="-6.1844140">
        <ele>-2.8</ele>
        <time>2023-01-28T10:40:13Z</time>
      </trkpt>
      <trkpt lat="36.4692860" lon="-6.1844560">
        <ele>-3.4</ele>
        <time>2023-01-28T10:40:14Z</time>
      </trkpt>
      <trkpt lat="36.4693040" lon="-6.1845140">
        <ele>-3.6</ele>
        <time>2023-01-28T10:40:15Z</time>
      </trkpt>
      <trkpt lat="36.4693160" lon="-6.1845680">
        <ele>-3.8</ele>
        <time>2023-01-28T10:40:16Z</time>
      </trkpt>
      <trkpt lat="36.4693370" lon="-6.1846010">
        <ele>-3.8</ele>
        <time>2023-01-28T10:40:17Z</time>
      </trkpt>
      <trkpt lat="36.4693590" lon="-6.1846510">
        <ele>-3.8</ele>
        <time>2023-01-28T10:40:18Z</time>
      </trkpt>
      <trkpt lat="36.4693780" lon="-6.1846990">
        <ele>-3.8</ele>
        <time>2023-01-28T10:40:19Z</time>
      </trkpt>
      <trkpt lat="36.4693920" lon="-6.1847490">
        <ele>-4.0</ele>
        <time>2023-01-28T10:40:20Z</time>
      </trkpt>
      <trkpt lat="36.4694080" lon="-6.1848050">
        <ele>-4.0</ele>
        <time>2023-01-28T10:40:21Z</time>
      </trkpt>
      <trkpt lat="36.4694320" lon="-6.1848500">
        <ele>-4.0</ele>
        <time>2023-01-28T10:40:22Z</time>
      </trkpt>
      <trkpt lat="36.4694570" lon="-6.1849090">
        <ele>-4.2</ele>
        <time>2023-01-28T10:40:23Z</time>
      </trkpt>
      <trkpt lat="36.4694790" lon="-6.1849670">
        <ele>-4.2</ele>
        <time>2023-01-28T10:40:24Z</time>
      </trkpt>
      <trkpt lat="36.4695130" lon="-6.1850270">
        <ele>-4.8</ele>
        <time>2023-01-28T10:40:25Z</time>
      </trkpt>
      <trkpt lat="36.4695340" lon="-6.1850730">
        <ele>-5.0</ele>
        <time>2023-01-28T10:40:26Z</time>
      </trkpt>
      <trkpt lat="36.4695510" lon="-6.1851280">
        <ele>-5.0</ele>
        <time>2023-01-28T10:40:27Z</time>
      </trkpt>
      <trkpt lat="36.4695730" lon="-6.1851830">
        <ele>-5.0</ele>
        <time>2023-01-28T10:40:28Z</time>
      </trkpt>
      <trkpt lat="36.4695860" lon="-6.1852420">
        <ele>-5.2</ele>
        <time>2023-01-28T10:40:29Z</time>
      </trkpt>
      <trkpt lat="36.4696040" lon="-6.1853040">
        <ele>-5.8</ele>
        <time>2023-01-28T10:40:30Z</time>
      </trkpt>
      <trkpt lat="36.4696250" lon="-6.1853700">
        <ele>-6.0</ele>
        <time>2023-01-28T10:40:31Z</time>
      </trkpt>
      <trkpt lat="36.4696330" lon="-6.1854330">
        <ele>-6.2</ele>
        <time>2023-01-28T10:40:32Z</time>
      </trkpt>
      <trkpt lat="36.4696380" lon="-6.1855320">
        <ele>-6.6</ele>
        <time>2023-01-28T10:40:33Z</time>
      </trkpt>
      <trkpt lat="36.4696530" lon="-6.1856180">
        <ele>-6.6</ele>
        <time>2023-01-28T10:40:34Z</time>
      </trkpt>
      <trkpt lat="36.4696570" lon="-6.1856900">
        <ele>-7.2</ele>
        <time>2023-01-28T10:40:35Z</time>
      </trkpt>
      <trkpt lat="36.4696570" lon="-6.1857690">
        <ele>-7.6</ele>
        <time>2023-01-28T10:40:36Z</time>
      </trkpt>
      <trkpt lat="36.4696610" lon="-6.1858560">
        <ele>-8.0</ele>
        <time>2023-01-28T10:40:37Z</time>
      </trkpt>
      <trkpt lat="36.4696570" lon="-6.1859460">
        <ele>-8.4</ele>
        <time>2023-01-28T10:40:38Z</time>
      </trkpt>
      <trkpt lat="36.4696440" lon="-6.1860370">
        <ele>-8.6</ele>
        <time>2023-01-28T10:40:39Z</time>
      </trkpt>
      <trkpt lat="36.4696250" lon="-6.1861140">
        <ele>-8.8</ele>
        <time>2023-01-28T10:40:40Z</time>
      </trkpt>
      <trkpt lat="36.4695980" lon="-6.1861840">
        <ele>-9.0</ele>
        <time>2023-01-28T10:40:41Z</time>
      </trkpt>
      <trkpt lat="36.4695680" lon="-6.1862710">
        <ele>-9.4</ele>
        <time>2023-01-28T10:40:42Z</time>
      </trkpt>
      <trkpt lat="36.4695310" lon="-6.1863510">
        <ele>-9.6</ele>
        <time>2023-01-28T10:40:43Z</time>
      </trkpt>
      <trkpt lat="36.4694830" lon="-6.1864190">
        <ele>-9.8</ele>
        <time>2023-01-28T10:40:44Z</time>
      </trkpt>
      <trkpt lat="36.4694300" lon="-6.1864840">
        <ele>-10.0</ele>
        <time>2023-01-28T10:40:45Z</time>
      </trkpt>
      <trkpt lat="36.4693810" lon="-6.1865350">
        <ele>-10.2</ele>
        <time>2023-01-28T10:40:46Z</time>
      </trkpt>
      <trkpt lat="36.4693310" lon="-6.1866050">
        <ele>-10.2</ele>
        <time>2023-01-28T10:40:47Z</time>
      </trkpt>
      <trkpt lat="36.4692870" lon="-6.1866710">
        <ele>-10.4</ele>
        <time>2023-01-28T10:40:48Z</time>
      </trkpt>
      <trkpt lat="36.4692520" lon="-6.1867290">
        <ele>-10.4</ele>
        <time>2023-01-28T10:40:49Z</time>
      </trkpt>
      <trkpt lat="36.4692150" lon="-6.1867990">
        <ele>-10.4</ele>
        <time>2023-01-28T10:40:50Z</time>
      </trkpt>
      <trkpt lat="36.4691910" lon="-6.1868550">
        <ele>-10.4</ele>
        <time>2023-01-28T10:40:51Z</time>
      </trkpt>
      <trkpt lat="36.4691510" lon="-6.1869180">
        <ele>-10.4</ele>
        <time>2023-01-28T10:40:52Z</time>
      </trkpt>
      <trkpt lat="36.4691220" lon="-6.1869940">
        <ele>-10.6</ele>
        <time>2023-01-28T10:40:53Z</time>
      </trkpt>
      <trkpt lat="36.4690990" lon="-6.1870570">
        <ele>-11.0</ele>
        <time>2023-01-28T10:40:54Z</time>
      </trkpt>
      <trkpt lat="36.4690550" lon="-6.1871220">
        <ele>-10.8</ele>
        <time>2023-01-28T10:40:55Z</time>
      </trkpt>
      <trkpt lat="36.4690260" lon="-6.1871910">
        <ele>-10.8</ele>
        <time>2023-01-28T10:40:56Z</time>
      </trkpt>
      <trkpt lat="36.4689750" lon="-6.1872460">
        <ele>-10.8</ele>
        <time>2023-01-28T10:40:57Z</time>
      </trkpt>
      <trkpt lat="36.4689440" lon="-6.1873130">
        <ele>-10.6</ele>
        <time>2023-01-28T10:40:58Z</time>
      </trkpt>
      <trkpt lat="36.4689210" lon="-6.1873770">
        <ele>-10.8</ele>
        <time>2023-01-28T10:40:59Z</time>
      </trkpt>
      <trkpt lat="36.4689030" lon="-6.1874420">
        <ele>-10.8</ele>
        <time>2023-01-28T10:41:00Z</time>
      </trkpt>
      <trkpt lat="36.4688860" lon="-6.1875110">
        <ele>-10.8</ele>
        <time>2023-01-28T10:41:01Z</time>
      </trkpt>
      <trkpt lat="36.4688610" lon="-6.1875700">
        <ele>-10.8</ele>
        <time>2023-01-28T10:41:02Z</time>
      </trkpt>
      <trkpt lat="36.4688370" lon="-6.1876240">
        <ele>-10.8</ele>
        <time>2023-01-28T10:41:03Z</time>
      </trkpt>
      <trkpt lat="36.4688320" lon="-6.1876830">
        <ele>-10.6</ele>
        <time>2023-01-28T10:41:04Z</time>
      </trkpt>
      <trkpt lat="36.4688040" lon="-6.1877400">
        <ele>-10.4</ele>
        <time>2023-01-28T10:41:05Z</time>
      </trkpt>
      <trkpt lat="36.4688030" lon="-6.1877790">
        <ele>-10.2</ele>
        <time>2023-01-28T10:41:06Z</time>
      </trkpt>
      <trkpt lat="36.4688080" lon="-6.1878090">
        <ele>-10.2</ele>
        <time>2023-01-28T10:41:07Z</time>
      </trkpt>
      <trkpt lat="36.4687930" lon="-6.1878490">
        <ele>-10.2</ele>
        <time>2023-01-28T10:41:08Z</time>
      </trkpt>
      <trkpt lat="36.4687980" lon="-6.1878820">
        <ele>-10.2</ele>
        <time>2023-01-28T10:41:09Z</time>
      </trkpt>
      <trkpt lat="36.4687960" lon="-6.1878970">
        <ele>-10.0</ele>
        <time>2023-01-28T10:41:10Z</time>
      </trkpt>
      <trkpt lat="36.4687820" lon="-6.1879130">
        <ele>-10.0</ele>
        <time>2023-01-28T10:41:11Z</time>
      </trkpt>
      <trkpt lat="36.4687780" lon="-6.1879230">
        <ele>-10.2</ele>
        <time>2023-01-28T10:41:12Z</time>
      </trkpt>
      <trkpt lat="36.4687830" lon="-6.1879270">
        <ele>-10.2</ele>
        <time>2023-01-28T10:41:13Z</time>
      </trkpt>
      <trkpt lat="36.4687860" lon="-6.1879310">
        <ele>-10.2</ele>
        <time>2023-01-28T10:41:14Z</time>
      </trkpt>
      <trkpt lat="36.4687830" lon="-6.1879300">
        <ele>-10.0</ele>
        <time>2023-01-28T10:41:15Z</time>
      </trkpt>
      <trkpt lat="36.4687880" lon="-6.1879300">
        <ele>-9.8</ele>
        <time>2023-01-28T10:41:16Z</time>
      </trkpt>
      <trkpt lat="36.4687990" lon="-6.1879320">
        <ele>-10.4</ele>
        <time>2023-01-28T10:41:17Z</time>
      </trkpt>
      <trkpt lat="36.4687990" lon="-6.1879350">
        <ele>-10.0</ele>
        <time>2023-01-28T10:41:18Z</time>
      </trkpt>
      <trkpt lat="36.4687950" lon="-6.1879260">
        <ele>-10.2</ele>
        <time>2023-01-28T10:41:19Z</time>
      </trkpt>
      <trkpt lat="36.4688010" lon="-6.1879280">
        <ele>-10.0</ele>
        <time>2023-01-28T10:41:20Z</time>
      </trkpt>
      <trkpt lat="36.4687870" lon="-6.1879400">
        <ele>-10.2</ele>
        <time>2023-01-28T10:41:21Z</time>
      </trkpt>
      <trkpt lat="36.4687940" lon="-6.1879540">
        <ele>-10.2</ele>
        <time>2023-01-28T10:41:22Z</time>
      </trkpt>
      <trkpt lat="36.4687950" lon="-6.1879590">
        <ele>-10.2</ele>
        <time>2023-01-28T10:41:23Z</time>
      </trkpt>
      <trkpt lat="36.4687970" lon="-6.1879530">
        <ele>-10.2</ele>
        <time>2023-01-28T10:41:24Z</time>
      </trkpt>
      <trkpt lat="36.4687940" lon="-6.1879470">
        <ele>-10.2</ele>
        <time>2023-01-28T10:41:25Z</time>
      </trkpt>
      <trkpt lat="36.4687960" lon="-6.1879460">
        <ele>-10.4</ele>
        <time>2023-01-28T10:41:26Z</time>
      </trkpt>
      <trkpt lat="36.4688050" lon="-6.1879310">
        <ele>-10.2</ele>
        <time>2023-01-28T10:41:27Z</time>
      </trkpt>
      <trkpt lat="36.4688120" lon="-6.1879340">
        <ele>-10.2</ele>
        <time>2023-01-28T10:41:28Z</time>
      </trkpt>
      <trkpt lat="36.4688100" lon="-6.1879510">
        <ele>-10.2</ele>
        <time>2023-01-28T10:41:29Z</time>
      </trkpt>
      <trkpt lat="36.4687830" lon="-6.1879520">
        <ele>-10.2</ele>
        <time>2023-01-28T10:41:30Z</time>
      </trkpt>
      <trkpt lat="36.4687730" lon="-6.1879360">
        <ele>-10.0</ele>
        <time>2023-01-28T10:41:31Z</time>
      </trkpt>
      <trkpt lat="36.4687720" lon="-6.1879380">
        <ele>-9.8</ele>
        <time>2023-01-28T10:41:32Z</time>
      </trkpt>
      <trkpt lat="36.4687800" lon="-6.1879270">
        <ele>-9.8</ele>
        <time>2023-01-28T10:41:33Z</time>
      </trkpt>
      <trkpt lat="36.4688160" lon="-6.1879450">
        <ele>-10.0</ele>
        <time>2023-01-28T10:41:34Z</time>
      </trkpt>
      <trkpt lat="36.4688400" lon="-6.1879590">
        <ele>-10.0</ele>
        <time>2023-01-28T10:41:35Z</time>
      </trkpt>
      <trkpt lat="36.4688550" lon="-6.1879720">
        <ele>-9.8</ele>
        <time>2023-01-28T10:41:36Z</time>
      </trkpt>
      <trkpt lat="36.4688530" lon="-6.1879990">
        <ele>-9.8</ele>
        <time>2023-01-28T10:41:37Z</time>
      </trkpt>
      <trkpt lat="36.4688550" lon="-6.1880290">
        <ele>-9.8</ele>
        <time>2023-01-28T10:41:38Z</time>
      </trkpt>
      <trkpt lat="36.4688570" lon="-6.1880780">
        <ele>-9.8</ele>
        <time>2023-01-28T10:41:39Z</time>
      </trkpt>
      <trkpt lat="36.4688410" lon="-6.1881170">
        <ele>-9.8</ele>
        <time>2023-01-28T10:41:40Z</time>
      </trkpt>
      <trkpt lat="36.4688350" lon="-6.1881640">
        <ele>-9.8</ele>
        <time>2023-01-28T10:41:41Z</time>
      </trkpt>
      <trkpt lat="36.4688270" lon="-6.1882300">
        <ele>-10.0</ele>
        <time>2023-01-28T10:41:42Z</time>
      </trkpt>
      <trkpt lat="36.4688290" lon="-6.1882820">
        <ele>-10.0</ele>
        <time>2023-01-28T10:41:43Z</time>
      </trkpt>
      <trkpt lat="36.4688100" lon="-6.1883350">
        <ele>-9.8</ele>
        <time>2023-01-28T10:41:44Z</time>
      </trkpt>
      <trkpt lat="36.4687870" lon="-6.1883960">
        <ele>-9.8</ele>
        <time>2023-01-28T10:41:45Z</time>
      </trkpt>
      <trkpt lat="36.4687690" lon="-6.1884550">
        <ele>-9.8</ele>
        <time>2023-01-28T10:41:46Z</time>
      </trkpt>
      <trkpt lat="36.4687610" lon="-6.1885330">
        <ele>-9.8</ele>
        <time>2023-01-28T10:41:47Z</time>
      </trkpt>
      <trkpt lat="36.4687360" lon="-6.1885810">
        <ele>-9.8</ele>
        <time>2023-01-28T10:41:48Z</time>
      </trkpt>
      <trkpt lat="36.4687260" lon="-6.1886310">
        <ele>-9.6</ele>
        <time>2023-01-28T10:41:49Z</time>
      </trkpt>
      <trkpt lat="36.4687100" lon="-6.1886930">
        <ele>-9.8</ele>
        <time>2023-01-28T10:41:50Z</time>
      </trkpt>
      <trkpt lat="36.4686980" lon="-6.1887420">
        <ele>-9.8</ele>
        <time>2023-01-28T10:41:51Z</time>
      </trkpt>
      <trkpt lat="36.4687310" lon="-6.1887900">
        <ele>-9.8</ele>
        <time>2023-01-28T10:41:52Z</time>
      </trkpt>
      <trkpt lat="36.4687500" lon="-6.1888480">
        <ele>-9.8</ele>
        <time>2023-01-28T10:41:53Z</time>
      </trkpt>
      <trkpt lat="36.4687860" lon="-6.1888980">
        <ele>-9.6</ele>
        <time>2023-01-28T10:41:54Z</time>
      </trkpt>
      <trkpt lat="36.4688130" lon="-6.1889470">
        <ele>-9.6</ele>
        <time>2023-01-28T10:41:55Z</time>
      </trkpt>
      <trkpt lat="36.4688370" lon="-6.1890110">
        <ele>-9.8</ele>
        <time>2023-01-28T10:41:56Z</time>
      </trkpt>
      <trkpt lat="36.4688360" lon="-6.1890720">
        <ele>-9.8</ele>
        <time>2023-01-28T10:41:57Z</time>
      </trkpt>
      <trkpt lat="36.4688510" lon="-6.1891340">
        <ele>-9.4</ele>
        <time>2023-01-28T10:41:58Z</time>
      </trkpt>
      <trkpt lat="36.4688620" lon="-6.1891920">
        <ele>-9.4</ele>
        <time>2023-01-28T10:41:59Z</time>
      </trkpt>
      <trkpt lat="36.4688880" lon="-6.1892400">
        <ele>-9.4</ele>
        <time>2023-01-28T10:42:00Z</time>
      </trkpt>
      <trkpt lat="36.4689260" lon="-6.1892710">
        <ele>-9.4</ele>
        <time>2023-01-28T10:42:01Z</time>
      </trkpt>
      <trkpt lat="36.4689530" lon="-6.1892940">
        <ele>-9.4</ele>
        <time>2023-01-28T10:42:02Z</time>
      </trkpt>
      <trkpt lat="36.4689830" lon="-6.1893170">
        <ele>-8.8</ele>
        <time>2023-01-28T10:42:03Z</time>
      </trkpt>
      <trkpt lat="36.4690060" lon="-6.1893500">
        <ele>-9.2</ele>
        <time>2023-01-28T10:42:04Z</time>
      </trkpt>
      <trkpt lat="36.4690240" lon="-6.1893860">
        <ele>-9.2</ele>
        <time>2023-01-28T10:42:05Z</time>
      </trkpt>
      <trkpt lat="36.4690250" lon="-6.1894370">
        <ele>-9.2</ele>
        <time>2023-01-28T10:42:06Z</time>
      </trkpt>
      <trkpt lat="36.4690080" lon="-6.1894810">
        <ele>-9.2</ele>
        <time>2023-01-28T10:42:07Z</time>
      </trkpt>
      <trkpt lat="36.4690050" lon="-6.1895390">
        <ele>-9.2</ele>
        <time>2023-01-28T10:42:08Z</time>
      </trkpt>
      <trkpt lat="36.4690000" lon="-6.1895840">
        <ele>-9.2</ele>
        <time>2023-01-28T10:42:09Z</time>
      </trkpt>
      <trkpt lat="36.4689880" lon="-6.1896200">
        <ele>-9.2</ele>
        <time>2023-01-28T10:42:10Z</time>
      </trkpt>
      <trkpt lat="36.4689830" lon="-6.1896690">
        <ele>-9.4</ele>
        <time>2023-01-28T10:42:11Z</time>
      </trkpt>
      <trkpt lat="36.4689650" lon="-6.1897030">
        <ele>-9.4</ele>
        <time>2023-01-28T10:42:12Z</time>
      </trkpt>
      <trkpt lat="36.4689600" lon="-6.1897400">
        <ele>-9.2</ele>
        <time>2023-01-28T10:42:13Z</time>
      </trkpt>
      <trkpt lat="36.4689430" lon="-6.1897840">
        <ele>-9.2</ele>
        <time>2023-01-28T10:42:14Z</time>
      </trkpt>
      <trkpt lat="36.4689220" lon="-6.1898220">
        <ele>-9.0</ele>
        <time>2023-01-28T10:42:15Z</time>
      </trkpt>
      <trkpt lat="36.4689110" lon="-6.1898670">
        <ele>-8.8</ele>
        <time>2023-01-28T10:42:16Z</time>
      </trkpt>
      <trkpt lat="36.4689130" lon="-6.1899060">
        <ele>-8.8</ele>
        <time>2023-01-28T10:42:17Z</time>
      </trkpt>
      <trkpt lat="36.4689140" lon="-6.1899510">
        <ele>-8.8</ele>
        <time>2023-01-28T10:42:18Z</time>
      </trkpt>
      <trkpt lat="36.4689160" lon="-6.1899990">
        <ele>-8.8</ele>
        <time>2023-01-28T10:42:19Z</time>
      </trkpt>
      <trkpt lat="36.4689120" lon="-6.1900380">
        <ele>-8.8</ele>
        <time>2023-01-28T10:42:20Z</time>
      </trkpt>
      <trkpt lat="36.4689190" lon="-6.1900820">
        <ele>-9.0</ele>
        <time>2023-01-28T10:42:21Z</time>
      </trkpt>
      <trkpt lat="36.4689460" lon="-6.1901210">
        <ele>-8.8</ele>
        <time>2023-01-28T10:42:22Z</time>
      </trkpt>
      <trkpt lat="36.4689740" lon="-6.1901640">
        <ele>-8.8</ele>
        <time>2023-01-28T10:42:23Z</time>
      </trkpt>
      <trkpt lat="36.4690130" lon="-6.1901920">
        <ele>-9.0</ele>
        <time>2023-01-28T10:42:24Z</time>
      </trkpt>
      <trkpt lat="36.4690570" lon="-6.1901990">
        <ele>-8.8</ele>
        <time>2023-01-28T10:42:25Z</time>
      </trkpt>
      <trkpt lat="36.4691100" lon="-6.1902130">
        <ele>-9.0</ele>
        <time>2023-01-28T10:42:26Z</time>
      </trkpt>
      <trkpt lat="36.4691690" lon="-6.1902180">
        <ele>-9.0</ele>
        <time>2023-01-28T10:42:27Z</time>
      </trkpt>
      <trkpt lat="36.4692260" lon="-6.1902150">
        <ele>-9.2</ele>
        <time>2023-01-28T10:42:28Z</time>
      </trkpt>
      <trkpt lat="36.4692810" lon="-6.1902150">
        <ele>-9.2</ele>
        <time>2023-01-28T10:42:29Z</time>
      </trkpt>
      <trkpt lat="36.4693210" lon="-6.1902110">
        <ele>-9.2</ele>
        <time>2023-01-28T10:42:30Z</time>
      </trkpt>
      <trkpt lat="36.4693880" lon="-6.1902110">
        <ele>-9.2</ele>
        <time>2023-01-28T10:42:31Z</time>
      </trkpt>
      <trkpt lat="36.4694430" lon="-6.1902150">
        <ele>-9.2</ele>
        <time>2023-01-28T10:42:32Z</time>
      </trkpt>
      <trkpt lat="36.4694970" lon="-6.1902130">
        <ele>-9.2</ele>
        <time>2023-01-28T10:42:33Z</time>
      </trkpt>
      <trkpt lat="36.4695420" lon="-6.1902090">
        <ele>-9.2</ele>
        <time>2023-01-28T10:42:34Z</time>
      </trkpt>
      <trkpt lat="36.4695810" lon="-6.1902020">
        <ele>-9.2</ele>
        <time>2023-01-28T10:42:35Z</time>
      </trkpt>
      <trkpt lat="36.4696340" lon="-6.1902150">
        <ele>-9.2</ele>
        <time>2023-01-28T10:42:36Z</time>
      </trkpt>
      <trkpt lat="36.4696890" lon="-6.1902200">
        <ele>-9.4</ele>
        <time>2023-01-28T10:42:37Z</time>
      </trkpt>
      <trkpt lat="36.4697440" lon="-6.1902270">
        <ele>-9.4</ele>
        <time>2023-01-28T10:42:38Z</time>
      </trkpt>
      <trkpt lat="36.4698050" lon="-6.1902200">
        <ele>-9.4</ele>
        <time>2023-01-28T10:42:39Z</time>
      </trkpt>
      <trkpt lat="36.4698580" lon="-6.1902210">
        <ele>-9.2</ele>
        <time>2023-01-28T10:42:40Z</time>
      </trkpt>
      <trkpt lat="36.4698850" lon="-6.1902210">
        <ele>-9.4</ele>
        <time>2023-01-28T10:42:41Z</time>
      </trkpt>
      <trkpt lat="36.4699280" lon="-6.1902110">
        <ele>-9.4</ele>
        <time>2023-01-28T10:42:42Z</time>
      </trkpt>
      <trkpt lat="36.4699670" lon="-6.1902000">
        <ele>-9.4</ele>
        <time>2023-01-28T10:42:43Z</time>
      </trkpt>
      <trkpt lat="36.4700040" lon="-6.1901690">
        <ele>-9.6</ele>
        <time>2023-01-28T10:42:44Z</time>
      </trkpt>
      <trkpt lat="36.4700450" lon="-6.1901530">
        <ele>-9.8</ele>
        <time>2023-01-28T10:42:45Z</time>
      </trkpt>
      <trkpt lat="36.4700910" lon="-6.1901590">
        <ele>-9.6</ele>
        <time>2023-01-28T10:42:46Z</time>
      </trkpt>
      <trkpt lat="36.4701390" lon="-6.1901430">
        <ele>-9.4</ele>
        <time>2023-01-28T10:42:47Z</time>
      </trkpt>
      <trkpt lat="36.4701840" lon="-6.1901370">
        <ele>-9.4</ele>
        <time>2023-01-28T10:42:48Z</time>
      </trkpt>
      <trkpt lat="36.4702380" lon="-6.1901310">
        <ele>-9.4</ele>
        <time>2023-01-28T10:42:49Z</time>
      </trkpt>
      <trkpt lat="36.4702870" lon="-6.1901300">
        <ele>-9.2</ele>
        <time>2023-01-28T10:42:50Z</time>
      </trkpt>
      <trkpt lat="36.4703280" lon="-6.1901190">
        <ele>-9.2</ele>
        <time>2023-01-28T10:42:51Z</time>
      </trkpt>
      <trkpt lat="36.4703800" lon="-6.1901100">
        <ele>-9.2</ele>
        <time>2023-01-28T10:42:52Z</time>
      </trkpt>
      <trkpt lat="36.4704260" lon="-6.1900730">
        <ele>-9.2</ele>
        <time>2023-01-28T10:42:53Z</time>
      </trkpt>
      <trkpt lat="36.4704670" lon="-6.1900430">
        <ele>-9.2</ele>
        <time>2023-01-28T10:42:54Z</time>
      </trkpt>
      <trkpt lat="36.4705090" lon="-6.1900170">
        <ele>-9.4</ele>
        <time>2023-01-28T10:42:55Z</time>
      </trkpt>
      <trkpt lat="36.4705430" lon="-6.1899830">
        <ele>-9.4</ele>
        <time>2023-01-28T10:42:56Z</time>
      </trkpt>
      <trkpt lat="36.4705990" lon="-6.1899610">
        <ele>-9.4</ele>
        <time>2023-01-28T10:42:57Z</time>
      </trkpt>
      <trkpt lat="36.4706480" lon="-6.1899310">
        <ele>-9.4</ele>
        <time>2023-01-28T10:42:58Z</time>
      </trkpt>
      <trkpt lat="36.4706960" lon="-6.1899020">
        <ele>-9.4</ele>
        <time>2023-01-28T10:42:59Z</time>
      </trkpt>
      <trkpt lat="36.4707420" lon="-6.1898650">
        <ele>-9.4</ele>
        <time>2023-01-28T10:43:00Z</time>
      </trkpt>
      <trkpt lat="36.4707880" lon="-6.1898300">
        <ele>-9.4</ele>
        <time>2023-01-28T10:43:01Z</time>
      </trkpt>
      <trkpt lat="36.4708350" lon="-6.1898120">
        <ele>-9.2</ele>
        <time>2023-01-28T10:43:02Z</time>
      </trkpt>
      <trkpt lat="36.4708800" lon="-6.1897820">
        <ele>-9.2</ele>
        <time>2023-01-28T10:43:03Z</time>
      </trkpt>
      <trkpt lat="36.4709270" lon="-6.1897810">
        <ele>-9.2</ele>
        <time>2023-01-28T10:43:04Z</time>
      </trkpt>
      <trkpt lat="36.4709730" lon="-6.1897510">
        <ele>-9.4</ele>
        <time>2023-01-28T10:43:05Z</time>
      </trkpt>
      <trkpt lat="36.4710130" lon="-6.1897190">
        <ele>-9.2</ele>
        <time>2023-01-28T10:43:06Z</time>
      </trkpt>
      <trkpt lat="36.4710610" lon="-6.1896870">
        <ele>-9.2</ele>
        <time>2023-01-28T10:43:07Z</time>
      </trkpt>
      <trkpt lat="36.4711050" lon="-6.1896840">
        <ele>-9.2</ele>
        <time>2023-01-28T10:43:08Z</time>
      </trkpt>
      <trkpt lat="36.4711420" lon="-6.1896800">
        <ele>-9.2</ele>
        <time>2023-01-28T10:43:09Z</time>
      </trkpt>
      <trkpt lat="36.4711860" lon="-6.1896640">
        <ele>-9.4</ele>
        <time>2023-01-28T10:43:10Z</time>
      </trkpt>
      <trkpt lat="36.4712310" lon="-6.1896350">
        <ele>-9.4</ele>
        <time>2023-01-28T10:43:11Z</time>
      </trkpt>
      <trkpt lat="36.4712760" lon="-6.1896100">
        <ele>-9.4</ele>
        <time>2023-01-28T10:43:12Z</time>
      </trkpt>
      <trkpt lat="36.4713260" lon="-6.1895850">
        <ele>-9.6</ele>
        <time>2023-01-28T10:43:13Z</time>
      </trkpt>
      <trkpt lat="36.4713720" lon="-6.1895590">
        <ele>-9.4</ele>
        <time>2023-01-28T10:43:14Z</time>
      </trkpt>
      <trkpt lat="36.4714290" lon="-6.1895430">
        <ele>-9.2</ele>
        <time>2023-01-28T10:43:15Z</time>
      </trkpt>
      <trkpt lat="36.4714900" lon="-6.1895440">
        <ele>-9.2</ele>
        <time>2023-01-28T10:43:16Z</time>
      </trkpt>
      <trkpt lat="36.4715370" lon="-6.1895420">
        <ele>-9.2</ele>
        <time>2023-01-28T10:43:17Z</time>
      </trkpt>
      <trkpt lat="36.4715900" lon="-6.1895450">
        <ele>-9.2</ele>
        <time>2023-01-28T10:43:18Z</time>
      </trkpt>
      <trkpt lat="36.4716390" lon="-6.1895500">
        <ele>-9.0</ele>
        <time>2023-01-28T10:43:19Z</time>
      </trkpt>
      <trkpt lat="36.4717010" lon="-6.1895450">
        <ele>-9.2</ele>
        <time>2023-01-28T10:43:20Z</time>
      </trkpt>
      <trkpt lat="36.4717510" lon="-6.1895310">
        <ele>-9.2</ele>
        <time>2023-01-28T10:43:21Z</time>
      </trkpt>
      <trkpt lat="36.4717880" lon="-6.1895280">
        <ele>-9.2</ele>
        <time>2023-01-28T10:43:22Z</time>
      </trkpt>
      <trkpt lat="36.4718400" lon="-6.1895370">
        <ele>-9.0</ele>
        <time>2023-01-28T10:43:23Z</time>
      </trkpt>
      <trkpt lat="36.4718840" lon="-6.1895430">
        <ele>-9.0</ele>
        <time>2023-01-28T10:43:24Z</time>
      </trkpt>
      <trkpt lat="36.4719240" lon="-6.1895410">
        <ele>-9.0</ele>
        <time>2023-01-28T10:43:25Z</time>
      </trkpt>
      <trkpt lat="36.4719680" lon="-6.1895400">
        <ele>-9.2</ele>
        <time>2023-01-28T10:43:26Z</time>
      </trkpt>
      <trkpt lat="36.4720110" lon="-6.1895420">
        <ele>-9.0</ele>
        <time>2023-01-28T10:43:27Z</time>
      </trkpt>
      <trkpt lat="36.4720600" lon="-6.1895510">
        <ele>-8.8</ele>
        <time>2023-01-28T10:43:28Z</time>
      </trkpt>
      <trkpt lat="36.4721010" lon="-6.1895590">
        <ele>-8.8</ele>
        <time>2023-01-28T10:43:29Z</time>
      </trkpt>
      <trkpt lat="36.4721640" lon="-6.1895600">
        <ele>-8.8</ele>
        <time>2023-01-28T10:43:30Z</time>
      </trkpt>
      <trkpt lat="36.4721950" lon="-6.1895920">
        <ele>-8.8</ele>
        <time>2023-01-28T10:43:31Z</time>
      </trkpt>
      <trkpt lat="36.4722220" lon="-6.1896430">
        <ele>-8.8</ele>
        <time>2023-01-28T10:43:32Z</time>
      </trkpt>
      <trkpt lat="36.4722570" lon="-6.1896610">
        <ele>-8.8</ele>
        <time>2023-01-28T10:43:33Z</time>
      </trkpt>
      <trkpt lat="36.4722860" lon="-6.1896970">
        <ele>-8.8</ele>
        <time>2023-01-28T10:43:34Z</time>
      </trkpt>
      <trkpt lat="36.4722990" lon="-6.1897330">
        <ele>-8.8</ele>
        <time>2023-01-28T10:43:35Z</time>
      </trkpt>
      <trkpt lat="36.4722980" lon="-6.1897840">
        <ele>-8.6</ele>
        <time>2023-01-28T10:43:36Z</time>
      </trkpt>
      <trkpt lat="36.4723180" lon="-6.1898090">
        <ele>-8.6</ele>
        <time>2023-01-28T10:43:37Z</time>
      </trkpt>
      <trkpt lat="36.4723380" lon="-6.1898440">
        <ele>-8.4</ele>
        <time>2023-01-28T10:43:38Z</time>
      </trkpt>
      <trkpt lat="36.4723420" lon="-6.1898820">
        <ele>-8.4</ele>
        <time>2023-01-28T10:43:39Z</time>
      </trkpt>
      <trkpt lat="36.4723420" lon="-6.1899360">
        <ele>-8.4</ele>
        <time>2023-01-28T10:43:40Z</time>
      </trkpt>
      <trkpt lat="36.4723400" lon="-6.1899590">
        <ele>-8.6</ele>
        <time>2023-01-28T10:43:41Z</time>
      </trkpt>
      <trkpt lat="36.4723390" lon="-6.1899930">
        <ele>-8.4</ele>
        <time>2023-01-28T10:43:42Z</time>
      </trkpt>
      <trkpt lat="36.4723800" lon="-6.1900310">
        <ele>-8.4</ele>
        <time>2023-01-28T10:43:43Z</time>
      </trkpt>
      <trkpt lat="36.4723920" lon="-6.1900440">
        <ele>-8.4</ele>
        <time>2023-01-28T10:43:44Z</time>
      </trkpt>
      <trkpt lat="36.4723900" lon="-6.1900910">
        <ele>-8.4</ele>
        <time>2023-01-28T10:43:45Z</time>
      </trkpt>
      <trkpt lat="36.4724320" lon="-6.1901300">
        <ele>-8.4</ele>
        <time>2023-01-28T10:43:46Z</time>
      </trkpt>
      <trkpt lat="36.4724350" lon="-6.1901690">
        <ele>-8.2</ele>
        <time>2023-01-28T10:43:47Z</time>
      </trkpt>
      <trkpt lat="36.4724520" lon="-6.1902060">
        <ele>-8.2</ele>
        <time>2023-01-28T10:43:48Z</time>
      </trkpt>
      <trkpt lat="36.4724720" lon="-6.1902500">
        <ele>-8.2</ele>
        <time>2023-01-28T10:43:49Z</time>
      </trkpt>
      <trkpt lat="36.4725120" lon="-6.1902930">
        <ele>-7.8</ele>
        <time>2023-01-28T10:43:50Z</time>
      </trkpt>
      <trkpt lat="36.4725220" lon="-6.1903570">
        <ele>-7.8</ele>
        <time>2023-01-28T10:43:51Z</time>
      </trkpt>
      <trkpt lat="36.4725320" lon="-6.1904050">
        <ele>-7.6</ele>
        <time>2023-01-28T10:43:52Z</time>
      </trkpt>
      <trkpt lat="36.4725670" lon="-6.1904570">
        <ele>-7.2</ele>
        <time>2023-01-28T10:43:53Z</time>
      </trkpt>
      <trkpt lat="36.4726170" lon="-6.1904920">
        <ele>-7.0</ele>
        <time>2023-01-28T10:43:54Z</time>
      </trkpt>
      <trkpt lat="36.4726430" lon="-6.1905180">
        <ele>-6.4</ele>
        <time>2023-01-28T10:43:55Z</time>
      </trkpt>
      <trkpt lat="36.4726660" lon="-6.1905530">
        <ele>-5.8</ele>
        <time>2023-01-28T10:43:56Z</time>
      </trkpt>
      <trkpt lat="36.4727070" lon="-6.1905700">
        <ele>-6.2</ele>
        <time>2023-01-28T10:43:57Z</time>
      </trkpt>
      <trkpt lat="36.4727430" lon="-6.1906180">
        <ele>-6.4</ele>
        <time>2023-01-28T10:43:58Z</time>
      </trkpt>
      <trkpt lat="36.4727590" lon="-6.1906590">
        <ele>-6.6</ele>
        <time>2023-01-28T10:43:59Z</time>
      </trkpt>
      <trkpt lat="36.4727850" lon="-6.1907080">
        <ele>-6.6</ele>
        <time>2023-01-28T10:44:00Z</time>
      </trkpt>
      <trkpt lat="36.4728340" lon="-6.1907400">
        <ele>-6.6</ele>
        <time>2023-01-28T10:44:01Z</time>
      </trkpt>
      <trkpt lat="36.4728690" lon="-6.1907590">
        <ele>-6.6</ele>
        <time>2023-01-28T10:44:02Z</time>
      </trkpt>
      <trkpt lat="36.4728990" lon="-6.1907950">
        <ele>-6.6</ele>
        <time>2023-01-28T10:44:03Z</time>
      </trkpt>
      <trkpt lat="36.4729350" lon="-6.1908350">
        <ele>-6.8</ele>
        <time>2023-01-28T10:44:04Z</time>
      </trkpt>
      <trkpt lat="36.4729730" lon="-6.1908810">
        <ele>-7.0</ele>
        <time>2023-01-28T10:44:05Z</time>
      </trkpt>
      <trkpt lat="36.4730030" lon="-6.1909160">
        <ele>-7.0</ele>
        <time>2023-01-28T10:44:06Z</time>
      </trkpt>
      <trkpt lat="36.4730300" lon="-6.1909440">
        <ele>-6.8</ele>
        <time>2023-01-28T10:44:07Z</time>
      </trkpt>
      <trkpt lat="36.4730860" lon="-6.1910190">
        <ele>-6.8</ele>
        <time>2023-01-28T10:44:08Z</time>
      </trkpt>
      <trkpt lat="36.4731040" lon="-6.1910490">
        <ele>-7.2</ele>
        <time>2023-01-28T10:44:09Z</time>
      </trkpt>
      <trkpt lat="36.4731400" lon="-6.1911080">
        <ele>-7.8</ele>
        <time>2023-01-28T10:44:10Z</time>
      </trkpt>
      <trkpt lat="36.4731990" lon="-6.1911470">
        <ele>-8.0</ele>
        <time>2023-01-28T10:44:11Z</time>
      </trkpt>
      <trkpt lat="36.4732590" lon="-6.1911980">
        <ele>-8.6</ele>
        <time>2023-01-28T10:44:12Z</time>
      </trkpt>
      <trkpt lat="36.4733160" lon="-6.1912590">
        <ele>-8.8</ele>
        <time>2023-01-28T10:44:13Z</time>
      </trkpt>
      <trkpt lat="36.4733670" lon="-6.1913120">
        <ele>-8.8</ele>
        <time>2023-01-28T10:44:14Z</time>
      </trkpt>
      <trkpt lat="36.4734200" lon="-6.1913790">
        <ele>-9.0</ele>
        <time>2023-01-28T10:44:15Z</time>
      </trkpt>
      <trkpt lat="36.4734620" lon="-6.1914270">
        <ele>-9.2</ele>
        <time>2023-01-28T10:44:16Z</time>
      </trkpt>
      <trkpt lat="36.4735130" lon="-6.1914470">
        <ele>-9.2</ele>
        <time>2023-01-28T10:44:17Z</time>
      </trkpt>
      <trkpt lat="36.4735610" lon="-6.1914750">
        <ele>-9.2</ele>
        <time>2023-01-28T10:44:18Z</time>
      </trkpt>
      <trkpt lat="36.4736100" lon="-6.1915320">
        <ele>-9.4</ele>
        <time>2023-01-28T10:44:19Z</time>
      </trkpt>
      <trkpt lat="36.4736600" lon="-6.1915860">
        <ele>-9.4</ele>
        <time>2023-01-28T10:44:20Z</time>
      </trkpt>
      <trkpt lat="36.4737000" lon="-6.1916350">
        <ele>-9.4</ele>
        <time>2023-01-28T10:44:21Z</time>
      </trkpt>
      <trkpt lat="36.4737340" lon="-6.1916780">
        <ele>-9.4</ele>
        <time>2023-01-28T10:44:22Z</time>
      </trkpt>
      <trkpt lat="36.4737500" lon="-6.1917520">
        <ele>-9.4</ele>
        <time>2023-01-28T10:44:23Z</time>
      </trkpt>
      <trkpt lat="36.4737980" lon="-6.1918070">
        <ele>-9.2</ele>
        <time>2023-01-28T10:44:24Z</time>
      </trkpt>
      <trkpt lat="36.4738330" lon="-6.1918810">
        <ele>-9.2</ele>
        <time>2023-01-28T10:44:25Z</time>
      </trkpt>
      <trkpt lat="36.4738740" lon="-6.1919440">
        <ele>-9.0</ele>
        <time>2023-01-28T10:44:26Z</time>
      </trkpt>
      <trkpt lat="36.4739160" lon="-6.1920110">
        <ele>-8.8</ele>
        <time>2023-01-28T10:44:27Z</time>
      </trkpt>
      <trkpt lat="36.4739590" lon="-6.1920970">
        <ele>-8.8</ele>
        <time>2023-01-28T10:44:28Z</time>
      </trkpt>
      <trkpt lat="36.4740080" lon="-6.1921550">
        <ele>-8.8</ele>
        <time>2023-01-28T10:44:29Z</time>
      </trkpt>
      <trkpt lat="36.4740510" lon="-6.1921960">
        <ele>-8.8</ele>
        <time>2023-01-28T10:44:30Z</time>
      </trkpt>
      <trkpt lat="36.4741290" lon="-6.1922480">
        <ele>-8.6</ele>
        <time>2023-01-28T10:44:31Z</time>
      </trkpt>
      <trkpt lat="36.4741500" lon="-6.1923190">
        <ele>-8.6</ele>
        <time>2023-01-28T10:44:32Z</time>
      </trkpt>
      <trkpt lat="36.4741910" lon="-6.1923850">
        <ele>-8.6</ele>
        <time>2023-01-28T10:44:33Z</time>
      </trkpt>
      <trkpt lat="36.4742490" lon="-6.1924240">
        <ele>-8.6</ele>
        <time>2023-01-28T10:44:34Z</time>
      </trkpt>
      <trkpt lat="36.4743030" lon="-6.1924910">
        <ele>-8.6</ele>
        <time>2023-01-28T10:44:35Z</time>
      </trkpt>
      <trkpt lat="36.4743560" lon="-6.1925650">
        <ele>-8.6</ele>
        <time>2023-01-28T10:44:36Z</time>
      </trkpt>
      <trkpt lat="36.4743840" lon="-6.1926350">
        <ele>-8.6</ele>
        <time>2023-01-28T10:44:37Z</time>
      </trkpt>
      <trkpt lat="36.4744420" lon="-6.1927040">
        <ele>-8.2</ele>
        <time>2023-01-28T10:44:38Z</time>
      </trkpt>
      <trkpt lat="36.4744840" lon="-6.1927690">
        <ele>-7.8</ele>
        <time>2023-01-28T10:44:39Z</time>
      </trkpt>
      <trkpt lat="36.4745340" lon="-6.1928100">
        <ele>-7.4</ele>
        <time>2023-01-28T10:44:40Z</time>
      </trkpt>
      <trkpt lat="36.4745830" lon="-6.1928610">
        <ele>-7.0</ele>
        <time>2023-01-28T10:44:41Z</time>
      </trkpt>
      <trkpt lat="36.4746140" lon="-6.1929000">
        <ele>-6.6</ele>
        <time>2023-01-28T10:44:42Z</time>
      </trkpt>
      <trkpt lat="36.4746610" lon="-6.1929560">
        <ele>-6.4</ele>
        <time>2023-01-28T10:44:43Z</time>
      </trkpt>
      <trkpt lat="36.4746780" lon="-6.1929950">
        <ele>-6.0</ele>
        <time>2023-01-28T10:44:44Z</time>
      </trkpt>
      <trkpt lat="36.4747000" lon="-6.1930330">
        <ele>-5.6</ele>
        <time>2023-01-28T10:44:45Z</time>
      </trkpt>
      <trkpt lat="36.4747000" lon="-6.1930690">
        <ele>-5.0</ele>
        <time>2023-01-28T10:44:46Z</time>
      </trkpt>
      <trkpt lat="36.4747170" lon="-6.1931030">
        <ele>-4.6</ele>
        <time>2023-01-28T10:44:47Z</time>
      </trkpt>
      <trkpt lat="36.4747470" lon="-6.1931360">
        <ele>-4.4</ele>
        <time>2023-01-28T10:44:48Z</time>
      </trkpt>
      <trkpt lat="36.4747660" lon="-6.1931750">
        <ele>-4.4</ele>
        <time>2023-01-28T10:44:49Z</time>
      </trkpt>
      <trkpt lat="36.4747890" lon="-6.1932040">
        <ele>-4.6</ele>
        <time>2023-01-28T10:44:50Z</time>
      </trkpt>
      <trkpt lat="36.4748140" lon="-6.1932440">
        <ele>-4.8</ele>
        <time>2023-01-28T10:44:51Z</time>
      </trkpt>
      <trkpt lat="36.4748300" lon="-6.1932810">
        <ele>-5.0</ele>
        <time>2023-01-28T10:44:52Z</time>
      </trkpt>
      <trkpt lat="36.4748550" lon="-6.1933120">
        <ele>-5.0</ele>
        <time>2023-01-28T10:44:53Z</time>
      </trkpt>
      <trkpt lat="36.4748790" lon="-6.1933470">
        <ele>-4.8</ele>
        <time>2023-01-28T10:44:54Z</time>
      </trkpt>
      <trkpt lat="36.4748920" lon="-6.1933860">
        <ele>-4.8</ele>
        <time>2023-01-28T10:44:55Z</time>
      </trkpt>
      <trkpt lat="36.4749230" lon="-6.1934110">
        <ele>-4.6</ele>
        <time>2023-01-28T10:44:56Z</time>
      </trkpt>
      <trkpt lat="36.4749480" lon="-6.1934540">
        <ele>-4.4</ele>
        <time>2023-01-28T10:44:57Z</time>
      </trkpt>
      <trkpt lat="36.4749580" lon="-6.1934760">
        <ele>-4.2</ele>
        <time>2023-01-28T10:44:58Z</time>
      </trkpt>
      <trkpt lat="36.4749840" lon="-6.1935130">
        <ele>-3.6</ele>
        <time>2023-01-28T10:44:59Z</time>
      </trkpt>
      <trkpt lat="36.4749960" lon="-6.1935710">
        <ele>-3.4</ele>
        <time>2023-01-28T10:45:00Z</time>
      </trkpt>
      <trkpt lat="36.4749950" lon="-6.1936320">
        <ele>-3.4</ele>
        <time>2023-01-28T10:45:01Z</time>
      </trkpt>
      <trkpt lat="36.4750130" lon="-6.1936820">
        <ele>-3.6</ele>
        <time>2023-01-28T10:45:02Z</time>
      </trkpt>
      <trkpt lat="36.4750270" lon="-6.1937330">
        <ele>-3.6</ele>
        <time>2023-01-28T10:45:03Z</time>
      </trkpt>
      <trkpt lat="36.4750450" lon="-6.1937770">
        <ele>-3.6</ele>
        <time>2023-01-28T10:45:04Z</time>
      </trkpt>
      <trkpt lat="36.4750560" lon="-6.1938120">
        <ele>-3.6</ele>
        <time>2023-01-28T10:45:05Z</time>
      </trkpt>
      <trkpt lat="36.4750660" lon="-6.1938370">
        <ele>-3.4</ele>
        <time>2023-01-28T10:45:06Z</time>
      </trkpt>
      <trkpt lat="36.4750690" lon="-6.1938910">
        <ele>-3.4</ele>
        <time>2023-01-28T10:45:07Z</time>
      </trkpt>
      <trkpt lat="36.4750750" lon="-6.1939340">
        <ele>-3.2</ele>
        <time>2023-01-28T10:45:08Z</time>
      </trkpt>
      <trkpt lat="36.4750770" lon="-6.1939940">
        <ele>-3.2</ele>
        <time>2023-01-28T10:45:09Z</time>
      </trkpt>
      <trkpt lat="36.4750790" lon="-6.1940430">
        <ele>-3.0</ele>
        <time>2023-01-28T10:45:10Z</time>
      </trkpt>
      <trkpt lat="36.4751170" lon="-6.1940910">
        <ele>-3.0</ele>
        <time>2023-01-28T10:45:11Z</time>
      </trkpt>
      <trkpt lat="36.4751370" lon="-6.1941410">
        <ele>-2.8</ele>
        <time>2023-01-28T10:45:12Z</time>
      </trkpt>
      <trkpt lat="36.4751340" lon="-6.1941720">
        <ele>-2.8</ele>
        <time>2023-01-28T10:45:13Z</time>
      </trkpt>
      <trkpt lat="36.4751340" lon="-6.1942020">
        <ele>-2.8</ele>
        <time>2023-01-28T10:45:14Z</time>
      </trkpt>
      <trkpt lat="36.4751370" lon="-6.1942500">
        <ele>-2.6</ele>
        <time>2023-01-28T10:45:15Z</time>
      </trkpt>
      <trkpt lat="36.4751300" lon="-6.1942980">
        <ele>-2.4</ele>
        <time>2023-01-28T10:45:16Z</time>
      </trkpt>
      <trkpt lat="36.4751320" lon="-6.1943450">
        <ele>-2.0</ele>
        <time>2023-01-28T10:45:17Z</time>
      </trkpt>
      <trkpt lat="36.4751300" lon="-6.1944010">
        <ele>-1.8</ele>
        <time>2023-01-28T10:45:18Z</time>
      </trkpt>
      <trkpt lat="36.4751530" lon="-6.1944380">
        <ele>-1.6</ele>
        <time>2023-01-28T10:45:19Z</time>
      </trkpt>
      <trkpt lat="36.4751670" lon="-6.1944700">
        <ele>-1.4</ele>
        <time>2023-01-28T10:45:20Z</time>
      </trkpt>
      <trkpt lat="36.4751740" lon="-6.1945020">
        <ele>-1.4</ele>
        <time>2023-01-28T10:45:21Z</time>
      </trkpt>
      <trkpt lat="36.4752090" lon="-6.1945110">
        <ele>-1.0</ele>
        <time>2023-01-28T10:45:22Z</time>
      </trkpt>
      <trkpt lat="36.4752400" lon="-6.1945120">
        <ele>-1.0</ele>
        <time>2023-01-28T10:45:23Z</time>
      </trkpt>
      <trkpt lat="36.4752900" lon="-6.1944940">
        <ele>-1.2</ele>
        <time>2023-01-28T10:45:24Z</time>
      </trkpt>
      <trkpt lat="36.4753210" lon="-6.1944750">
        <ele>-1.2</ele>
        <time>2023-01-28T10:45:25Z</time>
      </trkpt>
      <trkpt lat="36.4753610" lon="-6.1944670">
        <ele>-1.4</ele>
        <time>2023-01-28T10:45:26Z</time>
      </trkpt>
      <trkpt lat="36.4753970" lon="-6.1944620">
        <ele>-1.4</ele>
        <time>2023-01-28T10:45:27Z</time>
      </trkpt>
      <trkpt lat="36.4754400" lon="-6.1944590">
        <ele>-1.2</ele>
        <time>2023-01-28T10:45:28Z</time>
      </trkpt>
      <trkpt lat="36.4754780" lon="-6.1944620">
        <ele>-1.0</ele>
        <time>2023-01-28T10:45:29Z</time>
      </trkpt>
      <trkpt lat="36.4755100" lon="-6.1944510">
        <ele>-1.2</ele>
        <time>2023-01-28T10:45:30Z</time>
      </trkpt>
      <trkpt lat="36.4755470" lon="-6.1944540">
        <ele>-1.2</ele>
        <time>2023-01-28T10:45:31Z</time>
      </trkpt>
      <trkpt lat="36.4761430" lon="-6.1946080">
        <ele>15.2</ele>
        <time>2023-01-28T10:48:31Z</time>
      </trkpt>
      <trkpt lat="36.4761800" lon="-6.1946100">
        <ele>15.0</ele>
        <time>2023-01-28T10:48:32Z</time>
      </trkpt>
      <trkpt lat="36.4762170" lon="-6.1946130">
        <ele>15.0</ele>
        <time>2023-01-28T10:48:33Z</time>
      </trkpt>
      <trkpt lat="36.4762490" lon="-6.1946010">
        <ele>15.0</ele>
        <time>2023-01-28T10:48:34Z</time>
      </trkpt>
      <trkpt lat="36.4762960" lon="-6.1946180">
        <ele>15.0</ele>
        <time>2023-01-28T10:48:35Z</time>
      </trkpt>
      <trkpt lat="36.4763210" lon="-6.1946440">
        <ele>15.0</ele>
        <time>2023-01-28T10:48:36Z</time>
      </trkpt>
      <trkpt lat="36.4763550" lon="-6.1946790">
        <ele>15.0</ele>
        <time>2023-01-28T10:48:37Z</time>
      </trkpt>
      <trkpt lat="36.4763660" lon="-6.1947230">
        <ele>15.0</ele>
        <time>2023-01-28T10:48:38Z</time>
      </trkpt>
      <trkpt lat="36.4763770" lon="-6.1947750">
        <ele>15.0</ele>
        <time>2023-01-28T10:48:39Z</time>
      </trkpt>
      <trkpt lat="36.4763780" lon="-6.1948150">
        <ele>15.0</ele>
        <time>2023-01-28T10:48:40Z</time>
      </trkpt>
      <trkpt lat="36.4763800" lon="-6.1948530">
        <ele>15.0</ele>
        <time>2023-01-28T10:48:41Z</time>
      </trkpt>
      <trkpt lat="36.4763800" lon="-6.1948530">
        <ele>15.0</ele>
        <time>2023-01-28T10:48:42Z</time>
      </trkpt>
      <trkpt lat="36.4763610" lon="-6.1949160">
        <ele>15.0</ele>
        <time>2023-01-28T10:48:43Z</time>
      </trkpt>
      <trkpt lat="36.4763630" lon="-6.1949260">
        <ele>15.0</ele>
        <time>2023-01-28T10:48:44Z</time>
      </trkpt>
      <trkpt lat="36.4763560" lon="-6.1949310">
        <ele>15.0</ele>
        <time>2023-01-28T10:48:45Z</time>
      </trkpt>
      <trkpt lat="36.4763540" lon="-6.1949560">
        <ele>15.0</ele>
        <time>2023-01-28T10:48:46Z</time>
      </trkpt>
      <trkpt lat="36.4763510" lon="-6.1949660">
        <ele>15.0</ele>
        <time>2023-01-28T10:48:47Z</time>
      </trkpt>
      <trkpt lat="36.4763360" lon="-6.1949820">
        <ele>14.8</ele>
        <time>2023-01-28T10:48:48Z</time>
      </trkpt>
      <trkpt lat="36.4763220" lon="-6.1949940">
        <ele>14.8</ele>
        <time>2023-01-28T10:48:49Z</time>
      </trkpt>
      <trkpt lat="36.4763090" lon="-6.1950070">
        <ele>14.8</ele>
        <time>2023-01-28T10:48:50Z</time>
      </trkpt>
      <trkpt lat="36.4763020" lon="-6.1950350">
        <ele>15.0</ele>
        <time>2023-01-28T10:48:51Z</time>
      </trkpt>
      <trkpt lat="36.4763020" lon="-6.1950790">
        <ele>15.0</ele>
        <time>2023-01-28T10:48:52Z</time>
      </trkpt>
      <trkpt lat="36.4762920" lon="-6.1951150">
        <ele>15.2</ele>
        <time>2023-01-28T10:48:53Z</time>
      </trkpt>
      <trkpt lat="36.4762920" lon="-6.1951150">
        <ele>15.4</ele>
        <time>2023-01-28T10:48:54Z</time>
      </trkpt>
      <trkpt lat="36.4762900" lon="-6.1952100">
        <ele>15.4</ele>
        <time>2023-01-28T10:48:55Z</time>
      </trkpt>
      <trkpt lat="36.4762830" lon="-6.1952610">
        <ele>15.4</ele>
        <time>2023-01-28T10:48:56Z</time>
      </trkpt>
      <trkpt lat="36.4762960" lon="-6.1953100">
        <ele>15.4</ele>
        <time>2023-01-28T10:48:57Z</time>
      </trkpt>
      <trkpt lat="36.4763020" lon="-6.1953610">
        <ele>15.4</ele>
        <time>2023-01-28T10:48:58Z</time>
      </trkpt>
      <trkpt lat="36.4763160" lon="-6.1954140">
        <ele>15.4</ele>
        <time>2023-01-28T10:48:59Z</time>
      </trkpt>
      <trkpt lat="36.4763160" lon="-6.1954140">
        <ele>15.6</ele>
        <time>2023-01-28T10:49:00Z</time>
      </trkpt>
      <trkpt lat="36.4763110" lon="-6.1955030">
        <ele>15.8</ele>
        <time>2023-01-28T10:49:01Z</time>
      </trkpt>
      <trkpt lat="36.4763080" lon="-6.1955640">
        <ele>15.8</ele>
        <time>2023-01-28T10:49:02Z</time>
      </trkpt>
      <trkpt lat="36.4763080" lon="-6.1955640">
        <ele>15.8</ele>
        <time>2023-01-28T10:49:03Z</time>
      </trkpt>
      <trkpt lat="36.4763010" lon="-6.1956800">
        <ele>15.8</ele>
        <time>2023-01-28T10:49:04Z</time>
      </trkpt>
      <trkpt lat="36.4762950" lon="-6.1957440">
        <ele>15.8</ele>
        <time>2023-01-28T10:49:05Z</time>
      </trkpt>
      <trkpt lat="36.4763020" lon="-6.1957940">
        <ele>16.0</ele>
        <time>2023-01-28T10:49:06Z</time>
      </trkpt>
      <trkpt lat="36.4762950" lon="-6.1958340">
        <ele>16.0</ele>
        <time>2023-01-28T10:49:07Z</time>
      </trkpt>
      <trkpt lat="36.4762950" lon="-6.1958340">
        <ele>16.0</ele>
        <time>2023-01-28T10:49:08Z</time>
      </trkpt>
      <trkpt lat="36.4762900" lon="-6.1959490">
        <ele>16.0</ele>
        <time>2023-01-28T10:49:09Z</time>
      </trkpt>
      <trkpt lat="36.4762910" lon="-6.1959940">
        <ele>16.0</ele>
        <time>2023-01-28T10:49:10Z</time>
      </trkpt>
      <trkpt lat="36.4762910" lon="-6.1959940">
        <ele>16.0</ele>
        <time>2023-01-28T10:49:11Z</time>
      </trkpt>
      <trkpt lat="36.4762870" lon="-6.1960770">
        <ele>16.0</ele>
        <time>2023-01-28T10:49:12Z</time>
      </trkpt>
      <trkpt lat="36.4762930" lon="-6.1961350">
        <ele>16.0</ele>
        <time>2023-01-28T10:49:13Z</time>
      </trkpt>
      <trkpt lat="36.4762930" lon="-6.1961350">
        <ele>16.0</ele>
        <time>2023-01-28T10:49:14Z</time>
      </trkpt>
      <trkpt lat="36.4762930" lon="-6.1962290">
        <ele>16.0</ele>
        <time>2023-01-28T10:49:15Z</time>
      </trkpt>
      <trkpt lat="36.4762750" lon="-6.1962940">
        <ele>16.0</ele>
        <time>2023-01-28T10:49:16Z</time>
      </trkpt>
      <trkpt lat="36.4762830" lon="-6.1963480">
        <ele>16.0</ele>
        <time>2023-01-28T10:49:17Z</time>
      </trkpt>
      <trkpt lat="36.4762830" lon="-6.1964120">
        <ele>15.8</ele>
        <time>2023-01-28T10:49:18Z</time>
      </trkpt>
      <trkpt lat="36.4762830" lon="-6.1964120">
        <ele>15.8</ele>
        <time>2023-01-28T10:49:19Z</time>
      </trkpt>
      <trkpt lat="36.4762890" lon="-6.1965030">
        <ele>16.0</ele>
        <time>2023-01-28T10:49:20Z</time>
      </trkpt>
      <trkpt lat="36.4762840" lon="-6.1965560">
        <ele>16.0</ele>
        <time>2023-01-28T10:49:21Z</time>
      </trkpt>
      <trkpt lat="36.4762810" lon="-6.1966140">
        <ele>16.2</ele>
        <time>2023-01-28T10:49:22Z</time>
      </trkpt>
      <trkpt lat="36.4762810" lon="-6.1966140">
        <ele>16.2</ele>
        <time>2023-01-28T10:49:23Z</time>
      </trkpt>
      <trkpt lat="36.4762740" lon="-6.1967300">
        <ele>16.4</ele>
        <time>2023-01-28T10:49:24Z</time>
      </trkpt>
      <trkpt lat="36.4762720" lon="-6.1967890">
        <ele>16.6</ele>
        <time>2023-01-28T10:49:25Z</time>
      </trkpt>
      <trkpt lat="36.4762720" lon="-6.1967890">
        <ele>16.6</ele>
        <time>2023-01-28T10:49:26Z</time>
      </trkpt>
      <trkpt lat="36.4762710" lon="-6.1968920">
        <ele>16.6</ele>
        <time>2023-01-28T10:49:27Z</time>
      </trkpt>
      <trkpt lat="36.4762670" lon="-6.1969580">
        <ele>16.4</ele>
        <time>2023-01-28T10:49:28Z</time>
      </trkpt>
      <trkpt lat="36.4762640" lon="-6.1970170">
        <ele>16.4</ele>
        <time>2023-01-28T10:49:29Z</time>
      </trkpt>
      <trkpt lat="36.4762640" lon="-6.1970170">
        <ele>16.4</ele>
        <time>2023-01-28T10:49:30Z</time>
      </trkpt>
      <trkpt lat="36.4762630" lon="-6.1971270">
        <ele>16.4</ele>
        <time>2023-01-28T10:49:31Z</time>
      </trkpt>
      <trkpt lat="36.4762590" lon="-6.1971890">
        <ele>16.4</ele>
        <time>2023-01-28T10:49:32Z</time>
      </trkpt>
      <trkpt lat="36.4762590" lon="-6.1971890">
        <ele>16.6</ele>
        <time>2023-01-28T10:49:33Z</time>
      </trkpt>
      <trkpt lat="36.4762590" lon="-6.1972790">
        <ele>16.4</ele>
        <time>2023-01-28T10:49:34Z</time>
      </trkpt>
      <trkpt lat="36.4762730" lon="-6.1973370">
        <ele>16.6</ele>
        <time>2023-01-28T10:49:35Z</time>
      </trkpt>
      <trkpt lat="36.4762730" lon="-6.1973370">
        <ele>16.6</ele>
        <time>2023-01-28T10:49:36Z</time>
      </trkpt>
      <trkpt lat="36.4762730" lon="-6.1974510">
        <ele>16.6</ele>
        <time>2023-01-28T10:49:37Z</time>
      </trkpt>
      <trkpt lat="36.4762530" lon="-6.1975170">
        <ele>16.6</ele>
        <time>2023-01-28T10:49:38Z</time>
      </trkpt>
      <trkpt lat="36.4762490" lon="-6.1975780">
        <ele>16.6</ele>
        <time>2023-01-28T10:49:39Z</time>
      </trkpt>
      <trkpt lat="36.4762550" lon="-6.1976350">
        <ele>17.0</ele>
        <time>2023-01-28T10:49:40Z</time>
      </trkpt>
      <trkpt lat="36.4762550" lon="-6.1976350">
        <ele>17.0</ele>
        <time>2023-01-28T10:49:41Z</time>
      </trkpt>
      <trkpt lat="36.4762560" lon="-6.1977380">
        <ele>17.0</ele>
        <time>2023-01-28T10:49:42Z</time>
      </trkpt>
      <trkpt lat="36.4762680" lon="-6.1977840">
        <ele>16.8</ele>
        <time>2023-01-28T10:49:43Z</time>
      </trkpt>
      <trkpt lat="36.4762680" lon="-6.1977840">
        <ele>16.8</ele>
        <time>2023-01-28T10:49:44Z</time>
      </trkpt>
      <trkpt lat="36.4762720" lon="-6.1978980">
        <ele>17.2</ele>
        <time>2023-01-28T10:49:45Z</time>
      </trkpt>
      <trkpt lat="36.4762680" lon="-6.1979570">
        <ele>17.4</ele>
        <time>2023-01-28T10:49:46Z</time>
      </trkpt>
      <trkpt lat="36.4762610" lon="-6.1980190">
        <ele>17.4</ele>
        <time>2023-01-28T10:49:47Z</time>
      </trkpt>
      <trkpt lat="36.4762500" lon="-6.1980940">
        <ele>17.4</ele>
        <time>2023-01-28T10:49:48Z</time>
      </trkpt>
      <trkpt lat="36.4762500" lon="-6.1980940">
        <ele>17.4</ele>
        <time>2023-01-28T10:49:49Z</time>
      </trkpt>
      <trkpt lat="36.4762240" lon="-6.1982040">
        <ele>17.4</ele>
        <time>2023-01-28T10:49:50Z</time>
      </trkpt>
      <trkpt lat="36.4762120" lon="-6.1982570">
        <ele>17.6</ele>
        <time>2023-01-28T10:49:51Z</time>
      </trkpt>
      <trkpt lat="36.4762030" lon="-6.1983100">
        <ele>17.6</ele>
        <time>2023-01-28T10:49:52Z</time>
      </trkpt>
      <trkpt lat="36.4761870" lon="-6.1983590">
        <ele>17.8</ele>
        <time>2023-01-28T10:49:53Z</time>
      </trkpt>
      <trkpt lat="36.4761780" lon="-6.1984010">
        <ele>17.8</ele>
        <time>2023-01-28T10:49:54Z</time>
      </trkpt>
      <trkpt lat="36.4761840" lon="-6.1984490">
        <ele>17.8</ele>
        <time>2023-01-28T10:49:55Z</time>
      </trkpt>
      <trkpt lat="36.4761700" lon="-6.1984900">
        <ele>17.8</ele>
        <time>2023-01-28T10:49:56Z</time>
      </trkpt>
      <trkpt lat="36.4761670" lon="-6.1985350">
        <ele>17.6</ele>
        <time>2023-01-28T10:49:57Z</time>
      </trkpt>
      <trkpt lat="36.4761670" lon="-6.1985350">
        <ele>17.6</ele>
        <time>2023-01-28T10:49:58Z</time>
      </trkpt>
      <trkpt lat="36.4761610" lon="-6.1986300">
        <ele>17.6</ele>
        <time>2023-01-28T10:49:59Z</time>
      </trkpt>
      <trkpt lat="36.4761600" lon="-6.1986800">
        <ele>17.6</ele>
        <time>2023-01-28T10:50:00Z</time>
      </trkpt>
      <trkpt lat="36.4761550" lon="-6.1987100">
        <ele>17.6</ele>
        <time>2023-01-28T10:50:01Z</time>
      </trkpt>
      <trkpt lat="36.4761590" lon="-6.1987430">
        <ele>17.6</ele>
        <time>2023-01-28T10:50:02Z</time>
      </trkpt>
      <trkpt lat="36.4761590" lon="-6.1987430">
        <ele>17.4</ele>
        <time>2023-01-28T10:50:03Z</time>
      </trkpt>
      <trkpt lat="36.4761930" lon="-6.1988110">
        <ele>17.2</ele>
        <time>2023-01-28T10:50:04Z</time>
      </trkpt>
      <trkpt lat="36.4762030" lon="-6.1988490">
        <ele>17.2</ele>
        <time>2023-01-28T10:50:05Z</time>
      </trkpt>
      <trkpt lat="36.4762220" lon="-6.1988960">
        <ele>17.2</ele>
        <time>2023-01-28T10:50:06Z</time>
      </trkpt>
      <trkpt lat="36.4762310" lon="-6.1989520">
        <ele>17.2</ele>
        <time>2023-01-28T10:50:07Z</time>
      </trkpt>
      <trkpt lat="36.4762520" lon="-6.1989900">
        <ele>17.2</ele>
        <time>2023-01-28T10:50:08Z</time>
      </trkpt>
      <trkpt lat="36.4762420" lon="-6.1990400">
        <ele>17.4</ele>
        <time>2023-01-28T10:50:09Z</time>
      </trkpt>
      <trkpt lat="36.4762300" lon="-6.1990780">
        <ele>17.2</ele>
        <time>2023-01-28T10:50:10Z</time>
      </trkpt>
      <trkpt lat="36.4762060" lon="-6.1991270">
        <ele>17.2</ele>
        <time>2023-01-28T10:50:11Z</time>
      </trkpt>
      <trkpt lat="36.4761820" lon="-6.1991680">
        <ele>17.2</ele>
        <time>2023-01-28T10:50:12Z</time>
      </trkpt>
      <trkpt lat="36.4761680" lon="-6.1991970">
        <ele>17.2</ele>
        <time>2023-01-28T10:50:13Z</time>
      </trkpt>
      <trkpt lat="36.4761400" lon="-6.1992270">
        <ele>17.4</ele>
        <time>2023-01-28T10:50:14Z</time>
      </trkpt>
      <trkpt lat="36.4761000" lon="-6.1992700">
        <ele>17.4</ele>
        <time>2023-01-28T10:50:15Z</time>
      </trkpt>
      <trkpt lat="36.4760730" lon="-6.1992860">
        <ele>17.4</ele>
        <time>2023-01-28T10:50:16Z</time>
      </trkpt>
      <trkpt lat="36.4760730" lon="-6.1992860">
        <ele>17.4</ele>
        <time>2023-01-28T10:50:17Z</time>
      </trkpt>
      <trkpt lat="36.4760320" lon="-6.1993280">
        <ele>17.4</ele>
        <time>2023-01-28T10:50:18Z</time>
      </trkpt>
      <trkpt lat="36.4760150" lon="-6.1993570">
        <ele>17.4</ele>
        <time>2023-01-28T10:50:19Z</time>
      </trkpt>
      <trkpt lat="36.4759880" lon="-6.1993790">
        <ele>17.4</ele>
        <time>2023-01-28T10:50:20Z</time>
      </trkpt>
      <trkpt lat="36.4759660" lon="-6.1994210">
        <ele>17.4</ele>
        <time>2023-01-28T10:50:21Z</time>
      </trkpt>
      <trkpt lat="36.4759470" lon="-6.1994620">
        <ele>17.6</ele>
        <time>2023-01-28T10:50:22Z</time>
      </trkpt>
      <trkpt lat="36.4759290" lon="-6.1995060">
        <ele>17.6</ele>
        <time>2023-01-28T10:50:23Z</time>
      </trkpt>
      <trkpt lat="36.4759090" lon="-6.1995580">
        <ele>17.6</ele>
        <time>2023-01-28T10:50:24Z</time>
      </trkpt>
      <trkpt lat="36.4758880" lon="-6.1995950">
        <ele>17.8</ele>
        <time>2023-01-28T10:50:25Z</time>
      </trkpt>
      <trkpt lat="36.4758600" lon="-6.1996400">
        <ele>17.8</ele>
        <time>2023-01-28T10:50:26Z</time>
      </trkpt>
      <trkpt lat="36.4758190" lon="-6.1996970">
        <ele>18.2</ele>
        <time>2023-01-28T10:50:27Z</time>
      </trkpt>
      <trkpt lat="36.4758060" lon="-6.1997250">
        <ele>18.6</ele>
        <time>2023-01-28T10:50:28Z</time>
      </trkpt>
      <trkpt lat="36.4757890" lon="-6.1997690">
        <ele>18.8</ele>
        <time>2023-01-28T10:50:29Z</time>
      </trkpt>
      <trkpt lat="36.4757890" lon="-6.1997690">
        <ele>18.6</ele>
        <time>2023-01-28T10:50:30Z</time>
      </trkpt>
      <trkpt lat="36.4757570" lon="-6.1998740">
        <ele>18.4</ele>
        <time>2023-01-28T10:50:31Z</time>
      </trkpt>
      <trkpt lat="36.4757370" lon="-6.1999240">
        <ele>18.2</ele>
        <time>2023-01-28T10:50:32Z</time>
      </trkpt>
      <trkpt lat="36.4757270" lon="-6.1999600">
        <ele>18.0</ele>
        <time>2023-01-28T10:50:33Z</time>
      </trkpt>
      <trkpt lat="36.4757270" lon="-6.1999600">
        <ele>18.0</ele>
        <time>2023-01-28T10:50:34Z</time>
      </trkpt>
      <trkpt lat="36.4756710" lon="-6.2000710">
        <ele>18.0</ele>
        <time>2023-01-28T10:50:35Z</time>
      </trkpt>
      <trkpt lat="36.4756570" lon="-6.2001040">
        <ele>18.0</ele>
        <time>2023-01-28T10:50:36Z</time>
      </trkpt>
      <trkpt lat="36.4756570" lon="-6.2001040">
        <ele>18.2</ele>
        <time>2023-01-28T10:50:37Z</time>
      </trkpt>
      <trkpt lat="36.4756240" lon="-6.2001980">
        <ele>18.2</ele>
        <time>2023-01-28T10:50:38Z</time>
      </trkpt>
      <trkpt lat="36.4756040" lon="-6.2002320">
        <ele>18.2</ele>
        <time>2023-01-28T10:50:39Z</time>
      </trkpt>
      <trkpt lat="36.4755840" lon="-6.2002680">
        <ele>18.4</ele>
        <time>2023-01-28T10:50:40Z</time>
      </trkpt>
      <trkpt lat="36.4755690" lon="-6.2003110">
        <ele>18.4</ele>
        <time>2023-01-28T10:50:41Z</time>
      </trkpt>
      <trkpt lat="36.4755530" lon="-6.2003610">
        <ele>18.4</ele>
        <time>2023-01-28T10:50:42Z</time>
      </trkpt>
      <trkpt lat="36.4755350" lon="-6.2004090">
        <ele>18.4</ele>
        <time>2023-01-28T10:50:43Z</time>
      </trkpt>
      <trkpt lat="36.4755430" lon="-6.2004620">
        <ele>18.4</ele>
        <time>2023-01-28T10:50:44Z</time>
      </trkpt>
      <trkpt lat="36.4755500" lon="-6.2005120">
        <ele>18.2</ele>
        <time>2023-01-28T10:50:45Z</time>
      </trkpt>
      <trkpt lat="36.4755640" lon="-6.2005650">
        <ele>18.2</ele>
        <time>2023-01-28T10:50:46Z</time>
      </trkpt>
      <trkpt lat="36.4755610" lon="-6.2006200">
        <ele>18.2</ele>
        <time>2023-01-28T10:50:47Z</time>
      </trkpt>
      <trkpt lat="36.4755650" lon="-6.2006660">
        <ele>18.2</ele>
        <time>2023-01-28T10:50:48Z</time>
      </trkpt>
      <trkpt lat="36.4755590" lon="-6.2007080">
        <ele>18.2</ele>
        <time>2023-01-28T10:50:49Z</time>
      </trkpt>
      <trkpt lat="36.4755460" lon="-6.2007450">
        <ele>18.2</ele>
        <time>2023-01-28T10:50:50Z</time>
      </trkpt>
      <trkpt lat="36.4755170" lon="-6.2007900">
        <ele>18.0</ele>
        <time>2023-01-28T10:50:51Z</time>
      </trkpt>
      <trkpt lat="36.4754940" lon="-6.2008390">
        <ele>18.0</ele>
        <time>2023-01-28T10:50:52Z</time>
      </trkpt>
      <trkpt lat="36.4754610" lon="-6.2008820">
        <ele>17.8</ele>
        <time>2023-01-28T10:50:53Z</time>
      </trkpt>
      <trkpt lat="36.4754210" lon="-6.2009060">
        <ele>17.8</ele>
        <time>2023-01-28T10:50:54Z</time>
      </trkpt>
      <trkpt lat="36.4753770" lon="-6.2009320">
        <ele>18.0</ele>
        <time>2023-01-28T10:50:55Z</time>
      </trkpt>
      <trkpt lat="36.4753330" lon="-6.2009370">
        <ele>17.8</ele>
        <time>2023-01-28T10:50:56Z</time>
      </trkpt>
      <trkpt lat="36.4752970" lon="-6.2009490">
        <ele>17.6</ele>
        <time>2023-01-28T10:50:57Z</time>
      </trkpt>
      <trkpt lat="36.4752460" lon="-6.2009650">
        <ele>17.4</ele>
        <time>2023-01-28T10:50:58Z</time>
      </trkpt>
      <trkpt lat="36.4751970" lon="-6.2009890">
        <ele>17.4</ele>
        <time>2023-01-28T10:50:59Z</time>
      </trkpt>
      <trkpt lat="36.4751560" lon="-6.2010130">
        <ele>17.2</ele>
        <time>2023-01-28T10:51:00Z</time>
      </trkpt>
      <trkpt lat="36.4751200" lon="-6.2010580">
        <ele>17.0</ele>
        <time>2023-01-28T10:51:01Z</time>
      </trkpt>
      <trkpt lat="36.4751200" lon="-6.2010580">
        <ele>17.0</ele>
        <time>2023-01-28T10:51:02Z</time>
      </trkpt>
      <trkpt lat="36.4750430" lon="-6.2011500">
        <ele>16.6</ele>
        <time>2023-01-28T10:51:03Z</time>
      </trkpt>
      <trkpt lat="36.4750070" lon="-6.2011980">
        <ele>16.4</ele>
        <time>2023-01-28T10:51:04Z</time>
      </trkpt>
      <trkpt lat="36.4750070" lon="-6.2011980">
        <ele>16.0</ele>
        <time>2023-01-28T10:51:05Z</time>
      </trkpt>
      <trkpt lat="36.4749310" lon="-6.2012930">
        <ele>15.6</ele>
        <time>2023-01-28T10:51:06Z</time>
      </trkpt>
      <trkpt lat="36.4748870" lon="-6.2013450">
        <ele>15.0</ele>
        <time>2023-01-28T10:51:07Z</time>
      </trkpt>
      <trkpt lat="36.4748870" lon="-6.2013450">
        <ele>14.6</ele>
        <time>2023-01-28T10:51:08Z</time>
      </trkpt>
      <trkpt lat="36.4748310" lon="-6.2014400">
        <ele>14.2</ele>
        <time>2023-01-28T10:51:09Z</time>
      </trkpt>
      <trkpt lat="36.4747890" lon="-6.2014850">
        <ele>14.0</ele>
        <time>2023-01-28T10:51:10Z</time>
      </trkpt>
      <trkpt lat="36.4747890" lon="-6.2014850">
        <ele>13.8</ele>
        <time>2023-01-28T10:51:11Z</time>
      </trkpt>
      <trkpt lat="36.4747230" lon="-6.2015620">
        <ele>13.6</ele>
        <time>2023-01-28T10:51:12Z</time>
      </trkpt>
      <trkpt lat="36.4747100" lon="-6.2015910">
        <ele>13.2</ele>
        <time>2023-01-28T10:51:13Z</time>
      </trkpt>
      <trkpt lat="36.4747100" lon="-6.2015910">
        <ele>13.0</ele>
        <time>2023-01-28T10:51:14Z</time>
      </trkpt>
      <trkpt lat="36.4746300" lon="-6.2016760">
        <ele>12.8</ele>
        <time>2023-01-28T10:51:15Z</time>
      </trkpt>
      <trkpt lat="36.4746060" lon="-6.2017210">
        <ele>12.6</ele>
        <time>2023-01-28T10:51:16Z</time>
      </trkpt>
      <trkpt lat="36.4745680" lon="-6.2017760">
        <ele>12.2</ele>
        <time>2023-01-28T10:51:17Z</time>
      </trkpt>
      <trkpt lat="36.4745680" lon="-6.2017760">
        <ele>12.0</ele>
        <time>2023-01-28T10:51:18Z</time>
      </trkpt>
      <trkpt lat="36.4745330" lon="-6.2018780">
        <ele>11.8</ele>
        <time>2023-01-28T10:51:19Z</time>
      </trkpt>
      <trkpt lat="36.4744960" lon="-6.2019180">
        <ele>11.6</ele>
        <time>2023-01-28T10:51:20Z</time>
      </trkpt>
      <trkpt lat="36.4744640" lon="-6.2019500">
        <ele>11.6</ele>
        <time>2023-01-28T10:51:21Z</time>
      </trkpt>
      <trkpt lat="36.4744640" lon="-6.2019500">
        <ele>11.6</ele>
        <time>2023-01-28T10:51:22Z</time>
      </trkpt>
      <trkpt lat="36.4743810" lon="-6.2019860">
        <ele>11.6</ele>
        <time>2023-01-28T10:51:23Z</time>
      </trkpt>
      <trkpt lat="36.4743360" lon="-6.2020040">
        <ele>11.6</ele>
        <time>2023-01-28T10:51:24Z</time>
      </trkpt>
      <trkpt lat="36.4743030" lon="-6.2020300">
        <ele>11.6</ele>
        <time>2023-01-28T10:51:25Z</time>
      </trkpt>
      <trkpt lat="36.4742830" lon="-6.2020760">
        <ele>11.6</ele>
        <time>2023-01-28T10:51:26Z</time>
      </trkpt>
      <trkpt lat="36.4742540" lon="-6.2021230">
        <ele>11.6</ele>
        <time>2023-01-28T10:51:27Z</time>
      </trkpt>
      <trkpt lat="36.4742330" lon="-6.2021760">
        <ele>11.4</ele>
        <time>2023-01-28T10:51:28Z</time>
      </trkpt>
      <trkpt lat="36.4741970" lon="-6.2022350">
        <ele>11.4</ele>
        <time>2023-01-28T10:51:29Z</time>
      </trkpt>
      <trkpt lat="36.4741600" lon="-6.2022940">
        <ele>11.6</ele>
        <time>2023-01-28T10:51:30Z</time>
      </trkpt>
      <trkpt lat="36.4741140" lon="-6.2023580">
        <ele>11.6</ele>
        <time>2023-01-28T10:51:31Z</time>
      </trkpt>
      <trkpt lat="36.4740690" lon="-6.2024120">
        <ele>11.6</ele>
        <time>2023-01-28T10:51:32Z</time>
      </trkpt>
      <trkpt lat="36.4740390" lon="-6.2024580">
        <ele>11.6</ele>
        <time>2023-01-28T10:51:33Z</time>
      </trkpt>
      <trkpt lat="36.4740110" lon="-6.2025070">
        <ele>11.4</ele>
        <time>2023-01-28T10:51:34Z</time>
      </trkpt>
      <trkpt lat="36.4739630" lon="-6.2025570">
        <ele>11.4</ele>
        <time>2023-01-28T10:51:35Z</time>
      </trkpt>
      <trkpt lat="36.4739380" lon="-6.2026160">
        <ele>11.4</ele>
        <time>2023-01-28T10:51:36Z</time>
      </trkpt>
      <trkpt lat="36.4739030" lon="-6.2026700">
        <ele>11.2</ele>
        <time>2023-01-28T10:51:37Z</time>
      </trkpt>
      <trkpt lat="36.4738720" lon="-6.2027380">
        <ele>11.2</ele>
        <time>2023-01-28T10:51:38Z</time>
      </trkpt>
      <trkpt lat="36.4738480" lon="-6.2027960">
        <ele>11.0</ele>
        <time>2023-01-28T10:51:39Z</time>
      </trkpt>
      <trkpt lat="36.4738130" lon="-6.2028490">
        <ele>10.8</ele>
        <time>2023-01-28T10:51:40Z</time>
      </trkpt>
      <trkpt lat="36.4737740" lon="-6.2029120">
        <ele>10.6</ele>
        <time>2023-01-28T10:51:41Z</time>
      </trkpt>
      <trkpt lat="36.4737470" lon="-6.2029680">
        <ele>10.6</ele>
        <time>2023-01-28T10:51:42Z</time>
      </trkpt>
      <trkpt lat="36.4737470" lon="-6.2029680">
        <ele>10.6</ele>
        <time>2023-01-28T10:51:43Z</time>
      </trkpt>
      <trkpt lat="36.4736660" lon="-6.2030820">
        <ele>10.6</ele>
        <time>2023-01-28T10:51:44Z</time>
      </trkpt>
      <trkpt lat="36.4736320" lon="-6.2031400">
        <ele>10.4</ele>
        <time>2023-01-28T10:51:45Z</time>
      </trkpt>
      <trkpt lat="36.4736320" lon="-6.2031400">
        <ele>10.4</ele>
        <time>2023-01-28T10:51:46Z</time>
      </trkpt>
      <trkpt lat="36.4735210" lon="-6.2032660">
        <ele>10.2</ele>
        <time>2023-01-28T10:51:47Z</time>
      </trkpt>
      <trkpt lat="36.4734970" lon="-6.2033220">
        <ele>10.2</ele>
        <time>2023-01-28T10:51:48Z</time>
      </trkpt>
      <trkpt lat="36.4734630" lon="-6.2033870">
        <ele>10.0</ele>
        <time>2023-01-28T10:51:49Z</time>
      </trkpt>
      <trkpt lat="36.4734630" lon="-6.2033870">
        <ele>10.0</ele>
        <time>2023-01-28T10:51:50Z</time>
      </trkpt>
      <trkpt lat="36.4734240" lon="-6.2034540">
        <ele>10.0</ele>
        <time>2023-01-28T10:51:51Z</time>
      </trkpt>
      <trkpt lat="36.4733780" lon="-6.2034710">
        <ele>10.0</ele>
        <time>2023-01-28T10:51:52Z</time>
      </trkpt>
      <trkpt lat="36.4733780" lon="-6.2034710">
        <ele>10.2</ele>
        <time>2023-01-28T10:51:53Z</time>
      </trkpt>
      <trkpt lat="36.4732710" lon="-6.2034820">
        <ele>10.0</ele>
        <time>2023-01-28T10:51:54Z</time>
      </trkpt>
      <trkpt lat="36.4732460" lon="-6.2035060">
        <ele>10.0</ele>
        <time>2023-01-28T10:51:55Z</time>
      </trkpt>
      <trkpt lat="36.4732140" lon="-6.2035420">
        <ele>10.0</ele>
        <time>2023-01-28T10:51:56Z</time>
      </trkpt>
      <trkpt lat="36.4732140" lon="-6.2035420">
        <ele>10.0</ele>
        <time>2023-01-28T10:51:57Z</time>
      </trkpt>
      <trkpt lat="36.4731280" lon="-6.2036200">
        <ele>10.0</ele>
        <time>2023-01-28T10:51:58Z</time>
      </trkpt>
      <trkpt lat="36.4730980" lon="-6.2036780">
        <ele>9.8</ele>
        <time>2023-01-28T10:51:59Z</time>
      </trkpt>
      <trkpt lat="36.4730570" lon="-6.2037280">
        <ele>9.8</ele>
        <time>2023-01-28T10:52:00Z</time>
      </trkpt>
      <trkpt lat="36.4730150" lon="-6.2037830">
        <ele>9.8</ele>
        <time>2023-01-28T10:52:01Z</time>
      </trkpt>
      <trkpt lat="36.4729570" lon="-6.2038340">
        <ele>9.8</ele>
        <time>2023-01-28T10:52:02Z</time>
      </trkpt>
      <trkpt lat="36.4729220" lon="-6.2038840">
        <ele>9.8</ele>
        <time>2023-01-28T10:52:03Z</time>
      </trkpt>
      <trkpt lat="36.4728820" lon="-6.2039160">
        <ele>9.8</ele>
        <time>2023-01-28T10:52:04Z</time>
      </trkpt>
      <trkpt lat="36.4728430" lon="-6.2039530">
        <ele>9.8</ele>
        <time>2023-01-28T10:52:05Z</time>
      </trkpt>
      <trkpt lat="36.4727940" lon="-6.2039970">
        <ele>9.6</ele>
        <time>2023-01-28T10:52:06Z</time>
      </trkpt>
      <trkpt lat="36.4727650" lon="-6.2040360">
        <ele>9.6</ele>
        <time>2023-01-28T10:52:07Z</time>
      </trkpt>
      <trkpt lat="36.4727410" lon="-6.2040690">
        <ele>9.6</ele>
        <time>2023-01-28T10:52:08Z</time>
      </trkpt>
      <trkpt lat="36.4727050" lon="-6.2041140">
        <ele>9.6</ele>
        <time>2023-01-28T10:52:09Z</time>
      </trkpt>
      <trkpt lat="36.4726650" lon="-6.2041650">
        <ele>9.6</ele>
        <time>2023-01-28T10:52:10Z</time>
      </trkpt>
      <trkpt lat="36.4726190" lon="-6.2042090">
        <ele>9.6</ele>
        <time>2023-01-28T10:52:11Z</time>
      </trkpt>
      <trkpt lat="36.4725790" lon="-6.2042490">
        <ele>9.6</ele>
        <time>2023-01-28T10:52:12Z</time>
      </trkpt>
      <trkpt lat="36.4725260" lon="-6.2042890">
        <ele>9.4</ele>
        <time>2023-01-28T10:52:13Z</time>
      </trkpt>
      <trkpt lat="36.4724760" lon="-6.2043350">
        <ele>9.4</ele>
        <time>2023-01-28T10:52:14Z</time>
      </trkpt>
      <trkpt lat="36.4724190" lon="-6.2043760">
        <ele>9.2</ele>
        <time>2023-01-28T10:52:15Z</time>
      </trkpt>
      <trkpt lat="36.4723860" lon="-6.2044180">
        <ele>9.2</ele>
        <time>2023-01-28T10:52:16Z</time>
      </trkpt>
      <trkpt lat="36.4723500" lon="-6.2044650">
        <ele>9.2</ele>
        <time>2023-01-28T10:52:17Z</time>
      </trkpt>
      <trkpt lat="36.4723070" lon="-6.2045220">
        <ele>9.2</ele>
        <time>2023-01-28T10:52:18Z</time>
      </trkpt>
      <trkpt lat="36.4722540" lon="-6.2045650">
        <ele>9.4</ele>
        <time>2023-01-28T10:52:19Z</time>
      </trkpt>
      <trkpt lat="36.4722080" lon="-6.2046020">
        <ele>9.2</ele>
        <time>2023-01-28T10:52:20Z</time>
      </trkpt>
      <trkpt lat="36.4721740" lon="-6.2046460">
        <ele>9.2</ele>
        <time>2023-01-28T10:52:21Z</time>
      </trkpt>
      <trkpt lat="36.4721280" lon="-6.2046920">
        <ele>9.0</ele>
        <time>2023-01-28T10:52:22Z</time>
      </trkpt>
      <trkpt lat="36.4720800" lon="-6.2047290">
        <ele>8.8</ele>
        <time>2023-01-28T10:52:23Z</time>
      </trkpt>
      <trkpt lat="36.4720320" lon="-6.2047750">
        <ele>9.0</ele>
        <time>2023-01-28T10:52:24Z</time>
      </trkpt>
      <trkpt lat="36.4719940" lon="-6.2048130">
        <ele>8.8</ele>
        <time>2023-01-28T10:52:25Z</time>
      </trkpt>
      <trkpt lat="36.4719520" lon="-6.2048530">
        <ele>8.8</ele>
        <time>2023-01-28T10:52:26Z</time>
      </trkpt>
      <trkpt lat="36.4718980" lon="-6.2048920">
        <ele>8.8</ele>
        <time>2023-01-28T10:52:27Z</time>
      </trkpt>
      <trkpt lat="36.4718370" lon="-6.2049340">
        <ele>8.8</ele>
        <time>2023-01-28T10:52:28Z</time>
      </trkpt>
      <trkpt lat="36.4717790" lon="-6.2049720">
        <ele>8.8</ele>
        <time>2023-01-28T10:52:29Z</time>
      </trkpt>
      <trkpt lat="36.4717160" lon="-6.2050110">
        <ele>8.6</ele>
        <time>2023-01-28T10:52:30Z</time>
      </trkpt>
      <trkpt lat="36.4716650" lon="-6.2050500">
        <ele>8.4</ele>
        <time>2023-01-28T10:52:31Z</time>
      </trkpt>
      <trkpt lat="36.4716260" lon="-6.2050860">
        <ele>8.6</ele>
        <time>2023-01-28T10:52:32Z</time>
      </trkpt>
      <trkpt lat="36.4715720" lon="-6.2051210">
        <ele>8.6</ele>
        <time>2023-01-28T10:52:33Z</time>
      </trkpt>
      <trkpt lat="36.4715240" lon="-6.2051610">
        <ele>8.6</ele>
        <time>2023-01-28T10:52:34Z</time>
      </trkpt>
      <trkpt lat="36.4714840" lon="-6.2051940">
        <ele>8.6</ele>
        <time>2023-01-28T10:52:35Z</time>
      </trkpt>
      <trkpt lat="36.4714340" lon="-6.2052330">
        <ele>8.6</ele>
        <time>2023-01-28T10:52:36Z</time>
      </trkpt>
      <trkpt lat="36.4713910" lon="-6.2052700">
        <ele>8.8</ele>
        <time>2023-01-28T10:52:37Z</time>
      </trkpt>
      <trkpt lat="36.4713230" lon="-6.2053090">
        <ele>8.8</ele>
        <time>2023-01-28T10:52:38Z</time>
      </trkpt>
      <trkpt lat="36.4712950" lon="-6.2053570">
        <ele>8.6</ele>
        <time>2023-01-28T10:52:39Z</time>
      </trkpt>
      <trkpt lat="36.4712410" lon="-6.2053980">
        <ele>8.8</ele>
        <time>2023-01-28T10:52:40Z</time>
      </trkpt>
      <trkpt lat="36.4711990" lon="-6.2054460">
        <ele>8.6</ele>
        <time>2023-01-28T10:52:41Z</time>
      </trkpt>
      <trkpt lat="36.4711430" lon="-6.2054870">
        <ele>8.6</ele>
        <time>2023-01-28T10:52:42Z</time>
      </trkpt>
      <trkpt lat="36.4710890" lon="-6.2055270">
        <ele>8.6</ele>
        <time>2023-01-28T10:52:43Z</time>
      </trkpt>
      <trkpt lat="36.4710450" lon="-6.2055590">
        <ele>8.4</ele>
        <time>2023-01-28T10:52:44Z</time>
      </trkpt>
      <trkpt lat="36.4709880" lon="-6.2055990">
        <ele>8.4</ele>
        <time>2023-01-28T10:52:45Z</time>
      </trkpt>
      <trkpt lat="36.4709280" lon="-6.2056360">
        <ele>8.2</ele>
        <time>2023-01-28T10:52:46Z</time>
      </trkpt>
      <trkpt lat="36.4708730" lon="-6.2056730">
        <ele>8.2</ele>
        <time>2023-01-28T10:52:47Z</time>
      </trkpt>
      <trkpt lat="36.4708270" lon="-6.2056980">
        <ele>8.2</ele>
        <time>2023-01-28T10:52:48Z</time>
      </trkpt>
      <trkpt lat="36.4708270" lon="-6.2056980">
        <ele>8.2</ele>
        <time>2023-01-28T10:52:49Z</time>
      </trkpt>
      <trkpt lat="36.4707430" lon="-6.2057600">
        <ele>8.2</ele>
        <time>2023-01-28T10:52:50Z</time>
      </trkpt>
      <trkpt lat="36.4706820" lon="-6.2057800">
        <ele>8.2</ele>
        <time>2023-01-28T10:52:51Z</time>
      </trkpt>
      <trkpt lat="36.4706820" lon="-6.2057800">
        <ele>8.2</ele>
        <time>2023-01-28T10:52:52Z</time>
      </trkpt>
      <trkpt lat="36.4705930" lon="-6.2058170">
        <ele>8.2</ele>
        <time>2023-01-28T10:52:53Z</time>
      </trkpt>
      <trkpt lat="36.4705670" lon="-6.2058450">
        <ele>8.2</ele>
        <time>2023-01-28T10:52:54Z</time>
      </trkpt>
      <trkpt lat="36.4705310" lon="-6.2058760">
        <ele>8.2</ele>
        <time>2023-01-28T10:52:55Z</time>
      </trkpt>
      <trkpt lat="36.4704960" lon="-6.2059040">
        <ele>8.2</ele>
        <time>2023-01-28T10:52:56Z</time>
      </trkpt>
      <trkpt lat="36.4704680" lon="-6.2059400">
        <ele>8.4</ele>
        <time>2023-01-28T10:52:57Z</time>
      </trkpt>
      <trkpt lat="36.4704480" lon="-6.2059740">
        <ele>8.4</ele>
        <time>2023-01-28T10:52:58Z</time>
      </trkpt>
      <trkpt lat="36.4704300" lon="-6.2060100">
        <ele>8.6</ele>
        <time>2023-01-28T10:52:59Z</time>
      </trkpt>
      <trkpt lat="36.4704030" lon="-6.2060540">
        <ele>8.4</ele>
        <time>2023-01-28T10:53:00Z</time>
      </trkpt>
      <trkpt lat="36.4703680" lon="-6.2060840">
        <ele>8.4</ele>
        <time>2023-01-28T10:53:01Z</time>
      </trkpt>
      <trkpt lat="36.4703350" lon="-6.2061040">
        <ele>8.4</ele>
        <time>2023-01-28T10:53:02Z</time>
      </trkpt>
      <trkpt lat="36.4702920" lon="-6.2061220">
        <ele>8.6</ele>
        <time>2023-01-28T10:53:03Z</time>
      </trkpt>
      <trkpt lat="36.4702450" lon="-6.2061480">
        <ele>8.6</ele>
        <time>2023-01-28T10:53:04Z</time>
      </trkpt>
      <trkpt lat="36.4702010" lon="-6.2061610">
        <ele>8.6</ele>
        <time>2023-01-28T10:53:05Z</time>
      </trkpt>
      <trkpt lat="36.4701590" lon="-6.2061760">
        <ele>8.6</ele>
        <time>2023-01-28T10:53:06Z</time>
      </trkpt>
      <trkpt lat="36.4701110" lon="-6.2061830">
        <ele>8.6</ele>
        <time>2023-01-28T10:53:07Z</time>
      </trkpt>
      <trkpt lat="36.4700540" lon="-6.2061930">
        <ele>8.6</ele>
        <time>2023-01-28T10:53:08Z</time>
      </trkpt>
      <trkpt lat="36.4699950" lon="-6.2062260">
        <ele>8.4</ele>
        <time>2023-01-28T10:53:09Z</time>
      </trkpt>
      <trkpt lat="36.4699490" lon="-6.2062400">
        <ele>8.4</ele>
        <time>2023-01-28T10:53:10Z</time>
      </trkpt>
      <trkpt lat="36.4698910" lon="-6.2062680">
        <ele>8.4</ele>
        <time>2023-01-28T10:53:11Z</time>
      </trkpt>
      <trkpt lat="36.4698430" lon="-6.2062980">
        <ele>8.4</ele>
        <time>2023-01-28T10:53:12Z</time>
      </trkpt>
      <trkpt lat="36.4697970" lon="-6.2063270">
        <ele>8.6</ele>
        <time>2023-01-28T10:53:13Z</time>
      </trkpt>
      <trkpt lat="36.4697520" lon="-6.2063570">
        <ele>8.6</ele>
        <time>2023-01-28T10:53:14Z</time>
      </trkpt>
      <trkpt lat="36.4697080" lon="-6.2063950">
        <ele>8.6</ele>
        <time>2023-01-28T10:53:15Z</time>
      </trkpt>
      <trkpt lat="36.4696500" lon="-6.2064200">
        <ele>8.4</ele>
        <time>2023-01-28T10:53:16Z</time>
      </trkpt>
      <trkpt lat="36.4696070" lon="-6.2064440">
        <ele>8.4</ele>
        <time>2023-01-28T10:53:17Z</time>
      </trkpt>
      <trkpt lat="36.4695550" lon="-6.2064730">
        <ele>8.4</ele>
        <time>2023-01-28T10:53:18Z</time>
      </trkpt>
      <trkpt lat="36.4695120" lon="-6.2065140">
        <ele>8.6</ele>
        <time>2023-01-28T10:53:19Z</time>
      </trkpt>
      <trkpt lat="36.4694680" lon="-6.2065500">
        <ele>8.4</ele>
        <time>2023-01-28T10:53:20Z</time>
      </trkpt>
      <trkpt lat="36.4694290" lon="-6.2065810">
        <ele>8.6</ele>
        <time>2023-01-28T10:53:21Z</time>
      </trkpt>
      <trkpt lat="36.4693620" lon="-6.2066260">
        <ele>8.6</ele>
        <time>2023-01-28T10:53:22Z</time>
      </trkpt>
      <trkpt lat="36.4693070" lon="-6.2066700">
        <ele>8.4</ele>
        <time>2023-01-28T10:53:23Z</time>
      </trkpt>
      <trkpt lat="36.4692600" lon="-6.2067020">
        <ele>8.4</ele>
        <time>2023-01-28T10:53:24Z</time>
      </trkpt>
      <trkpt lat="36.4691990" lon="-6.2067350">
        <ele>8.4</ele>
        <time>2023-01-28T10:53:25Z</time>
      </trkpt>
      <trkpt lat="36.4691570" lon="-6.2067620">
        <ele>8.4</ele>
        <time>2023-01-28T10:53:26Z</time>
      </trkpt>
      <trkpt lat="36.4691120" lon="-6.2067990">
        <ele>8.2</ele>
        <time>2023-01-28T10:53:27Z</time>
      </trkpt>
      <trkpt lat="36.4690660" lon="-6.2068280">
        <ele>8.2</ele>
        <time>2023-01-28T10:53:28Z</time>
      </trkpt>
      <trkpt lat="36.4690560" lon="-6.2068340">
        <ele>8.4</ele>
        <time>2023-01-28T10:53:29Z</time>
      </trkpt>
      <trkpt lat="36.4690570" lon="-6.2068480">
        <ele>8.4</ele>
        <time>2023-01-28T10:53:30Z</time>
      </trkpt>
      <trkpt lat="36.4690500" lon="-6.2068500">
        <ele>8.0</ele>
        <time>2023-01-28T10:53:31Z</time>
      </trkpt>
      <trkpt lat="36.4690500" lon="-6.2068610">
        <ele>8.2</ele>
        <time>2023-01-28T10:53:32Z</time>
      </trkpt>
      <trkpt lat="36.4690410" lon="-6.2068600">
        <ele>8.2</ele>
        <time>2023-01-28T10:53:33Z</time>
      </trkpt>
      <trkpt lat="36.4690150" lon="-6.2068720">
        <ele>8.4</ele>
        <time>2023-01-28T10:53:34Z</time>
      </trkpt>
      <trkpt lat="36.4690040" lon="-6.2068840">
        <ele>8.4</ele>
        <time>2023-01-28T10:53:35Z</time>
      </trkpt>
      <trkpt lat="36.4689810" lon="-6.2068870">
        <ele>8.6</ele>
        <time>2023-01-28T10:53:36Z</time>
      </trkpt>
      <trkpt lat="36.4689680" lon="-6.2068950">
        <ele>8.4</ele>
        <time>2023-01-28T10:53:37Z</time>
      </trkpt>
      <trkpt lat="36.4689590" lon="-6.2069060">
        <ele>8.4</ele>
        <time>2023-01-28T10:53:38Z</time>
      </trkpt>
      <trkpt lat="36.4689270" lon="-6.2069310">
        <ele>8.4</ele>
        <time>2023-01-28T10:53:39Z</time>
      </trkpt>
      <trkpt lat="36.4688980" lon="-6.2069430">
        <ele>8.6</ele>
        <time>2023-01-28T10:53:40Z</time>
      </trkpt>
      <trkpt lat="36.4688850" lon="-6.2069610">
        <ele>8.6</ele>
        <time>2023-01-28T10:53:41Z</time>
      </trkpt>
      <trkpt lat="36.4688610" lon="-6.2069810">
        <ele>8.6</ele>
        <time>2023-01-28T10:53:42Z</time>
      </trkpt>
      <trkpt lat="36.4688250" lon="-6.2070010">
        <ele>8.6</ele>
        <time>2023-01-28T10:53:43Z</time>
      </trkpt>
      <trkpt lat="36.4687870" lon="-6.2070240">
        <ele>8.6</ele>
        <time>2023-01-28T10:53:44Z</time>
      </trkpt>
      <trkpt lat="36.4687500" lon="-6.2070590">
        <ele>8.6</ele>
        <time>2023-01-28T10:53:45Z</time>
      </trkpt>
      <trkpt lat="36.4687050" lon="-6.2071060">
        <ele>8.6</ele>
        <time>2023-01-28T10:53:46Z</time>
      </trkpt>
      <trkpt lat="36.4686420" lon="-6.2071180">
        <ele>8.6</ele>
        <time>2023-01-28T10:53:47Z</time>
      </trkpt>
      <trkpt lat="36.4686140" lon="-6.2071410">
        <ele>8.6</ele>
        <time>2023-01-28T10:53:48Z</time>
      </trkpt>
      <trkpt lat="36.4685790" lon="-6.2071680">
        <ele>8.8</ele>
        <time>2023-01-28T10:53:49Z</time>
      </trkpt>
      <trkpt lat="36.4685390" lon="-6.2071940">
        <ele>8.8</ele>
        <time>2023-01-28T10:53:50Z</time>
      </trkpt>
      <trkpt lat="36.4684850" lon="-6.2072160">
        <ele>9.0</ele>
        <time>2023-01-28T10:53:51Z</time>
      </trkpt>
      <trkpt lat="36.4684310" lon="-6.2072280">
        <ele>8.8</ele>
        <time>2023-01-28T10:53:52Z</time>
      </trkpt>
      <trkpt lat="36.4683740" lon="-6.2072570">
        <ele>8.8</ele>
        <time>2023-01-28T10:53:53Z</time>
      </trkpt>
      <trkpt lat="36.4683370" lon="-6.2072840">
        <ele>8.8</ele>
        <time>2023-01-28T10:53:54Z</time>
      </trkpt>
      <trkpt lat="36.4682900" lon="-6.2072970">
        <ele>8.8</ele>
        <time>2023-01-28T10:53:55Z</time>
      </trkpt>
      <trkpt lat="36.4682590" lon="-6.2073210">
        <ele>8.8</ele>
        <time>2023-01-28T10:53:56Z</time>
      </trkpt>
      <trkpt lat="36.4682180" lon="-6.2073450">
        <ele>8.8</ele>
        <time>2023-01-28T10:53:57Z</time>
      </trkpt>
      <trkpt lat="36.4681970" lon="-6.2073790">
        <ele>9.0</ele>
        <time>2023-01-28T10:53:58Z</time>
      </trkpt>
      <trkpt lat="36.4681590" lon="-6.2074010">
        <ele>9.0</ele>
        <time>2023-01-28T10:53:59Z</time>
      </trkpt>
      <trkpt lat="36.4681120" lon="-6.2073980">
        <ele>9.0</ele>
        <time>2023-01-28T10:54:00Z</time>
      </trkpt>
      <trkpt lat="36.4680760" lon="-6.2074320">
        <ele>9.0</ele>
        <time>2023-01-28T10:54:01Z</time>
      </trkpt>
      <trkpt lat="36.4680410" lon="-6.2074420">
        <ele>9.0</ele>
        <time>2023-01-28T10:54:02Z</time>
      </trkpt>
      <trkpt lat="36.4679880" lon="-6.2074660">
        <ele>9.0</ele>
        <time>2023-01-28T10:54:03Z</time>
      </trkpt>
      <trkpt lat="36.4679430" lon="-6.2074850">
        <ele>9.0</ele>
        <time>2023-01-28T10:54:04Z</time>
      </trkpt>
      <trkpt lat="36.4679190" lon="-6.2075060">
        <ele>9.0</ele>
        <time>2023-01-28T10:54:05Z</time>
      </trkpt>
      <trkpt lat="36.4679060" lon="-6.2075470">
        <ele>8.8</ele>
        <time>2023-01-28T10:54:06Z</time>
      </trkpt>
      <trkpt lat="36.4678970" lon="-6.2076030">
        <ele>9.0</ele>
        <time>2023-01-28T10:54:07Z</time>
      </trkpt>
      <trkpt lat="36.4678480" lon="-6.2076530">
        <ele>9.0</ele>
        <time>2023-01-28T10:54:08Z</time>
      </trkpt>
      <trkpt lat="36.4678330" lon="-6.2076880">
        <ele>9.0</ele>
        <time>2023-01-28T10:54:09Z</time>
      </trkpt>
      <trkpt lat="36.4677820" lon="-6.2077160">
        <ele>8.8</ele>
        <time>2023-01-28T10:54:10Z</time>
      </trkpt>
      <trkpt lat="36.4677370" lon="-6.2077360">
        <ele>8.6</ele>
        <time>2023-01-28T10:54:11Z</time>
      </trkpt>
      <trkpt lat="36.4676870" lon="-6.2077380">
        <ele>8.6</ele>
        <time>2023-01-28T10:54:12Z</time>
      </trkpt>
      <trkpt lat="36.4676310" lon="-6.2077340">
        <ele>8.8</ele>
        <time>2023-01-28T10:54:13Z</time>
      </trkpt>
      <trkpt lat="36.4675980" lon="-6.2077350">
        <ele>8.8</ele>
        <time>2023-01-28T10:54:14Z</time>
      </trkpt>
      <trkpt lat="36.4675530" lon="-6.2077590">
        <ele>9.0</ele>
        <time>2023-01-28T10:54:15Z</time>
      </trkpt>
      <trkpt lat="36.4675140" lon="-6.2077770">
        <ele>9.0</ele>
        <time>2023-01-28T10:54:16Z</time>
      </trkpt>
      <trkpt lat="36.4674830" lon="-6.2077990">
        <ele>9.0</ele>
        <time>2023-01-28T10:54:17Z</time>
      </trkpt>
      <trkpt lat="36.4674360" lon="-6.2078320">
        <ele>9.0</ele>
        <time>2023-01-28T10:54:18Z</time>
      </trkpt>
      <trkpt lat="36.4673940" lon="-6.2078640">
        <ele>9.0</ele>
        <time>2023-01-28T10:54:19Z</time>
      </trkpt>
      <trkpt lat="36.4673440" lon="-6.2078790">
        <ele>8.8</ele>
        <time>2023-01-28T10:54:20Z</time>
      </trkpt>
      <trkpt lat="36.4673060" lon="-6.2079130">
        <ele>8.8</ele>
        <time>2023-01-28T10:54:21Z</time>
      </trkpt>
      <trkpt lat="36.4672530" lon="-6.2079270">
        <ele>8.8</ele>
        <time>2023-01-28T10:54:22Z</time>
      </trkpt>
      <trkpt lat="36.4671980" lon="-6.2079440">
        <ele>9.0</ele>
        <time>2023-01-28T10:54:23Z</time>
      </trkpt>
      <trkpt lat="36.4671610" lon="-6.2079680">
        <ele>9.0</ele>
        <time>2023-01-28T10:54:24Z</time>
      </trkpt>
      <trkpt lat="36.4671240" lon="-6.2079900">
        <ele>9.0</ele>
        <time>2023-01-28T10:54:25Z</time>
      </trkpt>
      <trkpt lat="36.4670750" lon="-6.2080220">
        <ele>9.0</ele>
        <time>2023-01-28T10:54:26Z</time>
      </trkpt>
      <trkpt lat="36.4670330" lon="-6.2080630">
        <ele>9.0</ele>
        <time>2023-01-28T10:54:27Z</time>
      </trkpt>
      <trkpt lat="36.4669860" lon="-6.2080960">
        <ele>9.0</ele>
        <time>2023-01-28T10:54:28Z</time>
      </trkpt>
      <trkpt lat="36.4669430" lon="-6.2081240">
        <ele>9.0</ele>
        <time>2023-01-28T10:54:29Z</time>
      </trkpt>
      <trkpt lat="36.4668980" lon="-6.2081560">
        <ele>9.0</ele>
        <time>2023-01-28T10:54:30Z</time>
      </trkpt>
      <trkpt lat="36.4668490" lon="-6.2081860">
        <ele>9.0</ele>
        <time>2023-01-28T10:54:31Z</time>
      </trkpt>
      <trkpt lat="36.4667920" lon="-6.2082140">
        <ele>9.0</ele>
        <time>2023-01-28T10:54:32Z</time>
      </trkpt>
      <trkpt lat="36.4667390" lon="-6.2082350">
        <ele>9.0</ele>
        <time>2023-01-28T10:54:33Z</time>
      </trkpt>
      <trkpt lat="36.4667020" lon="-6.2082590">
        <ele>9.0</ele>
        <time>2023-01-28T10:54:34Z</time>
      </trkpt>
      <trkpt lat="36.4666480" lon="-6.2082850">
        <ele>9.2</ele>
        <time>2023-01-28T10:54:35Z</time>
      </trkpt>
      <trkpt lat="36.4666210" lon="-6.2083200">
        <ele>9.2</ele>
        <time>2023-01-28T10:54:36Z</time>
      </trkpt>
      <trkpt lat="36.4665870" lon="-6.2083490">
        <ele>9.4</ele>
        <time>2023-01-28T10:54:37Z</time>
      </trkpt>
      <trkpt lat="36.4665370" lon="-6.2083810">
        <ele>9.4</ele>
        <time>2023-01-28T10:54:38Z</time>
      </trkpt>
      <trkpt lat="36.4664950" lon="-6.2084190">
        <ele>9.4</ele>
        <time>2023-01-28T10:54:39Z</time>
      </trkpt>
      <trkpt lat="36.4664530" lon="-6.2084460">
        <ele>9.2</ele>
        <time>2023-01-28T10:54:40Z</time>
      </trkpt>
      <trkpt lat="36.4664130" lon="-6.2084700">
        <ele>9.2</ele>
        <time>2023-01-28T10:54:41Z</time>
      </trkpt>
      <trkpt lat="36.4663890" lon="-6.2085020">
        <ele>9.0</ele>
        <time>2023-01-28T10:54:42Z</time>
      </trkpt>
      <trkpt lat="36.4663520" lon="-6.2085370">
        <ele>9.0</ele>
        <time>2023-01-28T10:54:43Z</time>
      </trkpt>
      <trkpt lat="36.4663220" lon="-6.2085730">
        <ele>9.0</ele>
        <time>2023-01-28T10:54:44Z</time>
      </trkpt>
      <trkpt lat="36.4662890" lon="-6.2086080">
        <ele>9.2</ele>
        <time>2023-01-28T10:54:45Z</time>
      </trkpt>
      <trkpt lat="36.4662600" lon="-6.2086480">
        <ele>9.0</ele>
        <time>2023-01-28T10:54:46Z</time>
      </trkpt>
      <trkpt lat="36.4662350" lon="-6.2086880">
        <ele>9.0</ele>
        <time>2023-01-28T10:54:47Z</time>
      </trkpt>
      <trkpt lat="36.4662120" lon="-6.2087280">
        <ele>8.8</ele>
        <time>2023-01-28T10:54:48Z</time>
      </trkpt>
      <trkpt lat="36.4661870" lon="-6.2087700">
        <ele>8.6</ele>
        <time>2023-01-28T10:54:49Z</time>
      </trkpt>
      <trkpt lat="36.4661570" lon="-6.2088060">
        <ele>8.6</ele>
        <time>2023-01-28T10:54:50Z</time>
      </trkpt>
      <trkpt lat="36.4661230" lon="-6.2088390">
        <ele>8.4</ele>
        <time>2023-01-28T10:54:51Z</time>
      </trkpt>
      <trkpt lat="36.4660830" lon="-6.2088670">
        <ele>8.4</ele>
        <time>2023-01-28T10:54:52Z</time>
      </trkpt>
      <trkpt lat="36.4660410" lon="-6.2088950">
        <ele>8.2</ele>
        <time>2023-01-28T10:54:53Z</time>
      </trkpt>
      <trkpt lat="36.4659970" lon="-6.2089210">
        <ele>8.2</ele>
        <time>2023-01-28T10:54:54Z</time>
      </trkpt>
      <trkpt lat="36.4659510" lon="-6.2089470">
        <ele>8.6</ele>
        <time>2023-01-28T10:54:55Z</time>
      </trkpt>
      <trkpt lat="36.4659100" lon="-6.2089740">
        <ele>8.6</ele>
        <time>2023-01-28T10:54:56Z</time>
      </trkpt>
      <trkpt lat="36.4658710" lon="-6.2090010">
        <ele>8.6</ele>
        <time>2023-01-28T10:54:57Z</time>
      </trkpt>
      <trkpt lat="36.4658310" lon="-6.2090270">
        <ele>8.6</ele>
        <time>2023-01-28T10:54:58Z</time>
      </trkpt>
      <trkpt lat="36.4657920" lon="-6.2090500">
        <ele>8.6</ele>
        <time>2023-01-28T10:54:59Z</time>
      </trkpt>
      <trkpt lat="36.4657550" lon="-6.2090760">
        <ele>8.6</ele>
        <time>2023-01-28T10:55:00Z</time>
      </trkpt>
      <trkpt lat="36.4657250" lon="-6.2091070">
        <ele>8.4</ele>
        <time>2023-01-28T10:55:01Z</time>
      </trkpt>
      <trkpt lat="36.4656880" lon="-6.2091350">
        <ele>8.4</ele>
        <time>2023-01-28T10:55:02Z</time>
      </trkpt>
      <trkpt lat="36.4656460" lon="-6.2091640">
        <ele>8.6</ele>
        <time>2023-01-28T10:55:03Z</time>
      </trkpt>
      <trkpt lat="36.4656050" lon="-6.2091950">
        <ele>8.4</ele>
        <time>2023-01-28T10:55:04Z</time>
      </trkpt>
      <trkpt lat="36.4655760" lon="-6.2092280">
        <ele>8.4</ele>
        <time>2023-01-28T10:55:05Z</time>
      </trkpt>
      <trkpt lat="36.4655430" lon="-6.2092580">
        <ele>8.2</ele>
        <time>2023-01-28T10:55:06Z</time>
      </trkpt>
      <trkpt lat="36.4655100" lon="-6.2092830">
        <ele>8.4</ele>
        <time>2023-01-28T10:55:07Z</time>
      </trkpt>
      <trkpt lat="36.4654800" lon="-6.2093030">
        <ele>8.6</ele>
        <time>2023-01-28T10:55:08Z</time>
      </trkpt>
      <trkpt lat="36.4654470" lon="-6.2093210">
        <ele>8.4</ele>
        <time>2023-01-28T10:55:09Z</time>
      </trkpt>
      <trkpt lat="36.4654240" lon="-6.2093330">
        <ele>8.4</ele>
        <time>2023-01-28T10:55:10Z</time>
      </trkpt>
      <trkpt lat="36.4654000" lon="-6.2093590">
        <ele>8.4</ele>
        <time>2023-01-28T10:55:11Z</time>
      </trkpt>
      <trkpt lat="36.4653840" lon="-6.2093870">
        <ele>8.4</ele>
        <time>2023-01-28T10:55:12Z</time>
      </trkpt>
      <trkpt lat="36.4653630" lon="-6.2094130">
        <ele>8.4</ele>
        <time>2023-01-28T10:55:13Z</time>
      </trkpt>
      <trkpt lat="36.4653270" lon="-6.2094450">
        <ele>8.4</ele>
        <time>2023-01-28T10:55:14Z</time>
      </trkpt>
      <trkpt lat="36.4652930" lon="-6.2094780">
        <ele>8.4</ele>
        <time>2023-01-28T10:55:15Z</time>
      </trkpt>
      <trkpt lat="36.4652600" lon="-6.2095080">
        <ele>8.6</ele>
        <time>2023-01-28T10:55:16Z</time>
      </trkpt>
      <trkpt lat="36.4652280" lon="-6.2095370">
        <ele>8.6</ele>
        <time>2023-01-28T10:55:17Z</time>
      </trkpt>
      <trkpt lat="36.4651950" lon="-6.2095640">
        <ele>8.6</ele>
        <time>2023-01-28T10:55:18Z</time>
      </trkpt>
      <trkpt lat="36.4651650" lon="-6.2095910">
        <ele>8.8</ele>
        <time>2023-01-28T10:55:19Z</time>
      </trkpt>
      <trkpt lat="36.4651240" lon="-6.2096090">
        <ele>8.8</ele>
        <time>2023-01-28T10:55:20Z</time>
      </trkpt>
      <trkpt lat="36.4650920" lon="-6.2096210">
        <ele>8.8</ele>
        <time>2023-01-28T10:55:21Z</time>
      </trkpt>
      <trkpt lat="36.4650450" lon="-6.2096420">
        <ele>8.8</ele>
        <time>2023-01-28T10:55:22Z</time>
      </trkpt>
      <trkpt lat="36.4650100" lon="-6.2096780">
        <ele>8.8</ele>
        <time>2023-01-28T10:55:23Z</time>
      </trkpt>
      <trkpt lat="36.4649770" lon="-6.2097010">
        <ele>9.0</ele>
        <time>2023-01-28T10:55:24Z</time>
      </trkpt>
      <trkpt lat="36.4649400" lon="-6.2097210">
        <ele>9.0</ele>
        <time>2023-01-28T10:55:25Z</time>
      </trkpt>
      <trkpt lat="36.4649160" lon="-6.2097460">
        <ele>9.0</ele>
        <time>2023-01-28T10:55:26Z</time>
      </trkpt>
      <trkpt lat="36.4648660" lon="-6.2097740">
        <ele>9.0</ele>
        <time>2023-01-28T10:55:27Z</time>
      </trkpt>
      <trkpt lat="36.4648380" lon="-6.2098060">
        <ele>9.2</ele>
        <time>2023-01-28T10:55:28Z</time>
      </trkpt>
      <trkpt lat="36.4648070" lon="-6.2098290">
        <ele>9.2</ele>
        <time>2023-01-28T10:55:29Z</time>
      </trkpt>
      <trkpt lat="36.4647700" lon="-6.2098590">
        <ele>9.0</ele>
        <time>2023-01-28T10:55:30Z</time>
      </trkpt>
      <trkpt lat="36.4647380" lon="-6.2098740">
        <ele>9.0</ele>
        <time>2023-01-28T10:55:31Z</time>
      </trkpt>
      <trkpt lat="36.4646890" lon="-6.2098910">
        <ele>9.0</ele>
        <time>2023-01-28T10:55:32Z</time>
      </trkpt>
      <trkpt lat="36.4646570" lon="-6.2099100">
        <ele>8.8</ele>
        <time>2023-01-28T10:55:33Z</time>
      </trkpt>
      <trkpt lat="36.4646370" lon="-6.2099370">
        <ele>8.8</ele>
        <time>2023-01-28T10:55:34Z</time>
      </trkpt>
      <trkpt lat="36.4646160" lon="-6.2099530">
        <ele>9.0</ele>
        <time>2023-01-28T10:55:35Z</time>
      </trkpt>
      <trkpt lat="36.4645890" lon="-6.2099720">
        <ele>8.8</ele>
        <time>2023-01-28T10:55:36Z</time>
      </trkpt>
      <trkpt lat="36.4645480" lon="-6.2099820">
        <ele>9.0</ele>
        <time>2023-01-28T10:55:37Z</time>
      </trkpt>
      <trkpt lat="36.4645140" lon="-6.2099920">
        <ele>9.0</ele>
        <time>2023-01-28T10:55:38Z</time>
      </trkpt>
      <trkpt lat="36.4644700" lon="-6.2100110">
        <ele>9.2</ele>
        <time>2023-01-28T10:55:39Z</time>
      </trkpt>
      <trkpt lat="36.4644390" lon="-6.2100330">
        <ele>9.2</ele>
        <time>2023-01-28T10:55:40Z</time>
      </trkpt>
      <trkpt lat="36.4644230" lon="-6.2100590">
        <ele>9.2</ele>
        <time>2023-01-28T10:55:41Z</time>
      </trkpt>
      <trkpt lat="36.4643890" lon="-6.2100770">
        <ele>9.2</ele>
        <time>2023-01-28T10:55:42Z</time>
      </trkpt>
      <trkpt lat="36.4643700" lon="-6.2101050">
        <ele>9.2</ele>
        <time>2023-01-28T10:55:43Z</time>
      </trkpt>
      <trkpt lat="36.4643210" lon="-6.2101280">
        <ele>9.2</ele>
        <time>2023-01-28T10:55:44Z</time>
      </trkpt>
      <trkpt lat="36.4642670" lon="-6.2101500">
        <ele>9.2</ele>
        <time>2023-01-28T10:55:45Z</time>
      </trkpt>
      <trkpt lat="36.4642070" lon="-6.2101700">
        <ele>9.2</ele>
        <time>2023-01-28T10:55:46Z</time>
      </trkpt>
      <trkpt lat="36.4641510" lon="-6.2101950">
        <ele>9.2</ele>
        <time>2023-01-28T10:55:47Z</time>
      </trkpt>
      <trkpt lat="36.4641250" lon="-6.2102170">
        <ele>9.4</ele>
        <time>2023-01-28T10:55:48Z</time>
      </trkpt>
      <trkpt lat="36.4640840" lon="-6.2102380">
        <ele>9.4</ele>
        <time>2023-01-28T10:55:49Z</time>
      </trkpt>
      <trkpt lat="36.4640580" lon="-6.2102660">
        <ele>9.4</ele>
        <time>2023-01-28T10:55:50Z</time>
      </trkpt>
      <trkpt lat="36.4640150" lon="-6.2102780">
        <ele>9.2</ele>
        <time>2023-01-28T10:55:51Z</time>
      </trkpt>
      <trkpt lat="36.4639560" lon="-6.2103030">
        <ele>9.2</ele>
        <time>2023-01-28T10:55:52Z</time>
      </trkpt>
      <trkpt lat="36.4639280" lon="-6.2103310">
        <ele>9.2</ele>
        <time>2023-01-28T10:55:53Z</time>
      </trkpt>
      <trkpt lat="36.4638820" lon="-6.2103420">
        <ele>9.4</ele>
        <time>2023-01-28T10:55:54Z</time>
      </trkpt>
      <trkpt lat="36.4638480" lon="-6.2103640">
        <ele>9.4</ele>
        <time>2023-01-28T10:55:55Z</time>
      </trkpt>
      <trkpt lat="36.4638150" lon="-6.2103860">
        <ele>9.4</ele>
        <time>2023-01-28T10:55:56Z</time>
      </trkpt>
      <trkpt lat="36.4637710" lon="-6.2104070">
        <ele>9.4</ele>
        <time>2023-01-28T10:55:57Z</time>
      </trkpt>
      <trkpt lat="36.4637330" lon="-6.2104330">
        <ele>9.2</ele>
        <time>2023-01-28T10:55:58Z</time>
      </trkpt>
      <trkpt lat="36.4636840" lon="-6.2104510">
        <ele>9.2</ele>
        <time>2023-01-28T10:55:59Z</time>
      </trkpt>
      <trkpt lat="36.4636420" lon="-6.2104730">
        <ele>9.0</ele>
        <time>2023-01-28T10:56:00Z</time>
      </trkpt>
      <trkpt lat="36.4636120" lon="-6.2104990">
        <ele>9.2</ele>
        <time>2023-01-28T10:56:01Z</time>
      </trkpt>
      <trkpt lat="36.4635790" lon="-6.2105290">
        <ele>9.2</ele>
        <time>2023-01-28T10:56:02Z</time>
      </trkpt>
      <trkpt lat="36.4635290" lon="-6.2105480">
        <ele>9.0</ele>
        <time>2023-01-28T10:56:03Z</time>
      </trkpt>
      <trkpt lat="36.4635000" lon="-6.2105650">
        <ele>9.0</ele>
        <time>2023-01-28T10:56:04Z</time>
      </trkpt>
      <trkpt lat="36.4634590" lon="-6.2105810">
        <ele>9.0</ele>
        <time>2023-01-28T10:56:05Z</time>
      </trkpt>
      <trkpt lat="36.4634130" lon="-6.2105940">
        <ele>8.8</ele>
        <time>2023-01-28T10:56:06Z</time>
      </trkpt>
      <trkpt lat="36.4633750" lon="-6.2106120">
        <ele>8.8</ele>
        <time>2023-01-28T10:56:07Z</time>
      </trkpt>
      <trkpt lat="36.4633370" lon="-6.2106170">
        <ele>9.0</ele>
        <time>2023-01-28T10:56:08Z</time>
      </trkpt>
      <trkpt lat="36.4632970" lon="-6.2106220">
        <ele>8.8</ele>
        <time>2023-01-28T10:56:09Z</time>
      </trkpt>
      <trkpt lat="36.4632620" lon="-6.2106500">
        <ele>8.8</ele>
        <time>2023-01-28T10:56:10Z</time>
      </trkpt>
      <trkpt lat="36.4632160" lon="-6.2106760">
        <ele>8.8</ele>
        <time>2023-01-28T10:56:11Z</time>
      </trkpt>
      <trkpt lat="36.4631720" lon="-6.2106930">
        <ele>8.8</ele>
        <time>2023-01-28T10:56:12Z</time>
      </trkpt>
      <trkpt lat="36.4631180" lon="-6.2107120">
        <ele>8.8</ele>
        <time>2023-01-28T10:56:13Z</time>
      </trkpt>
      <trkpt lat="36.4630750" lon="-6.2107300">
        <ele>8.8</ele>
        <time>2023-01-28T10:56:14Z</time>
      </trkpt>
      <trkpt lat="36.4630300" lon="-6.2107470">
        <ele>8.6</ele>
        <time>2023-01-28T10:56:15Z</time>
      </trkpt>
      <trkpt lat="36.4629760" lon="-6.2107700">
        <ele>8.8</ele>
        <time>2023-01-28T10:56:16Z</time>
      </trkpt>
      <trkpt lat="36.4629390" lon="-6.2107980">
        <ele>8.6</ele>
        <time>2023-01-28T10:56:17Z</time>
      </trkpt>
      <trkpt lat="36.4628890" lon="-6.2108270">
        <ele>8.6</ele>
        <time>2023-01-28T10:56:18Z</time>
      </trkpt>
      <trkpt lat="36.4628390" lon="-6.2108560">
        <ele>8.6</ele>
        <time>2023-01-28T10:56:19Z</time>
      </trkpt>
      <trkpt lat="36.4627950" lon="-6.2108890">
        <ele>8.6</ele>
        <time>2023-01-28T10:56:20Z</time>
      </trkpt>
      <trkpt lat="36.4627520" lon="-6.2109080">
        <ele>8.8</ele>
        <time>2023-01-28T10:56:21Z</time>
      </trkpt>
      <trkpt lat="36.4626960" lon="-6.2109220">
        <ele>8.6</ele>
        <time>2023-01-28T10:56:22Z</time>
      </trkpt>
      <trkpt lat="36.4626340" lon="-6.2109400">
        <ele>8.6</ele>
        <time>2023-01-28T10:56:23Z</time>
      </trkpt>
      <trkpt lat="36.4626020" lon="-6.2109540">
        <ele>8.8</ele>
        <time>2023-01-28T10:56:24Z</time>
      </trkpt>
      <trkpt lat="36.4625560" lon="-6.2109790">
        <ele>8.8</ele>
        <time>2023-01-28T10:56:25Z</time>
      </trkpt>
      <trkpt lat="36.4625240" lon="-6.2110010">
        <ele>8.8</ele>
        <time>2023-01-28T10:56:26Z</time>
      </trkpt>
      <trkpt lat="36.4624790" lon="-6.2110320">
        <ele>8.8</ele>
        <time>2023-01-28T10:56:27Z</time>
      </trkpt>
      <trkpt lat="36.4624410" lon="-6.2110590">
        <ele>8.8</ele>
        <time>2023-01-28T10:56:28Z</time>
      </trkpt>
      <trkpt lat="36.4624130" lon="-6.2110870">
        <ele>8.6</ele>
        <time>2023-01-28T10:56:29Z</time>
      </trkpt>
      <trkpt lat="36.4623820" lon="-6.2111190">
        <ele>8.4</ele>
        <time>2023-01-28T10:56:30Z</time>
      </trkpt>
      <trkpt lat="36.4623390" lon="-6.2111330">
        <ele>8.4</ele>
        <time>2023-01-28T10:56:31Z</time>
      </trkpt>
      <trkpt lat="36.4622850" lon="-6.2111620">
        <ele>8.2</ele>
        <time>2023-01-28T10:56:32Z</time>
      </trkpt>
      <trkpt lat="36.4622460" lon="-6.2111850">
        <ele>8.2</ele>
        <time>2023-01-28T10:56:33Z</time>
      </trkpt>
      <trkpt lat="36.4622100" lon="-6.2112140">
        <ele>8.2</ele>
        <time>2023-01-28T10:56:34Z</time>
      </trkpt>
      <trkpt lat="36.4621750" lon="-6.2112330">
        <ele>8.2</ele>
        <time>2023-01-28T10:56:35Z</time>
      </trkpt>
      <trkpt lat="36.4621380" lon="-6.2112530">
        <ele>8.2</ele>
        <time>2023-01-28T10:56:36Z</time>
      </trkpt>
      <trkpt lat="36.4620950" lon="-6.2112770">
        <ele>8.2</ele>
        <time>2023-01-28T10:56:37Z</time>
      </trkpt>
      <trkpt lat="36.4620640" lon="-6.2112940">
        <ele>8.2</ele>
        <time>2023-01-28T10:56:38Z</time>
      </trkpt>
      <trkpt lat="36.4620310" lon="-6.2113170">
        <ele>8.2</ele>
        <time>2023-01-28T10:56:39Z</time>
      </trkpt>
      <trkpt lat="36.4619840" lon="-6.2113470">
        <ele>8.2</ele>
        <time>2023-01-28T10:56:40Z</time>
      </trkpt>
      <trkpt lat="36.4619470" lon="-6.2113690">
        <ele>8.2</ele>
        <time>2023-01-28T10:56:41Z</time>
      </trkpt>
      <trkpt lat="36.4618900" lon="-6.2114030">
        <ele>8.2</ele>
        <time>2023-01-28T10:56:42Z</time>
      </trkpt>
      <trkpt lat="36.4618480" lon="-6.2114290">
        <ele>8.2</ele>
        <time>2023-01-28T10:56:43Z</time>
      </trkpt>
      <trkpt lat="36.4618050" lon="-6.2114610">
        <ele>8.2</ele>
        <time>2023-01-28T10:56:44Z</time>
      </trkpt>
      <trkpt lat="36.4617650" lon="-6.2114890">
        <ele>8.2</ele>
        <time>2023-01-28T10:56:45Z</time>
      </trkpt>
      <trkpt lat="36.4617260" lon="-6.2115110">
        <ele>8.2</ele>
        <time>2023-01-28T10:56:46Z</time>
      </trkpt>
      <trkpt lat="36.4616970" lon="-6.2115410">
        <ele>8.2</ele>
        <time>2023-01-28T10:56:47Z</time>
      </trkpt>
      <trkpt lat="36.4616550" lon="-6.2115580">
        <ele>8.4</ele>
        <time>2023-01-28T10:56:48Z</time>
      </trkpt>
      <trkpt lat="36.4616200" lon="-6.2115670">
        <ele>8.4</ele>
        <time>2023-01-28T10:56:49Z</time>
      </trkpt>
      <trkpt lat="36.4615880" lon="-6.2115940">
        <ele>8.4</ele>
        <time>2023-01-28T10:56:50Z</time>
      </trkpt>
      <trkpt lat="36.4615490" lon="-6.2116330">
        <ele>8.4</ele>
        <time>2023-01-28T10:56:51Z</time>
      </trkpt>
      <trkpt lat="36.4615180" lon="-6.2116600">
        <ele>8.6</ele>
        <time>2023-01-28T10:56:52Z</time>
      </trkpt>
      <trkpt lat="36.4614900" lon="-6.2116970">
        <ele>8.8</ele>
        <time>2023-01-28T10:56:53Z</time>
      </trkpt>
      <trkpt lat="36.4614520" lon="-6.2117320">
        <ele>8.8</ele>
        <time>2023-01-28T10:56:54Z</time>
      </trkpt>
      <trkpt lat="36.4614240" lon="-6.2117580">
        <ele>8.8</ele>
        <time>2023-01-28T10:56:55Z</time>
      </trkpt>
      <trkpt lat="36.4613910" lon="-6.2117800">
        <ele>8.8</ele>
        <time>2023-01-28T10:56:56Z</time>
      </trkpt>
      <trkpt lat="36.4613490" lon="-6.2118120">
        <ele>8.8</ele>
        <time>2023-01-28T10:56:57Z</time>
      </trkpt>
      <trkpt lat="36.4613160" lon="-6.2118330">
        <ele>9.0</ele>
        <time>2023-01-28T10:56:58Z</time>
      </trkpt>
      <trkpt lat="36.4612760" lon="-6.2118530">
        <ele>9.2</ele>
        <time>2023-01-28T10:56:59Z</time>
      </trkpt>
      <trkpt lat="36.4612480" lon="-6.2118990">
        <ele>9.2</ele>
        <time>2023-01-28T10:57:00Z</time>
      </trkpt>
      <trkpt lat="36.4612220" lon="-6.2119400">
        <ele>9.0</ele>
        <time>2023-01-28T10:57:01Z</time>
      </trkpt>
      <trkpt lat="36.4611820" lon="-6.2119710">
        <ele>9.0</ele>
        <time>2023-01-28T10:57:02Z</time>
      </trkpt>
      <trkpt lat="36.4611330" lon="-6.2119950">
        <ele>9.0</ele>
        <time>2023-01-28T10:57:03Z</time>
      </trkpt>
      <trkpt lat="36.4610940" lon="-6.2120310">
        <ele>8.8</ele>
        <time>2023-01-28T10:57:04Z</time>
      </trkpt>
      <trkpt lat="36.4610520" lon="-6.2120690">
        <ele>8.8</ele>
        <time>2023-01-28T10:57:05Z</time>
      </trkpt>
      <trkpt lat="36.4610170" lon="-6.2121050">
        <ele>8.6</ele>
        <time>2023-01-28T10:57:06Z</time>
      </trkpt>
      <trkpt lat="36.4609850" lon="-6.2121490">
        <ele>8.6</ele>
        <time>2023-01-28T10:57:07Z</time>
      </trkpt>
      <trkpt lat="36.4609570" lon="-6.2121890">
        <ele>8.6</ele>
        <time>2023-01-28T10:57:08Z</time>
      </trkpt>
      <trkpt lat="36.4609320" lon="-6.2122300">
        <ele>8.4</ele>
        <time>2023-01-28T10:57:09Z</time>
      </trkpt>
      <trkpt lat="36.4608990" lon="-6.2122730">
        <ele>8.4</ele>
        <time>2023-01-28T10:57:10Z</time>
      </trkpt>
      <trkpt lat="36.4608670" lon="-6.2123060">
        <ele>8.4</ele>
        <time>2023-01-28T10:57:11Z</time>
      </trkpt>
      <trkpt lat="36.4608300" lon="-6.2123300">
        <ele>8.6</ele>
        <time>2023-01-28T10:57:12Z</time>
      </trkpt>
      <trkpt lat="36.4608060" lon="-6.2123700">
        <ele>8.6</ele>
        <time>2023-01-28T10:57:13Z</time>
      </trkpt>
      <trkpt lat="36.4607800" lon="-6.2124100">
        <ele>8.6</ele>
        <time>2023-01-28T10:57:14Z</time>
      </trkpt>
      <trkpt lat="36.4607560" lon="-6.2124400">
        <ele>8.6</ele>
        <time>2023-01-28T10:57:15Z</time>
      </trkpt>
      <trkpt lat="36.4607240" lon="-6.2124720">
        <ele>8.4</ele>
        <time>2023-01-28T10:57:16Z</time>
      </trkpt>
      <trkpt lat="36.4606830" lon="-6.2124960">
        <ele>8.4</ele>
        <time>2023-01-28T10:57:17Z</time>
      </trkpt>
      <trkpt lat="36.4606370" lon="-6.2125390">
        <ele>8.6</ele>
        <time>2023-01-28T10:57:18Z</time>
      </trkpt>
      <trkpt lat="36.4605890" lon="-6.2125760">
        <ele>8.6</ele>
        <time>2023-01-28T10:57:19Z</time>
      </trkpt>
      <trkpt lat="36.4605390" lon="-6.2126300">
        <ele>8.6</ele>
        <time>2023-01-28T10:57:20Z</time>
      </trkpt>
      <trkpt lat="36.4605100" lon="-6.2126720">
        <ele>8.6</ele>
        <time>2023-01-28T10:57:21Z</time>
      </trkpt>
      <trkpt lat="36.4604630" lon="-6.2127090">
        <ele>8.6</ele>
        <time>2023-01-28T10:57:22Z</time>
      </trkpt>
      <trkpt lat="36.4604280" lon="-6.2127530">
        <ele>8.6</ele>
        <time>2023-01-28T10:57:23Z</time>
      </trkpt>
      <trkpt lat="36.4604050" lon="-6.2127880">
        <ele>8.6</ele>
        <time>2023-01-28T10:57:24Z</time>
      </trkpt>
      <trkpt lat="36.4603670" lon="-6.2128290">
        <ele>8.6</ele>
        <time>2023-01-28T10:57:25Z</time>
      </trkpt>
      <trkpt lat="36.4603350" lon="-6.2128730">
        <ele>8.6</ele>
        <time>2023-01-28T10:57:26Z</time>
      </trkpt>
      <trkpt lat="36.4603040" lon="-6.2129080">
        <ele>8.4</ele>
        <time>2023-01-28T10:57:27Z</time>
      </trkpt>
      <trkpt lat="36.4602560" lon="-6.2129590">
        <ele>8.4</ele>
        <time>2023-01-28T10:57:28Z</time>
      </trkpt>
      <trkpt lat="36.4602090" lon="-6.2130050">
        <ele>8.6</ele>
        <time>2023-01-28T10:57:29Z</time>
      </trkpt>
      <trkpt lat="36.4601780" lon="-6.2130460">
        <ele>8.8</ele>
        <time>2023-01-28T10:57:30Z</time>
      </trkpt>
      <trkpt lat="36.4601580" lon="-6.2130820">
        <ele>8.8</ele>
        <time>2023-01-28T10:57:31Z</time>
      </trkpt>
      <trkpt lat="36.4601240" lon="-6.2131190">
        <ele>8.8</ele>
        <time>2023-01-28T10:57:32Z</time>
      </trkpt>
      <trkpt lat="36.4600940" lon="-6.2131510">
        <ele>8.6</ele>
        <time>2023-01-28T10:57:33Z</time>
      </trkpt>
      <trkpt lat="36.4600620" lon="-6.2131910">
        <ele>8.6</ele>
        <time>2023-01-28T10:57:34Z</time>
      </trkpt>
      <trkpt lat="36.4600380" lon="-6.2132300">
        <ele>8.8</ele>
        <time>2023-01-28T10:57:35Z</time>
      </trkpt>
      <trkpt lat="36.4600110" lon="-6.2132560">
        <ele>8.6</ele>
        <time>2023-01-28T10:57:36Z</time>
      </trkpt>
      <trkpt lat="36.4599800" lon="-6.2132930">
        <ele>8.6</ele>
        <time>2023-01-28T10:57:37Z</time>
      </trkpt>
      <trkpt lat="36.4599290" lon="-6.2133310">
        <ele>8.6</ele>
        <time>2023-01-28T10:57:38Z</time>
      </trkpt>
      <trkpt lat="36.4599030" lon="-6.2133650">
        <ele>8.8</ele>
        <time>2023-01-28T10:57:39Z</time>
      </trkpt>
      <trkpt lat="36.4598650" lon="-6.2134070">
        <ele>8.6</ele>
        <time>2023-01-28T10:57:40Z</time>
      </trkpt>
      <trkpt lat="36.4598220" lon="-6.2134520">
        <ele>8.6</ele>
        <time>2023-01-28T10:57:41Z</time>
      </trkpt>
      <trkpt lat="36.4597960" lon="-6.2134940">
        <ele>8.2</ele>
        <time>2023-01-28T10:57:42Z</time>
      </trkpt>
      <trkpt lat="36.4597730" lon="-6.2135360">
        <ele>8.4</ele>
        <time>2023-01-28T10:57:43Z</time>
      </trkpt>
      <trkpt lat="36.4597520" lon="-6.2135730">
        <ele>8.4</ele>
        <time>2023-01-28T10:57:44Z</time>
      </trkpt>
      <trkpt lat="36.4597270" lon="-6.2136190">
        <ele>8.2</ele>
        <time>2023-01-28T10:57:45Z</time>
      </trkpt>
      <trkpt lat="36.4597010" lon="-6.2136600">
        <ele>8.4</ele>
        <time>2023-01-28T10:57:46Z</time>
      </trkpt>
      <trkpt lat="36.4596780" lon="-6.2137020">
        <ele>8.6</ele>
        <time>2023-01-28T10:57:47Z</time>
      </trkpt>
      <trkpt lat="36.4596450" lon="-6.2137510">
        <ele>8.6</ele>
        <time>2023-01-28T10:57:48Z</time>
      </trkpt>
      <trkpt lat="36.4596120" lon="-6.2137980">
        <ele>8.6</ele>
        <time>2023-01-28T10:57:49Z</time>
      </trkpt>
      <trkpt lat="36.4595880" lon="-6.2138270">
        <ele>8.6</ele>
        <time>2023-01-28T10:57:50Z</time>
      </trkpt>
      <trkpt lat="36.4595480" lon="-6.2138570">
        <ele>8.6</ele>
        <time>2023-01-28T10:57:51Z</time>
      </trkpt>
      <trkpt lat="36.4595220" lon="-6.2139130">
        <ele>8.6</ele>
        <time>2023-01-28T10:57:52Z</time>
      </trkpt>
      <trkpt lat="36.4594880" lon="-6.2139540">
        <ele>8.6</ele>
        <time>2023-01-28T10:57:53Z</time>
      </trkpt>
      <trkpt lat="36.4594300" lon="-6.2140000">
        <ele>8.6</ele>
        <time>2023-01-28T10:57:54Z</time>
      </trkpt>
      <trkpt lat="36.4593800" lon="-6.2140430">
        <ele>8.6</ele>
        <time>2023-01-28T10:57:55Z</time>
      </trkpt>
      <trkpt lat="36.4593450" lon="-6.2140810">
        <ele>8.6</ele>
        <time>2023-01-28T10:57:56Z</time>
      </trkpt>
      <trkpt lat="36.4593170" lon="-6.2141080">
        <ele>8.6</ele>
        <time>2023-01-28T10:57:57Z</time>
      </trkpt>
      <trkpt lat="36.4592670" lon="-6.2141440">
        <ele>8.6</ele>
        <time>2023-01-28T10:57:58Z</time>
      </trkpt>
      <trkpt lat="36.4592140" lon="-6.2141850">
        <ele>8.6</ele>
        <time>2023-01-28T10:57:59Z</time>
      </trkpt>
      <trkpt lat="36.4591700" lon="-6.2142160">
        <ele>8.6</ele>
        <time>2023-01-28T10:58:00Z</time>
      </trkpt>
      <trkpt lat="36.4591400" lon="-6.2142390">
        <ele>8.6</ele>
        <time>2023-01-28T10:58:01Z</time>
      </trkpt>
      <trkpt lat="36.4591110" lon="-6.2142670">
        <ele>8.4</ele>
        <time>2023-01-28T10:58:02Z</time>
      </trkpt>
      <trkpt lat="36.4590770" lon="-6.2143080">
        <ele>8.2</ele>
        <time>2023-01-28T10:58:03Z</time>
      </trkpt>
      <trkpt lat="36.4590310" lon="-6.2143530">
        <ele>8.2</ele>
        <time>2023-01-28T10:58:04Z</time>
      </trkpt>
      <trkpt lat="36.4590090" lon="-6.2144050">
        <ele>8.2</ele>
        <time>2023-01-28T10:58:05Z</time>
      </trkpt>
      <trkpt lat="36.4589750" lon="-6.2144550">
        <ele>8.4</ele>
        <time>2023-01-28T10:58:06Z</time>
      </trkpt>
      <trkpt lat="36.4589420" lon="-6.2145020">
        <ele>8.6</ele>
        <time>2023-01-28T10:58:07Z</time>
      </trkpt>
      <trkpt lat="36.4589000" lon="-6.2145570">
        <ele>8.6</ele>
        <time>2023-01-28T10:58:08Z</time>
      </trkpt>
      <trkpt lat="36.4588670" lon="-6.2146090">
        <ele>8.6</ele>
        <time>2023-01-28T10:58:09Z</time>
      </trkpt>
      <trkpt lat="36.4588450" lon="-6.2146580">
        <ele>8.4</ele>
        <time>2023-01-28T10:58:10Z</time>
      </trkpt>
      <trkpt lat="36.4588320" lon="-6.2147150">
        <ele>8.4</ele>
        <time>2023-01-28T10:58:11Z</time>
      </trkpt>
      <trkpt lat="36.4588150" lon="-6.2147600">
        <ele>8.6</ele>
        <time>2023-01-28T10:58:12Z</time>
      </trkpt>
      <trkpt lat="36.4587730" lon="-6.2148180">
        <ele>8.6</ele>
        <time>2023-01-28T10:58:13Z</time>
      </trkpt>
      <trkpt lat="36.4587380" lon="-6.2148730">
        <ele>8.6</ele>
        <time>2023-01-28T10:58:14Z</time>
      </trkpt>
      <trkpt lat="36.4587130" lon="-6.2149220">
        <ele>8.6</ele>
        <time>2023-01-28T10:58:15Z</time>
      </trkpt>
      <trkpt lat="36.4587030" lon="-6.2149790">
        <ele>8.4</ele>
        <time>2023-01-28T10:58:16Z</time>
      </trkpt>
      <trkpt lat="36.4586840" lon="-6.2150290">
        <ele>8.2</ele>
        <time>2023-01-28T10:58:17Z</time>
      </trkpt>
      <trkpt lat="36.4586550" lon="-6.2150850">
        <ele>8.4</ele>
        <time>2023-01-28T10:58:18Z</time>
      </trkpt>
      <trkpt lat="36.4586090" lon="-6.2151440">
        <ele>8.4</ele>
        <time>2023-01-28T10:58:19Z</time>
      </trkpt>
      <trkpt lat="36.4585740" lon="-6.2152020">
        <ele>8.2</ele>
        <time>2023-01-28T10:58:20Z</time>
      </trkpt>
      <trkpt lat="36.4585440" lon="-6.2152570">
        <ele>8.2</ele>
        <time>2023-01-28T10:58:21Z</time>
      </trkpt>
      <trkpt lat="36.4585230" lon="-6.2153120">
        <ele>8.2</ele>
        <time>2023-01-28T10:58:22Z</time>
      </trkpt>
      <trkpt lat="36.4584990" lon="-6.2153640">
        <ele>8.2</ele>
        <time>2023-01-28T10:58:23Z</time>
      </trkpt>
      <trkpt lat="36.4584820" lon="-6.2154160">
        <ele>8.6</ele>
        <time>2023-01-28T10:58:24Z</time>
      </trkpt>
      <trkpt lat="36.4584580" lon="-6.2154860">
        <ele>8.2</ele>
        <time>2023-01-28T10:58:25Z</time>
      </trkpt>
      <trkpt lat="36.4584280" lon="-6.2155480">
        <ele>8.0</ele>
        <time>2023-01-28T10:58:26Z</time>
      </trkpt>
      <trkpt lat="36.4584000" lon="-6.2156050">
        <ele>8.0</ele>
        <time>2023-01-28T10:58:27Z</time>
      </trkpt>
      <trkpt lat="36.4583720" lon="-6.2156640">
        <ele>8.0</ele>
        <time>2023-01-28T10:58:28Z</time>
      </trkpt>
      <trkpt lat="36.4583350" lon="-6.2157290">
        <ele>8.2</ele>
        <time>2023-01-28T10:58:29Z</time>
      </trkpt>
      <trkpt lat="36.4583150" lon="-6.2157840">
        <ele>8.2</ele>
        <time>2023-01-28T10:58:30Z</time>
      </trkpt>
      <trkpt lat="36.4582850" lon="-6.2158460">
        <ele>8.2</ele>
        <time>2023-01-28T10:58:31Z</time>
      </trkpt>
      <trkpt lat="36.4582620" lon="-6.2159070">
        <ele>8.4</ele>
        <time>2023-01-28T10:58:32Z</time>
      </trkpt>
      <trkpt lat="36.4582410" lon="-6.2159610">
        <ele>8.0</ele>
        <time>2023-01-28T10:58:33Z</time>
      </trkpt>
      <trkpt lat="36.4582180" lon="-6.2160170">
        <ele>7.8</ele>
        <time>2023-01-28T10:58:34Z</time>
      </trkpt>
      <trkpt lat="36.4581900" lon="-6.2160800">
        <ele>7.8</ele>
        <time>2023-01-28T10:58:35Z</time>
      </trkpt>
      <trkpt lat="36.4581780" lon="-6.2161430">
        <ele>7.8</ele>
        <time>2023-01-28T10:58:36Z</time>
      </trkpt>
      <trkpt lat="36.4581720" lon="-6.2162030">
        <ele>7.8</ele>
        <time>2023-01-28T10:58:37Z</time>
      </trkpt>
      <trkpt lat="36.4581750" lon="-6.2162520">
        <ele>7.8</ele>
        <time>2023-01-28T10:58:38Z</time>
      </trkpt>
      <trkpt lat="36.4581490" lon="-6.2163130">
        <ele>7.8</ele>
        <time>2023-01-28T10:58:39Z</time>
      </trkpt>
      <trkpt lat="36.4581410" lon="-6.2163730">
        <ele>7.8</ele>
        <time>2023-01-28T10:58:40Z</time>
      </trkpt>
      <trkpt lat="36.4581040" lon="-6.2164280">
        <ele>7.8</ele>
        <time>2023-01-28T10:58:41Z</time>
      </trkpt>
      <trkpt lat="36.4580700" lon="-6.2164980">
        <ele>7.8</ele>
        <time>2023-01-28T10:58:42Z</time>
      </trkpt>
      <trkpt lat="36.4580490" lon="-6.2165500">
        <ele>8.0</ele>
        <time>2023-01-28T10:58:43Z</time>
      </trkpt>
      <trkpt lat="36.4580200" lon="-6.2166070">
        <ele>8.0</ele>
        <time>2023-01-28T10:58:44Z</time>
      </trkpt>
      <trkpt lat="36.4579930" lon="-6.2166640">
        <ele>8.2</ele>
        <time>2023-01-28T10:58:45Z</time>
      </trkpt>
      <trkpt lat="36.4579780" lon="-6.2167220">
        <ele>8.4</ele>
        <time>2023-01-28T10:58:46Z</time>
      </trkpt>
      <trkpt lat="36.4579570" lon="-6.2167760">
        <ele>8.8</ele>
        <time>2023-01-28T10:58:47Z</time>
      </trkpt>
      <trkpt lat="36.4579450" lon="-6.2168260">
        <ele>9.0</ele>
        <time>2023-01-28T10:58:48Z</time>
      </trkpt>
      <trkpt lat="36.4579180" lon="-6.2168830">
        <ele>8.6</ele>
        <time>2023-01-28T10:58:49Z</time>
      </trkpt>
      <trkpt lat="36.4579160" lon="-6.2169330">
        <ele>9.0</ele>
        <time>2023-01-28T10:58:50Z</time>
      </trkpt>
      <trkpt lat="36.4578930" lon="-6.2169890">
        <ele>8.6</ele>
        <time>2023-01-28T10:58:51Z</time>
      </trkpt>
      <trkpt lat="36.4578610" lon="-6.2170520">
        <ele>8.6</ele>
        <time>2023-01-28T10:58:52Z</time>
      </trkpt>
      <trkpt lat="36.4578410" lon="-6.2171030">
        <ele>8.8</ele>
        <time>2023-01-28T10:58:53Z</time>
      </trkpt>
      <trkpt lat="36.4578280" lon="-6.2171560">
        <ele>9.0</ele>
        <time>2023-01-28T10:58:54Z</time>
      </trkpt>
      <trkpt lat="36.4578140" lon="-6.2172040">
        <ele>8.8</ele>
        <time>2023-01-28T10:58:55Z</time>
      </trkpt>
      <trkpt lat="36.4578040" lon="-6.2172600">
        <ele>8.8</ele>
        <time>2023-01-28T10:58:56Z</time>
      </trkpt>
      <trkpt lat="36.4577930" lon="-6.2173100">
        <ele>9.0</ele>
        <time>2023-01-28T10:58:57Z</time>
      </trkpt>
      <trkpt lat="36.4577750" lon="-6.2173710">
        <ele>8.8</ele>
        <time>2023-01-28T10:58:58Z</time>
      </trkpt>
      <trkpt lat="36.4577640" lon="-6.2174290">
        <ele>8.6</ele>
        <time>2023-01-28T10:58:59Z</time>
      </trkpt>
      <trkpt lat="36.4577450" lon="-6.2174850">
        <ele>8.6</ele>
        <time>2023-01-28T10:59:00Z</time>
      </trkpt>
      <trkpt lat="36.4577320" lon="-6.2175390">
        <ele>8.6</ele>
        <time>2023-01-28T10:59:01Z</time>
      </trkpt>
      <trkpt lat="36.4577120" lon="-6.2176030">
        <ele>8.8</ele>
        <time>2023-01-28T10:59:02Z</time>
      </trkpt>
      <trkpt lat="36.4576990" lon="-6.2176620">
        <ele>8.6</ele>
        <time>2023-01-28T10:59:03Z</time>
      </trkpt>
      <trkpt lat="36.4576760" lon="-6.2177280">
        <ele>8.6</ele>
        <time>2023-01-28T10:59:04Z</time>
      </trkpt>
      <trkpt lat="36.4576700" lon="-6.2177840">
        <ele>8.4</ele>
        <time>2023-01-28T10:59:05Z</time>
      </trkpt>
      <trkpt lat="36.4576560" lon="-6.2178470">
        <ele>8.4</ele>
        <time>2023-01-28T10:59:06Z</time>
      </trkpt>
      <trkpt lat="36.4576490" lon="-6.2179050">
        <ele>8.6</ele>
        <time>2023-01-28T10:59:07Z</time>
      </trkpt>
      <trkpt lat="36.4576480" lon="-6.2179620">
        <ele>8.6</ele>
        <time>2023-01-28T10:59:08Z</time>
      </trkpt>
      <trkpt lat="36.4576550" lon="-6.2180180">
        <ele>8.6</ele>
        <time>2023-01-28T10:59:09Z</time>
      </trkpt>
      <trkpt lat="36.4576420" lon="-6.2180690">
        <ele>9.2</ele>
        <time>2023-01-28T10:59:10Z</time>
      </trkpt>
      <trkpt lat="36.4576410" lon="-6.2181130">
        <ele>9.2</ele>
        <time>2023-01-28T10:59:11Z</time>
      </trkpt>
      <trkpt lat="36.4576400" lon="-6.2181640">
        <ele>9.0</ele>
        <time>2023-01-28T10:59:12Z</time>
      </trkpt>
      <trkpt lat="36.4576280" lon="-6.2182240">
        <ele>9.0</ele>
        <time>2023-01-28T10:59:13Z</time>
      </trkpt>
      <trkpt lat="36.4576200" lon="-6.2182820">
        <ele>8.6</ele>
        <time>2023-01-28T10:59:14Z</time>
      </trkpt>
      <trkpt lat="36.4576060" lon="-6.2183360">
        <ele>8.8</ele>
        <time>2023-01-28T10:59:15Z</time>
      </trkpt>
      <trkpt lat="36.4575900" lon="-6.2183870">
        <ele>8.8</ele>
        <time>2023-01-28T10:59:16Z</time>
      </trkpt>
      <trkpt lat="36.4575760" lon="-6.2184470">
        <ele>8.6</ele>
        <time>2023-01-28T10:59:17Z</time>
      </trkpt>
      <trkpt lat="36.4575660" lon="-6.2184960">
        <ele>8.4</ele>
        <time>2023-01-28T10:59:18Z</time>
      </trkpt>
      <trkpt lat="36.4575500" lon="-6.2185530">
        <ele>8.4</ele>
        <time>2023-01-28T10:59:19Z</time>
      </trkpt>
      <trkpt lat="36.4575390" lon="-6.2186080">
        <ele>8.4</ele>
        <time>2023-01-28T10:59:20Z</time>
      </trkpt>
      <trkpt lat="36.4575320" lon="-6.2186700">
        <ele>8.6</ele>
        <time>2023-01-28T10:59:21Z</time>
      </trkpt>
      <trkpt lat="36.4575260" lon="-6.2187350">
        <ele>8.2</ele>
        <time>2023-01-28T10:59:22Z</time>
      </trkpt>
      <trkpt lat="36.4575160" lon="-6.2187930">
        <ele>8.2</ele>
        <time>2023-01-28T10:59:23Z</time>
      </trkpt>
      <trkpt lat="36.4575000" lon="-6.2188450">
        <ele>8.2</ele>
        <time>2023-01-28T10:59:24Z</time>
      </trkpt>
      <trkpt lat="36.4574820" lon="-6.2189060">
        <ele>8.0</ele>
        <time>2023-01-28T10:59:25Z</time>
      </trkpt>
      <trkpt lat="36.4574800" lon="-6.2189580">
        <ele>8.2</ele>
        <time>2023-01-28T10:59:26Z</time>
      </trkpt>
      <trkpt lat="36.4574800" lon="-6.2190150">
        <ele>8.2</ele>
        <time>2023-01-28T10:59:27Z</time>
      </trkpt>
      <trkpt lat="36.4574610" lon="-6.2190760">
        <ele>8.4</ele>
        <time>2023-01-28T10:59:28Z</time>
      </trkpt>
      <trkpt lat="36.4574490" lon="-6.2191300">
        <ele>8.2</ele>
        <time>2023-01-28T10:59:29Z</time>
      </trkpt>
      <trkpt lat="36.4574550" lon="-6.2191930">
        <ele>8.2</ele>
        <time>2023-01-28T10:59:30Z</time>
      </trkpt>
      <trkpt lat="36.4574420" lon="-6.2192450">
        <ele>8.2</ele>
        <time>2023-01-28T10:59:31Z</time>
      </trkpt>
      <trkpt lat="36.4574490" lon="-6.2192970">
        <ele>8.2</ele>
        <time>2023-01-28T10:59:32Z</time>
      </trkpt>
      <trkpt lat="36.4574490" lon="-6.2193500">
        <ele>8.8</ele>
        <time>2023-01-28T10:59:33Z</time>
      </trkpt>
      <trkpt lat="36.4574360" lon="-6.2193990">
        <ele>8.8</ele>
        <time>2023-01-28T10:59:34Z</time>
      </trkpt>
      <trkpt lat="36.4574270" lon="-6.2194600">
        <ele>8.4</ele>
        <time>2023-01-28T10:59:35Z</time>
      </trkpt>
      <trkpt lat="36.4574150" lon="-6.2195160">
        <ele>8.2</ele>
        <time>2023-01-28T10:59:36Z</time>
      </trkpt>
      <trkpt lat="36.4574160" lon="-6.2195700">
        <ele>8.2</ele>
        <time>2023-01-28T10:59:37Z</time>
      </trkpt>
      <trkpt lat="36.4574010" lon="-6.2196300">
        <ele>8.2</ele>
        <time>2023-01-28T10:59:38Z</time>
      </trkpt>
      <trkpt lat="36.4574000" lon="-6.2196820">
        <ele>8.6</ele>
        <time>2023-01-28T10:59:39Z</time>
      </trkpt>
      <trkpt lat="36.4574010" lon="-6.2197450">
        <ele>8.8</ele>
        <time>2023-01-28T10:59:40Z</time>
      </trkpt>
      <trkpt lat="36.4574150" lon="-6.2198000">
        <ele>8.8</ele>
        <time>2023-01-28T10:59:41Z</time>
      </trkpt>
      <trkpt lat="36.4574150" lon="-6.2198670">
        <ele>8.4</ele>
        <time>2023-01-28T10:59:42Z</time>
      </trkpt>
      <trkpt lat="36.4574160" lon="-6.2199310">
        <ele>8.8</ele>
        <time>2023-01-28T10:59:43Z</time>
      </trkpt>
      <trkpt lat="36.4574110" lon="-6.2199850">
        <ele>8.4</ele>
        <time>2023-01-28T10:59:44Z</time>
      </trkpt>
      <trkpt lat="36.4573970" lon="-6.2200350">
        <ele>8.4</ele>
        <time>2023-01-28T10:59:45Z</time>
      </trkpt>
      <trkpt lat="36.4573990" lon="-6.2200940">
        <ele>8.6</ele>
        <time>2023-01-28T10:59:46Z</time>
      </trkpt>
      <trkpt lat="36.4574010" lon="-6.2201580">
        <ele>8.8</ele>
        <time>2023-01-28T10:59:47Z</time>
      </trkpt>
      <trkpt lat="36.4574050" lon="-6.2202070">
        <ele>8.6</ele>
        <time>2023-01-28T10:59:48Z</time>
      </trkpt>
      <trkpt lat="36.4574090" lon="-6.2202650">
        <ele>8.4</ele>
        <time>2023-01-28T10:59:49Z</time>
      </trkpt>
      <trkpt lat="36.4574020" lon="-6.2203110">
        <ele>8.2</ele>
        <time>2023-01-28T10:59:50Z</time>
      </trkpt>
      <trkpt lat="36.4574090" lon="-6.2203800">
        <ele>8.2</ele>
        <time>2023-01-28T10:59:51Z</time>
      </trkpt>
      <trkpt lat="36.4574300" lon="-6.2204280">
        <ele>8.4</ele>
        <time>2023-01-28T10:59:52Z</time>
      </trkpt>
      <trkpt lat="36.4574210" lon="-6.2204740">
        <ele>8.2</ele>
        <time>2023-01-28T10:59:53Z</time>
      </trkpt>
      <trkpt lat="36.4574270" lon="-6.2205270">
        <ele>8.6</ele>
        <time>2023-01-28T10:59:54Z</time>
      </trkpt>
      <trkpt lat="36.4574220" lon="-6.2205730">
        <ele>8.6</ele>
        <time>2023-01-28T10:59:55Z</time>
      </trkpt>
      <trkpt lat="36.4574200" lon="-6.2206210">
        <ele>8.8</ele>
        <time>2023-01-28T10:59:56Z</time>
      </trkpt>
      <trkpt lat="36.4574290" lon="-6.2206820">
        <ele>9.2</ele>
        <time>2023-01-28T10:59:57Z</time>
      </trkpt>
      <trkpt lat="36.4574320" lon="-6.2207500">
        <ele>8.8</ele>
        <time>2023-01-28T10:59:58Z</time>
      </trkpt>
      <trkpt lat="36.4574400" lon="-6.2208100">
        <ele>8.8</ele>
        <time>2023-01-28T10:59:59Z</time>
      </trkpt>
      <trkpt lat="36.4574330" lon="-6.2208810">
        <ele>9.0</ele>
        <time>2023-01-28T11:00:00Z</time>
      </trkpt>
      <trkpt lat="36.4574350" lon="-6.2209400">
        <ele>8.6</ele>
        <time>2023-01-28T11:00:01Z</time>
      </trkpt>
      <trkpt lat="36.4574340" lon="-6.2210000">
        <ele>8.4</ele>
        <time>2023-01-28T11:00:02Z</time>
      </trkpt>
      <trkpt lat="36.4574260" lon="-6.2210590">
        <ele>8.4</ele>
        <time>2023-01-28T11:00:03Z</time>
      </trkpt>
      <trkpt lat="36.4574250" lon="-6.2211140">
        <ele>8.4</ele>
        <time>2023-01-28T11:00:04Z</time>
      </trkpt>
      <trkpt lat="36.4574250" lon="-6.2211750">
        <ele>8.2</ele>
        <time>2023-01-28T11:00:05Z</time>
      </trkpt>
      <trkpt lat="36.4574260" lon="-6.2212400">
        <ele>8.6</ele>
        <time>2023-01-28T11:00:06Z</time>
      </trkpt>
      <trkpt lat="36.4574250" lon="-6.2213000">
        <ele>8.8</ele>
        <time>2023-01-28T11:00:07Z</time>
      </trkpt>
      <trkpt lat="36.4574280" lon="-6.2213630">
        <ele>8.8</ele>
        <time>2023-01-28T11:00:08Z</time>
      </trkpt>
      <trkpt lat="36.4574290" lon="-6.2214240">
        <ele>8.6</ele>
        <time>2023-01-28T11:00:09Z</time>
      </trkpt>
      <trkpt lat="36.4574300" lon="-6.2214840">
        <ele>8.4</ele>
        <time>2023-01-28T11:00:10Z</time>
      </trkpt>
      <trkpt lat="36.4574310" lon="-6.2215440">
        <ele>8.0</ele>
        <time>2023-01-28T11:00:11Z</time>
      </trkpt>
      <trkpt lat="36.4574340" lon="-6.2216030">
        <ele>7.8</ele>
        <time>2023-01-28T11:00:12Z</time>
      </trkpt>
      <trkpt lat="36.4574360" lon="-6.2216610">
        <ele>8.0</ele>
        <time>2023-01-28T11:00:13Z</time>
      </trkpt>
      <trkpt lat="36.4574370" lon="-6.2217190">
        <ele>8.4</ele>
        <time>2023-01-28T11:00:14Z</time>
      </trkpt>
      <trkpt lat="36.4574400" lon="-6.2217770">
        <ele>8.4</ele>
        <time>2023-01-28T11:00:15Z</time>
      </trkpt>
      <trkpt lat="36.4574440" lon="-6.2218350">
        <ele>8.2</ele>
        <time>2023-01-28T11:00:16Z</time>
      </trkpt>
      <trkpt lat="36.4574480" lon="-6.2218940">
        <ele>8.2</ele>
        <time>2023-01-28T11:00:17Z</time>
      </trkpt>
      <trkpt lat="36.4574520" lon="-6.2219530">
        <ele>8.4</ele>
        <time>2023-01-28T11:00:18Z</time>
      </trkpt>
      <trkpt lat="36.4574560" lon="-6.2220120">
        <ele>8.2</ele>
        <time>2023-01-28T11:00:19Z</time>
      </trkpt>
      <trkpt lat="36.4574590" lon="-6.2220700">
        <ele>8.2</ele>
        <time>2023-01-28T11:00:20Z</time>
      </trkpt>
      <trkpt lat="36.4574620" lon="-6.2221300">
        <ele>8.2</ele>
        <time>2023-01-28T11:00:21Z</time>
      </trkpt>
      <trkpt lat="36.4574650" lon="-6.2221910">
        <ele>8.2</ele>
        <time>2023-01-28T11:00:22Z</time>
      </trkpt>
      <trkpt lat="36.4574710" lon="-6.2222500">
        <ele>8.6</ele>
        <time>2023-01-28T11:00:23Z</time>
      </trkpt>
      <trkpt lat="36.4574790" lon="-6.2223070">
        <ele>8.6</ele>
        <time>2023-01-28T11:00:24Z</time>
      </trkpt>
      <trkpt lat="36.4574860" lon="-6.2223630">
        <ele>8.6</ele>
        <time>2023-01-28T11:00:25Z</time>
      </trkpt>
      <trkpt lat="36.4574910" lon="-6.2224200">
        <ele>8.2</ele>
        <time>2023-01-28T11:00:26Z</time>
      </trkpt>
      <trkpt lat="36.4574960" lon="-6.2224770">
        <ele>8.2</ele>
        <time>2023-01-28T11:00:27Z</time>
      </trkpt>
      <trkpt lat="36.4575000" lon="-6.2225340">
        <ele>8.4</ele>
        <time>2023-01-28T11:00:28Z</time>
      </trkpt>
      <trkpt lat="36.4575050" lon="-6.2225920">
        <ele>8.4</ele>
        <time>2023-01-28T11:00:29Z</time>
      </trkpt>
      <trkpt lat="36.4575100" lon="-6.2226510">
        <ele>8.4</ele>
        <time>2023-01-28T11:00:30Z</time>
      </trkpt>
      <trkpt lat="36.4575140" lon="-6.2227090">
        <ele>8.2</ele>
        <time>2023-01-28T11:00:31Z</time>
      </trkpt>
      <trkpt lat="36.4575170" lon="-6.2227660">
        <ele>8.4</ele>
        <time>2023-01-28T11:00:32Z</time>
      </trkpt>
      <trkpt lat="36.4575200" lon="-6.2228230">
        <ele>8.2</ele>
        <time>2023-01-28T11:00:33Z</time>
      </trkpt>
      <trkpt lat="36.4575250" lon="-6.2228800">
        <ele>8.4</ele>
        <time>2023-01-28T11:00:34Z</time>
      </trkpt>
      <trkpt lat="36.4575320" lon="-6.2229380">
        <ele>9.0</ele>
        <time>2023-01-28T11:00:35Z</time>
      </trkpt>
      <trkpt lat="36.4575390" lon="-6.2229960">
        <ele>8.8</ele>
        <time>2023-01-28T11:00:36Z</time>
      </trkpt>
      <trkpt lat="36.4575470" lon="-6.2230520">
        <ele>8.6</ele>
        <time>2023-01-28T11:00:37Z</time>
      </trkpt>
      <trkpt lat="36.4575540" lon="-6.2231080">
        <ele>8.2</ele>
        <time>2023-01-28T11:00:38Z</time>
      </trkpt>
      <trkpt lat="36.4575600" lon="-6.2231650">
        <ele>8.0</ele>
        <time>2023-01-28T11:00:39Z</time>
      </trkpt>
      <trkpt lat="36.4575650" lon="-6.2232200">
        <ele>8.2</ele>
        <time>2023-01-28T11:00:40Z</time>
      </trkpt>
      <trkpt lat="36.4575750" lon="-6.2232760">
        <ele>8.2</ele>
        <time>2023-01-28T11:00:41Z</time>
      </trkpt>
      <trkpt lat="36.4575830" lon="-6.2233370">
        <ele>8.6</ele>
        <time>2023-01-28T11:00:42Z</time>
      </trkpt>
      <trkpt lat="36.4575900" lon="-6.2233900">
        <ele>8.2</ele>
        <time>2023-01-28T11:00:43Z</time>
      </trkpt>
      <trkpt lat="36.4575980" lon="-6.2234440">
        <ele>8.0</ele>
        <time>2023-01-28T11:00:44Z</time>
      </trkpt>
      <trkpt lat="36.4576040" lon="-6.2235040">
        <ele>8.2</ele>
        <time>2023-01-28T11:00:45Z</time>
      </trkpt>
      <trkpt lat="36.4576140" lon="-6.2235590">
        <ele>8.2</ele>
        <time>2023-01-28T11:00:46Z</time>
      </trkpt>
      <trkpt lat="36.4576270" lon="-6.2236150">
        <ele>7.8</ele>
        <time>2023-01-28T11:00:47Z</time>
      </trkpt>
      <trkpt lat="36.4576300" lon="-6.2236610">
        <ele>7.6</ele>
        <time>2023-01-28T11:00:48Z</time>
      </trkpt>
      <trkpt lat="36.4576400" lon="-6.2237080">
        <ele>7.8</ele>
        <time>2023-01-28T11:00:49Z</time>
      </trkpt>
      <trkpt lat="36.4576500" lon="-6.2237600">
        <ele>7.8</ele>
        <time>2023-01-28T11:00:50Z</time>
      </trkpt>
      <trkpt lat="36.4576510" lon="-6.2238150">
        <ele>8.2</ele>
        <time>2023-01-28T11:00:51Z</time>
      </trkpt>
      <trkpt lat="36.4576540" lon="-6.2238640">
        <ele>9.0</ele>
        <time>2023-01-28T11:00:52Z</time>
      </trkpt>
      <trkpt lat="36.4576640" lon="-6.2239230">
        <ele>9.6</ele>
        <time>2023-01-28T11:00:53Z</time>
      </trkpt>
      <trkpt lat="36.4576690" lon="-6.2239630">
        <ele>9.4</ele>
        <time>2023-01-28T11:00:54Z</time>
      </trkpt>
      <trkpt lat="36.4576810" lon="-6.2240200">
        <ele>8.8</ele>
        <time>2023-01-28T11:00:55Z</time>
      </trkpt>
      <trkpt lat="36.4576840" lon="-6.2240780">
        <ele>8.6</ele>
        <time>2023-01-28T11:00:56Z</time>
      </trkpt>
      <trkpt lat="36.4576870" lon="-6.2241340">
        <ele>8.8</ele>
        <time>2023-01-28T11:00:57Z</time>
      </trkpt>
      <trkpt lat="36.4576860" lon="-6.2241840">
        <ele>8.4</ele>
        <time>2023-01-28T11:00:58Z</time>
      </trkpt>
      <trkpt lat="36.4576860" lon="-6.2242340">
        <ele>8.4</ele>
        <time>2023-01-28T11:00:59Z</time>
      </trkpt>
      <trkpt lat="36.4576870" lon="-6.2242810">
        <ele>8.2</ele>
        <time>2023-01-28T11:01:00Z</time>
      </trkpt>
      <trkpt lat="36.4576930" lon="-6.2243440">
        <ele>8.6</ele>
        <time>2023-01-28T11:01:01Z</time>
      </trkpt>
      <trkpt lat="36.4577050" lon="-6.2243850">
        <ele>8.2</ele>
        <time>2023-01-28T11:01:02Z</time>
      </trkpt>
      <trkpt lat="36.4577130" lon="-6.2244370">
        <ele>8.4</ele>
        <time>2023-01-28T11:01:03Z</time>
      </trkpt>
      <trkpt lat="36.4577230" lon="-6.2244880">
        <ele>8.6</ele>
        <time>2023-01-28T11:01:04Z</time>
      </trkpt>
      <trkpt lat="36.4577260" lon="-6.2245440">
        <ele>8.4</ele>
        <time>2023-01-28T11:01:05Z</time>
      </trkpt>
      <trkpt lat="36.4577340" lon="-6.2245850">
        <ele>8.0</ele>
        <time>2023-01-28T11:01:06Z</time>
      </trkpt>
      <trkpt lat="36.4577370" lon="-6.2246380">
        <ele>8.2</ele>
        <time>2023-01-28T11:01:07Z</time>
      </trkpt>
      <trkpt lat="36.4577530" lon="-6.2246860">
        <ele>8.2</ele>
        <time>2023-01-28T11:01:08Z</time>
      </trkpt>
      <trkpt lat="36.4577650" lon="-6.2247380">
        <ele>8.0</ele>
        <time>2023-01-28T11:01:09Z</time>
      </trkpt>
      <trkpt lat="36.4577790" lon="-6.2247840">
        <ele>8.2</ele>
        <time>2023-01-28T11:01:10Z</time>
      </trkpt>
      <trkpt lat="36.4577850" lon="-6.2248350">
        <ele>9.0</ele>
        <time>2023-01-28T11:01:11Z</time>
      </trkpt>
      <trkpt lat="36.4577890" lon="-6.2248850">
        <ele>8.6</ele>
        <time>2023-01-28T11:01:12Z</time>
      </trkpt>
      <trkpt lat="36.4577990" lon="-6.2249450">
        <ele>8.6</ele>
        <time>2023-01-28T11:01:13Z</time>
      </trkpt>
      <trkpt lat="36.4578000" lon="-6.2249980">
        <ele>8.8</ele>
        <time>2023-01-28T11:01:14Z</time>
      </trkpt>
      <trkpt lat="36.4578040" lon="-6.2250510">
        <ele>8.4</ele>
        <time>2023-01-28T11:01:15Z</time>
      </trkpt>
      <trkpt lat="36.4578180" lon="-6.2251030">
        <ele>8.6</ele>
        <time>2023-01-28T11:01:16Z</time>
      </trkpt>
      <trkpt lat="36.4578220" lon="-6.2251620">
        <ele>8.8</ele>
        <time>2023-01-28T11:01:17Z</time>
      </trkpt>
      <trkpt lat="36.4578280" lon="-6.2252140">
        <ele>8.6</ele>
        <time>2023-01-28T11:01:18Z</time>
      </trkpt>
      <trkpt lat="36.4578360" lon="-6.2252640">
        <ele>8.6</ele>
        <time>2023-01-28T11:01:19Z</time>
      </trkpt>
      <trkpt lat="36.4578400" lon="-6.2253140">
        <ele>8.8</ele>
        <time>2023-01-28T11:01:20Z</time>
      </trkpt>
      <trkpt lat="36.4578550" lon="-6.2253690">
        <ele>8.8</ele>
        <time>2023-01-28T11:01:21Z</time>
      </trkpt>
      <trkpt lat="36.4578600" lon="-6.2254340">
        <ele>8.6</ele>
        <time>2023-01-28T11:01:22Z</time>
      </trkpt>
      <trkpt lat="36.4578660" lon="-6.2254890">
        <ele>8.4</ele>
        <time>2023-01-28T11:01:23Z</time>
      </trkpt>
      <trkpt lat="36.4578750" lon="-6.2255460">
        <ele>8.0</ele>
        <time>2023-01-28T11:01:24Z</time>
      </trkpt>
      <trkpt lat="36.4578830" lon="-6.2255960">
        <ele>8.4</ele>
        <time>2023-01-28T11:01:25Z</time>
      </trkpt>
      <trkpt lat="36.4578950" lon="-6.2256560">
        <ele>8.6</ele>
        <time>2023-01-28T11:01:26Z</time>
      </trkpt>
      <trkpt lat="36.4579040" lon="-6.2257110">
        <ele>8.6</ele>
        <time>2023-01-28T11:01:27Z</time>
      </trkpt>
      <trkpt lat="36.4579100" lon="-6.2257710">
        <ele>8.6</ele>
        <time>2023-01-28T11:01:28Z</time>
      </trkpt>
      <trkpt lat="36.4579110" lon="-6.2258150">
        <ele>8.8</ele>
        <time>2023-01-28T11:01:29Z</time>
      </trkpt>
      <trkpt lat="36.4579100" lon="-6.2258710">
        <ele>8.8</ele>
        <time>2023-01-28T11:01:30Z</time>
      </trkpt>
      <trkpt lat="36.4579120" lon="-6.2259330">
        <ele>8.6</ele>
        <time>2023-01-28T11:01:31Z</time>
      </trkpt>
      <trkpt lat="36.4579150" lon="-6.2259850">
        <ele>9.2</ele>
        <time>2023-01-28T11:01:32Z</time>
      </trkpt>
      <trkpt lat="36.4579240" lon="-6.2260280">
        <ele>9.6</ele>
        <time>2023-01-28T11:01:33Z</time>
      </trkpt>
      <trkpt lat="36.4579400" lon="-6.2260810">
        <ele>9.2</ele>
        <time>2023-01-28T11:01:34Z</time>
      </trkpt>
      <trkpt lat="36.4579570" lon="-6.2261370">
        <ele>9.2</ele>
        <time>2023-01-28T11:01:35Z</time>
      </trkpt>
      <trkpt lat="36.4579570" lon="-6.2261890">
        <ele>8.8</ele>
        <time>2023-01-28T11:01:36Z</time>
      </trkpt>
      <trkpt lat="36.4579700" lon="-6.2262390">
        <ele>8.6</ele>
        <time>2023-01-28T11:01:37Z</time>
      </trkpt>
      <trkpt lat="36.4579620" lon="-6.2262930">
        <ele>8.6</ele>
        <time>2023-01-28T11:01:38Z</time>
      </trkpt>
      <trkpt lat="36.4579650" lon="-6.2263450">
        <ele>9.0</ele>
        <time>2023-01-28T11:01:39Z</time>
      </trkpt>
      <trkpt lat="36.4579730" lon="-6.2263970">
        <ele>8.8</ele>
        <time>2023-01-28T11:01:40Z</time>
      </trkpt>
      <trkpt lat="36.4579890" lon="-6.2264540">
        <ele>8.8</ele>
        <time>2023-01-28T11:01:41Z</time>
      </trkpt>
      <trkpt lat="36.4579880" lon="-6.2265010">
        <ele>8.8</ele>
        <time>2023-01-28T11:01:42Z</time>
      </trkpt>
      <trkpt lat="36.4579950" lon="-6.2265500">
        <ele>9.0</ele>
        <time>2023-01-28T11:01:43Z</time>
      </trkpt>
      <trkpt lat="36.4579990" lon="-6.2266010">
        <ele>9.8</ele>
        <time>2023-01-28T11:01:44Z</time>
      </trkpt>
      <trkpt lat="36.4580010" lon="-6.2266530">
        <ele>9.8</ele>
        <time>2023-01-28T11:01:45Z</time>
      </trkpt>
      <trkpt lat="36.4580110" lon="-6.2266990">
        <ele>9.8</ele>
        <time>2023-01-28T11:01:46Z</time>
      </trkpt>
      <trkpt lat="36.4580140" lon="-6.2267510">
        <ele>10.0</ele>
        <time>2023-01-28T11:01:47Z</time>
      </trkpt>
      <trkpt lat="36.4580150" lon="-6.2267990">
        <ele>9.8</ele>
        <time>2023-01-28T11:01:48Z</time>
      </trkpt>
      <trkpt lat="36.4580150" lon="-6.2268410">
        <ele>9.4</ele>
        <time>2023-01-28T11:01:49Z</time>
      </trkpt>
      <trkpt lat="36.4580160" lon="-6.2268860">
        <ele>9.2</ele>
        <time>2023-01-28T11:01:50Z</time>
      </trkpt>
      <trkpt lat="36.4580130" lon="-6.2269310">
        <ele>9.4</ele>
        <time>2023-01-28T11:01:51Z</time>
      </trkpt>
      <trkpt lat="36.4580120" lon="-6.2269760">
        <ele>9.4</ele>
        <time>2023-01-28T11:01:52Z</time>
      </trkpt>
      <trkpt lat="36.4580250" lon="-6.2270230">
        <ele>9.6</ele>
        <time>2023-01-28T11:01:53Z</time>
      </trkpt>
      <trkpt lat="36.4580260" lon="-6.2270670">
        <ele>9.6</ele>
        <time>2023-01-28T11:01:54Z</time>
      </trkpt>
      <trkpt lat="36.4580280" lon="-6.2271130">
        <ele>9.6</ele>
        <time>2023-01-28T11:01:55Z</time>
      </trkpt>
      <trkpt lat="36.4580300" lon="-6.2271580">
        <ele>9.6</ele>
        <time>2023-01-28T11:01:56Z</time>
      </trkpt>
      <trkpt lat="36.4580380" lon="-6.2272120">
        <ele>9.4</ele>
        <time>2023-01-28T11:01:57Z</time>
      </trkpt>
      <trkpt lat="36.4580470" lon="-6.2272620">
        <ele>10.2</ele>
        <time>2023-01-28T11:01:58Z</time>
      </trkpt>
      <trkpt lat="36.4580570" lon="-6.2273160">
        <ele>10.2</ele>
        <time>2023-01-28T11:01:59Z</time>
      </trkpt>
      <trkpt lat="36.4580650" lon="-6.2273670">
        <ele>9.8</ele>
        <time>2023-01-28T11:02:00Z</time>
      </trkpt>
      <trkpt lat="36.4580770" lon="-6.2274190">
        <ele>9.8</ele>
        <time>2023-01-28T11:02:01Z</time>
      </trkpt>
      <trkpt lat="36.4580940" lon="-6.2274720">
        <ele>9.6</ele>
        <time>2023-01-28T11:02:02Z</time>
      </trkpt>
      <trkpt lat="36.4580940" lon="-6.2275290">
        <ele>9.4</ele>
        <time>2023-01-28T11:02:03Z</time>
      </trkpt>
      <trkpt lat="36.4581000" lon="-6.2275830">
        <ele>9.8</ele>
        <time>2023-01-28T11:02:04Z</time>
      </trkpt>
      <trkpt lat="36.4581180" lon="-6.2276420">
        <ele>9.8</ele>
        <time>2023-01-28T11:02:05Z</time>
      </trkpt>
      <trkpt lat="36.4581240" lon="-6.2276910">
        <ele>9.4</ele>
        <time>2023-01-28T11:02:06Z</time>
      </trkpt>
      <trkpt lat="36.4581280" lon="-6.2277370">
        <ele>9.2</ele>
        <time>2023-01-28T11:02:07Z</time>
      </trkpt>
      <trkpt lat="36.4581280" lon="-6.2277860">
        <ele>9.2</ele>
        <time>2023-01-28T11:02:08Z</time>
      </trkpt>
      <trkpt lat="36.4581310" lon="-6.2278300">
        <ele>9.4</ele>
        <time>2023-01-28T11:02:09Z</time>
      </trkpt>
      <trkpt lat="36.4581410" lon="-6.2278800">
        <ele>9.6</ele>
        <time>2023-01-28T11:02:10Z</time>
      </trkpt>
      <trkpt lat="36.4581480" lon="-6.2279270">
        <ele>9.2</ele>
        <time>2023-01-28T11:02:11Z</time>
      </trkpt>
      <trkpt lat="36.4581440" lon="-6.2279730">
        <ele>10.0</ele>
        <time>2023-01-28T11:02:12Z</time>
      </trkpt>
      <trkpt lat="36.4581610" lon="-6.2280250">
        <ele>10.0</ele>
        <time>2023-01-28T11:02:13Z</time>
      </trkpt>
      <trkpt lat="36.4581700" lon="-6.2280710">
        <ele>10.2</ele>
        <time>2023-01-28T11:02:14Z</time>
      </trkpt>
      <trkpt lat="36.4581680" lon="-6.2281140">
        <ele>9.4</ele>
        <time>2023-01-28T11:02:15Z</time>
      </trkpt>
      <trkpt lat="36.4581720" lon="-6.2281650">
        <ele>10.4</ele>
        <time>2023-01-28T11:02:16Z</time>
      </trkpt>
      <trkpt lat="36.4581840" lon="-6.2282130">
        <ele>10.0</ele>
        <time>2023-01-28T11:02:17Z</time>
      </trkpt>
      <trkpt lat="36.4581840" lon="-6.2282610">
        <ele>9.6</ele>
        <time>2023-01-28T11:02:18Z</time>
      </trkpt>
      <trkpt lat="36.4581850" lon="-6.2283070">
        <ele>9.8</ele>
        <time>2023-01-28T11:02:19Z</time>
      </trkpt>
      <trkpt lat="36.4581880" lon="-6.2283510">
        <ele>10.0</ele>
        <time>2023-01-28T11:02:20Z</time>
      </trkpt>
      <trkpt lat="36.4581950" lon="-6.2283960">
        <ele>10.0</ele>
        <time>2023-01-28T11:02:21Z</time>
      </trkpt>
      <trkpt lat="36.4582030" lon="-6.2284430">
        <ele>10.0</ele>
        <time>2023-01-28T11:02:22Z</time>
      </trkpt>
      <trkpt lat="36.4582090" lon="-6.2284890">
        <ele>10.0</ele>
        <time>2023-01-28T11:02:23Z</time>
      </trkpt>
      <trkpt lat="36.4582100" lon="-6.2285370">
        <ele>10.0</ele>
        <time>2023-01-28T11:02:24Z</time>
      </trkpt>
      <trkpt lat="36.4582110" lon="-6.2285750">
        <ele>10.0</ele>
        <time>2023-01-28T11:02:25Z</time>
      </trkpt>
      <trkpt lat="36.4582110" lon="-6.2286180">
        <ele>9.8</ele>
        <time>2023-01-28T11:02:26Z</time>
      </trkpt>
      <trkpt lat="36.4582040" lon="-6.2286630">
        <ele>9.8</ele>
        <time>2023-01-28T11:02:27Z</time>
      </trkpt>
      <trkpt lat="36.4582170" lon="-6.2287100">
        <ele>9.8</ele>
        <time>2023-01-28T11:02:28Z</time>
      </trkpt>
      <trkpt lat="36.4582280" lon="-6.2287580">
        <ele>9.6</ele>
        <time>2023-01-28T11:02:29Z</time>
      </trkpt>
      <trkpt lat="36.4582400" lon="-6.2288060">
        <ele>10.2</ele>
        <time>2023-01-28T11:02:30Z</time>
      </trkpt>
      <trkpt lat="36.4582550" lon="-6.2288530">
        <ele>10.0</ele>
        <time>2023-01-28T11:02:31Z</time>
      </trkpt>
      <trkpt lat="36.4582620" lon="-6.2289150">
        <ele>9.8</ele>
        <time>2023-01-28T11:02:32Z</time>
      </trkpt>
      <trkpt lat="36.4582760" lon="-6.2289690">
        <ele>9.8</ele>
        <time>2023-01-28T11:02:33Z</time>
      </trkpt>
      <trkpt lat="36.4582910" lon="-6.2290180">
        <ele>10.0</ele>
        <time>2023-01-28T11:02:34Z</time>
      </trkpt>
      <trkpt lat="36.4583010" lon="-6.2290700">
        <ele>10.8</ele>
        <time>2023-01-28T11:02:35Z</time>
      </trkpt>
      <trkpt lat="36.4583120" lon="-6.2291200">
        <ele>11.0</ele>
        <time>2023-01-28T11:02:36Z</time>
      </trkpt>
      <trkpt lat="36.4583220" lon="-6.2291680">
        <ele>11.2</ele>
        <time>2023-01-28T11:02:37Z</time>
      </trkpt>
      <trkpt lat="36.4583330" lon="-6.2292130">
        <ele>11.0</ele>
        <time>2023-01-28T11:02:38Z</time>
      </trkpt>
      <trkpt lat="36.4583400" lon="-6.2292610">
        <ele>11.2</ele>
        <time>2023-01-28T11:02:39Z</time>
      </trkpt>
      <trkpt lat="36.4583450" lon="-6.2293030">
        <ele>11.8</ele>
        <time>2023-01-28T11:02:40Z</time>
      </trkpt>
      <trkpt lat="36.4583530" lon="-6.2293530">
        <ele>11.6</ele>
        <time>2023-01-28T11:02:41Z</time>
      </trkpt>
      <trkpt lat="36.4583700" lon="-6.2293970">
        <ele>11.4</ele>
        <time>2023-01-28T11:02:42Z</time>
      </trkpt>
      <trkpt lat="36.4583700" lon="-6.2294460">
        <ele>11.2</ele>
        <time>2023-01-28T11:02:43Z</time>
      </trkpt>
      <trkpt lat="36.4583690" lon="-6.2295020">
        <ele>11.2</ele>
        <time>2023-01-28T11:02:44Z</time>
      </trkpt>
      <trkpt lat="36.4583710" lon="-6.2295560">
        <ele>11.0</ele>
        <time>2023-01-28T11:02:45Z</time>
      </trkpt>
      <trkpt lat="36.4583650" lon="-6.2296040">
        <ele>11.0</ele>
        <time>2023-01-28T11:02:46Z</time>
      </trkpt>
      <trkpt lat="36.4583640" lon="-6.2296520">
        <ele>11.0</ele>
        <time>2023-01-28T11:02:47Z</time>
      </trkpt>
      <trkpt lat="36.4583620" lon="-6.2296960">
        <ele>11.2</ele>
        <time>2023-01-28T11:02:48Z</time>
      </trkpt>
      <trkpt lat="36.4583650" lon="-6.2297560">
        <ele>11.4</ele>
        <time>2023-01-28T11:02:49Z</time>
      </trkpt>
      <trkpt lat="36.4583680" lon="-6.2298060">
        <ele>11.4</ele>
        <time>2023-01-28T11:02:50Z</time>
      </trkpt>
      <trkpt lat="36.4583660" lon="-6.2298570">
        <ele>11.4</ele>
        <time>2023-01-28T11:02:51Z</time>
      </trkpt>
      <trkpt lat="36.4583750" lon="-6.2299030">
        <ele>11.0</ele>
        <time>2023-01-28T11:02:52Z</time>
      </trkpt>
      <trkpt lat="36.4583890" lon="-6.2299490">
        <ele>10.8</ele>
        <time>2023-01-28T11:02:53Z</time>
      </trkpt>
      <trkpt lat="36.4583930" lon="-6.2299970">
        <ele>10.6</ele>
        <time>2023-01-28T11:02:54Z</time>
      </trkpt>
      <trkpt lat="36.4584040" lon="-6.2300340">
        <ele>11.0</ele>
        <time>2023-01-28T11:02:55Z</time>
      </trkpt>
      <trkpt lat="36.4584190" lon="-6.2300850">
        <ele>11.0</ele>
        <time>2023-01-28T11:02:56Z</time>
      </trkpt>
      <trkpt lat="36.4584220" lon="-6.2301350">
        <ele>10.4</ele>
        <time>2023-01-28T11:02:57Z</time>
      </trkpt>
      <trkpt lat="36.4584270" lon="-6.2301950">
        <ele>10.6</ele>
        <time>2023-01-28T11:02:58Z</time>
      </trkpt>
      <trkpt lat="36.4584370" lon="-6.2302500">
        <ele>10.6</ele>
        <time>2023-01-28T11:02:59Z</time>
      </trkpt>
      <trkpt lat="36.4584530" lon="-6.2302980">
        <ele>10.4</ele>
        <time>2023-01-28T11:03:00Z</time>
      </trkpt>
      <trkpt lat="36.4584610" lon="-6.2303470">
        <ele>10.4</ele>
        <time>2023-01-28T11:03:01Z</time>
      </trkpt>
      <trkpt lat="36.4584680" lon="-6.2304030">
        <ele>10.4</ele>
        <time>2023-01-28T11:03:02Z</time>
      </trkpt>
      <trkpt lat="36.4584780" lon="-6.2304480">
        <ele>10.4</ele>
        <time>2023-01-28T11:03:03Z</time>
      </trkpt>
      <trkpt lat="36.4584820" lon="-6.2305050">
        <ele>10.4</ele>
        <time>2023-01-28T11:03:04Z</time>
      </trkpt>
      <trkpt lat="36.4584940" lon="-6.2305590">
        <ele>10.8</ele>
        <time>2023-01-28T11:03:05Z</time>
      </trkpt>
      <trkpt lat="36.4585030" lon="-6.2306120">
        <ele>11.8</ele>
        <time>2023-01-28T11:03:06Z</time>
      </trkpt>
      <trkpt lat="36.4585140" lon="-6.2306560">
        <ele>12.2</ele>
        <time>2023-01-28T11:03:07Z</time>
      </trkpt>
      <trkpt lat="36.4585200" lon="-6.2307070">
        <ele>12.0</ele>
        <time>2023-01-28T11:03:08Z</time>
      </trkpt>
      <trkpt lat="36.4585280" lon="-6.2307620">
        <ele>11.0</ele>
        <time>2023-01-28T11:03:09Z</time>
      </trkpt>
      <trkpt lat="36.4585210" lon="-6.2308050">
        <ele>10.4</ele>
        <time>2023-01-28T11:03:10Z</time>
      </trkpt>
      <trkpt lat="36.4585270" lon="-6.2308590">
        <ele>10.6</ele>
        <time>2023-01-28T11:03:11Z</time>
      </trkpt>
      <trkpt lat="36.4585230" lon="-6.2309110">
        <ele>10.6</ele>
        <time>2023-01-28T11:03:12Z</time>
      </trkpt>
      <trkpt lat="36.4585250" lon="-6.2309620">
        <ele>10.4</ele>
        <time>2023-01-28T11:03:13Z</time>
      </trkpt>
      <trkpt lat="36.4585380" lon="-6.2310150">
        <ele>10.2</ele>
        <time>2023-01-28T11:03:14Z</time>
      </trkpt>
      <trkpt lat="36.4585350" lon="-6.2310670">
        <ele>10.0</ele>
        <time>2023-01-28T11:03:15Z</time>
      </trkpt>
      <trkpt lat="36.4585390" lon="-6.2311290">
        <ele>9.8</ele>
        <time>2023-01-28T11:03:16Z</time>
      </trkpt>
      <trkpt lat="36.4585450" lon="-6.2311890">
        <ele>9.8</ele>
        <time>2023-01-28T11:03:17Z</time>
      </trkpt>
      <trkpt lat="36.4585500" lon="-6.2312440">
        <ele>9.8</ele>
        <time>2023-01-28T11:03:18Z</time>
      </trkpt>
      <trkpt lat="36.4585600" lon="-6.2313030">
        <ele>9.8</ele>
        <time>2023-01-28T11:03:19Z</time>
      </trkpt>
      <trkpt lat="36.4585660" lon="-6.2313580">
        <ele>10.0</ele>
        <time>2023-01-28T11:03:20Z</time>
      </trkpt>
      <trkpt lat="36.4585750" lon="-6.2314210">
        <ele>9.8</ele>
        <time>2023-01-28T11:03:21Z</time>
      </trkpt>
      <trkpt lat="36.4585810" lon="-6.2314720">
        <ele>9.6</ele>
        <time>2023-01-28T11:03:22Z</time>
      </trkpt>
      <trkpt lat="36.4585940" lon="-6.2315310">
        <ele>9.6</ele>
        <time>2023-01-28T11:03:23Z</time>
      </trkpt>
      <trkpt lat="36.4586010" lon="-6.2315850">
        <ele>10.0</ele>
        <time>2023-01-28T11:03:24Z</time>
      </trkpt>
      <trkpt lat="36.4586120" lon="-6.2316430">
        <ele>10.6</ele>
        <time>2023-01-28T11:03:25Z</time>
      </trkpt>
      <trkpt lat="36.4586300" lon="-6.2317070">
        <ele>9.8</ele>
        <time>2023-01-28T11:03:26Z</time>
      </trkpt>
      <trkpt lat="36.4586400" lon="-6.2317690">
        <ele>9.0</ele>
        <time>2023-01-28T11:03:27Z</time>
      </trkpt>
      <trkpt lat="36.4586470" lon="-6.2318250">
        <ele>9.0</ele>
        <time>2023-01-28T11:03:28Z</time>
      </trkpt>
      <trkpt lat="36.4586530" lon="-6.2318780">
        <ele>9.0</ele>
        <time>2023-01-28T11:03:29Z</time>
      </trkpt>
      <trkpt lat="36.4586590" lon="-6.2319300">
        <ele>9.6</ele>
        <time>2023-01-28T11:03:30Z</time>
      </trkpt>
      <trkpt lat="36.4586720" lon="-6.2319820">
        <ele>9.2</ele>
        <time>2023-01-28T11:03:31Z</time>
      </trkpt>
      <trkpt lat="36.4586680" lon="-6.2320300">
        <ele>9.0</ele>
        <time>2023-01-28T11:03:32Z</time>
      </trkpt>
      <trkpt lat="36.4586760" lon="-6.2320870">
        <ele>9.2</ele>
        <time>2023-01-28T11:03:33Z</time>
      </trkpt>
      <trkpt lat="36.4586840" lon="-6.2321370">
        <ele>9.0</ele>
        <time>2023-01-28T11:03:34Z</time>
      </trkpt>
      <trkpt lat="36.4586940" lon="-6.2321890">
        <ele>8.8</ele>
        <time>2023-01-28T11:03:35Z</time>
      </trkpt>
      <trkpt lat="36.4587070" lon="-6.2322470">
        <ele>8.8</ele>
        <time>2023-01-28T11:03:36Z</time>
      </trkpt>
      <trkpt lat="36.4587140" lon="-6.2323000">
        <ele>9.0</ele>
        <time>2023-01-28T11:03:37Z</time>
      </trkpt>
      <trkpt lat="36.4587260" lon="-6.2323570">
        <ele>9.0</ele>
        <time>2023-01-28T11:03:38Z</time>
      </trkpt>
      <trkpt lat="36.4587330" lon="-6.2324110">
        <ele>9.2</ele>
        <time>2023-01-28T11:03:39Z</time>
      </trkpt>
      <trkpt lat="36.4587430" lon="-6.2324630">
        <ele>9.2</ele>
        <time>2023-01-28T11:03:40Z</time>
      </trkpt>
      <trkpt lat="36.4587480" lon="-6.2325090">
        <ele>9.4</ele>
        <time>2023-01-28T11:03:41Z</time>
      </trkpt>
      <trkpt lat="36.4587600" lon="-6.2325570">
        <ele>9.2</ele>
        <time>2023-01-28T11:03:42Z</time>
      </trkpt>
      <trkpt lat="36.4587660" lon="-6.2326060">
        <ele>9.0</ele>
        <time>2023-01-28T11:03:43Z</time>
      </trkpt>
      <trkpt lat="36.4587660" lon="-6.2326600">
        <ele>9.0</ele>
        <time>2023-01-28T11:03:44Z</time>
      </trkpt>
      <trkpt lat="36.4587660" lon="-6.2327130">
        <ele>8.8</ele>
        <time>2023-01-28T11:03:45Z</time>
      </trkpt>
      <trkpt lat="36.4587730" lon="-6.2327680">
        <ele>8.8</ele>
        <time>2023-01-28T11:03:46Z</time>
      </trkpt>
      <trkpt lat="36.4587830" lon="-6.2328180">
        <ele>8.8</ele>
        <time>2023-01-28T11:03:47Z</time>
      </trkpt>
      <trkpt lat="36.4587850" lon="-6.2328700">
        <ele>8.6</ele>
        <time>2023-01-28T11:03:48Z</time>
      </trkpt>
      <trkpt lat="36.4587910" lon="-6.2329160">
        <ele>8.6</ele>
        <time>2023-01-28T11:03:49Z</time>
      </trkpt>
      <trkpt lat="36.4587970" lon="-6.2329650">
        <ele>8.6</ele>
        <time>2023-01-28T11:03:50Z</time>
      </trkpt>
      <trkpt lat="36.4588020" lon="-6.2330160">
        <ele>8.8</ele>
        <time>2023-01-28T11:03:51Z</time>
      </trkpt>
      <trkpt lat="36.4588080" lon="-6.2330630">
        <ele>8.8</ele>
        <time>2023-01-28T11:03:52Z</time>
      </trkpt>
      <trkpt lat="36.4588100" lon="-6.2331150">
        <ele>9.0</ele>
        <time>2023-01-28T11:03:53Z</time>
      </trkpt>
      <trkpt lat="36.4588170" lon="-6.2331680">
        <ele>8.8</ele>
        <time>2023-01-28T11:03:54Z</time>
      </trkpt>
      <trkpt lat="36.4588280" lon="-6.2332200">
        <ele>8.6</ele>
        <time>2023-01-28T11:03:55Z</time>
      </trkpt>
      <trkpt lat="36.4588380" lon="-6.2332790">
        <ele>8.8</ele>
        <time>2023-01-28T11:03:56Z</time>
      </trkpt>
      <trkpt lat="36.4588430" lon="-6.2333360">
        <ele>8.6</ele>
        <time>2023-01-28T11:03:57Z</time>
      </trkpt>
      <trkpt lat="36.4588390" lon="-6.2333790">
        <ele>8.6</ele>
        <time>2023-01-28T11:03:58Z</time>
      </trkpt>
      <trkpt lat="36.4588450" lon="-6.2334390">
        <ele>8.4</ele>
        <time>2023-01-28T11:03:59Z</time>
      </trkpt>
      <trkpt lat="36.4588540" lon="-6.2334870">
        <ele>8.8</ele>
        <time>2023-01-28T11:04:00Z</time>
      </trkpt>
      <trkpt lat="36.4588610" lon="-6.2335310">
        <ele>9.0</ele>
        <time>2023-01-28T11:04:01Z</time>
      </trkpt>
      <trkpt lat="36.4588670" lon="-6.2335840">
        <ele>9.4</ele>
        <time>2023-01-28T11:04:02Z</time>
      </trkpt>
      <trkpt lat="36.4588700" lon="-6.2336410">
        <ele>9.4</ele>
        <time>2023-01-28T11:04:03Z</time>
      </trkpt>
      <trkpt lat="36.4588800" lon="-6.2336940">
        <ele>9.0</ele>
        <time>2023-01-28T11:04:04Z</time>
      </trkpt>
      <trkpt lat="36.4588980" lon="-6.2337450">
        <ele>9.2</ele>
        <time>2023-01-28T11:04:05Z</time>
      </trkpt>
      <trkpt lat="36.4589060" lon="-6.2337860">
        <ele>9.0</ele>
        <time>2023-01-28T11:04:06Z</time>
      </trkpt>
      <trkpt lat="36.4589120" lon="-6.2338380">
        <ele>9.0</ele>
        <time>2023-01-28T11:04:07Z</time>
      </trkpt>
      <trkpt lat="36.4589200" lon="-6.2338890">
        <ele>8.8</ele>
        <time>2023-01-28T11:04:08Z</time>
      </trkpt>
      <trkpt lat="36.4589290" lon="-6.2339400">
        <ele>8.8</ele>
        <time>2023-01-28T11:04:09Z</time>
      </trkpt>
      <trkpt lat="36.4589300" lon="-6.2339880">
        <ele>9.4</ele>
        <time>2023-01-28T11:04:10Z</time>
      </trkpt>
      <trkpt lat="36.4589320" lon="-6.2340430">
        <ele>9.2</ele>
        <time>2023-01-28T11:04:11Z</time>
      </trkpt>
      <trkpt lat="36.4589420" lon="-6.2340930">
        <ele>9.0</ele>
        <time>2023-01-28T11:04:12Z</time>
      </trkpt>
      <trkpt lat="36.4589470" lon="-6.2341480">
        <ele>8.8</ele>
        <time>2023-01-28T11:04:13Z</time>
      </trkpt>
      <trkpt lat="36.4589550" lon="-6.2341990">
        <ele>8.4</ele>
        <time>2023-01-28T11:04:14Z</time>
      </trkpt>
      <trkpt lat="36.4589680" lon="-6.2342580">
        <ele>8.6</ele>
        <time>2023-01-28T11:04:15Z</time>
      </trkpt>
      <trkpt lat="36.4589720" lon="-6.2343100">
        <ele>9.2</ele>
        <time>2023-01-28T11:04:16Z</time>
      </trkpt>
      <trkpt lat="36.4589820" lon="-6.2343590">
        <ele>9.0</ele>
        <time>2023-01-28T11:04:17Z</time>
      </trkpt>
      <trkpt lat="36.4589860" lon="-6.2344080">
        <ele>9.2</ele>
        <time>2023-01-28T11:04:18Z</time>
      </trkpt>
      <trkpt lat="36.4589940" lon="-6.2344620">
        <ele>9.0</ele>
        <time>2023-01-28T11:04:19Z</time>
      </trkpt>
      <trkpt lat="36.4589980" lon="-6.2345030">
        <ele>8.6</ele>
        <time>2023-01-28T11:04:20Z</time>
      </trkpt>
      <trkpt lat="36.4590020" lon="-6.2345550">
        <ele>8.6</ele>
        <time>2023-01-28T11:04:21Z</time>
      </trkpt>
      <trkpt lat="36.4590050" lon="-6.2346130">
        <ele>8.6</ele>
        <time>2023-01-28T11:04:22Z</time>
      </trkpt>
      <trkpt lat="36.4590100" lon="-6.2346670">
        <ele>8.6</ele>
        <time>2023-01-28T11:04:23Z</time>
      </trkpt>
      <trkpt lat="36.4590170" lon="-6.2347170">
        <ele>8.8</ele>
        <time>2023-01-28T11:04:24Z</time>
      </trkpt>
      <trkpt lat="36.4590300" lon="-6.2347640">
        <ele>9.4</ele>
        <time>2023-01-28T11:04:25Z</time>
      </trkpt>
      <trkpt lat="36.4590370" lon="-6.2348160">
        <ele>9.2</ele>
        <time>2023-01-28T11:04:26Z</time>
      </trkpt>
      <trkpt lat="36.4590400" lon="-6.2348690">
        <ele>9.6</ele>
        <time>2023-01-28T11:04:27Z</time>
      </trkpt>
      <trkpt lat="36.4590480" lon="-6.2349170">
        <ele>9.2</ele>
        <time>2023-01-28T11:04:28Z</time>
      </trkpt>
      <trkpt lat="36.4590590" lon="-6.2349680">
        <ele>8.8</ele>
        <time>2023-01-28T11:04:29Z</time>
      </trkpt>
      <trkpt lat="36.4590620" lon="-6.2350210">
        <ele>8.6</ele>
        <time>2023-01-28T11:04:30Z</time>
      </trkpt>
      <trkpt lat="36.4590630" lon="-6.2350800">
        <ele>8.6</ele>
        <time>2023-01-28T11:04:31Z</time>
      </trkpt>
      <trkpt lat="36.4590700" lon="-6.2351290">
        <ele>9.0</ele>
        <time>2023-01-28T11:04:32Z</time>
      </trkpt>
      <trkpt lat="36.4590730" lon="-6.2351760">
        <ele>8.6</ele>
        <time>2023-01-28T11:04:33Z</time>
      </trkpt>
      <trkpt lat="36.4590770" lon="-6.2352250">
        <ele>8.6</ele>
        <time>2023-01-28T11:04:34Z</time>
      </trkpt>
      <trkpt lat="36.4590830" lon="-6.2352740">
        <ele>8.8</ele>
        <time>2023-01-28T11:04:35Z</time>
      </trkpt>
      <trkpt lat="36.4590890" lon="-6.2353290">
        <ele>8.8</ele>
        <time>2023-01-28T11:04:36Z</time>
      </trkpt>
      <trkpt lat="36.4591070" lon="-6.2353950">
        <ele>8.8</ele>
        <time>2023-01-28T11:04:37Z</time>
      </trkpt>
      <trkpt lat="36.4591140" lon="-6.2354480">
        <ele>9.2</ele>
        <time>2023-01-28T11:04:38Z</time>
      </trkpt>
      <trkpt lat="36.4591130" lon="-6.2354950">
        <ele>9.0</ele>
        <time>2023-01-28T11:04:39Z</time>
      </trkpt>
      <trkpt lat="36.4591280" lon="-6.2355390">
        <ele>9.0</ele>
        <time>2023-01-28T11:04:40Z</time>
      </trkpt>
      <trkpt lat="36.4591390" lon="-6.2355840">
        <ele>9.2</ele>
        <time>2023-01-28T11:04:41Z</time>
      </trkpt>
      <trkpt lat="36.4591440" lon="-6.2356580">
        <ele>9.4</ele>
        <time>2023-01-28T11:04:42Z</time>
      </trkpt>
      <trkpt lat="36.4591520" lon="-6.2357170">
        <ele>9.4</ele>
        <time>2023-01-28T11:04:43Z</time>
      </trkpt>
      <trkpt lat="36.4591640" lon="-6.2357830">
        <ele>9.0</ele>
        <time>2023-01-28T11:04:44Z</time>
      </trkpt>
      <trkpt lat="36.4591750" lon="-6.2358330">
        <ele>9.4</ele>
        <time>2023-01-28T11:04:45Z</time>
      </trkpt>
      <trkpt lat="36.4591870" lon="-6.2358800">
        <ele>9.2</ele>
        <time>2023-01-28T11:04:46Z</time>
      </trkpt>
      <trkpt lat="36.4591880" lon="-6.2359370">
        <ele>9.0</ele>
        <time>2023-01-28T11:04:47Z</time>
      </trkpt>
      <trkpt lat="36.4591880" lon="-6.2359820">
        <ele>9.2</ele>
        <time>2023-01-28T11:04:48Z</time>
      </trkpt>
      <trkpt lat="36.4591840" lon="-6.2360340">
        <ele>9.4</ele>
        <time>2023-01-28T11:04:49Z</time>
      </trkpt>
      <trkpt lat="36.4591880" lon="-6.2360820">
        <ele>9.2</ele>
        <time>2023-01-28T11:04:50Z</time>
      </trkpt>
      <trkpt lat="36.4591970" lon="-6.2361290">
        <ele>9.2</ele>
        <time>2023-01-28T11:04:51Z</time>
      </trkpt>
      <trkpt lat="36.4592030" lon="-6.2362160">
        <ele>9.6</ele>
        <time>2023-01-28T11:04:52Z</time>
      </trkpt>
      <trkpt lat="36.4592070" lon="-6.2362560">
        <ele>9.6</ele>
        <time>2023-01-28T11:04:53Z</time>
      </trkpt>
      <trkpt lat="36.4592120" lon="-6.2362950">
        <ele>9.2</ele>
        <time>2023-01-28T11:04:54Z</time>
      </trkpt>
      <trkpt lat="36.4592160" lon="-6.2363350">
        <ele>9.2</ele>
        <time>2023-01-28T11:04:55Z</time>
      </trkpt>
      <trkpt lat="36.4592210" lon="-6.2363740">
        <ele>9.2</ele>
        <time>2023-01-28T11:04:56Z</time>
      </trkpt>
      <trkpt lat="36.4592290" lon="-6.2364240">
        <ele>9.2</ele>
        <time>2023-01-28T11:04:57Z</time>
      </trkpt>
      <trkpt lat="36.4592370" lon="-6.2364700">
        <ele>9.0</ele>
        <time>2023-01-28T11:04:58Z</time>
      </trkpt>
      <trkpt lat="36.4592400" lon="-6.2365100">
        <ele>9.4</ele>
        <time>2023-01-28T11:04:59Z</time>
      </trkpt>
      <trkpt lat="36.4592450" lon="-6.2365550">
        <ele>9.4</ele>
        <time>2023-01-28T11:05:00Z</time>
      </trkpt>
      <trkpt lat="36.4592500" lon="-6.2366030">
        <ele>9.2</ele>
        <time>2023-01-28T11:05:01Z</time>
      </trkpt>
      <trkpt lat="36.4592590" lon="-6.2366430">
        <ele>9.2</ele>
        <time>2023-01-28T11:05:02Z</time>
      </trkpt>
      <trkpt lat="36.4592660" lon="-6.2366880">
        <ele>9.0</ele>
        <time>2023-01-28T11:05:03Z</time>
      </trkpt>
      <trkpt lat="36.4592750" lon="-6.2367290">
        <ele>9.0</ele>
        <time>2023-01-28T11:05:04Z</time>
      </trkpt>
      <trkpt lat="36.4592830" lon="-6.2367770">
        <ele>9.4</ele>
        <time>2023-01-28T11:05:05Z</time>
      </trkpt>
      <trkpt lat="36.4592870" lon="-6.2368310">
        <ele>9.4</ele>
        <time>2023-01-28T11:05:06Z</time>
      </trkpt>
      <trkpt lat="36.4592960" lon="-6.2368870">
        <ele>9.4</ele>
        <time>2023-01-28T11:05:07Z</time>
      </trkpt>
      <trkpt lat="36.4593020" lon="-6.2369330">
        <ele>9.4</ele>
        <time>2023-01-28T11:05:08Z</time>
      </trkpt>
      <trkpt lat="36.4593190" lon="-6.2369900">
        <ele>10.2</ele>
        <time>2023-01-28T11:05:09Z</time>
      </trkpt>
      <trkpt lat="36.4593270" lon="-6.2370430">
        <ele>9.6</ele>
        <time>2023-01-28T11:05:10Z</time>
      </trkpt>
      <trkpt lat="36.4593340" lon="-6.2370930">
        <ele>8.8</ele>
        <time>2023-01-28T11:05:11Z</time>
      </trkpt>
      <trkpt lat="36.4593370" lon="-6.2371420">
        <ele>9.2</ele>
        <time>2023-01-28T11:05:12Z</time>
      </trkpt>
      <trkpt lat="36.4593460" lon="-6.2371880">
        <ele>9.0</ele>
        <time>2023-01-28T11:05:13Z</time>
      </trkpt>
      <trkpt lat="36.4593560" lon="-6.2372300">
        <ele>9.4</ele>
        <time>2023-01-28T11:05:14Z</time>
      </trkpt>
      <trkpt lat="36.4593630" lon="-6.2372720">
        <ele>9.6</ele>
        <time>2023-01-28T11:05:15Z</time>
      </trkpt>
      <trkpt lat="36.4593730" lon="-6.2373200">
        <ele>9.2</ele>
        <time>2023-01-28T11:05:16Z</time>
      </trkpt>
      <trkpt lat="36.4593730" lon="-6.2373640">
        <ele>9.0</ele>
        <time>2023-01-28T11:05:17Z</time>
      </trkpt>
      <trkpt lat="36.4593800" lon="-6.2374050">
        <ele>8.6</ele>
        <time>2023-01-28T11:05:18Z</time>
      </trkpt>
      <trkpt lat="36.4593880" lon="-6.2374440">
        <ele>9.4</ele>
        <time>2023-01-28T11:05:19Z</time>
      </trkpt>
      <trkpt lat="36.4593920" lon="-6.2374910">
        <ele>10.0</ele>
        <time>2023-01-28T11:05:20Z</time>
      </trkpt>
      <trkpt lat="36.4594010" lon="-6.2375370">
        <ele>9.6</ele>
        <time>2023-01-28T11:05:21Z</time>
      </trkpt>
      <trkpt lat="36.4594040" lon="-6.2375840">
        <ele>9.2</ele>
        <time>2023-01-28T11:05:22Z</time>
      </trkpt>
      <trkpt lat="36.4594050" lon="-6.2376360">
        <ele>9.2</ele>
        <time>2023-01-28T11:05:23Z</time>
      </trkpt>
      <trkpt lat="36.4594200" lon="-6.2376820">
        <ele>9.0</ele>
        <time>2023-01-28T11:05:24Z</time>
      </trkpt>
      <trkpt lat="36.4594240" lon="-6.2377290">
        <ele>9.0</ele>
        <time>2023-01-28T11:05:25Z</time>
      </trkpt>
      <trkpt lat="36.4594270" lon="-6.2377810">
        <ele>9.4</ele>
        <time>2023-01-28T11:05:26Z</time>
      </trkpt>
      <trkpt lat="36.4594450" lon="-6.2378320">
        <ele>9.2</ele>
        <time>2023-01-28T11:05:27Z</time>
      </trkpt>
      <trkpt lat="36.4594510" lon="-6.2378830">
        <ele>8.8</ele>
        <time>2023-01-28T11:05:28Z</time>
      </trkpt>
      <trkpt lat="36.4594550" lon="-6.2379250">
        <ele>8.8</ele>
        <time>2023-01-28T11:05:29Z</time>
      </trkpt>
      <trkpt lat="36.4594590" lon="-6.2379710">
        <ele>8.8</ele>
        <time>2023-01-28T11:05:30Z</time>
      </trkpt>
      <trkpt lat="36.4594660" lon="-6.2380220">
        <ele>9.2</ele>
        <time>2023-01-28T11:05:31Z</time>
      </trkpt>
      <trkpt lat="36.4594780" lon="-6.2380810">
        <ele>9.6</ele>
        <time>2023-01-28T11:05:32Z</time>
      </trkpt>
      <trkpt lat="36.4594820" lon="-6.2381260">
        <ele>10.0</ele>
        <time>2023-01-28T11:05:33Z</time>
      </trkpt>
      <trkpt lat="36.4594880" lon="-6.2381730">
        <ele>10.4</ele>
        <time>2023-01-28T11:05:34Z</time>
      </trkpt>
      <trkpt lat="36.4594910" lon="-6.2382290">
        <ele>10.0</ele>
        <time>2023-01-28T11:05:35Z</time>
      </trkpt>
      <trkpt lat="36.4595020" lon="-6.2382770">
        <ele>9.6</ele>
        <time>2023-01-28T11:05:36Z</time>
      </trkpt>
      <trkpt lat="36.4595030" lon="-6.2383240">
        <ele>9.6</ele>
        <time>2023-01-28T11:05:37Z</time>
      </trkpt>
      <trkpt lat="36.4595130" lon="-6.2383750">
        <ele>9.8</ele>
        <time>2023-01-28T11:05:38Z</time>
      </trkpt>
      <trkpt lat="36.4595230" lon="-6.2384240">
        <ele>9.2</ele>
        <time>2023-01-28T11:05:39Z</time>
      </trkpt>
      <trkpt lat="36.4595210" lon="-6.2384740">
        <ele>9.2</ele>
        <time>2023-01-28T11:05:40Z</time>
      </trkpt>
      <trkpt lat="36.4595400" lon="-6.2385190">
        <ele>9.2</ele>
        <time>2023-01-28T11:05:41Z</time>
      </trkpt>
      <trkpt lat="36.4595490" lon="-6.2385620">
        <ele>9.2</ele>
        <time>2023-01-28T11:05:42Z</time>
      </trkpt>
      <trkpt lat="36.4595510" lon="-6.2386040">
        <ele>9.2</ele>
        <time>2023-01-28T11:05:43Z</time>
      </trkpt>
      <trkpt lat="36.4595590" lon="-6.2386500">
        <ele>9.4</ele>
        <time>2023-01-28T11:05:44Z</time>
      </trkpt>
      <trkpt lat="36.4595540" lon="-6.2387050">
        <ele>9.4</ele>
        <time>2023-01-28T11:05:45Z</time>
      </trkpt>
      <trkpt lat="36.4595680" lon="-6.2387550">
        <ele>9.4</ele>
        <time>2023-01-28T11:05:46Z</time>
      </trkpt>
      <trkpt lat="36.4595730" lon="-6.2388050">
        <ele>9.2</ele>
        <time>2023-01-28T11:05:47Z</time>
      </trkpt>
      <trkpt lat="36.4595790" lon="-6.2388560">
        <ele>9.0</ele>
        <time>2023-01-28T11:05:48Z</time>
      </trkpt>
      <trkpt lat="36.4595800" lon="-6.2389080">
        <ele>9.2</ele>
        <time>2023-01-28T11:05:49Z</time>
      </trkpt>
      <trkpt lat="36.4595870" lon="-6.2389580">
        <ele>9.2</ele>
        <time>2023-01-28T11:05:50Z</time>
      </trkpt>
      <trkpt lat="36.4595920" lon="-6.2390050">
        <ele>9.4</ele>
        <time>2023-01-28T11:05:51Z</time>
      </trkpt>
      <trkpt lat="36.4596000" lon="-6.2390580">
        <ele>9.4</ele>
        <time>2023-01-28T11:05:52Z</time>
      </trkpt>
      <trkpt lat="36.4596030" lon="-6.2391060">
        <ele>9.4</ele>
        <time>2023-01-28T11:05:53Z</time>
      </trkpt>
      <trkpt lat="36.4596050" lon="-6.2391610">
        <ele>9.4</ele>
        <time>2023-01-28T11:05:54Z</time>
      </trkpt>
      <trkpt lat="36.4596120" lon="-6.2392120">
        <ele>9.2</ele>
        <time>2023-01-28T11:05:55Z</time>
      </trkpt>
      <trkpt lat="36.4596260" lon="-6.2392630">
        <ele>9.4</ele>
        <time>2023-01-28T11:05:56Z</time>
      </trkpt>
      <trkpt lat="36.4596270" lon="-6.2393090">
        <ele>9.4</ele>
        <time>2023-01-28T11:05:57Z</time>
      </trkpt>
      <trkpt lat="36.4596360" lon="-6.2393560">
        <ele>9.4</ele>
        <time>2023-01-28T11:05:58Z</time>
      </trkpt>
      <trkpt lat="36.4596410" lon="-6.2394000">
        <ele>9.4</ele>
        <time>2023-01-28T11:05:59Z</time>
      </trkpt>
      <trkpt lat="36.4596450" lon="-6.2394550">
        <ele>9.2</ele>
        <time>2023-01-28T11:06:00Z</time>
      </trkpt>
      <trkpt lat="36.4596480" lon="-6.2395080">
        <ele>9.0</ele>
        <time>2023-01-28T11:06:01Z</time>
      </trkpt>
      <trkpt lat="36.4596630" lon="-6.2395570">
        <ele>8.8</ele>
        <time>2023-01-28T11:06:02Z</time>
      </trkpt>
      <trkpt lat="36.4596680" lon="-6.2396170">
        <ele>8.8</ele>
        <time>2023-01-28T11:06:03Z</time>
      </trkpt>
      <trkpt lat="36.4596790" lon="-6.2396680">
        <ele>8.8</ele>
        <time>2023-01-28T11:06:04Z</time>
      </trkpt>
      <trkpt lat="36.4596860" lon="-6.2397230">
        <ele>8.8</ele>
        <time>2023-01-28T11:06:05Z</time>
      </trkpt>
      <trkpt lat="36.4596970" lon="-6.2397780">
        <ele>9.2</ele>
        <time>2023-01-28T11:06:06Z</time>
      </trkpt>
      <trkpt lat="36.4597170" lon="-6.2398310">
        <ele>9.0</ele>
        <time>2023-01-28T11:06:07Z</time>
      </trkpt>
      <trkpt lat="36.4597380" lon="-6.2398810">
        <ele>9.0</ele>
        <time>2023-01-28T11:06:08Z</time>
      </trkpt>
      <trkpt lat="36.4597480" lon="-6.2399310">
        <ele>9.2</ele>
        <time>2023-01-28T11:06:09Z</time>
      </trkpt>
      <trkpt lat="36.4597490" lon="-6.2399760">
        <ele>9.2</ele>
        <time>2023-01-28T11:06:10Z</time>
      </trkpt>
      <trkpt lat="36.4597530" lon="-6.2400290">
        <ele>9.2</ele>
        <time>2023-01-28T11:06:11Z</time>
      </trkpt>
      <trkpt lat="36.4597550" lon="-6.2400800">
        <ele>8.8</ele>
        <time>2023-01-28T11:06:12Z</time>
      </trkpt>
      <trkpt lat="36.4597500" lon="-6.2401330">
        <ele>8.8</ele>
        <time>2023-01-28T11:06:13Z</time>
      </trkpt>
      <trkpt lat="36.4597430" lon="-6.2401870">
        <ele>8.8</ele>
        <time>2023-01-28T11:06:14Z</time>
      </trkpt>
      <trkpt lat="36.4597510" lon="-6.2402420">
        <ele>8.8</ele>
        <time>2023-01-28T11:06:15Z</time>
      </trkpt>
      <trkpt lat="36.4597520" lon="-6.2402820">
        <ele>8.8</ele>
        <time>2023-01-28T11:06:16Z</time>
      </trkpt>
      <trkpt lat="36.4597630" lon="-6.2403320">
        <ele>8.8</ele>
        <time>2023-01-28T11:06:17Z</time>
      </trkpt>
      <trkpt lat="36.4597690" lon="-6.2403800">
        <ele>8.8</ele>
        <time>2023-01-28T11:06:18Z</time>
      </trkpt>
      <trkpt lat="36.4597740" lon="-6.2404350">
        <ele>8.8</ele>
        <time>2023-01-28T11:06:19Z</time>
      </trkpt>
      <trkpt lat="36.4597870" lon="-6.2404820">
        <ele>8.8</ele>
        <time>2023-01-28T11:06:20Z</time>
      </trkpt>
      <trkpt lat="36.4597910" lon="-6.2405330">
        <ele>9.0</ele>
        <time>2023-01-28T11:06:21Z</time>
      </trkpt>
      <trkpt lat="36.4597950" lon="-6.2405820">
        <ele>9.0</ele>
        <time>2023-01-28T11:06:22Z</time>
      </trkpt>
      <trkpt lat="36.4598010" lon="-6.2406320">
        <ele>9.0</ele>
        <time>2023-01-28T11:06:23Z</time>
      </trkpt>
      <trkpt lat="36.4598110" lon="-6.2406830">
        <ele>9.0</ele>
        <time>2023-01-28T11:06:24Z</time>
      </trkpt>
      <trkpt lat="36.4598150" lon="-6.2407380">
        <ele>8.8</ele>
        <time>2023-01-28T11:06:25Z</time>
      </trkpt>
      <trkpt lat="36.4598180" lon="-6.2407870">
        <ele>8.8</ele>
        <time>2023-01-28T11:06:26Z</time>
      </trkpt>
      <trkpt lat="36.4598250" lon="-6.2408410">
        <ele>8.8</ele>
        <time>2023-01-28T11:06:27Z</time>
      </trkpt>
      <trkpt lat="36.4598350" lon="-6.2408840">
        <ele>8.8</ele>
        <time>2023-01-28T11:06:28Z</time>
      </trkpt>
      <trkpt lat="36.4598380" lon="-6.2409320">
        <ele>8.6</ele>
        <time>2023-01-28T11:06:29Z</time>
      </trkpt>
      <trkpt lat="36.4598410" lon="-6.2409800">
        <ele>9.0</ele>
        <time>2023-01-28T11:06:30Z</time>
      </trkpt>
      <trkpt lat="36.4598570" lon="-6.2410270">
        <ele>9.0</ele>
        <time>2023-01-28T11:06:31Z</time>
      </trkpt>
      <trkpt lat="36.4598650" lon="-6.2410790">
        <ele>9.0</ele>
        <time>2023-01-28T11:06:32Z</time>
      </trkpt>
      <trkpt lat="36.4598810" lon="-6.2411310">
        <ele>9.0</ele>
        <time>2023-01-28T11:06:33Z</time>
      </trkpt>
      <trkpt lat="36.4598860" lon="-6.2411790">
        <ele>9.0</ele>
        <time>2023-01-28T11:06:34Z</time>
      </trkpt>
      <trkpt lat="36.4598970" lon="-6.2412290">
        <ele>8.8</ele>
        <time>2023-01-28T11:06:35Z</time>
      </trkpt>
      <trkpt lat="36.4599070" lon="-6.2412840">
        <ele>8.8</ele>
        <time>2023-01-28T11:06:36Z</time>
      </trkpt>
      <trkpt lat="36.4599160" lon="-6.2413320">
        <ele>8.8</ele>
        <time>2023-01-28T11:06:37Z</time>
      </trkpt>
      <trkpt lat="36.4599240" lon="-6.2413870">
        <ele>8.6</ele>
        <time>2023-01-28T11:06:38Z</time>
      </trkpt>
      <trkpt lat="36.4599270" lon="-6.2414510">
        <ele>8.4</ele>
        <time>2023-01-28T11:06:39Z</time>
      </trkpt>
      <trkpt lat="36.4599230" lon="-6.2415080">
        <ele>8.4</ele>
        <time>2023-01-28T11:06:40Z</time>
      </trkpt>
      <trkpt lat="36.4599250" lon="-6.2415570">
        <ele>8.4</ele>
        <time>2023-01-28T11:06:41Z</time>
      </trkpt>
      <trkpt lat="36.4599350" lon="-6.2416130">
        <ele>8.4</ele>
        <time>2023-01-28T11:06:42Z</time>
      </trkpt>
      <trkpt lat="36.4599450" lon="-6.2416700">
        <ele>8.4</ele>
        <time>2023-01-28T11:06:43Z</time>
      </trkpt>
      <trkpt lat="36.4599550" lon="-6.2417310">
        <ele>8.4</ele>
        <time>2023-01-28T11:06:44Z</time>
      </trkpt>
      <trkpt lat="36.4599580" lon="-6.2417850">
        <ele>8.4</ele>
        <time>2023-01-28T11:06:45Z</time>
      </trkpt>
      <trkpt lat="36.4599610" lon="-6.2418330">
        <ele>8.6</ele>
        <time>2023-01-28T11:06:46Z</time>
      </trkpt>
      <trkpt lat="36.4599650" lon="-6.2418890">
        <ele>8.4</ele>
        <time>2023-01-28T11:06:47Z</time>
      </trkpt>
      <trkpt lat="36.4599770" lon="-6.2419420">
        <ele>8.4</ele>
        <time>2023-01-28T11:06:48Z</time>
      </trkpt>
      <trkpt lat="36.4599790" lon="-6.2419870">
        <ele>8.4</ele>
        <time>2023-01-28T11:06:49Z</time>
      </trkpt>
      <trkpt lat="36.4599860" lon="-6.2420420">
        <ele>8.6</ele>
        <time>2023-01-28T11:06:50Z</time>
      </trkpt>
      <trkpt lat="36.4599920" lon="-6.2420960">
        <ele>8.6</ele>
        <time>2023-01-28T11:06:51Z</time>
      </trkpt>
      <trkpt lat="36.4599920" lon="-6.2421530">
        <ele>9.0</ele>
        <time>2023-01-28T11:06:52Z</time>
      </trkpt>
      <trkpt lat="36.4600020" lon="-6.2422050">
        <ele>8.4</ele>
        <time>2023-01-28T11:06:53Z</time>
      </trkpt>
      <trkpt lat="36.4600000" lon="-6.2422660">
        <ele>8.6</ele>
        <time>2023-01-28T11:06:54Z</time>
      </trkpt>
      <trkpt lat="36.4600010" lon="-6.2423140">
        <ele>9.0</ele>
        <time>2023-01-28T11:06:55Z</time>
      </trkpt>
      <trkpt lat="36.4600110" lon="-6.2423630">
        <ele>8.6</ele>
        <time>2023-01-28T11:06:56Z</time>
      </trkpt>
      <trkpt lat="36.4600210" lon="-6.2424230">
        <ele>8.6</ele>
        <time>2023-01-28T11:06:57Z</time>
      </trkpt>
      <trkpt lat="36.4600290" lon="-6.2424770">
        <ele>8.8</ele>
        <time>2023-01-28T11:06:58Z</time>
      </trkpt>
      <trkpt lat="36.4600370" lon="-6.2425250">
        <ele>9.4</ele>
        <time>2023-01-28T11:06:59Z</time>
      </trkpt>
      <trkpt lat="36.4600490" lon="-6.2425790">
        <ele>9.6</ele>
        <time>2023-01-28T11:07:00Z</time>
      </trkpt>
      <trkpt lat="36.4600640" lon="-6.2426360">
        <ele>9.6</ele>
        <time>2023-01-28T11:07:01Z</time>
      </trkpt>
      <trkpt lat="36.4600660" lon="-6.2426840">
        <ele>9.4</ele>
        <time>2023-01-28T11:07:02Z</time>
      </trkpt>
      <trkpt lat="36.4600760" lon="-6.2427330">
        <ele>9.8</ele>
        <time>2023-01-28T11:07:03Z</time>
      </trkpt>
      <trkpt lat="36.4600840" lon="-6.2427860">
        <ele>9.4</ele>
        <time>2023-01-28T11:07:04Z</time>
      </trkpt>
      <trkpt lat="36.4600830" lon="-6.2428370">
        <ele>9.2</ele>
        <time>2023-01-28T11:07:05Z</time>
      </trkpt>
      <trkpt lat="36.4600850" lon="-6.2428840">
        <ele>9.0</ele>
        <time>2023-01-28T11:07:06Z</time>
      </trkpt>
      <trkpt lat="36.4600880" lon="-6.2429410">
        <ele>9.4</ele>
        <time>2023-01-28T11:07:07Z</time>
      </trkpt>
      <trkpt lat="36.4601000" lon="-6.2430000">
        <ele>9.2</ele>
        <time>2023-01-28T11:07:08Z</time>
      </trkpt>
      <trkpt lat="36.4601050" lon="-6.2430460">
        <ele>9.4</ele>
        <time>2023-01-28T11:07:09Z</time>
      </trkpt>
      <trkpt lat="36.4601060" lon="-6.2431000">
        <ele>9.4</ele>
        <time>2023-01-28T11:07:10Z</time>
      </trkpt>
      <trkpt lat="36.4601180" lon="-6.2431430">
        <ele>9.4</ele>
        <time>2023-01-28T11:07:11Z</time>
      </trkpt>
      <trkpt lat="36.4601210" lon="-6.2431900">
        <ele>9.0</ele>
        <time>2023-01-28T11:07:12Z</time>
      </trkpt>
      <trkpt lat="36.4601200" lon="-6.2432420">
        <ele>9.0</ele>
        <time>2023-01-28T11:07:13Z</time>
      </trkpt>
      <trkpt lat="36.4601330" lon="-6.2432950">
        <ele>9.0</ele>
        <time>2023-01-28T11:07:14Z</time>
      </trkpt>
      <trkpt lat="36.4601420" lon="-6.2433580">
        <ele>9.2</ele>
        <time>2023-01-28T11:07:15Z</time>
      </trkpt>
      <trkpt lat="36.4601550" lon="-6.2434120">
        <ele>9.0</ele>
        <time>2023-01-28T11:07:16Z</time>
      </trkpt>
      <trkpt lat="36.4601600" lon="-6.2434630">
        <ele>9.0</ele>
        <time>2023-01-28T11:07:17Z</time>
      </trkpt>
      <trkpt lat="36.4601760" lon="-6.2435110">
        <ele>9.2</ele>
        <time>2023-01-28T11:07:18Z</time>
      </trkpt>
      <trkpt lat="36.4601810" lon="-6.2435570">
        <ele>9.0</ele>
        <time>2023-01-28T11:07:19Z</time>
      </trkpt>
      <trkpt lat="36.4601850" lon="-6.2436100">
        <ele>9.2</ele>
        <time>2023-01-28T11:07:20Z</time>
      </trkpt>
      <trkpt lat="36.4601890" lon="-6.2436650">
        <ele>9.2</ele>
        <time>2023-01-28T11:07:21Z</time>
      </trkpt>
      <trkpt lat="36.4602000" lon="-6.2437160">
        <ele>9.0</ele>
        <time>2023-01-28T11:07:22Z</time>
      </trkpt>
      <trkpt lat="36.4602080" lon="-6.2437580">
        <ele>9.2</ele>
        <time>2023-01-28T11:07:23Z</time>
      </trkpt>
      <trkpt lat="36.4602190" lon="-6.2438060">
        <ele>8.8</ele>
        <time>2023-01-28T11:07:24Z</time>
      </trkpt>
      <trkpt lat="36.4602250" lon="-6.2438570">
        <ele>9.0</ele>
        <time>2023-01-28T11:07:25Z</time>
      </trkpt>
      <trkpt lat="36.4602240" lon="-6.2439110">
        <ele>9.2</ele>
        <time>2023-01-28T11:07:26Z</time>
      </trkpt>
      <trkpt lat="36.4602330" lon="-6.2439610">
        <ele>9.4</ele>
        <time>2023-01-28T11:07:27Z</time>
      </trkpt>
      <trkpt lat="36.4602430" lon="-6.2440080">
        <ele>9.2</ele>
        <time>2023-01-28T11:07:28Z</time>
      </trkpt>
      <trkpt lat="36.4602500" lon="-6.2440630">
        <ele>9.2</ele>
        <time>2023-01-28T11:07:29Z</time>
      </trkpt>
      <trkpt lat="36.4602610" lon="-6.2441170">
        <ele>10.0</ele>
        <time>2023-01-28T11:07:30Z</time>
      </trkpt>
      <trkpt lat="36.4602670" lon="-6.2441700">
        <ele>9.4</ele>
        <time>2023-01-28T11:07:31Z</time>
      </trkpt>
      <trkpt lat="36.4602750" lon="-6.2442230">
        <ele>9.4</ele>
        <time>2023-01-28T11:07:32Z</time>
      </trkpt>
      <trkpt lat="36.4602750" lon="-6.2442750">
        <ele>9.2</ele>
        <time>2023-01-28T11:07:33Z</time>
      </trkpt>
      <trkpt lat="36.4602870" lon="-6.2443300">
        <ele>8.8</ele>
        <time>2023-01-28T11:07:34Z</time>
      </trkpt>
      <trkpt lat="36.4602870" lon="-6.2443810">
        <ele>9.0</ele>
        <time>2023-01-28T11:07:35Z</time>
      </trkpt>
      <trkpt lat="36.4602960" lon="-6.2444320">
        <ele>9.0</ele>
        <time>2023-01-28T11:07:36Z</time>
      </trkpt>
      <trkpt lat="36.4603090" lon="-6.2444780">
        <ele>9.4</ele>
        <time>2023-01-28T11:07:37Z</time>
      </trkpt>
      <trkpt lat="36.4603170" lon="-6.2445190">
        <ele>9.8</ele>
        <time>2023-01-28T11:07:38Z</time>
      </trkpt>
      <trkpt lat="36.4603210" lon="-6.2445700">
        <ele>9.4</ele>
        <time>2023-01-28T11:07:39Z</time>
      </trkpt>
      <trkpt lat="36.4603240" lon="-6.2446170">
        <ele>9.6</ele>
        <time>2023-01-28T11:07:40Z</time>
      </trkpt>
      <trkpt lat="36.4603230" lon="-6.2446730">
        <ele>9.2</ele>
        <time>2023-01-28T11:07:41Z</time>
      </trkpt>
      <trkpt lat="36.4603260" lon="-6.2447280">
        <ele>8.8</ele>
        <time>2023-01-28T11:07:42Z</time>
      </trkpt>
      <trkpt lat="36.4603330" lon="-6.2447780">
        <ele>8.8</ele>
        <time>2023-01-28T11:07:43Z</time>
      </trkpt>
      <trkpt lat="36.4603430" lon="-6.2448310">
        <ele>9.4</ele>
        <time>2023-01-28T11:07:44Z</time>
      </trkpt>
      <trkpt lat="36.4603490" lon="-6.2448750">
        <ele>8.8</ele>
        <time>2023-01-28T11:07:45Z</time>
      </trkpt>
      <trkpt lat="36.4603500" lon="-6.2449340">
        <ele>9.0</ele>
        <time>2023-01-28T11:07:46Z</time>
      </trkpt>
      <trkpt lat="36.4603620" lon="-6.2449880">
        <ele>8.6</ele>
        <time>2023-01-28T11:07:47Z</time>
      </trkpt>
      <trkpt lat="36.4603730" lon="-6.2450410">
        <ele>8.6</ele>
        <time>2023-01-28T11:07:48Z</time>
      </trkpt>
      <trkpt lat="36.4603810" lon="-6.2451000">
        <ele>8.6</ele>
        <time>2023-01-28T11:07:49Z</time>
      </trkpt>
      <trkpt lat="36.4603940" lon="-6.2451490">
        <ele>8.8</ele>
        <time>2023-01-28T11:07:50Z</time>
      </trkpt>
      <trkpt lat="36.4604030" lon="-6.2452010">
        <ele>9.4</ele>
        <time>2023-01-28T11:07:51Z</time>
      </trkpt>
      <trkpt lat="36.4604210" lon="-6.2452530">
        <ele>9.2</ele>
        <time>2023-01-28T11:07:52Z</time>
      </trkpt>
      <trkpt lat="36.4604350" lon="-6.2453000">
        <ele>9.0</ele>
        <time>2023-01-28T11:07:53Z</time>
      </trkpt>
      <trkpt lat="36.4604440" lon="-6.2453540">
        <ele>8.8</ele>
        <time>2023-01-28T11:07:54Z</time>
      </trkpt>
      <trkpt lat="36.4604550" lon="-6.2454000">
        <ele>8.8</ele>
        <time>2023-01-28T11:07:55Z</time>
      </trkpt>
      <trkpt lat="36.4604650" lon="-6.2454430">
        <ele>9.0</ele>
        <time>2023-01-28T11:07:56Z</time>
      </trkpt>
      <trkpt lat="36.4604770" lon="-6.2454860">
        <ele>9.2</ele>
        <time>2023-01-28T11:07:57Z</time>
      </trkpt>
      <trkpt lat="36.4604840" lon="-6.2455450">
        <ele>9.0</ele>
        <time>2023-01-28T11:07:58Z</time>
      </trkpt>
      <trkpt lat="36.4604900" lon="-6.2455970">
        <ele>8.8</ele>
        <time>2023-01-28T11:07:59Z</time>
      </trkpt>
      <trkpt lat="36.4604950" lon="-6.2456470">
        <ele>9.2</ele>
        <time>2023-01-28T11:08:00Z</time>
      </trkpt>
      <trkpt lat="36.4605010" lon="-6.2457020">
        <ele>9.4</ele>
        <time>2023-01-28T11:08:01Z</time>
      </trkpt>
      <trkpt lat="36.4605140" lon="-6.2457430">
        <ele>9.2</ele>
        <time>2023-01-28T11:08:02Z</time>
      </trkpt>
      <trkpt lat="36.4605160" lon="-6.2457930">
        <ele>9.2</ele>
        <time>2023-01-28T11:08:03Z</time>
      </trkpt>
      <trkpt lat="36.4605170" lon="-6.2458390">
        <ele>9.4</ele>
        <time>2023-01-28T11:08:04Z</time>
      </trkpt>
      <trkpt lat="36.4605220" lon="-6.2458820">
        <ele>9.6</ele>
        <time>2023-01-28T11:08:05Z</time>
      </trkpt>
      <trkpt lat="36.4605310" lon="-6.2459240">
        <ele>9.8</ele>
        <time>2023-01-28T11:08:06Z</time>
      </trkpt>
      <trkpt lat="36.4605450" lon="-6.2459650">
        <ele>9.4</ele>
        <time>2023-01-28T11:08:07Z</time>
      </trkpt>
      <trkpt lat="36.4605540" lon="-6.2460120">
        <ele>9.8</ele>
        <time>2023-01-28T11:08:08Z</time>
      </trkpt>
      <trkpt lat="36.4605570" lon="-6.2460560">
        <ele>10.0</ele>
        <time>2023-01-28T11:08:09Z</time>
      </trkpt>
      <trkpt lat="36.4605770" lon="-6.2461000">
        <ele>10.0</ele>
        <time>2023-01-28T11:08:10Z</time>
      </trkpt>
      <trkpt lat="36.4605830" lon="-6.2461460">
        <ele>9.8</ele>
        <time>2023-01-28T11:08:11Z</time>
      </trkpt>
      <trkpt lat="36.4605990" lon="-6.2461890">
        <ele>9.6</ele>
        <time>2023-01-28T11:08:12Z</time>
      </trkpt>
      <trkpt lat="36.4606060" lon="-6.2462410">
        <ele>9.4</ele>
        <time>2023-01-28T11:08:13Z</time>
      </trkpt>
      <trkpt lat="36.4606170" lon="-6.2462930">
        <ele>9.2</ele>
        <time>2023-01-28T11:08:14Z</time>
      </trkpt>
      <trkpt lat="36.4606260" lon="-6.2463400">
        <ele>9.2</ele>
        <time>2023-01-28T11:08:15Z</time>
      </trkpt>
      <trkpt lat="36.4606340" lon="-6.2463810">
        <ele>9.6</ele>
        <time>2023-01-28T11:08:16Z</time>
      </trkpt>
      <trkpt lat="36.4606460" lon="-6.2464260">
        <ele>9.8</ele>
        <time>2023-01-28T11:08:17Z</time>
      </trkpt>
      <trkpt lat="36.4606500" lon="-6.2464690">
        <ele>10.0</ele>
        <time>2023-01-28T11:08:18Z</time>
      </trkpt>
      <trkpt lat="36.4606610" lon="-6.2465110">
        <ele>9.4</ele>
        <time>2023-01-28T11:08:19Z</time>
      </trkpt>
      <trkpt lat="36.4606730" lon="-6.2465550">
        <ele>9.6</ele>
        <time>2023-01-28T11:08:20Z</time>
      </trkpt>
      <trkpt lat="36.4606820" lon="-6.2465990">
        <ele>9.6</ele>
        <time>2023-01-28T11:08:21Z</time>
      </trkpt>
      <trkpt lat="36.4606960" lon="-6.2466480">
        <ele>10.0</ele>
        <time>2023-01-28T11:08:22Z</time>
      </trkpt>
      <trkpt lat="36.4607000" lon="-6.2466920">
        <ele>9.8</ele>
        <time>2023-01-28T11:08:23Z</time>
      </trkpt>
      <trkpt lat="36.4607150" lon="-6.2467270">
        <ele>10.0</ele>
        <time>2023-01-28T11:08:24Z</time>
      </trkpt>
      <trkpt lat="36.4607150" lon="-6.2467760">
        <ele>9.6</ele>
        <time>2023-01-28T11:08:25Z</time>
      </trkpt>
      <trkpt lat="36.4607220" lon="-6.2468190">
        <ele>10.4</ele>
        <time>2023-01-28T11:08:26Z</time>
      </trkpt>
      <trkpt lat="36.4607290" lon="-6.2468640">
        <ele>9.8</ele>
        <time>2023-01-28T11:08:27Z</time>
      </trkpt>
      <trkpt lat="36.4607410" lon="-6.2469040">
        <ele>9.2</ele>
        <time>2023-01-28T11:08:28Z</time>
      </trkpt>
      <trkpt lat="36.4607560" lon="-6.2469460">
        <ele>9.4</ele>
        <time>2023-01-28T11:08:29Z</time>
      </trkpt>
      <trkpt lat="36.4607650" lon="-6.2469920">
        <ele>9.8</ele>
        <time>2023-01-28T11:08:30Z</time>
      </trkpt>
      <trkpt lat="36.4607750" lon="-6.2470300">
        <ele>9.4</ele>
        <time>2023-01-28T11:08:31Z</time>
      </trkpt>
      <trkpt lat="36.4607910" lon="-6.2470780">
        <ele>9.0</ele>
        <time>2023-01-28T11:08:32Z</time>
      </trkpt>
      <trkpt lat="36.4608060" lon="-6.2471240">
        <ele>9.2</ele>
        <time>2023-01-28T11:08:33Z</time>
      </trkpt>
      <trkpt lat="36.4608280" lon="-6.2471620">
        <ele>9.6</ele>
        <time>2023-01-28T11:08:34Z</time>
      </trkpt>
      <trkpt lat="36.4608570" lon="-6.2472070">
        <ele>9.4</ele>
        <time>2023-01-28T11:08:35Z</time>
      </trkpt>
      <trkpt lat="36.4608770" lon="-6.2472420">
        <ele>9.2</ele>
        <time>2023-01-28T11:08:36Z</time>
      </trkpt>
      <trkpt lat="36.4609000" lon="-6.2472880">
        <ele>8.8</ele>
        <time>2023-01-28T11:08:37Z</time>
      </trkpt>
      <trkpt lat="36.4609080" lon="-6.2473380">
        <ele>9.0</ele>
        <time>2023-01-28T11:08:38Z</time>
      </trkpt>
      <trkpt lat="36.4609180" lon="-6.2473740">
        <ele>9.2</ele>
        <time>2023-01-28T11:08:39Z</time>
      </trkpt>
      <trkpt lat="36.4609390" lon="-6.2474270">
        <ele>9.0</ele>
        <time>2023-01-28T11:08:40Z</time>
      </trkpt>
      <trkpt lat="36.4609470" lon="-6.2474770">
        <ele>9.6</ele>
        <time>2023-01-28T11:08:41Z</time>
      </trkpt>
      <trkpt lat="36.4609610" lon="-6.2475220">
        <ele>9.6</ele>
        <time>2023-01-28T11:08:42Z</time>
      </trkpt>
      <trkpt lat="36.4609760" lon="-6.2475720">
        <ele>9.2</ele>
        <time>2023-01-28T11:08:43Z</time>
      </trkpt>
      <trkpt lat="36.4609920" lon="-6.2476030">
        <ele>9.2</ele>
        <time>2023-01-28T11:08:44Z</time>
      </trkpt>
      <trkpt lat="36.4610180" lon="-6.2476490">
        <ele>9.0</ele>
        <time>2023-01-28T11:08:45Z</time>
      </trkpt>
      <trkpt lat="36.4610310" lon="-6.2477000">
        <ele>8.8</ele>
        <time>2023-01-28T11:08:46Z</time>
      </trkpt>
      <trkpt lat="36.4610440" lon="-6.2477510">
        <ele>8.4</ele>
        <time>2023-01-28T11:08:47Z</time>
      </trkpt>
      <trkpt lat="36.4610580" lon="-6.2477790">
        <ele>8.4</ele>
        <time>2023-01-28T11:08:48Z</time>
      </trkpt>
      <trkpt lat="36.4610770" lon="-6.2478300">
        <ele>9.4</ele>
        <time>2023-01-28T11:08:49Z</time>
      </trkpt>
      <trkpt lat="36.4611000" lon="-6.2478760">
        <ele>9.4</ele>
        <time>2023-01-28T11:08:50Z</time>
      </trkpt>
      <trkpt lat="36.4611170" lon="-6.2479200">
        <ele>9.4</ele>
        <time>2023-01-28T11:08:51Z</time>
      </trkpt>
      <trkpt lat="36.4611260" lon="-6.2479690">
        <ele>9.2</ele>
        <time>2023-01-28T11:08:52Z</time>
      </trkpt>
      <trkpt lat="36.4611420" lon="-6.2480110">
        <ele>9.8</ele>
        <time>2023-01-28T11:08:53Z</time>
      </trkpt>
      <trkpt lat="36.4611670" lon="-6.2480540">
        <ele>10.0</ele>
        <time>2023-01-28T11:08:54Z</time>
      </trkpt>
      <trkpt lat="36.4611920" lon="-6.2480960">
        <ele>9.6</ele>
        <time>2023-01-28T11:08:55Z</time>
      </trkpt>
      <trkpt lat="36.4612090" lon="-6.2481400">
        <ele>9.0</ele>
        <time>2023-01-28T11:08:56Z</time>
      </trkpt>
      <trkpt lat="36.4612220" lon="-6.2481800">
        <ele>8.8</ele>
        <time>2023-01-28T11:08:57Z</time>
      </trkpt>
      <trkpt lat="36.4612450" lon="-6.2482200">
        <ele>9.0</ele>
        <time>2023-01-28T11:08:58Z</time>
      </trkpt>
      <trkpt lat="36.4612580" lon="-6.2482640">
        <ele>9.4</ele>
        <time>2023-01-28T11:08:59Z</time>
      </trkpt>
      <trkpt lat="36.4612740" lon="-6.2483220">
        <ele>9.6</ele>
        <time>2023-01-28T11:09:00Z</time>
      </trkpt>
      <trkpt lat="36.4612900" lon="-6.2483630">
        <ele>9.6</ele>
        <time>2023-01-28T11:09:01Z</time>
      </trkpt>
      <trkpt lat="36.4613090" lon="-6.2484100">
        <ele>9.2</ele>
        <time>2023-01-28T11:09:02Z</time>
      </trkpt>
      <trkpt lat="36.4613190" lon="-6.2484460">
        <ele>9.2</ele>
        <time>2023-01-28T11:09:03Z</time>
      </trkpt>
      <trkpt lat="36.4613400" lon="-6.2484970">
        <ele>9.2</ele>
        <time>2023-01-28T11:09:04Z</time>
      </trkpt>
      <trkpt lat="36.4613700" lon="-6.2485420">
        <ele>8.8</ele>
        <time>2023-01-28T11:09:05Z</time>
      </trkpt>
      <trkpt lat="36.4613880" lon="-6.2485920">
        <ele>8.6</ele>
        <time>2023-01-28T11:09:06Z</time>
      </trkpt>
      <trkpt lat="36.4614160" lon="-6.2486260">
        <ele>8.6</ele>
        <time>2023-01-28T11:09:07Z</time>
      </trkpt>
      <trkpt lat="36.4614320" lon="-6.2486710">
        <ele>9.0</ele>
        <time>2023-01-28T11:09:08Z</time>
      </trkpt>
      <trkpt lat="36.4614510" lon="-6.2487190">
        <ele>8.4</ele>
        <time>2023-01-28T11:09:09Z</time>
      </trkpt>
      <trkpt lat="36.4614780" lon="-6.2487690">
        <ele>8.2</ele>
        <time>2023-01-28T11:09:10Z</time>
      </trkpt>
      <trkpt lat="36.4615130" lon="-6.2488110">
        <ele>8.2</ele>
        <time>2023-01-28T11:09:11Z</time>
      </trkpt>
      <trkpt lat="36.4615280" lon="-6.2488650">
        <ele>8.4</ele>
        <time>2023-01-28T11:09:12Z</time>
      </trkpt>
      <trkpt lat="36.4615590" lon="-6.2489090">
        <ele>8.4</ele>
        <time>2023-01-28T11:09:13Z</time>
      </trkpt>
      <trkpt lat="36.4615820" lon="-6.2489520">
        <ele>8.4</ele>
        <time>2023-01-28T11:09:14Z</time>
      </trkpt>
      <trkpt lat="36.4616040" lon="-6.2489970">
        <ele>8.0</ele>
        <time>2023-01-28T11:09:15Z</time>
      </trkpt>
      <trkpt lat="36.4616300" lon="-6.2490340">
        <ele>8.0</ele>
        <time>2023-01-28T11:09:16Z</time>
      </trkpt>
      <trkpt lat="36.4616480" lon="-6.2490840">
        <ele>7.8</ele>
        <time>2023-01-28T11:09:17Z</time>
      </trkpt>
      <trkpt lat="36.4616690" lon="-6.2491280">
        <ele>8.0</ele>
        <time>2023-01-28T11:09:18Z</time>
      </trkpt>
      <trkpt lat="36.4616860" lon="-6.2491620">
        <ele>8.6</ele>
        <time>2023-01-28T11:09:19Z</time>
      </trkpt>
      <trkpt lat="36.4617090" lon="-6.2492030">
        <ele>8.6</ele>
        <time>2023-01-28T11:09:20Z</time>
      </trkpt>
      <trkpt lat="36.4617350" lon="-6.2492560">
        <ele>8.4</ele>
        <time>2023-01-28T11:09:21Z</time>
      </trkpt>
      <trkpt lat="36.4617590" lon="-6.2492920">
        <ele>8.4</ele>
        <time>2023-01-28T11:09:22Z</time>
      </trkpt>
      <trkpt lat="36.4617880" lon="-6.2493250">
        <ele>7.8</ele>
        <time>2023-01-28T11:09:23Z</time>
      </trkpt>
      <trkpt lat="36.4618140" lon="-6.2493670">
        <ele>7.6</ele>
        <time>2023-01-28T11:09:24Z</time>
      </trkpt>
      <trkpt lat="36.4618350" lon="-6.2494080">
        <ele>8.0</ele>
        <time>2023-01-28T11:09:25Z</time>
      </trkpt>
      <trkpt lat="36.4618510" lon="-6.2494470">
        <ele>7.8</ele>
        <time>2023-01-28T11:09:26Z</time>
      </trkpt>
      <trkpt lat="36.4618580" lon="-6.2494950">
        <ele>7.6</ele>
        <time>2023-01-28T11:09:27Z</time>
      </trkpt>
      <trkpt lat="36.4618790" lon="-6.2495410">
        <ele>8.2</ele>
        <time>2023-01-28T11:09:28Z</time>
      </trkpt>
      <trkpt lat="36.4619000" lon="-6.2495780">
        <ele>8.8</ele>
        <time>2023-01-28T11:09:29Z</time>
      </trkpt>
      <trkpt lat="36.4619270" lon="-6.2496210">
        <ele>7.8</ele>
        <time>2023-01-28T11:09:30Z</time>
      </trkpt>
      <trkpt lat="36.4619580" lon="-6.2496700">
        <ele>8.2</ele>
        <time>2023-01-28T11:09:31Z</time>
      </trkpt>
      <trkpt lat="36.4619850" lon="-6.2497130">
        <ele>8.4</ele>
        <time>2023-01-28T11:09:32Z</time>
      </trkpt>
      <trkpt lat="36.4620090" lon="-6.2497490">
        <ele>7.8</ele>
        <time>2023-01-28T11:09:33Z</time>
      </trkpt>
      <trkpt lat="36.4620370" lon="-6.2497890">
        <ele>8.0</ele>
        <time>2023-01-28T11:09:34Z</time>
      </trkpt>
      <trkpt lat="36.4620670" lon="-6.2498190">
        <ele>8.2</ele>
        <time>2023-01-28T11:09:35Z</time>
      </trkpt>
      <trkpt lat="36.4620920" lon="-6.2498500">
        <ele>8.0</ele>
        <time>2023-01-28T11:09:36Z</time>
      </trkpt>
      <trkpt lat="36.4621070" lon="-6.2498910">
        <ele>7.8</ele>
        <time>2023-01-28T11:09:37Z</time>
      </trkpt>
      <trkpt lat="36.4621270" lon="-6.2499370">
        <ele>7.6</ele>
        <time>2023-01-28T11:09:38Z</time>
      </trkpt>
      <trkpt lat="36.4621460" lon="-6.2499730">
        <ele>7.6</ele>
        <time>2023-01-28T11:09:39Z</time>
      </trkpt>
      <trkpt lat="36.4621760" lon="-6.2500150">
        <ele>8.2</ele>
        <time>2023-01-28T11:09:40Z</time>
      </trkpt>
      <trkpt lat="36.4622080" lon="-6.2500540">
        <ele>8.2</ele>
        <time>2023-01-28T11:09:41Z</time>
      </trkpt>
      <trkpt lat="36.4622370" lon="-6.2500880">
        <ele>8.2</ele>
        <time>2023-01-28T11:09:42Z</time>
      </trkpt>
      <trkpt lat="36.4622530" lon="-6.2501060">
        <ele>8.6</ele>
        <time>2023-01-28T11:09:43Z</time>
      </trkpt>
      <trkpt lat="36.4622810" lon="-6.2501560">
        <ele>8.4</ele>
        <time>2023-01-28T11:09:44Z</time>
      </trkpt>
      <trkpt lat="36.4623150" lon="-6.2501970">
        <ele>9.2</ele>
        <time>2023-01-28T11:09:45Z</time>
      </trkpt>
      <trkpt lat="36.4623420" lon="-6.2502300">
        <ele>10.4</ele>
        <time>2023-01-28T11:09:46Z</time>
      </trkpt>
      <trkpt lat="36.4623700" lon="-6.2502580">
        <ele>11.4</ele>
        <time>2023-01-28T11:09:47Z</time>
      </trkpt>
      <trkpt lat="36.4623920" lon="-6.2502930">
        <ele>10.8</ele>
        <time>2023-01-28T11:09:48Z</time>
      </trkpt>
      <trkpt lat="36.4624240" lon="-6.2503180">
        <ele>9.6</ele>
        <time>2023-01-28T11:09:49Z</time>
      </trkpt>
      <trkpt lat="36.4624480" lon="-6.2503620">
        <ele>9.8</ele>
        <time>2023-01-28T11:09:50Z</time>
      </trkpt>
      <trkpt lat="36.4624820" lon="-6.2504000">
        <ele>10.6</ele>
        <time>2023-01-28T11:09:51Z</time>
      </trkpt>
      <trkpt lat="36.4625010" lon="-6.2504540">
        <ele>10.2</ele>
        <time>2023-01-28T11:09:52Z</time>
      </trkpt>
      <trkpt lat="36.4625200" lon="-6.2505000">
        <ele>10.0</ele>
        <time>2023-01-28T11:09:53Z</time>
      </trkpt>
      <trkpt lat="36.4625590" lon="-6.2505320">
        <ele>9.6</ele>
        <time>2023-01-28T11:09:54Z</time>
      </trkpt>
      <trkpt lat="36.4625840" lon="-6.2505680">
        <ele>9.4</ele>
        <time>2023-01-28T11:09:55Z</time>
      </trkpt>
      <trkpt lat="36.4626090" lon="-6.2505960">
        <ele>9.0</ele>
        <time>2023-01-28T11:09:56Z</time>
      </trkpt>
      <trkpt lat="36.4626410" lon="-6.2506390">
        <ele>9.0</ele>
        <time>2023-01-28T11:09:57Z</time>
      </trkpt>
      <trkpt lat="36.4626700" lon="-6.2506780">
        <ele>8.4</ele>
        <time>2023-01-28T11:09:58Z</time>
      </trkpt>
      <trkpt lat="36.4627010" lon="-6.2507000">
        <ele>8.4</ele>
        <time>2023-01-28T11:09:59Z</time>
      </trkpt>
      <trkpt lat="36.4627340" lon="-6.2507450">
        <ele>8.8</ele>
        <time>2023-01-28T11:10:00Z</time>
      </trkpt>
      <trkpt lat="36.4627740" lon="-6.2507830">
        <ele>9.0</ele>
        <time>2023-01-28T11:10:01Z</time>
      </trkpt>
      <trkpt lat="36.4628060" lon="-6.2508350">
        <ele>9.0</ele>
        <time>2023-01-28T11:10:02Z</time>
      </trkpt>
      <trkpt lat="36.4628360" lon="-6.2508740">
        <ele>8.8</ele>
        <time>2023-01-28T11:10:03Z</time>
      </trkpt>
      <trkpt lat="36.4628630" lon="-6.2509110">
        <ele>9.0</ele>
        <time>2023-01-28T11:10:04Z</time>
      </trkpt>
      <trkpt lat="36.4628920" lon="-6.2509410">
        <ele>9.2</ele>
        <time>2023-01-28T11:10:05Z</time>
      </trkpt>
      <trkpt lat="36.4629110" lon="-6.2509690">
        <ele>9.2</ele>
        <time>2023-01-28T11:10:06Z</time>
      </trkpt>
      <trkpt lat="36.4629300" lon="-6.2509940">
        <ele>9.2</ele>
        <time>2023-01-28T11:10:07Z</time>
      </trkpt>
      <trkpt lat="36.4629520" lon="-6.2510170">
        <ele>9.2</ele>
        <time>2023-01-28T11:10:08Z</time>
      </trkpt>
      <trkpt lat="36.4629780" lon="-6.2510410">
        <ele>9.4</ele>
        <time>2023-01-28T11:10:09Z</time>
      </trkpt>
      <trkpt lat="36.4629950" lon="-6.2510610">
        <ele>9.8</ele>
        <time>2023-01-28T11:10:10Z</time>
      </trkpt>
      <trkpt lat="36.4630150" lon="-6.2510820">
        <ele>9.8</ele>
        <time>2023-01-28T11:10:11Z</time>
      </trkpt>
      <trkpt lat="36.4630140" lon="-6.2510900">
        <ele>10.2</ele>
        <time>2023-01-28T11:10:12Z</time>
      </trkpt>
      <trkpt lat="36.4630330" lon="-6.2511070">
        <ele>10.0</ele>
        <time>2023-01-28T11:10:13Z</time>
      </trkpt>
      <trkpt lat="36.4630420" lon="-6.2511390">
        <ele>9.6</ele>
        <time>2023-01-28T11:10:14Z</time>
      </trkpt>
      <trkpt lat="36.4630560" lon="-6.2511730">
        <ele>9.4</ele>
        <time>2023-01-28T11:10:15Z</time>
      </trkpt>
      <trkpt lat="36.4630780" lon="-6.2511960">
        <ele>9.0</ele>
        <time>2023-01-28T11:10:16Z</time>
      </trkpt>
      <trkpt lat="36.4631000" lon="-6.2512180">
        <ele>9.0</ele>
        <time>2023-01-28T11:10:17Z</time>
      </trkpt>
      <trkpt lat="36.4631060" lon="-6.2512450">
        <ele>8.8</ele>
        <time>2023-01-28T11:10:18Z</time>
      </trkpt>
      <trkpt lat="36.4631220" lon="-6.2512630">
        <ele>9.0</ele>
        <time>2023-01-28T11:10:19Z</time>
      </trkpt>
      <trkpt lat="36.4631390" lon="-6.2512930">
        <ele>9.2</ele>
        <time>2023-01-28T11:10:20Z</time>
      </trkpt>
      <trkpt lat="36.4631470" lon="-6.2513210">
        <ele>9.2</ele>
        <time>2023-01-28T11:10:21Z</time>
      </trkpt>
      <trkpt lat="36.4631530" lon="-6.2513430">
        <ele>9.4</ele>
        <time>2023-01-28T11:10:22Z</time>
      </trkpt>
      <trkpt lat="36.4631730" lon="-6.2513500">
        <ele>9.0</ele>
        <time>2023-01-28T11:10:23Z</time>
      </trkpt>
      <trkpt lat="36.4631780" lon="-6.2513610">
        <ele>8.8</ele>
        <time>2023-01-28T11:10:24Z</time>
      </trkpt>
      <trkpt lat="36.4631910" lon="-6.2513820">
        <ele>8.8</ele>
        <time>2023-01-28T11:10:25Z</time>
      </trkpt>
      <trkpt lat="36.4632040" lon="-6.2513850">
        <ele>8.8</ele>
        <time>2023-01-28T11:10:26Z</time>
      </trkpt>
      <trkpt lat="36.4632150" lon="-6.2513800">
        <ele>8.6</ele>
        <time>2023-01-28T11:10:27Z</time>
      </trkpt>
      <trkpt lat="36.4632310" lon="-6.2513920">
        <ele>8.6</ele>
        <time>2023-01-28T11:10:28Z</time>
      </trkpt>
      <trkpt lat="36.4632340" lon="-6.2514000">
        <ele>9.2</ele>
        <time>2023-01-28T11:10:29Z</time>
      </trkpt>
      <trkpt lat="36.4632460" lon="-6.2514020">
        <ele>9.0</ele>
        <time>2023-01-28T11:10:30Z</time>
      </trkpt>
      <trkpt lat="36.4632550" lon="-6.2514210">
        <ele>8.4</ele>
        <time>2023-01-28T11:10:31Z</time>
      </trkpt>
      <trkpt lat="36.4632620" lon="-6.2514320">
        <ele>8.6</ele>
        <time>2023-01-28T11:10:32Z</time>
      </trkpt>
      <trkpt lat="36.4632560" lon="-6.2514370">
        <ele>9.0</ele>
        <time>2023-01-28T11:10:33Z</time>
      </trkpt>
      <trkpt lat="36.4632540" lon="-6.2514530">
        <ele>8.8</ele>
        <time>2023-01-28T11:10:34Z</time>
      </trkpt>
      <trkpt lat="36.4632460" lon="-6.2514700">
        <ele>8.8</ele>
        <time>2023-01-28T11:10:35Z</time>
      </trkpt>
      <trkpt lat="36.4632620" lon="-6.2514890">
        <ele>8.2</ele>
        <time>2023-01-28T11:10:36Z</time>
      </trkpt>
      <trkpt lat="36.4632750" lon="-6.2514960">
        <ele>8.2</ele>
        <time>2023-01-28T11:10:37Z</time>
      </trkpt>
      <trkpt lat="36.4632780" lon="-6.2514940">
        <ele>8.0</ele>
        <time>2023-01-28T11:10:38Z</time>
      </trkpt>
      <trkpt lat="36.4632770" lon="-6.2514930">
        <ele>8.4</ele>
        <time>2023-01-28T11:10:39Z</time>
      </trkpt>
      <trkpt lat="36.4632800" lon="-6.2514890">
        <ele>8.0</ele>
        <time>2023-01-28T11:10:40Z</time>
      </trkpt>
      <trkpt lat="36.4632860" lon="-6.2514850">
        <ele>7.6</ele>
        <time>2023-01-28T11:10:41Z</time>
      </trkpt>
      <trkpt lat="36.4632870" lon="-6.2514980">
        <ele>7.2</ele>
        <time>2023-01-28T11:10:42Z</time>
      </trkpt>
      <trkpt lat="36.4632750" lon="-6.2514940">
        <ele>7.4</ele>
        <time>2023-01-28T11:10:43Z</time>
      </trkpt>
      <trkpt lat="36.4632680" lon="-6.2514830">
        <ele>7.6</ele>
        <time>2023-01-28T11:10:44Z</time>
      </trkpt>
      <trkpt lat="36.4632640" lon="-6.2514900">
        <ele>8.6</ele>
        <time>2023-01-28T11:10:45Z</time>
      </trkpt>
      <trkpt lat="36.4632580" lon="-6.2514920">
        <ele>9.0</ele>
        <time>2023-01-28T11:10:46Z</time>
      </trkpt>
      <trkpt lat="36.4632570" lon="-6.2515020">
        <ele>8.2</ele>
        <time>2023-01-28T11:10:47Z</time>
      </trkpt>
      <trkpt lat="36.4632870" lon="-6.2515430">
        <ele>8.0</ele>
        <time>2023-01-28T11:10:52Z</time>
      </trkpt>
      <trkpt lat="36.4633060" lon="-6.2515440">
        <ele>8.2</ele>
        <time>2023-01-28T11:10:53Z</time>
      </trkpt>
      <trkpt lat="36.4633230" lon="-6.2515510">
        <ele>8.4</ele>
        <time>2023-01-28T11:10:54Z</time>
      </trkpt>
      <trkpt lat="36.4633420" lon="-6.2515690">
        <ele>8.6</ele>
        <time>2023-01-28T11:10:55Z</time>
      </trkpt>
      <trkpt lat="36.4633500" lon="-6.2515840">
        <ele>9.0</ele>
        <time>2023-01-28T11:10:56Z</time>
      </trkpt>
      <trkpt lat="36.4633740" lon="-6.2516040">
        <ele>9.0</ele>
        <time>2023-01-28T11:10:57Z</time>
      </trkpt>
      <trkpt lat="36.4633990" lon="-6.2516170">
        <ele>8.2</ele>
        <time>2023-01-28T11:10:58Z</time>
      </trkpt>
      <trkpt lat="36.4634270" lon="-6.2516340">
        <ele>8.8</ele>
        <time>2023-01-28T11:10:59Z</time>
      </trkpt>
      <trkpt lat="36.4634460" lon="-6.2516590">
        <ele>9.6</ele>
        <time>2023-01-28T11:11:00Z</time>
      </trkpt>
      <trkpt lat="36.4634750" lon="-6.2516830">
        <ele>9.2</ele>
        <time>2023-01-28T11:11:01Z</time>
      </trkpt>
      <trkpt lat="36.4635000" lon="-6.2517080">
        <ele>8.8</ele>
        <time>2023-01-28T11:11:02Z</time>
      </trkpt>
      <trkpt lat="36.4635330" lon="-6.2517350">
        <ele>8.8</ele>
        <time>2023-01-28T11:11:03Z</time>
      </trkpt>
      <trkpt lat="36.4635610" lon="-6.2517580">
        <ele>8.6</ele>
        <time>2023-01-28T11:11:04Z</time>
      </trkpt>
      <trkpt lat="36.4635850" lon="-6.2517740">
        <ele>8.6</ele>
        <time>2023-01-28T11:11:05Z</time>
      </trkpt>
      <trkpt lat="36.4636100" lon="-6.2517960">
        <ele>8.8</ele>
        <time>2023-01-28T11:11:06Z</time>
      </trkpt>
      <trkpt lat="36.4636380" lon="-6.2518140">
        <ele>8.2</ele>
        <time>2023-01-28T11:11:07Z</time>
      </trkpt>
      <trkpt lat="36.4636620" lon="-6.2518380">
        <ele>8.2</ele>
        <time>2023-01-28T11:11:08Z</time>
      </trkpt>
      <trkpt lat="36.4636970" lon="-6.2518620">
        <ele>8.2</ele>
        <time>2023-01-28T11:11:09Z</time>
      </trkpt>
      <trkpt lat="36.4637280" lon="-6.2518950">
        <ele>8.0</ele>
        <time>2023-01-28T11:11:10Z</time>
      </trkpt>
      <trkpt lat="36.4637530" lon="-6.2519190">
        <ele>8.0</ele>
        <time>2023-01-28T11:11:11Z</time>
      </trkpt>
      <trkpt lat="36.4637760" lon="-6.2519470">
        <ele>8.0</ele>
        <time>2023-01-28T11:11:12Z</time>
      </trkpt>
      <trkpt lat="36.4638020" lon="-6.2519640">
        <ele>8.0</ele>
        <time>2023-01-28T11:11:13Z</time>
      </trkpt>
      <trkpt lat="36.4638220" lon="-6.2519910">
        <ele>7.8</ele>
        <time>2023-01-28T11:11:14Z</time>
      </trkpt>
      <trkpt lat="36.4638530" lon="-6.2520160">
        <ele>7.8</ele>
        <time>2023-01-28T11:11:15Z</time>
      </trkpt>
      <trkpt lat="36.4638880" lon="-6.2520440">
        <ele>7.8</ele>
        <time>2023-01-28T11:11:16Z</time>
      </trkpt>
      <trkpt lat="36.4639180" lon="-6.2520720">
        <ele>7.8</ele>
        <time>2023-01-28T11:11:17Z</time>
      </trkpt>
      <trkpt lat="36.4639330" lon="-6.2520930">
        <ele>7.8</ele>
        <time>2023-01-28T11:11:18Z</time>
      </trkpt>
      <trkpt lat="36.4639620" lon="-6.2521130">
        <ele>7.8</ele>
        <time>2023-01-28T11:11:19Z</time>
      </trkpt>
      <trkpt lat="36.4639960" lon="-6.2521370">
        <ele>7.8</ele>
        <time>2023-01-28T11:11:20Z</time>
      </trkpt>
      <trkpt lat="36.4640240" lon="-6.2521620">
        <ele>8.2</ele>
        <time>2023-01-28T11:11:21Z</time>
      </trkpt>
      <trkpt lat="36.4640550" lon="-6.2521830">
        <ele>8.2</ele>
        <time>2023-01-28T11:11:22Z</time>
      </trkpt>
      <trkpt lat="36.4640780" lon="-6.2522040">
        <ele>8.0</ele>
        <time>2023-01-28T11:11:23Z</time>
      </trkpt>
      <trkpt lat="36.4640990" lon="-6.2522230">
        <ele>8.2</ele>
        <time>2023-01-28T11:11:24Z</time>
      </trkpt>
      <trkpt lat="36.4641320" lon="-6.2522520">
        <ele>8.4</ele>
        <time>2023-01-28T11:11:25Z</time>
      </trkpt>
      <trkpt lat="36.4641540" lon="-6.2522690">
        <ele>8.2</ele>
        <time>2023-01-28T11:11:26Z</time>
      </trkpt>
      <trkpt lat="36.4641780" lon="-6.2522960">
        <ele>8.0</ele>
        <time>2023-01-28T11:11:27Z</time>
      </trkpt>
      <trkpt lat="36.4642020" lon="-6.2523070">
        <ele>7.8</ele>
        <time>2023-01-28T11:11:28Z</time>
      </trkpt>
      <trkpt lat="36.4642310" lon="-6.2523270">
        <ele>7.8</ele>
        <time>2023-01-28T11:11:29Z</time>
      </trkpt>
      <trkpt lat="36.4642600" lon="-6.2523500">
        <ele>7.8</ele>
        <time>2023-01-28T11:11:30Z</time>
      </trkpt>
      <trkpt lat="36.4642820" lon="-6.2523660">
        <ele>7.6</ele>
        <time>2023-01-28T11:11:31Z</time>
      </trkpt>
      <trkpt lat="36.4643070" lon="-6.2523830">
        <ele>7.6</ele>
        <time>2023-01-28T11:11:32Z</time>
      </trkpt>
      <trkpt lat="36.4643300" lon="-6.2523930">
        <ele>7.6</ele>
        <time>2023-01-28T11:11:33Z</time>
      </trkpt>
      <trkpt lat="36.4643500" lon="-6.2524080">
        <ele>7.6</ele>
        <time>2023-01-28T11:11:34Z</time>
      </trkpt>
      <trkpt lat="36.4643790" lon="-6.2524270">
        <ele>7.6</ele>
        <time>2023-01-28T11:11:35Z</time>
      </trkpt>
      <trkpt lat="36.4644140" lon="-6.2524500">
        <ele>7.4</ele>
        <time>2023-01-28T11:11:36Z</time>
      </trkpt>
      <trkpt lat="36.4644470" lon="-6.2524750">
        <ele>7.4</ele>
        <time>2023-01-28T11:11:37Z</time>
      </trkpt>
      <trkpt lat="36.4644770" lon="-6.2524950">
        <ele>7.6</ele>
        <time>2023-01-28T11:11:38Z</time>
      </trkpt>
      <trkpt lat="36.4645030" lon="-6.2525160">
        <ele>7.4</ele>
        <time>2023-01-28T11:11:39Z</time>
      </trkpt>
      <trkpt lat="36.4645330" lon="-6.2525320">
        <ele>7.6</ele>
        <time>2023-01-28T11:11:40Z</time>
      </trkpt>
      <trkpt lat="36.4645630" lon="-6.2525530">
        <ele>7.8</ele>
        <time>2023-01-28T11:11:41Z</time>
      </trkpt>
      <trkpt lat="36.4645900" lon="-6.2525750">
        <ele>7.8</ele>
        <time>2023-01-28T11:11:42Z</time>
      </trkpt>
      <trkpt lat="36.4646160" lon="-6.2525940">
        <ele>7.4</ele>
        <time>2023-01-28T11:11:43Z</time>
      </trkpt>
      <trkpt lat="36.4646480" lon="-6.2526040">
        <ele>7.4</ele>
        <time>2023-01-28T11:11:44Z</time>
      </trkpt>
      <trkpt lat="36.4646780" lon="-6.2526190">
        <ele>7.6</ele>
        <time>2023-01-28T11:11:45Z</time>
      </trkpt>
      <trkpt lat="36.4647120" lon="-6.2526410">
        <ele>7.8</ele>
        <time>2023-01-28T11:11:46Z</time>
      </trkpt>
      <trkpt lat="36.4647350" lon="-6.2526630">
        <ele>7.8</ele>
        <time>2023-01-28T11:11:47Z</time>
      </trkpt>
      <trkpt lat="36.4647610" lon="-6.2526910">
        <ele>7.6</ele>
        <time>2023-01-28T11:11:48Z</time>
      </trkpt>
      <trkpt lat="36.4647890" lon="-6.2527070">
        <ele>7.8</ele>
        <time>2023-01-28T11:11:49Z</time>
      </trkpt>
      <trkpt lat="36.4648240" lon="-6.2527250">
        <ele>7.8</ele>
        <time>2023-01-28T11:11:50Z</time>
      </trkpt>
      <trkpt lat="36.4648510" lon="-6.2527500">
        <ele>7.8</ele>
        <time>2023-01-28T11:11:51Z</time>
      </trkpt>
      <trkpt lat="36.4648860" lon="-6.2527580">
        <ele>7.8</ele>
        <time>2023-01-28T11:11:52Z</time>
      </trkpt>
      <trkpt lat="36.4649130" lon="-6.2527810">
        <ele>7.8</ele>
        <time>2023-01-28T11:11:53Z</time>
      </trkpt>
      <trkpt lat="36.4649330" lon="-6.2527950">
        <ele>7.8</ele>
        <time>2023-01-28T11:11:54Z</time>
      </trkpt>
      <trkpt lat="36.4649540" lon="-6.2528220">
        <ele>7.8</ele>
        <time>2023-01-28T11:11:55Z</time>
      </trkpt>
      <trkpt lat="36.4649820" lon="-6.2528430">
        <ele>7.8</ele>
        <time>2023-01-28T11:11:56Z</time>
      </trkpt>
      <trkpt lat="36.4650070" lon="-6.2528710">
        <ele>7.8</ele>
        <time>2023-01-28T11:11:57Z</time>
      </trkpt>
      <trkpt lat="36.4650360" lon="-6.2528930">
        <ele>7.8</ele>
        <time>2023-01-28T11:11:58Z</time>
      </trkpt>
      <trkpt lat="36.4650650" lon="-6.2529120">
        <ele>8.0</ele>
        <time>2023-01-28T11:11:59Z</time>
      </trkpt>
      <trkpt lat="36.4650950" lon="-6.2529340">
        <ele>8.0</ele>
        <time>2023-01-28T11:12:00Z</time>
      </trkpt>
      <trkpt lat="36.4651180" lon="-6.2529560">
        <ele>8.0</ele>
        <time>2023-01-28T11:12:01Z</time>
      </trkpt>
      <trkpt lat="36.4651460" lon="-6.2529800">
        <ele>8.0</ele>
        <time>2023-01-28T11:12:02Z</time>
      </trkpt>
      <trkpt lat="36.4651700" lon="-6.2529910">
        <ele>7.8</ele>
        <time>2023-01-28T11:12:03Z</time>
      </trkpt>
      <trkpt lat="36.4652070" lon="-6.2530030">
        <ele>7.8</ele>
        <time>2023-01-28T11:12:04Z</time>
      </trkpt>
      <trkpt lat="36.4652370" lon="-6.2530160">
        <ele>7.8</ele>
        <time>2023-01-28T11:12:05Z</time>
      </trkpt>
      <trkpt lat="36.4652650" lon="-6.2530330">
        <ele>8.0</ele>
        <time>2023-01-28T11:12:06Z</time>
      </trkpt>
      <trkpt lat="36.4652920" lon="-6.2530460">
        <ele>8.0</ele>
        <time>2023-01-28T11:12:07Z</time>
      </trkpt>
      <trkpt lat="36.4653200" lon="-6.2530660">
        <ele>7.8</ele>
        <time>2023-01-28T11:12:08Z</time>
      </trkpt>
      <trkpt lat="36.4653430" lon="-6.2530880">
        <ele>7.8</ele>
        <time>2023-01-28T11:12:09Z</time>
      </trkpt>
      <trkpt lat="36.4653740" lon="-6.2531050">
        <ele>8.0</ele>
        <time>2023-01-28T11:12:10Z</time>
      </trkpt>
      <trkpt lat="36.4654070" lon="-6.2531100">
        <ele>7.8</ele>
        <time>2023-01-28T11:12:11Z</time>
      </trkpt>
      <trkpt lat="36.4654410" lon="-6.2531230">
        <ele>7.8</ele>
        <time>2023-01-28T11:12:12Z</time>
      </trkpt>
      <trkpt lat="36.4654820" lon="-6.2531530">
        <ele>7.8</ele>
        <time>2023-01-28T11:12:13Z</time>
      </trkpt>
      <trkpt lat="36.4655080" lon="-6.2531640">
        <ele>7.8</ele>
        <time>2023-01-28T11:12:14Z</time>
      </trkpt>
      <trkpt lat="36.4655410" lon="-6.2531830">
        <ele>8.0</ele>
        <time>2023-01-28T11:12:15Z</time>
      </trkpt>
      <trkpt lat="36.4655710" lon="-6.2532000">
        <ele>8.2</ele>
        <time>2023-01-28T11:12:16Z</time>
      </trkpt>
      <trkpt lat="36.4656120" lon="-6.2532170">
        <ele>8.4</ele>
        <time>2023-01-28T11:12:17Z</time>
      </trkpt>
      <trkpt lat="36.4656460" lon="-6.2532260">
        <ele>8.2</ele>
        <time>2023-01-28T11:12:18Z</time>
      </trkpt>
      <trkpt lat="36.4656730" lon="-6.2532420">
        <ele>8.4</ele>
        <time>2023-01-28T11:12:19Z</time>
      </trkpt>
      <trkpt lat="36.4656990" lon="-6.2532690">
        <ele>8.4</ele>
        <time>2023-01-28T11:12:20Z</time>
      </trkpt>
      <trkpt lat="36.4657260" lon="-6.2532910">
        <ele>8.2</ele>
        <time>2023-01-28T11:12:21Z</time>
      </trkpt>
      <trkpt lat="36.4657490" lon="-6.2532960">
        <ele>8.0</ele>
        <time>2023-01-28T11:12:22Z</time>
      </trkpt>
      <trkpt lat="36.4657740" lon="-6.2533030">
        <ele>7.8</ele>
        <time>2023-01-28T11:12:23Z</time>
      </trkpt>
      <trkpt lat="36.4658120" lon="-6.2533220">
        <ele>8.0</ele>
        <time>2023-01-28T11:12:24Z</time>
      </trkpt>
      <trkpt lat="36.4658480" lon="-6.2533340">
        <ele>7.8</ele>
        <time>2023-01-28T11:12:25Z</time>
      </trkpt>
      <trkpt lat="36.4658880" lon="-6.2533460">
        <ele>7.6</ele>
        <time>2023-01-28T11:12:26Z</time>
      </trkpt>
      <trkpt lat="36.4659210" lon="-6.2533650">
        <ele>7.6</ele>
        <time>2023-01-28T11:12:27Z</time>
      </trkpt>
      <trkpt lat="36.4659550" lon="-6.2533820">
        <ele>7.8</ele>
        <time>2023-01-28T11:12:28Z</time>
      </trkpt>
      <trkpt lat="36.4659780" lon="-6.2534020">
        <ele>8.0</ele>
        <time>2023-01-28T11:12:29Z</time>
      </trkpt>
      <trkpt lat="36.4660060" lon="-6.2534220">
        <ele>7.8</ele>
        <time>2023-01-28T11:12:30Z</time>
      </trkpt>
      <trkpt lat="36.4660320" lon="-6.2534470">
        <ele>7.6</ele>
        <time>2023-01-28T11:12:31Z</time>
      </trkpt>
      <trkpt lat="36.4660690" lon="-6.2534760">
        <ele>7.4</ele>
        <time>2023-01-28T11:12:32Z</time>
      </trkpt>
      <trkpt lat="36.4661050" lon="-6.2534880">
        <ele>7.2</ele>
        <time>2023-01-28T11:12:33Z</time>
      </trkpt>
      <trkpt lat="36.4661470" lon="-6.2535150">
        <ele>7.2</ele>
        <time>2023-01-28T11:12:34Z</time>
      </trkpt>
      <trkpt lat="36.4661740" lon="-6.2535300">
        <ele>7.4</ele>
        <time>2023-01-28T11:12:35Z</time>
      </trkpt>
      <trkpt lat="36.4661980" lon="-6.2535450">
        <ele>7.4</ele>
        <time>2023-01-28T11:12:36Z</time>
      </trkpt>
      <trkpt lat="36.4662240" lon="-6.2535650">
        <ele>7.4</ele>
        <time>2023-01-28T11:12:37Z</time>
      </trkpt>
      <trkpt lat="36.4662490" lon="-6.2535760">
        <ele>7.4</ele>
        <time>2023-01-28T11:12:38Z</time>
      </trkpt>
      <trkpt lat="36.4662820" lon="-6.2535980">
        <ele>7.4</ele>
        <time>2023-01-28T11:12:39Z</time>
      </trkpt>
      <trkpt lat="36.4663110" lon="-6.2536090">
        <ele>7.4</ele>
        <time>2023-01-28T11:12:40Z</time>
      </trkpt>
      <trkpt lat="36.4663430" lon="-6.2536290">
        <ele>7.4</ele>
        <time>2023-01-28T11:12:41Z</time>
      </trkpt>
      <trkpt lat="36.4663710" lon="-6.2536470">
        <ele>7.4</ele>
        <time>2023-01-28T11:12:42Z</time>
      </trkpt>
      <trkpt lat="36.4663970" lon="-6.2536750">
        <ele>7.4</ele>
        <time>2023-01-28T11:12:43Z</time>
      </trkpt>
      <trkpt lat="36.4664220" lon="-6.2536900">
        <ele>7.6</ele>
        <time>2023-01-28T11:12:44Z</time>
      </trkpt>
      <trkpt lat="36.4664540" lon="-6.2537060">
        <ele>7.6</ele>
        <time>2023-01-28T11:12:45Z</time>
      </trkpt>
      <trkpt lat="36.4664870" lon="-6.2537280">
        <ele>7.6</ele>
        <time>2023-01-28T11:12:46Z</time>
      </trkpt>
      <trkpt lat="36.4665260" lon="-6.2537540">
        <ele>7.8</ele>
        <time>2023-01-28T11:12:47Z</time>
      </trkpt>
      <trkpt lat="36.4665570" lon="-6.2537720">
        <ele>7.6</ele>
        <time>2023-01-28T11:12:48Z</time>
      </trkpt>
      <trkpt lat="36.4665980" lon="-6.2537870">
        <ele>7.6</ele>
        <time>2023-01-28T11:12:49Z</time>
      </trkpt>
      <trkpt lat="36.4666470" lon="-6.2537920">
        <ele>7.4</ele>
        <time>2023-01-28T11:12:50Z</time>
      </trkpt>
      <trkpt lat="36.4666730" lon="-6.2538000">
        <ele>7.4</ele>
        <time>2023-01-28T11:12:51Z</time>
      </trkpt>
      <trkpt lat="36.4666950" lon="-6.2537980">
        <ele>7.4</ele>
        <time>2023-01-28T11:12:52Z</time>
      </trkpt>
      <trkpt lat="36.4667370" lon="-6.2537930">
        <ele>7.2</ele>
        <time>2023-01-28T11:12:53Z</time>
      </trkpt>
      <trkpt lat="36.4667750" lon="-6.2538100">
        <ele>7.4</ele>
        <time>2023-01-28T11:12:54Z</time>
      </trkpt>
      <trkpt lat="36.4668060" lon="-6.2538080">
        <ele>7.4</ele>
        <time>2023-01-28T11:12:55Z</time>
      </trkpt>
      <trkpt lat="36.4668380" lon="-6.2538060">
        <ele>7.2</ele>
        <time>2023-01-28T11:12:56Z</time>
      </trkpt>
      <trkpt lat="36.4668700" lon="-6.2538080">
        <ele>7.2</ele>
        <time>2023-01-28T11:12:57Z</time>
      </trkpt>
      <trkpt lat="36.4668960" lon="-6.2538080">
        <ele>7.2</ele>
        <time>2023-01-28T11:12:58Z</time>
      </trkpt>
      <trkpt lat="36.4669190" lon="-6.2538160">
        <ele>7.4</ele>
        <time>2023-01-28T11:12:59Z</time>
      </trkpt>
      <trkpt lat="36.4669470" lon="-6.2538360">
        <ele>7.4</ele>
        <time>2023-01-28T11:13:00Z</time>
      </trkpt>
      <trkpt lat="36.4669820" lon="-6.2538510">
        <ele>7.4</ele>
        <time>2023-01-28T11:13:01Z</time>
      </trkpt>
      <trkpt lat="36.4670110" lon="-6.2538600">
        <ele>7.4</ele>
        <time>2023-01-28T11:13:02Z</time>
      </trkpt>
      <trkpt lat="36.4670420" lon="-6.2538830">
        <ele>7.6</ele>
        <time>2023-01-28T11:13:03Z</time>
      </trkpt>
      <trkpt lat="36.4670700" lon="-6.2539050">
        <ele>7.4</ele>
        <time>2023-01-28T11:13:04Z</time>
      </trkpt>
      <trkpt lat="36.4671000" lon="-6.2539240">
        <ele>7.4</ele>
        <time>2023-01-28T11:13:05Z</time>
      </trkpt>
      <trkpt lat="36.4671300" lon="-6.2539470">
        <ele>7.8</ele>
        <time>2023-01-28T11:13:06Z</time>
      </trkpt>
      <trkpt lat="36.4671630" lon="-6.2539630">
        <ele>7.6</ele>
        <time>2023-01-28T11:13:07Z</time>
      </trkpt>
      <trkpt lat="36.4671850" lon="-6.2539840">
        <ele>7.8</ele>
        <time>2023-01-28T11:13:08Z</time>
      </trkpt>
      <trkpt lat="36.4672100" lon="-6.2540080">
        <ele>7.8</ele>
        <time>2023-01-28T11:13:09Z</time>
      </trkpt>
      <trkpt lat="36.4672400" lon="-6.2540240">
        <ele>7.8</ele>
        <time>2023-01-28T11:13:10Z</time>
      </trkpt>
      <trkpt lat="36.4672680" lon="-6.2540550">
        <ele>7.8</ele>
        <time>2023-01-28T11:13:11Z</time>
      </trkpt>
      <trkpt lat="36.4672930" lon="-6.2540820">
        <ele>7.8</ele>
        <time>2023-01-28T11:13:12Z</time>
      </trkpt>
      <trkpt lat="36.4673240" lon="-6.2541140">
        <ele>7.6</ele>
        <time>2023-01-28T11:13:13Z</time>
      </trkpt>
      <trkpt lat="36.4673520" lon="-6.2541520">
        <ele>7.8</ele>
        <time>2023-01-28T11:13:14Z</time>
      </trkpt>
      <trkpt lat="36.4673750" lon="-6.2542010">
        <ele>8.0</ele>
        <time>2023-01-28T11:13:15Z</time>
      </trkpt>
      <trkpt lat="36.4674060" lon="-6.2542300">
        <ele>7.8</ele>
        <time>2023-01-28T11:13:16Z</time>
      </trkpt>
      <trkpt lat="36.4674330" lon="-6.2542660">
        <ele>7.8</ele>
        <time>2023-01-28T11:13:17Z</time>
      </trkpt>
      <trkpt lat="36.4674590" lon="-6.2542900">
        <ele>8.4</ele>
        <time>2023-01-28T11:13:18Z</time>
      </trkpt>
      <trkpt lat="36.4674690" lon="-6.2543070">
        <ele>9.0</ele>
        <time>2023-01-28T11:13:19Z</time>
      </trkpt>
      <trkpt lat="36.4674870" lon="-6.2543220">
        <ele>9.0</ele>
        <time>2023-01-28T11:13:20Z</time>
      </trkpt>
      <trkpt lat="36.4675000" lon="-6.2543420">
        <ele>9.2</ele>
        <time>2023-01-28T11:13:21Z</time>
      </trkpt>
      <trkpt lat="36.4675020" lon="-6.2543670">
        <ele>9.6</ele>
        <time>2023-01-28T11:13:22Z</time>
      </trkpt>
      <trkpt lat="36.4675030" lon="-6.2543760">
        <ele>9.6</ele>
        <time>2023-01-28T11:13:23Z</time>
      </trkpt>
      <trkpt lat="36.4675060" lon="-6.2543990">
        <ele>9.8</ele>
        <time>2023-01-28T11:13:24Z</time>
      </trkpt>
      <trkpt lat="36.4675050" lon="-6.2544240">
        <ele>10.2</ele>
        <time>2023-01-28T11:13:25Z</time>
      </trkpt>
      <trkpt lat="36.4675040" lon="-6.2544420">
        <ele>10.0</ele>
        <time>2023-01-28T11:13:26Z</time>
      </trkpt>
      <trkpt lat="36.4675090" lon="-6.2544570">
        <ele>10.0</ele>
        <time>2023-01-28T11:13:27Z</time>
      </trkpt>
      <trkpt lat="36.4675240" lon="-6.2544730">
        <ele>10.0</ele>
        <time>2023-01-28T11:13:28Z</time>
      </trkpt>
      <trkpt lat="36.4675460" lon="-6.2544940">
        <ele>9.8</ele>
        <time>2023-01-28T11:13:29Z</time>
      </trkpt>
      <trkpt lat="36.4675580" lon="-6.2544990">
        <ele>9.8</ele>
        <time>2023-01-28T11:13:30Z</time>
      </trkpt>
      <trkpt lat="36.4675780" lon="-6.2545190">
        <ele>9.8</ele>
        <time>2023-01-28T11:13:31Z</time>
      </trkpt>
      <trkpt lat="36.4675900" lon="-6.2545260">
        <ele>9.8</ele>
        <time>2023-01-28T11:13:32Z</time>
      </trkpt>
      <trkpt lat="36.4676140" lon="-6.2545410">
        <ele>10.0</ele>
        <time>2023-01-28T11:13:33Z</time>
      </trkpt>
      <trkpt lat="36.4676390" lon="-6.2545610">
        <ele>10.4</ele>
        <time>2023-01-28T11:13:34Z</time>
      </trkpt>
      <trkpt lat="36.4676610" lon="-6.2545810">
        <ele>10.4</ele>
        <time>2023-01-28T11:13:35Z</time>
      </trkpt>
      <trkpt lat="36.4676790" lon="-6.2545960">
        <ele>10.2</ele>
        <time>2023-01-28T11:13:36Z</time>
      </trkpt>
      <trkpt lat="36.4677020" lon="-6.2546080">
        <ele>10.0</ele>
        <time>2023-01-28T11:13:37Z</time>
      </trkpt>
      <trkpt lat="36.4677240" lon="-6.2546220">
        <ele>9.8</ele>
        <time>2023-01-28T11:13:38Z</time>
      </trkpt>
      <trkpt lat="36.4677480" lon="-6.2546330">
        <ele>10.0</ele>
        <time>2023-01-28T11:13:39Z</time>
      </trkpt>
      <trkpt lat="36.4677800" lon="-6.2546430">
        <ele>10.0</ele>
        <time>2023-01-28T11:13:40Z</time>
      </trkpt>
      <trkpt lat="36.4677980" lon="-6.2546610">
        <ele>10.2</ele>
        <time>2023-01-28T11:13:41Z</time>
      </trkpt>
      <trkpt lat="36.4678180" lon="-6.2546680">
        <ele>10.2</ele>
        <time>2023-01-28T11:13:42Z</time>
      </trkpt>
      <trkpt lat="36.4678520" lon="-6.2546790">
        <ele>10.2</ele>
        <time>2023-01-28T11:13:43Z</time>
      </trkpt>
      <trkpt lat="36.4678720" lon="-6.2546890">
        <ele>10.0</ele>
        <time>2023-01-28T11:13:44Z</time>
      </trkpt>
      <trkpt lat="36.4678970" lon="-6.2547000">
        <ele>9.8</ele>
        <time>2023-01-28T11:13:45Z</time>
      </trkpt>
      <trkpt lat="36.4679320" lon="-6.2547240">
        <ele>9.8</ele>
        <time>2023-01-28T11:13:46Z</time>
      </trkpt>
      <trkpt lat="36.4679620" lon="-6.2547430">
        <ele>9.8</ele>
        <time>2023-01-28T11:13:47Z</time>
      </trkpt>
      <trkpt lat="36.4679890" lon="-6.2547530">
        <ele>9.8</ele>
        <time>2023-01-28T11:13:48Z</time>
      </trkpt>
      <trkpt lat="36.4680220" lon="-6.2547600">
        <ele>9.6</ele>
        <time>2023-01-28T11:13:49Z</time>
      </trkpt>
      <trkpt lat="36.4680550" lon="-6.2547670">
        <ele>9.8</ele>
        <time>2023-01-28T11:13:50Z</time>
      </trkpt>
      <trkpt lat="36.4680800" lon="-6.2547830">
        <ele>10.2</ele>
        <time>2023-01-28T11:13:51Z</time>
      </trkpt>
      <trkpt lat="36.4681140" lon="-6.2548010">
        <ele>10.4</ele>
        <time>2023-01-28T11:13:52Z</time>
      </trkpt>
      <trkpt lat="36.4681430" lon="-6.2548100">
        <ele>10.4</ele>
        <time>2023-01-28T11:13:53Z</time>
      </trkpt>
      <trkpt lat="36.4681660" lon="-6.2548220">
        <ele>10.2</ele>
        <time>2023-01-28T11:13:54Z</time>
      </trkpt>
      <trkpt lat="36.4682020" lon="-6.2548350">
        <ele>10.2</ele>
        <time>2023-01-28T11:13:55Z</time>
      </trkpt>
      <trkpt lat="36.4682270" lon="-6.2548490">
        <ele>10.4</ele>
        <time>2023-01-28T11:13:56Z</time>
      </trkpt>
      <trkpt lat="36.4682520" lon="-6.2548660">
        <ele>10.4</ele>
        <time>2023-01-28T11:13:57Z</time>
      </trkpt>
      <trkpt lat="36.4682830" lon="-6.2548850">
        <ele>10.2</ele>
        <time>2023-01-28T11:13:58Z</time>
      </trkpt>
      <trkpt lat="36.4683120" lon="-6.2548990">
        <ele>10.0</ele>
        <time>2023-01-28T11:13:59Z</time>
      </trkpt>
      <trkpt lat="36.4683370" lon="-6.2549140">
        <ele>10.0</ele>
        <time>2023-01-28T11:14:00Z</time>
      </trkpt>
      <trkpt lat="36.4683750" lon="-6.2549340">
        <ele>9.8</ele>
        <time>2023-01-28T11:14:01Z</time>
      </trkpt>
      <trkpt lat="36.4684070" lon="-6.2549500">
        <ele>9.8</ele>
        <time>2023-01-28T11:14:02Z</time>
      </trkpt>
      <trkpt lat="36.4684400" lon="-6.2549690">
        <ele>10.0</ele>
        <time>2023-01-28T11:14:03Z</time>
      </trkpt>
      <trkpt lat="36.4684770" lon="-6.2549840">
        <ele>10.0</ele>
        <time>2023-01-28T11:14:04Z</time>
      </trkpt>
      <trkpt lat="36.4684940" lon="-6.2549910">
        <ele>9.8</ele>
        <time>2023-01-28T11:14:05Z</time>
      </trkpt>
      <trkpt lat="36.4685240" lon="-6.2550160">
        <ele>10.0</ele>
        <time>2023-01-28T11:14:06Z</time>
      </trkpt>
      <trkpt lat="36.4685490" lon="-6.2550320">
        <ele>10.0</ele>
        <time>2023-01-28T11:14:07Z</time>
      </trkpt>
      <trkpt lat="36.4685810" lon="-6.2550430">
        <ele>10.2</ele>
        <time>2023-01-28T11:14:08Z</time>
      </trkpt>
      <trkpt lat="36.4686020" lon="-6.2550550">
        <ele>10.0</ele>
        <time>2023-01-28T11:14:09Z</time>
      </trkpt>
      <trkpt lat="36.4686270" lon="-6.2550740">
        <ele>10.0</ele>
        <time>2023-01-28T11:14:10Z</time>
      </trkpt>
      <trkpt lat="36.4686620" lon="-6.2550900">
        <ele>10.0</ele>
        <time>2023-01-28T11:14:11Z</time>
      </trkpt>
      <trkpt lat="36.4686820" lon="-6.2550950">
        <ele>9.6</ele>
        <time>2023-01-28T11:14:12Z</time>
      </trkpt>
      <trkpt lat="36.4687010" lon="-6.2551140">
        <ele>9.6</ele>
        <time>2023-01-28T11:14:13Z</time>
      </trkpt>
      <trkpt lat="36.4687310" lon="-6.2551280">
        <ele>9.8</ele>
        <time>2023-01-28T11:14:14Z</time>
      </trkpt>
      <trkpt lat="36.4687590" lon="-6.2551410">
        <ele>10.0</ele>
        <time>2023-01-28T11:14:15Z</time>
      </trkpt>
      <trkpt lat="36.4687950" lon="-6.2551540">
        <ele>9.8</ele>
        <time>2023-01-28T11:14:16Z</time>
      </trkpt>
      <trkpt lat="36.4688210" lon="-6.2551670">
        <ele>9.8</ele>
        <time>2023-01-28T11:14:17Z</time>
      </trkpt>
      <trkpt lat="36.4688460" lon="-6.2551810">
        <ele>9.8</ele>
        <time>2023-01-28T11:14:18Z</time>
      </trkpt>
      <trkpt lat="36.4688780" lon="-6.2551990">
        <ele>10.0</ele>
        <time>2023-01-28T11:14:19Z</time>
      </trkpt>
      <trkpt lat="36.4689120" lon="-6.2552220">
        <ele>9.8</ele>
        <time>2023-01-28T11:14:20Z</time>
      </trkpt>
      <trkpt lat="36.4689400" lon="-6.2552430">
        <ele>9.8</ele>
        <time>2023-01-28T11:14:21Z</time>
      </trkpt>
      <trkpt lat="36.4689740" lon="-6.2552700">
        <ele>9.8</ele>
        <time>2023-01-28T11:14:22Z</time>
      </trkpt>
      <trkpt lat="36.4690000" lon="-6.2552940">
        <ele>9.8</ele>
        <time>2023-01-28T11:14:23Z</time>
      </trkpt>
      <trkpt lat="36.4690250" lon="-6.2553110">
        <ele>9.8</ele>
        <time>2023-01-28T11:14:24Z</time>
      </trkpt>
      <trkpt lat="36.4690520" lon="-6.2553300">
        <ele>9.8</ele>
        <time>2023-01-28T11:14:25Z</time>
      </trkpt>
      <trkpt lat="36.4690690" lon="-6.2553450">
        <ele>10.0</ele>
        <time>2023-01-28T11:14:26Z</time>
      </trkpt>
      <trkpt lat="36.4691060" lon="-6.2553570">
        <ele>10.0</ele>
        <time>2023-01-28T11:14:27Z</time>
      </trkpt>
      <trkpt lat="36.4691390" lon="-6.2553700">
        <ele>10.0</ele>
        <time>2023-01-28T11:14:28Z</time>
      </trkpt>
      <trkpt lat="36.4691710" lon="-6.2553900">
        <ele>9.8</ele>
        <time>2023-01-28T11:14:29Z</time>
      </trkpt>
      <trkpt lat="36.4691980" lon="-6.2554050">
        <ele>9.8</ele>
        <time>2023-01-28T11:14:30Z</time>
      </trkpt>
      <trkpt lat="36.4692310" lon="-6.2554290">
        <ele>9.8</ele>
        <time>2023-01-28T11:14:31Z</time>
      </trkpt>
      <trkpt lat="36.4692670" lon="-6.2554450">
        <ele>9.8</ele>
        <time>2023-01-28T11:14:32Z</time>
      </trkpt>
      <trkpt lat="36.4693050" lon="-6.2554570">
        <ele>9.8</ele>
        <time>2023-01-28T11:14:33Z</time>
      </trkpt>
      <trkpt lat="36.4693430" lon="-6.2554760">
        <ele>9.8</ele>
        <time>2023-01-28T11:14:34Z</time>
      </trkpt>
      <trkpt lat="36.4693730" lon="-6.2555000">
        <ele>9.8</ele>
        <time>2023-01-28T11:14:35Z</time>
      </trkpt>
      <trkpt lat="36.4694170" lon="-6.2555290">
        <ele>10.0</ele>
        <time>2023-01-28T11:14:36Z</time>
      </trkpt>
      <trkpt lat="36.4694490" lon="-6.2555450">
        <ele>10.0</ele>
        <time>2023-01-28T11:14:37Z</time>
      </trkpt>
      <trkpt lat="36.4694850" lon="-6.2555630">
        <ele>10.0</ele>
        <time>2023-01-28T11:14:38Z</time>
      </trkpt>
      <trkpt lat="36.4695150" lon="-6.2555840">
        <ele>10.0</ele>
        <time>2023-01-28T11:14:39Z</time>
      </trkpt>
      <trkpt lat="36.4695420" lon="-6.2555980">
        <ele>10.2</ele>
        <time>2023-01-28T11:14:40Z</time>
      </trkpt>
      <trkpt lat="36.4695640" lon="-6.2556140">
        <ele>10.6</ele>
        <time>2023-01-28T11:14:41Z</time>
      </trkpt>
      <trkpt lat="36.4695980" lon="-6.2556410">
        <ele>10.2</ele>
        <time>2023-01-28T11:14:42Z</time>
      </trkpt>
      <trkpt lat="36.4696310" lon="-6.2556660">
        <ele>10.0</ele>
        <time>2023-01-28T11:14:43Z</time>
      </trkpt>
      <trkpt lat="36.4696560" lon="-6.2556890">
        <ele>10.0</ele>
        <time>2023-01-28T11:14:44Z</time>
      </trkpt>
      <trkpt lat="36.4696870" lon="-6.2557070">
        <ele>10.0</ele>
        <time>2023-01-28T11:14:45Z</time>
      </trkpt>
      <trkpt lat="36.4697170" lon="-6.2557190">
        <ele>9.8</ele>
        <time>2023-01-28T11:14:46Z</time>
      </trkpt>
      <trkpt lat="36.4697500" lon="-6.2557400">
        <ele>10.0</ele>
        <time>2023-01-28T11:14:47Z</time>
      </trkpt>
      <trkpt lat="36.4697760" lon="-6.2557540">
        <ele>10.0</ele>
        <time>2023-01-28T11:14:48Z</time>
      </trkpt>
      <trkpt lat="36.4698010" lon="-6.2557690">
        <ele>10.0</ele>
        <time>2023-01-28T11:14:49Z</time>
      </trkpt>
      <trkpt lat="36.4698370" lon="-6.2557870">
        <ele>10.0</ele>
        <time>2023-01-28T11:14:50Z</time>
      </trkpt>
      <trkpt lat="36.4698660" lon="-6.2558000">
        <ele>10.2</ele>
        <time>2023-01-28T11:14:51Z</time>
      </trkpt>
      <trkpt lat="36.4699030" lon="-6.2558190">
        <ele>10.4</ele>
        <time>2023-01-28T11:14:52Z</time>
      </trkpt>
      <trkpt lat="36.4699350" lon="-6.2558220">
        <ele>10.2</ele>
        <time>2023-01-28T11:14:53Z</time>
      </trkpt>
      <trkpt lat="36.4699730" lon="-6.2558380">
        <ele>10.0</ele>
        <time>2023-01-28T11:14:54Z</time>
      </trkpt>
      <trkpt lat="36.4700110" lon="-6.2558660">
        <ele>10.0</ele>
        <time>2023-01-28T11:14:55Z</time>
      </trkpt>
      <trkpt lat="36.4700510" lon="-6.2558880">
        <ele>10.0</ele>
        <time>2023-01-28T11:14:56Z</time>
      </trkpt>
      <trkpt lat="36.4700870" lon="-6.2559040">
        <ele>10.0</ele>
        <time>2023-01-28T11:14:57Z</time>
      </trkpt>
      <trkpt lat="36.4701010" lon="-6.2559300">
        <ele>10.0</ele>
        <time>2023-01-28T11:14:58Z</time>
      </trkpt>
      <trkpt lat="36.4701340" lon="-6.2559410">
        <ele>10.0</ele>
        <time>2023-01-28T11:14:59Z</time>
      </trkpt>
      <trkpt lat="36.4701680" lon="-6.2559620">
        <ele>10.2</ele>
        <time>2023-01-28T11:15:00Z</time>
      </trkpt>
      <trkpt lat="36.4701920" lon="-6.2559800">
        <ele>10.2</ele>
        <time>2023-01-28T11:15:01Z</time>
      </trkpt>
      <trkpt lat="36.4702220" lon="-6.2560010">
        <ele>10.0</ele>
        <time>2023-01-28T11:15:02Z</time>
      </trkpt>
      <trkpt lat="36.4702490" lon="-6.2560330">
        <ele>10.0</ele>
        <time>2023-01-28T11:15:03Z</time>
      </trkpt>
      <trkpt lat="36.4702720" lon="-6.2560540">
        <ele>10.4</ele>
        <time>2023-01-28T11:15:04Z</time>
      </trkpt>
      <trkpt lat="36.4702940" lon="-6.2560700">
        <ele>10.4</ele>
        <time>2023-01-28T11:15:05Z</time>
      </trkpt>
      <trkpt lat="36.4703280" lon="-6.2560870">
        <ele>10.4</ele>
        <time>2023-01-28T11:15:06Z</time>
      </trkpt>
      <trkpt lat="36.4703560" lon="-6.2561060">
        <ele>10.2</ele>
        <time>2023-01-28T11:15:07Z</time>
      </trkpt>
      <trkpt lat="36.4703920" lon="-6.2561160">
        <ele>10.2</ele>
        <time>2023-01-28T11:15:08Z</time>
      </trkpt>
      <trkpt lat="36.4704250" lon="-6.2561310">
        <ele>10.2</ele>
        <time>2023-01-28T11:15:09Z</time>
      </trkpt>
      <trkpt lat="36.4704520" lon="-6.2561390">
        <ele>10.4</ele>
        <time>2023-01-28T11:15:10Z</time>
      </trkpt>
      <trkpt lat="36.4704810" lon="-6.2561470">
        <ele>10.4</ele>
        <time>2023-01-28T11:15:11Z</time>
      </trkpt>
      <trkpt lat="36.4705070" lon="-6.2561630">
        <ele>10.2</ele>
        <time>2023-01-28T11:15:12Z</time>
      </trkpt>
      <trkpt lat="36.4705340" lon="-6.2561750">
        <ele>10.2</ele>
        <time>2023-01-28T11:15:13Z</time>
      </trkpt>
      <trkpt lat="36.4705600" lon="-6.2561930">
        <ele>10.4</ele>
        <time>2023-01-28T11:15:14Z</time>
      </trkpt>
      <trkpt lat="36.4705870" lon="-6.2562150">
        <ele>10.2</ele>
        <time>2023-01-28T11:15:15Z</time>
      </trkpt>
      <trkpt lat="36.4706120" lon="-6.2562270">
        <ele>10.2</ele>
        <time>2023-01-28T11:15:16Z</time>
      </trkpt>
      <trkpt lat="36.4706360" lon="-6.2562410">
        <ele>10.2</ele>
        <time>2023-01-28T11:15:17Z</time>
      </trkpt>
      <trkpt lat="36.4706680" lon="-6.2562610">
        <ele>10.2</ele>
        <time>2023-01-28T11:15:18Z</time>
      </trkpt>
      <trkpt lat="36.4707050" lon="-6.2562690">
        <ele>10.6</ele>
        <time>2023-01-28T11:15:19Z</time>
      </trkpt>
      <trkpt lat="36.4707350" lon="-6.2562920">
        <ele>10.4</ele>
        <time>2023-01-28T11:15:20Z</time>
      </trkpt>
      <trkpt lat="36.4707790" lon="-6.2563060">
        <ele>10.4</ele>
        <time>2023-01-28T11:15:21Z</time>
      </trkpt>
      <trkpt lat="36.4708110" lon="-6.2563190">
        <ele>10.6</ele>
        <time>2023-01-28T11:15:22Z</time>
      </trkpt>
      <trkpt lat="36.4708460" lon="-6.2563360">
        <ele>10.4</ele>
        <time>2023-01-28T11:15:23Z</time>
      </trkpt>
      <trkpt lat="36.4708770" lon="-6.2563550">
        <ele>10.2</ele>
        <time>2023-01-28T11:15:24Z</time>
      </trkpt>
      <trkpt lat="36.4709080" lon="-6.2563700">
        <ele>10.2</ele>
        <time>2023-01-28T11:15:25Z</time>
      </trkpt>
      <trkpt lat="36.4709310" lon="-6.2563870">
        <ele>10.4</ele>
        <time>2023-01-28T11:15:26Z</time>
      </trkpt>
      <trkpt lat="36.4709620" lon="-6.2564020">
        <ele>10.0</ele>
        <time>2023-01-28T11:15:27Z</time>
      </trkpt>
      <trkpt lat="36.4709890" lon="-6.2564180">
        <ele>10.2</ele>
        <time>2023-01-28T11:15:28Z</time>
      </trkpt>
      <trkpt lat="36.4710180" lon="-6.2564190">
        <ele>10.2</ele>
        <time>2023-01-28T11:15:29Z</time>
      </trkpt>
      <trkpt lat="36.4710530" lon="-6.2564220">
        <ele>10.4</ele>
        <time>2023-01-28T11:15:30Z</time>
      </trkpt>
      <trkpt lat="36.4710800" lon="-6.2564350">
        <ele>10.4</ele>
        <time>2023-01-28T11:15:31Z</time>
      </trkpt>
      <trkpt lat="36.4711100" lon="-6.2564480">
        <ele>10.4</ele>
        <time>2023-01-28T11:15:32Z</time>
      </trkpt>
      <trkpt lat="36.4711410" lon="-6.2564600">
        <ele>10.6</ele>
        <time>2023-01-28T11:15:33Z</time>
      </trkpt>
      <trkpt lat="36.4711660" lon="-6.2564730">
        <ele>10.4</ele>
        <time>2023-01-28T11:15:34Z</time>
      </trkpt>
      <trkpt lat="36.4711870" lon="-6.2564900">
        <ele>10.6</ele>
        <time>2023-01-28T11:15:35Z</time>
      </trkpt>
      <trkpt lat="36.4712060" lon="-6.2565150">
        <ele>10.6</ele>
        <time>2023-01-28T11:15:36Z</time>
      </trkpt>
      <trkpt lat="36.4712360" lon="-6.2565300">
        <ele>10.4</ele>
        <time>2023-01-28T11:15:37Z</time>
      </trkpt>
      <trkpt lat="36.4712640" lon="-6.2565420">
        <ele>10.4</ele>
        <time>2023-01-28T11:15:38Z</time>
      </trkpt>
      <trkpt lat="36.4712840" lon="-6.2565610">
        <ele>10.6</ele>
        <time>2023-01-28T11:15:39Z</time>
      </trkpt>
      <trkpt lat="36.4713060" lon="-6.2565800">
        <ele>10.6</ele>
        <time>2023-01-28T11:15:40Z</time>
      </trkpt>
      <trkpt lat="36.4713270" lon="-6.2565950">
        <ele>10.8</ele>
        <time>2023-01-28T11:15:41Z</time>
      </trkpt>
      <trkpt lat="36.4713470" lon="-6.2566140">
        <ele>11.0</ele>
        <time>2023-01-28T11:15:42Z</time>
      </trkpt>
      <trkpt lat="36.4713650" lon="-6.2566270">
        <ele>11.2</ele>
        <time>2023-01-28T11:15:43Z</time>
      </trkpt>
      <trkpt lat="36.4713950" lon="-6.2566460">
        <ele>10.8</ele>
        <time>2023-01-28T11:15:44Z</time>
      </trkpt>
      <trkpt lat="36.4714250" lon="-6.2566590">
        <ele>10.8</ele>
        <time>2023-01-28T11:15:45Z</time>
      </trkpt>
      <trkpt lat="36.4714530" lon="-6.2566830">
        <ele>10.8</ele>
        <time>2023-01-28T11:15:46Z</time>
      </trkpt>
      <trkpt lat="36.4714870" lon="-6.2567020">
        <ele>10.8</ele>
        <time>2023-01-28T11:15:47Z</time>
      </trkpt>
      <trkpt lat="36.4715180" lon="-6.2567140">
        <ele>10.8</ele>
        <time>2023-01-28T11:15:48Z</time>
      </trkpt>
      <trkpt lat="36.4715470" lon="-6.2567240">
        <ele>10.6</ele>
        <time>2023-01-28T11:15:49Z</time>
      </trkpt>
      <trkpt lat="36.4715710" lon="-6.2567380">
        <ele>10.6</ele>
        <time>2023-01-28T11:15:50Z</time>
      </trkpt>
      <trkpt lat="36.4715970" lon="-6.2567510">
        <ele>10.6</ele>
        <time>2023-01-28T11:15:51Z</time>
      </trkpt>
      <trkpt lat="36.4716120" lon="-6.2567630">
        <ele>10.8</ele>
        <time>2023-01-28T11:15:52Z</time>
      </trkpt>
      <trkpt lat="36.4716430" lon="-6.2567730">
        <ele>10.8</ele>
        <time>2023-01-28T11:15:53Z</time>
      </trkpt>
      <trkpt lat="36.4716720" lon="-6.2567940">
        <ele>10.6</ele>
        <time>2023-01-28T11:15:54Z</time>
      </trkpt>
      <trkpt lat="36.4716950" lon="-6.2568110">
        <ele>10.8</ele>
        <time>2023-01-28T11:15:55Z</time>
      </trkpt>
      <trkpt lat="36.4717240" lon="-6.2568250">
        <ele>10.8</ele>
        <time>2023-01-28T11:15:56Z</time>
      </trkpt>
      <trkpt lat="36.4717480" lon="-6.2568430">
        <ele>11.0</ele>
        <time>2023-01-28T11:15:57Z</time>
      </trkpt>
      <trkpt lat="36.4717780" lon="-6.2568580">
        <ele>10.8</ele>
        <time>2023-01-28T11:15:58Z</time>
      </trkpt>
      <trkpt lat="36.4718030" lon="-6.2568700">
        <ele>10.6</ele>
        <time>2023-01-28T11:15:59Z</time>
      </trkpt>
      <trkpt lat="36.4718290" lon="-6.2568810">
        <ele>10.6</ele>
        <time>2023-01-28T11:16:00Z</time>
      </trkpt>
      <trkpt lat="36.4718490" lon="-6.2568970">
        <ele>10.8</ele>
        <time>2023-01-28T11:16:01Z</time>
      </trkpt>
      <trkpt lat="36.4718740" lon="-6.2569150">
        <ele>10.6</ele>
        <time>2023-01-28T11:16:02Z</time>
      </trkpt>
      <trkpt lat="36.4719010" lon="-6.2569170">
        <ele>10.6</ele>
        <time>2023-01-28T11:16:03Z</time>
      </trkpt>
      <trkpt lat="36.4719280" lon="-6.2569280">
        <ele>10.6</ele>
        <time>2023-01-28T11:16:04Z</time>
      </trkpt>
      <trkpt lat="36.4719560" lon="-6.2569450">
        <ele>10.6</ele>
        <time>2023-01-28T11:16:05Z</time>
      </trkpt>
      <trkpt lat="36.4719760" lon="-6.2569550">
        <ele>10.6</ele>
        <time>2023-01-28T11:16:06Z</time>
      </trkpt>
      <trkpt lat="36.4720070" lon="-6.2569640">
        <ele>10.8</ele>
        <time>2023-01-28T11:16:07Z</time>
      </trkpt>
      <trkpt lat="36.4720340" lon="-6.2569810">
        <ele>11.0</ele>
        <time>2023-01-28T11:16:08Z</time>
      </trkpt>
      <trkpt lat="36.4720600" lon="-6.2569930">
        <ele>11.0</ele>
        <time>2023-01-28T11:16:09Z</time>
      </trkpt>
      <trkpt lat="36.4721020" lon="-6.2570110">
        <ele>10.8</ele>
        <time>2023-01-28T11:16:10Z</time>
      </trkpt>
      <trkpt lat="36.4721340" lon="-6.2570400">
        <ele>10.8</ele>
        <time>2023-01-28T11:16:11Z</time>
      </trkpt>
      <trkpt lat="36.4721710" lon="-6.2570700">
        <ele>10.8</ele>
        <time>2023-01-28T11:16:12Z</time>
      </trkpt>
      <trkpt lat="36.4722080" lon="-6.2570870">
        <ele>10.8</ele>
        <time>2023-01-28T11:16:13Z</time>
      </trkpt>
      <trkpt lat="36.4722370" lon="-6.2571080">
        <ele>11.0</ele>
        <time>2023-01-28T11:16:14Z</time>
      </trkpt>
      <trkpt lat="36.4722670" lon="-6.2571210">
        <ele>11.2</ele>
        <time>2023-01-28T11:16:15Z</time>
      </trkpt>
      <trkpt lat="36.4722890" lon="-6.2571290">
        <ele>11.2</ele>
        <time>2023-01-28T11:16:16Z</time>
      </trkpt>
      <trkpt lat="36.4723200" lon="-6.2571460">
        <ele>11.0</ele>
        <time>2023-01-28T11:16:17Z</time>
      </trkpt>
      <trkpt lat="36.4723380" lon="-6.2571540">
        <ele>11.0</ele>
        <time>2023-01-28T11:16:18Z</time>
      </trkpt>
      <trkpt lat="36.4723600" lon="-6.2571760">
        <ele>11.2</ele>
        <time>2023-01-28T11:16:19Z</time>
      </trkpt>
      <trkpt lat="36.4723880" lon="-6.2571850">
        <ele>11.4</ele>
        <time>2023-01-28T11:16:20Z</time>
      </trkpt>
      <trkpt lat="36.4724130" lon="-6.2571950">
        <ele>11.0</ele>
        <time>2023-01-28T11:16:21Z</time>
      </trkpt>
      <trkpt lat="36.4724360" lon="-6.2572150">
        <ele>11.0</ele>
        <time>2023-01-28T11:16:22Z</time>
      </trkpt>
      <trkpt lat="36.4724530" lon="-6.2572250">
        <ele>11.2</ele>
        <time>2023-01-28T11:16:23Z</time>
      </trkpt>
      <trkpt lat="36.4724900" lon="-6.2572420">
        <ele>11.2</ele>
        <time>2023-01-28T11:16:24Z</time>
      </trkpt>
      <trkpt lat="36.4725230" lon="-6.2572540">
        <ele>11.4</ele>
        <time>2023-01-28T11:16:25Z</time>
      </trkpt>
      <trkpt lat="36.4725430" lon="-6.2572700">
        <ele>11.4</ele>
        <time>2023-01-28T11:16:26Z</time>
      </trkpt>
      <trkpt lat="36.4725780" lon="-6.2572880">
        <ele>11.4</ele>
        <time>2023-01-28T11:16:27Z</time>
      </trkpt>
      <trkpt lat="36.4725960" lon="-6.2573050">
        <ele>11.4</ele>
        <time>2023-01-28T11:16:28Z</time>
      </trkpt>
      <trkpt lat="36.4726210" lon="-6.2573190">
        <ele>11.4</ele>
        <time>2023-01-28T11:16:29Z</time>
      </trkpt>
      <trkpt lat="36.4726450" lon="-6.2573350">
        <ele>11.6</ele>
        <time>2023-01-28T11:16:30Z</time>
      </trkpt>
      <trkpt lat="36.4726610" lon="-6.2573400">
        <ele>11.6</ele>
        <time>2023-01-28T11:16:31Z</time>
      </trkpt>
      <trkpt lat="36.4726700" lon="-6.2573540">
        <ele>11.4</ele>
        <time>2023-01-28T11:16:32Z</time>
      </trkpt>
      <trkpt lat="36.4726840" lon="-6.2573640">
        <ele>11.0</ele>
        <time>2023-01-28T11:16:33Z</time>
      </trkpt>
      <trkpt lat="36.4727120" lon="-6.2573890">
        <ele>11.2</ele>
        <time>2023-01-28T11:16:34Z</time>
      </trkpt>
      <trkpt lat="36.4727200" lon="-6.2573970">
        <ele>11.6</ele>
        <time>2023-01-28T11:16:35Z</time>
      </trkpt>
      <trkpt lat="36.4727360" lon="-6.2574050">
        <ele>11.2</ele>
        <time>2023-01-28T11:16:36Z</time>
      </trkpt>
      <trkpt lat="36.4727510" lon="-6.2574240">
        <ele>11.6</ele>
        <time>2023-01-28T11:16:37Z</time>
      </trkpt>
      <trkpt lat="36.4727540" lon="-6.2574330">
        <ele>11.4</ele>
        <time>2023-01-28T11:16:38Z</time>
      </trkpt>
      <trkpt lat="36.4727620" lon="-6.2574350">
        <ele>11.2</ele>
        <time>2023-01-28T11:16:39Z</time>
      </trkpt>
      <trkpt lat="36.4727630" lon="-6.2574300">
        <ele>10.6</ele>
        <time>2023-01-28T11:16:40Z</time>
      </trkpt>
      <trkpt lat="36.4727670" lon="-6.2574310">
        <ele>10.0</ele>
        <time>2023-01-28T11:16:41Z</time>
      </trkpt>
      <trkpt lat="36.4727680" lon="-6.2574330">
        <ele>10.6</ele>
        <time>2023-01-28T11:16:42Z</time>
      </trkpt>
      <trkpt lat="36.4727680" lon="-6.2574380">
        <ele>12.2</ele>
        <time>2023-01-28T11:16:43Z</time>
      </trkpt>
      <trkpt lat="36.4727770" lon="-6.2574420">
        <ele>11.6</ele>
        <time>2023-01-28T11:16:44Z</time>
      </trkpt>
      <trkpt lat="36.4727810" lon="-6.2574350">
        <ele>11.8</ele>
        <time>2023-01-28T11:16:45Z</time>
      </trkpt>
      <trkpt lat="36.4727900" lon="-6.2574390">
        <ele>10.4</ele>
        <time>2023-01-28T11:16:46Z</time>
      </trkpt>
      <trkpt lat="36.4727760" lon="-6.2574280">
        <ele>11.8</ele>
        <time>2023-01-28T11:16:47Z</time>
      </trkpt>
      <trkpt lat="36.4727860" lon="-6.2574520">
        <ele>11.8</ele>
        <time>2023-01-28T11:16:48Z</time>
      </trkpt>
      <trkpt lat="36.4727830" lon="-6.2574570">
        <ele>11.6</ele>
        <time>2023-01-28T11:16:49Z</time>
      </trkpt>
      <trkpt lat="36.4727740" lon="-6.2574530">
        <ele>11.6</ele>
        <time>2023-01-28T11:16:50Z</time>
      </trkpt>
      <trkpt lat="36.4727660" lon="-6.2574580">
        <ele>11.6</ele>
        <time>2023-01-28T11:16:51Z</time>
      </trkpt>
      <trkpt lat="36.4727610" lon="-6.2574600">
        <ele>12.4</ele>
        <time>2023-01-28T11:16:52Z</time>
      </trkpt>
      <trkpt lat="36.4727660" lon="-6.2574530">
        <ele>12.2</ele>
        <time>2023-01-28T11:16:53Z</time>
      </trkpt>
      <trkpt lat="36.4727770" lon="-6.2574410">
        <ele>11.6</ele>
        <time>2023-01-28T11:16:55Z</time>
      </trkpt>
      <trkpt lat="36.4727850" lon="-6.2574440">
        <ele>12.8</ele>
        <time>2023-01-28T11:16:56Z</time>
      </trkpt>
      <trkpt lat="36.4727920" lon="-6.2574450">
        <ele>11.6</ele>
        <time>2023-01-28T11:16:57Z</time>
      </trkpt>
      <trkpt lat="36.4728190" lon="-6.2574590">
        <ele>11.2</ele>
        <time>2023-01-28T11:16:58Z</time>
      </trkpt>
      <trkpt lat="36.4728270" lon="-6.2574680">
        <ele>11.4</ele>
        <time>2023-01-28T11:16:59Z</time>
      </trkpt>
      <trkpt lat="36.4728410" lon="-6.2574760">
        <ele>11.2</ele>
        <time>2023-01-28T11:17:00Z</time>
      </trkpt>
      <trkpt lat="36.4728590" lon="-6.2574870">
        <ele>11.4</ele>
        <time>2023-01-28T11:17:01Z</time>
      </trkpt>
      <trkpt lat="36.4728750" lon="-6.2575050">
        <ele>11.8</ele>
        <time>2023-01-28T11:17:02Z</time>
      </trkpt>
      <trkpt lat="36.4728920" lon="-6.2575120">
        <ele>12.0</ele>
        <time>2023-01-28T11:17:03Z</time>
      </trkpt>
      <trkpt lat="36.4729190" lon="-6.2575270">
        <ele>12.0</ele>
        <time>2023-01-28T11:17:04Z</time>
      </trkpt>
      <trkpt lat="36.4729360" lon="-6.2575370">
        <ele>12.2</ele>
        <time>2023-01-28T11:17:05Z</time>
      </trkpt>
      <trkpt lat="36.4729510" lon="-6.2575440">
        <ele>11.6</ele>
        <time>2023-01-28T11:17:06Z</time>
      </trkpt>
      <trkpt lat="36.4729800" lon="-6.2575590">
        <ele>11.2</ele>
        <time>2023-01-28T11:17:07Z</time>
      </trkpt>
      <trkpt lat="36.4730050" lon="-6.2575730">
        <ele>11.0</ele>
        <time>2023-01-28T11:17:08Z</time>
      </trkpt>
      <trkpt lat="36.4730290" lon="-6.2575840">
        <ele>11.6</ele>
        <time>2023-01-28T11:17:09Z</time>
      </trkpt>
      <trkpt lat="36.4730590" lon="-6.2575950">
        <ele>11.4</ele>
        <time>2023-01-28T11:17:10Z</time>
      </trkpt>
      <trkpt lat="36.4730900" lon="-6.2576050">
        <ele>11.2</ele>
        <time>2023-01-28T11:17:11Z</time>
      </trkpt>
      <trkpt lat="36.4731070" lon="-6.2576210">
        <ele>11.4</ele>
        <time>2023-01-28T11:17:12Z</time>
      </trkpt>
      <trkpt lat="36.4731350" lon="-6.2576390">
        <ele>11.2</ele>
        <time>2023-01-28T11:17:13Z</time>
      </trkpt>
      <trkpt lat="36.4731630" lon="-6.2576500">
        <ele>11.2</ele>
        <time>2023-01-28T11:17:14Z</time>
      </trkpt>
      <trkpt lat="36.4731810" lon="-6.2576600">
        <ele>10.8</ele>
        <time>2023-01-28T11:17:15Z</time>
      </trkpt>
      <trkpt lat="36.4732130" lon="-6.2576770">
        <ele>10.8</ele>
        <time>2023-01-28T11:17:16Z</time>
      </trkpt>
      <trkpt lat="36.4732310" lon="-6.2576820">
        <ele>11.2</ele>
        <time>2023-01-28T11:17:17Z</time>
      </trkpt>
      <trkpt lat="36.4732500" lon="-6.2577040">
        <ele>11.0</ele>
        <time>2023-01-28T11:17:18Z</time>
      </trkpt>
      <trkpt lat="36.4732670" lon="-6.2577110">
        <ele>10.8</ele>
        <time>2023-01-28T11:17:19Z</time>
      </trkpt>
      <trkpt lat="36.4732970" lon="-6.2577310">
        <ele>11.4</ele>
        <time>2023-01-28T11:17:20Z</time>
      </trkpt>
      <trkpt lat="36.4733210" lon="-6.2577480">
        <ele>11.2</ele>
        <time>2023-01-28T11:17:21Z</time>
      </trkpt>
      <trkpt lat="36.4733370" lon="-6.2577700">
        <ele>10.8</ele>
        <time>2023-01-28T11:17:22Z</time>
      </trkpt>
      <trkpt lat="36.4733580" lon="-6.2577710">
        <ele>11.0</ele>
        <time>2023-01-28T11:17:23Z</time>
      </trkpt>
      <trkpt lat="36.4733700" lon="-6.2577900">
        <ele>11.0</ele>
        <time>2023-01-28T11:17:24Z</time>
      </trkpt>
      <trkpt lat="36.4733820" lon="-6.2578010">
        <ele>11.0</ele>
        <time>2023-01-28T11:17:25Z</time>
      </trkpt>
      <trkpt lat="36.4734030" lon="-6.2578130">
        <ele>11.2</ele>
        <time>2023-01-28T11:17:26Z</time>
      </trkpt>
      <trkpt lat="36.4734240" lon="-6.2578210">
        <ele>11.6</ele>
        <time>2023-01-28T11:17:27Z</time>
      </trkpt>
      <trkpt lat="36.4734510" lon="-6.2578420">
        <ele>11.2</ele>
        <time>2023-01-28T11:17:28Z</time>
      </trkpt>
      <trkpt lat="36.4734740" lon="-6.2578580">
        <ele>11.2</ele>
        <time>2023-01-28T11:17:29Z</time>
      </trkpt>
      <trkpt lat="36.4734990" lon="-6.2578660">
        <ele>11.0</ele>
        <time>2023-01-28T11:17:30Z</time>
      </trkpt>
      <trkpt lat="36.4735300" lon="-6.2578940">
        <ele>11.0</ele>
        <time>2023-01-28T11:17:31Z</time>
      </trkpt>
      <trkpt lat="36.4735580" lon="-6.2579100">
        <ele>11.0</ele>
        <time>2023-01-28T11:17:32Z</time>
      </trkpt>
      <trkpt lat="36.4735860" lon="-6.2579190">
        <ele>11.2</ele>
        <time>2023-01-28T11:17:33Z</time>
      </trkpt>
      <trkpt lat="36.4736110" lon="-6.2579380">
        <ele>11.4</ele>
        <time>2023-01-28T11:17:34Z</time>
      </trkpt>
      <trkpt lat="36.4736350" lon="-6.2579550">
        <ele>11.2</ele>
        <time>2023-01-28T11:17:35Z</time>
      </trkpt>
      <trkpt lat="36.4736600" lon="-6.2579690">
        <ele>11.0</ele>
        <time>2023-01-28T11:17:36Z</time>
      </trkpt>
      <trkpt lat="36.4736890" lon="-6.2579920">
        <ele>10.8</ele>
        <time>2023-01-28T11:17:37Z</time>
      </trkpt>
      <trkpt lat="36.4737140" lon="-6.2580000">
        <ele>11.0</ele>
        <time>2023-01-28T11:17:38Z</time>
      </trkpt>
      <trkpt lat="36.4737470" lon="-6.2580140">
        <ele>11.0</ele>
        <time>2023-01-28T11:17:39Z</time>
      </trkpt>
      <trkpt lat="36.4737840" lon="-6.2580190">
        <ele>11.0</ele>
        <time>2023-01-28T11:17:40Z</time>
      </trkpt>
      <trkpt lat="36.4738250" lon="-6.2580330">
        <ele>11.2</ele>
        <time>2023-01-28T11:17:41Z</time>
      </trkpt>
      <trkpt lat="36.4738570" lon="-6.2580530">
        <ele>11.2</ele>
        <time>2023-01-28T11:17:42Z</time>
      </trkpt>
      <trkpt lat="36.4738810" lon="-6.2580630">
        <ele>11.4</ele>
        <time>2023-01-28T11:17:43Z</time>
      </trkpt>
      <trkpt lat="36.4739120" lon="-6.2580810">
        <ele>11.6</ele>
        <time>2023-01-28T11:17:44Z</time>
      </trkpt>
      <trkpt lat="36.4739390" lon="-6.2580870">
        <ele>11.6</ele>
        <time>2023-01-28T11:17:45Z</time>
      </trkpt>
      <trkpt lat="36.4739680" lon="-6.2581040">
        <ele>11.6</ele>
        <time>2023-01-28T11:17:46Z</time>
      </trkpt>
      <trkpt lat="36.4740050" lon="-6.2581180">
        <ele>11.6</ele>
        <time>2023-01-28T11:17:47Z</time>
      </trkpt>
      <trkpt lat="36.4740270" lon="-6.2581380">
        <ele>11.4</ele>
        <time>2023-01-28T11:17:48Z</time>
      </trkpt>
      <trkpt lat="36.4740660" lon="-6.2581490">
        <ele>11.4</ele>
        <time>2023-01-28T11:17:49Z</time>
      </trkpt>
      <trkpt lat="36.4741060" lon="-6.2581630">
        <ele>11.8</ele>
        <time>2023-01-28T11:17:50Z</time>
      </trkpt>
      <trkpt lat="36.4741370" lon="-6.2581770">
        <ele>12.4</ele>
        <time>2023-01-28T11:17:51Z</time>
      </trkpt>
      <trkpt lat="36.4741710" lon="-6.2581940">
        <ele>12.4</ele>
        <time>2023-01-28T11:17:52Z</time>
      </trkpt>
      <trkpt lat="36.4742010" lon="-6.2582070">
        <ele>12.0</ele>
        <time>2023-01-28T11:17:53Z</time>
      </trkpt>
      <trkpt lat="36.4742340" lon="-6.2582250">
        <ele>11.8</ele>
        <time>2023-01-28T11:17:54Z</time>
      </trkpt>
      <trkpt lat="36.4742580" lon="-6.2582510">
        <ele>11.4</ele>
        <time>2023-01-28T11:17:55Z</time>
      </trkpt>
      <trkpt lat="36.4742960" lon="-6.2582730">
        <ele>11.4</ele>
        <time>2023-01-28T11:17:56Z</time>
      </trkpt>
      <trkpt lat="36.4743170" lon="-6.2582960">
        <ele>11.4</ele>
        <time>2023-01-28T11:17:57Z</time>
      </trkpt>
      <trkpt lat="36.4743470" lon="-6.2583180">
        <ele>11.2</ele>
        <time>2023-01-28T11:17:58Z</time>
      </trkpt>
      <trkpt lat="36.4743780" lon="-6.2583320">
        <ele>11.4</ele>
        <time>2023-01-28T11:17:59Z</time>
      </trkpt>
      <trkpt lat="36.4744080" lon="-6.2583460">
        <ele>11.6</ele>
        <time>2023-01-28T11:18:00Z</time>
      </trkpt>
      <trkpt lat="36.4744380" lon="-6.2583670">
        <ele>11.4</ele>
        <time>2023-01-28T11:18:01Z</time>
      </trkpt>
      <trkpt lat="36.4744750" lon="-6.2583930">
        <ele>11.4</ele>
        <time>2023-01-28T11:18:02Z</time>
      </trkpt>
      <trkpt lat="36.4745150" lon="-6.2584130">
        <ele>11.4</ele>
        <time>2023-01-28T11:18:03Z</time>
      </trkpt>
      <trkpt lat="36.4745410" lon="-6.2584290">
        <ele>11.4</ele>
        <time>2023-01-28T11:18:04Z</time>
      </trkpt>
      <trkpt lat="36.4745660" lon="-6.2584420">
        <ele>11.6</ele>
        <time>2023-01-28T11:18:05Z</time>
      </trkpt>
      <trkpt lat="36.4745920" lon="-6.2584600">
        <ele>11.4</ele>
        <time>2023-01-28T11:18:06Z</time>
      </trkpt>
      <trkpt lat="36.4746140" lon="-6.2584740">
        <ele>11.6</ele>
        <time>2023-01-28T11:18:07Z</time>
      </trkpt>
      <trkpt lat="36.4746460" lon="-6.2584940">
        <ele>11.6</ele>
        <time>2023-01-28T11:18:08Z</time>
      </trkpt>
      <trkpt lat="36.4746750" lon="-6.2585140">
        <ele>12.0</ele>
        <time>2023-01-28T11:18:09Z</time>
      </trkpt>
      <trkpt lat="36.4746980" lon="-6.2585290">
        <ele>12.0</ele>
        <time>2023-01-28T11:18:10Z</time>
      </trkpt>
      <trkpt lat="36.4747180" lon="-6.2585420">
        <ele>12.0</ele>
        <time>2023-01-28T11:18:11Z</time>
      </trkpt>
      <trkpt lat="36.4747540" lon="-6.2585600">
        <ele>12.4</ele>
        <time>2023-01-28T11:18:12Z</time>
      </trkpt>
      <trkpt lat="36.4747890" lon="-6.2585810">
        <ele>11.8</ele>
        <time>2023-01-28T11:18:13Z</time>
      </trkpt>
      <trkpt lat="36.4748200" lon="-6.2585920">
        <ele>11.8</ele>
        <time>2023-01-28T11:18:14Z</time>
      </trkpt>
      <trkpt lat="36.4748490" lon="-6.2586090">
        <ele>12.2</ele>
        <time>2023-01-28T11:18:15Z</time>
      </trkpt>
      <trkpt lat="36.4748840" lon="-6.2586240">
        <ele>13.2</ele>
        <time>2023-01-28T11:18:16Z</time>
      </trkpt>
      <trkpt lat="36.4749150" lon="-6.2586460">
        <ele>12.4</ele>
        <time>2023-01-28T11:18:17Z</time>
      </trkpt>
      <trkpt lat="36.4749370" lon="-6.2586610">
        <ele>12.6</ele>
        <time>2023-01-28T11:18:18Z</time>
      </trkpt>
      <trkpt lat="36.4749750" lon="-6.2586870">
        <ele>12.4</ele>
        <time>2023-01-28T11:18:19Z</time>
      </trkpt>
      <trkpt lat="36.4750000" lon="-6.2586990">
        <ele>13.4</ele>
        <time>2023-01-28T11:18:20Z</time>
      </trkpt>
      <trkpt lat="36.4750340" lon="-6.2587240">
        <ele>13.2</ele>
        <time>2023-01-28T11:18:21Z</time>
      </trkpt>
      <trkpt lat="36.4750670" lon="-6.2587380">
        <ele>12.8</ele>
        <time>2023-01-28T11:18:22Z</time>
      </trkpt>
      <trkpt lat="36.4750910" lon="-6.2587550">
        <ele>12.4</ele>
        <time>2023-01-28T11:18:23Z</time>
      </trkpt>
      <trkpt lat="36.4751140" lon="-6.2587910">
        <ele>11.6</ele>
        <time>2023-01-28T11:18:24Z</time>
      </trkpt>
      <trkpt lat="36.4751400" lon="-6.2588120">
        <ele>11.4</ele>
        <time>2023-01-28T11:18:25Z</time>
      </trkpt>
      <trkpt lat="36.4751670" lon="-6.2588360">
        <ele>11.6</ele>
        <time>2023-01-28T11:18:26Z</time>
      </trkpt>
      <trkpt lat="36.4752060" lon="-6.2588420">
        <ele>11.4</ele>
        <time>2023-01-28T11:18:27Z</time>
      </trkpt>
      <trkpt lat="36.4752430" lon="-6.2588640">
        <ele>11.8</ele>
        <time>2023-01-28T11:18:28Z</time>
      </trkpt>
      <trkpt lat="36.4752730" lon="-6.2588880">
        <ele>11.4</ele>
        <time>2023-01-28T11:18:29Z</time>
      </trkpt>
      <trkpt lat="36.4753060" lon="-6.2589150">
        <ele>11.6</ele>
        <time>2023-01-28T11:18:30Z</time>
      </trkpt>
      <trkpt lat="36.4753460" lon="-6.2589330">
        <ele>11.6</ele>
        <time>2023-01-28T11:18:31Z</time>
      </trkpt>
      <trkpt lat="36.4753840" lon="-6.2589530">
        <ele>11.6</ele>
        <time>2023-01-28T11:18:32Z</time>
      </trkpt>
      <trkpt lat="36.4754280" lon="-6.2589670">
        <ele>11.6</ele>
        <time>2023-01-28T11:18:33Z</time>
      </trkpt>
      <trkpt lat="36.4754650" lon="-6.2589860">
        <ele>11.6</ele>
        <time>2023-01-28T11:18:34Z</time>
      </trkpt>
      <trkpt lat="36.4754920" lon="-6.2590130">
        <ele>11.8</ele>
        <time>2023-01-28T11:18:35Z</time>
      </trkpt>
      <trkpt lat="36.4755350" lon="-6.2590190">
        <ele>12.0</ele>
        <time>2023-01-28T11:18:36Z</time>
      </trkpt>
      <trkpt lat="36.4755730" lon="-6.2590320">
        <ele>11.8</ele>
        <time>2023-01-28T11:18:37Z</time>
      </trkpt>
      <trkpt lat="36.4756160" lon="-6.2590500">
        <ele>11.8</ele>
        <time>2023-01-28T11:18:38Z</time>
      </trkpt>
      <trkpt lat="36.4756490" lon="-6.2590620">
        <ele>11.6</ele>
        <time>2023-01-28T11:18:39Z</time>
      </trkpt>
      <trkpt lat="36.4756840" lon="-6.2590840">
        <ele>11.4</ele>
        <time>2023-01-28T11:18:40Z</time>
      </trkpt>
      <trkpt lat="36.4757360" lon="-6.2591230">
        <ele>11.4</ele>
        <time>2023-01-28T11:18:41Z</time>
      </trkpt>
      <trkpt lat="36.4757680" lon="-6.2591390">
        <ele>12.0</ele>
        <time>2023-01-28T11:18:42Z</time>
      </trkpt>
      <trkpt lat="36.4758140" lon="-6.2591530">
        <ele>11.8</ele>
        <time>2023-01-28T11:18:43Z</time>
      </trkpt>
      <trkpt lat="36.4758450" lon="-6.2591690">
        <ele>11.4</ele>
        <time>2023-01-28T11:18:44Z</time>
      </trkpt>
      <trkpt lat="36.4758670" lon="-6.2591900">
        <ele>11.8</ele>
        <time>2023-01-28T11:18:45Z</time>
      </trkpt>
      <trkpt lat="36.4758950" lon="-6.2592100">
        <ele>12.4</ele>
        <time>2023-01-28T11:18:46Z</time>
      </trkpt>
      <trkpt lat="36.4759270" lon="-6.2592210">
        <ele>12.0</ele>
        <time>2023-01-28T11:18:47Z</time>
      </trkpt>
      <trkpt lat="36.4759560" lon="-6.2592430">
        <ele>12.2</ele>
        <time>2023-01-28T11:18:48Z</time>
      </trkpt>
      <trkpt lat="36.4759760" lon="-6.2592640">
        <ele>11.8</ele>
        <time>2023-01-28T11:18:49Z</time>
      </trkpt>
      <trkpt lat="36.4759980" lon="-6.2592670">
        <ele>12.0</ele>
        <time>2023-01-28T11:18:50Z</time>
      </trkpt>
      <trkpt lat="36.4760220" lon="-6.2592810">
        <ele>11.8</ele>
        <time>2023-01-28T11:18:51Z</time>
      </trkpt>
      <trkpt lat="36.4760560" lon="-6.2593020">
        <ele>11.8</ele>
        <time>2023-01-28T11:18:52Z</time>
      </trkpt>
      <trkpt lat="36.4760720" lon="-6.2593140">
        <ele>12.0</ele>
        <time>2023-01-28T11:18:53Z</time>
      </trkpt>
      <trkpt lat="36.4761020" lon="-6.2593210">
        <ele>11.8</ele>
        <time>2023-01-28T11:18:54Z</time>
      </trkpt>
      <trkpt lat="36.4761260" lon="-6.2593400">
        <ele>12.2</ele>
        <time>2023-01-28T11:18:55Z</time>
      </trkpt>
      <trkpt lat="36.4761590" lon="-6.2593510">
        <ele>11.6</ele>
        <time>2023-01-28T11:18:56Z</time>
      </trkpt>
      <trkpt lat="36.4761770" lon="-6.2593580">
        <ele>11.4</ele>
        <time>2023-01-28T11:18:57Z</time>
      </trkpt>
      <trkpt lat="36.4761900" lon="-6.2593720">
        <ele>11.4</ele>
        <time>2023-01-28T11:18:58Z</time>
      </trkpt>
      <trkpt lat="36.4762330" lon="-6.2593900">
        <ele>11.6</ele>
        <time>2023-01-28T11:18:59Z</time>
      </trkpt>
      <trkpt lat="36.4762610" lon="-6.2594010">
        <ele>12.0</ele>
        <time>2023-01-28T11:19:00Z</time>
      </trkpt>
      <trkpt lat="36.4762850" lon="-6.2594160">
        <ele>11.6</ele>
        <time>2023-01-28T11:19:01Z</time>
      </trkpt>
      <trkpt lat="36.4763170" lon="-6.2594280">
        <ele>11.4</ele>
        <time>2023-01-28T11:19:02Z</time>
      </trkpt>
      <trkpt lat="36.4763460" lon="-6.2594410">
        <ele>11.6</ele>
        <time>2023-01-28T11:19:03Z</time>
      </trkpt>
      <trkpt lat="36.4763720" lon="-6.2594600">
        <ele>11.2</ele>
        <time>2023-01-28T11:19:04Z</time>
      </trkpt>
      <trkpt lat="36.4763870" lon="-6.2594760">
        <ele>11.2</ele>
        <time>2023-01-28T11:19:05Z</time>
      </trkpt>
      <trkpt lat="36.4764100" lon="-6.2594900">
        <ele>11.0</ele>
        <time>2023-01-28T11:19:06Z</time>
      </trkpt>
      <trkpt lat="36.4764370" lon="-6.2595140">
        <ele>11.6</ele>
        <time>2023-01-28T11:19:07Z</time>
      </trkpt>
      <trkpt lat="36.4764630" lon="-6.2595290">
        <ele>11.8</ele>
        <time>2023-01-28T11:19:08Z</time>
      </trkpt>
      <trkpt lat="36.4764950" lon="-6.2595500">
        <ele>11.4</ele>
        <time>2023-01-28T11:19:09Z</time>
      </trkpt>
      <trkpt lat="36.4765200" lon="-6.2595570">
        <ele>11.4</ele>
        <time>2023-01-28T11:19:10Z</time>
      </trkpt>
      <trkpt lat="36.4765390" lon="-6.2595690">
        <ele>11.6</ele>
        <time>2023-01-28T11:19:11Z</time>
      </trkpt>
      <trkpt lat="36.4765560" lon="-6.2595790">
        <ele>11.6</ele>
        <time>2023-01-28T11:19:12Z</time>
      </trkpt>
      <trkpt lat="36.4765870" lon="-6.2595930">
        <ele>11.2</ele>
        <time>2023-01-28T11:19:13Z</time>
      </trkpt>
      <trkpt lat="36.4766270" lon="-6.2596150">
        <ele>11.6</ele>
        <time>2023-01-28T11:19:14Z</time>
      </trkpt>
      <trkpt lat="36.4766600" lon="-6.2596240">
        <ele>11.6</ele>
        <time>2023-01-28T11:19:15Z</time>
      </trkpt>
      <trkpt lat="36.4766870" lon="-6.2596360">
        <ele>11.6</ele>
        <time>2023-01-28T11:19:16Z</time>
      </trkpt>
      <trkpt lat="36.4767110" lon="-6.2596510">
        <ele>11.8</ele>
        <time>2023-01-28T11:19:17Z</time>
      </trkpt>
      <trkpt lat="36.4767330" lon="-6.2596750">
        <ele>12.0</ele>
        <time>2023-01-28T11:19:18Z</time>
      </trkpt>
      <trkpt lat="36.4767610" lon="-6.2596950">
        <ele>11.4</ele>
        <time>2023-01-28T11:19:19Z</time>
      </trkpt>
      <trkpt lat="36.4767810" lon="-6.2596970">
        <ele>11.8</ele>
        <time>2023-01-28T11:19:20Z</time>
      </trkpt>
      <trkpt lat="36.4768010" lon="-6.2597140">
        <ele>12.0</ele>
        <time>2023-01-28T11:19:21Z</time>
      </trkpt>
      <trkpt lat="36.4768140" lon="-6.2597340">
        <ele>11.2</ele>
        <time>2023-01-28T11:19:22Z</time>
      </trkpt>
      <trkpt lat="36.4768380" lon="-6.2597430">
        <ele>11.6</ele>
        <time>2023-01-28T11:19:23Z</time>
      </trkpt>
      <trkpt lat="36.4768560" lon="-6.2597530">
        <ele>11.2</ele>
        <time>2023-01-28T11:19:24Z</time>
      </trkpt>
      <trkpt lat="36.4768840" lon="-6.2597640">
        <ele>11.4</ele>
        <time>2023-01-28T11:19:25Z</time>
      </trkpt>
      <trkpt lat="36.4769080" lon="-6.2597830">
        <ele>11.2</ele>
        <time>2023-01-28T11:19:26Z</time>
      </trkpt>
      <trkpt lat="36.4769360" lon="-6.2598010">
        <ele>11.2</ele>
        <time>2023-01-28T11:19:27Z</time>
      </trkpt>
      <trkpt lat="36.4769740" lon="-6.2598240">
        <ele>11.2</ele>
        <time>2023-01-28T11:19:28Z</time>
      </trkpt>
      <trkpt lat="36.4769910" lon="-6.2598350">
        <ele>11.2</ele>
        <time>2023-01-28T11:19:29Z</time>
      </trkpt>
      <trkpt lat="36.4770140" lon="-6.2598500">
        <ele>11.2</ele>
        <time>2023-01-28T11:19:30Z</time>
      </trkpt>
      <trkpt lat="36.4770250" lon="-6.2598710">
        <ele>11.6</ele>
        <time>2023-01-28T11:19:31Z</time>
      </trkpt>
      <trkpt lat="36.4770420" lon="-6.2598840">
        <ele>11.4</ele>
        <time>2023-01-28T11:19:32Z</time>
      </trkpt>
      <trkpt lat="36.4770710" lon="-6.2599010">
        <ele>11.4</ele>
        <time>2023-01-28T11:19:33Z</time>
      </trkpt>
      <trkpt lat="36.4770980" lon="-6.2599100">
        <ele>11.8</ele>
        <time>2023-01-28T11:19:34Z</time>
      </trkpt>
      <trkpt lat="36.4771220" lon="-6.2599160">
        <ele>11.8</ele>
        <time>2023-01-28T11:19:35Z</time>
      </trkpt>
      <trkpt lat="36.4771500" lon="-6.2599250">
        <ele>11.4</ele>
        <time>2023-01-28T11:19:36Z</time>
      </trkpt>
      <trkpt lat="36.4771910" lon="-6.2599400">
        <ele>11.2</ele>
        <time>2023-01-28T11:19:37Z</time>
      </trkpt>
      <trkpt lat="36.4772040" lon="-6.2599570">
        <ele>11.2</ele>
        <time>2023-01-28T11:19:38Z</time>
      </trkpt>
      <trkpt lat="36.4772300" lon="-6.2599740">
        <ele>11.4</ele>
        <time>2023-01-28T11:19:39Z</time>
      </trkpt>
      <trkpt lat="36.4772470" lon="-6.2599890">
        <ele>11.6</ele>
        <time>2023-01-28T11:19:40Z</time>
      </trkpt>
      <trkpt lat="36.4772770" lon="-6.2600000">
        <ele>11.8</ele>
        <time>2023-01-28T11:19:41Z</time>
      </trkpt>
      <trkpt lat="36.4773040" lon="-6.2600230">
        <ele>12.6</ele>
        <time>2023-01-28T11:19:42Z</time>
      </trkpt>
      <trkpt lat="36.4773310" lon="-6.2600320">
        <ele>12.0</ele>
        <time>2023-01-28T11:19:43Z</time>
      </trkpt>
      <trkpt lat="36.4773470" lon="-6.2600450">
        <ele>11.4</ele>
        <time>2023-01-28T11:19:44Z</time>
      </trkpt>
      <trkpt lat="36.4773780" lon="-6.2600630">
        <ele>11.4</ele>
        <time>2023-01-28T11:19:45Z</time>
      </trkpt>
      <trkpt lat="36.4774100" lon="-6.2600870">
        <ele>11.0</ele>
        <time>2023-01-28T11:19:46Z</time>
      </trkpt>
      <trkpt lat="36.4774430" lon="-6.2601120">
        <ele>11.0</ele>
        <time>2023-01-28T11:19:47Z</time>
      </trkpt>
      <trkpt lat="36.4774640" lon="-6.2601170">
        <ele>11.2</ele>
        <time>2023-01-28T11:19:48Z</time>
      </trkpt>
      <trkpt lat="36.4774830" lon="-6.2601270">
        <ele>11.0</ele>
        <time>2023-01-28T11:19:49Z</time>
      </trkpt>
      <trkpt lat="36.4775170" lon="-6.2601310">
        <ele>11.2</ele>
        <time>2023-01-28T11:19:50Z</time>
      </trkpt>
      <trkpt lat="36.4775320" lon="-6.2601420">
        <ele>11.2</ele>
        <time>2023-01-28T11:19:51Z</time>
      </trkpt>
      <trkpt lat="36.4775470" lon="-6.2601450">
        <ele>11.4</ele>
        <time>2023-01-28T11:19:52Z</time>
      </trkpt>
      <trkpt lat="36.4775800" lon="-6.2601500">
        <ele>11.2</ele>
        <time>2023-01-28T11:19:53Z</time>
      </trkpt>
      <trkpt lat="36.4775930" lon="-6.2601560">
        <ele>12.0</ele>
        <time>2023-01-28T11:19:54Z</time>
      </trkpt>
      <trkpt lat="36.4776040" lon="-6.2601730">
        <ele>11.4</ele>
        <time>2023-01-28T11:19:55Z</time>
      </trkpt>
      <trkpt lat="36.4776160" lon="-6.2601800">
        <ele>11.2</ele>
        <time>2023-01-28T11:19:56Z</time>
      </trkpt>
      <trkpt lat="36.4776340" lon="-6.2601900">
        <ele>11.2</ele>
        <time>2023-01-28T11:19:57Z</time>
      </trkpt>
      <trkpt lat="36.4776540" lon="-6.2602070">
        <ele>11.2</ele>
        <time>2023-01-28T11:19:58Z</time>
      </trkpt>
      <trkpt lat="36.4776880" lon="-6.2602150">
        <ele>11.2</ele>
        <time>2023-01-28T11:19:59Z</time>
      </trkpt>
      <trkpt lat="36.4776990" lon="-6.2602260">
        <ele>11.0</ele>
        <time>2023-01-28T11:20:00Z</time>
      </trkpt>
      <trkpt lat="36.4777180" lon="-6.2602330">
        <ele>11.2</ele>
        <time>2023-01-28T11:20:01Z</time>
      </trkpt>
      <trkpt lat="36.4777430" lon="-6.2602440">
        <ele>11.4</ele>
        <time>2023-01-28T11:20:02Z</time>
      </trkpt>
      <trkpt lat="36.4777770" lon="-6.2602590">
        <ele>11.4</ele>
        <time>2023-01-28T11:20:03Z</time>
      </trkpt>
      <trkpt lat="36.4777960" lon="-6.2602680">
        <ele>11.6</ele>
        <time>2023-01-28T11:20:04Z</time>
      </trkpt>
      <trkpt lat="36.4778310" lon="-6.2602940">
        <ele>11.4</ele>
        <time>2023-01-28T11:20:05Z</time>
      </trkpt>
      <trkpt lat="36.4778510" lon="-6.2603150">
        <ele>11.6</ele>
        <time>2023-01-28T11:20:06Z</time>
      </trkpt>
      <trkpt lat="36.4778820" lon="-6.2603340">
        <ele>11.6</ele>
        <time>2023-01-28T11:20:07Z</time>
      </trkpt>
      <trkpt lat="36.4779070" lon="-6.2603470">
        <ele>11.6</ele>
        <time>2023-01-28T11:20:08Z</time>
      </trkpt>
      <trkpt lat="36.4779350" lon="-6.2603610">
        <ele>11.6</ele>
        <time>2023-01-28T11:20:09Z</time>
      </trkpt>
      <trkpt lat="36.4779570" lon="-6.2603680">
        <ele>11.8</ele>
        <time>2023-01-28T11:20:10Z</time>
      </trkpt>
      <trkpt lat="36.4779830" lon="-6.2603850">
        <ele>12.0</ele>
        <time>2023-01-28T11:20:11Z</time>
      </trkpt>
      <trkpt lat="36.4780160" lon="-6.2603940">
        <ele>11.6</ele>
        <time>2023-01-28T11:20:12Z</time>
      </trkpt>
      <trkpt lat="36.4780400" lon="-6.2604080">
        <ele>11.6</ele>
        <time>2023-01-28T11:20:13Z</time>
      </trkpt>
      <trkpt lat="36.4780600" lon="-6.2604230">
        <ele>11.4</ele>
        <time>2023-01-28T11:20:14Z</time>
      </trkpt>
      <trkpt lat="36.4780840" lon="-6.2604390">
        <ele>11.6</ele>
        <time>2023-01-28T11:20:15Z</time>
      </trkpt>
      <trkpt lat="36.4781120" lon="-6.2604410">
        <ele>11.6</ele>
        <time>2023-01-28T11:20:16Z</time>
      </trkpt>
      <trkpt lat="36.4781320" lon="-6.2604490">
        <ele>11.4</ele>
        <time>2023-01-28T11:20:17Z</time>
      </trkpt>
      <trkpt lat="36.4781610" lon="-6.2604640">
        <ele>11.4</ele>
        <time>2023-01-28T11:20:18Z</time>
      </trkpt>
      <trkpt lat="36.4781880" lon="-6.2604740">
        <ele>11.2</ele>
        <time>2023-01-28T11:20:19Z</time>
      </trkpt>
      <trkpt lat="36.4782200" lon="-6.2604820">
        <ele>11.2</ele>
        <time>2023-01-28T11:20:20Z</time>
      </trkpt>
      <trkpt lat="36.4782540" lon="-6.2604940">
        <ele>11.2</ele>
        <time>2023-01-28T11:20:21Z</time>
      </trkpt>
      <trkpt lat="36.4782680" lon="-6.2605040">
        <ele>11.4</ele>
        <time>2023-01-28T11:20:22Z</time>
      </trkpt>
      <trkpt lat="36.4782900" lon="-6.2605070">
        <ele>11.2</ele>
        <time>2023-01-28T11:20:23Z</time>
      </trkpt>
      <trkpt lat="36.4783100" lon="-6.2605200">
        <ele>11.6</ele>
        <time>2023-01-28T11:20:24Z</time>
      </trkpt>
      <trkpt lat="36.4783290" lon="-6.2605310">
        <ele>11.4</ele>
        <time>2023-01-28T11:20:25Z</time>
      </trkpt>
      <trkpt lat="36.4783540" lon="-6.2605440">
        <ele>11.4</ele>
        <time>2023-01-28T11:20:26Z</time>
      </trkpt>
      <trkpt lat="36.4783800" lon="-6.2605660">
        <ele>11.6</ele>
        <time>2023-01-28T11:20:27Z</time>
      </trkpt>
      <trkpt lat="36.4784050" lon="-6.2605760">
        <ele>12.0</ele>
        <time>2023-01-28T11:20:28Z</time>
      </trkpt>
      <trkpt lat="36.4784270" lon="-6.2606020">
        <ele>11.4</ele>
        <time>2023-01-28T11:20:29Z</time>
      </trkpt>
      <trkpt lat="36.4784520" lon="-6.2606120">
        <ele>11.4</ele>
        <time>2023-01-28T11:20:30Z</time>
      </trkpt>
      <trkpt lat="36.4784710" lon="-6.2606200">
        <ele>11.4</ele>
        <time>2023-01-28T11:20:31Z</time>
      </trkpt>
      <trkpt lat="36.4784890" lon="-6.2606360">
        <ele>11.4</ele>
        <time>2023-01-28T11:20:32Z</time>
      </trkpt>
      <trkpt lat="36.4785160" lon="-6.2606510">
        <ele>11.2</ele>
        <time>2023-01-28T11:20:33Z</time>
      </trkpt>
      <trkpt lat="36.4785380" lon="-6.2606690">
        <ele>11.8</ele>
        <time>2023-01-28T11:20:34Z</time>
      </trkpt>
      <trkpt lat="36.4785650" lon="-6.2606900">
        <ele>11.4</ele>
        <time>2023-01-28T11:20:35Z</time>
      </trkpt>
      <trkpt lat="36.4785820" lon="-6.2607040">
        <ele>11.6</ele>
        <time>2023-01-28T11:20:36Z</time>
      </trkpt>
      <trkpt lat="36.4786080" lon="-6.2607130">
        <ele>11.2</ele>
        <time>2023-01-28T11:20:37Z</time>
      </trkpt>
      <trkpt lat="36.4786290" lon="-6.2607320">
        <ele>11.2</ele>
        <time>2023-01-28T11:20:38Z</time>
      </trkpt>
      <trkpt lat="36.4786500" lon="-6.2607430">
        <ele>11.4</ele>
        <time>2023-01-28T11:20:39Z</time>
      </trkpt>
      <trkpt lat="36.4786560" lon="-6.2607600">
        <ele>11.8</ele>
        <time>2023-01-28T11:20:40Z</time>
      </trkpt>
      <trkpt lat="36.4786720" lon="-6.2607620">
        <ele>11.6</ele>
        <time>2023-01-28T11:20:41Z</time>
      </trkpt>
      <trkpt lat="36.4787090" lon="-6.2607690">
        <ele>11.2</ele>
        <time>2023-01-28T11:20:42Z</time>
      </trkpt>
      <trkpt lat="36.4787360" lon="-6.2607880">
        <ele>11.2</ele>
        <time>2023-01-28T11:20:43Z</time>
      </trkpt>
      <trkpt lat="36.4787580" lon="-6.2608010">
        <ele>11.4</ele>
        <time>2023-01-28T11:20:44Z</time>
      </trkpt>
      <trkpt lat="36.4787730" lon="-6.2608150">
        <ele>11.4</ele>
        <time>2023-01-28T11:20:45Z</time>
      </trkpt>
      <trkpt lat="36.4787770" lon="-6.2608320">
        <ele>12.0</ele>
        <time>2023-01-28T11:20:46Z</time>
      </trkpt>
      <trkpt lat="36.4787980" lon="-6.2608480">
        <ele>11.6</ele>
        <time>2023-01-28T11:20:47Z</time>
      </trkpt>
      <trkpt lat="36.4788160" lon="-6.2608590">
        <ele>11.4</ele>
        <time>2023-01-28T11:20:48Z</time>
      </trkpt>
      <trkpt lat="36.4788340" lon="-6.2608670">
        <ele>11.4</ele>
        <time>2023-01-28T11:20:49Z</time>
      </trkpt>
      <trkpt lat="36.4788470" lon="-6.2608810">
        <ele>12.2</ele>
        <time>2023-01-28T11:20:50Z</time>
      </trkpt>
      <trkpt lat="36.4788710" lon="-6.2608980">
        <ele>11.8</ele>
        <time>2023-01-28T11:20:51Z</time>
      </trkpt>
      <trkpt lat="36.4788910" lon="-6.2609060">
        <ele>12.0</ele>
        <time>2023-01-28T11:20:52Z</time>
      </trkpt>
      <trkpt lat="36.4789240" lon="-6.2609280">
        <ele>11.8</ele>
        <time>2023-01-28T11:20:53Z</time>
      </trkpt>
      <trkpt lat="36.4789600" lon="-6.2609400">
        <ele>11.8</ele>
        <time>2023-01-28T11:20:54Z</time>
      </trkpt>
      <trkpt lat="36.4790000" lon="-6.2609630">
        <ele>11.8</ele>
        <time>2023-01-28T11:20:55Z</time>
      </trkpt>
      <trkpt lat="36.4790340" lon="-6.2609770">
        <ele>12.2</ele>
        <time>2023-01-28T11:20:56Z</time>
      </trkpt>
      <trkpt lat="36.4790580" lon="-6.2609880">
        <ele>12.4</ele>
        <time>2023-01-28T11:20:57Z</time>
      </trkpt>
      <trkpt lat="36.4790760" lon="-6.2610020">
        <ele>12.0</ele>
        <time>2023-01-28T11:20:58Z</time>
      </trkpt>
      <trkpt lat="36.4791090" lon="-6.2610180">
        <ele>12.2</ele>
        <time>2023-01-28T11:20:59Z</time>
      </trkpt>
      <trkpt lat="36.4791240" lon="-6.2610380">
        <ele>12.0</ele>
        <time>2023-01-28T11:21:00Z</time>
      </trkpt>
      <trkpt lat="36.4791440" lon="-6.2610530">
        <ele>11.6</ele>
        <time>2023-01-28T11:21:01Z</time>
      </trkpt>
      <trkpt lat="36.4791650" lon="-6.2610590">
        <ele>11.8</ele>
        <time>2023-01-28T11:21:02Z</time>
      </trkpt>
      <trkpt lat="36.4791830" lon="-6.2610770">
        <ele>12.4</ele>
        <time>2023-01-28T11:21:03Z</time>
      </trkpt>
      <trkpt lat="36.4792160" lon="-6.2611040">
        <ele>11.4</ele>
        <time>2023-01-28T11:21:04Z</time>
      </trkpt>
      <trkpt lat="36.4792500" lon="-6.2611200">
        <ele>11.4</ele>
        <time>2023-01-28T11:21:05Z</time>
      </trkpt>
      <trkpt lat="36.4792730" lon="-6.2611300">
        <ele>11.4</ele>
        <time>2023-01-28T11:21:06Z</time>
      </trkpt>
      <trkpt lat="36.4792990" lon="-6.2611410">
        <ele>12.2</ele>
        <time>2023-01-28T11:21:07Z</time>
      </trkpt>
      <trkpt lat="36.4793110" lon="-6.2611510">
        <ele>11.8</ele>
        <time>2023-01-28T11:21:08Z</time>
      </trkpt>
      <trkpt lat="36.4793420" lon="-6.2611670">
        <ele>11.8</ele>
        <time>2023-01-28T11:21:09Z</time>
      </trkpt>
      <trkpt lat="36.4793570" lon="-6.2611780">
        <ele>11.6</ele>
        <time>2023-01-28T11:21:10Z</time>
      </trkpt>
      <trkpt lat="36.4793850" lon="-6.2611870">
        <ele>11.6</ele>
        <time>2023-01-28T11:21:11Z</time>
      </trkpt>
      <trkpt lat="36.4794040" lon="-6.2611990">
        <ele>11.4</ele>
        <time>2023-01-28T11:21:12Z</time>
      </trkpt>
      <trkpt lat="36.4794300" lon="-6.2612220">
        <ele>11.8</ele>
        <time>2023-01-28T11:21:13Z</time>
      </trkpt>
      <trkpt lat="36.4794520" lon="-6.2612390">
        <ele>11.8</ele>
        <time>2023-01-28T11:21:14Z</time>
      </trkpt>
      <trkpt lat="36.4794700" lon="-6.2612570">
        <ele>11.8</ele>
        <time>2023-01-28T11:21:15Z</time>
      </trkpt>
      <trkpt lat="36.4794980" lon="-6.2612770">
        <ele>11.8</ele>
        <time>2023-01-28T11:21:16Z</time>
      </trkpt>
      <trkpt lat="36.4795190" lon="-6.2612870">
        <ele>11.4</ele>
        <time>2023-01-28T11:21:17Z</time>
      </trkpt>
      <trkpt lat="36.4795320" lon="-6.2613060">
        <ele>11.2</ele>
        <time>2023-01-28T11:21:18Z</time>
      </trkpt>
      <trkpt lat="36.4795700" lon="-6.2613210">
        <ele>11.2</ele>
        <time>2023-01-28T11:21:19Z</time>
      </trkpt>
      <trkpt lat="36.4795880" lon="-6.2613300">
        <ele>11.8</ele>
        <time>2023-01-28T11:21:20Z</time>
      </trkpt>
      <trkpt lat="36.4796120" lon="-6.2613390">
        <ele>11.8</ele>
        <time>2023-01-28T11:21:21Z</time>
      </trkpt>
      <trkpt lat="36.4796400" lon="-6.2613520">
        <ele>12.0</ele>
        <time>2023-01-28T11:21:22Z</time>
      </trkpt>
      <trkpt lat="36.4796830" lon="-6.2613720">
        <ele>12.2</ele>
        <time>2023-01-28T11:21:24Z</time>
      </trkpt>
      <trkpt lat="36.4796980" lon="-6.2613840">
        <ele>12.2</ele>
        <time>2023-01-28T11:21:25Z</time>
      </trkpt>
      <trkpt lat="36.4797430" lon="-6.2614060">
        <ele>11.4</ele>
        <time>2023-01-28T11:21:27Z</time>
      </trkpt>
      <trkpt lat="36.4797700" lon="-6.2614160">
        <ele>11.4</ele>
        <time>2023-01-28T11:21:28Z</time>
      </trkpt>
      <trkpt lat="36.4798050" lon="-6.2614330">
        <ele>11.4</ele>
        <time>2023-01-28T11:21:29Z</time>
      </trkpt>
      <trkpt lat="36.4798210" lon="-6.2614450">
        <ele>11.2</ele>
        <time>2023-01-28T11:21:30Z</time>
      </trkpt>
      <trkpt lat="36.4798360" lon="-6.2614590">
        <ele>11.2</ele>
        <time>2023-01-28T11:21:31Z</time>
      </trkpt>
      <trkpt lat="36.4798750" lon="-6.2614900">
        <ele>11.4</ele>
        <time>2023-01-28T11:21:33Z</time>
      </trkpt>
      <trkpt lat="36.4798980" lon="-6.2615030">
        <ele>11.4</ele>
        <time>2023-01-28T11:21:34Z</time>
      </trkpt>
      <trkpt lat="36.4799230" lon="-6.2615070">
        <ele>12.0</ele>
        <time>2023-01-28T11:21:36Z</time>
      </trkpt>
      <trkpt lat="36.4799910" lon="-6.2615220">
        <ele>11.6</ele>
        <time>2023-01-28T11:21:38Z</time>
      </trkpt>
      <trkpt lat="36.4800400" lon="-6.2615570">
        <ele>12.0</ele>
        <time>2023-01-28T11:21:39Z</time>
      </trkpt>
      <trkpt lat="36.4800510" lon="-6.2615690">
        <ele>12.4</ele>
        <time>2023-01-28T11:21:40Z</time>
      </trkpt>
      <trkpt lat="36.4800790" lon="-6.2615820">
        <ele>12.2</ele>
        <time>2023-01-28T11:21:41Z</time>
      </trkpt>
      <trkpt lat="36.4800930" lon="-6.2616040">
        <ele>12.0</ele>
        <time>2023-01-28T11:21:42Z</time>
      </trkpt>
      <trkpt lat="36.4801270" lon="-6.2616190">
        <ele>11.8</ele>
        <time>2023-01-28T11:21:44Z</time>
      </trkpt>
      <trkpt lat="36.4801650" lon="-6.2616400">
        <ele>11.8</ele>
        <time>2023-01-28T11:21:46Z</time>
      </trkpt>
      <trkpt lat="36.4802220" lon="-6.2616690">
        <ele>12.2</ele>
        <time>2023-01-28T11:21:47Z</time>
      </trkpt>
      <trkpt lat="36.4802580" lon="-6.2616890">
        <ele>12.8</ele>
        <time>2023-01-28T11:21:49Z</time>
      </trkpt>
      <trkpt lat="36.4803160" lon="-6.2617020">
        <ele>12.2</ele>
        <time>2023-01-28T11:21:50Z</time>
      </trkpt>
      <trkpt lat="36.4803430" lon="-6.2616970">
        <ele>11.6</ele>
        <time>2023-01-28T11:21:51Z</time>
      </trkpt>
      <trkpt lat="36.4803580" lon="-6.2617090">
        <ele>11.8</ele>
        <time>2023-01-28T11:21:53Z</time>
      </trkpt>
      <trkpt lat="36.4803950" lon="-6.2617330">
        <ele>12.0</ele>
        <time>2023-01-28T11:21:55Z</time>
      </trkpt>
      <trkpt lat="36.4804290" lon="-6.2617550">
        <ele>11.6</ele>
        <time>2023-01-28T11:21:56Z</time>
      </trkpt>
      <trkpt lat="36.4804530" lon="-6.2617730">
        <ele>11.4</ele>
        <time>2023-01-28T11:21:57Z</time>
      </trkpt>
      <trkpt lat="36.4804720" lon="-6.2617830">
        <ele>11.4</ele>
        <time>2023-01-28T11:21:58Z</time>
      </trkpt>
      <trkpt lat="36.4805020" lon="-6.2617970">
        <ele>11.2</ele>
        <time>2023-01-28T11:22:00Z</time>
      </trkpt>
      <trkpt lat="36.4805510" lon="-6.2618260">
        <ele>12.0</ele>
        <time>2023-01-28T11:22:01Z</time>
      </trkpt>
      <trkpt lat="36.4805680" lon="-6.2618430">
        <ele>11.2</ele>
        <time>2023-01-28T11:22:02Z</time>
      </trkpt>
      <trkpt lat="36.4805810" lon="-6.2618570">
        <ele>11.0</ele>
        <time>2023-01-28T11:22:03Z</time>
      </trkpt>
      <trkpt lat="36.4806190" lon="-6.2618700">
        <ele>11.0</ele>
        <time>2023-01-28T11:22:05Z</time>
      </trkpt>
      <trkpt lat="36.4806630" lon="-6.2618920">
        <ele>11.0</ele>
        <time>2023-01-28T11:22:06Z</time>
      </trkpt>
      <trkpt lat="36.4806900" lon="-6.2619100">
        <ele>11.2</ele>
        <time>2023-01-28T11:22:07Z</time>
      </trkpt>
      <trkpt lat="36.4807270" lon="-6.2619190">
        <ele>11.0</ele>
        <time>2023-01-28T11:22:08Z</time>
      </trkpt>
      <trkpt lat="36.4807410" lon="-6.2619250">
        <ele>11.0</ele>
        <time>2023-01-28T11:22:09Z</time>
      </trkpt>
      <trkpt lat="36.4807660" lon="-6.2619440">
        <ele>11.0</ele>
        <time>2023-01-28T11:22:10Z</time>
      </trkpt>
      <trkpt lat="36.4808010" lon="-6.2619570">
        <ele>11.2</ele>
        <time>2023-01-28T11:22:11Z</time>
      </trkpt>
      <trkpt lat="36.4808220" lon="-6.2619710">
        <ele>10.8</ele>
        <time>2023-01-28T11:22:12Z</time>
      </trkpt>
      <trkpt lat="36.4808500" lon="-6.2619860">
        <ele>11.2</ele>
        <time>2023-01-28T11:22:14Z</time>
      </trkpt>
      <trkpt lat="36.4808840" lon="-6.2620180">
        <ele>11.2</ele>
        <time>2023-01-28T11:22:16Z</time>
      </trkpt>
      <trkpt lat="36.4809470" lon="-6.2620360">
        <ele>11.4</ele>
        <time>2023-01-28T11:22:17Z</time>
      </trkpt>
      <trkpt lat="36.4809670" lon="-6.2620520">
        <ele>11.0</ele>
        <time>2023-01-28T11:22:18Z</time>
      </trkpt>
      <trkpt lat="36.4809980" lon="-6.2620670">
        <ele>11.0</ele>
        <time>2023-01-28T11:22:19Z</time>
      </trkpt>
      <trkpt lat="36.4810170" lon="-6.2620790">
        <ele>11.0</ele>
        <time>2023-01-28T11:22:20Z</time>
      </trkpt>
      <trkpt lat="36.4810420" lon="-6.2621000">
        <ele>11.0</ele>
        <time>2023-01-28T11:22:21Z</time>
      </trkpt>
      <trkpt lat="36.4810680" lon="-6.2621180">
        <ele>11.0</ele>
        <time>2023-01-28T11:22:22Z</time>
      </trkpt>
      <trkpt lat="36.4811010" lon="-6.2621280">
        <ele>11.0</ele>
        <time>2023-01-28T11:22:23Z</time>
      </trkpt>
      <trkpt lat="36.4811300" lon="-6.2621440">
        <ele>11.0</ele>
        <time>2023-01-28T11:22:24Z</time>
      </trkpt>
      <trkpt lat="36.4811400" lon="-6.2621580">
        <ele>11.0</ele>
        <time>2023-01-28T11:22:26Z</time>
      </trkpt>
      <trkpt lat="36.4811800" lon="-6.2621820">
        <ele>11.2</ele>
        <time>2023-01-28T11:22:28Z</time>
      </trkpt>
      <trkpt lat="36.4812250" lon="-6.2622010">
        <ele>11.2</ele>
        <time>2023-01-28T11:22:29Z</time>
      </trkpt>
      <trkpt lat="36.4812460" lon="-6.2622090">
        <ele>11.2</ele>
        <time>2023-01-28T11:22:31Z</time>
      </trkpt>
      <trkpt lat="36.4812820" lon="-6.2622330">
        <ele>11.4</ele>
        <time>2023-01-28T11:22:32Z</time>
      </trkpt>
      <trkpt lat="36.4812960" lon="-6.2622520">
        <ele>11.2</ele>
        <time>2023-01-28T11:22:33Z</time>
      </trkpt>
      <trkpt lat="36.4813170" lon="-6.2622750">
        <ele>11.6</ele>
        <time>2023-01-28T11:22:34Z</time>
      </trkpt>
      <trkpt lat="36.4813440" lon="-6.2622910">
        <ele>11.8</ele>
        <time>2023-01-28T11:22:35Z</time>
      </trkpt>
      <trkpt lat="36.4813630" lon="-6.2623030">
        <ele>11.6</ele>
        <time>2023-01-28T11:22:36Z</time>
      </trkpt>
      <trkpt lat="36.4813870" lon="-6.2623150">
        <ele>11.8</ele>
        <time>2023-01-28T11:22:38Z</time>
      </trkpt>
      <trkpt lat="36.4814090" lon="-6.2623370">
        <ele>11.6</ele>
        <time>2023-01-28T11:22:39Z</time>
      </trkpt>
      <trkpt lat="36.4814290" lon="-6.2623540">
        <ele>11.6</ele>
        <time>2023-01-28T11:22:40Z</time>
      </trkpt>
      <trkpt lat="36.4814580" lon="-6.2623540">
        <ele>11.6</ele>
        <time>2023-01-28T11:22:41Z</time>
      </trkpt>
      <trkpt lat="36.4814740" lon="-6.2623830">
        <ele>11.6</ele>
        <time>2023-01-28T11:22:42Z</time>
      </trkpt>
      <trkpt lat="36.4815020" lon="-6.2623930">
        <ele>11.6</ele>
        <time>2023-01-28T11:22:43Z</time>
      </trkpt>
      <trkpt lat="36.4815240" lon="-6.2623960">
        <ele>11.4</ele>
        <time>2023-01-28T11:22:44Z</time>
      </trkpt>
      <trkpt lat="36.4815490" lon="-6.2624060">
        <ele>11.2</ele>
        <time>2023-01-28T11:22:45Z</time>
      </trkpt>
      <trkpt lat="36.4815840" lon="-6.2624190">
        <ele>11.6</ele>
        <time>2023-01-28T11:22:46Z</time>
      </trkpt>
      <trkpt lat="36.4816120" lon="-6.2624350">
        <ele>11.6</ele>
        <time>2023-01-28T11:22:47Z</time>
      </trkpt>
      <trkpt lat="36.4816300" lon="-6.2624440">
        <ele>11.8</ele>
        <time>2023-01-28T11:22:48Z</time>
      </trkpt>
      <trkpt lat="36.4816540" lon="-6.2624570">
        <ele>11.4</ele>
        <time>2023-01-28T11:22:49Z</time>
      </trkpt>
      <trkpt lat="36.4816740" lon="-6.2624710">
        <ele>11.4</ele>
        <time>2023-01-28T11:22:50Z</time>
      </trkpt>
      <trkpt lat="36.4816950" lon="-6.2624850">
        <ele>11.2</ele>
        <time>2023-01-28T11:22:51Z</time>
      </trkpt>
      <trkpt lat="36.4817140" lon="-6.2624960">
        <ele>11.6</ele>
        <time>2023-01-28T11:22:52Z</time>
      </trkpt>
      <trkpt lat="36.4817380" lon="-6.2625090">
        <ele>11.6</ele>
        <time>2023-01-28T11:22:53Z</time>
      </trkpt>
      <trkpt lat="36.4817670" lon="-6.2625300">
        <ele>11.6</ele>
        <time>2023-01-28T11:22:54Z</time>
      </trkpt>
      <trkpt lat="36.4817940" lon="-6.2625500">
        <ele>11.4</ele>
        <time>2023-01-28T11:22:55Z</time>
      </trkpt>
      <trkpt lat="36.4818120" lon="-6.2625630">
        <ele>11.6</ele>
        <time>2023-01-28T11:22:56Z</time>
      </trkpt>
      <trkpt lat="36.4818410" lon="-6.2625770">
        <ele>11.4</ele>
        <time>2023-01-28T11:22:57Z</time>
      </trkpt>
      <trkpt lat="36.4818790" lon="-6.2625860">
        <ele>11.6</ele>
        <time>2023-01-28T11:22:58Z</time>
      </trkpt>
      <trkpt lat="36.4819010" lon="-6.2626070">
        <ele>11.8</ele>
        <time>2023-01-28T11:22:59Z</time>
      </trkpt>
      <trkpt lat="36.4819230" lon="-6.2626250">
        <ele>11.8</ele>
        <time>2023-01-28T11:23:00Z</time>
      </trkpt>
      <trkpt lat="36.4819410" lon="-6.2626380">
        <ele>11.6</ele>
        <time>2023-01-28T11:23:01Z</time>
      </trkpt>
      <trkpt lat="36.4819590" lon="-6.2626550">
        <ele>11.6</ele>
        <time>2023-01-28T11:23:02Z</time>
      </trkpt>
      <trkpt lat="36.4819810" lon="-6.2626640">
        <ele>11.4</ele>
        <time>2023-01-28T11:23:03Z</time>
      </trkpt>
      <trkpt lat="36.4820070" lon="-6.2626740">
        <ele>11.2</ele>
        <time>2023-01-28T11:23:04Z</time>
      </trkpt>
      <trkpt lat="36.4820330" lon="-6.2626820">
        <ele>11.4</ele>
        <time>2023-01-28T11:23:05Z</time>
      </trkpt>
      <trkpt lat="36.4820700" lon="-6.2626940">
        <ele>11.6</ele>
        <time>2023-01-28T11:23:06Z</time>
      </trkpt>
      <trkpt lat="36.4820870" lon="-6.2627110">
        <ele>11.4</ele>
        <time>2023-01-28T11:23:07Z</time>
      </trkpt>
      <trkpt lat="36.4820970" lon="-6.2627290">
        <ele>11.4</ele>
        <time>2023-01-28T11:23:08Z</time>
      </trkpt>
      <trkpt lat="36.4821120" lon="-6.2627420">
        <ele>11.4</ele>
        <time>2023-01-28T11:23:09Z</time>
      </trkpt>
      <trkpt lat="36.4821380" lon="-6.2627510">
        <ele>11.2</ele>
        <time>2023-01-28T11:23:10Z</time>
      </trkpt>
      <trkpt lat="36.4821630" lon="-6.2627530">
        <ele>11.2</ele>
        <time>2023-01-28T11:23:11Z</time>
      </trkpt>
      <trkpt lat="36.4821890" lon="-6.2627730">
        <ele>11.2</ele>
        <time>2023-01-28T11:23:12Z</time>
      </trkpt>
      <trkpt lat="36.4822090" lon="-6.2627830">
        <ele>11.6</ele>
        <time>2023-01-28T11:23:13Z</time>
      </trkpt>
      <trkpt lat="36.4822320" lon="-6.2628000">
        <ele>11.6</ele>
        <time>2023-01-28T11:23:14Z</time>
      </trkpt>
      <trkpt lat="36.4822590" lon="-6.2628090">
        <ele>11.4</ele>
        <time>2023-01-28T11:23:15Z</time>
      </trkpt>
      <trkpt lat="36.4822810" lon="-6.2628140">
        <ele>11.4</ele>
        <time>2023-01-28T11:23:16Z</time>
      </trkpt>
      <trkpt lat="36.4823060" lon="-6.2628240">
        <ele>11.6</ele>
        <time>2023-01-28T11:23:17Z</time>
      </trkpt>
      <trkpt lat="36.4823160" lon="-6.2628440">
        <ele>11.6</ele>
        <time>2023-01-28T11:23:18Z</time>
      </trkpt>
      <trkpt lat="36.4823400" lon="-6.2628580">
        <ele>12.0</ele>
        <time>2023-01-28T11:23:19Z</time>
      </trkpt>
      <trkpt lat="36.4823550" lon="-6.2628680">
        <ele>11.4</ele>
        <time>2023-01-28T11:23:20Z</time>
      </trkpt>
      <trkpt lat="36.4823810" lon="-6.2628770">
        <ele>11.2</ele>
        <time>2023-01-28T11:23:21Z</time>
      </trkpt>
      <trkpt lat="36.4823980" lon="-6.2628890">
        <ele>11.2</ele>
        <time>2023-01-28T11:23:22Z</time>
      </trkpt>
      <trkpt lat="36.4824210" lon="-6.2628980">
        <ele>11.4</ele>
        <time>2023-01-28T11:23:23Z</time>
      </trkpt>
      <trkpt lat="36.4824440" lon="-6.2629200">
        <ele>11.6</ele>
        <time>2023-01-28T11:23:24Z</time>
      </trkpt>
      <trkpt lat="36.4824800" lon="-6.2629330">
        <ele>11.4</ele>
        <time>2023-01-28T11:23:25Z</time>
      </trkpt>
      <trkpt lat="36.4824940" lon="-6.2629350">
        <ele>11.6</ele>
        <time>2023-01-28T11:23:26Z</time>
      </trkpt>
      <trkpt lat="36.4825150" lon="-6.2629490">
        <ele>11.6</ele>
        <time>2023-01-28T11:23:27Z</time>
      </trkpt>
      <trkpt lat="36.4825430" lon="-6.2629660">
        <ele>11.2</ele>
        <time>2023-01-28T11:23:28Z</time>
      </trkpt>
      <trkpt lat="36.4825610" lon="-6.2629850">
        <ele>11.4</ele>
        <time>2023-01-28T11:23:29Z</time>
      </trkpt>
      <trkpt lat="36.4825890" lon="-6.2630030">
        <ele>11.2</ele>
        <time>2023-01-28T11:23:30Z</time>
      </trkpt>
      <trkpt lat="36.4826080" lon="-6.2630130">
        <ele>11.6</ele>
        <time>2023-01-28T11:23:31Z</time>
      </trkpt>
      <trkpt lat="36.4826310" lon="-6.2630200">
        <ele>11.4</ele>
        <time>2023-01-28T11:23:32Z</time>
      </trkpt>
      <trkpt lat="36.4826580" lon="-6.2630300">
        <ele>11.6</ele>
        <time>2023-01-28T11:23:33Z</time>
      </trkpt>
      <trkpt lat="36.4826810" lon="-6.2630410">
        <ele>11.8</ele>
        <time>2023-01-28T11:23:34Z</time>
      </trkpt>
      <trkpt lat="36.4827090" lon="-6.2630570">
        <ele>12.0</ele>
        <time>2023-01-28T11:23:35Z</time>
      </trkpt>
      <trkpt lat="36.4827400" lon="-6.2630800">
        <ele>12.2</ele>
        <time>2023-01-28T11:23:36Z</time>
      </trkpt>
      <trkpt lat="36.4827640" lon="-6.2630900">
        <ele>12.0</ele>
        <time>2023-01-28T11:23:37Z</time>
      </trkpt>
      <trkpt lat="36.4827870" lon="-6.2631030">
        <ele>12.2</ele>
        <time>2023-01-28T11:23:38Z</time>
      </trkpt>
      <trkpt lat="36.4828060" lon="-6.2631100">
        <ele>12.0</ele>
        <time>2023-01-28T11:23:39Z</time>
      </trkpt>
      <trkpt lat="36.4828380" lon="-6.2631230">
        <ele>11.8</ele>
        <time>2023-01-28T11:23:40Z</time>
      </trkpt>
      <trkpt lat="36.4828650" lon="-6.2631360">
        <ele>12.0</ele>
        <time>2023-01-28T11:23:41Z</time>
      </trkpt>
      <trkpt lat="36.4828810" lon="-6.2631460">
        <ele>11.8</ele>
        <time>2023-01-28T11:23:42Z</time>
      </trkpt>
      <trkpt lat="36.4829020" lon="-6.2631620">
        <ele>11.8</ele>
        <time>2023-01-28T11:23:43Z</time>
      </trkpt>
      <trkpt lat="36.4829160" lon="-6.2631820">
        <ele>11.8</ele>
        <time>2023-01-28T11:23:44Z</time>
      </trkpt>
      <trkpt lat="36.4829380" lon="-6.2632050">
        <ele>11.8</ele>
        <time>2023-01-28T11:23:45Z</time>
      </trkpt>
      <trkpt lat="36.4829580" lon="-6.2632200">
        <ele>11.6</ele>
        <time>2023-01-28T11:23:46Z</time>
      </trkpt>
      <trkpt lat="36.4829810" lon="-6.2632420">
        <ele>11.8</ele>
        <time>2023-01-28T11:23:47Z</time>
      </trkpt>
      <trkpt lat="36.4829970" lon="-6.2632560">
        <ele>11.2</ele>
        <time>2023-01-28T11:23:48Z</time>
      </trkpt>
      <trkpt lat="36.4830330" lon="-6.2632720">
        <ele>11.0</ele>
        <time>2023-01-28T11:23:49Z</time>
      </trkpt>
      <trkpt lat="36.4830540" lon="-6.2632870">
        <ele>11.2</ele>
        <time>2023-01-28T11:23:50Z</time>
      </trkpt>
      <trkpt lat="36.4830860" lon="-6.2633050">
        <ele>11.2</ele>
        <time>2023-01-28T11:23:51Z</time>
      </trkpt>
      <trkpt lat="36.4831210" lon="-6.2633150">
        <ele>11.4</ele>
        <time>2023-01-28T11:23:52Z</time>
      </trkpt>
      <trkpt lat="36.4831520" lon="-6.2633250">
        <ele>11.0</ele>
        <time>2023-01-28T11:23:53Z</time>
      </trkpt>
      <trkpt lat="36.4831720" lon="-6.2633340">
        <ele>11.2</ele>
        <time>2023-01-28T11:23:54Z</time>
      </trkpt>
      <trkpt lat="36.4831900" lon="-6.2633440">
        <ele>11.4</ele>
        <time>2023-01-28T11:23:55Z</time>
      </trkpt>
      <trkpt lat="36.4832200" lon="-6.2633640">
        <ele>11.4</ele>
        <time>2023-01-28T11:23:56Z</time>
      </trkpt>
      <trkpt lat="36.4832320" lon="-6.2633680">
        <ele>11.2</ele>
        <time>2023-01-28T11:23:57Z</time>
      </trkpt>
      <trkpt lat="36.4832620" lon="-6.2633850">
        <ele>11.4</ele>
        <time>2023-01-28T11:23:58Z</time>
      </trkpt>
      <trkpt lat="36.4832860" lon="-6.2633980">
        <ele>11.0</ele>
        <time>2023-01-28T11:23:59Z</time>
      </trkpt>
      <trkpt lat="36.4833030" lon="-6.2634100">
        <ele>11.2</ele>
        <time>2023-01-28T11:24:00Z</time>
      </trkpt>
      <trkpt lat="36.4833270" lon="-6.2634210">
        <ele>11.4</ele>
        <time>2023-01-28T11:24:01Z</time>
      </trkpt>
      <trkpt lat="36.4833460" lon="-6.2634360">
        <ele>11.4</ele>
        <time>2023-01-28T11:24:02Z</time>
      </trkpt>
      <trkpt lat="36.4833700" lon="-6.2634500">
        <ele>11.8</ele>
        <time>2023-01-28T11:24:03Z</time>
      </trkpt>
      <trkpt lat="36.4833940" lon="-6.2634530">
        <ele>11.6</ele>
        <time>2023-01-28T11:24:04Z</time>
      </trkpt>
      <trkpt lat="36.4834210" lon="-6.2634540">
        <ele>11.8</ele>
        <time>2023-01-28T11:24:05Z</time>
      </trkpt>
      <trkpt lat="36.4834430" lon="-6.2634640">
        <ele>12.4</ele>
        <time>2023-01-28T11:24:06Z</time>
      </trkpt>
      <trkpt lat="36.4834570" lon="-6.2634780">
        <ele>12.0</ele>
        <time>2023-01-28T11:24:07Z</time>
      </trkpt>
      <trkpt lat="36.4834830" lon="-6.2635030">
        <ele>12.0</ele>
        <time>2023-01-28T11:24:08Z</time>
      </trkpt>
      <trkpt lat="36.4835110" lon="-6.2635180">
        <ele>12.2</ele>
        <time>2023-01-28T11:24:09Z</time>
      </trkpt>
      <trkpt lat="36.4835350" lon="-6.2635270">
        <ele>12.0</ele>
        <time>2023-01-28T11:24:10Z</time>
      </trkpt>
      <trkpt lat="36.4835600" lon="-6.2635430">
        <ele>12.2</ele>
        <time>2023-01-28T11:24:11Z</time>
      </trkpt>
      <trkpt lat="36.4835860" lon="-6.2635620">
        <ele>12.4</ele>
        <time>2023-01-28T11:24:12Z</time>
      </trkpt>
      <trkpt lat="36.4836080" lon="-6.2635740">
        <ele>12.2</ele>
        <time>2023-01-28T11:24:13Z</time>
      </trkpt>
      <trkpt lat="36.4836280" lon="-6.2635890">
        <ele>12.6</ele>
        <time>2023-01-28T11:24:14Z</time>
      </trkpt>
      <trkpt lat="36.4836490" lon="-6.2636040">
        <ele>12.8</ele>
        <time>2023-01-28T11:24:15Z</time>
      </trkpt>
      <trkpt lat="36.4836770" lon="-6.2636200">
        <ele>12.4</ele>
        <time>2023-01-28T11:24:16Z</time>
      </trkpt>
      <trkpt lat="36.4837060" lon="-6.2636370">
        <ele>12.6</ele>
        <time>2023-01-28T11:24:17Z</time>
      </trkpt>
      <trkpt lat="36.4837290" lon="-6.2636530">
        <ele>12.0</ele>
        <time>2023-01-28T11:24:18Z</time>
      </trkpt>
      <trkpt lat="36.4837480" lon="-6.2636680">
        <ele>12.8</ele>
        <time>2023-01-28T11:24:19Z</time>
      </trkpt>
      <trkpt lat="36.4837710" lon="-6.2636700">
        <ele>12.2</ele>
        <time>2023-01-28T11:24:20Z</time>
      </trkpt>
      <trkpt lat="36.4837900" lon="-6.2636850">
        <ele>11.8</ele>
        <time>2023-01-28T11:24:21Z</time>
      </trkpt>
      <trkpt lat="36.4838170" lon="-6.2636960">
        <ele>12.4</ele>
        <time>2023-01-28T11:24:22Z</time>
      </trkpt>
      <trkpt lat="36.4838430" lon="-6.2637010">
        <ele>12.2</ele>
        <time>2023-01-28T11:24:23Z</time>
      </trkpt>
      <trkpt lat="36.4838600" lon="-6.2637130">
        <ele>11.8</ele>
        <time>2023-01-28T11:24:24Z</time>
      </trkpt>
      <trkpt lat="36.4838940" lon="-6.2637300">
        <ele>12.4</ele>
        <time>2023-01-28T11:24:25Z</time>
      </trkpt>
      <trkpt lat="36.4839290" lon="-6.2637490">
        <ele>12.4</ele>
        <time>2023-01-28T11:24:26Z</time>
      </trkpt>
      <trkpt lat="36.4839670" lon="-6.2637700">
        <ele>12.4</ele>
        <time>2023-01-28T11:24:27Z</time>
      </trkpt>
      <trkpt lat="36.4839960" lon="-6.2637870">
        <ele>12.2</ele>
        <time>2023-01-28T11:24:28Z</time>
      </trkpt>
      <trkpt lat="36.4840310" lon="-6.2638000">
        <ele>12.4</ele>
        <time>2023-01-28T11:24:29Z</time>
      </trkpt>
      <trkpt lat="36.4840600" lon="-6.2638120">
        <ele>12.8</ele>
        <time>2023-01-28T11:24:30Z</time>
      </trkpt>
      <trkpt lat="36.4840700" lon="-6.2638150">
        <ele>12.4</ele>
        <time>2023-01-28T11:24:31Z</time>
      </trkpt>
      <trkpt lat="36.4840860" lon="-6.2638210">
        <ele>13.4</ele>
        <time>2023-01-28T11:24:32Z</time>
      </trkpt>
      <trkpt lat="36.4841050" lon="-6.2638340">
        <ele>13.2</ele>
        <time>2023-01-28T11:24:33Z</time>
      </trkpt>
      <trkpt lat="36.4841310" lon="-6.2638490">
        <ele>12.8</ele>
        <time>2023-01-28T11:24:34Z</time>
      </trkpt>
      <trkpt lat="36.4841420" lon="-6.2638680">
        <ele>12.6</ele>
        <time>2023-01-28T11:24:35Z</time>
      </trkpt>
      <trkpt lat="36.4841720" lon="-6.2638870">
        <ele>11.8</ele>
        <time>2023-01-28T11:24:36Z</time>
      </trkpt>
      <trkpt lat="36.4841960" lon="-6.2638990">
        <ele>11.8</ele>
        <time>2023-01-28T11:24:37Z</time>
      </trkpt>
      <trkpt lat="36.4842150" lon="-6.2639140">
        <ele>12.0</ele>
        <time>2023-01-28T11:24:38Z</time>
      </trkpt>
      <trkpt lat="36.4842490" lon="-6.2639370">
        <ele>12.0</ele>
        <time>2023-01-28T11:24:39Z</time>
      </trkpt>
      <trkpt lat="36.4842770" lon="-6.2639450">
        <ele>11.4</ele>
        <time>2023-01-28T11:24:40Z</time>
      </trkpt>
      <trkpt lat="36.4842930" lon="-6.2639560">
        <ele>12.6</ele>
        <time>2023-01-28T11:24:41Z</time>
      </trkpt>
      <trkpt lat="36.4843230" lon="-6.2639850">
        <ele>12.2</ele>
        <time>2023-01-28T11:24:42Z</time>
      </trkpt>
      <trkpt lat="36.4843500" lon="-6.2639960">
        <ele>11.8</ele>
        <time>2023-01-28T11:24:43Z</time>
      </trkpt>
      <trkpt lat="36.4843760" lon="-6.2640070">
        <ele>11.6</ele>
        <time>2023-01-28T11:24:44Z</time>
      </trkpt>
      <trkpt lat="36.4843920" lon="-6.2640200">
        <ele>11.0</ele>
        <time>2023-01-28T11:24:45Z</time>
      </trkpt>
      <trkpt lat="36.4844190" lon="-6.2640430">
        <ele>11.0</ele>
        <time>2023-01-28T11:24:46Z</time>
      </trkpt>
      <trkpt lat="36.4844400" lon="-6.2640490">
        <ele>11.6</ele>
        <time>2023-01-28T11:24:47Z</time>
      </trkpt>
      <trkpt lat="36.4844780" lon="-6.2640620">
        <ele>11.2</ele>
        <time>2023-01-28T11:24:49Z</time>
      </trkpt>
      <trkpt lat="36.4845020" lon="-6.2640780">
        <ele>11.4</ele>
        <time>2023-01-28T11:24:50Z</time>
      </trkpt>
      <trkpt lat="36.4845200" lon="-6.2640900">
        <ele>11.2</ele>
        <time>2023-01-28T11:24:51Z</time>
      </trkpt>
      <trkpt lat="36.4845480" lon="-6.2641040">
        <ele>11.4</ele>
        <time>2023-01-28T11:24:52Z</time>
      </trkpt>
      <trkpt lat="36.4845750" lon="-6.2641140">
        <ele>11.2</ele>
        <time>2023-01-28T11:24:53Z</time>
      </trkpt>
      <trkpt lat="36.4845870" lon="-6.2641300">
        <ele>11.2</ele>
        <time>2023-01-28T11:24:54Z</time>
      </trkpt>
      <trkpt lat="36.4846080" lon="-6.2641450">
        <ele>11.8</ele>
        <time>2023-01-28T11:24:55Z</time>
      </trkpt>
      <trkpt lat="36.4846290" lon="-6.2641580">
        <ele>11.8</ele>
        <time>2023-01-28T11:24:56Z</time>
      </trkpt>
      <trkpt lat="36.4846590" lon="-6.2641640">
        <ele>11.6</ele>
        <time>2023-01-28T11:24:57Z</time>
      </trkpt>
      <trkpt lat="36.4846730" lon="-6.2641820">
        <ele>11.6</ele>
        <time>2023-01-28T11:24:58Z</time>
      </trkpt>
      <trkpt lat="36.4846900" lon="-6.2641970">
        <ele>11.4</ele>
        <time>2023-01-28T11:24:59Z</time>
      </trkpt>
      <trkpt lat="36.4847190" lon="-6.2642070">
        <ele>11.2</ele>
        <time>2023-01-28T11:25:00Z</time>
      </trkpt>
      <trkpt lat="36.4847430" lon="-6.2642180">
        <ele>11.0</ele>
        <time>2023-01-28T11:25:01Z</time>
      </trkpt>
      <trkpt lat="36.4847670" lon="-6.2642350">
        <ele>11.2</ele>
        <time>2023-01-28T11:25:02Z</time>
      </trkpt>
      <trkpt lat="36.4847910" lon="-6.2642430">
        <ele>11.0</ele>
        <time>2023-01-28T11:25:03Z</time>
      </trkpt>
      <trkpt lat="36.4848170" lon="-6.2642570">
        <ele>11.2</ele>
        <time>2023-01-28T11:25:04Z</time>
      </trkpt>
      <trkpt lat="36.4848390" lon="-6.2642830">
        <ele>11.2</ele>
        <time>2023-01-28T11:25:05Z</time>
      </trkpt>
      <trkpt lat="36.4848610" lon="-6.2642920">
        <ele>11.2</ele>
        <time>2023-01-28T11:25:06Z</time>
      </trkpt>
      <trkpt lat="36.4848840" lon="-6.2643040">
        <ele>11.4</ele>
        <time>2023-01-28T11:25:07Z</time>
      </trkpt>
      <trkpt lat="36.4849120" lon="-6.2643170">
        <ele>11.2</ele>
        <time>2023-01-28T11:25:08Z</time>
      </trkpt>
      <trkpt lat="36.4849370" lon="-6.2643260">
        <ele>11.6</ele>
        <time>2023-01-28T11:25:09Z</time>
      </trkpt>
      <trkpt lat="36.4849550" lon="-6.2643380">
        <ele>11.8</ele>
        <time>2023-01-28T11:25:10Z</time>
      </trkpt>
      <trkpt lat="36.4849880" lon="-6.2643510">
        <ele>11.2</ele>
        <time>2023-01-28T11:25:11Z</time>
      </trkpt>
      <trkpt lat="36.4850050" lon="-6.2643670">
        <ele>11.0</ele>
        <time>2023-01-28T11:25:12Z</time>
      </trkpt>
      <trkpt lat="36.4850310" lon="-6.2643830">
        <ele>11.0</ele>
        <time>2023-01-28T11:25:13Z</time>
      </trkpt>
      <trkpt lat="36.4850480" lon="-6.2644030">
        <ele>11.2</ele>
        <time>2023-01-28T11:25:14Z</time>
      </trkpt>
      <trkpt lat="36.4850690" lon="-6.2644170">
        <ele>11.4</ele>
        <time>2023-01-28T11:25:15Z</time>
      </trkpt>
      <trkpt lat="36.4850880" lon="-6.2644240">
        <ele>11.6</ele>
        <time>2023-01-28T11:25:16Z</time>
      </trkpt>
      <trkpt lat="36.4851100" lon="-6.2644200">
        <ele>11.0</ele>
        <time>2023-01-28T11:25:17Z</time>
      </trkpt>
      <trkpt lat="36.4851360" lon="-6.2644360">
        <ele>11.0</ele>
        <time>2023-01-28T11:25:18Z</time>
      </trkpt>
      <trkpt lat="36.4851600" lon="-6.2644430">
        <ele>11.0</ele>
        <time>2023-01-28T11:25:19Z</time>
      </trkpt>
      <trkpt lat="36.4851870" lon="-6.2644640">
        <ele>11.2</ele>
        <time>2023-01-28T11:25:20Z</time>
      </trkpt>
      <trkpt lat="36.4852120" lon="-6.2644780">
        <ele>11.0</ele>
        <time>2023-01-28T11:25:21Z</time>
      </trkpt>
      <trkpt lat="36.4852270" lon="-6.2644950">
        <ele>11.0</ele>
        <time>2023-01-28T11:25:22Z</time>
      </trkpt>
      <trkpt lat="36.4852500" lon="-6.2645050">
        <ele>11.2</ele>
        <time>2023-01-28T11:25:23Z</time>
      </trkpt>
      <trkpt lat="36.4852750" lon="-6.2645160">
        <ele>11.0</ele>
        <time>2023-01-28T11:25:24Z</time>
      </trkpt>
      <trkpt lat="36.4853020" lon="-6.2645320">
        <ele>10.8</ele>
        <time>2023-01-28T11:25:25Z</time>
      </trkpt>
      <trkpt lat="36.4853310" lon="-6.2645510">
        <ele>10.4</ele>
        <time>2023-01-28T11:25:26Z</time>
      </trkpt>
      <trkpt lat="36.4853450" lon="-6.2645580">
        <ele>10.8</ele>
        <time>2023-01-28T11:25:27Z</time>
      </trkpt>
      <trkpt lat="36.4853660" lon="-6.2645660">
        <ele>10.8</ele>
        <time>2023-01-28T11:25:28Z</time>
      </trkpt>
      <trkpt lat="36.4854000" lon="-6.2645840">
        <ele>10.8</ele>
        <time>2023-01-28T11:25:29Z</time>
      </trkpt>
      <trkpt lat="36.4854290" lon="-6.2646010">
        <ele>10.8</ele>
        <time>2023-01-28T11:25:30Z</time>
      </trkpt>
      <trkpt lat="36.4854490" lon="-6.2646150">
        <ele>11.0</ele>
        <time>2023-01-28T11:25:31Z</time>
      </trkpt>
      <trkpt lat="36.4854750" lon="-6.2646260">
        <ele>11.4</ele>
        <time>2023-01-28T11:25:32Z</time>
      </trkpt>
      <trkpt lat="36.4855000" lon="-6.2646410">
        <ele>11.4</ele>
        <time>2023-01-28T11:25:33Z</time>
      </trkpt>
      <trkpt lat="36.4855330" lon="-6.2646640">
        <ele>11.4</ele>
        <time>2023-01-28T11:25:34Z</time>
      </trkpt>
      <trkpt lat="36.4855540" lon="-6.2646730">
        <ele>11.8</ele>
        <time>2023-01-28T11:25:35Z</time>
      </trkpt>
      <trkpt lat="36.4855770" lon="-6.2646910">
        <ele>12.2</ele>
        <time>2023-01-28T11:25:36Z</time>
      </trkpt>
      <trkpt lat="36.4855950" lon="-6.2646970">
        <ele>11.6</ele>
        <time>2023-01-28T11:25:37Z</time>
      </trkpt>
      <trkpt lat="36.4856270" lon="-6.2647120">
        <ele>11.6</ele>
        <time>2023-01-28T11:25:38Z</time>
      </trkpt>
      <trkpt lat="36.4856330" lon="-6.2647240">
        <ele>11.2</ele>
        <time>2023-01-28T11:25:39Z</time>
      </trkpt>
      <trkpt lat="36.4856560" lon="-6.2647290">
        <ele>11.6</ele>
        <time>2023-01-28T11:25:40Z</time>
      </trkpt>
      <trkpt lat="36.4856780" lon="-6.2647390">
        <ele>11.4</ele>
        <time>2023-01-28T11:25:41Z</time>
      </trkpt>
      <trkpt lat="36.4856970" lon="-6.2647460">
        <ele>11.8</ele>
        <time>2023-01-28T11:25:42Z</time>
      </trkpt>
      <trkpt lat="36.4857250" lon="-6.2647530">
        <ele>11.6</ele>
        <time>2023-01-28T11:25:43Z</time>
      </trkpt>
      <trkpt lat="36.4857490" lon="-6.2647590">
        <ele>11.8</ele>
        <time>2023-01-28T11:25:44Z</time>
      </trkpt>
      <trkpt lat="36.4857600" lon="-6.2647690">
        <ele>11.6</ele>
        <time>2023-01-28T11:25:45Z</time>
      </trkpt>
      <trkpt lat="36.4857740" lon="-6.2647700">
        <ele>11.8</ele>
        <time>2023-01-28T11:25:46Z</time>
      </trkpt>
      <trkpt lat="36.4857940" lon="-6.2647940">
        <ele>12.0</ele>
        <time>2023-01-28T11:25:47Z</time>
      </trkpt>
      <trkpt lat="36.4858170" lon="-6.2648060">
        <ele>12.0</ele>
        <time>2023-01-28T11:25:48Z</time>
      </trkpt>
      <trkpt lat="36.4858480" lon="-6.2648170">
        <ele>12.0</ele>
        <time>2023-01-28T11:25:49Z</time>
      </trkpt>
      <trkpt lat="36.4858640" lon="-6.2648390">
        <ele>12.2</ele>
        <time>2023-01-28T11:25:50Z</time>
      </trkpt>
      <trkpt lat="36.4858940" lon="-6.2648590">
        <ele>12.0</ele>
        <time>2023-01-28T11:25:51Z</time>
      </trkpt>
      <trkpt lat="36.4859090" lon="-6.2648720">
        <ele>11.8</ele>
        <time>2023-01-28T11:25:52Z</time>
      </trkpt>
      <trkpt lat="36.4859360" lon="-6.2648790">
        <ele>11.4</ele>
        <time>2023-01-28T11:25:53Z</time>
      </trkpt>
      <trkpt lat="36.4859560" lon="-6.2648920">
        <ele>11.2</ele>
        <time>2023-01-28T11:25:54Z</time>
      </trkpt>
      <trkpt lat="36.4859840" lon="-6.2649130">
        <ele>11.6</ele>
        <time>2023-01-28T11:25:55Z</time>
      </trkpt>
      <trkpt lat="36.4860050" lon="-6.2649270">
        <ele>11.6</ele>
        <time>2023-01-28T11:25:56Z</time>
      </trkpt>
      <trkpt lat="36.4860240" lon="-6.2649360">
        <ele>11.4</ele>
        <time>2023-01-28T11:25:57Z</time>
      </trkpt>
      <trkpt lat="36.4860430" lon="-6.2649470">
        <ele>11.0</ele>
        <time>2023-01-28T11:25:58Z</time>
      </trkpt>
      <trkpt lat="36.4860660" lon="-6.2649560">
        <ele>10.8</ele>
        <time>2023-01-28T11:25:59Z</time>
      </trkpt>
      <trkpt lat="36.4860840" lon="-6.2649760">
        <ele>10.6</ele>
        <time>2023-01-28T11:26:00Z</time>
      </trkpt>
      <trkpt lat="36.4861050" lon="-6.2649950">
        <ele>10.8</ele>
        <time>2023-01-28T11:26:01Z</time>
      </trkpt>
      <trkpt lat="36.4861350" lon="-6.2650090">
        <ele>10.8</ele>
        <time>2023-01-28T11:26:02Z</time>
      </trkpt>
      <trkpt lat="36.4861660" lon="-6.2650150">
        <ele>10.8</ele>
        <time>2023-01-28T11:26:03Z</time>
      </trkpt>
      <trkpt lat="36.4861940" lon="-6.2650280">
        <ele>11.0</ele>
        <time>2023-01-28T11:26:04Z</time>
      </trkpt>
      <trkpt lat="36.4862140" lon="-6.2650450">
        <ele>11.0</ele>
        <time>2023-01-28T11:26:05Z</time>
      </trkpt>
      <trkpt lat="36.4862500" lon="-6.2650580">
        <ele>11.0</ele>
        <time>2023-01-28T11:26:06Z</time>
      </trkpt>
      <trkpt lat="36.4862680" lon="-6.2650750">
        <ele>10.8</ele>
        <time>2023-01-28T11:26:07Z</time>
      </trkpt>
      <trkpt lat="36.4863040" lon="-6.2650870">
        <ele>10.8</ele>
        <time>2023-01-28T11:26:08Z</time>
      </trkpt>
      <trkpt lat="36.4863270" lon="-6.2651000">
        <ele>10.8</ele>
        <time>2023-01-28T11:26:09Z</time>
      </trkpt>
      <trkpt lat="36.4863560" lon="-6.2651150">
        <ele>11.0</ele>
        <time>2023-01-28T11:26:10Z</time>
      </trkpt>
      <trkpt lat="36.4863790" lon="-6.2651250">
        <ele>10.8</ele>
        <time>2023-01-28T11:26:11Z</time>
      </trkpt>
      <trkpt lat="36.4864060" lon="-6.2651340">
        <ele>10.8</ele>
        <time>2023-01-28T11:26:12Z</time>
      </trkpt>
      <trkpt lat="36.4864250" lon="-6.2651490">
        <ele>10.8</ele>
        <time>2023-01-28T11:26:13Z</time>
      </trkpt>
      <trkpt lat="36.4864490" lon="-6.2651630">
        <ele>11.2</ele>
        <time>2023-01-28T11:26:14Z</time>
      </trkpt>
      <trkpt lat="36.4864600" lon="-6.2651820">
        <ele>11.2</ele>
        <time>2023-01-28T11:26:15Z</time>
      </trkpt>
      <trkpt lat="36.4864820" lon="-6.2651960">
        <ele>11.2</ele>
        <time>2023-01-28T11:26:16Z</time>
      </trkpt>
      <trkpt lat="36.4865120" lon="-6.2652220">
        <ele>11.2</ele>
        <time>2023-01-28T11:26:17Z</time>
      </trkpt>
      <trkpt lat="36.4865420" lon="-6.2652300">
        <ele>11.4</ele>
        <time>2023-01-28T11:26:18Z</time>
      </trkpt>
      <trkpt lat="36.4865560" lon="-6.2652360">
        <ele>11.4</ele>
        <time>2023-01-28T11:26:19Z</time>
      </trkpt>
      <trkpt lat="36.4865800" lon="-6.2652510">
        <ele>11.6</ele>
        <time>2023-01-28T11:26:20Z</time>
      </trkpt>
      <trkpt lat="36.4865980" lon="-6.2652680">
        <ele>11.4</ele>
        <time>2023-01-28T11:26:21Z</time>
      </trkpt>
      <trkpt lat="36.4866110" lon="-6.2652900">
        <ele>11.2</ele>
        <time>2023-01-28T11:26:22Z</time>
      </trkpt>
      <trkpt lat="36.4866340" lon="-6.2653090">
        <ele>11.2</ele>
        <time>2023-01-28T11:26:23Z</time>
      </trkpt>
      <trkpt lat="36.4866670" lon="-6.2653230">
        <ele>11.0</ele>
        <time>2023-01-28T11:26:24Z</time>
      </trkpt>
      <trkpt lat="36.4867060" lon="-6.2653350">
        <ele>11.0</ele>
        <time>2023-01-28T11:26:25Z</time>
      </trkpt>
      <trkpt lat="36.4867330" lon="-6.2653510">
        <ele>11.0</ele>
        <time>2023-01-28T11:26:26Z</time>
      </trkpt>
      <trkpt lat="36.4867710" lon="-6.2653530">
        <ele>11.0</ele>
        <time>2023-01-28T11:26:27Z</time>
      </trkpt>
      <trkpt lat="36.4867970" lon="-6.2653610">
        <ele>10.8</ele>
        <time>2023-01-28T11:26:28Z</time>
      </trkpt>
      <trkpt lat="36.4868200" lon="-6.2653740">
        <ele>10.8</ele>
        <time>2023-01-28T11:26:29Z</time>
      </trkpt>
      <trkpt lat="36.4868490" lon="-6.2653900">
        <ele>11.0</ele>
        <time>2023-01-28T11:26:30Z</time>
      </trkpt>
      <trkpt lat="36.4868620" lon="-6.2654030">
        <ele>11.0</ele>
        <time>2023-01-28T11:26:31Z</time>
      </trkpt>
      <trkpt lat="36.4868860" lon="-6.2654200">
        <ele>11.2</ele>
        <time>2023-01-28T11:26:32Z</time>
      </trkpt>
      <trkpt lat="36.4869110" lon="-6.2654310">
        <ele>11.2</ele>
        <time>2023-01-28T11:26:33Z</time>
      </trkpt>
      <trkpt lat="36.4869370" lon="-6.2654460">
        <ele>11.6</ele>
        <time>2023-01-28T11:26:34Z</time>
      </trkpt>
      <trkpt lat="36.4869550" lon="-6.2654600">
        <ele>11.4</ele>
        <time>2023-01-28T11:26:35Z</time>
      </trkpt>
      <trkpt lat="36.4869770" lon="-6.2654690">
        <ele>11.4</ele>
        <time>2023-01-28T11:26:36Z</time>
      </trkpt>
      <trkpt lat="36.4870110" lon="-6.2654800">
        <ele>11.2</ele>
        <time>2023-01-28T11:26:37Z</time>
      </trkpt>
      <trkpt lat="36.4870300" lon="-6.2654950">
        <ele>11.6</ele>
        <time>2023-01-28T11:26:38Z</time>
      </trkpt>
      <trkpt lat="36.4870610" lon="-6.2655050">
        <ele>11.8</ele>
        <time>2023-01-28T11:26:39Z</time>
      </trkpt>
      <trkpt lat="36.4870860" lon="-6.2655160">
        <ele>11.0</ele>
        <time>2023-01-28T11:26:40Z</time>
      </trkpt>
      <trkpt lat="36.4871210" lon="-6.2655310">
        <ele>10.6</ele>
        <time>2023-01-28T11:26:41Z</time>
      </trkpt>
      <trkpt lat="36.4871480" lon="-6.2655340">
        <ele>11.0</ele>
        <time>2023-01-28T11:26:42Z</time>
      </trkpt>
      <trkpt lat="36.4871690" lon="-6.2655540">
        <ele>11.0</ele>
        <time>2023-01-28T11:26:43Z</time>
      </trkpt>
      <trkpt lat="36.4871930" lon="-6.2655760">
        <ele>10.8</ele>
        <time>2023-01-28T11:26:44Z</time>
      </trkpt>
      <trkpt lat="36.4872200" lon="-6.2655990">
        <ele>10.6</ele>
        <time>2023-01-28T11:26:45Z</time>
      </trkpt>
      <trkpt lat="36.4872400" lon="-6.2656150">
        <ele>10.6</ele>
        <time>2023-01-28T11:26:46Z</time>
      </trkpt>
      <trkpt lat="36.4872580" lon="-6.2656310">
        <ele>11.2</ele>
        <time>2023-01-28T11:26:47Z</time>
      </trkpt>
      <trkpt lat="36.4872710" lon="-6.2656390">
        <ele>11.4</ele>
        <time>2023-01-28T11:26:48Z</time>
      </trkpt>
      <trkpt lat="36.4872870" lon="-6.2656560">
        <ele>11.6</ele>
        <time>2023-01-28T11:26:49Z</time>
      </trkpt>
      <trkpt lat="36.4873080" lon="-6.2656740">
        <ele>11.2</ele>
        <time>2023-01-28T11:26:50Z</time>
      </trkpt>
      <trkpt lat="36.4873340" lon="-6.2656920">
        <ele>11.2</ele>
        <time>2023-01-28T11:26:51Z</time>
      </trkpt>
      <trkpt lat="36.4873530" lon="-6.2657050">
        <ele>11.6</ele>
        <time>2023-01-28T11:26:52Z</time>
      </trkpt>
      <trkpt lat="36.4873680" lon="-6.2657160">
        <ele>11.6</ele>
        <time>2023-01-28T11:26:53Z</time>
      </trkpt>
      <trkpt lat="36.4873900" lon="-6.2657240">
        <ele>11.4</ele>
        <time>2023-01-28T11:26:54Z</time>
      </trkpt>
      <trkpt lat="36.4874140" lon="-6.2657430">
        <ele>11.2</ele>
        <time>2023-01-28T11:26:55Z</time>
      </trkpt>
      <trkpt lat="36.4874410" lon="-6.2657630">
        <ele>10.8</ele>
        <time>2023-01-28T11:26:56Z</time>
      </trkpt>
      <trkpt lat="36.4874680" lon="-6.2657740">
        <ele>10.6</ele>
        <time>2023-01-28T11:26:57Z</time>
      </trkpt>
      <trkpt lat="36.4874960" lon="-6.2657850">
        <ele>10.8</ele>
        <time>2023-01-28T11:26:58Z</time>
      </trkpt>
      <trkpt lat="36.4875180" lon="-6.2657920">
        <ele>10.8</ele>
        <time>2023-01-28T11:26:59Z</time>
      </trkpt>
      <trkpt lat="36.4875470" lon="-6.2658050">
        <ele>10.8</ele>
        <time>2023-01-28T11:27:00Z</time>
      </trkpt>
      <trkpt lat="36.4875670" lon="-6.2658180">
        <ele>10.8</ele>
        <time>2023-01-28T11:27:01Z</time>
      </trkpt>
      <trkpt lat="36.4875940" lon="-6.2658360">
        <ele>10.8</ele>
        <time>2023-01-28T11:27:02Z</time>
      </trkpt>
      <trkpt lat="36.4876190" lon="-6.2658500">
        <ele>10.8</ele>
        <time>2023-01-28T11:27:03Z</time>
      </trkpt>
      <trkpt lat="36.4876520" lon="-6.2658590">
        <ele>10.8</ele>
        <time>2023-01-28T11:27:04Z</time>
      </trkpt>
      <trkpt lat="36.4876740" lon="-6.2658710">
        <ele>11.0</ele>
        <time>2023-01-28T11:27:05Z</time>
      </trkpt>
      <trkpt lat="36.4876970" lon="-6.2658870">
        <ele>11.0</ele>
        <time>2023-01-28T11:27:06Z</time>
      </trkpt>
      <trkpt lat="36.4877180" lon="-6.2658980">
        <ele>11.0</ele>
        <time>2023-01-28T11:27:07Z</time>
      </trkpt>
      <trkpt lat="36.4877400" lon="-6.2659150">
        <ele>11.0</ele>
        <time>2023-01-28T11:27:08Z</time>
      </trkpt>
      <trkpt lat="36.4877740" lon="-6.2659270">
        <ele>11.0</ele>
        <time>2023-01-28T11:27:09Z</time>
      </trkpt>
      <trkpt lat="36.4877940" lon="-6.2659430">
        <ele>11.6</ele>
        <time>2023-01-28T11:27:10Z</time>
      </trkpt>
      <trkpt lat="36.4878190" lon="-6.2659580">
        <ele>10.8</ele>
        <time>2023-01-28T11:27:11Z</time>
      </trkpt>
      <trkpt lat="36.4878430" lon="-6.2659660">
        <ele>11.2</ele>
        <time>2023-01-28T11:27:12Z</time>
      </trkpt>
      <trkpt lat="36.4878600" lon="-6.2659780">
        <ele>11.2</ele>
        <time>2023-01-28T11:27:13Z</time>
      </trkpt>
      <trkpt lat="36.4878800" lon="-6.2659870">
        <ele>11.2</ele>
        <time>2023-01-28T11:27:14Z</time>
      </trkpt>
      <trkpt lat="36.4879150" lon="-6.2660020">
        <ele>11.0</ele>
        <time>2023-01-28T11:27:15Z</time>
      </trkpt>
      <trkpt lat="36.4879350" lon="-6.2660230">
        <ele>11.6</ele>
        <time>2023-01-28T11:27:16Z</time>
      </trkpt>
      <trkpt lat="36.4879730" lon="-6.2660430">
        <ele>11.4</ele>
        <time>2023-01-28T11:27:17Z</time>
      </trkpt>
      <trkpt lat="36.4879880" lon="-6.2660590">
        <ele>11.4</ele>
        <time>2023-01-28T11:27:18Z</time>
      </trkpt>
      <trkpt lat="36.4880100" lon="-6.2660740">
        <ele>11.4</ele>
        <time>2023-01-28T11:27:19Z</time>
      </trkpt>
      <trkpt lat="36.4880280" lon="-6.2660890">
        <ele>11.4</ele>
        <time>2023-01-28T11:27:20Z</time>
      </trkpt>
      <trkpt lat="36.4880530" lon="-6.2660960">
        <ele>11.2</ele>
        <time>2023-01-28T11:27:21Z</time>
      </trkpt>
      <trkpt lat="36.4880790" lon="-6.2661090">
        <ele>11.2</ele>
        <time>2023-01-28T11:27:22Z</time>
      </trkpt>
      <trkpt lat="36.4881120" lon="-6.2661180">
        <ele>11.0</ele>
        <time>2023-01-28T11:27:23Z</time>
      </trkpt>
      <trkpt lat="36.4881360" lon="-6.2661270">
        <ele>10.8</ele>
        <time>2023-01-28T11:27:24Z</time>
      </trkpt>
      <trkpt lat="36.4881680" lon="-6.2661390">
        <ele>11.0</ele>
        <time>2023-01-28T11:27:25Z</time>
      </trkpt>
      <trkpt lat="36.4882010" lon="-6.2661520">
        <ele>10.8</ele>
        <time>2023-01-28T11:27:26Z</time>
      </trkpt>
      <trkpt lat="36.4882290" lon="-6.2661640">
        <ele>10.8</ele>
        <time>2023-01-28T11:27:27Z</time>
      </trkpt>
      <trkpt lat="36.4882480" lon="-6.2661730">
        <ele>10.8</ele>
        <time>2023-01-28T11:27:28Z</time>
      </trkpt>
      <trkpt lat="36.4882670" lon="-6.2661950">
        <ele>10.6</ele>
        <time>2023-01-28T11:27:29Z</time>
      </trkpt>
      <trkpt lat="36.4882900" lon="-6.2662080">
        <ele>10.8</ele>
        <time>2023-01-28T11:27:30Z</time>
      </trkpt>
      <trkpt lat="36.4883160" lon="-6.2662270">
        <ele>10.8</ele>
        <time>2023-01-28T11:27:31Z</time>
      </trkpt>
      <trkpt lat="36.4883460" lon="-6.2662400">
        <ele>10.8</ele>
        <time>2023-01-28T11:27:32Z</time>
      </trkpt>
      <trkpt lat="36.4883830" lon="-6.2662490">
        <ele>10.6</ele>
        <time>2023-01-28T11:27:33Z</time>
      </trkpt>
      <trkpt lat="36.4884240" lon="-6.2662720">
        <ele>10.6</ele>
        <time>2023-01-28T11:27:34Z</time>
      </trkpt>
      <trkpt lat="36.4884440" lon="-6.2662790">
        <ele>10.6</ele>
        <time>2023-01-28T11:27:35Z</time>
      </trkpt>
      <trkpt lat="36.4884650" lon="-6.2662990">
        <ele>10.6</ele>
        <time>2023-01-28T11:27:36Z</time>
      </trkpt>
      <trkpt lat="36.4884900" lon="-6.2663090">
        <ele>10.6</ele>
        <time>2023-01-28T11:27:37Z</time>
      </trkpt>
      <trkpt lat="36.4885140" lon="-6.2663160">
        <ele>10.8</ele>
        <time>2023-01-28T11:27:38Z</time>
      </trkpt>
      <trkpt lat="36.4885390" lon="-6.2663290">
        <ele>10.6</ele>
        <time>2023-01-28T11:27:39Z</time>
      </trkpt>
      <trkpt lat="36.4885650" lon="-6.2663430">
        <ele>10.8</ele>
        <time>2023-01-28T11:27:40Z</time>
      </trkpt>
      <trkpt lat="36.4885830" lon="-6.2663570">
        <ele>10.8</ele>
        <time>2023-01-28T11:27:41Z</time>
      </trkpt>
      <trkpt lat="36.4886050" lon="-6.2663720">
        <ele>10.6</ele>
        <time>2023-01-28T11:27:42Z</time>
      </trkpt>
      <trkpt lat="36.4886290" lon="-6.2663800">
        <ele>10.6</ele>
        <time>2023-01-28T11:27:43Z</time>
      </trkpt>
      <trkpt lat="36.4886640" lon="-6.2663930">
        <ele>10.6</ele>
        <time>2023-01-28T11:27:44Z</time>
      </trkpt>
      <trkpt lat="36.4886790" lon="-6.2663960">
        <ele>10.8</ele>
        <time>2023-01-28T11:27:45Z</time>
      </trkpt>
      <trkpt lat="36.4886890" lon="-6.2664090">
        <ele>10.8</ele>
        <time>2023-01-28T11:27:46Z</time>
      </trkpt>
      <trkpt lat="36.4887110" lon="-6.2664240">
        <ele>10.8</ele>
        <time>2023-01-28T11:27:47Z</time>
      </trkpt>
      <trkpt lat="36.4887410" lon="-6.2664390">
        <ele>10.4</ele>
        <time>2023-01-28T11:27:48Z</time>
      </trkpt>
      <trkpt lat="36.4887570" lon="-6.2664520">
        <ele>10.2</ele>
        <time>2023-01-28T11:27:49Z</time>
      </trkpt>
      <trkpt lat="36.4887830" lon="-6.2664730">
        <ele>10.4</ele>
        <time>2023-01-28T11:27:50Z</time>
      </trkpt>
      <trkpt lat="36.4888110" lon="-6.2664790">
        <ele>10.4</ele>
        <time>2023-01-28T11:27:51Z</time>
      </trkpt>
      <trkpt lat="36.4888350" lon="-6.2664830">
        <ele>10.4</ele>
        <time>2023-01-28T11:27:52Z</time>
      </trkpt>
      <trkpt lat="36.4888590" lon="-6.2665030">
        <ele>10.4</ele>
        <time>2023-01-28T11:27:53Z</time>
      </trkpt>
      <trkpt lat="36.4888770" lon="-6.2665200">
        <ele>10.4</ele>
        <time>2023-01-28T11:27:54Z</time>
      </trkpt>
      <trkpt lat="36.4889040" lon="-6.2665290">
        <ele>10.4</ele>
        <time>2023-01-28T11:27:55Z</time>
      </trkpt>
      <trkpt lat="36.4889300" lon="-6.2665400">
        <ele>10.4</ele>
        <time>2023-01-28T11:27:56Z</time>
      </trkpt>
      <trkpt lat="36.4889530" lon="-6.2665520">
        <ele>10.4</ele>
        <time>2023-01-28T11:27:57Z</time>
      </trkpt>
      <trkpt lat="36.4889860" lon="-6.2665770">
        <ele>10.2</ele>
        <time>2023-01-28T11:27:58Z</time>
      </trkpt>
      <trkpt lat="36.4889980" lon="-6.2665850">
        <ele>10.2</ele>
        <time>2023-01-28T11:27:59Z</time>
      </trkpt>
      <trkpt lat="36.4890240" lon="-6.2665980">
        <ele>10.2</ele>
        <time>2023-01-28T11:28:00Z</time>
      </trkpt>
      <trkpt lat="36.4890330" lon="-6.2666070">
        <ele>10.4</ele>
        <time>2023-01-28T11:28:01Z</time>
      </trkpt>
      <trkpt lat="36.4890580" lon="-6.2666160">
        <ele>10.4</ele>
        <time>2023-01-28T11:28:02Z</time>
      </trkpt>
      <trkpt lat="36.4890960" lon="-6.2666320">
        <ele>10.2</ele>
        <time>2023-01-28T11:28:03Z</time>
      </trkpt>
      <trkpt lat="36.4891240" lon="-6.2666430">
        <ele>10.0</ele>
        <time>2023-01-28T11:28:04Z</time>
      </trkpt>
      <trkpt lat="36.4891560" lon="-6.2666530">
        <ele>10.2</ele>
        <time>2023-01-28T11:28:05Z</time>
      </trkpt>
      <trkpt lat="36.4891770" lon="-6.2666720">
        <ele>10.4</ele>
        <time>2023-01-28T11:28:06Z</time>
      </trkpt>
      <trkpt lat="36.4891990" lon="-6.2666810">
        <ele>10.4</ele>
        <time>2023-01-28T11:28:07Z</time>
      </trkpt>
      <trkpt lat="36.4892330" lon="-6.2666940">
        <ele>10.8</ele>
        <time>2023-01-28T11:28:08Z</time>
      </trkpt>
      <trkpt lat="36.4892560" lon="-6.2667070">
        <ele>10.8</ele>
        <time>2023-01-28T11:28:09Z</time>
      </trkpt>
      <trkpt lat="36.4892860" lon="-6.2667190">
        <ele>10.8</ele>
        <time>2023-01-28T11:28:10Z</time>
      </trkpt>
      <trkpt lat="36.4893110" lon="-6.2667370">
        <ele>10.4</ele>
        <time>2023-01-28T11:28:11Z</time>
      </trkpt>
      <trkpt lat="36.4893400" lon="-6.2667520">
        <ele>10.2</ele>
        <time>2023-01-28T11:28:12Z</time>
      </trkpt>
      <trkpt lat="36.4893700" lon="-6.2667560">
        <ele>10.2</ele>
        <time>2023-01-28T11:28:13Z</time>
      </trkpt>
      <trkpt lat="36.4893930" lon="-6.2667730">
        <ele>10.2</ele>
        <time>2023-01-28T11:28:14Z</time>
      </trkpt>
      <trkpt lat="36.4894250" lon="-6.2668000">
        <ele>10.2</ele>
        <time>2023-01-28T11:28:15Z</time>
      </trkpt>
      <trkpt lat="36.4894560" lon="-6.2668100">
        <ele>10.2</ele>
        <time>2023-01-28T11:28:16Z</time>
      </trkpt>
      <trkpt lat="36.4894990" lon="-6.2668120">
        <ele>10.2</ele>
        <time>2023-01-28T11:28:17Z</time>
      </trkpt>
      <trkpt lat="36.4895250" lon="-6.2668190">
        <ele>10.2</ele>
        <time>2023-01-28T11:28:18Z</time>
      </trkpt>
      <trkpt lat="36.4895530" lon="-6.2668240">
        <ele>10.2</ele>
        <time>2023-01-28T11:28:19Z</time>
      </trkpt>
      <trkpt lat="36.4895820" lon="-6.2668320">
        <ele>10.0</ele>
        <time>2023-01-28T11:28:20Z</time>
      </trkpt>
      <trkpt lat="36.4896060" lon="-6.2668520">
        <ele>10.0</ele>
        <time>2023-01-28T11:28:21Z</time>
      </trkpt>
      <trkpt lat="36.4896400" lon="-6.2668580">
        <ele>10.0</ele>
        <time>2023-01-28T11:28:22Z</time>
      </trkpt>
      <trkpt lat="36.4896740" lon="-6.2668670">
        <ele>10.0</ele>
        <time>2023-01-28T11:28:23Z</time>
      </trkpt>
      <trkpt lat="36.4897060" lon="-6.2668850">
        <ele>10.0</ele>
        <time>2023-01-28T11:28:24Z</time>
      </trkpt>
      <trkpt lat="36.4897330" lon="-6.2668900">
        <ele>10.0</ele>
        <time>2023-01-28T11:28:25Z</time>
      </trkpt>
      <trkpt lat="36.4897610" lon="-6.2668960">
        <ele>10.0</ele>
        <time>2023-01-28T11:28:26Z</time>
      </trkpt>
      <trkpt lat="36.4897890" lon="-6.2669030">
        <ele>10.0</ele>
        <time>2023-01-28T11:28:27Z</time>
      </trkpt>
      <trkpt lat="36.4898130" lon="-6.2669050">
        <ele>10.0</ele>
        <time>2023-01-28T11:28:28Z</time>
      </trkpt>
      <trkpt lat="36.4898480" lon="-6.2669150">
        <ele>10.0</ele>
        <time>2023-01-28T11:28:29Z</time>
      </trkpt>
      <trkpt lat="36.4898710" lon="-6.2669100">
        <ele>10.0</ele>
        <time>2023-01-28T11:28:30Z</time>
      </trkpt>
      <trkpt lat="36.4899020" lon="-6.2669160">
        <ele>9.6</ele>
        <time>2023-01-28T11:28:31Z</time>
      </trkpt>
      <trkpt lat="36.4899370" lon="-6.2669210">
        <ele>9.4</ele>
        <time>2023-01-28T11:28:32Z</time>
      </trkpt>
      <trkpt lat="36.4899640" lon="-6.2669270">
        <ele>9.6</ele>
        <time>2023-01-28T11:28:33Z</time>
      </trkpt>
      <trkpt lat="36.4899990" lon="-6.2669270">
        <ele>9.6</ele>
        <time>2023-01-28T11:28:34Z</time>
      </trkpt>
      <trkpt lat="36.4900200" lon="-6.2669310">
        <ele>9.8</ele>
        <time>2023-01-28T11:28:35Z</time>
      </trkpt>
      <trkpt lat="36.4900530" lon="-6.2669340">
        <ele>9.8</ele>
        <time>2023-01-28T11:28:36Z</time>
      </trkpt>
      <trkpt lat="36.4900690" lon="-6.2669360">
        <ele>9.8</ele>
        <time>2023-01-28T11:28:37Z</time>
      </trkpt>
      <trkpt lat="36.4900810" lon="-6.2669460">
        <ele>9.8</ele>
        <time>2023-01-28T11:28:38Z</time>
      </trkpt>
      <trkpt lat="36.4901020" lon="-6.2669520">
        <ele>10.0</ele>
        <time>2023-01-28T11:28:39Z</time>
      </trkpt>
      <trkpt lat="36.4901120" lon="-6.2669600">
        <ele>10.0</ele>
        <time>2023-01-28T11:28:40Z</time>
      </trkpt>
      <trkpt lat="36.4901440" lon="-6.2669550">
        <ele>10.0</ele>
        <time>2023-01-28T11:28:41Z</time>
      </trkpt>
      <trkpt lat="36.4901610" lon="-6.2669530">
        <ele>9.8</ele>
        <time>2023-01-28T11:28:42Z</time>
      </trkpt>
      <trkpt lat="36.4901570" lon="-6.2669560">
        <ele>9.8</ele>
        <time>2023-01-28T11:28:43Z</time>
      </trkpt>
      <trkpt lat="36.4901580" lon="-6.2669620">
        <ele>9.8</ele>
        <time>2023-01-28T11:28:44Z</time>
      </trkpt>
      <trkpt lat="36.4901670" lon="-6.2669540">
        <ele>9.6</ele>
        <time>2023-01-28T11:28:45Z</time>
      </trkpt>
      <trkpt lat="36.4901440" lon="-6.2669570">
        <ele>9.8</ele>
        <time>2023-01-28T11:28:46Z</time>
      </trkpt>
      <trkpt lat="36.4901330" lon="-6.2669620">
        <ele>9.8</ele>
        <time>2023-01-28T11:28:47Z</time>
      </trkpt>
      <trkpt lat="36.4901430" lon="-6.2669660">
        <ele>10.0</ele>
        <time>2023-01-28T11:28:48Z</time>
      </trkpt>
      <trkpt lat="36.4901350" lon="-6.2669670">
        <ele>9.8</ele>
        <time>2023-01-28T11:28:49Z</time>
      </trkpt>
      <trkpt lat="36.4901290" lon="-6.2669770">
        <ele>9.6</ele>
        <time>2023-01-28T11:28:50Z</time>
      </trkpt>
      <trkpt lat="36.4901320" lon="-6.2669740">
        <ele>9.4</ele>
        <time>2023-01-28T11:28:51Z</time>
      </trkpt>
      <trkpt lat="36.4901450" lon="-6.2669750">
        <ele>10.0</ele>
        <time>2023-01-28T11:28:54Z</time>
      </trkpt>
      <trkpt lat="36.4901420" lon="-6.2669810">
        <ele>10.2</ele>
        <time>2023-01-28T11:28:55Z</time>
      </trkpt>
      <trkpt lat="36.4901390" lon="-6.2669840">
        <ele>10.2</ele>
        <time>2023-01-28T11:28:56Z</time>
      </trkpt>
      <trkpt lat="36.4901340" lon="-6.2669940">
        <ele>10.0</ele>
        <time>2023-01-28T11:28:57Z</time>
      </trkpt>
      <trkpt lat="36.4901330" lon="-6.2669970">
        <ele>10.0</ele>
        <time>2023-01-28T11:28:58Z</time>
      </trkpt>
      <trkpt lat="36.4901420" lon="-6.2669970">
        <ele>9.8</ele>
        <time>2023-01-28T11:28:59Z</time>
      </trkpt>
      <trkpt lat="36.4901380" lon="-6.2670100">
        <ele>9.8</ele>
        <time>2023-01-28T11:29:00Z</time>
      </trkpt>
      <trkpt lat="36.4901540" lon="-6.2670070">
        <ele>9.6</ele>
        <time>2023-01-28T11:29:01Z</time>
      </trkpt>
      <trkpt lat="36.4901680" lon="-6.2670130">
        <ele>9.6</ele>
        <time>2023-01-28T11:29:02Z</time>
      </trkpt>
      <trkpt lat="36.4901640" lon="-6.2670230">
        <ele>9.6</ele>
        <time>2023-01-28T11:29:03Z</time>
      </trkpt>
      <trkpt lat="36.4901650" lon="-6.2670120">
        <ele>9.6</ele>
        <time>2023-01-28T11:29:04Z</time>
      </trkpt>
      <trkpt lat="36.4901640" lon="-6.2670170">
        <ele>9.8</ele>
        <time>2023-01-28T11:29:05Z</time>
      </trkpt>
      <trkpt lat="36.4901550" lon="-6.2670240">
        <ele>9.8</ele>
        <time>2023-01-28T11:29:06Z</time>
      </trkpt>
      <trkpt lat="36.4901490" lon="-6.2670140">
        <ele>10.0</ele>
        <time>2023-01-28T11:29:07Z</time>
      </trkpt>
      <trkpt lat="36.4901540" lon="-6.2670120">
        <ele>10.2</ele>
        <time>2023-01-28T11:29:08Z</time>
      </trkpt>
      <trkpt lat="36.4901560" lon="-6.2670150">
        <ele>10.2</ele>
        <time>2023-01-28T11:29:09Z</time>
      </trkpt>
      <trkpt lat="36.4901570" lon="-6.2670260">
        <ele>10.0</ele>
        <time>2023-01-28T11:29:10Z</time>
      </trkpt>
      <trkpt lat="36.4901410" lon="-6.2670130">
        <ele>9.6</ele>
        <time>2023-01-28T11:29:11Z</time>
      </trkpt>
      <trkpt lat="36.4901450" lon="-6.2670050">
        <ele>9.6</ele>
        <time>2023-01-28T11:29:12Z</time>
      </trkpt>
      <trkpt lat="36.4901470" lon="-6.2670090">
        <ele>9.6</ele>
        <time>2023-01-28T11:29:13Z</time>
      </trkpt>
      <trkpt lat="36.4901540" lon="-6.2670020">
        <ele>9.6</ele>
        <time>2023-01-28T11:29:14Z</time>
      </trkpt>
      <trkpt lat="36.4901430" lon="-6.2670050">
        <ele>9.8</ele>
        <time>2023-01-28T11:29:15Z</time>
      </trkpt>
      <trkpt lat="36.4901490" lon="-6.2670050">
        <ele>9.8</ele>
        <time>2023-01-28T11:29:16Z</time>
      </trkpt>
      <trkpt lat="36.4901560" lon="-6.2670070">
        <ele>10.0</ele>
        <time>2023-01-28T11:29:17Z</time>
      </trkpt>
      <trkpt lat="36.4902290" lon="-6.2670440">
        <ele>9.6</ele>
        <time>2023-01-28T11:30:04Z</time>
      </trkpt>
      <trkpt lat="36.4902570" lon="-6.2670390">
        <ele>9.4</ele>
        <time>2023-01-28T11:30:05Z</time>
      </trkpt>
      <trkpt lat="36.4902780" lon="-6.2670380">
        <ele>9.6</ele>
        <time>2023-01-28T11:30:06Z</time>
      </trkpt>
      <trkpt lat="36.4902990" lon="-6.2670410">
        <ele>9.8</ele>
        <time>2023-01-28T11:30:07Z</time>
      </trkpt>
      <trkpt lat="36.4903250" lon="-6.2670460">
        <ele>9.8</ele>
        <time>2023-01-28T11:30:08Z</time>
      </trkpt>
      <trkpt lat="36.4903340" lon="-6.2670480">
        <ele>9.8</ele>
        <time>2023-01-28T11:30:09Z</time>
      </trkpt>
      <trkpt lat="36.4903570" lon="-6.2670530">
        <ele>9.8</ele>
        <time>2023-01-28T11:30:10Z</time>
      </trkpt>
      <trkpt lat="36.4903760" lon="-6.2670590">
        <ele>9.8</ele>
        <time>2023-01-28T11:30:11Z</time>
      </trkpt>
      <trkpt lat="36.4904000" lon="-6.2670640">
        <ele>9.8</ele>
        <time>2023-01-28T11:30:12Z</time>
      </trkpt>
      <trkpt lat="36.4904230" lon="-6.2670710">
        <ele>9.8</ele>
        <time>2023-01-28T11:30:13Z</time>
      </trkpt>
      <trkpt lat="36.4904430" lon="-6.2670760">
        <ele>10.0</ele>
        <time>2023-01-28T11:30:14Z</time>
      </trkpt>
      <trkpt lat="36.4904650" lon="-6.2670800">
        <ele>10.0</ele>
        <time>2023-01-28T11:30:15Z</time>
      </trkpt>
      <trkpt lat="36.4904890" lon="-6.2670850">
        <ele>9.8</ele>
        <time>2023-01-28T11:30:16Z</time>
      </trkpt>
      <trkpt lat="36.4905130" lon="-6.2670880">
        <ele>9.6</ele>
        <time>2023-01-28T11:30:17Z</time>
      </trkpt>
      <trkpt lat="36.4905370" lon="-6.2670920">
        <ele>9.6</ele>
        <time>2023-01-28T11:30:18Z</time>
      </trkpt>
      <trkpt lat="36.4905620" lon="-6.2670970">
        <ele>9.6</ele>
        <time>2023-01-28T11:30:19Z</time>
      </trkpt>
      <trkpt lat="36.4905870" lon="-6.2671040">
        <ele>9.6</ele>
        <time>2023-01-28T11:30:20Z</time>
      </trkpt>
      <trkpt lat="36.4906130" lon="-6.2671100">
        <ele>9.6</ele>
        <time>2023-01-28T11:30:21Z</time>
      </trkpt>
      <trkpt lat="36.4906370" lon="-6.2671150">
        <ele>9.6</ele>
        <time>2023-01-28T11:30:22Z</time>
      </trkpt>
      <trkpt lat="36.4906610" lon="-6.2671210">
        <ele>9.8</ele>
        <time>2023-01-28T11:30:23Z</time>
      </trkpt>
      <trkpt lat="36.4906850" lon="-6.2671250">
        <ele>9.8</ele>
        <time>2023-01-28T11:30:24Z</time>
      </trkpt>
      <trkpt lat="36.4907100" lon="-6.2671280">
        <ele>9.8</ele>
        <time>2023-01-28T11:30:25Z</time>
      </trkpt>
      <trkpt lat="36.4907360" lon="-6.2671300">
        <ele>9.6</ele>
        <time>2023-01-28T11:30:26Z</time>
      </trkpt>
      <trkpt lat="36.4907610" lon="-6.2671360">
        <ele>9.6</ele>
        <time>2023-01-28T11:30:27Z</time>
      </trkpt>
      <trkpt lat="36.4907860" lon="-6.2671420">
        <ele>9.6</ele>
        <time>2023-01-28T11:30:28Z</time>
      </trkpt>
      <trkpt lat="36.4908100" lon="-6.2671470">
        <ele>9.8</ele>
        <time>2023-01-28T11:30:29Z</time>
      </trkpt>
      <trkpt lat="36.4908350" lon="-6.2671480">
        <ele>9.8</ele>
        <time>2023-01-28T11:30:30Z</time>
      </trkpt>
      <trkpt lat="36.4908600" lon="-6.2671500">
        <ele>9.8</ele>
        <time>2023-01-28T11:30:31Z</time>
      </trkpt>
      <trkpt lat="36.4908850" lon="-6.2671530">
        <ele>9.8</ele>
        <time>2023-01-28T11:30:32Z</time>
      </trkpt>
      <trkpt lat="36.4909060" lon="-6.2671540">
        <ele>9.8</ele>
        <time>2023-01-28T11:30:33Z</time>
      </trkpt>
      <trkpt lat="36.4909290" lon="-6.2671580">
        <ele>9.8</ele>
        <time>2023-01-28T11:30:34Z</time>
      </trkpt>
      <trkpt lat="36.4909530" lon="-6.2671660">
        <ele>9.8</ele>
        <time>2023-01-28T11:30:35Z</time>
      </trkpt>
      <trkpt lat="36.4909780" lon="-6.2671710">
        <ele>9.8</ele>
        <time>2023-01-28T11:30:36Z</time>
      </trkpt>
      <trkpt lat="36.4910040" lon="-6.2671770">
        <ele>9.8</ele>
        <time>2023-01-28T11:30:37Z</time>
      </trkpt>
      <trkpt lat="36.4910310" lon="-6.2671820">
        <ele>9.6</ele>
        <time>2023-01-28T11:30:38Z</time>
      </trkpt>
      <trkpt lat="36.4910590" lon="-6.2671870">
        <ele>9.8</ele>
        <time>2023-01-28T11:30:39Z</time>
      </trkpt>
      <trkpt lat="36.4910880" lon="-6.2671920">
        <ele>9.8</ele>
        <time>2023-01-28T11:30:40Z</time>
      </trkpt>
      <trkpt lat="36.4911170" lon="-6.2671980">
        <ele>9.8</ele>
        <time>2023-01-28T11:30:41Z</time>
      </trkpt>
      <trkpt lat="36.4911460" lon="-6.2672010">
        <ele>9.8</ele>
        <time>2023-01-28T11:30:42Z</time>
      </trkpt>
      <trkpt lat="36.4911750" lon="-6.2672020">
        <ele>9.8</ele>
        <time>2023-01-28T11:30:43Z</time>
      </trkpt>
      <trkpt lat="36.4912080" lon="-6.2671980">
        <ele>9.6</ele>
        <time>2023-01-28T11:30:44Z</time>
      </trkpt>
      <trkpt lat="36.4912350" lon="-6.2672070">
        <ele>9.6</ele>
        <time>2023-01-28T11:30:45Z</time>
      </trkpt>
      <trkpt lat="36.4912650" lon="-6.2672070">
        <ele>9.6</ele>
        <time>2023-01-28T11:30:46Z</time>
      </trkpt>
      <trkpt lat="36.4912950" lon="-6.2671990">
        <ele>9.8</ele>
        <time>2023-01-28T11:30:47Z</time>
      </trkpt>
      <trkpt lat="36.4913250" lon="-6.2672010">
        <ele>10.0</ele>
        <time>2023-01-28T11:30:48Z</time>
      </trkpt>
      <trkpt lat="36.4913590" lon="-6.2671970">
        <ele>10.0</ele>
        <time>2023-01-28T11:30:49Z</time>
      </trkpt>
      <trkpt lat="36.4913790" lon="-6.2671990">
        <ele>10.0</ele>
        <time>2023-01-28T11:30:50Z</time>
      </trkpt>
      <trkpt lat="36.4913990" lon="-6.2672020">
        <ele>9.8</ele>
        <time>2023-01-28T11:30:51Z</time>
      </trkpt>
      <trkpt lat="36.4914150" lon="-6.2672050">
        <ele>9.8</ele>
        <time>2023-01-28T11:30:52Z</time>
      </trkpt>
      <trkpt lat="36.4914330" lon="-6.2672010">
        <ele>9.8</ele>
        <time>2023-01-28T11:30:53Z</time>
      </trkpt>
      <trkpt lat="36.4914700" lon="-6.2672180">
        <ele>9.8</ele>
        <time>2023-01-28T11:30:54Z</time>
      </trkpt>
      <trkpt lat="36.4914940" lon="-6.2672210">
        <ele>9.8</ele>
        <time>2023-01-28T11:30:55Z</time>
      </trkpt>
      <trkpt lat="36.4915170" lon="-6.2672340">
        <ele>9.8</ele>
        <time>2023-01-28T11:30:56Z</time>
      </trkpt>
      <trkpt lat="36.4915550" lon="-6.2672500">
        <ele>9.8</ele>
        <time>2023-01-28T11:30:57Z</time>
      </trkpt>
      <trkpt lat="36.4915760" lon="-6.2672550">
        <ele>9.8</ele>
        <time>2023-01-28T11:30:58Z</time>
      </trkpt>
      <trkpt lat="36.4915990" lon="-6.2672560">
        <ele>9.8</ele>
        <time>2023-01-28T11:30:59Z</time>
      </trkpt>
      <trkpt lat="36.4916280" lon="-6.2672310">
        <ele>9.8</ele>
        <time>2023-01-28T11:31:00Z</time>
      </trkpt>
      <trkpt lat="36.4916390" lon="-6.2672240">
        <ele>9.8</ele>
        <time>2023-01-28T11:31:01Z</time>
      </trkpt>
      <trkpt lat="36.4916620" lon="-6.2672010">
        <ele>9.8</ele>
        <time>2023-01-28T11:31:02Z</time>
      </trkpt>
      <trkpt lat="36.4916840" lon="-6.2671790">
        <ele>9.6</ele>
        <time>2023-01-28T11:31:03Z</time>
      </trkpt>
      <trkpt lat="36.4917130" lon="-6.2671430">
        <ele>10.6</ele>
        <time>2023-01-28T11:31:04Z</time>
      </trkpt>
      <trkpt lat="36.4917490" lon="-6.2671310">
        <ele>10.6</ele>
        <time>2023-01-28T11:31:05Z</time>
      </trkpt>
      <trkpt lat="36.4917770" lon="-6.2671190">
        <ele>10.4</ele>
        <time>2023-01-28T11:31:06Z</time>
      </trkpt>
      <trkpt lat="36.4918100" lon="-6.2671290">
        <ele>9.6</ele>
        <time>2023-01-28T11:31:07Z</time>
      </trkpt>
      <trkpt lat="36.4918370" lon="-6.2671340">
        <ele>9.6</ele>
        <time>2023-01-28T11:31:08Z</time>
      </trkpt>
      <trkpt lat="36.4918730" lon="-6.2671470">
        <ele>9.6</ele>
        <time>2023-01-28T11:31:09Z</time>
      </trkpt>
      <trkpt lat="36.4919110" lon="-6.2671540">
        <ele>9.8</ele>
        <time>2023-01-28T11:31:10Z</time>
      </trkpt>
      <trkpt lat="36.4919400" lon="-6.2671710">
        <ele>9.8</ele>
        <time>2023-01-28T11:31:11Z</time>
      </trkpt>
      <trkpt lat="36.4919580" lon="-6.2671530">
        <ele>10.0</ele>
        <time>2023-01-28T11:31:12Z</time>
      </trkpt>
      <trkpt lat="36.4919880" lon="-6.2671670">
        <ele>9.8</ele>
        <time>2023-01-28T11:31:13Z</time>
      </trkpt>
      <trkpt lat="36.4920270" lon="-6.2671780">
        <ele>9.8</ele>
        <time>2023-01-28T11:31:14Z</time>
      </trkpt>
      <trkpt lat="36.4920530" lon="-6.2672130">
        <ele>9.8</ele>
        <time>2023-01-28T11:31:15Z</time>
      </trkpt>
      <trkpt lat="36.4920840" lon="-6.2672050">
        <ele>9.8</ele>
        <time>2023-01-28T11:31:16Z</time>
      </trkpt>
      <trkpt lat="36.4921100" lon="-6.2672130">
        <ele>9.8</ele>
        <time>2023-01-28T11:31:17Z</time>
      </trkpt>
      <trkpt lat="36.4921270" lon="-6.2672280">
        <ele>9.8</ele>
        <time>2023-01-28T11:31:18Z</time>
      </trkpt>
      <trkpt lat="36.4921580" lon="-6.2672290">
        <ele>9.8</ele>
        <time>2023-01-28T11:31:19Z</time>
      </trkpt>
      <trkpt lat="36.4921710" lon="-6.2672390">
        <ele>9.8</ele>
        <time>2023-01-28T11:31:20Z</time>
      </trkpt>
      <trkpt lat="36.4921860" lon="-6.2672520">
        <ele>9.8</ele>
        <time>2023-01-28T11:31:21Z</time>
      </trkpt>
      <trkpt lat="36.4922270" lon="-6.2672370">
        <ele>9.8</ele>
        <time>2023-01-28T11:31:22Z</time>
      </trkpt>
      <trkpt lat="36.4922590" lon="-6.2672400">
        <ele>9.8</ele>
        <time>2023-01-28T11:31:23Z</time>
      </trkpt>
      <trkpt lat="36.4923020" lon="-6.2672290">
        <ele>10.0</ele>
        <time>2023-01-28T11:31:24Z</time>
      </trkpt>
      <trkpt lat="36.4923560" lon="-6.2672510">
        <ele>10.0</ele>
        <time>2023-01-28T11:31:25Z</time>
      </trkpt>
      <trkpt lat="36.4923750" lon="-6.2672430">
        <ele>10.0</ele>
        <time>2023-01-28T11:31:26Z</time>
      </trkpt>
      <trkpt lat="36.4923990" lon="-6.2672390">
        <ele>9.8</ele>
        <time>2023-01-28T11:31:27Z</time>
      </trkpt>
      <trkpt lat="36.4924170" lon="-6.2672420">
        <ele>9.8</ele>
        <time>2023-01-28T11:31:28Z</time>
      </trkpt>
      <trkpt lat="36.4924530" lon="-6.2672610">
        <ele>9.8</ele>
        <time>2023-01-28T11:31:29Z</time>
      </trkpt>
      <trkpt lat="36.4924880" lon="-6.2672640">
        <ele>9.8</ele>
        <time>2023-01-28T11:31:30Z</time>
      </trkpt>
      <trkpt lat="36.4925070" lon="-6.2672800">
        <ele>9.8</ele>
        <time>2023-01-28T11:31:31Z</time>
      </trkpt>
      <trkpt lat="36.4925390" lon="-6.2672840">
        <ele>10.0</ele>
        <time>2023-01-28T11:31:32Z</time>
      </trkpt>
      <trkpt lat="36.4925580" lon="-6.2673070">
        <ele>10.0</ele>
        <time>2023-01-28T11:31:33Z</time>
      </trkpt>
      <trkpt lat="36.4925880" lon="-6.2673070">
        <ele>10.0</ele>
        <time>2023-01-28T11:31:34Z</time>
      </trkpt>
      <trkpt lat="36.4926210" lon="-6.2673330">
        <ele>10.0</ele>
        <time>2023-01-28T11:31:35Z</time>
      </trkpt>
      <trkpt lat="36.4926640" lon="-6.2673380">
        <ele>9.8</ele>
        <time>2023-01-28T11:31:36Z</time>
      </trkpt>
      <trkpt lat="36.4927000" lon="-6.2673520">
        <ele>9.8</ele>
        <time>2023-01-28T11:31:37Z</time>
      </trkpt>
      <trkpt lat="36.4927260" lon="-6.2673490">
        <ele>9.8</ele>
        <time>2023-01-28T11:31:38Z</time>
      </trkpt>
      <trkpt lat="36.4927610" lon="-6.2673570">
        <ele>9.8</ele>
        <time>2023-01-28T11:31:39Z</time>
      </trkpt>
      <trkpt lat="36.4927810" lon="-6.2673880">
        <ele>9.6</ele>
        <time>2023-01-28T11:31:40Z</time>
      </trkpt>
      <trkpt lat="36.4927950" lon="-6.2673920">
        <ele>9.8</ele>
        <time>2023-01-28T11:31:41Z</time>
      </trkpt>
      <trkpt lat="36.4928350" lon="-6.2673870">
        <ele>9.6</ele>
        <time>2023-01-28T11:31:42Z</time>
      </trkpt>
      <trkpt lat="36.4928470" lon="-6.2673970">
        <ele>9.6</ele>
        <time>2023-01-28T11:31:43Z</time>
      </trkpt>
      <trkpt lat="36.4928580" lon="-6.2674010">
        <ele>9.6</ele>
        <time>2023-01-28T11:31:44Z</time>
      </trkpt>
      <trkpt lat="36.4928980" lon="-6.2674120">
        <ele>9.6</ele>
        <time>2023-01-28T11:31:45Z</time>
      </trkpt>
      <trkpt lat="36.4929480" lon="-6.2674360">
        <ele>9.6</ele>
        <time>2023-01-28T11:31:46Z</time>
      </trkpt>
      <trkpt lat="36.4929830" lon="-6.2674550">
        <ele>9.8</ele>
        <time>2023-01-28T11:31:47Z</time>
      </trkpt>
      <trkpt lat="36.4930180" lon="-6.2674550">
        <ele>9.8</ele>
        <time>2023-01-28T11:31:48Z</time>
      </trkpt>
      <trkpt lat="36.4930530" lon="-6.2674610">
        <ele>9.8</ele>
        <time>2023-01-28T11:31:49Z</time>
      </trkpt>
      <trkpt lat="36.4930760" lon="-6.2674580">
        <ele>9.6</ele>
        <time>2023-01-28T11:31:50Z</time>
      </trkpt>
      <trkpt lat="36.4931120" lon="-6.2674550">
        <ele>9.6</ele>
        <time>2023-01-28T11:31:51Z</time>
      </trkpt>
      <trkpt lat="36.4931520" lon="-6.2674810">
        <ele>10.0</ele>
        <time>2023-01-28T11:31:52Z</time>
      </trkpt>
      <trkpt lat="36.4931880" lon="-6.2674840">
        <ele>10.0</ele>
        <time>2023-01-28T11:31:53Z</time>
      </trkpt>
      <trkpt lat="36.4932220" lon="-6.2674860">
        <ele>10.0</ele>
        <time>2023-01-28T11:31:54Z</time>
      </trkpt>
      <trkpt lat="36.4932440" lon="-6.2674830">
        <ele>10.0</ele>
        <time>2023-01-28T11:31:55Z</time>
      </trkpt>
      <trkpt lat="36.4932860" lon="-6.2674890">
        <ele>10.0</ele>
        <time>2023-01-28T11:31:56Z</time>
      </trkpt>
      <trkpt lat="36.4933270" lon="-6.2674980">
        <ele>10.2</ele>
        <time>2023-01-28T11:31:57Z</time>
      </trkpt>
      <trkpt lat="36.4933650" lon="-6.2675130">
        <ele>10.2</ele>
        <time>2023-01-28T11:31:58Z</time>
      </trkpt>
      <trkpt lat="36.4933810" lon="-6.2675100">
        <ele>10.0</ele>
        <time>2023-01-28T11:31:59Z</time>
      </trkpt>
      <trkpt lat="36.4934090" lon="-6.2675320">
        <ele>10.0</ele>
        <time>2023-01-28T11:32:00Z</time>
      </trkpt>
      <trkpt lat="36.4934430" lon="-6.2675420">
        <ele>10.0</ele>
        <time>2023-01-28T11:32:01Z</time>
      </trkpt>
      <trkpt lat="36.4934750" lon="-6.2675490">
        <ele>10.0</ele>
        <time>2023-01-28T11:32:02Z</time>
      </trkpt>
      <trkpt lat="36.4934940" lon="-6.2675570">
        <ele>10.0</ele>
        <time>2023-01-28T11:32:03Z</time>
      </trkpt>
      <trkpt lat="36.4935220" lon="-6.2675440">
        <ele>10.0</ele>
        <time>2023-01-28T11:32:04Z</time>
      </trkpt>
      <trkpt lat="36.4935530" lon="-6.2675440">
        <ele>10.0</ele>
        <time>2023-01-28T11:32:05Z</time>
      </trkpt>
      <trkpt lat="36.4935810" lon="-6.2675510">
        <ele>10.0</ele>
        <time>2023-01-28T11:32:06Z</time>
      </trkpt>
      <trkpt lat="36.4936080" lon="-6.2675630">
        <ele>10.0</ele>
        <time>2023-01-28T11:32:07Z</time>
      </trkpt>
      <trkpt lat="36.4936360" lon="-6.2675670">
        <ele>9.8</ele>
        <time>2023-01-28T11:32:08Z</time>
      </trkpt>
      <trkpt lat="36.4936600" lon="-6.2675800">
        <ele>9.8</ele>
        <time>2023-01-28T11:32:09Z</time>
      </trkpt>
      <trkpt lat="36.4936960" lon="-6.2676020">
        <ele>9.8</ele>
        <time>2023-01-28T11:32:10Z</time>
      </trkpt>
      <trkpt lat="36.4937420" lon="-6.2676220">
        <ele>10.0</ele>
        <time>2023-01-28T11:32:11Z</time>
      </trkpt>
      <trkpt lat="36.4937650" lon="-6.2676210">
        <ele>10.2</ele>
        <time>2023-01-28T11:32:12Z</time>
      </trkpt>
      <trkpt lat="36.4938110" lon="-6.2676290">
        <ele>10.0</ele>
        <time>2023-01-28T11:32:13Z</time>
      </trkpt>
      <trkpt lat="36.4938440" lon="-6.2676450">
        <ele>10.2</ele>
        <time>2023-01-28T11:32:14Z</time>
      </trkpt>
      <trkpt lat="36.4938660" lon="-6.2676580">
        <ele>10.0</ele>
        <time>2023-01-28T11:32:15Z</time>
      </trkpt>
      <trkpt lat="36.4938890" lon="-6.2676670">
        <ele>10.0</ele>
        <time>2023-01-28T11:32:16Z</time>
      </trkpt>
      <trkpt lat="36.4939090" lon="-6.2677050">
        <ele>10.0</ele>
        <time>2023-01-28T11:32:17Z</time>
      </trkpt>
      <trkpt lat="36.4939390" lon="-6.2677430">
        <ele>10.0</ele>
        <time>2023-01-28T11:32:18Z</time>
      </trkpt>
      <trkpt lat="36.4939790" lon="-6.2677550">
        <ele>9.8</ele>
        <time>2023-01-28T11:32:19Z</time>
      </trkpt>
      <trkpt lat="36.4940080" lon="-6.2677750">
        <ele>9.8</ele>
        <time>2023-01-28T11:32:20Z</time>
      </trkpt>
      <trkpt lat="36.4940330" lon="-6.2677830">
        <ele>10.0</ele>
        <time>2023-01-28T11:32:21Z</time>
      </trkpt>
      <trkpt lat="36.4940630" lon="-6.2677760">
        <ele>9.8</ele>
        <time>2023-01-28T11:32:22Z</time>
      </trkpt>
      <trkpt lat="36.4940930" lon="-6.2677950">
        <ele>9.6</ele>
        <time>2023-01-28T11:32:23Z</time>
      </trkpt>
      <trkpt lat="36.4941040" lon="-6.2677840">
        <ele>9.8</ele>
        <time>2023-01-28T11:32:24Z</time>
      </trkpt>
      <trkpt lat="36.4941270" lon="-6.2677830">
        <ele>10.0</ele>
        <time>2023-01-28T11:32:25Z</time>
      </trkpt>
      <trkpt lat="36.4941480" lon="-6.2677830">
        <ele>10.0</ele>
        <time>2023-01-28T11:32:26Z</time>
      </trkpt>
      <trkpt lat="36.4941690" lon="-6.2677960">
        <ele>10.0</ele>
        <time>2023-01-28T11:32:27Z</time>
      </trkpt>
      <trkpt lat="36.4942010" lon="-6.2677980">
        <ele>10.0</ele>
        <time>2023-01-28T11:32:28Z</time>
      </trkpt>
      <trkpt lat="36.4942150" lon="-6.2677950">
        <ele>10.0</ele>
        <time>2023-01-28T11:32:29Z</time>
      </trkpt>
      <trkpt lat="36.4942510" lon="-6.2678100">
        <ele>10.0</ele>
        <time>2023-01-28T11:32:30Z</time>
      </trkpt>
      <trkpt lat="36.4942680" lon="-6.2678250">
        <ele>9.8</ele>
        <time>2023-01-28T11:32:31Z</time>
      </trkpt>
      <trkpt lat="36.4943010" lon="-6.2678210">
        <ele>9.8</ele>
        <time>2023-01-28T11:32:32Z</time>
      </trkpt>
      <trkpt lat="36.4943190" lon="-6.2678180">
        <ele>9.4</ele>
        <time>2023-01-28T11:32:33Z</time>
      </trkpt>
      <trkpt lat="36.4943590" lon="-6.2678090">
        <ele>9.4</ele>
        <time>2023-01-28T11:32:34Z</time>
      </trkpt>
      <trkpt lat="36.4943810" lon="-6.2677910">
        <ele>9.2</ele>
        <time>2023-01-28T11:32:35Z</time>
      </trkpt>
      <trkpt lat="36.4944040" lon="-6.2677630">
        <ele>9.2</ele>
        <time>2023-01-28T11:32:36Z</time>
      </trkpt>
      <trkpt lat="36.4944320" lon="-6.2677320">
        <ele>10.0</ele>
        <time>2023-01-28T11:32:37Z</time>
      </trkpt>
      <trkpt lat="36.4944450" lon="-6.2677010">
        <ele>10.0</ele>
        <time>2023-01-28T11:32:38Z</time>
      </trkpt>
      <trkpt lat="36.4944480" lon="-6.2676690">
        <ele>9.2</ele>
        <time>2023-01-28T11:32:39Z</time>
      </trkpt>
      <trkpt lat="36.4944500" lon="-6.2676340">
        <ele>8.8</ele>
        <time>2023-01-28T11:32:40Z</time>
      </trkpt>
      <trkpt lat="36.4944580" lon="-6.2676020">
        <ele>8.8</ele>
        <time>2023-01-28T11:32:41Z</time>
      </trkpt>
      <trkpt lat="36.4944490" lon="-6.2675840">
        <ele>9.2</ele>
        <time>2023-01-28T11:32:42Z</time>
      </trkpt>
      <trkpt lat="36.4944580" lon="-6.2675700">
        <ele>9.4</ele>
        <time>2023-01-28T11:32:43Z</time>
      </trkpt>
      <trkpt lat="36.4944370" lon="-6.2675320">
        <ele>9.4</ele>
        <time>2023-01-28T11:32:44Z</time>
      </trkpt>
      <trkpt lat="36.4944420" lon="-6.2675140">
        <ele>9.4</ele>
        <time>2023-01-28T11:32:45Z</time>
      </trkpt>
      <trkpt lat="36.4944280" lon="-6.2675100">
        <ele>9.4</ele>
        <time>2023-01-28T11:32:46Z</time>
      </trkpt>
      <trkpt lat="36.4944240" lon="-6.2674910">
        <ele>9.4</ele>
        <time>2023-01-28T11:32:47Z</time>
      </trkpt>
      <trkpt lat="36.4944200" lon="-6.2674890">
        <ele>9.4</ele>
        <time>2023-01-28T11:32:48Z</time>
      </trkpt>
      <trkpt lat="36.4944230" lon="-6.2674880">
        <ele>9.4</ele>
        <time>2023-01-28T11:32:49Z</time>
      </trkpt>
      <trkpt lat="36.4944430" lon="-6.2674950">
        <ele>9.4</ele>
        <time>2023-01-28T11:32:50Z</time>
      </trkpt>
      <trkpt lat="36.4944570" lon="-6.2674900">
        <ele>9.4</ele>
        <time>2023-01-28T11:32:51Z</time>
      </trkpt>
      <trkpt lat="36.4944710" lon="-6.2675000">
        <ele>9.4</ele>
        <time>2023-01-28T11:32:52Z</time>
      </trkpt>
      <trkpt lat="36.4944740" lon="-6.2674970">
        <ele>9.6</ele>
        <time>2023-01-28T11:32:53Z</time>
      </trkpt>
      <trkpt lat="36.4944900" lon="-6.2674940">
        <ele>9.8</ele>
        <time>2023-01-28T11:32:54Z</time>
      </trkpt>
      <trkpt lat="36.4945090" lon="-6.2675010">
        <ele>9.8</ele>
        <time>2023-01-28T11:32:55Z</time>
      </trkpt>
      <trkpt lat="36.4945270" lon="-6.2674970">
        <ele>9.8</ele>
        <time>2023-01-28T11:32:56Z</time>
      </trkpt>
      <trkpt lat="36.4945450" lon="-6.2674960">
        <ele>9.6</ele>
        <time>2023-01-28T11:32:57Z</time>
      </trkpt>
      <trkpt lat="36.4945820" lon="-6.2675040">
        <ele>9.4</ele>
        <time>2023-01-28T11:32:58Z</time>
      </trkpt>
      <trkpt lat="36.4946030" lon="-6.2674930">
        <ele>9.6</ele>
        <time>2023-01-28T11:32:59Z</time>
      </trkpt>
      <trkpt lat="36.4946110" lon="-6.2675070">
        <ele>9.6</ele>
        <time>2023-01-28T11:33:00Z</time>
      </trkpt>
      <trkpt lat="36.4946220" lon="-6.2675440">
        <ele>9.6</ele>
        <time>2023-01-28T11:33:01Z</time>
      </trkpt>
      <trkpt lat="36.4946170" lon="-6.2675740">
        <ele>9.8</ele>
        <time>2023-01-28T11:33:02Z</time>
      </trkpt>
      <trkpt lat="36.4946170" lon="-6.2676050">
        <ele>9.8</ele>
        <time>2023-01-28T11:33:03Z</time>
      </trkpt>
      <trkpt lat="36.4946260" lon="-6.2676480">
        <ele>9.8</ele>
        <time>2023-01-28T11:33:04Z</time>
      </trkpt>
      <trkpt lat="36.4946450" lon="-6.2676930">
        <ele>9.6</ele>
        <time>2023-01-28T11:33:05Z</time>
      </trkpt>
      <trkpt lat="36.4946440" lon="-6.2677490">
        <ele>9.6</ele>
        <time>2023-01-28T11:33:06Z</time>
      </trkpt>
      <trkpt lat="36.4946620" lon="-6.2677910">
        <ele>9.6</ele>
        <time>2023-01-28T11:33:07Z</time>
      </trkpt>
      <trkpt lat="36.4946720" lon="-6.2678420">
        <ele>9.6</ele>
        <time>2023-01-28T11:33:08Z</time>
      </trkpt>
      <trkpt lat="36.4946990" lon="-6.2678730">
        <ele>9.4</ele>
        <time>2023-01-28T11:33:09Z</time>
      </trkpt>
      <trkpt lat="36.4947170" lon="-6.2678980">
        <ele>9.6</ele>
        <time>2023-01-28T11:33:10Z</time>
      </trkpt>
      <trkpt lat="36.4947370" lon="-6.2679260">
        <ele>9.6</ele>
        <time>2023-01-28T11:33:11Z</time>
      </trkpt>
      <trkpt lat="36.4947770" lon="-6.2679620">
        <ele>9.8</ele>
        <time>2023-01-28T11:33:12Z</time>
      </trkpt>
      <trkpt lat="36.4948020" lon="-6.2679930">
        <ele>10.2</ele>
        <time>2023-01-28T11:33:13Z</time>
      </trkpt>
      <trkpt lat="36.4948460" lon="-6.2680060">
        <ele>10.6</ele>
        <time>2023-01-28T11:33:14Z</time>
      </trkpt>
      <trkpt lat="36.4948820" lon="-6.2680160">
        <ele>10.8</ele>
        <time>2023-01-28T11:33:15Z</time>
      </trkpt>
      <trkpt lat="36.4949040" lon="-6.2680360">
        <ele>11.0</ele>
        <time>2023-01-28T11:33:16Z</time>
      </trkpt>
      <trkpt lat="36.4949320" lon="-6.2680390">
        <ele>11.2</ele>
        <time>2023-01-28T11:33:17Z</time>
      </trkpt>
      <trkpt lat="36.4949480" lon="-6.2680480">
        <ele>11.2</ele>
        <time>2023-01-28T11:33:18Z</time>
      </trkpt>
      <trkpt lat="36.4949740" lon="-6.2680610">
        <ele>11.2</ele>
        <time>2023-01-28T11:33:19Z</time>
      </trkpt>
      <trkpt lat="36.4949790" lon="-6.2680860">
        <ele>11.2</ele>
        <time>2023-01-28T11:33:20Z</time>
      </trkpt>
      <trkpt lat="36.4950210" lon="-6.2680900">
        <ele>11.0</ele>
        <time>2023-01-28T11:33:21Z</time>
      </trkpt>
      <trkpt lat="36.4950410" lon="-6.2681050">
        <ele>10.8</ele>
        <time>2023-01-28T11:33:22Z</time>
      </trkpt>
      <trkpt lat="36.4950620" lon="-6.2681180">
        <ele>10.8</ele>
        <time>2023-01-28T11:33:23Z</time>
      </trkpt>
      <trkpt lat="36.4951150" lon="-6.2681130">
        <ele>10.8</ele>
        <time>2023-01-28T11:33:24Z</time>
      </trkpt>
      <trkpt lat="36.4951340" lon="-6.2681110">
        <ele>10.6</ele>
        <time>2023-01-28T11:33:25Z</time>
      </trkpt>
      <trkpt lat="36.4951560" lon="-6.2680950">
        <ele>10.4</ele>
        <time>2023-01-28T11:33:26Z</time>
      </trkpt>
      <trkpt lat="36.4951650" lon="-6.2680430">
        <ele>10.0</ele>
        <time>2023-01-28T11:33:28Z</time>
      </trkpt>
      <trkpt lat="36.4951370" lon="-6.2680140">
        <ele>10.0</ele>
        <time>2023-01-28T11:33:29Z</time>
      </trkpt>
      <trkpt lat="36.4951360" lon="-6.2679710">
        <ele>9.8</ele>
        <time>2023-01-28T11:33:30Z</time>
      </trkpt>
      <trkpt lat="36.4951450" lon="-6.2679240">
        <ele>10.0</ele>
        <time>2023-01-28T11:33:31Z</time>
      </trkpt>
      <trkpt lat="36.4951360" lon="-6.2679120">
        <ele>10.0</ele>
        <time>2023-01-28T11:33:32Z</time>
      </trkpt>
      <trkpt lat="36.4951510" lon="-6.2678860">
        <ele>9.8</ele>
        <time>2023-01-28T11:33:33Z</time>
      </trkpt>
      <trkpt lat="36.4951640" lon="-6.2678500">
        <ele>9.8</ele>
        <time>2023-01-28T11:33:34Z</time>
      </trkpt>
      <trkpt lat="36.4951530" lon="-6.2678040">
        <ele>9.8</ele>
        <time>2023-01-28T11:33:35Z</time>
      </trkpt>
      <trkpt lat="36.4951490" lon="-6.2677690">
        <ele>9.8</ele>
        <time>2023-01-28T11:33:36Z</time>
      </trkpt>
      <trkpt lat="36.4951550" lon="-6.2677100">
        <ele>9.8</ele>
        <time>2023-01-28T11:33:37Z</time>
      </trkpt>
      <trkpt lat="36.4951500" lon="-6.2676640">
        <ele>9.8</ele>
        <time>2023-01-28T11:33:38Z</time>
      </trkpt>
      <trkpt lat="36.4951230" lon="-6.2676130">
        <ele>10.0</ele>
        <time>2023-01-28T11:33:39Z</time>
      </trkpt>
      <trkpt lat="36.4951030" lon="-6.2675650">
        <ele>10.0</ele>
        <time>2023-01-28T11:33:40Z</time>
      </trkpt>
      <trkpt lat="36.4950910" lon="-6.2675310">
        <ele>10.0</ele>
        <time>2023-01-28T11:33:41Z</time>
      </trkpt>
      <trkpt lat="36.4951100" lon="-6.2674970">
        <ele>10.2</ele>
        <time>2023-01-28T11:33:42Z</time>
      </trkpt>
      <trkpt lat="36.4951190" lon="-6.2674540">
        <ele>10.0</ele>
        <time>2023-01-28T11:33:43Z</time>
      </trkpt>
      <trkpt lat="36.4951160" lon="-6.2674140">
        <ele>10.0</ele>
        <time>2023-01-28T11:33:44Z</time>
      </trkpt>
      <trkpt lat="36.4950870" lon="-6.2673780">
        <ele>10.0</ele>
        <time>2023-01-28T11:33:45Z</time>
      </trkpt>
      <trkpt lat="36.4950870" lon="-6.2673600">
        <ele>10.0</ele>
        <time>2023-01-28T11:33:46Z</time>
      </trkpt>
      <trkpt lat="36.4950750" lon="-6.2673180">
        <ele>10.0</ele>
        <time>2023-01-28T11:33:47Z</time>
      </trkpt>
      <trkpt lat="36.4950750" lon="-6.2672830">
        <ele>10.0</ele>
        <time>2023-01-28T11:33:48Z</time>
      </trkpt>
      <trkpt lat="36.4950670" lon="-6.2672370">
        <ele>10.2</ele>
        <time>2023-01-28T11:33:49Z</time>
      </trkpt>
      <trkpt lat="36.4950440" lon="-6.2672080">
        <ele>10.4</ele>
        <time>2023-01-28T11:33:50Z</time>
      </trkpt>
      <trkpt lat="36.4950690" lon="-6.2671660">
        <ele>10.4</ele>
        <time>2023-01-28T11:33:51Z</time>
      </trkpt>
      <trkpt lat="36.4950780" lon="-6.2671100">
        <ele>10.4</ele>
        <time>2023-01-28T11:33:52Z</time>
      </trkpt>
      <trkpt lat="36.4950740" lon="-6.2670710">
        <ele>10.6</ele>
        <time>2023-01-28T11:33:53Z</time>
      </trkpt>
      <trkpt lat="36.4950920" lon="-6.2670420">
        <ele>10.2</ele>
        <time>2023-01-28T11:33:54Z</time>
      </trkpt>
      <trkpt lat="36.4950940" lon="-6.2670250">
        <ele>10.2</ele>
        <time>2023-01-28T11:33:55Z</time>
      </trkpt>
      <trkpt lat="36.4951090" lon="-6.2669920">
        <ele>10.0</ele>
        <time>2023-01-28T11:33:56Z</time>
      </trkpt>
      <trkpt lat="36.4950950" lon="-6.2669530">
        <ele>10.2</ele>
        <time>2023-01-28T11:33:57Z</time>
      </trkpt>
      <trkpt lat="36.4950980" lon="-6.2669120">
        <ele>10.2</ele>
        <time>2023-01-28T11:33:58Z</time>
      </trkpt>
      <trkpt lat="36.4951040" lon="-6.2668730">
        <ele>10.4</ele>
        <time>2023-01-28T11:33:59Z</time>
      </trkpt>
      <trkpt lat="36.4951050" lon="-6.2668330">
        <ele>11.0</ele>
        <time>2023-01-28T11:34:00Z</time>
      </trkpt>
      <trkpt lat="36.4950850" lon="-6.2667990">
        <ele>10.8</ele>
        <time>2023-01-28T11:34:01Z</time>
      </trkpt>
      <trkpt lat="36.4950940" lon="-6.2667720">
        <ele>10.6</ele>
        <time>2023-01-28T11:34:02Z</time>
      </trkpt>
      <trkpt lat="36.4950770" lon="-6.2667620">
        <ele>10.6</ele>
        <time>2023-01-28T11:34:03Z</time>
      </trkpt>
      <trkpt lat="36.4950760" lon="-6.2667310">
        <ele>10.2</ele>
        <time>2023-01-28T11:34:04Z</time>
      </trkpt>
      <trkpt lat="36.4950750" lon="-6.2667000">
        <ele>10.2</ele>
        <time>2023-01-28T11:34:05Z</time>
      </trkpt>
      <trkpt lat="36.4950930" lon="-6.2666600">
        <ele>10.0</ele>
        <time>2023-01-28T11:34:06Z</time>
      </trkpt>
      <trkpt lat="36.4951010" lon="-6.2666140">
        <ele>10.2</ele>
        <time>2023-01-28T11:34:07Z</time>
      </trkpt>
      <trkpt lat="36.4951090" lon="-6.2665630">
        <ele>10.2</ele>
        <time>2023-01-28T11:34:08Z</time>
      </trkpt>
      <trkpt lat="36.4950990" lon="-6.2665230">
        <ele>10.2</ele>
        <time>2023-01-28T11:34:09Z</time>
      </trkpt>
      <trkpt lat="36.4950970" lon="-6.2664920">
        <ele>9.8</ele>
        <time>2023-01-28T11:34:10Z</time>
      </trkpt>
      <trkpt lat="36.4951000" lon="-6.2664580">
        <ele>9.6</ele>
        <time>2023-01-28T11:34:11Z</time>
      </trkpt>
      <trkpt lat="36.4950880" lon="-6.2664220">
        <ele>9.4</ele>
        <time>2023-01-28T11:34:12Z</time>
      </trkpt>
      <trkpt lat="36.4950790" lon="-6.2663870">
        <ele>9.4</ele>
        <time>2023-01-28T11:34:13Z</time>
      </trkpt>
      <trkpt lat="36.4950880" lon="-6.2663400">
        <ele>9.6</ele>
        <time>2023-01-28T11:34:14Z</time>
      </trkpt>
      <trkpt lat="36.4950820" lon="-6.2663050">
        <ele>9.6</ele>
        <time>2023-01-28T11:34:15Z</time>
      </trkpt>
      <trkpt lat="36.4950850" lon="-6.2662740">
        <ele>9.6</ele>
        <time>2023-01-28T11:34:16Z</time>
      </trkpt>
      <trkpt lat="36.4950760" lon="-6.2662380">
        <ele>9.6</ele>
        <time>2023-01-28T11:34:17Z</time>
      </trkpt>
      <trkpt lat="36.4950810" lon="-6.2661840">
        <ele>9.4</ele>
        <time>2023-01-28T11:34:18Z</time>
      </trkpt>
      <trkpt lat="36.4950940" lon="-6.2661480">
        <ele>9.4</ele>
        <time>2023-01-28T11:34:19Z</time>
      </trkpt>
      <trkpt lat="36.4950850" lon="-6.2661120">
        <ele>9.6</ele>
        <time>2023-01-28T11:34:20Z</time>
      </trkpt>
      <trkpt lat="36.4950920" lon="-6.2660720">
        <ele>9.8</ele>
        <time>2023-01-28T11:34:21Z</time>
      </trkpt>
      <trkpt lat="36.4950820" lon="-6.2660400">
        <ele>10.0</ele>
        <time>2023-01-28T11:34:22Z</time>
      </trkpt>
      <trkpt lat="36.4950910" lon="-6.2660180">
        <ele>10.0</ele>
        <time>2023-01-28T11:34:23Z</time>
      </trkpt>
      <trkpt lat="36.4950970" lon="-6.2659730">
        <ele>9.6</ele>
        <time>2023-01-28T11:34:24Z</time>
      </trkpt>
      <trkpt lat="36.4950900" lon="-6.2659240">
        <ele>9.6</ele>
        <time>2023-01-28T11:34:25Z</time>
      </trkpt>
      <trkpt lat="36.4950870" lon="-6.2658900">
        <ele>9.6</ele>
        <time>2023-01-28T11:34:26Z</time>
      </trkpt>
      <trkpt lat="36.4951020" lon="-6.2658450">
        <ele>9.4</ele>
        <time>2023-01-28T11:34:27Z</time>
      </trkpt>
      <trkpt lat="36.4951060" lon="-6.2658190">
        <ele>9.4</ele>
        <time>2023-01-28T11:34:28Z</time>
      </trkpt>
      <trkpt lat="36.4951160" lon="-6.2657920">
        <ele>9.2</ele>
        <time>2023-01-28T11:34:29Z</time>
      </trkpt>
      <trkpt lat="36.4951250" lon="-6.2657600">
        <ele>9.4</ele>
        <time>2023-01-28T11:34:30Z</time>
      </trkpt>
      <trkpt lat="36.4951490" lon="-6.2657450">
        <ele>9.4</ele>
        <time>2023-01-28T11:34:31Z</time>
      </trkpt>
      <trkpt lat="36.4951580" lon="-6.2657300">
        <ele>9.4</ele>
        <time>2023-01-28T11:34:32Z</time>
      </trkpt>
      <trkpt lat="36.4951690" lon="-6.2657190">
        <ele>9.4</ele>
        <time>2023-01-28T11:34:33Z</time>
      </trkpt>
      <trkpt lat="36.4951960" lon="-6.2656770">
        <ele>9.4</ele>
        <time>2023-01-28T11:34:35Z</time>
      </trkpt>
      <trkpt lat="36.4952160" lon="-6.2656560">
        <ele>9.8</ele>
        <time>2023-01-28T11:34:36Z</time>
      </trkpt>
      <trkpt lat="36.4952450" lon="-6.2656410">
        <ele>9.8</ele>
        <time>2023-01-28T11:34:37Z</time>
      </trkpt>
      <trkpt lat="36.4952710" lon="-6.2656200">
        <ele>9.8</ele>
        <time>2023-01-28T11:34:38Z</time>
      </trkpt>
      <trkpt lat="36.4952980" lon="-6.2655960">
        <ele>9.6</ele>
        <time>2023-01-28T11:34:39Z</time>
      </trkpt>
      <trkpt lat="36.4953130" lon="-6.2655630">
        <ele>9.4</ele>
        <time>2023-01-28T11:34:40Z</time>
      </trkpt>
      <trkpt lat="36.4953300" lon="-6.2655240">
        <ele>9.4</ele>
        <time>2023-01-28T11:34:41Z</time>
      </trkpt>
      <trkpt lat="36.4953540" lon="-6.2654800">
        <ele>9.4</ele>
        <time>2023-01-28T11:34:42Z</time>
      </trkpt>
      <trkpt lat="36.4953610" lon="-6.2654620">
        <ele>9.4</ele>
        <time>2023-01-28T11:34:43Z</time>
      </trkpt>
      <trkpt lat="36.4953560" lon="-6.2654390">
        <ele>9.2</ele>
        <time>2023-01-28T11:34:44Z</time>
      </trkpt>
      <trkpt lat="36.4953640" lon="-6.2653930">
        <ele>9.2</ele>
        <time>2023-01-28T11:34:45Z</time>
      </trkpt>
      <trkpt lat="36.4953690" lon="-6.2653430">
        <ele>9.2</ele>
        <time>2023-01-28T11:34:46Z</time>
      </trkpt>
      <trkpt lat="36.4953860" lon="-6.2653010">
        <ele>9.2</ele>
        <time>2023-01-28T11:34:47Z</time>
      </trkpt>
      <trkpt lat="36.4954020" lon="-6.2652530">
        <ele>9.2</ele>
        <time>2023-01-28T11:34:48Z</time>
      </trkpt>
      <trkpt lat="36.4954030" lon="-6.2652230">
        <ele>9.2</ele>
        <time>2023-01-28T11:34:49Z</time>
      </trkpt>
      <trkpt lat="36.4954010" lon="-6.2651950">
        <ele>9.2</ele>
        <time>2023-01-28T11:34:50Z</time>
      </trkpt>
      <trkpt lat="36.4954230" lon="-6.2651600">
        <ele>9.2</ele>
        <time>2023-01-28T11:34:51Z</time>
      </trkpt>
      <trkpt lat="36.4954380" lon="-6.2651030">
        <ele>9.2</ele>
        <time>2023-01-28T11:34:52Z</time>
      </trkpt>
      <trkpt lat="36.4954580" lon="-6.2650610">
        <ele>9.2</ele>
        <time>2023-01-28T11:34:53Z</time>
      </trkpt>
      <trkpt lat="36.4954750" lon="-6.2650170">
        <ele>9.2</ele>
        <time>2023-01-28T11:34:54Z</time>
      </trkpt>
      <trkpt lat="36.4954870" lon="-6.2649780">
        <ele>9.2</ele>
        <time>2023-01-28T11:34:55Z</time>
      </trkpt>
      <trkpt lat="36.4954870" lon="-6.2649380">
        <ele>9.2</ele>
        <time>2023-01-28T11:34:56Z</time>
      </trkpt>
      <trkpt lat="36.4954900" lon="-6.2648870">
        <ele>9.2</ele>
        <time>2023-01-28T11:34:57Z</time>
      </trkpt>
      <trkpt lat="36.4955050" lon="-6.2648470">
        <ele>9.4</ele>
        <time>2023-01-28T11:34:58Z</time>
      </trkpt>
      <trkpt lat="36.4955270" lon="-6.2648030">
        <ele>9.4</ele>
        <time>2023-01-28T11:34:59Z</time>
      </trkpt>
      <trkpt lat="36.4955470" lon="-6.2647650">
        <ele>9.8</ele>
        <time>2023-01-28T11:35:00Z</time>
      </trkpt>
      <trkpt lat="36.4955380" lon="-6.2647410">
        <ele>9.8</ele>
        <time>2023-01-28T11:35:01Z</time>
      </trkpt>
      <trkpt lat="36.4955640" lon="-6.2646950">
        <ele>9.8</ele>
        <time>2023-01-28T11:35:02Z</time>
      </trkpt>
      <trkpt lat="36.4955590" lon="-6.2646460">
        <ele>9.8</ele>
        <time>2023-01-28T11:35:03Z</time>
      </trkpt>
      <trkpt lat="36.4955670" lon="-6.2646030">
        <ele>10.4</ele>
        <time>2023-01-28T11:35:04Z</time>
      </trkpt>
      <trkpt lat="36.4955670" lon="-6.2645770">
        <ele>10.6</ele>
        <time>2023-01-28T11:35:05Z</time>
      </trkpt>
      <trkpt lat="36.4955690" lon="-6.2645450">
        <ele>10.4</ele>
        <time>2023-01-28T11:35:06Z</time>
      </trkpt>
      <trkpt lat="36.4955940" lon="-6.2645060">
        <ele>11.0</ele>
        <time>2023-01-28T11:35:07Z</time>
      </trkpt>
      <trkpt lat="36.4956110" lon="-6.2644550">
        <ele>10.4</ele>
        <time>2023-01-28T11:35:08Z</time>
      </trkpt>
      <trkpt lat="36.4956060" lon="-6.2644060">
        <ele>10.4</ele>
        <time>2023-01-28T11:35:09Z</time>
      </trkpt>
      <trkpt lat="36.4956210" lon="-6.2643630">
        <ele>10.2</ele>
        <time>2023-01-28T11:35:10Z</time>
      </trkpt>
      <trkpt lat="36.4956610" lon="-6.2643250">
        <ele>10.4</ele>
        <time>2023-01-28T11:35:11Z</time>
      </trkpt>
      <trkpt lat="36.4957090" lon="-6.2642900">
        <ele>10.4</ele>
        <time>2023-01-28T11:35:12Z</time>
      </trkpt>
      <trkpt lat="36.4957180" lon="-6.2642460">
        <ele>10.4</ele>
        <time>2023-01-28T11:35:13Z</time>
      </trkpt>
      <trkpt lat="36.4957590" lon="-6.2642180">
        <ele>9.8</ele>
        <time>2023-01-28T11:35:14Z</time>
      </trkpt>
      <trkpt lat="36.4957970" lon="-6.2641870">
        <ele>9.2</ele>
        <time>2023-01-28T11:35:15Z</time>
      </trkpt>
      <trkpt lat="36.4958110" lon="-6.2641650">
        <ele>9.2</ele>
        <time>2023-01-28T11:35:16Z</time>
      </trkpt>
      <trkpt lat="36.4958540" lon="-6.2641570">
        <ele>9.2</ele>
        <time>2023-01-28T11:35:17Z</time>
      </trkpt>
      <trkpt lat="36.4958810" lon="-6.2641360">
        <ele>9.0</ele>
        <time>2023-01-28T11:35:18Z</time>
      </trkpt>
      <trkpt lat="36.4959060" lon="-6.2641490">
        <ele>9.0</ele>
        <time>2023-01-28T11:35:19Z</time>
      </trkpt>
      <trkpt lat="36.4959330" lon="-6.2641470">
        <ele>9.0</ele>
        <time>2023-01-28T11:35:20Z</time>
      </trkpt>
      <trkpt lat="36.4959660" lon="-6.2641520">
        <ele>9.0</ele>
        <time>2023-01-28T11:35:21Z</time>
      </trkpt>
      <trkpt lat="36.4959850" lon="-6.2641520">
        <ele>9.0</ele>
        <time>2023-01-28T11:35:22Z</time>
      </trkpt>
      <trkpt lat="36.4960170" lon="-6.2641650">
        <ele>8.8</ele>
        <time>2023-01-28T11:35:23Z</time>
      </trkpt>
      <trkpt lat="36.4960570" lon="-6.2641800">
        <ele>9.0</ele>
        <time>2023-01-28T11:35:24Z</time>
      </trkpt>
      <trkpt lat="36.4960870" lon="-6.2641920">
        <ele>9.4</ele>
        <time>2023-01-28T11:35:25Z</time>
      </trkpt>
      <trkpt lat="36.4961200" lon="-6.2641990">
        <ele>9.4</ele>
        <time>2023-01-28T11:35:26Z</time>
      </trkpt>
      <trkpt lat="36.4961520" lon="-6.2642100">
        <ele>9.2</ele>
        <time>2023-01-28T11:35:27Z</time>
      </trkpt>
      <trkpt lat="36.4961760" lon="-6.2642090">
        <ele>9.2</ele>
        <time>2023-01-28T11:35:28Z</time>
      </trkpt>
      <trkpt lat="36.4961880" lon="-6.2642030">
        <ele>9.2</ele>
        <time>2023-01-28T11:35:29Z</time>
      </trkpt>
      <trkpt lat="36.4962110" lon="-6.2641920">
        <ele>9.2</ele>
        <time>2023-01-28T11:35:30Z</time>
      </trkpt>
      <trkpt lat="36.4962420" lon="-6.2641780">
        <ele>9.2</ele>
        <time>2023-01-28T11:35:31Z</time>
      </trkpt>
      <trkpt lat="36.4962730" lon="-6.2641850">
        <ele>9.2</ele>
        <time>2023-01-28T11:35:32Z</time>
      </trkpt>
      <trkpt lat="36.4963010" lon="-6.2641980">
        <ele>9.2</ele>
        <time>2023-01-28T11:35:33Z</time>
      </trkpt>
      <trkpt lat="36.4963230" lon="-6.2642270">
        <ele>9.2</ele>
        <time>2023-01-28T11:35:34Z</time>
      </trkpt>
      <trkpt lat="36.4963470" lon="-6.2642370">
        <ele>9.4</ele>
        <time>2023-01-28T11:35:35Z</time>
      </trkpt>
      <trkpt lat="36.4963650" lon="-6.2642440">
        <ele>9.4</ele>
        <time>2023-01-28T11:35:36Z</time>
      </trkpt>
      <trkpt lat="36.4964040" lon="-6.2642620">
        <ele>9.4</ele>
        <time>2023-01-28T11:35:37Z</time>
      </trkpt>
      <trkpt lat="36.4964300" lon="-6.2642690">
        <ele>9.2</ele>
        <time>2023-01-28T11:35:38Z</time>
      </trkpt>
      <trkpt lat="36.4964600" lon="-6.2642840">
        <ele>9.2</ele>
        <time>2023-01-28T11:35:39Z</time>
      </trkpt>
      <trkpt lat="36.4964820" lon="-6.2643120">
        <ele>8.8</ele>
        <time>2023-01-28T11:35:40Z</time>
      </trkpt>
      <trkpt lat="36.4965110" lon="-6.2643150">
        <ele>9.0</ele>
        <time>2023-01-28T11:35:41Z</time>
      </trkpt>
      <trkpt lat="36.4965350" lon="-6.2643360">
        <ele>9.0</ele>
        <time>2023-01-28T11:35:42Z</time>
      </trkpt>
      <trkpt lat="36.4965730" lon="-6.2643510">
        <ele>9.0</ele>
        <time>2023-01-28T11:35:43Z</time>
      </trkpt>
      <trkpt lat="36.4966050" lon="-6.2643620">
        <ele>9.0</ele>
        <time>2023-01-28T11:35:44Z</time>
      </trkpt>
      <trkpt lat="36.4966510" lon="-6.2643670">
        <ele>9.0</ele>
        <time>2023-01-28T11:35:45Z</time>
      </trkpt>
      <trkpt lat="36.4966870" lon="-6.2643770">
        <ele>9.0</ele>
        <time>2023-01-28T11:35:46Z</time>
      </trkpt>
      <trkpt lat="36.4967170" lon="-6.2643930">
        <ele>9.2</ele>
        <time>2023-01-28T11:35:47Z</time>
      </trkpt>
      <trkpt lat="36.4967600" lon="-6.2644060">
        <ele>9.2</ele>
        <time>2023-01-28T11:35:48Z</time>
      </trkpt>
      <trkpt lat="36.4967900" lon="-6.2644220">
        <ele>9.2</ele>
        <time>2023-01-28T11:35:49Z</time>
      </trkpt>
      <trkpt lat="36.4968110" lon="-6.2644400">
        <ele>9.2</ele>
        <time>2023-01-28T11:35:50Z</time>
      </trkpt>
      <trkpt lat="36.4968490" lon="-6.2644460">
        <ele>9.4</ele>
        <time>2023-01-28T11:35:51Z</time>
      </trkpt>
      <trkpt lat="36.4968890" lon="-6.2644660">
        <ele>9.6</ele>
        <time>2023-01-28T11:35:52Z</time>
      </trkpt>
      <trkpt lat="36.4969230" lon="-6.2644700">
        <ele>9.2</ele>
        <time>2023-01-28T11:35:53Z</time>
      </trkpt>
      <trkpt lat="36.4969610" lon="-6.2644850">
        <ele>9.4</ele>
        <time>2023-01-28T11:35:54Z</time>
      </trkpt>
      <trkpt lat="36.4969920" lon="-6.2645120">
        <ele>9.4</ele>
        <time>2023-01-28T11:35:55Z</time>
      </trkpt>
      <trkpt lat="36.4970400" lon="-6.2645340">
        <ele>9.4</ele>
        <time>2023-01-28T11:35:56Z</time>
      </trkpt>
      <trkpt lat="36.4970760" lon="-6.2645520">
        <ele>9.4</ele>
        <time>2023-01-28T11:35:57Z</time>
      </trkpt>
      <trkpt lat="36.4971090" lon="-6.2645550">
        <ele>9.6</ele>
        <time>2023-01-28T11:35:58Z</time>
      </trkpt>
      <trkpt lat="36.4971460" lon="-6.2645630">
        <ele>9.4</ele>
        <time>2023-01-28T11:35:59Z</time>
      </trkpt>
      <trkpt lat="36.4971810" lon="-6.2645790">
        <ele>9.4</ele>
        <time>2023-01-28T11:36:00Z</time>
      </trkpt>
      <trkpt lat="36.4972050" lon="-6.2646110">
        <ele>9.2</ele>
        <time>2023-01-28T11:36:01Z</time>
      </trkpt>
      <trkpt lat="36.4972390" lon="-6.2646330">
        <ele>9.2</ele>
        <time>2023-01-28T11:36:02Z</time>
      </trkpt>
      <trkpt lat="36.4972770" lon="-6.2646570">
        <ele>9.2</ele>
        <time>2023-01-28T11:36:03Z</time>
      </trkpt>
      <trkpt lat="36.4973030" lon="-6.2646690">
        <ele>9.2</ele>
        <time>2023-01-28T11:36:04Z</time>
      </trkpt>
      <trkpt lat="36.4973310" lon="-6.2646920">
        <ele>9.4</ele>
        <time>2023-01-28T11:36:05Z</time>
      </trkpt>
      <trkpt lat="36.4973710" lon="-6.2647010">
        <ele>9.4</ele>
        <time>2023-01-28T11:36:06Z</time>
      </trkpt>
      <trkpt lat="36.4974070" lon="-6.2647180">
        <ele>9.4</ele>
        <time>2023-01-28T11:36:07Z</time>
      </trkpt>
      <trkpt lat="36.4974340" lon="-6.2647300">
        <ele>8.8</ele>
        <time>2023-01-28T11:36:08Z</time>
      </trkpt>
      <trkpt lat="36.4974750" lon="-6.2647360">
        <ele>8.6</ele>
        <time>2023-01-28T11:36:09Z</time>
      </trkpt>
      <trkpt lat="36.4975080" lon="-6.2647490">
        <ele>8.8</ele>
        <time>2023-01-28T11:36:10Z</time>
      </trkpt>
      <trkpt lat="36.4975450" lon="-6.2647610">
        <ele>9.0</ele>
        <time>2023-01-28T11:36:11Z</time>
      </trkpt>
      <trkpt lat="36.4975910" lon="-6.2647770">
        <ele>9.0</ele>
        <time>2023-01-28T11:36:12Z</time>
      </trkpt>
      <trkpt lat="36.4976170" lon="-6.2648120">
        <ele>8.6</ele>
        <time>2023-01-28T11:36:13Z</time>
      </trkpt>
      <trkpt lat="36.4976470" lon="-6.2648490">
        <ele>8.2</ele>
        <time>2023-01-28T11:36:14Z</time>
      </trkpt>
      <trkpt lat="36.4976700" lon="-6.2648590">
        <ele>8.6</ele>
        <time>2023-01-28T11:36:15Z</time>
      </trkpt>
      <trkpt lat="36.4976830" lon="-6.2648630">
        <ele>8.4</ele>
        <time>2023-01-28T11:36:16Z</time>
      </trkpt>
      <trkpt lat="36.4977030" lon="-6.2648990">
        <ele>8.2</ele>
        <time>2023-01-28T11:36:17Z</time>
      </trkpt>
      <trkpt lat="36.4977310" lon="-6.2649020">
        <ele>8.2</ele>
        <time>2023-01-28T11:36:18Z</time>
      </trkpt>
      <trkpt lat="36.4977600" lon="-6.2649210">
        <ele>8.8</ele>
        <time>2023-01-28T11:36:19Z</time>
      </trkpt>
      <trkpt lat="36.4977860" lon="-6.2649190">
        <ele>8.8</ele>
        <time>2023-01-28T11:36:20Z</time>
      </trkpt>
      <trkpt lat="36.4978120" lon="-6.2649310">
        <ele>8.6</ele>
        <time>2023-01-28T11:36:21Z</time>
      </trkpt>
      <trkpt lat="36.4978600" lon="-6.2649330">
        <ele>8.6</ele>
        <time>2023-01-28T11:36:22Z</time>
      </trkpt>
      <trkpt lat="36.4979040" lon="-6.2649570">
        <ele>8.4</ele>
        <time>2023-01-28T11:36:23Z</time>
      </trkpt>
      <trkpt lat="36.4979230" lon="-6.2649650">
        <ele>8.6</ele>
        <time>2023-01-28T11:36:24Z</time>
      </trkpt>
      <trkpt lat="36.4979570" lon="-6.2649720">
        <ele>8.8</ele>
        <time>2023-01-28T11:36:25Z</time>
      </trkpt>
      <trkpt lat="36.4979960" lon="-6.2649820">
        <ele>8.6</ele>
        <time>2023-01-28T11:36:26Z</time>
      </trkpt>
      <trkpt lat="36.4980310" lon="-6.2650000">
        <ele>8.8</ele>
        <time>2023-01-28T11:36:27Z</time>
      </trkpt>
      <trkpt lat="36.4980710" lon="-6.2650090">
        <ele>8.6</ele>
        <time>2023-01-28T11:36:28Z</time>
      </trkpt>
      <trkpt lat="36.4981010" lon="-6.2650380">
        <ele>8.8</ele>
        <time>2023-01-28T11:36:29Z</time>
      </trkpt>
      <trkpt lat="36.4981250" lon="-6.2650600">
        <ele>9.0</ele>
        <time>2023-01-28T11:36:30Z</time>
      </trkpt>
      <trkpt lat="36.4981600" lon="-6.2650880">
        <ele>9.0</ele>
        <time>2023-01-28T11:36:31Z</time>
      </trkpt>
      <trkpt lat="36.4982110" lon="-6.2651060">
        <ele>8.8</ele>
        <time>2023-01-28T11:36:32Z</time>
      </trkpt>
      <trkpt lat="36.4982430" lon="-6.2651400">
        <ele>8.8</ele>
        <time>2023-01-28T11:36:33Z</time>
      </trkpt>
      <trkpt lat="36.4982810" lon="-6.2651540">
        <ele>8.8</ele>
        <time>2023-01-28T11:36:34Z</time>
      </trkpt>
      <trkpt lat="36.4983090" lon="-6.2651730">
        <ele>8.8</ele>
        <time>2023-01-28T11:36:35Z</time>
      </trkpt>
      <trkpt lat="36.4983440" lon="-6.2651800">
        <ele>8.8</ele>
        <time>2023-01-28T11:36:36Z</time>
      </trkpt>
      <trkpt lat="36.4983940" lon="-6.2651830">
        <ele>8.8</ele>
        <time>2023-01-28T11:36:37Z</time>
      </trkpt>
      <trkpt lat="36.4984270" lon="-6.2651810">
        <ele>8.8</ele>
        <time>2023-01-28T11:36:38Z</time>
      </trkpt>
      <trkpt lat="36.4984610" lon="-6.2651910">
        <ele>9.0</ele>
        <time>2023-01-28T11:36:39Z</time>
      </trkpt>
      <trkpt lat="36.4984850" lon="-6.2652040">
        <ele>9.2</ele>
        <time>2023-01-28T11:36:40Z</time>
      </trkpt>
      <trkpt lat="36.4985080" lon="-6.2652180">
        <ele>9.4</ele>
        <time>2023-01-28T11:36:41Z</time>
      </trkpt>
      <trkpt lat="36.4985290" lon="-6.2652410">
        <ele>9.2</ele>
        <time>2023-01-28T11:36:42Z</time>
      </trkpt>
      <trkpt lat="36.4985740" lon="-6.2652580">
        <ele>9.0</ele>
        <time>2023-01-28T11:36:43Z</time>
      </trkpt>
      <trkpt lat="36.4986120" lon="-6.2652650">
        <ele>8.8</ele>
        <time>2023-01-28T11:36:44Z</time>
      </trkpt>
      <trkpt lat="36.4986440" lon="-6.2652740">
        <ele>8.6</ele>
        <time>2023-01-28T11:36:45Z</time>
      </trkpt>
      <trkpt lat="36.4986820" lon="-6.2652960">
        <ele>8.8</ele>
        <time>2023-01-28T11:36:46Z</time>
      </trkpt>
      <trkpt lat="36.4987160" lon="-6.2653150">
        <ele>8.8</ele>
        <time>2023-01-28T11:36:47Z</time>
      </trkpt>
      <trkpt lat="36.4987380" lon="-6.2653270">
        <ele>9.0</ele>
        <time>2023-01-28T11:36:48Z</time>
      </trkpt>
      <trkpt lat="36.4987650" lon="-6.2653370">
        <ele>9.2</ele>
        <time>2023-01-28T11:36:49Z</time>
      </trkpt>
      <trkpt lat="36.4988000" lon="-6.2653430">
        <ele>9.2</ele>
        <time>2023-01-28T11:36:50Z</time>
      </trkpt>
      <trkpt lat="36.4988370" lon="-6.2653550">
        <ele>9.2</ele>
        <time>2023-01-28T11:36:51Z</time>
      </trkpt>
      <trkpt lat="36.4988720" lon="-6.2653730">
        <ele>9.4</ele>
        <time>2023-01-28T11:36:52Z</time>
      </trkpt>
      <trkpt lat="36.4989020" lon="-6.2653930">
        <ele>9.2</ele>
        <time>2023-01-28T11:36:53Z</time>
      </trkpt>
      <trkpt lat="36.4989230" lon="-6.2654070">
        <ele>9.2</ele>
        <time>2023-01-28T11:36:54Z</time>
      </trkpt>
      <trkpt lat="36.4989360" lon="-6.2654220">
        <ele>9.0</ele>
        <time>2023-01-28T11:36:55Z</time>
      </trkpt>
      <trkpt lat="36.4989500" lon="-6.2654470">
        <ele>9.0</ele>
        <time>2023-01-28T11:36:56Z</time>
      </trkpt>
      <trkpt lat="36.4989780" lon="-6.2654690">
        <ele>9.0</ele>
        <time>2023-01-28T11:36:57Z</time>
      </trkpt>
      <trkpt lat="36.4990040" lon="-6.2654810">
        <ele>8.8</ele>
        <time>2023-01-28T11:36:58Z</time>
      </trkpt>
      <trkpt lat="36.4990400" lon="-6.2654970">
        <ele>8.8</ele>
        <time>2023-01-28T11:36:59Z</time>
      </trkpt>
      <trkpt lat="36.4990720" lon="-6.2655140">
        <ele>8.8</ele>
        <time>2023-01-28T11:37:00Z</time>
      </trkpt>
      <trkpt lat="36.4990920" lon="-6.2655280">
        <ele>9.0</ele>
        <time>2023-01-28T11:37:01Z</time>
      </trkpt>
      <trkpt lat="36.4991340" lon="-6.2655370">
        <ele>9.2</ele>
        <time>2023-01-28T11:37:02Z</time>
      </trkpt>
      <trkpt lat="36.4991590" lon="-6.2655480">
        <ele>9.2</ele>
        <time>2023-01-28T11:37:03Z</time>
      </trkpt>
      <trkpt lat="36.4991920" lon="-6.2655630">
        <ele>9.2</ele>
        <time>2023-01-28T11:37:04Z</time>
      </trkpt>
      <trkpt lat="36.4992220" lon="-6.2655790">
        <ele>9.0</ele>
        <time>2023-01-28T11:37:05Z</time>
      </trkpt>
      <trkpt lat="36.4992700" lon="-6.2656020">
        <ele>9.0</ele>
        <time>2023-01-28T11:37:06Z</time>
      </trkpt>
      <trkpt lat="36.4993020" lon="-6.2656220">
        <ele>9.0</ele>
        <time>2023-01-28T11:37:07Z</time>
      </trkpt>
      <trkpt lat="36.4993370" lon="-6.2656390">
        <ele>9.0</ele>
        <time>2023-01-28T11:37:08Z</time>
      </trkpt>
      <trkpt lat="36.4993730" lon="-6.2656410">
        <ele>9.2</ele>
        <time>2023-01-28T11:37:09Z</time>
      </trkpt>
      <trkpt lat="36.4994060" lon="-6.2656560">
        <ele>9.2</ele>
        <time>2023-01-28T11:37:10Z</time>
      </trkpt>
      <trkpt lat="36.4994380" lon="-6.2656710">
        <ele>9.2</ele>
        <time>2023-01-28T11:37:11Z</time>
      </trkpt>
      <trkpt lat="36.4994840" lon="-6.2657040">
        <ele>9.2</ele>
        <time>2023-01-28T11:37:12Z</time>
      </trkpt>
      <trkpt lat="36.4995260" lon="-6.2657310">
        <ele>9.2</ele>
        <time>2023-01-28T11:37:13Z</time>
      </trkpt>
      <trkpt lat="36.4995360" lon="-6.2657350">
        <ele>9.2</ele>
        <time>2023-01-28T11:37:14Z</time>
      </trkpt>
      <trkpt lat="36.4995620" lon="-6.2657350">
        <ele>9.2</ele>
        <time>2023-01-28T11:37:15Z</time>
      </trkpt>
      <trkpt lat="36.4995780" lon="-6.2657220">
        <ele>9.2</ele>
        <time>2023-01-28T11:37:16Z</time>
      </trkpt>
      <trkpt lat="36.4996150" lon="-6.2657280">
        <ele>9.2</ele>
        <time>2023-01-28T11:37:17Z</time>
      </trkpt>
      <trkpt lat="36.4996460" lon="-6.2657340">
        <ele>9.2</ele>
        <time>2023-01-28T11:37:18Z</time>
      </trkpt>
      <trkpt lat="36.4996930" lon="-6.2657450">
        <ele>9.2</ele>
        <time>2023-01-28T11:37:19Z</time>
      </trkpt>
      <trkpt lat="36.4997380" lon="-6.2657420">
        <ele>9.2</ele>
        <time>2023-01-28T11:37:20Z</time>
      </trkpt>
      <trkpt lat="36.4997710" lon="-6.2657620">
        <ele>9.2</ele>
        <time>2023-01-28T11:37:21Z</time>
      </trkpt>
      <trkpt lat="36.4997940" lon="-6.2657870">
        <ele>9.2</ele>
        <time>2023-01-28T11:37:22Z</time>
      </trkpt>
      <trkpt lat="36.4998290" lon="-6.2658000">
        <ele>9.2</ele>
        <time>2023-01-28T11:37:23Z</time>
      </trkpt>
      <trkpt lat="36.4998660" lon="-6.2658050">
        <ele>9.4</ele>
        <time>2023-01-28T11:37:24Z</time>
      </trkpt>
      <trkpt lat="36.4998940" lon="-6.2657980">
        <ele>9.6</ele>
        <time>2023-01-28T11:37:25Z</time>
      </trkpt>
      <trkpt lat="36.4999220" lon="-6.2658230">
        <ele>9.6</ele>
        <time>2023-01-28T11:37:26Z</time>
      </trkpt>
      <trkpt lat="36.4999590" lon="-6.2658520">
        <ele>9.6</ele>
        <time>2023-01-28T11:37:27Z</time>
      </trkpt>
      <trkpt lat="36.4999900" lon="-6.2658660">
        <ele>9.4</ele>
        <time>2023-01-28T11:37:28Z</time>
      </trkpt>
      <trkpt lat="36.5000090" lon="-6.2658840">
        <ele>9.2</ele>
        <time>2023-01-28T11:37:29Z</time>
      </trkpt>
      <trkpt lat="36.5000510" lon="-6.2658920">
        <ele>9.2</ele>
        <time>2023-01-28T11:37:30Z</time>
      </trkpt>
      <trkpt lat="36.5000720" lon="-6.2659040">
        <ele>9.2</ele>
        <time>2023-01-28T11:37:31Z</time>
      </trkpt>
      <trkpt lat="36.5000940" lon="-6.2659040">
        <ele>9.2</ele>
        <time>2023-01-28T11:37:32Z</time>
      </trkpt>
      <trkpt lat="36.5001210" lon="-6.2659100">
        <ele>9.2</ele>
        <time>2023-01-28T11:37:33Z</time>
      </trkpt>
      <trkpt lat="36.5001520" lon="-6.2659160">
        <ele>9.2</ele>
        <time>2023-01-28T11:37:34Z</time>
      </trkpt>
      <trkpt lat="36.5001770" lon="-6.2659470">
        <ele>9.4</ele>
        <time>2023-01-28T11:37:35Z</time>
      </trkpt>
      <trkpt lat="36.5002040" lon="-6.2659750">
        <ele>9.2</ele>
        <time>2023-01-28T11:37:36Z</time>
      </trkpt>
      <trkpt lat="36.5002240" lon="-6.2659900">
        <ele>9.4</ele>
        <time>2023-01-28T11:37:37Z</time>
      </trkpt>
      <trkpt lat="36.5002460" lon="-6.2660080">
        <ele>9.4</ele>
        <time>2023-01-28T11:37:38Z</time>
      </trkpt>
      <trkpt lat="36.5002950" lon="-6.2659980">
        <ele>9.4</ele>
        <time>2023-01-28T11:37:39Z</time>
      </trkpt>
      <trkpt lat="36.5003200" lon="-6.2660230">
        <ele>9.4</ele>
        <time>2023-01-28T11:37:40Z</time>
      </trkpt>
      <trkpt lat="36.5003620" lon="-6.2660300">
        <ele>9.2</ele>
        <time>2023-01-28T11:37:41Z</time>
      </trkpt>
      <trkpt lat="36.5003890" lon="-6.2660790">
        <ele>9.4</ele>
        <time>2023-01-28T11:37:42Z</time>
      </trkpt>
      <trkpt lat="36.5004040" lon="-6.2660660">
        <ele>9.6</ele>
        <time>2023-01-28T11:37:43Z</time>
      </trkpt>
      <trkpt lat="36.5004230" lon="-6.2660670">
        <ele>9.4</ele>
        <time>2023-01-28T11:37:44Z</time>
      </trkpt>
      <trkpt lat="36.5004740" lon="-6.2660760">
        <ele>9.4</ele>
        <time>2023-01-28T11:37:45Z</time>
      </trkpt>
      <trkpt lat="36.5004970" lon="-6.2661120">
        <ele>9.4</ele>
        <time>2023-01-28T11:37:46Z</time>
      </trkpt>
      <trkpt lat="36.5005160" lon="-6.2661060">
        <ele>9.6</ele>
        <time>2023-01-28T11:37:47Z</time>
      </trkpt>
      <trkpt lat="36.5005530" lon="-6.2661210">
        <ele>9.6</ele>
        <time>2023-01-28T11:37:48Z</time>
      </trkpt>
      <trkpt lat="36.5005810" lon="-6.2661280">
        <ele>9.6</ele>
        <time>2023-01-28T11:37:49Z</time>
      </trkpt>
      <trkpt lat="36.5006050" lon="-6.2661520">
        <ele>9.6</ele>
        <time>2023-01-28T11:37:50Z</time>
      </trkpt>
      <trkpt lat="36.5006330" lon="-6.2661590">
        <ele>9.8</ele>
        <time>2023-01-28T11:37:51Z</time>
      </trkpt>
      <trkpt lat="36.5006510" lon="-6.2661690">
        <ele>10.2</ele>
        <time>2023-01-28T11:37:52Z</time>
      </trkpt>
      <trkpt lat="36.5006800" lon="-6.2661900">
        <ele>10.6</ele>
        <time>2023-01-28T11:37:53Z</time>
      </trkpt>
      <trkpt lat="36.5007130" lon="-6.2662110">
        <ele>10.4</ele>
        <time>2023-01-28T11:37:54Z</time>
      </trkpt>
      <trkpt lat="36.5007210" lon="-6.2662320">
        <ele>10.4</ele>
        <time>2023-01-28T11:37:55Z</time>
      </trkpt>
      <trkpt lat="36.5007120" lon="-6.2662670">
        <ele>10.4</ele>
        <time>2023-01-28T11:37:56Z</time>
      </trkpt>
      <trkpt lat="36.5006970" lon="-6.2662990">
        <ele>10.8</ele>
        <time>2023-01-28T11:37:57Z</time>
      </trkpt>
      <trkpt lat="36.5006910" lon="-6.2663330">
        <ele>10.8</ele>
        <time>2023-01-28T11:37:58Z</time>
      </trkpt>
      <trkpt lat="36.5006920" lon="-6.2663820">
        <ele>9.6</ele>
        <time>2023-01-28T11:37:59Z</time>
      </trkpt>
      <trkpt lat="36.5006760" lon="-6.2664270">
        <ele>9.0</ele>
        <time>2023-01-28T11:38:00Z</time>
      </trkpt>
      <trkpt lat="36.5006560" lon="-6.2664770">
        <ele>9.0</ele>
        <time>2023-01-28T11:38:01Z</time>
      </trkpt>
      <trkpt lat="36.5006450" lon="-6.2665450">
        <ele>8.8</ele>
        <time>2023-01-28T11:38:02Z</time>
      </trkpt>
      <trkpt lat="36.5006260" lon="-6.2665910">
        <ele>8.6</ele>
        <time>2023-01-28T11:38:03Z</time>
      </trkpt>
      <trkpt lat="36.5006110" lon="-6.2666270">
        <ele>8.8</ele>
        <time>2023-01-28T11:38:04Z</time>
      </trkpt>
      <trkpt lat="36.5005850" lon="-6.2666910">
        <ele>9.0</ele>
        <time>2023-01-28T11:38:05Z</time>
      </trkpt>
      <trkpt lat="36.5005910" lon="-6.2667190">
        <ele>9.0</ele>
        <time>2023-01-28T11:38:06Z</time>
      </trkpt>
      <trkpt lat="36.5005700" lon="-6.2667680">
        <ele>9.0</ele>
        <time>2023-01-28T11:38:07Z</time>
      </trkpt>
      <trkpt lat="36.5005550" lon="-6.2668110">
        <ele>8.8</ele>
        <time>2023-01-28T11:38:08Z</time>
      </trkpt>
      <trkpt lat="36.5005310" lon="-6.2668590">
        <ele>9.0</ele>
        <time>2023-01-28T11:38:09Z</time>
      </trkpt>
      <trkpt lat="36.5005250" lon="-6.2669000">
        <ele>9.0</ele>
        <time>2023-01-28T11:38:10Z</time>
      </trkpt>
      <trkpt lat="36.5005110" lon="-6.2669470">
        <ele>9.2</ele>
        <time>2023-01-28T11:38:11Z</time>
      </trkpt>
      <trkpt lat="36.5004710" lon="-6.2670060">
        <ele>9.2</ele>
        <time>2023-01-28T11:38:12Z</time>
      </trkpt>
      <trkpt lat="36.5004560" lon="-6.2670530">
        <ele>9.4</ele>
        <time>2023-01-28T11:38:13Z</time>
      </trkpt>
      <trkpt lat="36.5004330" lon="-6.2671060">
        <ele>9.2</ele>
        <time>2023-01-28T11:38:14Z</time>
      </trkpt>
      <trkpt lat="36.5004240" lon="-6.2671530">
        <ele>9.2</ele>
        <time>2023-01-28T11:38:15Z</time>
      </trkpt>
      <trkpt lat="36.5004170" lon="-6.2672060">
        <ele>9.2</ele>
        <time>2023-01-28T11:38:16Z</time>
      </trkpt>
      <trkpt lat="36.5003940" lon="-6.2672480">
        <ele>9.2</ele>
        <time>2023-01-28T11:38:17Z</time>
      </trkpt>
      <trkpt lat="36.5003690" lon="-6.2673020">
        <ele>9.2</ele>
        <time>2023-01-28T11:38:18Z</time>
      </trkpt>
      <trkpt lat="36.5003670" lon="-6.2673580">
        <ele>9.2</ele>
        <time>2023-01-28T11:38:19Z</time>
      </trkpt>
      <trkpt lat="36.5003510" lon="-6.2674130">
        <ele>9.2</ele>
        <time>2023-01-28T11:38:20Z</time>
      </trkpt>
      <trkpt lat="36.5003390" lon="-6.2674650">
        <ele>9.0</ele>
        <time>2023-01-28T11:38:21Z</time>
      </trkpt>
      <trkpt lat="36.5003240" lon="-6.2675210">
        <ele>9.0</ele>
        <time>2023-01-28T11:38:22Z</time>
      </trkpt>
      <trkpt lat="36.5002980" lon="-6.2675710">
        <ele>9.2</ele>
        <time>2023-01-28T11:38:23Z</time>
      </trkpt>
      <trkpt lat="36.5002900" lon="-6.2676130">
        <ele>9.2</ele>
        <time>2023-01-28T11:38:24Z</time>
      </trkpt>
      <trkpt lat="36.5002800" lon="-6.2676480">
        <ele>9.4</ele>
        <time>2023-01-28T11:38:25Z</time>
      </trkpt>
      <trkpt lat="36.5002670" lon="-6.2676920">
        <ele>9.4</ele>
        <time>2023-01-28T11:38:26Z</time>
      </trkpt>
      <trkpt lat="36.5002680" lon="-6.2677210">
        <ele>9.4</ele>
        <time>2023-01-28T11:38:27Z</time>
      </trkpt>
      <trkpt lat="36.5002470" lon="-6.2677570">
        <ele>9.4</ele>
        <time>2023-01-28T11:38:28Z</time>
      </trkpt>
      <trkpt lat="36.5002530" lon="-6.2677930">
        <ele>9.4</ele>
        <time>2023-01-28T11:38:29Z</time>
      </trkpt>
      <trkpt lat="36.5002510" lon="-6.2678320">
        <ele>9.4</ele>
        <time>2023-01-28T11:38:30Z</time>
      </trkpt>
      <trkpt lat="36.5002370" lon="-6.2678600">
        <ele>9.4</ele>
        <time>2023-01-28T11:38:31Z</time>
      </trkpt>
      <trkpt lat="36.5002290" lon="-6.2678870">
        <ele>9.4</ele>
        <time>2023-01-28T11:38:32Z</time>
      </trkpt>
      <trkpt lat="36.5002260" lon="-6.2679340">
        <ele>9.4</ele>
        <time>2023-01-28T11:38:33Z</time>
      </trkpt>
      <trkpt lat="36.5002180" lon="-6.2679690">
        <ele>9.6</ele>
        <time>2023-01-28T11:38:34Z</time>
      </trkpt>
      <trkpt lat="36.5002120" lon="-6.2679890">
        <ele>9.8</ele>
        <time>2023-01-28T11:38:35Z</time>
      </trkpt>
      <trkpt lat="36.5001940" lon="-6.2680440">
        <ele>10.0</ele>
        <time>2023-01-28T11:38:36Z</time>
      </trkpt>
      <trkpt lat="36.5001790" lon="-6.2680680">
        <ele>9.8</ele>
        <time>2023-01-28T11:38:37Z</time>
      </trkpt>
      <trkpt lat="36.5001840" lon="-6.2680650">
        <ele>10.0</ele>
        <time>2023-01-28T11:38:38Z</time>
      </trkpt>
      <trkpt lat="36.5001730" lon="-6.2680890">
        <ele>9.8</ele>
        <time>2023-01-28T11:38:39Z</time>
      </trkpt>
      <trkpt lat="36.5001560" lon="-6.2680890">
        <ele>9.6</ele>
        <time>2023-01-28T11:38:40Z</time>
      </trkpt>
      <trkpt lat="36.5001480" lon="-6.2680990">
        <ele>9.6</ele>
        <time>2023-01-28T11:38:41Z</time>
      </trkpt>
      <trkpt lat="36.5001280" lon="-6.2680960">
        <ele>9.6</ele>
        <time>2023-01-28T11:38:42Z</time>
      </trkpt>
      <trkpt lat="36.5001200" lon="-6.2680890">
        <ele>9.6</ele>
        <time>2023-01-28T11:38:43Z</time>
      </trkpt>
      <trkpt lat="36.5001210" lon="-6.2680970">
        <ele>9.6</ele>
        <time>2023-01-28T11:38:44Z</time>
      </trkpt>
      <trkpt lat="36.5001140" lon="-6.2680960">
        <ele>9.6</ele>
        <time>2023-01-28T11:38:45Z</time>
      </trkpt>
      <trkpt lat="36.5001130" lon="-6.2680800">
        <ele>9.6</ele>
        <time>2023-01-28T11:38:46Z</time>
      </trkpt>
      <trkpt lat="36.5001060" lon="-6.2680860">
        <ele>9.6</ele>
        <time>2023-01-28T11:38:47Z</time>
      </trkpt>
      <trkpt lat="36.5000930" lon="-6.2680860">
        <ele>9.6</ele>
        <time>2023-01-28T11:38:48Z</time>
      </trkpt>
      <trkpt lat="36.5000740" lon="-6.2681000">
        <ele>9.6</ele>
        <time>2023-01-28T11:38:49Z</time>
      </trkpt>
      <trkpt lat="36.5000820" lon="-6.2681100">
        <ele>9.6</ele>
        <time>2023-01-28T11:38:50Z</time>
      </trkpt>
      <trkpt lat="36.5000810" lon="-6.2681290">
        <ele>9.4</ele>
        <time>2023-01-28T11:38:51Z</time>
      </trkpt>
      <trkpt lat="36.5000740" lon="-6.2681600">
        <ele>9.6</ele>
        <time>2023-01-28T11:38:52Z</time>
      </trkpt>
      <trkpt lat="36.5000800" lon="-6.2681890">
        <ele>9.6</ele>
        <time>2023-01-28T11:38:53Z</time>
      </trkpt>
      <trkpt lat="36.5000680" lon="-6.2682160">
        <ele>9.6</ele>
        <time>2023-01-28T11:38:54Z</time>
      </trkpt>
      <trkpt lat="36.5000730" lon="-6.2682390">
        <ele>9.6</ele>
        <time>2023-01-28T11:38:55Z</time>
      </trkpt>
      <trkpt lat="36.5001020" lon="-6.2682800">
        <ele>9.4</ele>
        <time>2023-01-28T11:38:56Z</time>
      </trkpt>
      <trkpt lat="36.5001000" lon="-6.2683190">
        <ele>9.4</ele>
        <time>2023-01-28T11:38:57Z</time>
      </trkpt>
      <trkpt lat="36.5001230" lon="-6.2683510">
        <ele>9.4</ele>
        <time>2023-01-28T11:38:58Z</time>
      </trkpt>
      <trkpt lat="36.5001440" lon="-6.2683620">
        <ele>9.6</ele>
        <time>2023-01-28T11:38:59Z</time>
      </trkpt>
      <trkpt lat="36.5001640" lon="-6.2683770">
        <ele>9.6</ele>
        <time>2023-01-28T11:39:00Z</time>
      </trkpt>
      <trkpt lat="36.5001990" lon="-6.2683920">
        <ele>9.6</ele>
        <time>2023-01-28T11:39:01Z</time>
      </trkpt>
      <trkpt lat="36.5002190" lon="-6.2683910">
        <ele>9.6</ele>
        <time>2023-01-28T11:39:02Z</time>
      </trkpt>
      <trkpt lat="36.5002440" lon="-6.2683830">
        <ele>9.6</ele>
        <time>2023-01-28T11:39:03Z</time>
      </trkpt>
      <trkpt lat="36.5002670" lon="-6.2683940">
        <ele>9.4</ele>
        <time>2023-01-28T11:39:04Z</time>
      </trkpt>
      <trkpt lat="36.5002840" lon="-6.2684050">
        <ele>9.4</ele>
        <time>2023-01-28T11:39:05Z</time>
      </trkpt>
      <trkpt lat="36.5003050" lon="-6.2684240">
        <ele>9.4</ele>
        <time>2023-01-28T11:39:06Z</time>
      </trkpt>
      <trkpt lat="36.5003280" lon="-6.2684420">
        <ele>9.4</ele>
        <time>2023-01-28T11:39:07Z</time>
      </trkpt>
      <trkpt lat="36.5003770" lon="-6.2685190">
        <ele>9.6</ele>
        <time>2023-01-28T11:39:08Z</time>
      </trkpt>
      <trkpt lat="36.5003990" lon="-6.2685330">
        <ele>9.6</ele>
        <time>2023-01-28T11:39:09Z</time>
      </trkpt>
      <trkpt lat="36.5004470" lon="-6.2685390">
        <ele>9.8</ele>
        <time>2023-01-28T11:39:10Z</time>
      </trkpt>
      <trkpt lat="36.5004630" lon="-6.2685430">
        <ele>9.8</ele>
        <time>2023-01-28T11:39:11Z</time>
      </trkpt>
      <trkpt lat="36.5004930" lon="-6.2685470">
        <ele>9.8</ele>
        <time>2023-01-28T11:39:12Z</time>
      </trkpt>
      <trkpt lat="36.5005270" lon="-6.2685740">
        <ele>9.6</ele>
        <time>2023-01-28T11:39:13Z</time>
      </trkpt>
      <trkpt lat="36.5005680" lon="-6.2685860">
        <ele>9.4</ele>
        <time>2023-01-28T11:39:14Z</time>
      </trkpt>
      <trkpt lat="36.5006100" lon="-6.2685960">
        <ele>9.4</ele>
        <time>2023-01-28T11:39:15Z</time>
      </trkpt>
      <trkpt lat="36.5006390" lon="-6.2686040">
        <ele>9.8</ele>
        <time>2023-01-28T11:39:16Z</time>
      </trkpt>
      <trkpt lat="36.5006880" lon="-6.2686310">
        <ele>10.0</ele>
        <time>2023-01-28T11:39:17Z</time>
      </trkpt>
      <trkpt lat="36.5007110" lon="-6.2686510">
        <ele>10.0</ele>
        <time>2023-01-28T11:39:18Z</time>
      </trkpt>
      <trkpt lat="36.5007570" lon="-6.2686790">
        <ele>10.0</ele>
        <time>2023-01-28T11:39:19Z</time>
      </trkpt>
      <trkpt lat="36.5007830" lon="-6.2686870">
        <ele>10.2</ele>
        <time>2023-01-28T11:39:20Z</time>
      </trkpt>
      <trkpt lat="36.5008110" lon="-6.2687030">
        <ele>10.2</ele>
        <time>2023-01-28T11:39:21Z</time>
      </trkpt>
      <trkpt lat="36.5008440" lon="-6.2687110">
        <ele>10.2</ele>
        <time>2023-01-28T11:39:22Z</time>
      </trkpt>
      <trkpt lat="36.5008760" lon="-6.2687210">
        <ele>10.2</ele>
        <time>2023-01-28T11:39:23Z</time>
      </trkpt>
      <trkpt lat="36.5009030" lon="-6.2687310">
        <ele>10.2</ele>
        <time>2023-01-28T11:39:24Z</time>
      </trkpt>
      <trkpt lat="36.5009310" lon="-6.2687420">
        <ele>10.0</ele>
        <time>2023-01-28T11:39:25Z</time>
      </trkpt>
      <trkpt lat="36.5009880" lon="-6.2687600">
        <ele>9.8</ele>
        <time>2023-01-28T11:39:26Z</time>
      </trkpt>
      <trkpt lat="36.5010140" lon="-6.2687720">
        <ele>9.6</ele>
        <time>2023-01-28T11:39:27Z</time>
      </trkpt>
      <trkpt lat="36.5010320" lon="-6.2687710">
        <ele>9.6</ele>
        <time>2023-01-28T11:39:28Z</time>
      </trkpt>
      <trkpt lat="36.5010660" lon="-6.2687870">
        <ele>9.4</ele>
        <time>2023-01-28T11:39:29Z</time>
      </trkpt>
      <trkpt lat="36.5011020" lon="-6.2688010">
        <ele>9.4</ele>
        <time>2023-01-28T11:39:30Z</time>
      </trkpt>
      <trkpt lat="36.5011230" lon="-6.2688240">
        <ele>9.4</ele>
        <time>2023-01-28T11:39:31Z</time>
      </trkpt>
      <trkpt lat="36.5011460" lon="-6.2688400">
        <ele>9.2</ele>
        <time>2023-01-28T11:39:32Z</time>
      </trkpt>
      <trkpt lat="36.5011630" lon="-6.2688350">
        <ele>9.0</ele>
        <time>2023-01-28T11:39:33Z</time>
      </trkpt>
      <trkpt lat="36.5011820" lon="-6.2688390">
        <ele>8.8</ele>
        <time>2023-01-28T11:39:34Z</time>
      </trkpt>
      <trkpt lat="36.5012120" lon="-6.2688820">
        <ele>8.8</ele>
        <time>2023-01-28T11:39:35Z</time>
      </trkpt>
      <trkpt lat="36.5012410" lon="-6.2689230">
        <ele>9.4</ele>
        <time>2023-01-28T11:39:36Z</time>
      </trkpt>
      <trkpt lat="36.5012780" lon="-6.2689510">
        <ele>9.8</ele>
        <time>2023-01-28T11:39:37Z</time>
      </trkpt>
      <trkpt lat="36.5013310" lon="-6.2689450">
        <ele>9.8</ele>
        <time>2023-01-28T11:39:38Z</time>
      </trkpt>
      <trkpt lat="36.5013360" lon="-6.2689960">
        <ele>9.8</ele>
        <time>2023-01-28T11:39:39Z</time>
      </trkpt>
      <trkpt lat="36.5013950" lon="-6.2690070">
        <ele>9.8</ele>
        <time>2023-01-28T11:39:40Z</time>
      </trkpt>
      <trkpt lat="36.5014260" lon="-6.2690260">
        <ele>9.8</ele>
        <time>2023-01-28T11:39:41Z</time>
      </trkpt>
      <trkpt lat="36.5014550" lon="-6.2690420">
        <ele>9.8</ele>
        <time>2023-01-28T11:39:42Z</time>
      </trkpt>
      <trkpt lat="36.5014850" lon="-6.2690600">
        <ele>9.6</ele>
        <time>2023-01-28T11:39:43Z</time>
      </trkpt>
      <trkpt lat="36.5014970" lon="-6.2691050">
        <ele>9.6</ele>
        <time>2023-01-28T11:39:44Z</time>
      </trkpt>
      <trkpt lat="36.5015040" lon="-6.2691400">
        <ele>9.6</ele>
        <time>2023-01-28T11:39:45Z</time>
      </trkpt>
      <trkpt lat="36.5014970" lon="-6.2691770">
        <ele>9.4</ele>
        <time>2023-01-28T11:39:46Z</time>
      </trkpt>
      <trkpt lat="36.5014860" lon="-6.2692120">
        <ele>9.4</ele>
        <time>2023-01-28T11:39:47Z</time>
      </trkpt>
      <trkpt lat="36.5014740" lon="-6.2692460">
        <ele>9.4</ele>
        <time>2023-01-28T11:39:48Z</time>
      </trkpt>
      <trkpt lat="36.5014660" lon="-6.2692850">
        <ele>9.2</ele>
        <time>2023-01-28T11:39:49Z</time>
      </trkpt>
      <trkpt lat="36.5014510" lon="-6.2693190">
        <ele>9.2</ele>
        <time>2023-01-28T11:39:50Z</time>
      </trkpt>
      <trkpt lat="36.5014450" lon="-6.2693680">
        <ele>9.4</ele>
        <time>2023-01-28T11:39:51Z</time>
      </trkpt>
      <trkpt lat="36.5014300" lon="-6.2694060">
        <ele>9.4</ele>
        <time>2023-01-28T11:39:52Z</time>
      </trkpt>
      <trkpt lat="36.5014230" lon="-6.2694360">
        <ele>9.4</ele>
        <time>2023-01-28T11:39:53Z</time>
      </trkpt>
      <trkpt lat="36.5014120" lon="-6.2694740">
        <ele>9.6</ele>
        <time>2023-01-28T11:39:54Z</time>
      </trkpt>
      <trkpt lat="36.5014190" lon="-6.2695090">
        <ele>9.4</ele>
        <time>2023-01-28T11:39:55Z</time>
      </trkpt>
      <trkpt lat="36.5014050" lon="-6.2695480">
        <ele>9.4</ele>
        <time>2023-01-28T11:39:56Z</time>
      </trkpt>
      <trkpt lat="36.5013980" lon="-6.2695750">
        <ele>9.4</ele>
        <time>2023-01-28T11:39:57Z</time>
      </trkpt>
      <trkpt lat="36.5013960" lon="-6.2696010">
        <ele>9.4</ele>
        <time>2023-01-28T11:39:58Z</time>
      </trkpt>
      <trkpt lat="36.5013890" lon="-6.2696080">
        <ele>9.6</ele>
        <time>2023-01-28T11:39:59Z</time>
      </trkpt>
      <trkpt lat="36.5013690" lon="-6.2696310">
        <ele>9.6</ele>
        <time>2023-01-28T11:40:00Z</time>
      </trkpt>
      <trkpt lat="36.5014110" lon="-6.2696770">
        <ele>9.6</ele>
        <time>2023-01-28T11:40:01Z</time>
      </trkpt>
      <trkpt lat="36.5013950" lon="-6.2696830">
        <ele>9.6</ele>
        <time>2023-01-28T11:40:02Z</time>
      </trkpt>
      <trkpt lat="36.5013780" lon="-6.2696820">
        <ele>9.6</ele>
        <time>2023-01-28T11:40:03Z</time>
      </trkpt>
      <trkpt lat="36.5013690" lon="-6.2696810">
        <ele>9.6</ele>
        <time>2023-01-28T11:40:04Z</time>
      </trkpt>
      <trkpt lat="36.5013680" lon="-6.2696960">
        <ele>9.6</ele>
        <time>2023-01-28T11:40:05Z</time>
      </trkpt>
      <trkpt lat="36.5013480" lon="-6.2697140">
        <ele>9.6</ele>
        <time>2023-01-28T11:40:06Z</time>
      </trkpt>
      <trkpt lat="36.5013370" lon="-6.2697330">
        <ele>9.8</ele>
        <time>2023-01-28T11:40:07Z</time>
      </trkpt>
      <trkpt lat="36.5013400" lon="-6.2697400">
        <ele>9.8</ele>
        <time>2023-01-28T11:40:08Z</time>
      </trkpt>
      <trkpt lat="36.5013420" lon="-6.2697510">
        <ele>10.0</ele>
        <time>2023-01-28T11:40:09Z</time>
      </trkpt>
      <trkpt lat="36.5013410" lon="-6.2697500">
        <ele>9.8</ele>
        <time>2023-01-28T11:40:10Z</time>
      </trkpt>
      <trkpt lat="36.5013530" lon="-6.2697490">
        <ele>9.8</ele>
        <time>2023-01-28T11:40:11Z</time>
      </trkpt>
      <trkpt lat="36.5013560" lon="-6.2697590">
        <ele>9.8</ele>
        <time>2023-01-28T11:40:12Z</time>
      </trkpt>
      <trkpt lat="36.5013440" lon="-6.2697530">
        <ele>9.8</ele>
        <time>2023-01-28T11:40:13Z</time>
      </trkpt>
      <trkpt lat="36.5013450" lon="-6.2697550">
        <ele>9.8</ele>
        <time>2023-01-28T11:40:14Z</time>
      </trkpt>
      <trkpt lat="36.5013390" lon="-6.2697600">
        <ele>9.8</ele>
        <time>2023-01-28T11:40:15Z</time>
      </trkpt>
      <trkpt lat="36.5013480" lon="-6.2697590">
        <ele>9.6</ele>
        <time>2023-01-28T11:40:16Z</time>
      </trkpt>
      <trkpt lat="36.5013490" lon="-6.2697700">
        <ele>9.8</ele>
        <time>2023-01-28T11:40:17Z</time>
      </trkpt>
      <trkpt lat="36.5013490" lon="-6.2697740">
        <ele>9.8</ele>
        <time>2023-01-28T11:40:18Z</time>
      </trkpt>
      <trkpt lat="36.5013440" lon="-6.2697730">
        <ele>9.8</ele>
        <time>2023-01-28T11:40:19Z</time>
      </trkpt>
      <trkpt lat="36.5013370" lon="-6.2697810">
        <ele>9.8</ele>
        <time>2023-01-28T11:40:20Z</time>
      </trkpt>
      <trkpt lat="36.5013300" lon="-6.2698130">
        <ele>9.8</ele>
        <time>2023-01-28T11:40:50Z</time>
      </trkpt>
      <trkpt lat="36.5013360" lon="-6.2698320">
        <ele>9.8</ele>
        <time>2023-01-28T11:40:51Z</time>
      </trkpt>
      <trkpt lat="36.5013630" lon="-6.2698360">
        <ele>9.8</ele>
        <time>2023-01-28T11:40:52Z</time>
      </trkpt>
      <trkpt lat="36.5013780" lon="-6.2698510">
        <ele>9.8</ele>
        <time>2023-01-28T11:40:53Z</time>
      </trkpt>
      <trkpt lat="36.5014070" lon="-6.2698760">
        <ele>10.2</ele>
        <time>2023-01-28T11:40:54Z</time>
      </trkpt>
      <trkpt lat="36.5014150" lon="-6.2698860">
        <ele>10.4</ele>
        <time>2023-01-28T11:40:55Z</time>
      </trkpt>
      <trkpt lat="36.5014280" lon="-6.2698950">
        <ele>10.8</ele>
        <time>2023-01-28T11:40:56Z</time>
      </trkpt>
      <trkpt lat="36.5014390" lon="-6.2699140">
        <ele>11.2</ele>
        <time>2023-01-28T11:40:57Z</time>
      </trkpt>
      <trkpt lat="36.5014510" lon="-6.2699430">
        <ele>11.2</ele>
        <time>2023-01-28T11:40:58Z</time>
      </trkpt>
      <trkpt lat="36.5014630" lon="-6.2699650">
        <ele>10.8</ele>
        <time>2023-01-28T11:40:59Z</time>
      </trkpt>
      <trkpt lat="36.5014690" lon="-6.2699820">
        <ele>11.0</ele>
        <time>2023-01-28T11:41:00Z</time>
      </trkpt>
      <trkpt lat="36.5014900" lon="-6.2700100">
        <ele>10.8</ele>
        <time>2023-01-28T11:41:01Z</time>
      </trkpt>
      <trkpt lat="36.5015190" lon="-6.2700460">
        <ele>10.8</ele>
        <time>2023-01-28T11:41:02Z</time>
      </trkpt>
      <trkpt lat="36.5015410" lon="-6.2700720">
        <ele>10.6</ele>
        <time>2023-01-28T11:41:03Z</time>
      </trkpt>
      <trkpt lat="36.5015490" lon="-6.2700920">
        <ele>10.4</ele>
        <time>2023-01-28T11:41:04Z</time>
      </trkpt>
      <trkpt lat="36.5015640" lon="-6.2701190">
        <ele>10.4</ele>
        <time>2023-01-28T11:41:05Z</time>
      </trkpt>
      <trkpt lat="36.5015720" lon="-6.2701360">
        <ele>10.4</ele>
        <time>2023-01-28T11:41:06Z</time>
      </trkpt>
      <trkpt lat="36.5015930" lon="-6.2701570">
        <ele>10.4</ele>
        <time>2023-01-28T11:41:07Z</time>
      </trkpt>
      <trkpt lat="36.5016130" lon="-6.2701860">
        <ele>10.8</ele>
        <time>2023-01-28T11:41:08Z</time>
      </trkpt>
      <trkpt lat="36.5016430" lon="-6.2702050">
        <ele>10.6</ele>
        <time>2023-01-28T11:41:09Z</time>
      </trkpt>
      <trkpt lat="36.5016740" lon="-6.2702290">
        <ele>10.2</ele>
        <time>2023-01-28T11:41:10Z</time>
      </trkpt>
      <trkpt lat="36.5017050" lon="-6.2702630">
        <ele>10.2</ele>
        <time>2023-01-28T11:41:11Z</time>
      </trkpt>
      <trkpt lat="36.5017280" lon="-6.2702940">
        <ele>10.0</ele>
        <time>2023-01-28T11:41:12Z</time>
      </trkpt>
      <trkpt lat="36.5017510" lon="-6.2703320">
        <ele>10.2</ele>
        <time>2023-01-28T11:41:13Z</time>
      </trkpt>
      <trkpt lat="36.5017710" lon="-6.2703450">
        <ele>10.2</ele>
        <time>2023-01-28T11:41:14Z</time>
      </trkpt>
      <trkpt lat="36.5017770" lon="-6.2703680">
        <ele>10.2</ele>
        <time>2023-01-28T11:41:15Z</time>
      </trkpt>
      <trkpt lat="36.5017940" lon="-6.2704040">
        <ele>9.8</ele>
        <time>2023-01-28T11:41:16Z</time>
      </trkpt>
      <trkpt lat="36.5018260" lon="-6.2704320">
        <ele>9.8</ele>
        <time>2023-01-28T11:41:17Z</time>
      </trkpt>
      <trkpt lat="36.5018520" lon="-6.2704640">
        <ele>9.8</ele>
        <time>2023-01-28T11:41:18Z</time>
      </trkpt>
      <trkpt lat="36.5018910" lon="-6.2705000">
        <ele>9.8</ele>
        <time>2023-01-28T11:41:19Z</time>
      </trkpt>
      <trkpt lat="36.5019110" lon="-6.2705420">
        <ele>9.8</ele>
        <time>2023-01-28T11:41:20Z</time>
      </trkpt>
      <trkpt lat="36.5019330" lon="-6.2705730">
        <ele>10.0</ele>
        <time>2023-01-28T11:41:21Z</time>
      </trkpt>
      <trkpt lat="36.5019490" lon="-6.2706020">
        <ele>10.0</ele>
        <time>2023-01-28T11:41:22Z</time>
      </trkpt>
      <trkpt lat="36.5019890" lon="-6.2706300">
        <ele>10.0</ele>
        <time>2023-01-28T11:41:23Z</time>
      </trkpt>
      <trkpt lat="36.5020250" lon="-6.2706590">
        <ele>10.0</ele>
        <time>2023-01-28T11:41:24Z</time>
      </trkpt>
      <trkpt lat="36.5020520" lon="-6.2706880">
        <ele>10.0</ele>
        <time>2023-01-28T11:41:25Z</time>
      </trkpt>
      <trkpt lat="36.5020820" lon="-6.2707070">
        <ele>10.0</ele>
        <time>2023-01-28T11:41:26Z</time>
      </trkpt>
      <trkpt lat="36.5021050" lon="-6.2707330">
        <ele>10.0</ele>
        <time>2023-01-28T11:41:27Z</time>
      </trkpt>
      <trkpt lat="36.5021220" lon="-6.2707550">
        <ele>9.8</ele>
        <time>2023-01-28T11:41:28Z</time>
      </trkpt>
      <trkpt lat="36.5021370" lon="-6.2707930">
        <ele>9.8</ele>
        <time>2023-01-28T11:41:29Z</time>
      </trkpt>
      <trkpt lat="36.5021760" lon="-6.2708240">
        <ele>9.8</ele>
        <time>2023-01-28T11:41:30Z</time>
      </trkpt>
      <trkpt lat="36.5022080" lon="-6.2708600">
        <ele>10.0</ele>
        <time>2023-01-28T11:41:31Z</time>
      </trkpt>
      <trkpt lat="36.5022310" lon="-6.2708790">
        <ele>9.8</ele>
        <time>2023-01-28T11:41:32Z</time>
      </trkpt>
      <trkpt lat="36.5022490" lon="-6.2709330">
        <ele>9.8</ele>
        <time>2023-01-28T11:41:33Z</time>
      </trkpt>
      <trkpt lat="36.5022730" lon="-6.2709540">
        <ele>9.8</ele>
        <time>2023-01-28T11:41:34Z</time>
      </trkpt>
      <trkpt lat="36.5022860" lon="-6.2709790">
        <ele>10.0</ele>
        <time>2023-01-28T11:41:35Z</time>
      </trkpt>
      <trkpt lat="36.5023040" lon="-6.2710160">
        <ele>9.8</ele>
        <time>2023-01-28T11:41:36Z</time>
      </trkpt>
      <trkpt lat="36.5023210" lon="-6.2710380">
        <ele>9.8</ele>
        <time>2023-01-28T11:41:37Z</time>
      </trkpt>
      <trkpt lat="36.5023610" lon="-6.2710670">
        <ele>9.6</ele>
        <time>2023-01-28T11:41:38Z</time>
      </trkpt>
      <trkpt lat="36.5023810" lon="-6.2711030">
        <ele>9.8</ele>
        <time>2023-01-28T11:41:39Z</time>
      </trkpt>
      <trkpt lat="36.5024100" lon="-6.2711250">
        <ele>9.8</ele>
        <time>2023-01-28T11:41:40Z</time>
      </trkpt>
      <trkpt lat="36.5024290" lon="-6.2711540">
        <ele>9.6</ele>
        <time>2023-01-28T11:41:41Z</time>
      </trkpt>
      <trkpt lat="36.5024530" lon="-6.2711790">
        <ele>9.6</ele>
        <time>2023-01-28T11:41:42Z</time>
      </trkpt>
      <trkpt lat="36.5024710" lon="-6.2712030">
        <ele>9.6</ele>
        <time>2023-01-28T11:41:43Z</time>
      </trkpt>
      <trkpt lat="36.5024910" lon="-6.2712220">
        <ele>10.0</ele>
        <time>2023-01-28T11:41:44Z</time>
      </trkpt>
      <trkpt lat="36.5025210" lon="-6.2712520">
        <ele>10.0</ele>
        <time>2023-01-28T11:41:45Z</time>
      </trkpt>
      <trkpt lat="36.5025470" lon="-6.2712720">
        <ele>10.2</ele>
        <time>2023-01-28T11:41:46Z</time>
      </trkpt>
      <trkpt lat="36.5025640" lon="-6.2712910">
        <ele>10.0</ele>
        <time>2023-01-28T11:41:47Z</time>
      </trkpt>
      <trkpt lat="36.5025840" lon="-6.2713120">
        <ele>9.6</ele>
        <time>2023-01-28T11:41:48Z</time>
      </trkpt>
      <trkpt lat="36.5025960" lon="-6.2713330">
        <ele>9.4</ele>
        <time>2023-01-28T11:41:49Z</time>
      </trkpt>
      <trkpt lat="36.5026360" lon="-6.2713580">
        <ele>9.0</ele>
        <time>2023-01-28T11:41:50Z</time>
      </trkpt>
      <trkpt lat="36.5026730" lon="-6.2713850">
        <ele>9.0</ele>
        <time>2023-01-28T11:41:51Z</time>
      </trkpt>
      <trkpt lat="36.5026940" lon="-6.2714190">
        <ele>9.2</ele>
        <time>2023-01-28T11:41:52Z</time>
      </trkpt>
      <trkpt lat="36.5027240" lon="-6.2714600">
        <ele>9.0</ele>
        <time>2023-01-28T11:41:53Z</time>
      </trkpt>
      <trkpt lat="36.5027300" lon="-6.2715020">
        <ele>9.2</ele>
        <time>2023-01-28T11:41:54Z</time>
      </trkpt>
      <trkpt lat="36.5027480" lon="-6.2715330">
        <ele>8.8</ele>
        <time>2023-01-28T11:41:55Z</time>
      </trkpt>
      <trkpt lat="36.5027620" lon="-6.2715470">
        <ele>8.6</ele>
        <time>2023-01-28T11:41:56Z</time>
      </trkpt>
      <trkpt lat="36.5027550" lon="-6.2715600">
        <ele>8.6</ele>
        <time>2023-01-28T11:41:57Z</time>
      </trkpt>
      <trkpt lat="36.5027670" lon="-6.2715890">
        <ele>9.2</ele>
        <time>2023-01-28T11:41:58Z</time>
      </trkpt>
      <trkpt lat="36.5027710" lon="-6.2715990">
        <ele>9.4</ele>
        <time>2023-01-28T11:41:59Z</time>
      </trkpt>
      <trkpt lat="36.5027810" lon="-6.2716110">
        <ele>9.8</ele>
        <time>2023-01-28T11:42:00Z</time>
      </trkpt>
      <trkpt lat="36.5027870" lon="-6.2716280">
        <ele>9.8</ele>
        <time>2023-01-28T11:42:01Z</time>
      </trkpt>
      <trkpt lat="36.5027950" lon="-6.2716440">
        <ele>9.6</ele>
        <time>2023-01-28T11:42:02Z</time>
      </trkpt>
      <trkpt lat="36.5028150" lon="-6.2716600">
        <ele>10.0</ele>
        <time>2023-01-28T11:42:03Z</time>
      </trkpt>
      <trkpt lat="36.5028310" lon="-6.2716850">
        <ele>10.0</ele>
        <time>2023-01-28T11:42:04Z</time>
      </trkpt>
      <trkpt lat="36.5028470" lon="-6.2716950">
        <ele>10.0</ele>
        <time>2023-01-28T11:42:05Z</time>
      </trkpt>
      <trkpt lat="36.5028640" lon="-6.2717100">
        <ele>9.6</ele>
        <time>2023-01-28T11:42:06Z</time>
      </trkpt>
      <trkpt lat="36.5028860" lon="-6.2717270">
        <ele>9.4</ele>
        <time>2023-01-28T11:42:07Z</time>
      </trkpt>
      <trkpt lat="36.5029250" lon="-6.2717330">
        <ele>9.4</ele>
        <time>2023-01-28T11:42:08Z</time>
      </trkpt>
      <trkpt lat="36.5029450" lon="-6.2717420">
        <ele>9.2</ele>
        <time>2023-01-28T11:42:09Z</time>
      </trkpt>
      <trkpt lat="36.5029490" lon="-6.2717510">
        <ele>9.0</ele>
        <time>2023-01-28T11:42:10Z</time>
      </trkpt>
      <trkpt lat="36.5029610" lon="-6.2717760">
        <ele>8.8</ele>
        <time>2023-01-28T11:42:11Z</time>
      </trkpt>
      <trkpt lat="36.5029870" lon="-6.2717920">
        <ele>8.8</ele>
        <time>2023-01-28T11:42:12Z</time>
      </trkpt>
      <trkpt lat="36.5030160" lon="-6.2718130">
        <ele>8.8</ele>
        <time>2023-01-28T11:42:13Z</time>
      </trkpt>
      <trkpt lat="36.5030630" lon="-6.2718410">
        <ele>8.8</ele>
        <time>2023-01-28T11:42:14Z</time>
      </trkpt>
      <trkpt lat="36.5031050" lon="-6.2718650">
        <ele>8.8</ele>
        <time>2023-01-28T11:42:15Z</time>
      </trkpt>
      <trkpt lat="36.5031340" lon="-6.2718830">
        <ele>8.6</ele>
        <time>2023-01-28T11:42:16Z</time>
      </trkpt>
      <trkpt lat="36.5031520" lon="-6.2719010">
        <ele>8.4</ele>
        <time>2023-01-28T11:42:17Z</time>
      </trkpt>
      <trkpt lat="36.5031700" lon="-6.2719330">
        <ele>8.2</ele>
        <time>2023-01-28T11:42:18Z</time>
      </trkpt>
      <trkpt lat="36.5031730" lon="-6.2719570">
        <ele>8.2</ele>
        <time>2023-01-28T11:42:19Z</time>
      </trkpt>
      <trkpt lat="36.5031880" lon="-6.2719780">
        <ele>8.0</ele>
        <time>2023-01-28T11:42:20Z</time>
      </trkpt>
      <trkpt lat="36.5031920" lon="-6.2720060">
        <ele>7.8</ele>
        <time>2023-01-28T11:42:21Z</time>
      </trkpt>
      <trkpt lat="36.5032190" lon="-6.2720160">
        <ele>7.8</ele>
        <time>2023-01-28T11:42:22Z</time>
      </trkpt>
      <trkpt lat="36.5032490" lon="-6.2720230">
        <ele>8.0</ele>
        <time>2023-01-28T11:42:23Z</time>
      </trkpt>
      <trkpt lat="36.5032750" lon="-6.2720290">
        <ele>8.2</ele>
        <time>2023-01-28T11:42:24Z</time>
      </trkpt>
      <trkpt lat="36.5032880" lon="-6.2720310">
        <ele>8.2</ele>
        <time>2023-01-28T11:42:25Z</time>
      </trkpt>
      <trkpt lat="36.5033030" lon="-6.2720430">
        <ele>8.4</ele>
        <time>2023-01-28T11:42:26Z</time>
      </trkpt>
      <trkpt lat="36.5033130" lon="-6.2720610">
        <ele>8.4</ele>
        <time>2023-01-28T11:42:27Z</time>
      </trkpt>
      <trkpt lat="36.5033130" lon="-6.2720800">
        <ele>8.4</ele>
        <time>2023-01-28T11:42:28Z</time>
      </trkpt>
      <trkpt lat="36.5033130" lon="-6.2720760">
        <ele>8.4</ele>
        <time>2023-01-28T11:42:29Z</time>
      </trkpt>
      <trkpt lat="36.5032980" lon="-6.2720810">
        <ele>8.4</ele>
        <time>2023-01-28T11:42:30Z</time>
      </trkpt>
      <trkpt lat="36.5032740" lon="-6.2720850">
        <ele>8.4</ele>
        <time>2023-01-28T11:42:31Z</time>
      </trkpt>
      <trkpt lat="36.5032690" lon="-6.2720970">
        <ele>8.4</ele>
        <time>2023-01-28T11:42:32Z</time>
      </trkpt>
      <trkpt lat="36.5032780" lon="-6.2721180">
        <ele>8.4</ele>
        <time>2023-01-28T11:42:33Z</time>
      </trkpt>
      <trkpt lat="36.5032670" lon="-6.2721120">
        <ele>8.4</ele>
        <time>2023-01-28T11:42:34Z</time>
      </trkpt>
      <trkpt lat="36.5032650" lon="-6.2721270">
        <ele>8.4</ele>
        <time>2023-01-28T11:42:35Z</time>
      </trkpt>
      <trkpt lat="36.5032790" lon="-6.2721120">
        <ele>8.4</ele>
        <time>2023-01-28T11:42:36Z</time>
      </trkpt>
      <trkpt lat="36.5032850" lon="-6.2721130">
        <ele>8.4</ele>
        <time>2023-01-28T11:42:37Z</time>
      </trkpt>
      <trkpt lat="36.5032910" lon="-6.2721150">
        <ele>8.4</ele>
        <time>2023-01-28T11:42:38Z</time>
      </trkpt>
      <trkpt lat="36.5033030" lon="-6.2721290">
        <ele>8.4</ele>
        <time>2023-01-28T11:42:39Z</time>
      </trkpt>
      <trkpt lat="36.5033260" lon="-6.2721450">
        <ele>8.4</ele>
        <time>2023-01-28T11:42:40Z</time>
      </trkpt>
      <trkpt lat="36.5033410" lon="-6.2721660">
        <ele>8.4</ele>
        <time>2023-01-28T11:42:41Z</time>
      </trkpt>
      <trkpt lat="36.5033370" lon="-6.2721960">
        <ele>8.2</ele>
        <time>2023-01-28T11:42:42Z</time>
      </trkpt>
      <trkpt lat="36.5033590" lon="-6.2722210">
        <ele>8.4</ele>
        <time>2023-01-28T11:42:43Z</time>
      </trkpt>
      <trkpt lat="36.5033930" lon="-6.2722310">
        <ele>8.4</ele>
        <time>2023-01-28T11:42:44Z</time>
      </trkpt>
      <trkpt lat="36.5033890" lon="-6.2723260">
        <ele>8.4</ele>
        <time>2023-01-28T11:42:45Z</time>
      </trkpt>
      <trkpt lat="36.5034020" lon="-6.2723510">
        <ele>8.4</ele>
        <time>2023-01-28T11:42:46Z</time>
      </trkpt>
      <trkpt lat="36.5034140" lon="-6.2723740">
        <ele>8.4</ele>
        <time>2023-01-28T11:42:47Z</time>
      </trkpt>
      <trkpt lat="36.5034150" lon="-6.2723570">
        <ele>8.4</ele>
        <time>2023-01-28T11:42:48Z</time>
      </trkpt>
      <trkpt lat="36.5034400" lon="-6.2723670">
        <ele>8.4</ele>
        <time>2023-01-28T11:42:49Z</time>
      </trkpt>
      <trkpt lat="36.5034530" lon="-6.2724230">
        <ele>6.8</ele>
        <time>2023-01-28T11:42:50Z</time>
      </trkpt>
      <trkpt lat="36.5034710" lon="-6.2724210">
        <ele>6.8</ele>
        <time>2023-01-28T11:42:51Z</time>
      </trkpt>
      <trkpt lat="36.5035020" lon="-6.2724410">
        <ele>6.8</ele>
        <time>2023-01-28T11:42:52Z</time>
      </trkpt>
      <trkpt lat="36.5035380" lon="-6.2724750">
        <ele>6.8</ele>
        <time>2023-01-28T11:42:53Z</time>
      </trkpt>
      <trkpt lat="36.5035540" lon="-6.2724980">
        <ele>8.6</ele>
        <time>2023-01-28T11:42:54Z</time>
      </trkpt>
      <trkpt lat="36.5035880" lon="-6.2725620">
        <ele>8.4</ele>
        <time>2023-01-28T11:42:55Z</time>
      </trkpt>
      <trkpt lat="36.5036200" lon="-6.2725790">
        <ele>8.2</ele>
        <time>2023-01-28T11:42:56Z</time>
      </trkpt>
      <trkpt lat="36.5036110" lon="-6.2725580">
        <ele>8.4</ele>
        <time>2023-01-28T11:42:57Z</time>
      </trkpt>
      <trkpt lat="36.5036420" lon="-6.2725590">
        <ele>8.4</ele>
        <time>2023-01-28T11:42:58Z</time>
      </trkpt>
      <trkpt lat="36.5036650" lon="-6.2725440">
        <ele>8.6</ele>
        <time>2023-01-28T11:42:59Z</time>
      </trkpt>
      <trkpt lat="36.5036570" lon="-6.2725370">
        <ele>8.6</ele>
        <time>2023-01-28T11:43:00Z</time>
      </trkpt>
      <trkpt lat="36.5036720" lon="-6.2725290">
        <ele>8.6</ele>
        <time>2023-01-28T11:43:01Z</time>
      </trkpt>
      <trkpt lat="36.5036950" lon="-6.2725230">
        <ele>8.8</ele>
        <time>2023-01-28T11:43:02Z</time>
      </trkpt>
      <trkpt lat="36.5037050" lon="-6.2725130">
        <ele>8.8</ele>
        <time>2023-01-28T11:43:03Z</time>
      </trkpt>
      <trkpt lat="36.5037240" lon="-6.2724700">
        <ele>8.8</ele>
        <time>2023-01-28T11:43:04Z</time>
      </trkpt>
    </trkseg>
  </trk>
</gpx>
